<?xml version="1.0" encoding="UTF-8" standalone="no" ?>
<gpx xmlns="http://www.topografix.com/GPX/1/1" xmlns:xsi="http://www.w3.org/2001/XMLSchema-instance" xsi:schemaLocation="http://www.topografix.com/GPX/1/1 http://www.topografix.com/GPX/1/1/gpx.xsd" version="1.1" creator="VisuGPX - https://www.visugpx.com">
  <metadata>
    <name>2016-05-08 Bike ride-La Croix du Ban-St Roch</name>
    <desc><![CDATA[2016-05-08 Bike ride-La Croix du Ban-St Roch]]></desc>
  </metadata>
  <wpt lat="45.92461" lon="4.73701">
    <ele>180.2</ele>
    <name><![CDATA[2015-10-25 10:15 (Start)]]></name>
  </wpt>
  <wpt lat="45.92464" lon="4.73712">
    <ele>172.3</ele>
    <name><![CDATA[2015-10-25 10:15 (End)]]></name>
    <desc><![CDATA[Created by Google My Tracks on Android  Name: 2015-10-25 10:15 Activity type: biking Description: - Total distance: 48.33 km (30.0 mi) Total time: 2:50:29 Moving time: 2:47:54 Average speed: 17.01 km/h (10.6 mi/h) Average moving speed: 17.27 km/h (10.7 mi/h) Max speed: 49.51 km/h (30.8 mi/h) Average pace: 3:32 min/km (5:41 min/mi) Average moving pace: 3:28 min/km (5:35 min/mi) Fastest pace: 1:13 min/km (1:57 min/mi) Max elevation: 510 m (1675 ft) Min elevation: 167 m (547 ft) Elevation gain: 1035 m (3396 ft) Max grade: 18 % Min grade: -80 % Recorded: 25/10/2015 10:15]]></desc>
  </wpt>
  <trk>
    <name><![CDATA[2015-10-25 10:15]]></name>
    <trkseg>
      <trkpt lat="45.92461" lon="4.73701">
        <ele>180.199996948</ele>
        <time>2015-10-25T09:15:46.617Z</time>
      </trkpt>
      <trkpt lat="45.92462" lon="4.7369">
        <ele>166.300003052</ele>
        <time>2015-10-25T09:17:36.004Z</time>
      </trkpt>
      <trkpt lat="45.92463" lon="4.73687">
        <ele>166.600006104</ele>
        <time>2015-10-25T09:17:36.972Z</time>
      </trkpt>
      <trkpt lat="45.92464" lon="4.73676">
        <ele>167.699996948</ele>
        <time>2015-10-25T09:17:40.005Z</time>
      </trkpt>
      <trkpt lat="45.92464" lon="4.73672">
        <ele>168.399993896</ele>
        <time>2015-10-25T09:17:40.968Z</time>
      </trkpt>
      <trkpt lat="45.92466" lon="4.73663">
        <ele>169.300003052</ele>
        <time>2015-10-25T09:17:43.001Z</time>
      </trkpt>
      <trkpt lat="45.92467" lon="4.73659">
        <ele>169.800003052</ele>
        <time>2015-10-25T09:17:43.971Z</time>
      </trkpt>
      <trkpt lat="45.9247" lon="4.7365">
        <ele>170.600006104</ele>
        <time>2015-10-25T09:17:46.002Z</time>
      </trkpt>
      <trkpt lat="45.92472" lon="4.73648">
        <ele>170.899993896</ele>
        <time>2015-10-25T09:17:46.971Z</time>
      </trkpt>
      <trkpt lat="45.92479" lon="4.73647">
        <ele>171.699996948</ele>
        <time>2015-10-25T09:17:49.004Z</time>
      </trkpt>
      <trkpt lat="45.92482" lon="4.73647">
        <ele>171.899993896</ele>
        <time>2015-10-25T09:17:49.974Z</time>
      </trkpt>
      <trkpt lat="45.92491" lon="4.73648">
        <ele>172.899993896</ele>
        <time>2015-10-25T09:17:52.008Z</time>
      </trkpt>
      <trkpt lat="45.92495" lon="4.73648">
        <ele>173.199996948</ele>
        <time>2015-10-25T09:17:53.134Z</time>
      </trkpt>
      <trkpt lat="45.92504" lon="4.73647">
        <ele>173.399993896</ele>
        <time>2015-10-25T09:17:55.216Z</time>
      </trkpt>
      <trkpt lat="45.92508" lon="4.73647">
        <ele>173.399993896</ele>
        <time>2015-10-25T09:17:55.969Z</time>
      </trkpt>
      <trkpt lat="45.92513" lon="4.73647">
        <ele>173.399993896</ele>
        <time>2015-10-25T09:17:57.002Z</time>
      </trkpt>
      <trkpt lat="45.92518" lon="4.73646">
        <ele>173.5</ele>
        <time>2015-10-25T09:17:57.974Z</time>
      </trkpt>
      <trkpt lat="45.92523" lon="4.73645">
        <ele>173.5</ele>
        <time>2015-10-25T09:17:59.002Z</time>
      </trkpt>
      <trkpt lat="45.92528" lon="4.73644">
        <ele>173.600006104</ele>
        <time>2015-10-25T09:17:59.982Z</time>
      </trkpt>
      <trkpt lat="45.92532" lon="4.73643">
        <ele>172.600006104</ele>
        <time>2015-10-25T09:18:00.999Z</time>
      </trkpt>
      <trkpt lat="45.92537" lon="4.73642">
        <ele>172.100006104</ele>
        <time>2015-10-25T09:18:02.005Z</time>
      </trkpt>
      <trkpt lat="45.92546" lon="4.7364">
        <ele>172.100006104</ele>
        <time>2015-10-25T09:18:04.018Z</time>
      </trkpt>
      <trkpt lat="45.9255" lon="4.73639">
        <ele>172.5</ele>
        <time>2015-10-25T09:18:04.979Z</time>
      </trkpt>
      <trkpt lat="45.92555" lon="4.73637">
        <ele>173.100006104</ele>
        <time>2015-10-25T09:18:06.017Z</time>
      </trkpt>
      <trkpt lat="45.92559" lon="4.73636">
        <ele>173.100006104</ele>
        <time>2015-10-25T09:18:06.974Z</time>
      </trkpt>
      <trkpt lat="45.92563" lon="4.73635">
        <ele>173.100006104</ele>
        <time>2015-10-25T09:18:08.008Z</time>
      </trkpt>
      <trkpt lat="45.92568" lon="4.73633">
        <ele>173.199996948</ele>
        <time>2015-10-25T09:18:08.976Z</time>
      </trkpt>
      <trkpt lat="45.92573" lon="4.73632">
        <ele>173.100006104</ele>
        <time>2015-10-25T09:18:10.019Z</time>
      </trkpt>
      <trkpt lat="45.92577" lon="4.7363">
        <ele>173.199996948</ele>
        <time>2015-10-25T09:18:10.971Z</time>
      </trkpt>
      <trkpt lat="45.92581" lon="4.73629">
        <ele>172.199996948</ele>
        <time>2015-10-25T09:18:12.054Z</time>
      </trkpt>
      <trkpt lat="45.92586" lon="4.73628">
        <ele>171.800003052</ele>
        <time>2015-10-25T09:18:12.972Z</time>
      </trkpt>
      <trkpt lat="45.92591" lon="4.73628">
        <ele>171.699996948</ele>
        <time>2015-10-25T09:18:14.019Z</time>
      </trkpt>
      <trkpt lat="45.92596" lon="4.73629">
        <ele>172.5</ele>
        <time>2015-10-25T09:18:14.971Z</time>
      </trkpt>
      <trkpt lat="45.92601" lon="4.7363">
        <ele>173.5</ele>
        <time>2015-10-25T09:18:16.011Z</time>
      </trkpt>
      <trkpt lat="45.92607" lon="4.73629">
        <ele>173.600006104</ele>
        <time>2015-10-25T09:18:17.068Z</time>
      </trkpt>
      <trkpt lat="45.92611" lon="4.7363">
        <ele>173.199996948</ele>
        <time>2015-10-25T09:18:18.013Z</time>
      </trkpt>
      <trkpt lat="45.92616" lon="4.73635">
        <ele>172.699996948</ele>
        <time>2015-10-25T09:18:18.973Z</time>
      </trkpt>
      <trkpt lat="45.92619" lon="4.73639">
        <ele>172.5</ele>
        <time>2015-10-25T09:18:20.073Z</time>
      </trkpt>
      <trkpt lat="45.92623" lon="4.73645">
        <ele>173.399993896</ele>
        <time>2015-10-25T09:18:20.973Z</time>
      </trkpt>
      <trkpt lat="45.92625" lon="4.73651">
        <ele>174</ele>
        <time>2015-10-25T09:18:22.006Z</time>
      </trkpt>
      <trkpt lat="45.92628" lon="4.73658">
        <ele>174.699996948</ele>
        <time>2015-10-25T09:18:22.974Z</time>
      </trkpt>
      <trkpt lat="45.9263" lon="4.73664">
        <ele>174.899993896</ele>
        <time>2015-10-25T09:18:24.001Z</time>
      </trkpt>
      <trkpt lat="45.92633" lon="4.73672">
        <ele>175.300003052</ele>
        <time>2015-10-25T09:18:24.97Z</time>
      </trkpt>
      <trkpt lat="45.92637" lon="4.73678">
        <ele>176</ele>
        <time>2015-10-25T09:18:25.999Z</time>
      </trkpt>
      <trkpt lat="45.92641" lon="4.73684">
        <ele>176.399993896</ele>
        <time>2015-10-25T09:18:26.97Z</time>
      </trkpt>
      <trkpt lat="45.92645" lon="4.73689">
        <ele>176.399993896</ele>
        <time>2015-10-25T09:18:28.008Z</time>
      </trkpt>
      <trkpt lat="45.92649" lon="4.73694">
        <ele>176.800003052</ele>
        <time>2015-10-25T09:18:28.969Z</time>
      </trkpt>
      <trkpt lat="45.92654" lon="4.73699">
        <ele>177.300003052</ele>
        <time>2015-10-25T09:18:30.02Z</time>
      </trkpt>
      <trkpt lat="45.92659" lon="4.73702">
        <ele>177.399993896</ele>
        <time>2015-10-25T09:18:30.97Z</time>
      </trkpt>
      <trkpt lat="45.92664" lon="4.73704">
        <ele>176.800003052</ele>
        <time>2015-10-25T09:18:31.997Z</time>
      </trkpt>
      <trkpt lat="45.92669" lon="4.73707">
        <ele>176.699996948</ele>
        <time>2015-10-25T09:18:32.968Z</time>
      </trkpt>
      <trkpt lat="45.92674" lon="4.73709">
        <ele>177</ele>
        <time>2015-10-25T09:18:34.009Z</time>
      </trkpt>
      <trkpt lat="45.92679" lon="4.7371">
        <ele>177</ele>
        <time>2015-10-25T09:18:34.973Z</time>
      </trkpt>
      <trkpt lat="45.92685" lon="4.73712">
        <ele>176.800003052</ele>
        <time>2015-10-25T09:18:35.999Z</time>
      </trkpt>
      <trkpt lat="45.9269" lon="4.73714">
        <ele>176.800003052</ele>
        <time>2015-10-25T09:18:36.973Z</time>
      </trkpt>
      <trkpt lat="45.92696" lon="4.73716">
        <ele>177.199996948</ele>
        <time>2015-10-25T09:18:38.032Z</time>
      </trkpt>
      <trkpt lat="45.92701" lon="4.73717">
        <ele>177.5</ele>
        <time>2015-10-25T09:18:38.969Z</time>
      </trkpt>
      <trkpt lat="45.92707" lon="4.73718">
        <ele>177.600006104</ele>
        <time>2015-10-25T09:18:40.007Z</time>
      </trkpt>
      <trkpt lat="45.92712" lon="4.7372">
        <ele>177.800003052</ele>
        <time>2015-10-25T09:18:40.972Z</time>
      </trkpt>
      <trkpt lat="45.92718" lon="4.73721">
        <ele>177.600006104</ele>
        <time>2015-10-25T09:18:41.999Z</time>
      </trkpt>
      <trkpt lat="45.92724" lon="4.73722">
        <ele>177.600006104</ele>
        <time>2015-10-25T09:18:42.968Z</time>
      </trkpt>
      <trkpt lat="45.92729" lon="4.73723">
        <ele>178</ele>
        <time>2015-10-25T09:18:43.998Z</time>
      </trkpt>
      <trkpt lat="45.92735" lon="4.73725">
        <ele>178.199996948</ele>
        <time>2015-10-25T09:18:44.972Z</time>
      </trkpt>
      <trkpt lat="45.9274" lon="4.73726">
        <ele>178.399993896</ele>
        <time>2015-10-25T09:18:46.021Z</time>
      </trkpt>
      <trkpt lat="45.92745" lon="4.73727">
        <ele>178.300003052</ele>
        <time>2015-10-25T09:18:46.972Z</time>
      </trkpt>
      <trkpt lat="45.92754" lon="4.73728">
        <ele>179.199996948</ele>
        <time>2015-10-25T09:18:49.008Z</time>
      </trkpt>
      <trkpt lat="45.92758" lon="4.7373">
        <ele>179.600006104</ele>
        <time>2015-10-25T09:18:49.969Z</time>
      </trkpt>
      <trkpt lat="45.92766" lon="4.73732">
        <ele>180.600006104</ele>
        <time>2015-10-25T09:18:52.014Z</time>
      </trkpt>
      <trkpt lat="45.92769" lon="4.73733">
        <ele>181.100006104</ele>
        <time>2015-10-25T09:18:52.968Z</time>
      </trkpt>
      <trkpt lat="45.92777" lon="4.73738">
        <ele>181.199996948</ele>
        <time>2015-10-25T09:18:55.001Z</time>
      </trkpt>
      <trkpt lat="45.9278" lon="4.73738">
        <ele>181.399993896</ele>
        <time>2015-10-25T09:18:56.004Z</time>
      </trkpt>
      <trkpt lat="45.92784" lon="4.73731">
        <ele>180.899993896</ele>
        <time>2015-10-25T09:18:58.001Z</time>
      </trkpt>
      <trkpt lat="45.92785" lon="4.73726">
        <ele>180.699996948</ele>
        <time>2015-10-25T09:18:58.968Z</time>
      </trkpt>
      <trkpt lat="45.92788" lon="4.73714">
        <ele>181.199996948</ele>
        <time>2015-10-25T09:19:01.018Z</time>
      </trkpt>
      <trkpt lat="45.92789" lon="4.73707">
        <ele>181.399993896</ele>
        <time>2015-10-25T09:19:01.972Z</time>
      </trkpt>
      <trkpt lat="45.9279" lon="4.737">
        <ele>181.5</ele>
        <time>2015-10-25T09:19:03.001Z</time>
      </trkpt>
      <trkpt lat="45.92791" lon="4.73694">
        <ele>181.199996948</ele>
        <time>2015-10-25T09:19:03.976Z</time>
      </trkpt>
      <trkpt lat="45.92793" lon="4.73687">
        <ele>181.199996948</ele>
        <time>2015-10-25T09:19:04.997Z</time>
      </trkpt>
      <trkpt lat="45.92794" lon="4.73681">
        <ele>181.100006104</ele>
        <time>2015-10-25T09:19:05.971Z</time>
      </trkpt>
      <trkpt lat="45.92796" lon="4.73675">
        <ele>180.800003052</ele>
        <time>2015-10-25T09:19:07.004Z</time>
      </trkpt>
      <trkpt lat="45.92798" lon="4.73668">
        <ele>180.300003052</ele>
        <time>2015-10-25T09:19:07.972Z</time>
      </trkpt>
      <trkpt lat="45.92799" lon="4.73661">
        <ele>180.199996948</ele>
        <time>2015-10-25T09:19:09.001Z</time>
      </trkpt>
      <trkpt lat="45.92801" lon="4.73655">
        <ele>180.399993896</ele>
        <time>2015-10-25T09:19:09.971Z</time>
      </trkpt>
      <trkpt lat="45.92805" lon="4.73644">
        <ele>180.699996948</ele>
        <time>2015-10-25T09:19:12.015Z</time>
      </trkpt>
      <trkpt lat="45.92807" lon="4.73641">
        <ele>180.699996948</ele>
        <time>2015-10-25T09:19:12.968Z</time>
      </trkpt>
      <trkpt lat="45.92812" lon="4.7364">
        <ele>180.800003052</ele>
        <time>2015-10-25T09:19:16.005Z</time>
      </trkpt>
      <trkpt lat="45.92813" lon="4.7364">
        <ele>180.699996948</ele>
        <time>2015-10-25T09:19:16.974Z</time>
      </trkpt>
      <trkpt lat="45.92816" lon="4.73637">
        <ele>180.5</ele>
        <time>2015-10-25T09:19:22.014Z</time>
      </trkpt>
      <trkpt lat="45.92817" lon="4.73633">
        <ele>180.5</ele>
        <time>2015-10-25T09:19:22.972Z</time>
      </trkpt>
      <trkpt lat="45.92817" lon="4.73624">
        <ele>180.300003052</ele>
        <time>2015-10-25T09:19:25.006Z</time>
      </trkpt>
      <trkpt lat="45.92817" lon="4.73617">
        <ele>180.100006104</ele>
        <time>2015-10-25T09:19:25.971Z</time>
      </trkpt>
      <trkpt lat="45.92818" lon="4.73611">
        <ele>180</ele>
        <time>2015-10-25T09:19:27.002Z</time>
      </trkpt>
      <trkpt lat="45.92819" lon="4.73604">
        <ele>180</ele>
        <time>2015-10-25T09:19:27.996Z</time>
      </trkpt>
      <trkpt lat="45.92819" lon="4.73598">
        <ele>179.800003052</ele>
        <time>2015-10-25T09:19:29.008Z</time>
      </trkpt>
      <trkpt lat="45.92819" lon="4.73591">
        <ele>179.800003052</ele>
        <time>2015-10-25T09:19:29.969Z</time>
      </trkpt>
      <trkpt lat="45.9282" lon="4.73583">
        <ele>179.699996948</ele>
        <time>2015-10-25T09:19:30.997Z</time>
      </trkpt>
      <trkpt lat="45.9282" lon="4.73576">
        <ele>179.5</ele>
        <time>2015-10-25T09:19:31.974Z</time>
      </trkpt>
      <trkpt lat="45.9282" lon="4.73569">
        <ele>179.100006104</ele>
        <time>2015-10-25T09:19:33Z</time>
      </trkpt>
      <trkpt lat="45.92821" lon="4.73561">
        <ele>178.800003052</ele>
        <time>2015-10-25T09:19:33.973Z</time>
      </trkpt>
      <trkpt lat="45.92821" lon="4.73553">
        <ele>178.699996948</ele>
        <time>2015-10-25T09:19:35.001Z</time>
      </trkpt>
      <trkpt lat="45.92822" lon="4.73545">
        <ele>178.600006104</ele>
        <time>2015-10-25T09:19:35.969Z</time>
      </trkpt>
      <trkpt lat="45.92823" lon="4.73538">
        <ele>178.399993896</ele>
        <time>2015-10-25T09:19:36.997Z</time>
      </trkpt>
      <trkpt lat="45.92823" lon="4.7353">
        <ele>178.300003052</ele>
        <time>2015-10-25T09:19:37.971Z</time>
      </trkpt>
      <trkpt lat="45.92824" lon="4.73522">
        <ele>177.899993896</ele>
        <time>2015-10-25T09:19:38.996Z</time>
      </trkpt>
      <trkpt lat="45.92825" lon="4.73514">
        <ele>177.699996948</ele>
        <time>2015-10-25T09:19:39.973Z</time>
      </trkpt>
      <trkpt lat="45.92826" lon="4.73505">
        <ele>177.100006104</ele>
        <time>2015-10-25T09:19:40.997Z</time>
      </trkpt>
      <trkpt lat="45.92827" lon="4.73496">
        <ele>176.300003052</ele>
        <time>2015-10-25T09:19:41.974Z</time>
      </trkpt>
      <trkpt lat="45.92828" lon="4.73487">
        <ele>176.199996948</ele>
        <time>2015-10-25T09:19:42.996Z</time>
      </trkpt>
      <trkpt lat="45.9283" lon="4.73479">
        <ele>176</ele>
        <time>2015-10-25T09:19:43.968Z</time>
      </trkpt>
      <trkpt lat="45.92831" lon="4.73469">
        <ele>176.199996948</ele>
        <time>2015-10-25T09:19:45.001Z</time>
      </trkpt>
      <trkpt lat="45.92832" lon="4.7346">
        <ele>175.800003052</ele>
        <time>2015-10-25T09:19:45.972Z</time>
      </trkpt>
      <trkpt lat="45.92833" lon="4.73451">
        <ele>175.899993896</ele>
        <time>2015-10-25T09:19:47Z</time>
      </trkpt>
      <trkpt lat="45.92835" lon="4.73443">
        <ele>175.800003052</ele>
        <time>2015-10-25T09:19:47.969Z</time>
      </trkpt>
      <trkpt lat="45.92836" lon="4.73434">
        <ele>175.5</ele>
        <time>2015-10-25T09:19:49.017Z</time>
      </trkpt>
      <trkpt lat="45.92836" lon="4.73425">
        <ele>175.5</ele>
        <time>2015-10-25T09:19:49.969Z</time>
      </trkpt>
      <trkpt lat="45.92837" lon="4.73415">
        <ele>175</ele>
        <time>2015-10-25T09:19:51.042Z</time>
      </trkpt>
      <trkpt lat="45.92838" lon="4.73406">
        <ele>175.399993896</ele>
        <time>2015-10-25T09:19:51.973Z</time>
      </trkpt>
      <trkpt lat="45.92839" lon="4.73397">
        <ele>175.5</ele>
        <time>2015-10-25T09:19:52.997Z</time>
      </trkpt>
      <trkpt lat="45.9284" lon="4.73388">
        <ele>175.399993896</ele>
        <time>2015-10-25T09:19:53.972Z</time>
      </trkpt>
      <trkpt lat="45.92841" lon="4.73378">
        <ele>175.399993896</ele>
        <time>2015-10-25T09:19:54.996Z</time>
      </trkpt>
      <trkpt lat="45.92842" lon="4.73369">
        <ele>175.899993896</ele>
        <time>2015-10-25T09:19:55.968Z</time>
      </trkpt>
      <trkpt lat="45.92843" lon="4.7336">
        <ele>176.699996948</ele>
        <time>2015-10-25T09:19:57Z</time>
      </trkpt>
      <trkpt lat="45.92844" lon="4.73351">
        <ele>176.600006104</ele>
        <time>2015-10-25T09:19:57.975Z</time>
      </trkpt>
      <trkpt lat="45.92845" lon="4.73342">
        <ele>177.699996948</ele>
        <time>2015-10-25T09:19:59Z</time>
      </trkpt>
      <trkpt lat="45.92845" lon="4.73332">
        <ele>178.199996948</ele>
        <time>2015-10-25T09:19:59.974Z</time>
      </trkpt>
      <trkpt lat="45.92846" lon="4.73323">
        <ele>178.600006104</ele>
        <time>2015-10-25T09:20:00.999Z</time>
      </trkpt>
      <trkpt lat="45.92847" lon="4.73313">
        <ele>178.899993896</ele>
        <time>2015-10-25T09:20:01.971Z</time>
      </trkpt>
      <trkpt lat="45.92849" lon="4.73304">
        <ele>179.199996948</ele>
        <time>2015-10-25T09:20:02.997Z</time>
      </trkpt>
      <trkpt lat="45.9285" lon="4.73295">
        <ele>179.5</ele>
        <time>2015-10-25T09:20:03.972Z</time>
      </trkpt>
      <trkpt lat="45.92852" lon="4.73285">
        <ele>179.600006104</ele>
        <time>2015-10-25T09:20:05.01Z</time>
      </trkpt>
      <trkpt lat="45.92853" lon="4.73275">
        <ele>179.300003052</ele>
        <time>2015-10-25T09:20:05.969Z</time>
      </trkpt>
      <trkpt lat="45.92854" lon="4.73265">
        <ele>178.899993896</ele>
        <time>2015-10-25T09:20:07.034Z</time>
      </trkpt>
      <trkpt lat="45.92855" lon="4.73256">
        <ele>178.300003052</ele>
        <time>2015-10-25T09:20:07.968Z</time>
      </trkpt>
      <trkpt lat="45.92857" lon="4.73246">
        <ele>177.899993896</ele>
        <time>2015-10-25T09:20:08.996Z</time>
      </trkpt>
      <trkpt lat="45.92858" lon="4.73236">
        <ele>177.5</ele>
        <time>2015-10-25T09:20:09.974Z</time>
      </trkpt>
      <trkpt lat="45.92859" lon="4.73227">
        <ele>177</ele>
        <time>2015-10-25T09:20:10.997Z</time>
      </trkpt>
      <trkpt lat="45.92861" lon="4.73217">
        <ele>176.199996948</ele>
        <time>2015-10-25T09:20:11.968Z</time>
      </trkpt>
      <trkpt lat="45.92862" lon="4.73208">
        <ele>175.800003052</ele>
        <time>2015-10-25T09:20:12.996Z</time>
      </trkpt>
      <trkpt lat="45.92863" lon="4.73199">
        <ele>175.699996948</ele>
        <time>2015-10-25T09:20:13.968Z</time>
      </trkpt>
      <trkpt lat="45.92865" lon="4.73189">
        <ele>175.5</ele>
        <time>2015-10-25T09:20:14.996Z</time>
      </trkpt>
      <trkpt lat="45.92866" lon="4.7318">
        <ele>175.300003052</ele>
        <time>2015-10-25T09:20:15.972Z</time>
      </trkpt>
      <trkpt lat="45.92867" lon="4.7317">
        <ele>175.199996948</ele>
        <time>2015-10-25T09:20:17.044Z</time>
      </trkpt>
      <trkpt lat="45.92869" lon="4.73161">
        <ele>175.100006104</ele>
        <time>2015-10-25T09:20:17.969Z</time>
      </trkpt>
      <trkpt lat="45.92871" lon="4.73152">
        <ele>175.100006104</ele>
        <time>2015-10-25T09:20:18.996Z</time>
      </trkpt>
      <trkpt lat="45.92872" lon="4.73142">
        <ele>175</ele>
        <time>2015-10-25T09:20:19.968Z</time>
      </trkpt>
      <trkpt lat="45.92874" lon="4.73133">
        <ele>174.600006104</ele>
        <time>2015-10-25T09:20:21.013Z</time>
      </trkpt>
      <trkpt lat="45.92875" lon="4.73124">
        <ele>174.300003052</ele>
        <time>2015-10-25T09:20:21.973Z</time>
      </trkpt>
      <trkpt lat="45.92877" lon="4.73115">
        <ele>174</ele>
        <time>2015-10-25T09:20:22.997Z</time>
      </trkpt>
      <trkpt lat="45.9288" lon="4.73106">
        <ele>173.899993896</ele>
        <time>2015-10-25T09:20:23.972Z</time>
      </trkpt>
      <trkpt lat="45.92883" lon="4.73098">
        <ele>174</ele>
        <time>2015-10-25T09:20:25.035Z</time>
      </trkpt>
      <trkpt lat="45.92885" lon="4.7309">
        <ele>173.899993896</ele>
        <time>2015-10-25T09:20:25.972Z</time>
      </trkpt>
      <trkpt lat="45.92888" lon="4.73082">
        <ele>174.100006104</ele>
        <time>2015-10-25T09:20:26.997Z</time>
      </trkpt>
      <trkpt lat="45.92891" lon="4.73075">
        <ele>174</ele>
        <time>2015-10-25T09:20:27.976Z</time>
      </trkpt>
      <trkpt lat="45.92895" lon="4.73068">
        <ele>173.699996948</ele>
        <time>2015-10-25T09:20:28.997Z</time>
      </trkpt>
      <trkpt lat="45.92899" lon="4.73062">
        <ele>173.699996948</ele>
        <time>2015-10-25T09:20:29.974Z</time>
      </trkpt>
      <trkpt lat="45.92903" lon="4.73056">
        <ele>173.600006104</ele>
        <time>2015-10-25T09:20:31.001Z</time>
      </trkpt>
      <trkpt lat="45.92908" lon="4.73049">
        <ele>173.300003052</ele>
        <time>2015-10-25T09:20:31.969Z</time>
      </trkpt>
      <trkpt lat="45.92912" lon="4.73043">
        <ele>173.300003052</ele>
        <time>2015-10-25T09:20:33.001Z</time>
      </trkpt>
      <trkpt lat="45.92916" lon="4.73037">
        <ele>173.300003052</ele>
        <time>2015-10-25T09:20:33.976Z</time>
      </trkpt>
      <trkpt lat="45.9292" lon="4.73031">
        <ele>173.199996948</ele>
        <time>2015-10-25T09:20:35.047Z</time>
      </trkpt>
      <trkpt lat="45.92925" lon="4.73025">
        <ele>173.199996948</ele>
        <time>2015-10-25T09:20:35.973Z</time>
      </trkpt>
      <trkpt lat="45.92929" lon="4.73019">
        <ele>173.100006104</ele>
        <time>2015-10-25T09:20:37.015Z</time>
      </trkpt>
      <trkpt lat="45.92934" lon="4.73013">
        <ele>173.600006104</ele>
        <time>2015-10-25T09:20:37.972Z</time>
      </trkpt>
      <trkpt lat="45.92939" lon="4.73006">
        <ele>173.600006104</ele>
        <time>2015-10-25T09:20:38.997Z</time>
      </trkpt>
      <trkpt lat="45.92944" lon="4.73">
        <ele>173.600006104</ele>
        <time>2015-10-25T09:20:39.973Z</time>
      </trkpt>
      <trkpt lat="45.92949" lon="4.72993">
        <ele>174.199996948</ele>
        <time>2015-10-25T09:20:40.997Z</time>
      </trkpt>
      <trkpt lat="45.92954" lon="4.72988">
        <ele>174.5</ele>
        <time>2015-10-25T09:20:41.972Z</time>
      </trkpt>
      <trkpt lat="45.92959" lon="4.72982">
        <ele>175</ele>
        <time>2015-10-25T09:20:43.034Z</time>
      </trkpt>
      <trkpt lat="45.92964" lon="4.72976">
        <ele>175.100006104</ele>
        <time>2015-10-25T09:20:43.971Z</time>
      </trkpt>
      <trkpt lat="45.92969" lon="4.7297">
        <ele>174.5</ele>
        <time>2015-10-25T09:20:45.001Z</time>
      </trkpt>
      <trkpt lat="45.92974" lon="4.72964">
        <ele>174.300003052</ele>
        <time>2015-10-25T09:20:45.974Z</time>
      </trkpt>
      <trkpt lat="45.92979" lon="4.72958">
        <ele>174.300003052</ele>
        <time>2015-10-25T09:20:47Z</time>
      </trkpt>
      <trkpt lat="45.92984" lon="4.72952">
        <ele>174.399993896</ele>
        <time>2015-10-25T09:20:47.973Z</time>
      </trkpt>
      <trkpt lat="45.92989" lon="4.72946">
        <ele>174.300003052</ele>
        <time>2015-10-25T09:20:49.001Z</time>
      </trkpt>
      <trkpt lat="45.92994" lon="4.72939">
        <ele>174</ele>
        <time>2015-10-25T09:20:49.974Z</time>
      </trkpt>
      <trkpt lat="45.92999" lon="4.72934">
        <ele>174.100006104</ele>
        <time>2015-10-25T09:20:51.002Z</time>
      </trkpt>
      <trkpt lat="45.93004" lon="4.72927">
        <ele>174.399993896</ele>
        <time>2015-10-25T09:20:51.974Z</time>
      </trkpt>
      <trkpt lat="45.9301" lon="4.72921">
        <ele>174.5</ele>
        <time>2015-10-25T09:20:53.016Z</time>
      </trkpt>
      <trkpt lat="45.93015" lon="4.72915">
        <ele>173.899993896</ele>
        <time>2015-10-25T09:20:53.97Z</time>
      </trkpt>
      <trkpt lat="45.9302" lon="4.72909">
        <ele>173.600006104</ele>
        <time>2015-10-25T09:20:54.996Z</time>
      </trkpt>
      <trkpt lat="45.93026" lon="4.72903">
        <ele>173.699996948</ele>
        <time>2015-10-25T09:20:55.972Z</time>
      </trkpt>
      <trkpt lat="45.93031" lon="4.72897">
        <ele>174</ele>
        <time>2015-10-25T09:20:57.001Z</time>
      </trkpt>
      <trkpt lat="45.93036" lon="4.72891">
        <ele>173.899993896</ele>
        <time>2015-10-25T09:20:57.977Z</time>
      </trkpt>
      <trkpt lat="45.93041" lon="4.72884">
        <ele>173.899993896</ele>
        <time>2015-10-25T09:20:58.997Z</time>
      </trkpt>
      <trkpt lat="45.93046" lon="4.72878">
        <ele>174</ele>
        <time>2015-10-25T09:20:59.97Z</time>
      </trkpt>
      <trkpt lat="45.93052" lon="4.72871">
        <ele>174.199996948</ele>
        <time>2015-10-25T09:21:01.023Z</time>
      </trkpt>
      <trkpt lat="45.93057" lon="4.72866">
        <ele>174.600006104</ele>
        <time>2015-10-25T09:21:02.034Z</time>
      </trkpt>
      <trkpt lat="45.93062" lon="4.72861">
        <ele>175</ele>
        <time>2015-10-25T09:21:02.999Z</time>
      </trkpt>
      <trkpt lat="45.93066" lon="4.72856">
        <ele>175.199996948</ele>
        <time>2015-10-25T09:21:03.977Z</time>
      </trkpt>
      <trkpt lat="45.93071" lon="4.7285">
        <ele>175.300003052</ele>
        <time>2015-10-25T09:21:05Z</time>
      </trkpt>
      <trkpt lat="45.93075" lon="4.72843">
        <ele>175.300003052</ele>
        <time>2015-10-25T09:21:05.973Z</time>
      </trkpt>
      <trkpt lat="45.9308" lon="4.72837">
        <ele>175.399993896</ele>
        <time>2015-10-25T09:21:07.004Z</time>
      </trkpt>
      <trkpt lat="45.93084" lon="4.72832">
        <ele>175.5</ele>
        <time>2015-10-25T09:21:07.968Z</time>
      </trkpt>
      <trkpt lat="45.93088" lon="4.72826">
        <ele>175.5</ele>
        <time>2015-10-25T09:21:09.012Z</time>
      </trkpt>
      <trkpt lat="45.93094" lon="4.72818">
        <ele>175.5</ele>
        <time>2015-10-25T09:21:09.976Z</time>
      </trkpt>
      <trkpt lat="45.93097" lon="4.72814">
        <ele>175.5</ele>
        <time>2015-10-25T09:21:11.001Z</time>
      </trkpt>
      <trkpt lat="45.93102" lon="4.7281">
        <ele>175.399993896</ele>
        <time>2015-10-25T09:21:11.973Z</time>
      </trkpt>
      <trkpt lat="45.93107" lon="4.72805">
        <ele>175.399993896</ele>
        <time>2015-10-25T09:21:12.996Z</time>
      </trkpt>
      <trkpt lat="45.93112" lon="4.728">
        <ele>175.300003052</ele>
        <time>2015-10-25T09:21:13.971Z</time>
      </trkpt>
      <trkpt lat="45.93117" lon="4.72796">
        <ele>175.300003052</ele>
        <time>2015-10-25T09:21:14.999Z</time>
      </trkpt>
      <trkpt lat="45.93122" lon="4.72791">
        <ele>175.399993896</ele>
        <time>2015-10-25T09:21:15.977Z</time>
      </trkpt>
      <trkpt lat="45.93127" lon="4.72785">
        <ele>175.399993896</ele>
        <time>2015-10-25T09:21:17Z</time>
      </trkpt>
      <trkpt lat="45.93132" lon="4.7278">
        <ele>175.399993896</ele>
        <time>2015-10-25T09:21:18.009Z</time>
      </trkpt>
      <trkpt lat="45.93137" lon="4.72774">
        <ele>175.600006104</ele>
        <time>2015-10-25T09:21:19.064Z</time>
      </trkpt>
      <trkpt lat="45.93142" lon="4.72768">
        <ele>175.899993896</ele>
        <time>2015-10-25T09:21:19.968Z</time>
      </trkpt>
      <trkpt lat="45.93147" lon="4.72763">
        <ele>176.300003052</ele>
        <time>2015-10-25T09:21:21.034Z</time>
      </trkpt>
      <trkpt lat="45.93152" lon="4.72757">
        <ele>176.699996948</ele>
        <time>2015-10-25T09:21:21.976Z</time>
      </trkpt>
      <trkpt lat="45.93157" lon="4.72751">
        <ele>176.899993896</ele>
        <time>2015-10-25T09:21:23Z</time>
      </trkpt>
      <trkpt lat="45.93161" lon="4.72745">
        <ele>177.100006104</ele>
        <time>2015-10-25T09:21:23.972Z</time>
      </trkpt>
      <trkpt lat="45.93166" lon="4.72739">
        <ele>177.399993896</ele>
        <time>2015-10-25T09:21:25.001Z</time>
      </trkpt>
      <trkpt lat="45.93171" lon="4.72734">
        <ele>177.600006104</ele>
        <time>2015-10-25T09:21:25.972Z</time>
      </trkpt>
      <trkpt lat="45.93175" lon="4.72729">
        <ele>177.699996948</ele>
        <time>2015-10-25T09:21:27Z</time>
      </trkpt>
      <trkpt lat="45.93179" lon="4.72724">
        <ele>177.899993896</ele>
        <time>2015-10-25T09:21:27.972Z</time>
      </trkpt>
      <trkpt lat="45.93185" lon="4.72718">
        <ele>177.899993896</ele>
        <time>2015-10-25T09:21:28.995Z</time>
      </trkpt>
      <trkpt lat="45.9319" lon="4.72713">
        <ele>178</ele>
        <time>2015-10-25T09:21:29.986Z</time>
      </trkpt>
      <trkpt lat="45.93194" lon="4.72708">
        <ele>178</ele>
        <time>2015-10-25T09:21:31.002Z</time>
      </trkpt>
      <trkpt lat="45.93199" lon="4.72703">
        <ele>177.899993896</ele>
        <time>2015-10-25T09:21:31.969Z</time>
      </trkpt>
      <trkpt lat="45.93203" lon="4.72697">
        <ele>178.300003052</ele>
        <time>2015-10-25T09:21:33.001Z</time>
      </trkpt>
      <trkpt lat="45.93208" lon="4.72692">
        <ele>178.399993896</ele>
        <time>2015-10-25T09:21:33.971Z</time>
      </trkpt>
      <trkpt lat="45.93213" lon="4.72686">
        <ele>178.899993896</ele>
        <time>2015-10-25T09:21:35.002Z</time>
      </trkpt>
      <trkpt lat="45.93217" lon="4.7268">
        <ele>179</ele>
        <time>2015-10-25T09:21:36.004Z</time>
      </trkpt>
      <trkpt lat="45.93222" lon="4.72675">
        <ele>179.800003052</ele>
        <time>2015-10-25T09:21:37.044Z</time>
      </trkpt>
      <trkpt lat="45.93227" lon="4.72669">
        <ele>180.199996948</ele>
        <time>2015-10-25T09:21:37.971Z</time>
      </trkpt>
      <trkpt lat="45.93233" lon="4.72663">
        <ele>180.100006104</ele>
        <time>2015-10-25T09:21:38.999Z</time>
      </trkpt>
      <trkpt lat="45.93238" lon="4.72657">
        <ele>180.800003052</ele>
        <time>2015-10-25T09:21:39.972Z</time>
      </trkpt>
      <trkpt lat="45.93242" lon="4.72651">
        <ele>181.300003052</ele>
        <time>2015-10-25T09:21:40.997Z</time>
      </trkpt>
      <trkpt lat="45.93248" lon="4.72644">
        <ele>181.199996948</ele>
        <time>2015-10-25T09:21:41.975Z</time>
      </trkpt>
      <trkpt lat="45.93253" lon="4.72639">
        <ele>181.300003052</ele>
        <time>2015-10-25T09:21:43Z</time>
      </trkpt>
      <trkpt lat="45.93258" lon="4.72633">
        <ele>181.199996948</ele>
        <time>2015-10-25T09:21:43.967Z</time>
      </trkpt>
      <trkpt lat="45.93264" lon="4.72627">
        <ele>180.899993896</ele>
        <time>2015-10-25T09:21:44.997Z</time>
      </trkpt>
      <trkpt lat="45.93268" lon="4.7262">
        <ele>180.800003052</ele>
        <time>2015-10-25T09:21:45.971Z</time>
      </trkpt>
      <trkpt lat="45.93273" lon="4.72614">
        <ele>181.199996948</ele>
        <time>2015-10-25T09:21:46.999Z</time>
      </trkpt>
      <trkpt lat="45.93278" lon="4.72609">
        <ele>180.600006104</ele>
        <time>2015-10-25T09:21:47.968Z</time>
      </trkpt>
      <trkpt lat="45.93283" lon="4.72603">
        <ele>180.699996948</ele>
        <time>2015-10-25T09:21:48.997Z</time>
      </trkpt>
      <trkpt lat="45.93288" lon="4.72598">
        <ele>181.100006104</ele>
        <time>2015-10-25T09:21:49.97Z</time>
      </trkpt>
      <trkpt lat="45.93292" lon="4.72593">
        <ele>181.600006104</ele>
        <time>2015-10-25T09:21:51.016Z</time>
      </trkpt>
      <trkpt lat="45.93297" lon="4.72588">
        <ele>181.800003052</ele>
        <time>2015-10-25T09:21:51.972Z</time>
      </trkpt>
      <trkpt lat="45.93301" lon="4.72583">
        <ele>182</ele>
        <time>2015-10-25T09:21:53.001Z</time>
      </trkpt>
      <trkpt lat="45.93306" lon="4.72577">
        <ele>182.100006104</ele>
        <time>2015-10-25T09:21:54.009Z</time>
      </trkpt>
      <trkpt lat="45.9331" lon="4.72572">
        <ele>182.300003052</ele>
        <time>2015-10-25T09:21:54.998Z</time>
      </trkpt>
      <trkpt lat="45.93315" lon="4.72567">
        <ele>182.300003052</ele>
        <time>2015-10-25T09:21:55.971Z</time>
      </trkpt>
      <trkpt lat="45.9332" lon="4.72562">
        <ele>182.800003052</ele>
        <time>2015-10-25T09:21:56.999Z</time>
      </trkpt>
      <trkpt lat="45.93325" lon="4.72556">
        <ele>182.600006104</ele>
        <time>2015-10-25T09:21:57.972Z</time>
      </trkpt>
      <trkpt lat="45.93329" lon="4.7255">
        <ele>183</ele>
        <time>2015-10-25T09:21:59Z</time>
      </trkpt>
      <trkpt lat="45.93334" lon="4.72544">
        <ele>183</ele>
        <time>2015-10-25T09:21:59.968Z</time>
      </trkpt>
      <trkpt lat="45.93339" lon="4.72538">
        <ele>182.399993896</ele>
        <time>2015-10-25T09:22:00.996Z</time>
      </trkpt>
      <trkpt lat="45.93344" lon="4.72532">
        <ele>182.5</ele>
        <time>2015-10-25T09:22:01.967Z</time>
      </trkpt>
      <trkpt lat="45.93349" lon="4.72527">
        <ele>183.600006104</ele>
        <time>2015-10-25T09:22:03.044Z</time>
      </trkpt>
      <trkpt lat="45.93354" lon="4.72521">
        <ele>183.600006104</ele>
        <time>2015-10-25T09:22:03.974Z</time>
      </trkpt>
      <trkpt lat="45.93359" lon="4.72515">
        <ele>183.800003052</ele>
        <time>2015-10-25T09:22:04.995Z</time>
      </trkpt>
      <trkpt lat="45.93363" lon="4.72509">
        <ele>183.699996948</ele>
        <time>2015-10-25T09:22:05.968Z</time>
      </trkpt>
      <trkpt lat="45.93368" lon="4.72504">
        <ele>184</ele>
        <time>2015-10-25T09:22:07.014Z</time>
      </trkpt>
      <trkpt lat="45.93372" lon="4.72499">
        <ele>184</ele>
        <time>2015-10-25T09:22:07.977Z</time>
      </trkpt>
      <trkpt lat="45.93377" lon="4.72494">
        <ele>184.300003052</ele>
        <time>2015-10-25T09:22:09.016Z</time>
      </trkpt>
      <trkpt lat="45.93382" lon="4.72489">
        <ele>184</ele>
        <time>2015-10-25T09:22:09.971Z</time>
      </trkpt>
      <trkpt lat="45.93386" lon="4.72483">
        <ele>184.300003052</ele>
        <time>2015-10-25T09:22:10.995Z</time>
      </trkpt>
      <trkpt lat="45.9339" lon="4.72477">
        <ele>184.399993896</ele>
        <time>2015-10-25T09:22:11.968Z</time>
      </trkpt>
      <trkpt lat="45.93394" lon="4.72471">
        <ele>184.199996948</ele>
        <time>2015-10-25T09:22:12.995Z</time>
      </trkpt>
      <trkpt lat="45.93396" lon="4.72465">
        <ele>184</ele>
        <time>2015-10-25T09:22:13.968Z</time>
      </trkpt>
      <trkpt lat="45.93399" lon="4.72457">
        <ele>183.100006104</ele>
        <time>2015-10-25T09:22:14.999Z</time>
      </trkpt>
      <trkpt lat="45.934" lon="4.72449">
        <ele>182.899993896</ele>
        <time>2015-10-25T09:22:15.977Z</time>
      </trkpt>
      <trkpt lat="45.93403" lon="4.72442">
        <ele>183.100006104</ele>
        <time>2015-10-25T09:22:16.995Z</time>
      </trkpt>
      <trkpt lat="45.93406" lon="4.72436">
        <ele>183.199996948</ele>
        <time>2015-10-25T09:22:17.981Z</time>
      </trkpt>
      <trkpt lat="45.9341" lon="4.7243">
        <ele>183.199996948</ele>
        <time>2015-10-25T09:22:18.996Z</time>
      </trkpt>
      <trkpt lat="45.93414" lon="4.72426">
        <ele>183.600006104</ele>
        <time>2015-10-25T09:22:19.967Z</time>
      </trkpt>
      <trkpt lat="45.93419" lon="4.72422">
        <ele>183.300003052</ele>
        <time>2015-10-25T09:22:21.044Z</time>
      </trkpt>
      <trkpt lat="45.93424" lon="4.72419">
        <ele>183</ele>
        <time>2015-10-25T09:22:21.972Z</time>
      </trkpt>
      <trkpt lat="45.9343" lon="4.72416">
        <ele>182.600006104</ele>
        <time>2015-10-25T09:22:23.015Z</time>
      </trkpt>
      <trkpt lat="45.93435" lon="4.72413">
        <ele>182.5</ele>
        <time>2015-10-25T09:22:23.971Z</time>
      </trkpt>
      <trkpt lat="45.93441" lon="4.7241">
        <ele>182.5</ele>
        <time>2015-10-25T09:22:25.001Z</time>
      </trkpt>
      <trkpt lat="45.93446" lon="4.72406">
        <ele>182.399993896</ele>
        <time>2015-10-25T09:22:25.972Z</time>
      </trkpt>
      <trkpt lat="45.93452" lon="4.72402">
        <ele>181.5</ele>
        <time>2015-10-25T09:22:26.997Z</time>
      </trkpt>
      <trkpt lat="45.93457" lon="4.72398">
        <ele>181.800003052</ele>
        <time>2015-10-25T09:22:27.971Z</time>
      </trkpt>
      <trkpt lat="45.93462" lon="4.72393">
        <ele>181.699996948</ele>
        <time>2015-10-25T09:22:28.996Z</time>
      </trkpt>
      <trkpt lat="45.93466" lon="4.72388">
        <ele>181.199996948</ele>
        <time>2015-10-25T09:22:29.968Z</time>
      </trkpt>
      <trkpt lat="45.93471" lon="4.72382">
        <ele>180.300003052</ele>
        <time>2015-10-25T09:22:30.995Z</time>
      </trkpt>
      <trkpt lat="45.93475" lon="4.72374">
        <ele>180.100006104</ele>
        <time>2015-10-25T09:22:31.967Z</time>
      </trkpt>
      <trkpt lat="45.9348" lon="4.72368">
        <ele>179.600006104</ele>
        <time>2015-10-25T09:22:32.999Z</time>
      </trkpt>
      <trkpt lat="45.93484" lon="4.72361">
        <ele>179.399993896</ele>
        <time>2015-10-25T09:22:33.978Z</time>
      </trkpt>
      <trkpt lat="45.93489" lon="4.72354">
        <ele>179.5</ele>
        <time>2015-10-25T09:22:35.003Z</time>
      </trkpt>
      <trkpt lat="45.93493" lon="4.72348">
        <ele>179.300003052</ele>
        <time>2015-10-25T09:22:35.972Z</time>
      </trkpt>
      <trkpt lat="45.93498" lon="4.72342">
        <ele>179</ele>
        <time>2015-10-25T09:22:36.996Z</time>
      </trkpt>
      <trkpt lat="45.93502" lon="4.72336">
        <ele>178.800003052</ele>
        <time>2015-10-25T09:22:37.967Z</time>
      </trkpt>
      <trkpt lat="45.93506" lon="4.7233">
        <ele>178.399993896</ele>
        <time>2015-10-25T09:22:39.01Z</time>
      </trkpt>
      <trkpt lat="45.9351" lon="4.72324">
        <ele>178.5</ele>
        <time>2015-10-25T09:22:39.971Z</time>
      </trkpt>
      <trkpt lat="45.93514" lon="4.72318">
        <ele>178.300003052</ele>
        <time>2015-10-25T09:22:40.995Z</time>
      </trkpt>
      <trkpt lat="45.93517" lon="4.72313">
        <ele>178.100006104</ele>
        <time>2015-10-25T09:22:41.968Z</time>
      </trkpt>
      <trkpt lat="45.93519" lon="4.72307">
        <ele>177.899993896</ele>
        <time>2015-10-25T09:22:42.995Z</time>
      </trkpt>
      <trkpt lat="45.93522" lon="4.72302">
        <ele>177.399993896</ele>
        <time>2015-10-25T09:22:43.967Z</time>
      </trkpt>
      <trkpt lat="45.93525" lon="4.72296">
        <ele>177</ele>
        <time>2015-10-25T09:22:44.995Z</time>
      </trkpt>
      <trkpt lat="45.93528" lon="4.7229">
        <ele>176.800003052</ele>
        <time>2015-10-25T09:22:45.977Z</time>
      </trkpt>
      <trkpt lat="45.93529" lon="4.72284">
        <ele>176.5</ele>
        <time>2015-10-25T09:22:47.043Z</time>
      </trkpt>
      <trkpt lat="45.93532" lon="4.72277">
        <ele>176.5</ele>
        <time>2015-10-25T09:22:47.993Z</time>
      </trkpt>
      <trkpt lat="45.93534" lon="4.72272">
        <ele>176.800003052</ele>
        <time>2015-10-25T09:22:48.999Z</time>
      </trkpt>
      <trkpt lat="45.93536" lon="4.72266">
        <ele>176.5</ele>
        <time>2015-10-25T09:22:49.97Z</time>
      </trkpt>
      <trkpt lat="45.93538" lon="4.7226">
        <ele>176.300003052</ele>
        <time>2015-10-25T09:22:50.995Z</time>
      </trkpt>
      <trkpt lat="45.93541" lon="4.72254">
        <ele>176.300003052</ele>
        <time>2015-10-25T09:22:51.971Z</time>
      </trkpt>
      <trkpt lat="45.93543" lon="4.72247">
        <ele>176.100006104</ele>
        <time>2015-10-25T09:22:53.003Z</time>
      </trkpt>
      <trkpt lat="45.93546" lon="4.7224">
        <ele>176</ele>
        <time>2015-10-25T09:22:53.97Z</time>
      </trkpt>
      <trkpt lat="45.93549" lon="4.72233">
        <ele>175.899993896</ele>
        <time>2015-10-25T09:22:55.013Z</time>
      </trkpt>
      <trkpt lat="45.93553" lon="4.72227">
        <ele>175.699996948</ele>
        <time>2015-10-25T09:22:55.97Z</time>
      </trkpt>
      <trkpt lat="45.93557" lon="4.72221">
        <ele>175.800003052</ele>
        <time>2015-10-25T09:22:57.005Z</time>
      </trkpt>
      <trkpt lat="45.93562" lon="4.72215">
        <ele>176</ele>
        <time>2015-10-25T09:22:57.975Z</time>
      </trkpt>
      <trkpt lat="45.93567" lon="4.7221">
        <ele>176.199996948</ele>
        <time>2015-10-25T09:22:58.998Z</time>
      </trkpt>
      <trkpt lat="45.93573" lon="4.72204">
        <ele>176.600006104</ele>
        <time>2015-10-25T09:22:59.97Z</time>
      </trkpt>
      <trkpt lat="45.93578" lon="4.722">
        <ele>176.899993896</ele>
        <time>2015-10-25T09:23:00.998Z</time>
      </trkpt>
      <trkpt lat="45.93583" lon="4.72196">
        <ele>176.800003052</ele>
        <time>2015-10-25T09:23:01.967Z</time>
      </trkpt>
      <trkpt lat="45.93588" lon="4.72192">
        <ele>177</ele>
        <time>2015-10-25T09:23:02.997Z</time>
      </trkpt>
      <trkpt lat="45.93593" lon="4.72188">
        <ele>176.699996948</ele>
        <time>2015-10-25T09:23:03.972Z</time>
      </trkpt>
      <trkpt lat="45.93598" lon="4.72183">
        <ele>176.699996948</ele>
        <time>2015-10-25T09:23:04.994Z</time>
      </trkpt>
      <trkpt lat="45.93603" lon="4.72179">
        <ele>176.5</ele>
        <time>2015-10-25T09:23:05.971Z</time>
      </trkpt>
      <trkpt lat="45.93608" lon="4.72175">
        <ele>177</ele>
        <time>2015-10-25T09:23:06.997Z</time>
      </trkpt>
      <trkpt lat="45.93614" lon="4.7217">
        <ele>177.300003052</ele>
        <time>2015-10-25T09:23:07.971Z</time>
      </trkpt>
      <trkpt lat="45.93619" lon="4.72165">
        <ele>177.300003052</ele>
        <time>2015-10-25T09:23:08.995Z</time>
      </trkpt>
      <trkpt lat="45.93624" lon="4.7216">
        <ele>177.399993896</ele>
        <time>2015-10-25T09:23:09.971Z</time>
      </trkpt>
      <trkpt lat="45.93629" lon="4.72153">
        <ele>177.300003052</ele>
        <time>2015-10-25T09:23:11.01Z</time>
      </trkpt>
      <trkpt lat="45.93634" lon="4.72147">
        <ele>177.399993896</ele>
        <time>2015-10-25T09:23:11.971Z</time>
      </trkpt>
      <trkpt lat="45.93638" lon="4.7214">
        <ele>177.300003052</ele>
        <time>2015-10-25T09:23:12.994Z</time>
      </trkpt>
      <trkpt lat="45.93642" lon="4.72134">
        <ele>177.100006104</ele>
        <time>2015-10-25T09:23:13.97Z</time>
      </trkpt>
      <trkpt lat="45.93646" lon="4.72127">
        <ele>176.800003052</ele>
        <time>2015-10-25T09:23:15.059Z</time>
      </trkpt>
      <trkpt lat="45.9365" lon="4.72119">
        <ele>176.699996948</ele>
        <time>2015-10-25T09:23:15.973Z</time>
      </trkpt>
      <trkpt lat="45.93654" lon="4.72112">
        <ele>176.300003052</ele>
        <time>2015-10-25T09:23:16.998Z</time>
      </trkpt>
      <trkpt lat="45.93658" lon="4.72106">
        <ele>176.399993896</ele>
        <time>2015-10-25T09:23:17.971Z</time>
      </trkpt>
      <trkpt lat="45.93661" lon="4.72099">
        <ele>176.199996948</ele>
        <time>2015-10-25T09:23:18.995Z</time>
      </trkpt>
      <trkpt lat="45.93666" lon="4.72092">
        <ele>175.899993896</ele>
        <time>2015-10-25T09:23:19.97Z</time>
      </trkpt>
      <trkpt lat="45.93669" lon="4.72085">
        <ele>175.800003052</ele>
        <time>2015-10-25T09:23:20.995Z</time>
      </trkpt>
      <trkpt lat="45.93673" lon="4.72078">
        <ele>175.5</ele>
        <time>2015-10-25T09:23:21.97Z</time>
      </trkpt>
      <trkpt lat="45.93677" lon="4.72071">
        <ele>175.399993896</ele>
        <time>2015-10-25T09:23:23.002Z</time>
      </trkpt>
      <trkpt lat="45.93681" lon="4.72064">
        <ele>175.399993896</ele>
        <time>2015-10-25T09:23:23.966Z</time>
      </trkpt>
      <trkpt lat="45.93684" lon="4.72057">
        <ele>175.699996948</ele>
        <time>2015-10-25T09:23:24.994Z</time>
      </trkpt>
      <trkpt lat="45.93688" lon="4.7205">
        <ele>175.800003052</ele>
        <time>2015-10-25T09:23:25.97Z</time>
      </trkpt>
      <trkpt lat="45.93692" lon="4.72043">
        <ele>176</ele>
        <time>2015-10-25T09:23:27.016Z</time>
      </trkpt>
      <trkpt lat="45.93695" lon="4.72036">
        <ele>175.800003052</ele>
        <time>2015-10-25T09:23:27.976Z</time>
      </trkpt>
      <trkpt lat="45.93699" lon="4.7203">
        <ele>175.5</ele>
        <time>2015-10-25T09:23:28.995Z</time>
      </trkpt>
      <trkpt lat="45.93702" lon="4.72024">
        <ele>175.5</ele>
        <time>2015-10-25T09:23:29.97Z</time>
      </trkpt>
      <trkpt lat="45.93706" lon="4.72018">
        <ele>175.300003052</ele>
        <time>2015-10-25T09:23:30.999Z</time>
      </trkpt>
      <trkpt lat="45.93709" lon="4.72013">
        <ele>175.199996948</ele>
        <time>2015-10-25T09:23:31.967Z</time>
      </trkpt>
      <trkpt lat="45.93714" lon="4.72006">
        <ele>175</ele>
        <time>2015-10-25T09:23:34.002Z</time>
      </trkpt>
      <trkpt lat="45.93716" lon="4.72003">
        <ele>174.899993896</ele>
        <time>2015-10-25T09:23:34.971Z</time>
      </trkpt>
      <trkpt lat="45.93722" lon="4.71995">
        <ele>174.199996948</ele>
        <time>2015-10-25T09:23:37.994Z</time>
      </trkpt>
      <trkpt lat="45.93724" lon="4.7199">
        <ele>174</ele>
        <time>2015-10-25T09:23:38.97Z</time>
      </trkpt>
      <trkpt lat="45.93729" lon="4.7198">
        <ele>174.699996948</ele>
        <time>2015-10-25T09:23:41.007Z</time>
      </trkpt>
      <trkpt lat="45.93732" lon="4.71975">
        <ele>174.600006104</ele>
        <time>2015-10-25T09:23:41.97Z</time>
      </trkpt>
      <trkpt lat="45.93735" lon="4.71971">
        <ele>174.699996948</ele>
        <time>2015-10-25T09:23:43.01Z</time>
      </trkpt>
      <trkpt lat="45.93739" lon="4.71966">
        <ele>174.800003052</ele>
        <time>2015-10-25T09:23:43.97Z</time>
      </trkpt>
      <trkpt lat="45.93744" lon="4.71965">
        <ele>174.399993896</ele>
        <time>2015-10-25T09:23:44.998Z</time>
      </trkpt>
      <trkpt lat="45.93748" lon="4.71961">
        <ele>174.800003052</ele>
        <time>2015-10-25T09:23:45.976Z</time>
      </trkpt>
      <trkpt lat="45.93752" lon="4.71957">
        <ele>174.899993896</ele>
        <time>2015-10-25T09:23:47.001Z</time>
      </trkpt>
      <trkpt lat="45.93756" lon="4.71952">
        <ele>175.600006104</ele>
        <time>2015-10-25T09:23:47.967Z</time>
      </trkpt>
      <trkpt lat="45.9376" lon="4.71947">
        <ele>176</ele>
        <time>2015-10-25T09:23:48.998Z</time>
      </trkpt>
      <trkpt lat="45.93764" lon="4.71942">
        <ele>176</ele>
        <time>2015-10-25T09:23:49.966Z</time>
      </trkpt>
      <trkpt lat="45.93768" lon="4.71936">
        <ele>175.899993896</ele>
        <time>2015-10-25T09:23:51.034Z</time>
      </trkpt>
      <trkpt lat="45.93771" lon="4.7193">
        <ele>175.699996948</ele>
        <time>2015-10-25T09:23:51.974Z</time>
      </trkpt>
      <trkpt lat="45.93775" lon="4.71925">
        <ele>176.100006104</ele>
        <time>2015-10-25T09:23:52.998Z</time>
      </trkpt>
      <trkpt lat="45.93778" lon="4.71918">
        <ele>176.199996948</ele>
        <time>2015-10-25T09:23:53.967Z</time>
      </trkpt>
      <trkpt lat="45.9378" lon="4.7191">
        <ele>176.899993896</ele>
        <time>2015-10-25T09:23:54.999Z</time>
      </trkpt>
      <trkpt lat="45.93782" lon="4.71902">
        <ele>176.800003052</ele>
        <time>2015-10-25T09:23:55.967Z</time>
      </trkpt>
      <trkpt lat="45.93783" lon="4.71894">
        <ele>176.399993896</ele>
        <time>2015-10-25T09:23:56.995Z</time>
      </trkpt>
      <trkpt lat="45.93785" lon="4.71886">
        <ele>176.5</ele>
        <time>2015-10-25T09:23:57.976Z</time>
      </trkpt>
      <trkpt lat="45.93787" lon="4.71878">
        <ele>176.600006104</ele>
        <time>2015-10-25T09:23:59.011Z</time>
      </trkpt>
      <trkpt lat="45.9379" lon="4.71871">
        <ele>176.899993896</ele>
        <time>2015-10-25T09:23:59.966Z</time>
      </trkpt>
      <trkpt lat="45.93794" lon="4.71864">
        <ele>177.300003052</ele>
        <time>2015-10-25T09:24:00.994Z</time>
      </trkpt>
      <trkpt lat="45.93798" lon="4.71858">
        <ele>177.300003052</ele>
        <time>2015-10-25T09:24:01.966Z</time>
      </trkpt>
      <trkpt lat="45.93801" lon="4.71851">
        <ele>177.600006104</ele>
        <time>2015-10-25T09:24:02.994Z</time>
      </trkpt>
      <trkpt lat="45.93806" lon="4.71844">
        <ele>177.800003052</ele>
        <time>2015-10-25T09:24:03.971Z</time>
      </trkpt>
      <trkpt lat="45.9381" lon="4.71837">
        <ele>178</ele>
        <time>2015-10-25T09:24:04.994Z</time>
      </trkpt>
      <trkpt lat="45.93814" lon="4.7183">
        <ele>177.899993896</ele>
        <time>2015-10-25T09:24:05.967Z</time>
      </trkpt>
      <trkpt lat="45.93818" lon="4.71823">
        <ele>177.899993896</ele>
        <time>2015-10-25T09:24:06.994Z</time>
      </trkpt>
      <trkpt lat="45.93821" lon="4.71816">
        <ele>178.300003052</ele>
        <time>2015-10-25T09:24:07.966Z</time>
      </trkpt>
      <trkpt lat="45.93825" lon="4.71809">
        <ele>179</ele>
        <time>2015-10-25T09:24:09.034Z</time>
      </trkpt>
      <trkpt lat="45.93828" lon="4.71802">
        <ele>179.199996948</ele>
        <time>2015-10-25T09:24:09.971Z</time>
      </trkpt>
      <trkpt lat="45.93832" lon="4.71796">
        <ele>179.399993896</ele>
        <time>2015-10-25T09:24:10.997Z</time>
      </trkpt>
      <trkpt lat="45.93836" lon="4.71789">
        <ele>179.600006104</ele>
        <time>2015-10-25T09:24:11.971Z</time>
      </trkpt>
      <trkpt lat="45.93841" lon="4.71783">
        <ele>179.600006104</ele>
        <time>2015-10-25T09:24:12.998Z</time>
      </trkpt>
      <trkpt lat="45.93845" lon="4.71777">
        <ele>180.100006104</ele>
        <time>2015-10-25T09:24:13.97Z</time>
      </trkpt>
      <trkpt lat="45.9385" lon="4.71771">
        <ele>180.300003052</ele>
        <time>2015-10-25T09:24:14.997Z</time>
      </trkpt>
      <trkpt lat="45.93855" lon="4.71765">
        <ele>179.899993896</ele>
        <time>2015-10-25T09:24:16.011Z</time>
      </trkpt>
      <trkpt lat="45.9386" lon="4.71759">
        <ele>180.100006104</ele>
        <time>2015-10-25T09:24:16.994Z</time>
      </trkpt>
      <trkpt lat="45.93864" lon="4.71753">
        <ele>180.199996948</ele>
        <time>2015-10-25T09:24:17.97Z</time>
      </trkpt>
      <trkpt lat="45.93869" lon="4.71748">
        <ele>180.100006104</ele>
        <time>2015-10-25T09:24:18.998Z</time>
      </trkpt>
      <trkpt lat="45.93874" lon="4.71743">
        <ele>180.199996948</ele>
        <time>2015-10-25T09:24:19.967Z</time>
      </trkpt>
      <trkpt lat="45.93878" lon="4.71738">
        <ele>179.899993896</ele>
        <time>2015-10-25T09:24:20.994Z</time>
      </trkpt>
      <trkpt lat="45.93883" lon="4.71732">
        <ele>179.600006104</ele>
        <time>2015-10-25T09:24:21.976Z</time>
      </trkpt>
      <trkpt lat="45.93888" lon="4.71727">
        <ele>179.300003052</ele>
        <time>2015-10-25T09:24:22.999Z</time>
      </trkpt>
      <trkpt lat="45.93893" lon="4.71722">
        <ele>179.600006104</ele>
        <time>2015-10-25T09:24:23.967Z</time>
      </trkpt>
      <trkpt lat="45.93899" lon="4.71718">
        <ele>179.5</ele>
        <time>2015-10-25T09:24:25.009Z</time>
      </trkpt>
      <trkpt lat="45.93904" lon="4.71713">
        <ele>180.100006104</ele>
        <time>2015-10-25T09:24:25.966Z</time>
      </trkpt>
      <trkpt lat="45.93909" lon="4.71709">
        <ele>180.5</ele>
        <time>2015-10-25T09:24:26.995Z</time>
      </trkpt>
      <trkpt lat="45.93914" lon="4.71705">
        <ele>180.800003052</ele>
        <time>2015-10-25T09:24:27.971Z</time>
      </trkpt>
      <trkpt lat="45.9392" lon="4.71702">
        <ele>181</ele>
        <time>2015-10-25T09:24:28.998Z</time>
      </trkpt>
      <trkpt lat="45.93926" lon="4.717">
        <ele>181.899993896</ele>
        <time>2015-10-25T09:24:29.967Z</time>
      </trkpt>
      <trkpt lat="45.93932" lon="4.71698">
        <ele>182.399993896</ele>
        <time>2015-10-25T09:24:30.996Z</time>
      </trkpt>
      <trkpt lat="45.93938" lon="4.71696">
        <ele>183.199996948</ele>
        <time>2015-10-25T09:24:31.97Z</time>
      </trkpt>
      <trkpt lat="45.93943" lon="4.71693">
        <ele>183.699996948</ele>
        <time>2015-10-25T09:24:33.024Z</time>
      </trkpt>
      <trkpt lat="45.93948" lon="4.71691">
        <ele>184.300003052</ele>
        <time>2015-10-25T09:24:33.965Z</time>
      </trkpt>
      <trkpt lat="45.93953" lon="4.71689">
        <ele>185</ele>
        <time>2015-10-25T09:24:35.017Z</time>
      </trkpt>
      <trkpt lat="45.93958" lon="4.71687">
        <ele>185.600006104</ele>
        <time>2015-10-25T09:24:35.968Z</time>
      </trkpt>
      <trkpt lat="45.93963" lon="4.71685">
        <ele>186.300003052</ele>
        <time>2015-10-25T09:24:36.995Z</time>
      </trkpt>
      <trkpt lat="45.93968" lon="4.71683">
        <ele>186.600006104</ele>
        <time>2015-10-25T09:24:37.967Z</time>
      </trkpt>
      <trkpt lat="45.93973" lon="4.71681">
        <ele>186.5</ele>
        <time>2015-10-25T09:24:38.998Z</time>
      </trkpt>
      <trkpt lat="45.93979" lon="4.7168">
        <ele>186.699996948</ele>
        <time>2015-10-25T09:24:39.971Z</time>
      </trkpt>
      <trkpt lat="45.93983" lon="4.71679">
        <ele>186.399993896</ele>
        <time>2015-10-25T09:24:41.015Z</time>
      </trkpt>
      <trkpt lat="45.93989" lon="4.71681">
        <ele>186.600006104</ele>
        <time>2015-10-25T09:24:41.972Z</time>
      </trkpt>
      <trkpt lat="45.93994" lon="4.71684">
        <ele>186</ele>
        <time>2015-10-25T09:24:42.999Z</time>
      </trkpt>
      <trkpt lat="45.93998" lon="4.71688">
        <ele>186.399993896</ele>
        <time>2015-10-25T09:24:43.969Z</time>
      </trkpt>
      <trkpt lat="45.94003" lon="4.7169">
        <ele>185.899993896</ele>
        <time>2015-10-25T09:24:45.001Z</time>
      </trkpt>
      <trkpt lat="45.94008" lon="4.71691">
        <ele>185.800003052</ele>
        <time>2015-10-25T09:24:45.972Z</time>
      </trkpt>
      <trkpt lat="45.94013" lon="4.71689">
        <ele>185.699996948</ele>
        <time>2015-10-25T09:24:47.001Z</time>
      </trkpt>
      <trkpt lat="45.94017" lon="4.71683">
        <ele>186.300003052</ele>
        <time>2015-10-25T09:24:47.968Z</time>
      </trkpt>
      <trkpt lat="45.9402" lon="4.71676">
        <ele>186.300003052</ele>
        <time>2015-10-25T09:24:48.995Z</time>
      </trkpt>
      <trkpt lat="45.94022" lon="4.71669">
        <ele>185.100006104</ele>
        <time>2015-10-25T09:24:49.967Z</time>
      </trkpt>
      <trkpt lat="45.94026" lon="4.71664">
        <ele>184.800003052</ele>
        <time>2015-10-25T09:24:50.996Z</time>
      </trkpt>
      <trkpt lat="45.9403" lon="4.71659">
        <ele>184.800003052</ele>
        <time>2015-10-25T09:24:52.001Z</time>
      </trkpt>
      <trkpt lat="45.94035" lon="4.71656">
        <ele>184.399993896</ele>
        <time>2015-10-25T09:24:52.998Z</time>
      </trkpt>
      <trkpt lat="45.94041" lon="4.71654">
        <ele>184.399993896</ele>
        <time>2015-10-25T09:24:53.969Z</time>
      </trkpt>
      <trkpt lat="45.94047" lon="4.71652">
        <ele>184.600006104</ele>
        <time>2015-10-25T09:24:54.998Z</time>
      </trkpt>
      <trkpt lat="45.94052" lon="4.7165">
        <ele>184.699996948</ele>
        <time>2015-10-25T09:24:55.971Z</time>
      </trkpt>
      <trkpt lat="45.94058" lon="4.71649">
        <ele>184.600006104</ele>
        <time>2015-10-25T09:24:57.018Z</time>
      </trkpt>
      <trkpt lat="45.94064" lon="4.71646">
        <ele>184.600006104</ele>
        <time>2015-10-25T09:24:57.975Z</time>
      </trkpt>
      <trkpt lat="45.9407" lon="4.71644">
        <ele>184.800003052</ele>
        <time>2015-10-25T09:24:58.998Z</time>
      </trkpt>
      <trkpt lat="45.94076" lon="4.71641">
        <ele>184.800003052</ele>
        <time>2015-10-25T09:24:59.971Z</time>
      </trkpt>
      <trkpt lat="45.94082" lon="4.71639">
        <ele>185</ele>
        <time>2015-10-25T09:25:00.995Z</time>
      </trkpt>
      <trkpt lat="45.94088" lon="4.71637">
        <ele>185</ele>
        <time>2015-10-25T09:25:01.97Z</time>
      </trkpt>
      <trkpt lat="45.94095" lon="4.71636">
        <ele>185.100006104</ele>
        <time>2015-10-25T09:25:03.064Z</time>
      </trkpt>
      <trkpt lat="45.94101" lon="4.71634">
        <ele>185.199996948</ele>
        <time>2015-10-25T09:25:03.975Z</time>
      </trkpt>
      <trkpt lat="45.94107" lon="4.71633">
        <ele>185.600006104</ele>
        <time>2015-10-25T09:25:04.998Z</time>
      </trkpt>
      <trkpt lat="45.94113" lon="4.7163">
        <ele>185.5</ele>
        <time>2015-10-25T09:25:05.972Z</time>
      </trkpt>
      <trkpt lat="45.9412" lon="4.71629">
        <ele>184.5</ele>
        <time>2015-10-25T09:25:06.995Z</time>
      </trkpt>
      <trkpt lat="45.94126" lon="4.71626">
        <ele>184.300003052</ele>
        <time>2015-10-25T09:25:07.967Z</time>
      </trkpt>
      <trkpt lat="45.94132" lon="4.71624">
        <ele>184.300003052</ele>
        <time>2015-10-25T09:25:09.023Z</time>
      </trkpt>
      <trkpt lat="45.94138" lon="4.71622">
        <ele>184.399993896</ele>
        <time>2015-10-25T09:25:09.973Z</time>
      </trkpt>
      <trkpt lat="45.94144" lon="4.71619">
        <ele>184.800003052</ele>
        <time>2015-10-25T09:25:10.999Z</time>
      </trkpt>
      <trkpt lat="45.9415" lon="4.71616">
        <ele>185</ele>
        <time>2015-10-25T09:25:11.967Z</time>
      </trkpt>
      <trkpt lat="45.94156" lon="4.71613">
        <ele>185.399993896</ele>
        <time>2015-10-25T09:25:13.009Z</time>
      </trkpt>
      <trkpt lat="45.94162" lon="4.7161">
        <ele>185.5</ele>
        <time>2015-10-25T09:25:13.97Z</time>
      </trkpt>
      <trkpt lat="45.94168" lon="4.71607">
        <ele>185.399993896</ele>
        <time>2015-10-25T09:25:14.994Z</time>
      </trkpt>
      <trkpt lat="45.94174" lon="4.71605">
        <ele>185.899993896</ele>
        <time>2015-10-25T09:25:15.975Z</time>
      </trkpt>
      <trkpt lat="45.9418" lon="4.71603">
        <ele>186.199996948</ele>
        <time>2015-10-25T09:25:16.995Z</time>
      </trkpt>
      <trkpt lat="45.94185" lon="4.71601">
        <ele>186.199996948</ele>
        <time>2015-10-25T09:25:17.969Z</time>
      </trkpt>
      <trkpt lat="45.94191" lon="4.71598">
        <ele>185.600006104</ele>
        <time>2015-10-25T09:25:18.998Z</time>
      </trkpt>
      <trkpt lat="45.94197" lon="4.71596">
        <ele>185.399993896</ele>
        <time>2015-10-25T09:25:19.97Z</time>
      </trkpt>
      <trkpt lat="45.94202" lon="4.71593">
        <ele>185.300003052</ele>
        <time>2015-10-25T09:25:20.994Z</time>
      </trkpt>
      <trkpt lat="45.94208" lon="4.71591">
        <ele>185.699996948</ele>
        <time>2015-10-25T09:25:21.972Z</time>
      </trkpt>
      <trkpt lat="45.94213" lon="4.71589">
        <ele>186</ele>
        <time>2015-10-25T09:25:22.997Z</time>
      </trkpt>
      <trkpt lat="45.94219" lon="4.71587">
        <ele>185.899993896</ele>
        <time>2015-10-25T09:25:23.967Z</time>
      </trkpt>
      <trkpt lat="45.94225" lon="4.71584">
        <ele>185.199996948</ele>
        <time>2015-10-25T09:25:24.994Z</time>
      </trkpt>
      <trkpt lat="45.94231" lon="4.71582">
        <ele>185</ele>
        <time>2015-10-25T09:25:25.967Z</time>
      </trkpt>
      <trkpt lat="45.94237" lon="4.7158">
        <ele>185</ele>
        <time>2015-10-25T09:25:27.022Z</time>
      </trkpt>
      <trkpt lat="45.94242" lon="4.71578">
        <ele>185</ele>
        <time>2015-10-25T09:25:27.997Z</time>
      </trkpt>
      <trkpt lat="45.94248" lon="4.71576">
        <ele>185</ele>
        <time>2015-10-25T09:25:29.012Z</time>
      </trkpt>
      <trkpt lat="45.94253" lon="4.71573">
        <ele>184.699996948</ele>
        <time>2015-10-25T09:25:29.966Z</time>
      </trkpt>
      <trkpt lat="45.94258" lon="4.71571">
        <ele>185</ele>
        <time>2015-10-25T09:25:30.998Z</time>
      </trkpt>
      <trkpt lat="45.94264" lon="4.71569">
        <ele>185</ele>
        <time>2015-10-25T09:25:31.971Z</time>
      </trkpt>
      <trkpt lat="45.9427" lon="4.71567">
        <ele>185</ele>
        <time>2015-10-25T09:25:33.003Z</time>
      </trkpt>
      <trkpt lat="45.94275" lon="4.71565">
        <ele>184.699996948</ele>
        <time>2015-10-25T09:25:34.024Z</time>
      </trkpt>
      <trkpt lat="45.9428" lon="4.71562">
        <ele>184.899993896</ele>
        <time>2015-10-25T09:25:34.999Z</time>
      </trkpt>
      <trkpt lat="45.94286" lon="4.71561">
        <ele>184.800003052</ele>
        <time>2015-10-25T09:25:35.97Z</time>
      </trkpt>
      <trkpt lat="45.94291" lon="4.71559">
        <ele>185</ele>
        <time>2015-10-25T09:25:36.998Z</time>
      </trkpt>
      <trkpt lat="45.94297" lon="4.71557">
        <ele>185</ele>
        <time>2015-10-25T09:25:37.967Z</time>
      </trkpt>
      <trkpt lat="45.94302" lon="4.71555">
        <ele>184.899993896</ele>
        <time>2015-10-25T09:25:38.994Z</time>
      </trkpt>
      <trkpt lat="45.94307" lon="4.71552">
        <ele>184.899993896</ele>
        <time>2015-10-25T09:25:39.971Z</time>
      </trkpt>
      <trkpt lat="45.94312" lon="4.7155">
        <ele>185.199996948</ele>
        <time>2015-10-25T09:25:40.999Z</time>
      </trkpt>
      <trkpt lat="45.94318" lon="4.71548">
        <ele>185.600006104</ele>
        <time>2015-10-25T09:25:41.968Z</time>
      </trkpt>
      <trkpt lat="45.94323" lon="4.71546">
        <ele>185.899993896</ele>
        <time>2015-10-25T09:25:42.995Z</time>
      </trkpt>
      <trkpt lat="45.94327" lon="4.71544">
        <ele>186.399993896</ele>
        <time>2015-10-25T09:25:43.971Z</time>
      </trkpt>
      <trkpt lat="45.94332" lon="4.71542">
        <ele>187</ele>
        <time>2015-10-25T09:25:45.031Z</time>
      </trkpt>
      <trkpt lat="45.94337" lon="4.7154">
        <ele>187.399993896</ele>
        <time>2015-10-25T09:25:45.972Z</time>
      </trkpt>
      <trkpt lat="45.94343" lon="4.71538">
        <ele>187.899993896</ele>
        <time>2015-10-25T09:25:46.998Z</time>
      </trkpt>
      <trkpt lat="45.94348" lon="4.71536">
        <ele>188.300003052</ele>
        <time>2015-10-25T09:25:47.969Z</time>
      </trkpt>
      <trkpt lat="45.94353" lon="4.71533">
        <ele>188.600006104</ele>
        <time>2015-10-25T09:25:48.998Z</time>
      </trkpt>
      <trkpt lat="45.94359" lon="4.71533">
        <ele>187.899993896</ele>
        <time>2015-10-25T09:25:49.981Z</time>
      </trkpt>
      <trkpt lat="45.94364" lon="4.71531">
        <ele>187.699996948</ele>
        <time>2015-10-25T09:25:51.003Z</time>
      </trkpt>
      <trkpt lat="45.94369" lon="4.71529">
        <ele>187.899993896</ele>
        <time>2015-10-25T09:25:51.975Z</time>
      </trkpt>
      <trkpt lat="45.94373" lon="4.71527">
        <ele>188.199996948</ele>
        <time>2015-10-25T09:25:52.999Z</time>
      </trkpt>
      <trkpt lat="45.94378" lon="4.71526">
        <ele>188.600006104</ele>
        <time>2015-10-25T09:25:53.965Z</time>
      </trkpt>
      <trkpt lat="45.94386" lon="4.71523">
        <ele>187.600006104</ele>
        <time>2015-10-25T09:25:55.997Z</time>
      </trkpt>
      <trkpt lat="45.9439" lon="4.71521">
        <ele>187.399993896</ele>
        <time>2015-10-25T09:25:56.971Z</time>
      </trkpt>
      <trkpt lat="45.94395" lon="4.71519">
        <ele>187.899993896</ele>
        <time>2015-10-25T09:25:58.007Z</time>
      </trkpt>
      <trkpt lat="45.94399" lon="4.71518">
        <ele>188.199996948</ele>
        <time>2015-10-25T09:25:58.967Z</time>
      </trkpt>
      <trkpt lat="45.94408" lon="4.71515">
        <ele>188</ele>
        <time>2015-10-25T09:26:01.008Z</time>
      </trkpt>
      <trkpt lat="45.94412" lon="4.71513">
        <ele>188.199996948</ele>
        <time>2015-10-25T09:26:01.969Z</time>
      </trkpt>
      <trkpt lat="45.9442" lon="4.71509">
        <ele>188.800003052</ele>
        <time>2015-10-25T09:26:04.003Z</time>
      </trkpt>
      <trkpt lat="45.94425" lon="4.71507">
        <ele>189.100006104</ele>
        <time>2015-10-25T09:26:04.97Z</time>
      </trkpt>
      <trkpt lat="45.94429" lon="4.71505">
        <ele>189.399993896</ele>
        <time>2015-10-25T09:26:05.995Z</time>
      </trkpt>
      <trkpt lat="45.94434" lon="4.71503">
        <ele>189.699996948</ele>
        <time>2015-10-25T09:26:06.97Z</time>
      </trkpt>
      <trkpt lat="45.94439" lon="4.71502">
        <ele>189.899993896</ele>
        <time>2015-10-25T09:26:07.994Z</time>
      </trkpt>
      <trkpt lat="45.94444" lon="4.715">
        <ele>190</ele>
        <time>2015-10-25T09:26:08.965Z</time>
      </trkpt>
      <trkpt lat="45.94448" lon="4.71498">
        <ele>190</ele>
        <time>2015-10-25T09:26:09.998Z</time>
      </trkpt>
      <trkpt lat="45.94453" lon="4.71496">
        <ele>190.300003052</ele>
        <time>2015-10-25T09:26:10.967Z</time>
      </trkpt>
      <trkpt lat="45.94458" lon="4.71494">
        <ele>190.600006104</ele>
        <time>2015-10-25T09:26:11.998Z</time>
      </trkpt>
      <trkpt lat="45.94462" lon="4.71492">
        <ele>190.800003052</ele>
        <time>2015-10-25T09:26:12.964Z</time>
      </trkpt>
      <trkpt lat="45.94467" lon="4.7149">
        <ele>191.100006104</ele>
        <time>2015-10-25T09:26:13.995Z</time>
      </trkpt>
      <trkpt lat="45.94471" lon="4.71488">
        <ele>191.399993896</ele>
        <time>2015-10-25T09:26:14.967Z</time>
      </trkpt>
      <trkpt lat="45.94476" lon="4.71487">
        <ele>191.899993896</ele>
        <time>2015-10-25T09:26:16.013Z</time>
      </trkpt>
      <trkpt lat="45.94481" lon="4.71485">
        <ele>192.300003052</ele>
        <time>2015-10-25T09:26:16.966Z</time>
      </trkpt>
      <trkpt lat="45.94485" lon="4.71484">
        <ele>192.699996948</ele>
        <time>2015-10-25T09:26:17.998Z</time>
      </trkpt>
      <trkpt lat="45.9449" lon="4.71482">
        <ele>192.899993896</ele>
        <time>2015-10-25T09:26:18.966Z</time>
      </trkpt>
      <trkpt lat="45.94494" lon="4.71481">
        <ele>193.100006104</ele>
        <time>2015-10-25T09:26:20.005Z</time>
      </trkpt>
      <trkpt lat="45.94499" lon="4.71479">
        <ele>193.399993896</ele>
        <time>2015-10-25T09:26:20.99Z</time>
      </trkpt>
      <trkpt lat="45.94503" lon="4.71477">
        <ele>193.5</ele>
        <time>2015-10-25T09:26:22.008Z</time>
      </trkpt>
      <trkpt lat="45.94508" lon="4.71475">
        <ele>193.699996948</ele>
        <time>2015-10-25T09:26:22.967Z</time>
      </trkpt>
      <trkpt lat="45.94512" lon="4.71473">
        <ele>194.100006104</ele>
        <time>2015-10-25T09:26:23.994Z</time>
      </trkpt>
      <trkpt lat="45.94517" lon="4.71472">
        <ele>194.399993896</ele>
        <time>2015-10-25T09:26:24.966Z</time>
      </trkpt>
      <trkpt lat="45.94522" lon="4.7147">
        <ele>194.399993896</ele>
        <time>2015-10-25T09:26:26.016Z</time>
      </trkpt>
      <trkpt lat="45.94526" lon="4.71468">
        <ele>195.100006104</ele>
        <time>2015-10-25T09:26:26.965Z</time>
      </trkpt>
      <trkpt lat="45.94531" lon="4.71466">
        <ele>195.100006104</ele>
        <time>2015-10-25T09:26:28.004Z</time>
      </trkpt>
      <trkpt lat="45.94535" lon="4.71465">
        <ele>195.199996948</ele>
        <time>2015-10-25T09:26:28.968Z</time>
      </trkpt>
      <trkpt lat="45.9454" lon="4.71463">
        <ele>195.199996948</ele>
        <time>2015-10-25T09:26:30.083Z</time>
      </trkpt>
      <trkpt lat="45.94545" lon="4.71462">
        <ele>195.5</ele>
        <time>2015-10-25T09:26:30.967Z</time>
      </trkpt>
      <trkpt lat="45.94549" lon="4.71461">
        <ele>195.399993896</ele>
        <time>2015-10-25T09:26:32.007Z</time>
      </trkpt>
      <trkpt lat="45.94554" lon="4.71459">
        <ele>194.800003052</ele>
        <time>2015-10-25T09:26:32.967Z</time>
      </trkpt>
      <trkpt lat="45.94558" lon="4.71458">
        <ele>194.199996948</ele>
        <time>2015-10-25T09:26:33.999Z</time>
      </trkpt>
      <trkpt lat="45.94563" lon="4.71457">
        <ele>194.199996948</ele>
        <time>2015-10-25T09:26:34.968Z</time>
      </trkpt>
      <trkpt lat="45.94567" lon="4.71455">
        <ele>194</ele>
        <time>2015-10-25T09:26:35.996Z</time>
      </trkpt>
      <trkpt lat="45.94572" lon="4.71454">
        <ele>193.300003052</ele>
        <time>2015-10-25T09:26:36.967Z</time>
      </trkpt>
      <trkpt lat="45.94577" lon="4.71453">
        <ele>192.699996948</ele>
        <time>2015-10-25T09:26:37.994Z</time>
      </trkpt>
      <trkpt lat="45.94581" lon="4.71452">
        <ele>192.5</ele>
        <time>2015-10-25T09:26:38.967Z</time>
      </trkpt>
      <trkpt lat="45.94586" lon="4.71451">
        <ele>192.100006104</ele>
        <time>2015-10-25T09:26:40.007Z</time>
      </trkpt>
      <trkpt lat="45.94591" lon="4.7145">
        <ele>191.899993896</ele>
        <time>2015-10-25T09:26:40.967Z</time>
      </trkpt>
      <trkpt lat="45.94596" lon="4.7145">
        <ele>191.600006104</ele>
        <time>2015-10-25T09:26:41.995Z</time>
      </trkpt>
      <trkpt lat="45.946" lon="4.7145">
        <ele>191.699996948</ele>
        <time>2015-10-25T09:26:42.966Z</time>
      </trkpt>
      <trkpt lat="45.94605" lon="4.7145">
        <ele>191</ele>
        <time>2015-10-25T09:26:43.995Z</time>
      </trkpt>
      <trkpt lat="45.9461" lon="4.71451">
        <ele>191.300003052</ele>
        <time>2015-10-25T09:26:44.97Z</time>
      </trkpt>
      <trkpt lat="45.94618" lon="4.71451">
        <ele>191.199996948</ele>
        <time>2015-10-25T09:26:47.02Z</time>
      </trkpt>
      <trkpt lat="45.94623" lon="4.71452">
        <ele>191.399993896</ele>
        <time>2015-10-25T09:26:47.967Z</time>
      </trkpt>
      <trkpt lat="45.94627" lon="4.71452">
        <ele>191.100006104</ele>
        <time>2015-10-25T09:26:49.044Z</time>
      </trkpt>
      <trkpt lat="45.94632" lon="4.71452">
        <ele>190.800003052</ele>
        <time>2015-10-25T09:26:49.967Z</time>
      </trkpt>
      <trkpt lat="45.94637" lon="4.71452">
        <ele>190.300003052</ele>
        <time>2015-10-25T09:26:50.994Z</time>
      </trkpt>
      <trkpt lat="45.94641" lon="4.71452">
        <ele>190.199996948</ele>
        <time>2015-10-25T09:26:51.971Z</time>
      </trkpt>
      <trkpt lat="45.94646" lon="4.71452">
        <ele>190.100006104</ele>
        <time>2015-10-25T09:26:52.994Z</time>
      </trkpt>
      <trkpt lat="45.94651" lon="4.71453">
        <ele>190.199996948</ele>
        <time>2015-10-25T09:26:53.969Z</time>
      </trkpt>
      <trkpt lat="45.94656" lon="4.71453">
        <ele>191</ele>
        <time>2015-10-25T09:26:54.997Z</time>
      </trkpt>
      <trkpt lat="45.94661" lon="4.71453">
        <ele>191</ele>
        <time>2015-10-25T09:26:55.969Z</time>
      </trkpt>
      <trkpt lat="45.94665" lon="4.71454">
        <ele>191</ele>
        <time>2015-10-25T09:26:56.994Z</time>
      </trkpt>
      <trkpt lat="45.94671" lon="4.71454">
        <ele>190.5</ele>
        <time>2015-10-25T09:26:57.971Z</time>
      </trkpt>
      <trkpt lat="45.94676" lon="4.71455">
        <ele>190.300003052</ele>
        <time>2015-10-25T09:26:59.005Z</time>
      </trkpt>
      <trkpt lat="45.94681" lon="4.71456">
        <ele>190</ele>
        <time>2015-10-25T09:26:59.967Z</time>
      </trkpt>
      <trkpt lat="45.94686" lon="4.71456">
        <ele>189.699996948</ele>
        <time>2015-10-25T09:27:00.994Z</time>
      </trkpt>
      <trkpt lat="45.94691" lon="4.71457">
        <ele>189.300003052</ele>
        <time>2015-10-25T09:27:01.967Z</time>
      </trkpt>
      <trkpt lat="45.94696" lon="4.71458">
        <ele>189.199996948</ele>
        <time>2015-10-25T09:27:03.012Z</time>
      </trkpt>
      <trkpt lat="45.94701" lon="4.71459">
        <ele>189.399993896</ele>
        <time>2015-10-25T09:27:03.974Z</time>
      </trkpt>
      <trkpt lat="45.94706" lon="4.71459">
        <ele>189.5</ele>
        <time>2015-10-25T09:27:04.997Z</time>
      </trkpt>
      <trkpt lat="45.94711" lon="4.7146">
        <ele>189.5</ele>
        <time>2015-10-25T09:27:05.969Z</time>
      </trkpt>
      <trkpt lat="45.94716" lon="4.7146">
        <ele>189</ele>
        <time>2015-10-25T09:27:06.995Z</time>
      </trkpt>
      <trkpt lat="45.94721" lon="4.7146">
        <ele>188.899993896</ele>
        <time>2015-10-25T09:27:07.967Z</time>
      </trkpt>
      <trkpt lat="45.94727" lon="4.7146">
        <ele>188.600006104</ele>
        <time>2015-10-25T09:27:08.994Z</time>
      </trkpt>
      <trkpt lat="45.94732" lon="4.71461">
        <ele>188.100006104</ele>
        <time>2015-10-25T09:27:09.972Z</time>
      </trkpt>
      <trkpt lat="45.94738" lon="4.71461">
        <ele>188.199996948</ele>
        <time>2015-10-25T09:27:10.995Z</time>
      </trkpt>
      <trkpt lat="45.94743" lon="4.71462">
        <ele>188.800003052</ele>
        <time>2015-10-25T09:27:11.968Z</time>
      </trkpt>
      <trkpt lat="45.94748" lon="4.71462">
        <ele>189.100006104</ele>
        <time>2015-10-25T09:27:12.998Z</time>
      </trkpt>
      <trkpt lat="45.94753" lon="4.71462">
        <ele>188.899993896</ele>
        <time>2015-10-25T09:27:13.949Z</time>
      </trkpt>
      <trkpt lat="45.94758" lon="4.71461">
        <ele>189</ele>
        <time>2015-10-25T09:27:14.994Z</time>
      </trkpt>
      <trkpt lat="45.94764" lon="4.71462">
        <ele>189.5</ele>
        <time>2015-10-25T09:27:15.976Z</time>
      </trkpt>
      <trkpt lat="45.9477" lon="4.71462">
        <ele>189.899993896</ele>
        <time>2015-10-25T09:27:16.995Z</time>
      </trkpt>
      <trkpt lat="45.94776" lon="4.71462">
        <ele>190.300003052</ele>
        <time>2015-10-25T09:27:17.968Z</time>
      </trkpt>
      <trkpt lat="45.94782" lon="4.71463">
        <ele>190.699996948</ele>
        <time>2015-10-25T09:27:19.014Z</time>
      </trkpt>
      <trkpt lat="45.94787" lon="4.71464">
        <ele>190.5</ele>
        <time>2015-10-25T09:27:19.97Z</time>
      </trkpt>
      <trkpt lat="45.94793" lon="4.71464">
        <ele>190.600006104</ele>
        <time>2015-10-25T09:27:20.998Z</time>
      </trkpt>
      <trkpt lat="45.94799" lon="4.71465">
        <ele>190.699996948</ele>
        <time>2015-10-25T09:27:21.977Z</time>
      </trkpt>
      <trkpt lat="45.94804" lon="4.71466">
        <ele>190.699996948</ele>
        <time>2015-10-25T09:27:22.995Z</time>
      </trkpt>
      <trkpt lat="45.9481" lon="4.71466">
        <ele>190.5</ele>
        <time>2015-10-25T09:27:23.972Z</time>
      </trkpt>
      <trkpt lat="45.94815" lon="4.71466">
        <ele>190.399993896</ele>
        <time>2015-10-25T09:27:24.994Z</time>
      </trkpt>
      <trkpt lat="45.9482" lon="4.71467">
        <ele>190.199996948</ele>
        <time>2015-10-25T09:27:25.968Z</time>
      </trkpt>
      <trkpt lat="45.94826" lon="4.71467">
        <ele>189.300003052</ele>
        <time>2015-10-25T09:27:26.995Z</time>
      </trkpt>
      <trkpt lat="45.94831" lon="4.71468">
        <ele>189.300003052</ele>
        <time>2015-10-25T09:27:27.973Z</time>
      </trkpt>
      <trkpt lat="45.94837" lon="4.71468">
        <ele>189.100006104</ele>
        <time>2015-10-25T09:27:28.996Z</time>
      </trkpt>
      <trkpt lat="45.94843" lon="4.71469">
        <ele>189.199996948</ele>
        <time>2015-10-25T09:27:29.968Z</time>
      </trkpt>
      <trkpt lat="45.94848" lon="4.71469">
        <ele>188.899993896</ele>
        <time>2015-10-25T09:27:30.996Z</time>
      </trkpt>
      <trkpt lat="45.94854" lon="4.7147">
        <ele>188.699996948</ele>
        <time>2015-10-25T09:27:31.968Z</time>
      </trkpt>
      <trkpt lat="45.94859" lon="4.7147">
        <ele>187.899993896</ele>
        <time>2015-10-25T09:27:32.994Z</time>
      </trkpt>
      <trkpt lat="45.94864" lon="4.71471">
        <ele>187.399993896</ele>
        <time>2015-10-25T09:27:33.97Z</time>
      </trkpt>
      <trkpt lat="45.9487" lon="4.71472">
        <ele>188</ele>
        <time>2015-10-25T09:27:35.034Z</time>
      </trkpt>
      <trkpt lat="45.94876" lon="4.71474">
        <ele>188</ele>
        <time>2015-10-25T09:27:35.969Z</time>
      </trkpt>
      <trkpt lat="45.94881" lon="4.71475">
        <ele>188.899993896</ele>
        <time>2015-10-25T09:27:36.993Z</time>
      </trkpt>
      <trkpt lat="45.94886" lon="4.71475">
        <ele>190.100006104</ele>
        <time>2015-10-25T09:27:37.967Z</time>
      </trkpt>
      <trkpt lat="45.94892" lon="4.71476">
        <ele>190.600006104</ele>
        <time>2015-10-25T09:27:38.994Z</time>
      </trkpt>
      <trkpt lat="45.94898" lon="4.71477">
        <ele>190.699996948</ele>
        <time>2015-10-25T09:27:39.971Z</time>
      </trkpt>
      <trkpt lat="45.94904" lon="4.71478">
        <ele>190.300003052</ele>
        <time>2015-10-25T09:27:41.04Z</time>
      </trkpt>
      <trkpt lat="45.9491" lon="4.71478">
        <ele>191.600006104</ele>
        <time>2015-10-25T09:27:41.971Z</time>
      </trkpt>
      <trkpt lat="45.94916" lon="4.71478">
        <ele>191.300003052</ele>
        <time>2015-10-25T09:27:42.994Z</time>
      </trkpt>
      <trkpt lat="45.94922" lon="4.71478">
        <ele>191.399993896</ele>
        <time>2015-10-25T09:27:43.966Z</time>
      </trkpt>
      <trkpt lat="45.94928" lon="4.71479">
        <ele>191.399993896</ele>
        <time>2015-10-25T09:27:45.317Z</time>
      </trkpt>
      <trkpt lat="45.94934" lon="4.7148">
        <ele>191.199996948</ele>
        <time>2015-10-25T09:27:45.981Z</time>
      </trkpt>
      <trkpt lat="45.94939" lon="4.71481">
        <ele>191.100006104</ele>
        <time>2015-10-25T09:27:47.034Z</time>
      </trkpt>
      <trkpt lat="45.94945" lon="4.71482">
        <ele>190.600006104</ele>
        <time>2015-10-25T09:27:47.971Z</time>
      </trkpt>
      <trkpt lat="45.9495" lon="4.71485">
        <ele>190.300003052</ele>
        <time>2015-10-25T09:27:48.997Z</time>
      </trkpt>
      <trkpt lat="45.94955" lon="4.71489">
        <ele>190.699996948</ele>
        <time>2015-10-25T09:27:49.966Z</time>
      </trkpt>
      <trkpt lat="45.9496" lon="4.71492">
        <ele>190.699996948</ele>
        <time>2015-10-25T09:27:50.994Z</time>
      </trkpt>
      <trkpt lat="45.94965" lon="4.71494">
        <ele>191.199996948</ele>
        <time>2015-10-25T09:27:51.971Z</time>
      </trkpt>
      <trkpt lat="45.9497" lon="4.71494">
        <ele>191.600006104</ele>
        <time>2015-10-25T09:27:52.993Z</time>
      </trkpt>
      <trkpt lat="45.94976" lon="4.71493">
        <ele>191.5</ele>
        <time>2015-10-25T09:27:53.994Z</time>
      </trkpt>
      <trkpt lat="45.94981" lon="4.71491">
        <ele>191.399993896</ele>
        <time>2015-10-25T09:27:55.003Z</time>
      </trkpt>
      <trkpt lat="45.94986" lon="4.71488">
        <ele>191.699996948</ele>
        <time>2015-10-25T09:27:55.99Z</time>
      </trkpt>
      <trkpt lat="45.94992" lon="4.71486">
        <ele>191.399993896</ele>
        <time>2015-10-25T09:27:56.993Z</time>
      </trkpt>
      <trkpt lat="45.94997" lon="4.71484">
        <ele>191</ele>
        <time>2015-10-25T09:27:57.97Z</time>
      </trkpt>
      <trkpt lat="45.95003" lon="4.71484">
        <ele>191.5</ele>
        <time>2015-10-25T09:27:58.994Z</time>
      </trkpt>
      <trkpt lat="45.95009" lon="4.71484">
        <ele>190.899993896</ele>
        <time>2015-10-25T09:27:59.966Z</time>
      </trkpt>
      <trkpt lat="45.95015" lon="4.71485">
        <ele>190.800003052</ele>
        <time>2015-10-25T09:28:00.994Z</time>
      </trkpt>
      <trkpt lat="45.95021" lon="4.71485">
        <ele>191</ele>
        <time>2015-10-25T09:28:01.966Z</time>
      </trkpt>
      <trkpt lat="45.95028" lon="4.71486">
        <ele>190.699996948</ele>
        <time>2015-10-25T09:28:02.993Z</time>
      </trkpt>
      <trkpt lat="45.95035" lon="4.71486">
        <ele>190.300003052</ele>
        <time>2015-10-25T09:28:03.971Z</time>
      </trkpt>
      <trkpt lat="45.95042" lon="4.71487">
        <ele>189.399993896</ele>
        <time>2015-10-25T09:28:04.993Z</time>
      </trkpt>
      <trkpt lat="45.9505" lon="4.71487">
        <ele>189.199996948</ele>
        <time>2015-10-25T09:28:05.969Z</time>
      </trkpt>
      <trkpt lat="45.95057" lon="4.71487">
        <ele>189.100006104</ele>
        <time>2015-10-25T09:28:07.047Z</time>
      </trkpt>
      <trkpt lat="45.95065" lon="4.71488">
        <ele>188.800003052</ele>
        <time>2015-10-25T09:28:07.966Z</time>
      </trkpt>
      <trkpt lat="45.95073" lon="4.71488">
        <ele>188.199996948</ele>
        <time>2015-10-25T09:28:08.993Z</time>
      </trkpt>
      <trkpt lat="45.95081" lon="4.71488">
        <ele>187.600006104</ele>
        <time>2015-10-25T09:28:09.974Z</time>
      </trkpt>
      <trkpt lat="45.95089" lon="4.71488">
        <ele>187.300003052</ele>
        <time>2015-10-25T09:28:10.994Z</time>
      </trkpt>
      <trkpt lat="45.95097" lon="4.71488">
        <ele>187.100006104</ele>
        <time>2015-10-25T09:28:11.969Z</time>
      </trkpt>
      <trkpt lat="45.95105" lon="4.71488">
        <ele>186.399993896</ele>
        <time>2015-10-25T09:28:13.001Z</time>
      </trkpt>
      <trkpt lat="45.95114" lon="4.71488">
        <ele>186</ele>
        <time>2015-10-25T09:28:13.966Z</time>
      </trkpt>
      <trkpt lat="45.95122" lon="4.71488">
        <ele>185.300003052</ele>
        <time>2015-10-25T09:28:15.03Z</time>
      </trkpt>
      <trkpt lat="45.95131" lon="4.71488">
        <ele>184.899993896</ele>
        <time>2015-10-25T09:28:15.972Z</time>
      </trkpt>
      <trkpt lat="45.95139" lon="4.71489">
        <ele>184.699996948</ele>
        <time>2015-10-25T09:28:16.997Z</time>
      </trkpt>
      <trkpt lat="45.95148" lon="4.71489">
        <ele>184.100006104</ele>
        <time>2015-10-25T09:28:17.967Z</time>
      </trkpt>
      <trkpt lat="45.95157" lon="4.7149">
        <ele>183.800003052</ele>
        <time>2015-10-25T09:28:18.994Z</time>
      </trkpt>
      <trkpt lat="45.95165" lon="4.71491">
        <ele>183.300003052</ele>
        <time>2015-10-25T09:28:19.966Z</time>
      </trkpt>
      <trkpt lat="45.95174" lon="4.71491">
        <ele>183.100006104</ele>
        <time>2015-10-25T09:28:21.031Z</time>
      </trkpt>
      <trkpt lat="45.95182" lon="4.71492">
        <ele>183.199996948</ele>
        <time>2015-10-25T09:28:21.991Z</time>
      </trkpt>
      <trkpt lat="45.95191" lon="4.71493">
        <ele>183.100006104</ele>
        <time>2015-10-25T09:28:22.992Z</time>
      </trkpt>
      <trkpt lat="45.95199" lon="4.71494">
        <ele>182.899993896</ele>
        <time>2015-10-25T09:28:23.966Z</time>
      </trkpt>
      <trkpt lat="45.95207" lon="4.71494">
        <ele>182.899993896</ele>
        <time>2015-10-25T09:28:25.02Z</time>
      </trkpt>
      <trkpt lat="45.95215" lon="4.71495">
        <ele>183.800003052</ele>
        <time>2015-10-25T09:28:25.968Z</time>
      </trkpt>
      <trkpt lat="45.95223" lon="4.71496">
        <ele>183.899993896</ele>
        <time>2015-10-25T09:28:26.993Z</time>
      </trkpt>
      <trkpt lat="45.95231" lon="4.71496">
        <ele>183.800003052</ele>
        <time>2015-10-25T09:28:27.97Z</time>
      </trkpt>
      <trkpt lat="45.95239" lon="4.71497">
        <ele>183.899993896</ele>
        <time>2015-10-25T09:28:28.993Z</time>
      </trkpt>
      <trkpt lat="45.95247" lon="4.71497">
        <ele>183.899993896</ele>
        <time>2015-10-25T09:28:29.966Z</time>
      </trkpt>
      <trkpt lat="45.95255" lon="4.71497">
        <ele>183.600006104</ele>
        <time>2015-10-25T09:28:30.993Z</time>
      </trkpt>
      <trkpt lat="45.95263" lon="4.71498">
        <ele>183.800003052</ele>
        <time>2015-10-25T09:28:31.966Z</time>
      </trkpt>
      <trkpt lat="45.95271" lon="4.71498">
        <ele>184.199996948</ele>
        <time>2015-10-25T09:28:32.993Z</time>
      </trkpt>
      <trkpt lat="45.95279" lon="4.71499">
        <ele>184.199996948</ele>
        <time>2015-10-25T09:28:33.969Z</time>
      </trkpt>
      <trkpt lat="45.95288" lon="4.715">
        <ele>184.300003052</ele>
        <time>2015-10-25T09:28:35.024Z</time>
      </trkpt>
      <trkpt lat="45.95296" lon="4.71501">
        <ele>183.699996948</ele>
        <time>2015-10-25T09:28:35.969Z</time>
      </trkpt>
      <trkpt lat="45.95304" lon="4.71502">
        <ele>183.399993896</ele>
        <time>2015-10-25T09:28:36.992Z</time>
      </trkpt>
      <trkpt lat="45.95313" lon="4.71503">
        <ele>183</ele>
        <time>2015-10-25T09:28:37.972Z</time>
      </trkpt>
      <trkpt lat="45.95321" lon="4.71503">
        <ele>182.5</ele>
        <time>2015-10-25T09:28:38.997Z</time>
      </trkpt>
      <trkpt lat="45.9533" lon="4.71504">
        <ele>182.699996948</ele>
        <time>2015-10-25T09:28:39.969Z</time>
      </trkpt>
      <trkpt lat="45.95338" lon="4.71504">
        <ele>182.800003052</ele>
        <time>2015-10-25T09:28:40.993Z</time>
      </trkpt>
      <trkpt lat="45.95346" lon="4.71505">
        <ele>183.100006104</ele>
        <time>2015-10-25T09:28:41.964Z</time>
      </trkpt>
      <trkpt lat="45.95353" lon="4.71505">
        <ele>182.899993896</ele>
        <time>2015-10-25T09:28:43.027Z</time>
      </trkpt>
      <trkpt lat="45.95361" lon="4.71505">
        <ele>182.600006104</ele>
        <time>2015-10-25T09:28:43.969Z</time>
      </trkpt>
      <trkpt lat="45.95368" lon="4.71507">
        <ele>182.600006104</ele>
        <time>2015-10-25T09:28:45.044Z</time>
      </trkpt>
      <trkpt lat="45.95376" lon="4.71507">
        <ele>182.300003052</ele>
        <time>2015-10-25T09:28:45.971Z</time>
      </trkpt>
      <trkpt lat="45.95383" lon="4.71508">
        <ele>182.899993896</ele>
        <time>2015-10-25T09:28:46.995Z</time>
      </trkpt>
      <trkpt lat="45.9539" lon="4.71508">
        <ele>182.699996948</ele>
        <time>2015-10-25T09:28:47.983Z</time>
      </trkpt>
      <trkpt lat="45.95397" lon="4.71508">
        <ele>182</ele>
        <time>2015-10-25T09:28:48.996Z</time>
      </trkpt>
      <trkpt lat="45.95404" lon="4.71509">
        <ele>181.5</ele>
        <time>2015-10-25T09:28:49.965Z</time>
      </trkpt>
      <trkpt lat="45.95411" lon="4.71509">
        <ele>181.600006104</ele>
        <time>2015-10-25T09:28:50.992Z</time>
      </trkpt>
      <trkpt lat="45.95418" lon="4.71509">
        <ele>181.199996948</ele>
        <time>2015-10-25T09:28:51.969Z</time>
      </trkpt>
      <trkpt lat="45.95425" lon="4.71509">
        <ele>181.5</ele>
        <time>2015-10-25T09:28:52.996Z</time>
      </trkpt>
      <trkpt lat="45.95431" lon="4.71509">
        <ele>181.199996948</ele>
        <time>2015-10-25T09:28:53.967Z</time>
      </trkpt>
      <trkpt lat="45.95438" lon="4.71509">
        <ele>181.100006104</ele>
        <time>2015-10-25T09:28:55.04Z</time>
      </trkpt>
      <trkpt lat="45.95445" lon="4.71509">
        <ele>180.399993896</ele>
        <time>2015-10-25T09:28:55.968Z</time>
      </trkpt>
      <trkpt lat="45.95451" lon="4.7151">
        <ele>180.600006104</ele>
        <time>2015-10-25T09:28:56.992Z</time>
      </trkpt>
      <trkpt lat="45.95457" lon="4.7151">
        <ele>180.399993896</ele>
        <time>2015-10-25T09:28:57.969Z</time>
      </trkpt>
      <trkpt lat="45.95463" lon="4.71511">
        <ele>180.399993896</ele>
        <time>2015-10-25T09:28:59.003Z</time>
      </trkpt>
      <trkpt lat="45.95469" lon="4.71511">
        <ele>180.800003052</ele>
        <time>2015-10-25T09:28:59.966Z</time>
      </trkpt>
      <trkpt lat="45.95474" lon="4.71511">
        <ele>181.100006104</ele>
        <time>2015-10-25T09:29:00.997Z</time>
      </trkpt>
      <trkpt lat="45.9548" lon="4.71511">
        <ele>181.699996948</ele>
        <time>2015-10-25T09:29:01.964Z</time>
      </trkpt>
      <trkpt lat="45.95486" lon="4.71511">
        <ele>182.100006104</ele>
        <time>2015-10-25T09:29:03.03Z</time>
      </trkpt>
      <trkpt lat="45.95492" lon="4.71511">
        <ele>182.600006104</ele>
        <time>2015-10-25T09:29:03.971Z</time>
      </trkpt>
      <trkpt lat="45.95499" lon="4.71512">
        <ele>182.899993896</ele>
        <time>2015-10-25T09:29:04.996Z</time>
      </trkpt>
      <trkpt lat="45.95505" lon="4.71512">
        <ele>182.800003052</ele>
        <time>2015-10-25T09:29:05.972Z</time>
      </trkpt>
      <trkpt lat="45.95511" lon="4.71513">
        <ele>182.800003052</ele>
        <time>2015-10-25T09:29:06.993Z</time>
      </trkpt>
      <trkpt lat="45.95517" lon="4.71513">
        <ele>183.100006104</ele>
        <time>2015-10-25T09:29:07.969Z</time>
      </trkpt>
      <trkpt lat="45.95523" lon="4.71513">
        <ele>183.399993896</ele>
        <time>2015-10-25T09:29:08.993Z</time>
      </trkpt>
      <trkpt lat="45.95529" lon="4.71514">
        <ele>182.300003052</ele>
        <time>2015-10-25T09:29:09.972Z</time>
      </trkpt>
      <trkpt lat="45.95535" lon="4.71514">
        <ele>182.199996948</ele>
        <time>2015-10-25T09:29:10.993Z</time>
      </trkpt>
      <trkpt lat="45.95541" lon="4.71514">
        <ele>182</ele>
        <time>2015-10-25T09:29:11.966Z</time>
      </trkpt>
      <trkpt lat="45.95546" lon="4.71515">
        <ele>182</ele>
        <time>2015-10-25T09:29:12.992Z</time>
      </trkpt>
      <trkpt lat="45.95552" lon="4.71516">
        <ele>182.199996948</ele>
        <time>2015-10-25T09:29:13.965Z</time>
      </trkpt>
      <trkpt lat="45.95558" lon="4.71516">
        <ele>182.5</ele>
        <time>2015-10-25T09:29:14.992Z</time>
      </trkpt>
      <trkpt lat="45.95564" lon="4.71517">
        <ele>182.699996948</ele>
        <time>2015-10-25T09:29:15.97Z</time>
      </trkpt>
      <trkpt lat="45.9557" lon="4.71517">
        <ele>182.899993896</ele>
        <time>2015-10-25T09:29:16.993Z</time>
      </trkpt>
      <trkpt lat="45.95576" lon="4.71517">
        <ele>183</ele>
        <time>2015-10-25T09:29:17.966Z</time>
      </trkpt>
      <trkpt lat="45.95582" lon="4.71518">
        <ele>183.199996948</ele>
        <time>2015-10-25T09:29:19.009Z</time>
      </trkpt>
      <trkpt lat="45.95588" lon="4.71519">
        <ele>183.5</ele>
        <time>2015-10-25T09:29:19.965Z</time>
      </trkpt>
      <trkpt lat="45.95594" lon="4.71519">
        <ele>183.600006104</ele>
        <time>2015-10-25T09:29:20.992Z</time>
      </trkpt>
      <trkpt lat="45.956" lon="4.71519">
        <ele>183.600006104</ele>
        <time>2015-10-25T09:29:21.969Z</time>
      </trkpt>
      <trkpt lat="45.95606" lon="4.7152">
        <ele>183.699996948</ele>
        <time>2015-10-25T09:29:22.993Z</time>
      </trkpt>
      <trkpt lat="45.95612" lon="4.7152">
        <ele>183.699996948</ele>
        <time>2015-10-25T09:29:23.966Z</time>
      </trkpt>
      <trkpt lat="45.95618" lon="4.71521">
        <ele>184</ele>
        <time>2015-10-25T09:29:24.998Z</time>
      </trkpt>
      <trkpt lat="45.95624" lon="4.71521">
        <ele>184.300003052</ele>
        <time>2015-10-25T09:29:25.968Z</time>
      </trkpt>
      <trkpt lat="45.9563" lon="4.71522">
        <ele>184.5</ele>
        <time>2015-10-25T09:29:26.992Z</time>
      </trkpt>
      <trkpt lat="45.95636" lon="4.71522">
        <ele>184.600006104</ele>
        <time>2015-10-25T09:29:27.969Z</time>
      </trkpt>
      <trkpt lat="45.95642" lon="4.71523">
        <ele>184.699996948</ele>
        <time>2015-10-25T09:29:28.993Z</time>
      </trkpt>
      <trkpt lat="45.95647" lon="4.71523">
        <ele>184.800003052</ele>
        <time>2015-10-25T09:29:29.969Z</time>
      </trkpt>
      <trkpt lat="45.95653" lon="4.71524">
        <ele>184.699996948</ele>
        <time>2015-10-25T09:29:30.996Z</time>
      </trkpt>
      <trkpt lat="45.95659" lon="4.71524">
        <ele>184.899993896</ele>
        <time>2015-10-25T09:29:31.965Z</time>
      </trkpt>
      <trkpt lat="45.95664" lon="4.71524">
        <ele>185.100006104</ele>
        <time>2015-10-25T09:29:32.993Z</time>
      </trkpt>
      <trkpt lat="45.9567" lon="4.71525">
        <ele>185.199996948</ele>
        <time>2015-10-25T09:29:33.968Z</time>
      </trkpt>
      <trkpt lat="45.95676" lon="4.71525">
        <ele>185.300003052</ele>
        <time>2015-10-25T09:29:35.008Z</time>
      </trkpt>
      <trkpt lat="45.95682" lon="4.71525">
        <ele>185.5</ele>
        <time>2015-10-25T09:29:35.957Z</time>
      </trkpt>
      <trkpt lat="45.95688" lon="4.71526">
        <ele>185.699996948</ele>
        <time>2015-10-25T09:29:36.993Z</time>
      </trkpt>
      <trkpt lat="45.95693" lon="4.71526">
        <ele>185.899993896</ele>
        <time>2015-10-25T09:29:37.965Z</time>
      </trkpt>
      <trkpt lat="45.95698" lon="4.71527">
        <ele>186.199996948</ele>
        <time>2015-10-25T09:29:38.993Z</time>
      </trkpt>
      <trkpt lat="45.95704" lon="4.71527">
        <ele>186.399993896</ele>
        <time>2015-10-25T09:29:39.968Z</time>
      </trkpt>
      <trkpt lat="45.95709" lon="4.71527">
        <ele>186.399993896</ele>
        <time>2015-10-25T09:29:40.993Z</time>
      </trkpt>
      <trkpt lat="45.95715" lon="4.71528">
        <ele>186.600006104</ele>
        <time>2015-10-25T09:29:41.964Z</time>
      </trkpt>
      <trkpt lat="45.9572" lon="4.71529">
        <ele>186.800003052</ele>
        <time>2015-10-25T09:29:42.992Z</time>
      </trkpt>
      <trkpt lat="45.95726" lon="4.71529">
        <ele>187</ele>
        <time>2015-10-25T09:29:43.966Z</time>
      </trkpt>
      <trkpt lat="45.95732" lon="4.7153">
        <ele>187.100006104</ele>
        <time>2015-10-25T09:29:44.993Z</time>
      </trkpt>
      <trkpt lat="45.95737" lon="4.7153">
        <ele>187.300003052</ele>
        <time>2015-10-25T09:29:45.97Z</time>
      </trkpt>
      <trkpt lat="45.95743" lon="4.7153">
        <ele>187.300003052</ele>
        <time>2015-10-25T09:29:46.996Z</time>
      </trkpt>
      <trkpt lat="45.95749" lon="4.71531">
        <ele>187.600006104</ele>
        <time>2015-10-25T09:29:47.966Z</time>
      </trkpt>
      <trkpt lat="45.95754" lon="4.71531">
        <ele>187.800003052</ele>
        <time>2015-10-25T09:29:48.993Z</time>
      </trkpt>
      <trkpt lat="45.9576" lon="4.71531">
        <ele>188.100006104</ele>
        <time>2015-10-25T09:29:49.965Z</time>
      </trkpt>
      <trkpt lat="45.95765" lon="4.71532">
        <ele>188.100006104</ele>
        <time>2015-10-25T09:29:51.008Z</time>
      </trkpt>
      <trkpt lat="45.95771" lon="4.71533">
        <ele>188</ele>
        <time>2015-10-25T09:29:51.969Z</time>
      </trkpt>
      <trkpt lat="45.95777" lon="4.71533">
        <ele>188.100006104</ele>
        <time>2015-10-25T09:29:52.993Z</time>
      </trkpt>
      <trkpt lat="45.95782" lon="4.71533">
        <ele>188.399993896</ele>
        <time>2015-10-25T09:29:53.981Z</time>
      </trkpt>
      <trkpt lat="45.95788" lon="4.71534">
        <ele>188.800003052</ele>
        <time>2015-10-25T09:29:54.992Z</time>
      </trkpt>
      <trkpt lat="45.95794" lon="4.71534">
        <ele>189</ele>
        <time>2015-10-25T09:29:55.976Z</time>
      </trkpt>
      <trkpt lat="45.95799" lon="4.71534">
        <ele>188.800003052</ele>
        <time>2015-10-25T09:29:56.996Z</time>
      </trkpt>
      <trkpt lat="45.95804" lon="4.71534">
        <ele>189</ele>
        <time>2015-10-25T09:29:57.969Z</time>
      </trkpt>
      <trkpt lat="45.9581" lon="4.71535">
        <ele>188.800003052</ele>
        <time>2015-10-25T09:29:58.998Z</time>
      </trkpt>
      <trkpt lat="45.95815" lon="4.71535">
        <ele>188.5</ele>
        <time>2015-10-25T09:29:59.966Z</time>
      </trkpt>
      <trkpt lat="45.9582" lon="4.71536">
        <ele>188.800003052</ele>
        <time>2015-10-25T09:30:00.997Z</time>
      </trkpt>
      <trkpt lat="45.95826" lon="4.71536">
        <ele>189</ele>
        <time>2015-10-25T09:30:01.964Z</time>
      </trkpt>
      <trkpt lat="45.95831" lon="4.71537">
        <ele>189.100006104</ele>
        <time>2015-10-25T09:30:02.993Z</time>
      </trkpt>
      <trkpt lat="45.95836" lon="4.71538">
        <ele>189.699996948</ele>
        <time>2015-10-25T09:30:03.968Z</time>
      </trkpt>
      <trkpt lat="45.95842" lon="4.71538">
        <ele>189.899993896</ele>
        <time>2015-10-25T09:30:04.993Z</time>
      </trkpt>
      <trkpt lat="45.95848" lon="4.71538">
        <ele>190</ele>
        <time>2015-10-25T09:30:05.969Z</time>
      </trkpt>
      <trkpt lat="45.95853" lon="4.71539">
        <ele>190.199996948</ele>
        <time>2015-10-25T09:30:06.997Z</time>
      </trkpt>
      <trkpt lat="45.95859" lon="4.7154">
        <ele>190.600006104</ele>
        <time>2015-10-25T09:30:07.969Z</time>
      </trkpt>
      <trkpt lat="45.95864" lon="4.7154">
        <ele>190.5</ele>
        <time>2015-10-25T09:30:08.993Z</time>
      </trkpt>
      <trkpt lat="45.95869" lon="4.71541">
        <ele>190.699996948</ele>
        <time>2015-10-25T09:30:09.973Z</time>
      </trkpt>
      <trkpt lat="45.95875" lon="4.71541">
        <ele>190.600006104</ele>
        <time>2015-10-25T09:30:10.996Z</time>
      </trkpt>
      <trkpt lat="45.9588" lon="4.71542">
        <ele>190.899993896</ele>
        <time>2015-10-25T09:30:11.981Z</time>
      </trkpt>
      <trkpt lat="45.95886" lon="4.71542">
        <ele>191.100006104</ele>
        <time>2015-10-25T09:30:12.996Z</time>
      </trkpt>
      <trkpt lat="45.95891" lon="4.71543">
        <ele>191.199996948</ele>
        <time>2015-10-25T09:30:13.965Z</time>
      </trkpt>
      <trkpt lat="45.95897" lon="4.71543">
        <ele>191.5</ele>
        <time>2015-10-25T09:30:14.992Z</time>
      </trkpt>
      <trkpt lat="45.95902" lon="4.71544">
        <ele>191.699996948</ele>
        <time>2015-10-25T09:30:15.97Z</time>
      </trkpt>
      <trkpt lat="45.95908" lon="4.71544">
        <ele>190.699996948</ele>
        <time>2015-10-25T09:30:16.996Z</time>
      </trkpt>
      <trkpt lat="45.95913" lon="4.71544">
        <ele>190.899993896</ele>
        <time>2015-10-25T09:30:17.967Z</time>
      </trkpt>
      <trkpt lat="45.95918" lon="4.71545">
        <ele>191.300003052</ele>
        <time>2015-10-25T09:30:18.992Z</time>
      </trkpt>
      <trkpt lat="45.95923" lon="4.71545">
        <ele>191.5</ele>
        <time>2015-10-25T09:30:19.965Z</time>
      </trkpt>
      <trkpt lat="45.95928" lon="4.71546">
        <ele>191.600006104</ele>
        <time>2015-10-25T09:30:20.993Z</time>
      </trkpt>
      <trkpt lat="45.95933" lon="4.71546">
        <ele>191.800003052</ele>
        <time>2015-10-25T09:30:21.972Z</time>
      </trkpt>
      <trkpt lat="45.95938" lon="4.71546">
        <ele>191.899993896</ele>
        <time>2015-10-25T09:30:22.996Z</time>
      </trkpt>
      <trkpt lat="45.95943" lon="4.71546">
        <ele>192.100006104</ele>
        <time>2015-10-25T09:30:23.966Z</time>
      </trkpt>
      <trkpt lat="45.95948" lon="4.71546">
        <ele>192.199996948</ele>
        <time>2015-10-25T09:30:24.992Z</time>
      </trkpt>
      <trkpt lat="45.95953" lon="4.71546">
        <ele>192.300003052</ele>
        <time>2015-10-25T09:30:25.971Z</time>
      </trkpt>
      <trkpt lat="45.95957" lon="4.71547">
        <ele>192.600006104</ele>
        <time>2015-10-25T09:30:26.992Z</time>
      </trkpt>
      <trkpt lat="45.95962" lon="4.71549">
        <ele>192.699996948</ele>
        <time>2015-10-25T09:30:27.968Z</time>
      </trkpt>
      <trkpt lat="45.95967" lon="4.71551">
        <ele>192.800003052</ele>
        <time>2015-10-25T09:30:28.996Z</time>
      </trkpt>
      <trkpt lat="45.95971" lon="4.71553">
        <ele>193</ele>
        <time>2015-10-25T09:30:29.967Z</time>
      </trkpt>
      <trkpt lat="45.95976" lon="4.71555">
        <ele>193.300003052</ele>
        <time>2015-10-25T09:30:30.993Z</time>
      </trkpt>
      <trkpt lat="45.95981" lon="4.71556">
        <ele>193.5</ele>
        <time>2015-10-25T09:30:31.966Z</time>
      </trkpt>
      <trkpt lat="45.95986" lon="4.71555">
        <ele>193.699996948</ele>
        <time>2015-10-25T09:30:33.007Z</time>
      </trkpt>
      <trkpt lat="45.9599" lon="4.71554">
        <ele>193.899993896</ele>
        <time>2015-10-25T09:30:33.968Z</time>
      </trkpt>
      <trkpt lat="45.95995" lon="4.71552">
        <ele>194.100006104</ele>
        <time>2015-10-25T09:30:34.992Z</time>
      </trkpt>
      <trkpt lat="45.95999" lon="4.71551">
        <ele>194.300003052</ele>
        <time>2015-10-25T09:30:35.975Z</time>
      </trkpt>
      <trkpt lat="45.96005" lon="4.7155">
        <ele>194.600006104</ele>
        <time>2015-10-25T09:30:36.992Z</time>
      </trkpt>
      <trkpt lat="45.9601" lon="4.7155">
        <ele>194.600006104</ele>
        <time>2015-10-25T09:30:37.964Z</time>
      </trkpt>
      <trkpt lat="45.96015" lon="4.7155">
        <ele>194.100006104</ele>
        <time>2015-10-25T09:30:38.992Z</time>
      </trkpt>
      <trkpt lat="45.9602" lon="4.7155">
        <ele>194.100006104</ele>
        <time>2015-10-25T09:30:39.972Z</time>
      </trkpt>
      <trkpt lat="45.96026" lon="4.7155">
        <ele>194</ele>
        <time>2015-10-25T09:30:40.992Z</time>
      </trkpt>
      <trkpt lat="45.96031" lon="4.71551">
        <ele>193.899993896</ele>
        <time>2015-10-25T09:30:41.964Z</time>
      </trkpt>
      <trkpt lat="45.96036" lon="4.71552">
        <ele>193.800003052</ele>
        <time>2015-10-25T09:30:42.996Z</time>
      </trkpt>
      <trkpt lat="45.96042" lon="4.71553">
        <ele>193.699996948</ele>
        <time>2015-10-25T09:30:43.965Z</time>
      </trkpt>
      <trkpt lat="45.96047" lon="4.71553">
        <ele>193.600006104</ele>
        <time>2015-10-25T09:30:44.993Z</time>
      </trkpt>
      <trkpt lat="45.96052" lon="4.71554">
        <ele>193.399993896</ele>
        <time>2015-10-25T09:30:45.975Z</time>
      </trkpt>
      <trkpt lat="45.96058" lon="4.71555">
        <ele>193.300003052</ele>
        <time>2015-10-25T09:30:46.999Z</time>
      </trkpt>
      <trkpt lat="45.96064" lon="4.71557">
        <ele>193.100006104</ele>
        <time>2015-10-25T09:30:47.97Z</time>
      </trkpt>
      <trkpt lat="45.96069" lon="4.71558">
        <ele>193</ele>
        <time>2015-10-25T09:30:49.014Z</time>
      </trkpt>
      <trkpt lat="45.96074" lon="4.71559">
        <ele>192.899993896</ele>
        <time>2015-10-25T09:30:49.965Z</time>
      </trkpt>
      <trkpt lat="45.9608" lon="4.7156">
        <ele>192.699996948</ele>
        <time>2015-10-25T09:30:50.992Z</time>
      </trkpt>
      <trkpt lat="45.96085" lon="4.71561">
        <ele>192.399993896</ele>
        <time>2015-10-25T09:30:51.968Z</time>
      </trkpt>
      <trkpt lat="45.9609" lon="4.71562">
        <ele>192.300003052</ele>
        <time>2015-10-25T09:30:52.995Z</time>
      </trkpt>
      <trkpt lat="45.96096" lon="4.71564">
        <ele>192.300003052</ele>
        <time>2015-10-25T09:30:53.965Z</time>
      </trkpt>
      <trkpt lat="45.96101" lon="4.71564">
        <ele>192.199996948</ele>
        <time>2015-10-25T09:30:54.992Z</time>
      </trkpt>
      <trkpt lat="45.96107" lon="4.71565">
        <ele>192.199996948</ele>
        <time>2015-10-25T09:30:55.971Z</time>
      </trkpt>
      <trkpt lat="45.96112" lon="4.71565">
        <ele>192.199996948</ele>
        <time>2015-10-25T09:30:56.992Z</time>
      </trkpt>
      <trkpt lat="45.96118" lon="4.71566">
        <ele>192.5</ele>
        <time>2015-10-25T09:30:57.969Z</time>
      </trkpt>
      <trkpt lat="45.96124" lon="4.71567">
        <ele>192.899993896</ele>
        <time>2015-10-25T09:30:58.993Z</time>
      </trkpt>
      <trkpt lat="45.9613" lon="4.71568">
        <ele>192.800003052</ele>
        <time>2015-10-25T09:30:59.968Z</time>
      </trkpt>
      <trkpt lat="45.96136" lon="4.71569">
        <ele>192.899993896</ele>
        <time>2015-10-25T09:31:00.993Z</time>
      </trkpt>
      <trkpt lat="45.96142" lon="4.7157">
        <ele>192.699996948</ele>
        <time>2015-10-25T09:31:01.964Z</time>
      </trkpt>
      <trkpt lat="45.96148" lon="4.71571">
        <ele>192.800003052</ele>
        <time>2015-10-25T09:31:02.992Z</time>
      </trkpt>
      <trkpt lat="45.96155" lon="4.71572">
        <ele>193.399993896</ele>
        <time>2015-10-25T09:31:03.969Z</time>
      </trkpt>
      <trkpt lat="45.96161" lon="4.71572">
        <ele>193.100006104</ele>
        <time>2015-10-25T09:31:05.042Z</time>
      </trkpt>
      <trkpt lat="45.96168" lon="4.71573">
        <ele>193.100006104</ele>
        <time>2015-10-25T09:31:05.971Z</time>
      </trkpt>
      <trkpt lat="45.96175" lon="4.71574">
        <ele>193.199996948</ele>
        <time>2015-10-25T09:31:06.992Z</time>
      </trkpt>
      <trkpt lat="45.96181" lon="4.71575">
        <ele>192.5</ele>
        <time>2015-10-25T09:31:07.968Z</time>
      </trkpt>
      <trkpt lat="45.96188" lon="4.71576">
        <ele>191.800003052</ele>
        <time>2015-10-25T09:31:08.992Z</time>
      </trkpt>
      <trkpt lat="45.96195" lon="4.71577">
        <ele>191.800003052</ele>
        <time>2015-10-25T09:31:09.968Z</time>
      </trkpt>
      <trkpt lat="45.96201" lon="4.71578">
        <ele>191.600006104</ele>
        <time>2015-10-25T09:31:10.992Z</time>
      </trkpt>
      <trkpt lat="45.96208" lon="4.71578">
        <ele>191.5</ele>
        <time>2015-10-25T09:31:11.966Z</time>
      </trkpt>
      <trkpt lat="45.96214" lon="4.71579">
        <ele>191.300003052</ele>
        <time>2015-10-25T09:31:12.993Z</time>
      </trkpt>
      <trkpt lat="45.9622" lon="4.7158">
        <ele>191.399993896</ele>
        <time>2015-10-25T09:31:13.967Z</time>
      </trkpt>
      <trkpt lat="45.96227" lon="4.71581">
        <ele>191.399993896</ele>
        <time>2015-10-25T09:31:14.999Z</time>
      </trkpt>
      <trkpt lat="45.96233" lon="4.71582">
        <ele>191.300003052</ele>
        <time>2015-10-25T09:31:15.977Z</time>
      </trkpt>
      <trkpt lat="45.9624" lon="4.71583">
        <ele>191.199996948</ele>
        <time>2015-10-25T09:31:16.995Z</time>
      </trkpt>
      <trkpt lat="45.96246" lon="4.71583">
        <ele>191.100006104</ele>
        <time>2015-10-25T09:31:17.964Z</time>
      </trkpt>
      <trkpt lat="45.96252" lon="4.71584">
        <ele>191.100006104</ele>
        <time>2015-10-25T09:31:18.996Z</time>
      </trkpt>
      <trkpt lat="45.96258" lon="4.71586">
        <ele>191.100006104</ele>
        <time>2015-10-25T09:31:19.965Z</time>
      </trkpt>
      <trkpt lat="45.96265" lon="4.71587">
        <ele>191.100006104</ele>
        <time>2015-10-25T09:31:21.008Z</time>
      </trkpt>
      <trkpt lat="45.96271" lon="4.71588">
        <ele>191</ele>
        <time>2015-10-25T09:31:21.968Z</time>
      </trkpt>
      <trkpt lat="45.96277" lon="4.71589">
        <ele>190.899993896</ele>
        <time>2015-10-25T09:31:23.015Z</time>
      </trkpt>
      <trkpt lat="45.96284" lon="4.7159">
        <ele>190.699996948</ele>
        <time>2015-10-25T09:31:23.966Z</time>
      </trkpt>
      <trkpt lat="45.96291" lon="4.71591">
        <ele>190.600006104</ele>
        <time>2015-10-25T09:31:24.992Z</time>
      </trkpt>
      <trkpt lat="45.96297" lon="4.71592">
        <ele>190.5</ele>
        <time>2015-10-25T09:31:25.979Z</time>
      </trkpt>
      <trkpt lat="45.96303" lon="4.71593">
        <ele>190.399993896</ele>
        <time>2015-10-25T09:31:26.992Z</time>
      </trkpt>
      <trkpt lat="45.96309" lon="4.71594">
        <ele>190.5</ele>
        <time>2015-10-25T09:31:27.969Z</time>
      </trkpt>
      <trkpt lat="45.96315" lon="4.71594">
        <ele>190.399993896</ele>
        <time>2015-10-25T09:31:28.993Z</time>
      </trkpt>
      <trkpt lat="45.9632" lon="4.71595">
        <ele>190.300003052</ele>
        <time>2015-10-25T09:31:29.966Z</time>
      </trkpt>
      <trkpt lat="45.96326" lon="4.71596">
        <ele>190.199996948</ele>
        <time>2015-10-25T09:31:30.992Z</time>
      </trkpt>
      <trkpt lat="45.96332" lon="4.71597">
        <ele>190.199996948</ele>
        <time>2015-10-25T09:31:31.965Z</time>
      </trkpt>
      <trkpt lat="45.96338" lon="4.71598">
        <ele>189.899993896</ele>
        <time>2015-10-25T09:31:32.993Z</time>
      </trkpt>
      <trkpt lat="45.96344" lon="4.71599">
        <ele>189.899993896</ele>
        <time>2015-10-25T09:31:33.968Z</time>
      </trkpt>
      <trkpt lat="45.9635" lon="4.716">
        <ele>190.100006104</ele>
        <time>2015-10-25T09:31:34.992Z</time>
      </trkpt>
      <trkpt lat="45.96356" lon="4.71601">
        <ele>190.199996948</ele>
        <time>2015-10-25T09:31:35.976Z</time>
      </trkpt>
      <trkpt lat="45.96362" lon="4.71603">
        <ele>190.399993896</ele>
        <time>2015-10-25T09:31:37.024Z</time>
      </trkpt>
      <trkpt lat="45.96369" lon="4.71604">
        <ele>190.300003052</ele>
        <time>2015-10-25T09:31:37.965Z</time>
      </trkpt>
      <trkpt lat="45.96375" lon="4.71605">
        <ele>190.399993896</ele>
        <time>2015-10-25T09:31:39.001Z</time>
      </trkpt>
      <trkpt lat="45.96381" lon="4.71606">
        <ele>190.199996948</ele>
        <time>2015-10-25T09:31:39.971Z</time>
      </trkpt>
      <trkpt lat="45.96387" lon="4.71607">
        <ele>190.100006104</ele>
        <time>2015-10-25T09:31:41.017Z</time>
      </trkpt>
      <trkpt lat="45.96393" lon="4.71608">
        <ele>190.199996948</ele>
        <time>2015-10-25T09:31:41.984Z</time>
      </trkpt>
      <trkpt lat="45.96399" lon="4.71609">
        <ele>190.199996948</ele>
        <time>2015-10-25T09:31:42.996Z</time>
      </trkpt>
      <trkpt lat="45.96404" lon="4.7161">
        <ele>190.100006104</ele>
        <time>2015-10-25T09:31:43.964Z</time>
      </trkpt>
      <trkpt lat="45.9641" lon="4.71611">
        <ele>190.199996948</ele>
        <time>2015-10-25T09:31:44.992Z</time>
      </trkpt>
      <trkpt lat="45.96415" lon="4.71612">
        <ele>190</ele>
        <time>2015-10-25T09:31:45.981Z</time>
      </trkpt>
      <trkpt lat="45.96421" lon="4.71612">
        <ele>189.899993896</ele>
        <time>2015-10-25T09:31:47.164Z</time>
      </trkpt>
      <trkpt lat="45.96426" lon="4.71613">
        <ele>189.600006104</ele>
        <time>2015-10-25T09:31:47.969Z</time>
      </trkpt>
      <trkpt lat="45.96432" lon="4.71614">
        <ele>189.699996948</ele>
        <time>2015-10-25T09:31:48.992Z</time>
      </trkpt>
      <trkpt lat="45.96438" lon="4.71615">
        <ele>189.899993896</ele>
        <time>2015-10-25T09:31:49.965Z</time>
      </trkpt>
      <trkpt lat="45.96444" lon="4.71616">
        <ele>190</ele>
        <time>2015-10-25T09:31:50.996Z</time>
      </trkpt>
      <trkpt lat="45.96449" lon="4.71617">
        <ele>190.100006104</ele>
        <time>2015-10-25T09:31:51.968Z</time>
      </trkpt>
      <trkpt lat="45.96455" lon="4.71618">
        <ele>190.100006104</ele>
        <time>2015-10-25T09:31:52.992Z</time>
      </trkpt>
      <trkpt lat="45.96461" lon="4.71618">
        <ele>190</ele>
        <time>2015-10-25T09:31:53.966Z</time>
      </trkpt>
      <trkpt lat="45.96467" lon="4.71619">
        <ele>189.300003052</ele>
        <time>2015-10-25T09:31:54.992Z</time>
      </trkpt>
      <trkpt lat="45.96473" lon="4.7162">
        <ele>188.699996948</ele>
        <time>2015-10-25T09:31:55.976Z</time>
      </trkpt>
      <trkpt lat="45.96478" lon="4.71621">
        <ele>188.5</ele>
        <time>2015-10-25T09:31:56.992Z</time>
      </trkpt>
      <trkpt lat="45.96484" lon="4.71621">
        <ele>188.399993896</ele>
        <time>2015-10-25T09:31:57.968Z</time>
      </trkpt>
      <trkpt lat="45.9649" lon="4.71622">
        <ele>188.399993896</ele>
        <time>2015-10-25T09:31:59.048Z</time>
      </trkpt>
      <trkpt lat="45.96495" lon="4.71623">
        <ele>188.800003052</ele>
        <time>2015-10-25T09:31:59.966Z</time>
      </trkpt>
      <trkpt lat="45.96501" lon="4.71624">
        <ele>188.699996948</ele>
        <time>2015-10-25T09:32:00.992Z</time>
      </trkpt>
      <trkpt lat="45.96506" lon="4.71626">
        <ele>188.800003052</ele>
        <time>2015-10-25T09:32:01.963Z</time>
      </trkpt>
      <trkpt lat="45.9651" lon="4.71629">
        <ele>189.199996948</ele>
        <time>2015-10-25T09:32:03.009Z</time>
      </trkpt>
      <trkpt lat="45.96514" lon="4.71633">
        <ele>189.399993896</ele>
        <time>2015-10-25T09:32:03.972Z</time>
      </trkpt>
      <trkpt lat="45.96518" lon="4.71638">
        <ele>189.800003052</ele>
        <time>2015-10-25T09:32:04.995Z</time>
      </trkpt>
      <trkpt lat="45.96522" lon="4.71643">
        <ele>190.5</ele>
        <time>2015-10-25T09:32:05.983Z</time>
      </trkpt>
      <trkpt lat="45.96527" lon="4.71647">
        <ele>191</ele>
        <time>2015-10-25T09:32:06.999Z</time>
      </trkpt>
      <trkpt lat="45.96532" lon="4.71648">
        <ele>191.399993896</ele>
        <time>2015-10-25T09:32:07.968Z</time>
      </trkpt>
      <trkpt lat="45.96537" lon="4.71646">
        <ele>192.699996948</ele>
        <time>2015-10-25T09:32:08.992Z</time>
      </trkpt>
      <trkpt lat="45.96542" lon="4.71642">
        <ele>193.100006104</ele>
        <time>2015-10-25T09:32:09.972Z</time>
      </trkpt>
      <trkpt lat="45.96547" lon="4.71639">
        <ele>193.300003052</ele>
        <time>2015-10-25T09:32:10.992Z</time>
      </trkpt>
      <trkpt lat="45.96552" lon="4.71636">
        <ele>193.300003052</ele>
        <time>2015-10-25T09:32:11.965Z</time>
      </trkpt>
      <trkpt lat="45.96557" lon="4.71634">
        <ele>193.600006104</ele>
        <time>2015-10-25T09:32:12.996Z</time>
      </trkpt>
      <trkpt lat="45.96562" lon="4.71634">
        <ele>193.600006104</ele>
        <time>2015-10-25T09:32:13.966Z</time>
      </trkpt>
      <trkpt lat="45.96568" lon="4.71636">
        <ele>193.5</ele>
        <time>2015-10-25T09:32:14.991Z</time>
      </trkpt>
      <trkpt lat="45.96573" lon="4.71637">
        <ele>193.399993896</ele>
        <time>2015-10-25T09:32:15.974Z</time>
      </trkpt>
      <trkpt lat="45.96578" lon="4.71638">
        <ele>193.5</ele>
        <time>2015-10-25T09:32:16.992Z</time>
      </trkpt>
      <trkpt lat="45.96584" lon="4.71639">
        <ele>193.5</ele>
        <time>2015-10-25T09:32:17.969Z</time>
      </trkpt>
      <trkpt lat="45.96589" lon="4.71639">
        <ele>193.899993896</ele>
        <time>2015-10-25T09:32:19.01Z</time>
      </trkpt>
      <trkpt lat="45.96594" lon="4.7164">
        <ele>194.100006104</ele>
        <time>2015-10-25T09:32:19.968Z</time>
      </trkpt>
      <trkpt lat="45.966" lon="4.71641">
        <ele>194.5</ele>
        <time>2015-10-25T09:32:20.992Z</time>
      </trkpt>
      <trkpt lat="45.96605" lon="4.71641">
        <ele>194.699996948</ele>
        <time>2015-10-25T09:32:21.968Z</time>
      </trkpt>
      <trkpt lat="45.96611" lon="4.71643">
        <ele>194.699996948</ele>
        <time>2015-10-25T09:32:22.995Z</time>
      </trkpt>
      <trkpt lat="45.96616" lon="4.71644">
        <ele>194.899993896</ele>
        <time>2015-10-25T09:32:23.967Z</time>
      </trkpt>
      <trkpt lat="45.96622" lon="4.71645">
        <ele>194.899993896</ele>
        <time>2015-10-25T09:32:24.992Z</time>
      </trkpt>
      <trkpt lat="45.96627" lon="4.71646">
        <ele>195.600006104</ele>
        <time>2015-10-25T09:32:25.979Z</time>
      </trkpt>
      <trkpt lat="45.96633" lon="4.71647">
        <ele>195.5</ele>
        <time>2015-10-25T09:32:26.992Z</time>
      </trkpt>
      <trkpt lat="45.96639" lon="4.71648">
        <ele>195.600006104</ele>
        <time>2015-10-25T09:32:27.968Z</time>
      </trkpt>
      <trkpt lat="45.96645" lon="4.71648">
        <ele>195.899993896</ele>
        <time>2015-10-25T09:32:28.992Z</time>
      </trkpt>
      <trkpt lat="45.9665" lon="4.71649">
        <ele>195.600006104</ele>
        <time>2015-10-25T09:32:29.969Z</time>
      </trkpt>
      <trkpt lat="45.96656" lon="4.7165">
        <ele>195.800003052</ele>
        <time>2015-10-25T09:32:30.992Z</time>
      </trkpt>
      <trkpt lat="45.96662" lon="4.71651">
        <ele>195.399993896</ele>
        <time>2015-10-25T09:32:31.967Z</time>
      </trkpt>
      <trkpt lat="45.96667" lon="4.71652">
        <ele>195.5</ele>
        <time>2015-10-25T09:32:32.997Z</time>
      </trkpt>
      <trkpt lat="45.96673" lon="4.71653">
        <ele>195.5</ele>
        <time>2015-10-25T09:32:34.003Z</time>
      </trkpt>
      <trkpt lat="45.96679" lon="4.71654">
        <ele>195.100006104</ele>
        <time>2015-10-25T09:32:35.009Z</time>
      </trkpt>
      <trkpt lat="45.96685" lon="4.71654">
        <ele>194.800003052</ele>
        <time>2015-10-25T09:32:35.982Z</time>
      </trkpt>
      <trkpt lat="45.96691" lon="4.71656">
        <ele>195</ele>
        <time>2015-10-25T09:32:36.994Z</time>
      </trkpt>
      <trkpt lat="45.96696" lon="4.71656">
        <ele>194.800003052</ele>
        <time>2015-10-25T09:32:37.965Z</time>
      </trkpt>
      <trkpt lat="45.96702" lon="4.71656">
        <ele>194.5</ele>
        <time>2015-10-25T09:32:38.992Z</time>
      </trkpt>
      <trkpt lat="45.96707" lon="4.71657">
        <ele>194.199996948</ele>
        <time>2015-10-25T09:32:39.968Z</time>
      </trkpt>
      <trkpt lat="45.96713" lon="4.71658">
        <ele>194.199996948</ele>
        <time>2015-10-25T09:32:40.991Z</time>
      </trkpt>
      <trkpt lat="45.96719" lon="4.71659">
        <ele>193.899993896</ele>
        <time>2015-10-25T09:32:41.964Z</time>
      </trkpt>
      <trkpt lat="45.96724" lon="4.7166">
        <ele>193.199996948</ele>
        <time>2015-10-25T09:32:42.991Z</time>
      </trkpt>
      <trkpt lat="45.9673" lon="4.7166">
        <ele>192.899993896</ele>
        <time>2015-10-25T09:32:43.965Z</time>
      </trkpt>
      <trkpt lat="45.96736" lon="4.71661">
        <ele>193.100006104</ele>
        <time>2015-10-25T09:32:44.991Z</time>
      </trkpt>
      <trkpt lat="45.96741" lon="4.71662">
        <ele>192.899993896</ele>
        <time>2015-10-25T09:32:45.988Z</time>
      </trkpt>
      <trkpt lat="45.96747" lon="4.71663">
        <ele>192.5</ele>
        <time>2015-10-25T09:32:46.995Z</time>
      </trkpt>
      <trkpt lat="45.96753" lon="4.71664">
        <ele>192.699996948</ele>
        <time>2015-10-25T09:32:47.969Z</time>
      </trkpt>
      <trkpt lat="45.96758" lon="4.71665">
        <ele>193.199996948</ele>
        <time>2015-10-25T09:32:48.992Z</time>
      </trkpt>
      <trkpt lat="45.96764" lon="4.71665">
        <ele>193.5</ele>
        <time>2015-10-25T09:32:49.964Z</time>
      </trkpt>
      <trkpt lat="45.96769" lon="4.71666">
        <ele>193.800003052</ele>
        <time>2015-10-25T09:32:51.011Z</time>
      </trkpt>
      <trkpt lat="45.96775" lon="4.71667">
        <ele>194.100006104</ele>
        <time>2015-10-25T09:32:51.969Z</time>
      </trkpt>
      <trkpt lat="45.9678" lon="4.71668">
        <ele>194.199996948</ele>
        <time>2015-10-25T09:32:53.024Z</time>
      </trkpt>
      <trkpt lat="45.96785" lon="4.71669">
        <ele>194.699996948</ele>
        <time>2015-10-25T09:32:53.965Z</time>
      </trkpt>
      <trkpt lat="45.96791" lon="4.7167">
        <ele>194.600006104</ele>
        <time>2015-10-25T09:32:54.995Z</time>
      </trkpt>
      <trkpt lat="45.96796" lon="4.71671">
        <ele>194.800003052</ele>
        <time>2015-10-25T09:32:55.985Z</time>
      </trkpt>
      <trkpt lat="45.96802" lon="4.71672">
        <ele>195.399993896</ele>
        <time>2015-10-25T09:32:56.995Z</time>
      </trkpt>
      <trkpt lat="45.96807" lon="4.71673">
        <ele>195.800003052</ele>
        <time>2015-10-25T09:32:57.971Z</time>
      </trkpt>
      <trkpt lat="45.96813" lon="4.71674">
        <ele>196.300003052</ele>
        <time>2015-10-25T09:32:58.995Z</time>
      </trkpt>
      <trkpt lat="45.96818" lon="4.71675">
        <ele>196.399993896</ele>
        <time>2015-10-25T09:32:59.965Z</time>
      </trkpt>
      <trkpt lat="45.96824" lon="4.71676">
        <ele>196.300003052</ele>
        <time>2015-10-25T09:33:00.995Z</time>
      </trkpt>
      <trkpt lat="45.96829" lon="4.71677">
        <ele>196.5</ele>
        <time>2015-10-25T09:33:01.963Z</time>
      </trkpt>
      <trkpt lat="45.96835" lon="4.71678">
        <ele>197</ele>
        <time>2015-10-25T09:33:02.991Z</time>
      </trkpt>
      <trkpt lat="45.9684" lon="4.71678">
        <ele>197.600006104</ele>
        <time>2015-10-25T09:33:03.968Z</time>
      </trkpt>
      <trkpt lat="45.96845" lon="4.71679">
        <ele>197.800003052</ele>
        <time>2015-10-25T09:33:04.991Z</time>
      </trkpt>
      <trkpt lat="45.96851" lon="4.71679">
        <ele>198.199996948</ele>
        <time>2015-10-25T09:33:05.986Z</time>
      </trkpt>
      <trkpt lat="45.96857" lon="4.7168">
        <ele>198.5</ele>
        <time>2015-10-25T09:33:06.992Z</time>
      </trkpt>
      <trkpt lat="45.96863" lon="4.71681">
        <ele>198.300003052</ele>
        <time>2015-10-25T09:33:07.964Z</time>
      </trkpt>
      <trkpt lat="45.96868" lon="4.71682">
        <ele>198.5</ele>
        <time>2015-10-25T09:33:09.034Z</time>
      </trkpt>
      <trkpt lat="45.96874" lon="4.71683">
        <ele>198.800003052</ele>
        <time>2015-10-25T09:33:09.968Z</time>
      </trkpt>
      <trkpt lat="45.9688" lon="4.71683">
        <ele>199.100006104</ele>
        <time>2015-10-25T09:33:10.995Z</time>
      </trkpt>
      <trkpt lat="45.96885" lon="4.71683">
        <ele>199.100006104</ele>
        <time>2015-10-25T09:33:11.98Z</time>
      </trkpt>
      <trkpt lat="45.96891" lon="4.71683">
        <ele>199.199996948</ele>
        <time>2015-10-25T09:33:12.991Z</time>
      </trkpt>
      <trkpt lat="45.96897" lon="4.71684">
        <ele>199</ele>
        <time>2015-10-25T09:33:13.964Z</time>
      </trkpt>
      <trkpt lat="45.96903" lon="4.71684">
        <ele>198.899993896</ele>
        <time>2015-10-25T09:33:14.995Z</time>
      </trkpt>
      <trkpt lat="45.96909" lon="4.71684">
        <ele>199.199996948</ele>
        <time>2015-10-25T09:33:15.988Z</time>
      </trkpt>
      <trkpt lat="45.96915" lon="4.71685">
        <ele>199.5</ele>
        <time>2015-10-25T09:33:16.995Z</time>
      </trkpt>
      <trkpt lat="45.9692" lon="4.71685">
        <ele>199.399993896</ele>
        <time>2015-10-25T09:33:17.969Z</time>
      </trkpt>
      <trkpt lat="45.96926" lon="4.71686">
        <ele>199.5</ele>
        <time>2015-10-25T09:33:19.028Z</time>
      </trkpt>
      <trkpt lat="45.96931" lon="4.71687">
        <ele>199.600006104</ele>
        <time>2015-10-25T09:33:19.964Z</time>
      </trkpt>
      <trkpt lat="45.96937" lon="4.71688">
        <ele>199.899993896</ele>
        <time>2015-10-25T09:33:20.992Z</time>
      </trkpt>
      <trkpt lat="45.96942" lon="4.71688">
        <ele>200.399993896</ele>
        <time>2015-10-25T09:33:21.971Z</time>
      </trkpt>
      <trkpt lat="45.96948" lon="4.71689">
        <ele>200.699996948</ele>
        <time>2015-10-25T09:33:22.995Z</time>
      </trkpt>
      <trkpt lat="45.96953" lon="4.7169">
        <ele>200.899993896</ele>
        <time>2015-10-25T09:33:23.968Z</time>
      </trkpt>
      <trkpt lat="45.96959" lon="4.71691">
        <ele>201.5</ele>
        <time>2015-10-25T09:33:24.998Z</time>
      </trkpt>
      <trkpt lat="45.96964" lon="4.71691">
        <ele>202.300003052</ele>
        <time>2015-10-25T09:33:25.989Z</time>
      </trkpt>
      <trkpt lat="45.96969" lon="4.71692">
        <ele>202.5</ele>
        <time>2015-10-25T09:33:27.02Z</time>
      </trkpt>
      <trkpt lat="45.96975" lon="4.71692">
        <ele>202.600006104</ele>
        <time>2015-10-25T09:33:27.991Z</time>
      </trkpt>
      <trkpt lat="45.9698" lon="4.71692">
        <ele>202.600006104</ele>
        <time>2015-10-25T09:33:28.993Z</time>
      </trkpt>
      <trkpt lat="45.96986" lon="4.71693">
        <ele>202.899993896</ele>
        <time>2015-10-25T09:33:29.964Z</time>
      </trkpt>
      <trkpt lat="45.96991" lon="4.71693">
        <ele>203.199996948</ele>
        <time>2015-10-25T09:33:30.996Z</time>
      </trkpt>
      <trkpt lat="45.96997" lon="4.71693">
        <ele>203.300003052</ele>
        <time>2015-10-25T09:33:31.965Z</time>
      </trkpt>
      <trkpt lat="45.97002" lon="4.71693">
        <ele>203.699996948</ele>
        <time>2015-10-25T09:33:33.002Z</time>
      </trkpt>
      <trkpt lat="45.97009" lon="4.71695">
        <ele>202.600006104</ele>
        <time>2015-10-25T09:33:33.967Z</time>
      </trkpt>
      <trkpt lat="45.97014" lon="4.71695">
        <ele>201.600006104</ele>
        <time>2015-10-25T09:33:34.996Z</time>
      </trkpt>
      <trkpt lat="45.9702" lon="4.71697">
        <ele>200.800003052</ele>
        <time>2015-10-25T09:33:35.997Z</time>
      </trkpt>
      <trkpt lat="45.97025" lon="4.71697">
        <ele>200.5</ele>
        <time>2015-10-25T09:33:36.992Z</time>
      </trkpt>
      <trkpt lat="45.97031" lon="4.71698">
        <ele>200</ele>
        <time>2015-10-25T09:33:37.98Z</time>
      </trkpt>
      <trkpt lat="45.97037" lon="4.71698">
        <ele>199.600006104</ele>
        <time>2015-10-25T09:33:38.992Z</time>
      </trkpt>
      <trkpt lat="45.97043" lon="4.71698">
        <ele>199.399993896</ele>
        <time>2015-10-25T09:33:39.969Z</time>
      </trkpt>
      <trkpt lat="45.97048" lon="4.71698">
        <ele>199.100006104</ele>
        <time>2015-10-25T09:33:40.991Z</time>
      </trkpt>
      <trkpt lat="45.97054" lon="4.71699">
        <ele>198.899993896</ele>
        <time>2015-10-25T09:33:41.964Z</time>
      </trkpt>
      <trkpt lat="45.9706" lon="4.717">
        <ele>197.899993896</ele>
        <time>2015-10-25T09:33:42.992Z</time>
      </trkpt>
      <trkpt lat="45.97065" lon="4.717">
        <ele>197.699996948</ele>
        <time>2015-10-25T09:33:43.964Z</time>
      </trkpt>
      <trkpt lat="45.97071" lon="4.717">
        <ele>197.800003052</ele>
        <time>2015-10-25T09:33:44.992Z</time>
      </trkpt>
      <trkpt lat="45.97076" lon="4.71701">
        <ele>197.899993896</ele>
        <time>2015-10-25T09:33:45.996Z</time>
      </trkpt>
      <trkpt lat="45.97082" lon="4.71701">
        <ele>198</ele>
        <time>2015-10-25T09:33:46.999Z</time>
      </trkpt>
      <trkpt lat="45.97087" lon="4.71702">
        <ele>197.899993896</ele>
        <time>2015-10-25T09:33:47.97Z</time>
      </trkpt>
      <trkpt lat="45.97093" lon="4.71703">
        <ele>197.600006104</ele>
        <time>2015-10-25T09:33:48.996Z</time>
      </trkpt>
      <trkpt lat="45.97099" lon="4.71704">
        <ele>197.5</ele>
        <time>2015-10-25T09:33:49.971Z</time>
      </trkpt>
      <trkpt lat="45.97104" lon="4.71704">
        <ele>197.100006104</ele>
        <time>2015-10-25T09:33:50.996Z</time>
      </trkpt>
      <trkpt lat="45.9711" lon="4.71705">
        <ele>196.800003052</ele>
        <time>2015-10-25T09:33:51.969Z</time>
      </trkpt>
      <trkpt lat="45.97116" lon="4.71705">
        <ele>196.800003052</ele>
        <time>2015-10-25T09:33:52.992Z</time>
      </trkpt>
      <trkpt lat="45.97122" lon="4.71705">
        <ele>196.800003052</ele>
        <time>2015-10-25T09:33:53.966Z</time>
      </trkpt>
      <trkpt lat="45.97127" lon="4.71706">
        <ele>196.600006104</ele>
        <time>2015-10-25T09:33:54.991Z</time>
      </trkpt>
      <trkpt lat="45.97133" lon="4.71706">
        <ele>196.800003052</ele>
        <time>2015-10-25T09:33:55.992Z</time>
      </trkpt>
      <trkpt lat="45.97138" lon="4.71706">
        <ele>196.699996948</ele>
        <time>2015-10-25T09:33:56.992Z</time>
      </trkpt>
      <trkpt lat="45.97144" lon="4.71706">
        <ele>197.199996948</ele>
        <time>2015-10-25T09:33:57.972Z</time>
      </trkpt>
      <trkpt lat="45.9715" lon="4.71707">
        <ele>197.199996948</ele>
        <time>2015-10-25T09:33:59.006Z</time>
      </trkpt>
      <trkpt lat="45.97155" lon="4.71707">
        <ele>197.5</ele>
        <time>2015-10-25T09:33:59.965Z</time>
      </trkpt>
      <trkpt lat="45.97161" lon="4.71707">
        <ele>197.600006104</ele>
        <time>2015-10-25T09:34:00.996Z</time>
      </trkpt>
      <trkpt lat="45.97166" lon="4.71707">
        <ele>197.5</ele>
        <time>2015-10-25T09:34:01.958Z</time>
      </trkpt>
      <trkpt lat="45.97172" lon="4.71707">
        <ele>197.399993896</ele>
        <time>2015-10-25T09:34:02.991Z</time>
      </trkpt>
      <trkpt lat="45.97177" lon="4.71708">
        <ele>197.300003052</ele>
        <time>2015-10-25T09:34:04.024Z</time>
      </trkpt>
      <trkpt lat="45.97183" lon="4.71709">
        <ele>196.399993896</ele>
        <time>2015-10-25T09:34:04.995Z</time>
      </trkpt>
      <trkpt lat="45.97188" lon="4.71709">
        <ele>196.199996948</ele>
        <time>2015-10-25T09:34:05.988Z</time>
      </trkpt>
      <trkpt lat="45.97194" lon="4.71709">
        <ele>196.199996948</ele>
        <time>2015-10-25T09:34:06.991Z</time>
      </trkpt>
      <trkpt lat="45.97199" lon="4.71709">
        <ele>196.399993896</ele>
        <time>2015-10-25T09:34:07.964Z</time>
      </trkpt>
      <trkpt lat="45.97205" lon="4.7171">
        <ele>196.600006104</ele>
        <time>2015-10-25T09:34:08.992Z</time>
      </trkpt>
      <trkpt lat="45.9721" lon="4.71711">
        <ele>196.800003052</ele>
        <time>2015-10-25T09:34:09.971Z</time>
      </trkpt>
      <trkpt lat="45.97216" lon="4.71711">
        <ele>197</ele>
        <time>2015-10-25T09:34:10.996Z</time>
      </trkpt>
      <trkpt lat="45.97221" lon="4.71712">
        <ele>197.300003052</ele>
        <time>2015-10-25T09:34:11.964Z</time>
      </trkpt>
      <trkpt lat="45.97227" lon="4.71712">
        <ele>198.100006104</ele>
        <time>2015-10-25T09:34:12.995Z</time>
      </trkpt>
      <trkpt lat="45.97233" lon="4.71713">
        <ele>198.300003052</ele>
        <time>2015-10-25T09:34:13.967Z</time>
      </trkpt>
      <trkpt lat="45.97239" lon="4.71714">
        <ele>198.600006104</ele>
        <time>2015-10-25T09:34:15.006Z</time>
      </trkpt>
      <trkpt lat="45.97245" lon="4.71714">
        <ele>198.399993896</ele>
        <time>2015-10-25T09:34:15.996Z</time>
      </trkpt>
      <trkpt lat="45.97251" lon="4.71715">
        <ele>198.600006104</ele>
        <time>2015-10-25T09:34:16.998Z</time>
      </trkpt>
      <trkpt lat="45.97256" lon="4.71716">
        <ele>198.699996948</ele>
        <time>2015-10-25T09:34:17.966Z</time>
      </trkpt>
      <trkpt lat="45.97261" lon="4.71717">
        <ele>198.699996948</ele>
        <time>2015-10-25T09:34:18.995Z</time>
      </trkpt>
      <trkpt lat="45.97267" lon="4.71718">
        <ele>198.800003052</ele>
        <time>2015-10-25T09:34:19.983Z</time>
      </trkpt>
      <trkpt lat="45.97272" lon="4.71719">
        <ele>198.5</ele>
        <time>2015-10-25T09:34:20.992Z</time>
      </trkpt>
      <trkpt lat="45.97278" lon="4.7172">
        <ele>197.800003052</ele>
        <time>2015-10-25T09:34:21.971Z</time>
      </trkpt>
      <trkpt lat="45.97282" lon="4.71723">
        <ele>197.600006104</ele>
        <time>2015-10-25T09:34:23.124Z</time>
      </trkpt>
      <trkpt lat="45.97287" lon="4.71727">
        <ele>198</ele>
        <time>2015-10-25T09:34:23.966Z</time>
      </trkpt>
      <trkpt lat="45.97291" lon="4.71731">
        <ele>198.699996948</ele>
        <time>2015-10-25T09:34:24.991Z</time>
      </trkpt>
      <trkpt lat="45.97296" lon="4.71735">
        <ele>198.800003052</ele>
        <time>2015-10-25T09:34:25.992Z</time>
      </trkpt>
      <trkpt lat="45.97301" lon="4.71738">
        <ele>198.800003052</ele>
        <time>2015-10-25T09:34:26.991Z</time>
      </trkpt>
      <trkpt lat="45.97307" lon="4.71738">
        <ele>198.899993896</ele>
        <time>2015-10-25T09:34:27.968Z</time>
      </trkpt>
      <trkpt lat="45.97312" lon="4.71737">
        <ele>199</ele>
        <time>2015-10-25T09:34:28.991Z</time>
      </trkpt>
      <trkpt lat="45.97318" lon="4.71733">
        <ele>198.800003052</ele>
        <time>2015-10-25T09:34:29.966Z</time>
      </trkpt>
      <trkpt lat="45.97323" lon="4.71729">
        <ele>198.899993896</ele>
        <time>2015-10-25T09:34:31.008Z</time>
      </trkpt>
      <trkpt lat="45.97328" lon="4.71725">
        <ele>199.199996948</ele>
        <time>2015-10-25T09:34:31.967Z</time>
      </trkpt>
      <trkpt lat="45.97333" lon="4.71723">
        <ele>199.800003052</ele>
        <time>2015-10-25T09:34:32.992Z</time>
      </trkpt>
      <trkpt lat="45.97339" lon="4.71722">
        <ele>200.100006104</ele>
        <time>2015-10-25T09:34:33.968Z</time>
      </trkpt>
      <trkpt lat="45.97344" lon="4.71723">
        <ele>200.399993896</ele>
        <time>2015-10-25T09:34:34.991Z</time>
      </trkpt>
      <trkpt lat="45.9735" lon="4.71724">
        <ele>200.300003052</ele>
        <time>2015-10-25T09:34:35.988Z</time>
      </trkpt>
      <trkpt lat="45.97355" lon="4.71724">
        <ele>200.5</ele>
        <time>2015-10-25T09:34:36.991Z</time>
      </trkpt>
      <trkpt lat="45.97361" lon="4.71725">
        <ele>200.600006104</ele>
        <time>2015-10-25T09:34:37.963Z</time>
      </trkpt>
      <trkpt lat="45.97366" lon="4.71725">
        <ele>200.300003052</ele>
        <time>2015-10-25T09:34:38.991Z</time>
      </trkpt>
      <trkpt lat="45.97371" lon="4.71725">
        <ele>200.800003052</ele>
        <time>2015-10-25T09:34:39.967Z</time>
      </trkpt>
      <trkpt lat="45.97377" lon="4.71726">
        <ele>200.800003052</ele>
        <time>2015-10-25T09:34:40.991Z</time>
      </trkpt>
      <trkpt lat="45.97384" lon="4.71727">
        <ele>200.800003052</ele>
        <time>2015-10-25T09:34:41.968Z</time>
      </trkpt>
      <trkpt lat="45.9739" lon="4.71727">
        <ele>200.899993896</ele>
        <time>2015-10-25T09:34:43Z</time>
      </trkpt>
      <trkpt lat="45.97395" lon="4.71727">
        <ele>200.699996948</ele>
        <time>2015-10-25T09:34:43.964Z</time>
      </trkpt>
      <trkpt lat="45.97402" lon="4.71728">
        <ele>200.5</ele>
        <time>2015-10-25T09:34:44.991Z</time>
      </trkpt>
      <trkpt lat="45.97408" lon="4.71728">
        <ele>199.399993896</ele>
        <time>2015-10-25T09:34:45.983Z</time>
      </trkpt>
      <trkpt lat="45.97414" lon="4.71728">
        <ele>198.899993896</ele>
        <time>2015-10-25T09:34:46.999Z</time>
      </trkpt>
      <trkpt lat="45.97419" lon="4.71729">
        <ele>198.199996948</ele>
        <time>2015-10-25T09:34:47.966Z</time>
      </trkpt>
      <trkpt lat="45.97425" lon="4.71729">
        <ele>197.699996948</ele>
        <time>2015-10-25T09:34:48.992Z</time>
      </trkpt>
      <trkpt lat="45.97431" lon="4.7173">
        <ele>197.199996948</ele>
        <time>2015-10-25T09:34:49.964Z</time>
      </trkpt>
      <trkpt lat="45.97436" lon="4.7173">
        <ele>197.199996948</ele>
        <time>2015-10-25T09:34:50.993Z</time>
      </trkpt>
      <trkpt lat="45.97442" lon="4.71731">
        <ele>197.100006104</ele>
        <time>2015-10-25T09:34:51.973Z</time>
      </trkpt>
      <trkpt lat="45.97447" lon="4.71731">
        <ele>197.199996948</ele>
        <time>2015-10-25T09:34:52.991Z</time>
      </trkpt>
      <trkpt lat="45.97453" lon="4.71731">
        <ele>196.800003052</ele>
        <time>2015-10-25T09:34:53.965Z</time>
      </trkpt>
      <trkpt lat="45.97458" lon="4.71732">
        <ele>197</ele>
        <time>2015-10-25T09:34:54.991Z</time>
      </trkpt>
      <trkpt lat="45.97464" lon="4.71732">
        <ele>197.300003052</ele>
        <time>2015-10-25T09:34:55.982Z</time>
      </trkpt>
      <trkpt lat="45.9747" lon="4.71733">
        <ele>197.300003052</ele>
        <time>2015-10-25T09:34:56.991Z</time>
      </trkpt>
      <trkpt lat="45.97476" lon="4.71733">
        <ele>197.100006104</ele>
        <time>2015-10-25T09:34:57.968Z</time>
      </trkpt>
      <trkpt lat="45.97482" lon="4.71734">
        <ele>197</ele>
        <time>2015-10-25T09:34:58.991Z</time>
      </trkpt>
      <trkpt lat="45.97488" lon="4.71734">
        <ele>196.899993896</ele>
        <time>2015-10-25T09:34:59.969Z</time>
      </trkpt>
      <trkpt lat="45.97494" lon="4.71734">
        <ele>197</ele>
        <time>2015-10-25T09:35:00.995Z</time>
      </trkpt>
      <trkpt lat="45.975" lon="4.71735">
        <ele>197.199996948</ele>
        <time>2015-10-25T09:35:01.977Z</time>
      </trkpt>
      <trkpt lat="45.97506" lon="4.71735">
        <ele>197.199996948</ele>
        <time>2015-10-25T09:35:03.01Z</time>
      </trkpt>
      <trkpt lat="45.97512" lon="4.71736">
        <ele>197.399993896</ele>
        <time>2015-10-25T09:35:03.967Z</time>
      </trkpt>
      <trkpt lat="45.97518" lon="4.71737">
        <ele>197.300003052</ele>
        <time>2015-10-25T09:35:04.991Z</time>
      </trkpt>
      <trkpt lat="45.97524" lon="4.71737">
        <ele>197.100006104</ele>
        <time>2015-10-25T09:35:05.979Z</time>
      </trkpt>
      <trkpt lat="45.9753" lon="4.71738">
        <ele>197</ele>
        <time>2015-10-25T09:35:06.995Z</time>
      </trkpt>
      <trkpt lat="45.97536" lon="4.71738">
        <ele>197.300003052</ele>
        <time>2015-10-25T09:35:07.967Z</time>
      </trkpt>
      <trkpt lat="45.97542" lon="4.71739">
        <ele>197.600006104</ele>
        <time>2015-10-25T09:35:08.995Z</time>
      </trkpt>
      <trkpt lat="45.97549" lon="4.71739">
        <ele>197.800003052</ele>
        <time>2015-10-25T09:35:09.967Z</time>
      </trkpt>
      <trkpt lat="45.97555" lon="4.7174">
        <ele>198.100006104</ele>
        <time>2015-10-25T09:35:10.996Z</time>
      </trkpt>
      <trkpt lat="45.97561" lon="4.71741">
        <ele>197.800003052</ele>
        <time>2015-10-25T09:35:11.965Z</time>
      </trkpt>
      <trkpt lat="45.97567" lon="4.71741">
        <ele>197.300003052</ele>
        <time>2015-10-25T09:35:12.996Z</time>
      </trkpt>
      <trkpt lat="45.97573" lon="4.71741">
        <ele>197</ele>
        <time>2015-10-25T09:35:13.964Z</time>
      </trkpt>
      <trkpt lat="45.97579" lon="4.71741">
        <ele>197.300003052</ele>
        <time>2015-10-25T09:35:15.013Z</time>
      </trkpt>
      <trkpt lat="45.97585" lon="4.71742">
        <ele>197.399993896</ele>
        <time>2015-10-25T09:35:15.985Z</time>
      </trkpt>
      <trkpt lat="45.9759" lon="4.71742">
        <ele>197.199996948</ele>
        <time>2015-10-25T09:35:16.995Z</time>
      </trkpt>
      <trkpt lat="45.97596" lon="4.71744">
        <ele>197.300003052</ele>
        <time>2015-10-25T09:35:17.966Z</time>
      </trkpt>
      <trkpt lat="45.97601" lon="4.71748">
        <ele>197.399993896</ele>
        <time>2015-10-25T09:35:19.006Z</time>
      </trkpt>
      <trkpt lat="45.97605" lon="4.71754">
        <ele>197.800003052</ele>
        <time>2015-10-25T09:35:19.964Z</time>
      </trkpt>
      <trkpt lat="45.97609" lon="4.71758">
        <ele>197.899993896</ele>
        <time>2015-10-25T09:35:20.991Z</time>
      </trkpt>
      <trkpt lat="45.97615" lon="4.71761">
        <ele>197.5</ele>
        <time>2015-10-25T09:35:21.971Z</time>
      </trkpt>
      <trkpt lat="45.97621" lon="4.71762">
        <ele>196.800003052</ele>
        <time>2015-10-25T09:35:22.995Z</time>
      </trkpt>
      <trkpt lat="45.97626" lon="4.7176">
        <ele>196.300003052</ele>
        <time>2015-10-25T09:35:23.968Z</time>
      </trkpt>
      <trkpt lat="45.97632" lon="4.71756">
        <ele>195.699996948</ele>
        <time>2015-10-25T09:35:25.002Z</time>
      </trkpt>
      <trkpt lat="45.97637" lon="4.71752">
        <ele>195.699996948</ele>
        <time>2015-10-25T09:35:25.97Z</time>
      </trkpt>
      <trkpt lat="45.97643" lon="4.71749">
        <ele>195.300003052</ele>
        <time>2015-10-25T09:35:26.991Z</time>
      </trkpt>
      <trkpt lat="45.97649" lon="4.71749">
        <ele>195.300003052</ele>
        <time>2015-10-25T09:35:27.968Z</time>
      </trkpt>
      <trkpt lat="45.97655" lon="4.71749">
        <ele>195.199996948</ele>
        <time>2015-10-25T09:35:28.995Z</time>
      </trkpt>
      <trkpt lat="45.97661" lon="4.71749">
        <ele>195</ele>
        <time>2015-10-25T09:35:29.964Z</time>
      </trkpt>
      <trkpt lat="45.97667" lon="4.7175">
        <ele>195</ele>
        <time>2015-10-25T09:35:30.991Z</time>
      </trkpt>
      <trkpt lat="45.97674" lon="4.71751">
        <ele>194.800003052</ele>
        <time>2015-10-25T09:35:31.964Z</time>
      </trkpt>
      <trkpt lat="45.9768" lon="4.71752">
        <ele>194.899993896</ele>
        <time>2015-10-25T09:35:32.991Z</time>
      </trkpt>
      <trkpt lat="45.97686" lon="4.71753">
        <ele>194.699996948</ele>
        <time>2015-10-25T09:35:33.974Z</time>
      </trkpt>
      <trkpt lat="45.97692" lon="4.71754">
        <ele>195</ele>
        <time>2015-10-25T09:35:35.012Z</time>
      </trkpt>
      <trkpt lat="45.97698" lon="4.71755">
        <ele>195.100006104</ele>
        <time>2015-10-25T09:35:35.976Z</time>
      </trkpt>
      <trkpt lat="45.97703" lon="4.71755">
        <ele>195.100006104</ele>
        <time>2015-10-25T09:35:36.992Z</time>
      </trkpt>
      <trkpt lat="45.97709" lon="4.71756">
        <ele>195.699996948</ele>
        <time>2015-10-25T09:35:37.964Z</time>
      </trkpt>
      <trkpt lat="45.97715" lon="4.71756">
        <ele>196.300003052</ele>
        <time>2015-10-25T09:35:38.994Z</time>
      </trkpt>
      <trkpt lat="45.97721" lon="4.71756">
        <ele>196.399993896</ele>
        <time>2015-10-25T09:35:39.967Z</time>
      </trkpt>
      <trkpt lat="45.97727" lon="4.71757">
        <ele>196.5</ele>
        <time>2015-10-25T09:35:41.032Z</time>
      </trkpt>
      <trkpt lat="45.97733" lon="4.71758">
        <ele>196.600006104</ele>
        <time>2015-10-25T09:35:41.968Z</time>
      </trkpt>
      <trkpt lat="45.9774" lon="4.71759">
        <ele>197</ele>
        <time>2015-10-25T09:35:42.991Z</time>
      </trkpt>
      <trkpt lat="45.97746" lon="4.7176">
        <ele>197</ele>
        <time>2015-10-25T09:35:43.964Z</time>
      </trkpt>
      <trkpt lat="45.97752" lon="4.71761">
        <ele>196.899993896</ele>
        <time>2015-10-25T09:35:44.99Z</time>
      </trkpt>
      <trkpt lat="45.97759" lon="4.71762">
        <ele>196.899993896</ele>
        <time>2015-10-25T09:35:45.981Z</time>
      </trkpt>
      <trkpt lat="45.97765" lon="4.71762">
        <ele>197</ele>
        <time>2015-10-25T09:35:46.995Z</time>
      </trkpt>
      <trkpt lat="45.97771" lon="4.71763">
        <ele>196.600006104</ele>
        <time>2015-10-25T09:35:47.969Z</time>
      </trkpt>
      <trkpt lat="45.97777" lon="4.71763">
        <ele>196.5</ele>
        <time>2015-10-25T09:35:49.02Z</time>
      </trkpt>
      <trkpt lat="45.97782" lon="4.71764">
        <ele>196.399993896</ele>
        <time>2015-10-25T09:35:49.968Z</time>
      </trkpt>
      <trkpt lat="45.97788" lon="4.71764">
        <ele>196.699996948</ele>
        <time>2015-10-25T09:35:51.009Z</time>
      </trkpt>
      <trkpt lat="45.97793" lon="4.71764">
        <ele>196.600006104</ele>
        <time>2015-10-25T09:35:51.968Z</time>
      </trkpt>
      <trkpt lat="45.97798" lon="4.71764">
        <ele>196.199996948</ele>
        <time>2015-10-25T09:35:52.995Z</time>
      </trkpt>
      <trkpt lat="45.97804" lon="4.71764">
        <ele>196.399993896</ele>
        <time>2015-10-25T09:35:53.968Z</time>
      </trkpt>
      <trkpt lat="45.9781" lon="4.71764">
        <ele>196.100006104</ele>
        <time>2015-10-25T09:35:54.995Z</time>
      </trkpt>
      <trkpt lat="45.97816" lon="4.71764">
        <ele>195.800003052</ele>
        <time>2015-10-25T09:35:55.975Z</time>
      </trkpt>
      <trkpt lat="45.97821" lon="4.71764">
        <ele>196.100006104</ele>
        <time>2015-10-25T09:35:56.992Z</time>
      </trkpt>
      <trkpt lat="45.97827" lon="4.71764">
        <ele>196</ele>
        <time>2015-10-25T09:35:57.967Z</time>
      </trkpt>
      <trkpt lat="45.97832" lon="4.71764">
        <ele>196</ele>
        <time>2015-10-25T09:35:58.995Z</time>
      </trkpt>
      <trkpt lat="45.97838" lon="4.71764">
        <ele>196.100006104</ele>
        <time>2015-10-25T09:35:59.968Z</time>
      </trkpt>
      <trkpt lat="45.97843" lon="4.71765">
        <ele>196.300003052</ele>
        <time>2015-10-25T09:36:00.999Z</time>
      </trkpt>
      <trkpt lat="45.97847" lon="4.71767">
        <ele>196</ele>
        <time>2015-10-25T09:36:01.965Z</time>
      </trkpt>
      <trkpt lat="45.97852" lon="4.71771">
        <ele>195.899993896</ele>
        <time>2015-10-25T09:36:02.992Z</time>
      </trkpt>
      <trkpt lat="45.97855" lon="4.71776">
        <ele>195.899993896</ele>
        <time>2015-10-25T09:36:03.97Z</time>
      </trkpt>
      <trkpt lat="45.97859" lon="4.71781">
        <ele>196.100006104</ele>
        <time>2015-10-25T09:36:04.992Z</time>
      </trkpt>
      <trkpt lat="45.97864" lon="4.71785">
        <ele>195.800003052</ele>
        <time>2015-10-25T09:36:05.968Z</time>
      </trkpt>
      <trkpt lat="45.97869" lon="4.71788">
        <ele>195.899993896</ele>
        <time>2015-10-25T09:36:07.01Z</time>
      </trkpt>
      <trkpt lat="45.97874" lon="4.71789">
        <ele>195.899993896</ele>
        <time>2015-10-25T09:36:07.968Z</time>
      </trkpt>
      <trkpt lat="45.9788" lon="4.71788">
        <ele>195.699996948</ele>
        <time>2015-10-25T09:36:08.992Z</time>
      </trkpt>
      <trkpt lat="45.97886" lon="4.71785">
        <ele>196</ele>
        <time>2015-10-25T09:36:09.971Z</time>
      </trkpt>
      <trkpt lat="45.97891" lon="4.71781">
        <ele>195.899993896</ele>
        <time>2015-10-25T09:36:10.993Z</time>
      </trkpt>
      <trkpt lat="45.97895" lon="4.71776">
        <ele>195.899993896</ele>
        <time>2015-10-25T09:36:11.965Z</time>
      </trkpt>
      <trkpt lat="45.97898" lon="4.71769">
        <ele>196.100006104</ele>
        <time>2015-10-25T09:36:12.997Z</time>
      </trkpt>
      <trkpt lat="45.97901" lon="4.71762">
        <ele>196.300003052</ele>
        <time>2015-10-25T09:36:13.963Z</time>
      </trkpt>
      <trkpt lat="45.97902" lon="4.71753">
        <ele>196.5</ele>
        <time>2015-10-25T09:36:14.996Z</time>
      </trkpt>
      <trkpt lat="45.97901" lon="4.71744">
        <ele>197.300003052</ele>
        <time>2015-10-25T09:36:15.971Z</time>
      </trkpt>
      <trkpt lat="45.979" lon="4.71736">
        <ele>197.399993896</ele>
        <time>2015-10-25T09:36:16.995Z</time>
      </trkpt>
      <trkpt lat="45.979" lon="4.71728">
        <ele>197.699996948</ele>
        <time>2015-10-25T09:36:17.969Z</time>
      </trkpt>
      <trkpt lat="45.97901" lon="4.71719">
        <ele>197.899993896</ele>
        <time>2015-10-25T09:36:18.999Z</time>
      </trkpt>
      <trkpt lat="45.97902" lon="4.71711">
        <ele>197.899993896</ele>
        <time>2015-10-25T09:36:19.968Z</time>
      </trkpt>
      <trkpt lat="45.97905" lon="4.71704">
        <ele>198.300003052</ele>
        <time>2015-10-25T09:36:20.995Z</time>
      </trkpt>
      <trkpt lat="45.97908" lon="4.71698">
        <ele>198.5</ele>
        <time>2015-10-25T09:36:21.971Z</time>
      </trkpt>
      <trkpt lat="45.97913" lon="4.71693">
        <ele>198.699996948</ele>
        <time>2015-10-25T09:36:23.009Z</time>
      </trkpt>
      <trkpt lat="45.97919" lon="4.71688">
        <ele>198.800003052</ele>
        <time>2015-10-25T09:36:23.969Z</time>
      </trkpt>
      <trkpt lat="45.97924" lon="4.71684">
        <ele>199</ele>
        <time>2015-10-25T09:36:24.995Z</time>
      </trkpt>
      <trkpt lat="45.9793" lon="4.7168">
        <ele>199.300003052</ele>
        <time>2015-10-25T09:36:25.964Z</time>
      </trkpt>
      <trkpt lat="45.97935" lon="4.71676">
        <ele>199.600006104</ele>
        <time>2015-10-25T09:36:26.999Z</time>
      </trkpt>
      <trkpt lat="45.9794" lon="4.71672">
        <ele>199.699996948</ele>
        <time>2015-10-25T09:36:27.971Z</time>
      </trkpt>
      <trkpt lat="45.97946" lon="4.71667">
        <ele>200.100006104</ele>
        <time>2015-10-25T09:36:28.996Z</time>
      </trkpt>
      <trkpt lat="45.97952" lon="4.71663">
        <ele>200.300003052</ele>
        <time>2015-10-25T09:36:29.969Z</time>
      </trkpt>
      <trkpt lat="45.97957" lon="4.71659">
        <ele>200.5</ele>
        <time>2015-10-25T09:36:30.996Z</time>
      </trkpt>
      <trkpt lat="45.97963" lon="4.71655">
        <ele>200.699996948</ele>
        <time>2015-10-25T09:36:31.968Z</time>
      </trkpt>
      <trkpt lat="45.97969" lon="4.71651">
        <ele>201</ele>
        <time>2015-10-25T09:36:32.995Z</time>
      </trkpt>
      <trkpt lat="45.97975" lon="4.71647">
        <ele>201.199996948</ele>
        <time>2015-10-25T09:36:33.967Z</time>
      </trkpt>
      <trkpt lat="45.9798" lon="4.71642">
        <ele>201.300003052</ele>
        <time>2015-10-25T09:36:34.991Z</time>
      </trkpt>
      <trkpt lat="45.97986" lon="4.71638">
        <ele>201.300003052</ele>
        <time>2015-10-25T09:36:35.966Z</time>
      </trkpt>
      <trkpt lat="45.97991" lon="4.71634">
        <ele>201.600006104</ele>
        <time>2015-10-25T09:36:36.992Z</time>
      </trkpt>
      <trkpt lat="45.97996" lon="4.71631">
        <ele>202.199996948</ele>
        <time>2015-10-25T09:36:37.968Z</time>
      </trkpt>
      <trkpt lat="45.98001" lon="4.71627">
        <ele>202.300003052</ele>
        <time>2015-10-25T09:36:39.01Z</time>
      </trkpt>
      <trkpt lat="45.98006" lon="4.71622">
        <ele>202.300003052</ele>
        <time>2015-10-25T09:36:39.971Z</time>
      </trkpt>
      <trkpt lat="45.98011" lon="4.71618">
        <ele>202.5</ele>
        <time>2015-10-25T09:36:40.996Z</time>
      </trkpt>
      <trkpt lat="45.98016" lon="4.71614">
        <ele>202.5</ele>
        <time>2015-10-25T09:36:41.969Z</time>
      </trkpt>
      <trkpt lat="45.98021" lon="4.7161">
        <ele>202.399993896</ele>
        <time>2015-10-25T09:36:43.024Z</time>
      </trkpt>
      <trkpt lat="45.98026" lon="4.71606">
        <ele>202.399993896</ele>
        <time>2015-10-25T09:36:43.968Z</time>
      </trkpt>
      <trkpt lat="45.98031" lon="4.71601">
        <ele>202.5</ele>
        <time>2015-10-25T09:36:44.991Z</time>
      </trkpt>
      <trkpt lat="45.98037" lon="4.71597">
        <ele>202.399993896</ele>
        <time>2015-10-25T09:36:45.967Z</time>
      </trkpt>
      <trkpt lat="45.98042" lon="4.71593">
        <ele>202.5</ele>
        <time>2015-10-25T09:36:46.995Z</time>
      </trkpt>
      <trkpt lat="45.98047" lon="4.7159">
        <ele>202.600006104</ele>
        <time>2015-10-25T09:36:47.969Z</time>
      </trkpt>
      <trkpt lat="45.98052" lon="4.71587">
        <ele>202.600006104</ele>
        <time>2015-10-25T09:36:48.995Z</time>
      </trkpt>
      <trkpt lat="45.98056" lon="4.71584">
        <ele>202.600006104</ele>
        <time>2015-10-25T09:36:49.965Z</time>
      </trkpt>
      <trkpt lat="45.98061" lon="4.71581">
        <ele>202.199996948</ele>
        <time>2015-10-25T09:36:50.992Z</time>
      </trkpt>
      <trkpt lat="45.98065" lon="4.71577">
        <ele>202.300003052</ele>
        <time>2015-10-25T09:36:51.973Z</time>
      </trkpt>
      <trkpt lat="45.9807" lon="4.71574">
        <ele>202.100006104</ele>
        <time>2015-10-25T09:36:52.995Z</time>
      </trkpt>
      <trkpt lat="45.98074" lon="4.71571">
        <ele>201.800003052</ele>
        <time>2015-10-25T09:36:53.969Z</time>
      </trkpt>
      <trkpt lat="45.98079" lon="4.71567">
        <ele>201.699996948</ele>
        <time>2015-10-25T09:36:55.016Z</time>
      </trkpt>
      <trkpt lat="45.98084" lon="4.71564">
        <ele>201.699996948</ele>
        <time>2015-10-25T09:36:55.965Z</time>
      </trkpt>
      <trkpt lat="45.98089" lon="4.71561">
        <ele>201.899993896</ele>
        <time>2015-10-25T09:36:56.995Z</time>
      </trkpt>
      <trkpt lat="45.98094" lon="4.71558">
        <ele>202.300003052</ele>
        <time>2015-10-25T09:36:57.967Z</time>
      </trkpt>
      <trkpt lat="45.98099" lon="4.71554">
        <ele>202.5</ele>
        <time>2015-10-25T09:36:58.994Z</time>
      </trkpt>
      <trkpt lat="45.98104" lon="4.7155">
        <ele>202.800003052</ele>
        <time>2015-10-25T09:36:59.969Z</time>
      </trkpt>
      <trkpt lat="45.98109" lon="4.71547">
        <ele>203.100006104</ele>
        <time>2015-10-25T09:37:01.006Z</time>
      </trkpt>
      <trkpt lat="45.98114" lon="4.71544">
        <ele>203.5</ele>
        <time>2015-10-25T09:37:01.988Z</time>
      </trkpt>
      <trkpt lat="45.98119" lon="4.7154">
        <ele>203.899993896</ele>
        <time>2015-10-25T09:37:02.996Z</time>
      </trkpt>
      <trkpt lat="45.98125" lon="4.71537">
        <ele>203.899993896</ele>
        <time>2015-10-25T09:37:03.97Z</time>
      </trkpt>
      <trkpt lat="45.98129" lon="4.71534">
        <ele>204.199996948</ele>
        <time>2015-10-25T09:37:05.007Z</time>
      </trkpt>
      <trkpt lat="45.98134" lon="4.71531">
        <ele>204.300003052</ele>
        <time>2015-10-25T09:37:05.969Z</time>
      </trkpt>
      <trkpt lat="45.98139" lon="4.71528">
        <ele>204.399993896</ele>
        <time>2015-10-25T09:37:07Z</time>
      </trkpt>
      <trkpt lat="45.98144" lon="4.71524">
        <ele>204.399993896</ele>
        <time>2015-10-25T09:37:07.968Z</time>
      </trkpt>
      <trkpt lat="45.98149" lon="4.71522">
        <ele>204.600006104</ele>
        <time>2015-10-25T09:37:08.995Z</time>
      </trkpt>
      <trkpt lat="45.98154" lon="4.71519">
        <ele>204.699996948</ele>
        <time>2015-10-25T09:37:09.971Z</time>
      </trkpt>
      <trkpt lat="45.98158" lon="4.71517">
        <ele>204.399993896</ele>
        <time>2015-10-25T09:37:11.01Z</time>
      </trkpt>
      <trkpt lat="45.98163" lon="4.71515">
        <ele>204.300003052</ele>
        <time>2015-10-25T09:37:11.965Z</time>
      </trkpt>
      <trkpt lat="45.98167" lon="4.71514">
        <ele>203.899993896</ele>
        <time>2015-10-25T09:37:12.995Z</time>
      </trkpt>
      <trkpt lat="45.98172" lon="4.71512">
        <ele>203.899993896</ele>
        <time>2015-10-25T09:37:13.962Z</time>
      </trkpt>
      <trkpt lat="45.98177" lon="4.71511">
        <ele>203.5</ele>
        <time>2015-10-25T09:37:14.995Z</time>
      </trkpt>
      <trkpt lat="45.98182" lon="4.71509">
        <ele>203.199996948</ele>
        <time>2015-10-25T09:37:15.97Z</time>
      </trkpt>
      <trkpt lat="45.98187" lon="4.71507">
        <ele>202.5</ele>
        <time>2015-10-25T09:37:16.995Z</time>
      </trkpt>
      <trkpt lat="45.98193" lon="4.71507">
        <ele>201.600006104</ele>
        <time>2015-10-25T09:37:17.971Z</time>
      </trkpt>
      <trkpt lat="45.98199" lon="4.71508">
        <ele>201.699996948</ele>
        <time>2015-10-25T09:37:18.999Z</time>
      </trkpt>
      <trkpt lat="45.98204" lon="4.7151">
        <ele>201.600006104</ele>
        <time>2015-10-25T09:37:19.967Z</time>
      </trkpt>
      <trkpt lat="45.9821" lon="4.71511">
        <ele>201.399993896</ele>
        <time>2015-10-25T09:37:20.995Z</time>
      </trkpt>
      <trkpt lat="45.98215" lon="4.71513">
        <ele>201.199996948</ele>
        <time>2015-10-25T09:37:21.97Z</time>
      </trkpt>
      <trkpt lat="45.9822" lon="4.71515">
        <ele>201</ele>
        <time>2015-10-25T09:37:22.992Z</time>
      </trkpt>
      <trkpt lat="45.98225" lon="4.71518">
        <ele>201</ele>
        <time>2015-10-25T09:37:23.969Z</time>
      </trkpt>
      <trkpt lat="45.9823" lon="4.71521">
        <ele>200.899993896</ele>
        <time>2015-10-25T09:37:24.994Z</time>
      </trkpt>
      <trkpt lat="45.98236" lon="4.71524">
        <ele>200.800003052</ele>
        <time>2015-10-25T09:37:25.968Z</time>
      </trkpt>
      <trkpt lat="45.98241" lon="4.71528">
        <ele>200.600006104</ele>
        <time>2015-10-25T09:37:27.009Z</time>
      </trkpt>
      <trkpt lat="45.98246" lon="4.71532">
        <ele>200.5</ele>
        <time>2015-10-25T09:37:27.97Z</time>
      </trkpt>
      <trkpt lat="45.98252" lon="4.71535">
        <ele>200.199996948</ele>
        <time>2015-10-25T09:37:28.991Z</time>
      </trkpt>
      <trkpt lat="45.98258" lon="4.71539">
        <ele>199.800003052</ele>
        <time>2015-10-25T09:37:29.968Z</time>
      </trkpt>
      <trkpt lat="45.98264" lon="4.71543">
        <ele>199.699996948</ele>
        <time>2015-10-25T09:37:30.995Z</time>
      </trkpt>
      <trkpt lat="45.9827" lon="4.71547">
        <ele>199.600006104</ele>
        <time>2015-10-25T09:37:31.968Z</time>
      </trkpt>
      <trkpt lat="45.98276" lon="4.71551">
        <ele>199.699996948</ele>
        <time>2015-10-25T09:37:32.995Z</time>
      </trkpt>
      <trkpt lat="45.98282" lon="4.71556">
        <ele>199.300003052</ele>
        <time>2015-10-25T09:37:33.965Z</time>
      </trkpt>
      <trkpt lat="45.98288" lon="4.7156">
        <ele>199.100006104</ele>
        <time>2015-10-25T09:37:34.995Z</time>
      </trkpt>
      <trkpt lat="45.98294" lon="4.71565">
        <ele>199.199996948</ele>
        <time>2015-10-25T09:37:35.969Z</time>
      </trkpt>
      <trkpt lat="45.983" lon="4.71569">
        <ele>199</ele>
        <time>2015-10-25T09:37:36.991Z</time>
      </trkpt>
      <trkpt lat="45.98305" lon="4.71572">
        <ele>198.5</ele>
        <time>2015-10-25T09:37:37.969Z</time>
      </trkpt>
      <trkpt lat="45.98311" lon="4.71576">
        <ele>198.800003052</ele>
        <time>2015-10-25T09:37:38.996Z</time>
      </trkpt>
      <trkpt lat="45.98317" lon="4.7158">
        <ele>198.600006104</ele>
        <time>2015-10-25T09:37:39.971Z</time>
      </trkpt>
      <trkpt lat="45.98322" lon="4.71583">
        <ele>198.800003052</ele>
        <time>2015-10-25T09:37:40.996Z</time>
      </trkpt>
      <trkpt lat="45.98328" lon="4.71586">
        <ele>198.5</ele>
        <time>2015-10-25T09:37:41.97Z</time>
      </trkpt>
      <trkpt lat="45.98334" lon="4.7159">
        <ele>198.199996948</ele>
        <time>2015-10-25T09:37:43.016Z</time>
      </trkpt>
      <trkpt lat="45.98339" lon="4.71593">
        <ele>197.699996948</ele>
        <time>2015-10-25T09:37:43.966Z</time>
      </trkpt>
      <trkpt lat="45.98344" lon="4.71596">
        <ele>198</ele>
        <time>2015-10-25T09:37:44.998Z</time>
      </trkpt>
      <trkpt lat="45.98349" lon="4.71599">
        <ele>197.800003052</ele>
        <time>2015-10-25T09:37:45.971Z</time>
      </trkpt>
      <trkpt lat="45.98353" lon="4.71601">
        <ele>197.800003052</ele>
        <time>2015-10-25T09:37:46.997Z</time>
      </trkpt>
      <trkpt lat="45.98358" lon="4.71604">
        <ele>197.699996948</ele>
        <time>2015-10-25T09:37:47.969Z</time>
      </trkpt>
      <trkpt lat="45.98362" lon="4.71607">
        <ele>197.699996948</ele>
        <time>2015-10-25T09:37:48.995Z</time>
      </trkpt>
      <trkpt lat="45.98367" lon="4.71609">
        <ele>197.699996948</ele>
        <time>2015-10-25T09:37:49.964Z</time>
      </trkpt>
      <trkpt lat="45.98373" lon="4.71609">
        <ele>197.399993896</ele>
        <time>2015-10-25T09:37:50.995Z</time>
      </trkpt>
      <trkpt lat="45.98378" lon="4.71609">
        <ele>197.199996948</ele>
        <time>2015-10-25T09:37:51.97Z</time>
      </trkpt>
      <trkpt lat="45.98383" lon="4.71607">
        <ele>196.899993896</ele>
        <time>2015-10-25T09:37:53.053Z</time>
      </trkpt>
      <trkpt lat="45.98388" lon="4.71604">
        <ele>197.199996948</ele>
        <time>2015-10-25T09:37:53.965Z</time>
      </trkpt>
      <trkpt lat="45.98393" lon="4.716">
        <ele>197.100006104</ele>
        <time>2015-10-25T09:37:54.995Z</time>
      </trkpt>
      <trkpt lat="45.98398" lon="4.71595">
        <ele>197.100006104</ele>
        <time>2015-10-25T09:37:55.968Z</time>
      </trkpt>
      <trkpt lat="45.98402" lon="4.7159">
        <ele>197.199996948</ele>
        <time>2015-10-25T09:37:56.994Z</time>
      </trkpt>
      <trkpt lat="45.98407" lon="4.71585">
        <ele>197.399993896</ele>
        <time>2015-10-25T09:37:57.966Z</time>
      </trkpt>
      <trkpt lat="45.98412" lon="4.7158">
        <ele>197.5</ele>
        <time>2015-10-25T09:37:59.009Z</time>
      </trkpt>
      <trkpt lat="45.98416" lon="4.71574">
        <ele>197.5</ele>
        <time>2015-10-25T09:37:59.969Z</time>
      </trkpt>
      <trkpt lat="45.98421" lon="4.71569">
        <ele>197.5</ele>
        <time>2015-10-25T09:38:00.996Z</time>
      </trkpt>
      <trkpt lat="45.98426" lon="4.71563">
        <ele>197.399993896</ele>
        <time>2015-10-25T09:38:01.968Z</time>
      </trkpt>
      <trkpt lat="45.98431" lon="4.71558">
        <ele>197.300003052</ele>
        <time>2015-10-25T09:38:02.992Z</time>
      </trkpt>
      <trkpt lat="45.98436" lon="4.71554">
        <ele>197.300003052</ele>
        <time>2015-10-25T09:38:03.982Z</time>
      </trkpt>
      <trkpt lat="45.98441" lon="4.7155">
        <ele>197.300003052</ele>
        <time>2015-10-25T09:38:04.991Z</time>
      </trkpt>
      <trkpt lat="45.98447" lon="4.71548">
        <ele>197</ele>
        <time>2015-10-25T09:38:05.964Z</time>
      </trkpt>
      <trkpt lat="45.98453" lon="4.71545">
        <ele>196.899993896</ele>
        <time>2015-10-25T09:38:06.991Z</time>
      </trkpt>
      <trkpt lat="45.98459" lon="4.71544">
        <ele>196.899993896</ele>
        <time>2015-10-25T09:38:07.964Z</time>
      </trkpt>
      <trkpt lat="45.98465" lon="4.71542">
        <ele>197</ele>
        <time>2015-10-25T09:38:08.995Z</time>
      </trkpt>
      <trkpt lat="45.98471" lon="4.7154">
        <ele>196.800003052</ele>
        <time>2015-10-25T09:38:09.973Z</time>
      </trkpt>
      <trkpt lat="45.98477" lon="4.71538">
        <ele>196.300003052</ele>
        <time>2015-10-25T09:38:11.03Z</time>
      </trkpt>
      <trkpt lat="45.98483" lon="4.71536">
        <ele>196.199996948</ele>
        <time>2015-10-25T09:38:11.965Z</time>
      </trkpt>
      <trkpt lat="45.98489" lon="4.71535">
        <ele>196.100006104</ele>
        <time>2015-10-25T09:38:12.995Z</time>
      </trkpt>
      <trkpt lat="45.98494" lon="4.71533">
        <ele>196.5</ele>
        <time>2015-10-25T09:38:13.964Z</time>
      </trkpt>
      <trkpt lat="45.985" lon="4.71532">
        <ele>195.899993896</ele>
        <time>2015-10-25T09:38:15.008Z</time>
      </trkpt>
      <trkpt lat="45.98506" lon="4.71531">
        <ele>194.899993896</ele>
        <time>2015-10-25T09:38:15.968Z</time>
      </trkpt>
      <trkpt lat="45.98512" lon="4.7153">
        <ele>194.899993896</ele>
        <time>2015-10-25T09:38:16.991Z</time>
      </trkpt>
      <trkpt lat="45.98518" lon="4.71528">
        <ele>194.699996948</ele>
        <time>2015-10-25T09:38:17.968Z</time>
      </trkpt>
      <trkpt lat="45.98525" lon="4.71526">
        <ele>194.800003052</ele>
        <time>2015-10-25T09:38:18.991Z</time>
      </trkpt>
      <trkpt lat="45.98532" lon="4.71525">
        <ele>194.800003052</ele>
        <time>2015-10-25T09:38:19.967Z</time>
      </trkpt>
      <trkpt lat="45.98539" lon="4.71523">
        <ele>195</ele>
        <time>2015-10-25T09:38:20.995Z</time>
      </trkpt>
      <trkpt lat="45.98546" lon="4.71521">
        <ele>195.600006104</ele>
        <time>2015-10-25T09:38:21.97Z</time>
      </trkpt>
      <trkpt lat="45.98553" lon="4.71519">
        <ele>195</ele>
        <time>2015-10-25T09:38:22.994Z</time>
      </trkpt>
      <trkpt lat="45.98561" lon="4.71517">
        <ele>194.800003052</ele>
        <time>2015-10-25T09:38:23.969Z</time>
      </trkpt>
      <trkpt lat="45.98568" lon="4.71515">
        <ele>194.899993896</ele>
        <time>2015-10-25T09:38:24.994Z</time>
      </trkpt>
      <trkpt lat="45.98576" lon="4.71513">
        <ele>194.800003052</ele>
        <time>2015-10-25T09:38:25.968Z</time>
      </trkpt>
      <trkpt lat="45.98583" lon="4.71511">
        <ele>194.699996948</ele>
        <time>2015-10-25T09:38:26.994Z</time>
      </trkpt>
      <trkpt lat="45.98591" lon="4.7151">
        <ele>195.100006104</ele>
        <time>2015-10-25T09:38:27.97Z</time>
      </trkpt>
      <trkpt lat="45.98599" lon="4.71509">
        <ele>195.800003052</ele>
        <time>2015-10-25T09:38:29.024Z</time>
      </trkpt>
      <trkpt lat="45.98607" lon="4.71508">
        <ele>195.699996948</ele>
        <time>2015-10-25T09:38:29.968Z</time>
      </trkpt>
      <trkpt lat="45.98615" lon="4.71507">
        <ele>196</ele>
        <time>2015-10-25T09:38:31.01Z</time>
      </trkpt>
      <trkpt lat="45.98622" lon="4.71507">
        <ele>195.899993896</ele>
        <time>2015-10-25T09:38:31.967Z</time>
      </trkpt>
      <trkpt lat="45.98628" lon="4.71504">
        <ele>195.600006104</ele>
        <time>2015-10-25T09:38:32.995Z</time>
      </trkpt>
      <trkpt lat="45.98636" lon="4.71503">
        <ele>195.600006104</ele>
        <time>2015-10-25T09:38:33.969Z</time>
      </trkpt>
      <trkpt lat="45.98642" lon="4.71501">
        <ele>196</ele>
        <time>2015-10-25T09:38:34.994Z</time>
      </trkpt>
      <trkpt lat="45.98648" lon="4.715">
        <ele>196</ele>
        <time>2015-10-25T09:38:35.971Z</time>
      </trkpt>
      <trkpt lat="45.98654" lon="4.715">
        <ele>196.699996948</ele>
        <time>2015-10-25T09:38:36.998Z</time>
      </trkpt>
      <trkpt lat="45.98658" lon="4.71499">
        <ele>196.100006104</ele>
        <time>2015-10-25T09:38:37.967Z</time>
      </trkpt>
      <trkpt lat="45.98666" lon="4.71496">
        <ele>196</ele>
        <time>2015-10-25T09:38:40.991Z</time>
      </trkpt>
      <trkpt lat="45.98667" lon="4.71496">
        <ele>195.899993896</ele>
        <time>2015-10-25T09:38:41.968Z</time>
      </trkpt>
      <trkpt lat="45.98667" lon="4.71495">
        <ele>195.600006104</ele>
        <time>2015-10-25T09:38:49.012Z</time>
      </trkpt>
      <trkpt lat="45.9867" lon="4.71495">
        <ele>195.399993896</ele>
        <time>2015-10-25T09:38:49.968Z</time>
      </trkpt>
      <trkpt lat="45.98678" lon="4.71496">
        <ele>194.5</ele>
        <time>2015-10-25T09:38:51.997Z</time>
      </trkpt>
      <trkpt lat="45.98683" lon="4.71497">
        <ele>194.300003052</ele>
        <time>2015-10-25T09:38:52.963Z</time>
      </trkpt>
      <trkpt lat="45.98688" lon="4.71498">
        <ele>194.100006104</ele>
        <time>2015-10-25T09:38:53.997Z</time>
      </trkpt>
      <trkpt lat="45.98693" lon="4.71499">
        <ele>193.800003052</ele>
        <time>2015-10-25T09:38:54.967Z</time>
      </trkpt>
      <trkpt lat="45.987" lon="4.71502">
        <ele>193</ele>
        <time>2015-10-25T09:38:55.994Z</time>
      </trkpt>
      <trkpt lat="45.98705" lon="4.71504">
        <ele>192.399993896</ele>
        <time>2015-10-25T09:38:56.963Z</time>
      </trkpt>
      <trkpt lat="45.98711" lon="4.71506">
        <ele>192.300003052</ele>
        <time>2015-10-25T09:38:57.994Z</time>
      </trkpt>
      <trkpt lat="45.98717" lon="4.71507">
        <ele>191.600006104</ele>
        <time>2015-10-25T09:38:58.964Z</time>
      </trkpt>
      <trkpt lat="45.98722" lon="4.71507">
        <ele>191.100006104</ele>
        <time>2015-10-25T09:38:59.992Z</time>
      </trkpt>
      <trkpt lat="45.98728" lon="4.71507">
        <ele>190.600006104</ele>
        <time>2015-10-25T09:39:00.964Z</time>
      </trkpt>
      <trkpt lat="45.98735" lon="4.71507">
        <ele>190.600006104</ele>
        <time>2015-10-25T09:39:01.993Z</time>
      </trkpt>
      <trkpt lat="45.98741" lon="4.71508">
        <ele>190.5</ele>
        <time>2015-10-25T09:39:02.977Z</time>
      </trkpt>
      <trkpt lat="45.98747" lon="4.71508">
        <ele>190.600006104</ele>
        <time>2015-10-25T09:39:04.028Z</time>
      </trkpt>
      <trkpt lat="45.98753" lon="4.71508">
        <ele>190.800003052</ele>
        <time>2015-10-25T09:39:04.967Z</time>
      </trkpt>
      <trkpt lat="45.98759" lon="4.71508">
        <ele>190.699996948</ele>
        <time>2015-10-25T09:39:05.992Z</time>
      </trkpt>
      <trkpt lat="45.98765" lon="4.71508">
        <ele>190.899993896</ele>
        <time>2015-10-25T09:39:06.964Z</time>
      </trkpt>
      <trkpt lat="45.98771" lon="4.71508">
        <ele>190.899993896</ele>
        <time>2015-10-25T09:39:07.99Z</time>
      </trkpt>
      <trkpt lat="45.98776" lon="4.71509">
        <ele>191.300003052</ele>
        <time>2015-10-25T09:39:08.963Z</time>
      </trkpt>
      <trkpt lat="45.98782" lon="4.7151">
        <ele>191.600006104</ele>
        <time>2015-10-25T09:39:09.993Z</time>
      </trkpt>
      <trkpt lat="45.98788" lon="4.7151">
        <ele>191.800003052</ele>
        <time>2015-10-25T09:39:10.964Z</time>
      </trkpt>
      <trkpt lat="45.98794" lon="4.7151">
        <ele>191.899993896</ele>
        <time>2015-10-25T09:39:11.992Z</time>
      </trkpt>
      <trkpt lat="45.98799" lon="4.7151">
        <ele>192</ele>
        <time>2015-10-25T09:39:12.964Z</time>
      </trkpt>
      <trkpt lat="45.98805" lon="4.7151">
        <ele>192.300003052</ele>
        <time>2015-10-25T09:39:14.003Z</time>
      </trkpt>
      <trkpt lat="45.98811" lon="4.71511">
        <ele>192.100006104</ele>
        <time>2015-10-25T09:39:14.964Z</time>
      </trkpt>
      <trkpt lat="45.98818" lon="4.7151">
        <ele>192.199996948</ele>
        <time>2015-10-25T09:39:16.991Z</time>
      </trkpt>
      <trkpt lat="45.98822" lon="4.71511">
        <ele>192.600006104</ele>
        <time>2015-10-25T09:39:17.964Z</time>
      </trkpt>
      <trkpt lat="45.9883" lon="4.71512">
        <ele>192.5</ele>
        <time>2015-10-25T09:39:19.991Z</time>
      </trkpt>
      <trkpt lat="45.98835" lon="4.71512">
        <ele>192.5</ele>
        <time>2015-10-25T09:39:20.968Z</time>
      </trkpt>
      <trkpt lat="45.9884" lon="4.71512">
        <ele>191.699996948</ele>
        <time>2015-10-25T09:39:22.04Z</time>
      </trkpt>
      <trkpt lat="45.98846" lon="4.71512">
        <ele>192</ele>
        <time>2015-10-25T09:39:22.962Z</time>
      </trkpt>
      <trkpt lat="45.98852" lon="4.71512">
        <ele>191.600006104</ele>
        <time>2015-10-25T09:39:23.995Z</time>
      </trkpt>
      <trkpt lat="45.98857" lon="4.71512">
        <ele>191.899993896</ele>
        <time>2015-10-25T09:39:24.967Z</time>
      </trkpt>
      <trkpt lat="45.98863" lon="4.71512">
        <ele>192.100006104</ele>
        <time>2015-10-25T09:39:25.994Z</time>
      </trkpt>
      <trkpt lat="45.98868" lon="4.71513">
        <ele>192.300003052</ele>
        <time>2015-10-25T09:39:26.967Z</time>
      </trkpt>
      <trkpt lat="45.98873" lon="4.71513">
        <ele>192.600006104</ele>
        <time>2015-10-25T09:39:27.997Z</time>
      </trkpt>
      <trkpt lat="45.98879" lon="4.71513">
        <ele>192.899993896</ele>
        <time>2015-10-25T09:39:28.98Z</time>
      </trkpt>
      <trkpt lat="45.98884" lon="4.71514">
        <ele>192.800003052</ele>
        <time>2015-10-25T09:39:29.992Z</time>
      </trkpt>
      <trkpt lat="45.98888" lon="4.71514">
        <ele>192.699996948</ele>
        <time>2015-10-25T09:39:30.963Z</time>
      </trkpt>
      <trkpt lat="45.98893" lon="4.71513">
        <ele>192.600006104</ele>
        <time>2015-10-25T09:39:32.003Z</time>
      </trkpt>
      <trkpt lat="45.98898" lon="4.71515">
        <ele>191.699996948</ele>
        <time>2015-10-25T09:39:32.962Z</time>
      </trkpt>
      <trkpt lat="45.98906" lon="4.71518">
        <ele>190.100006104</ele>
        <time>2015-10-25T09:39:34.991Z</time>
      </trkpt>
      <trkpt lat="45.9891" lon="4.71519">
        <ele>188.699996948</ele>
        <time>2015-10-25T09:39:35.969Z</time>
      </trkpt>
      <trkpt lat="45.98917" lon="4.7152">
        <ele>186.899993896</ele>
        <time>2015-10-25T09:39:37.991Z</time>
      </trkpt>
      <trkpt lat="45.9892" lon="4.7152">
        <ele>186.300003052</ele>
        <time>2015-10-25T09:39:38.964Z</time>
      </trkpt>
      <trkpt lat="45.98928" lon="4.71521">
        <ele>186.300003052</ele>
        <time>2015-10-25T09:40:00.995Z</time>
      </trkpt>
      <trkpt lat="45.9893" lon="4.71522">
        <ele>186.300003052</ele>
        <time>2015-10-25T09:40:01.965Z</time>
      </trkpt>
      <trkpt lat="45.98936" lon="4.71523">
        <ele>186.399993896</ele>
        <time>2015-10-25T09:40:03.998Z</time>
      </trkpt>
      <trkpt lat="45.98939" lon="4.71523">
        <ele>186.5</ele>
        <time>2015-10-25T09:40:04.968Z</time>
      </trkpt>
      <trkpt lat="45.98947" lon="4.71524">
        <ele>186.399993896</ele>
        <time>2015-10-25T09:40:06.995Z</time>
      </trkpt>
      <trkpt lat="45.98951" lon="4.71524">
        <ele>186.399993896</ele>
        <time>2015-10-25T09:40:07.964Z</time>
      </trkpt>
      <trkpt lat="45.98956" lon="4.71524">
        <ele>186.199996948</ele>
        <time>2015-10-25T09:40:08.991Z</time>
      </trkpt>
      <trkpt lat="45.98961" lon="4.71524">
        <ele>186</ele>
        <time>2015-10-25T09:40:09.971Z</time>
      </trkpt>
      <trkpt lat="45.98965" lon="4.71524">
        <ele>185.800003052</ele>
        <time>2015-10-25T09:40:10.991Z</time>
      </trkpt>
      <trkpt lat="45.9897" lon="4.71523">
        <ele>185.699996948</ele>
        <time>2015-10-25T09:40:11.968Z</time>
      </trkpt>
      <trkpt lat="45.98979" lon="4.71523">
        <ele>186.100006104</ele>
        <time>2015-10-25T09:40:13.991Z</time>
      </trkpt>
      <trkpt lat="45.98983" lon="4.71524">
        <ele>187.300003052</ele>
        <time>2015-10-25T09:40:14.967Z</time>
      </trkpt>
      <trkpt lat="45.98989" lon="4.71524">
        <ele>187.899993896</ele>
        <time>2015-10-25T09:40:16.055Z</time>
      </trkpt>
      <trkpt lat="45.98993" lon="4.71524">
        <ele>188.300003052</ele>
        <time>2015-10-25T09:40:16.965Z</time>
      </trkpt>
      <trkpt lat="45.98998" lon="4.71524">
        <ele>188.5</ele>
        <time>2015-10-25T09:40:18.004Z</time>
      </trkpt>
      <trkpt lat="45.99003" lon="4.71524">
        <ele>188.600006104</ele>
        <time>2015-10-25T09:40:18.968Z</time>
      </trkpt>
      <trkpt lat="45.99012" lon="4.71524">
        <ele>189.199996948</ele>
        <time>2015-10-25T09:40:21.007Z</time>
      </trkpt>
      <trkpt lat="45.99017" lon="4.71525">
        <ele>189.699996948</ele>
        <time>2015-10-25T09:40:21.967Z</time>
      </trkpt>
      <trkpt lat="45.99022" lon="4.71525">
        <ele>190.300003052</ele>
        <time>2015-10-25T09:40:22.992Z</time>
      </trkpt>
      <trkpt lat="45.99026" lon="4.71525">
        <ele>190.199996948</ele>
        <time>2015-10-25T09:40:23.965Z</time>
      </trkpt>
      <trkpt lat="45.99031" lon="4.71525">
        <ele>190.600006104</ele>
        <time>2015-10-25T09:40:24.994Z</time>
      </trkpt>
      <trkpt lat="45.99036" lon="4.71526">
        <ele>190.800003052</ele>
        <time>2015-10-25T09:40:25.968Z</time>
      </trkpt>
      <trkpt lat="45.9904" lon="4.71526">
        <ele>191</ele>
        <time>2015-10-25T09:40:26.995Z</time>
      </trkpt>
      <trkpt lat="45.99045" lon="4.71526">
        <ele>191.5</ele>
        <time>2015-10-25T09:40:27.967Z</time>
      </trkpt>
      <trkpt lat="45.99053" lon="4.71525">
        <ele>192.600006104</ele>
        <time>2015-10-25T09:40:29.995Z</time>
      </trkpt>
      <trkpt lat="45.99057" lon="4.71524">
        <ele>192.899993896</ele>
        <time>2015-10-25T09:40:30.963Z</time>
      </trkpt>
      <trkpt lat="45.99065" lon="4.71523">
        <ele>194.100006104</ele>
        <time>2015-10-25T09:40:32.991Z</time>
      </trkpt>
      <trkpt lat="45.9907" lon="4.71521">
        <ele>195</ele>
        <time>2015-10-25T09:40:34Z</time>
      </trkpt>
      <trkpt lat="45.99076" lon="4.71519">
        <ele>198</ele>
        <time>2015-10-25T09:40:36.013Z</time>
      </trkpt>
      <trkpt lat="45.99081" lon="4.71518">
        <ele>198.899993896</ele>
        <time>2015-10-25T09:40:36.982Z</time>
      </trkpt>
      <trkpt lat="45.99088" lon="4.71518">
        <ele>201.300003052</ele>
        <time>2015-10-25T09:40:38.994Z</time>
      </trkpt>
      <trkpt lat="45.99091" lon="4.71517">
        <ele>203.300003052</ele>
        <time>2015-10-25T09:40:39.967Z</time>
      </trkpt>
      <trkpt lat="45.99098" lon="4.71515">
        <ele>206.600006104</ele>
        <time>2015-10-25T09:40:41.996Z</time>
      </trkpt>
      <trkpt lat="45.99101" lon="4.71514">
        <ele>208.5</ele>
        <time>2015-10-25T09:40:42.963Z</time>
      </trkpt>
      <trkpt lat="45.99109" lon="4.71511">
        <ele>210.800003052</ele>
        <time>2015-10-25T09:40:45.999Z</time>
      </trkpt>
      <trkpt lat="45.9911" lon="4.7151">
        <ele>211.300003052</ele>
        <time>2015-10-25T09:40:46.968Z</time>
      </trkpt>
      <trkpt lat="45.99118" lon="4.71505">
        <ele>213</ele>
        <time>2015-10-25T09:40:51.994Z</time>
      </trkpt>
      <trkpt lat="45.99119" lon="4.71505">
        <ele>213.399993896</ele>
        <time>2015-10-25T09:40:52.962Z</time>
      </trkpt>
      <trkpt lat="45.99127" lon="4.71503">
        <ele>214.600006104</ele>
        <time>2015-10-25T09:40:57.994Z</time>
      </trkpt>
      <trkpt lat="45.9913" lon="4.71503">
        <ele>214.899993896</ele>
        <time>2015-10-25T09:40:58.963Z</time>
      </trkpt>
      <trkpt lat="45.99139" lon="4.71501">
        <ele>215.600006104</ele>
        <time>2015-10-25T09:41:01.991Z</time>
      </trkpt>
      <trkpt lat="45.99142" lon="4.71501">
        <ele>215.800003052</ele>
        <time>2015-10-25T09:41:03.024Z</time>
      </trkpt>
      <trkpt lat="45.9915" lon="4.71508">
        <ele>215.5</ele>
        <time>2015-10-25T09:41:04.998Z</time>
      </trkpt>
      <trkpt lat="45.99154" lon="4.71512">
        <ele>214.199996948</ele>
        <time>2015-10-25T09:41:05.968Z</time>
      </trkpt>
      <trkpt lat="45.99163" lon="4.71513">
        <ele>213.800003052</ele>
        <time>2015-10-25T09:41:07.994Z</time>
      </trkpt>
      <trkpt lat="45.99166" lon="4.71512">
        <ele>213.800003052</ele>
        <time>2015-10-25T09:41:08.994Z</time>
      </trkpt>
      <trkpt lat="45.99174" lon="4.71511">
        <ele>214</ele>
        <time>2015-10-25T09:41:10.99Z</time>
      </trkpt>
      <trkpt lat="45.99178" lon="4.71511">
        <ele>213.899993896</ele>
        <time>2015-10-25T09:41:12.015Z</time>
      </trkpt>
      <trkpt lat="45.99185" lon="4.7151">
        <ele>214.5</ele>
        <time>2015-10-25T09:41:13.99Z</time>
      </trkpt>
      <trkpt lat="45.99189" lon="4.71511">
        <ele>213.800003052</ele>
        <time>2015-10-25T09:41:14.964Z</time>
      </trkpt>
      <trkpt lat="45.99198" lon="4.71511">
        <ele>212.899993896</ele>
        <time>2015-10-25T09:41:16.99Z</time>
      </trkpt>
      <trkpt lat="45.99202" lon="4.7151">
        <ele>213</ele>
        <time>2015-10-25T09:41:17.967Z</time>
      </trkpt>
      <trkpt lat="45.9921" lon="4.7151">
        <ele>212.5</ele>
        <time>2015-10-25T09:41:19.993Z</time>
      </trkpt>
      <trkpt lat="45.99214" lon="4.7151">
        <ele>212.600006104</ele>
        <time>2015-10-25T09:41:20.967Z</time>
      </trkpt>
      <trkpt lat="45.99222" lon="4.7151">
        <ele>213.300003052</ele>
        <time>2015-10-25T09:41:22.992Z</time>
      </trkpt>
      <trkpt lat="45.99226" lon="4.7151">
        <ele>213.399993896</ele>
        <time>2015-10-25T09:41:23.968Z</time>
      </trkpt>
      <trkpt lat="45.99234" lon="4.71511">
        <ele>213.399993896</ele>
        <time>2015-10-25T09:41:25.994Z</time>
      </trkpt>
      <trkpt lat="45.99237" lon="4.71512">
        <ele>213.100006104</ele>
        <time>2015-10-25T09:41:26.993Z</time>
      </trkpt>
      <trkpt lat="45.99246" lon="4.71513">
        <ele>211.5</ele>
        <time>2015-10-25T09:41:29.995Z</time>
      </trkpt>
      <trkpt lat="45.99249" lon="4.71513">
        <ele>210.600006104</ele>
        <time>2015-10-25T09:41:30.967Z</time>
      </trkpt>
      <trkpt lat="45.99258" lon="4.71514">
        <ele>210.300003052</ele>
        <time>2015-10-25T09:41:35.994Z</time>
      </trkpt>
      <trkpt lat="45.99259" lon="4.71514">
        <ele>210.699996948</ele>
        <time>2015-10-25T09:41:36.967Z</time>
      </trkpt>
      <trkpt lat="45.99265" lon="4.71521">
        <ele>207.399993896</ele>
        <time>2015-10-25T09:41:37.996Z</time>
      </trkpt>
      <trkpt lat="45.99268" lon="4.71522">
        <ele>207.5</ele>
        <time>2015-10-25T09:41:38.968Z</time>
      </trkpt>
      <trkpt lat="45.99276" lon="4.71523">
        <ele>205</ele>
        <time>2015-10-25T09:41:40.993Z</time>
      </trkpt>
      <trkpt lat="45.9928" lon="4.71523">
        <ele>205.399993896</ele>
        <time>2015-10-25T09:41:41.968Z</time>
      </trkpt>
      <trkpt lat="45.99289" lon="4.71521">
        <ele>204.199996948</ele>
        <time>2015-10-25T09:41:44.007Z</time>
      </trkpt>
      <trkpt lat="45.99294" lon="4.71521">
        <ele>204.199996948</ele>
        <time>2015-10-25T09:41:44.963Z</time>
      </trkpt>
      <trkpt lat="45.99298" lon="4.7152">
        <ele>204.300003052</ele>
        <time>2015-10-25T09:41:45.993Z</time>
      </trkpt>
      <trkpt lat="45.99303" lon="4.7152">
        <ele>204.300003052</ele>
        <time>2015-10-25T09:41:46.967Z</time>
      </trkpt>
      <trkpt lat="45.99308" lon="4.71521">
        <ele>204.5</ele>
        <time>2015-10-25T09:41:47.991Z</time>
      </trkpt>
      <trkpt lat="45.99312" lon="4.71521">
        <ele>204.800003052</ele>
        <time>2015-10-25T09:41:48.967Z</time>
      </trkpt>
      <trkpt lat="45.99321" lon="4.7152">
        <ele>205.199996948</ele>
        <time>2015-10-25T09:41:50.994Z</time>
      </trkpt>
      <trkpt lat="45.99326" lon="4.71519">
        <ele>205</ele>
        <time>2015-10-25T09:41:51.969Z</time>
      </trkpt>
      <trkpt lat="45.99334" lon="4.71517">
        <ele>204.600006104</ele>
        <time>2015-10-25T09:41:54.015Z</time>
      </trkpt>
      <trkpt lat="45.99338" lon="4.71517">
        <ele>204.800003052</ele>
        <time>2015-10-25T09:41:54.963Z</time>
      </trkpt>
      <trkpt lat="45.99347" lon="4.71516">
        <ele>205.100006104</ele>
        <time>2015-10-25T09:41:56.99Z</time>
      </trkpt>
      <trkpt lat="45.99351" lon="4.71516">
        <ele>205.199996948</ele>
        <time>2015-10-25T09:41:57.97Z</time>
      </trkpt>
      <trkpt lat="45.99357" lon="4.71516">
        <ele>205.199996948</ele>
        <time>2015-10-25T09:41:58.99Z</time>
      </trkpt>
      <trkpt lat="45.99361" lon="4.71515">
        <ele>205.899993896</ele>
        <time>2015-10-25T09:41:59.964Z</time>
      </trkpt>
      <trkpt lat="45.99366" lon="4.71515">
        <ele>206.199996948</ele>
        <time>2015-10-25T09:42:00.991Z</time>
      </trkpt>
      <trkpt lat="45.99371" lon="4.71515">
        <ele>206.899993896</ele>
        <time>2015-10-25T09:42:01.961Z</time>
      </trkpt>
      <trkpt lat="45.99375" lon="4.71516">
        <ele>206.899993896</ele>
        <time>2015-10-25T09:42:03.045Z</time>
      </trkpt>
      <trkpt lat="45.9938" lon="4.71516">
        <ele>207.300003052</ele>
        <time>2015-10-25T09:42:03.968Z</time>
      </trkpt>
      <trkpt lat="45.99389" lon="4.71515">
        <ele>207.600006104</ele>
        <time>2015-10-25T09:42:05.995Z</time>
      </trkpt>
      <trkpt lat="45.99394" lon="4.71515">
        <ele>208</ele>
        <time>2015-10-25T09:42:06.967Z</time>
      </trkpt>
      <trkpt lat="45.99402" lon="4.71515">
        <ele>209</ele>
        <time>2015-10-25T09:42:08.994Z</time>
      </trkpt>
      <trkpt lat="45.99406" lon="4.71515">
        <ele>209.100006104</ele>
        <time>2015-10-25T09:42:09.97Z</time>
      </trkpt>
      <trkpt lat="45.99415" lon="4.71514">
        <ele>209.199996948</ele>
        <time>2015-10-25T09:42:12.004Z</time>
      </trkpt>
      <trkpt lat="45.99419" lon="4.71514">
        <ele>209.5</ele>
        <time>2015-10-25T09:42:12.967Z</time>
      </trkpt>
      <trkpt lat="45.99424" lon="4.71514">
        <ele>209.600006104</ele>
        <time>2015-10-25T09:42:13.993Z</time>
      </trkpt>
      <trkpt lat="45.99429" lon="4.71516">
        <ele>208.100006104</ele>
        <time>2015-10-25T09:42:14.963Z</time>
      </trkpt>
      <trkpt lat="45.99435" lon="4.71517">
        <ele>207.399993896</ele>
        <time>2015-10-25T09:42:15.997Z</time>
      </trkpt>
      <trkpt lat="45.9944" lon="4.71517">
        <ele>206.699996948</ele>
        <time>2015-10-25T09:42:16.967Z</time>
      </trkpt>
      <trkpt lat="45.99445" lon="4.71517">
        <ele>205.5</ele>
        <time>2015-10-25T09:42:17.994Z</time>
      </trkpt>
      <trkpt lat="45.9945" lon="4.71517">
        <ele>205</ele>
        <time>2015-10-25T09:42:18.967Z</time>
      </trkpt>
      <trkpt lat="45.99455" lon="4.71517">
        <ele>204.5</ele>
        <time>2015-10-25T09:42:20.029Z</time>
      </trkpt>
      <trkpt lat="45.9946" lon="4.71517">
        <ele>203.899993896</ele>
        <time>2015-10-25T09:42:20.963Z</time>
      </trkpt>
      <trkpt lat="45.99465" lon="4.71517">
        <ele>203.199996948</ele>
        <time>2015-10-25T09:42:22.011Z</time>
      </trkpt>
      <trkpt lat="45.9947" lon="4.71517">
        <ele>203.600006104</ele>
        <time>2015-10-25T09:42:22.986Z</time>
      </trkpt>
      <trkpt lat="45.99475" lon="4.71517">
        <ele>203.399993896</ele>
        <time>2015-10-25T09:42:23.995Z</time>
      </trkpt>
      <trkpt lat="45.9948" lon="4.71516">
        <ele>203.100006104</ele>
        <time>2015-10-25T09:42:24.967Z</time>
      </trkpt>
      <trkpt lat="45.99486" lon="4.71516">
        <ele>202.899993896</ele>
        <time>2015-10-25T09:42:25.994Z</time>
      </trkpt>
      <trkpt lat="45.99491" lon="4.71516">
        <ele>203.399993896</ele>
        <time>2015-10-25T09:42:26.982Z</time>
      </trkpt>
      <trkpt lat="45.99496" lon="4.71515">
        <ele>203</ele>
        <time>2015-10-25T09:42:28.003Z</time>
      </trkpt>
      <trkpt lat="45.99501" lon="4.71515">
        <ele>203.100006104</ele>
        <time>2015-10-25T09:42:28.966Z</time>
      </trkpt>
      <trkpt lat="45.9951" lon="4.71515">
        <ele>203.600006104</ele>
        <time>2015-10-25T09:42:30.997Z</time>
      </trkpt>
      <trkpt lat="45.99514" lon="4.71515">
        <ele>204</ele>
        <time>2015-10-25T09:42:31.968Z</time>
      </trkpt>
      <trkpt lat="45.99522" lon="4.71514">
        <ele>204.600006104</ele>
        <time>2015-10-25T09:42:33.996Z</time>
      </trkpt>
      <trkpt lat="45.99527" lon="4.71514">
        <ele>204.699996948</ele>
        <time>2015-10-25T09:42:34.967Z</time>
      </trkpt>
      <trkpt lat="45.99531" lon="4.71513">
        <ele>204.300003052</ele>
        <time>2015-10-25T09:42:35.999Z</time>
      </trkpt>
      <trkpt lat="45.99536" lon="4.71513">
        <ele>204.100006104</ele>
        <time>2015-10-25T09:42:37.003Z</time>
      </trkpt>
      <trkpt lat="45.99542" lon="4.71513">
        <ele>204.300003052</ele>
        <time>2015-10-25T09:42:37.991Z</time>
      </trkpt>
      <trkpt lat="45.99547" lon="4.71513">
        <ele>204.899993896</ele>
        <time>2015-10-25T09:42:38.963Z</time>
      </trkpt>
      <trkpt lat="45.99553" lon="4.71513">
        <ele>204.399993896</ele>
        <time>2015-10-25T09:42:39.994Z</time>
      </trkpt>
      <trkpt lat="45.99558" lon="4.71513">
        <ele>204.399993896</ele>
        <time>2015-10-25T09:42:40.967Z</time>
      </trkpt>
      <trkpt lat="45.99564" lon="4.71512">
        <ele>204.5</ele>
        <time>2015-10-25T09:42:41.991Z</time>
      </trkpt>
      <trkpt lat="45.99569" lon="4.71512">
        <ele>204.600006104</ele>
        <time>2015-10-25T09:42:42.965Z</time>
      </trkpt>
      <trkpt lat="45.99574" lon="4.71513">
        <ele>204.600006104</ele>
        <time>2015-10-25T09:42:43.993Z</time>
      </trkpt>
      <trkpt lat="45.99579" lon="4.71514">
        <ele>204.100006104</ele>
        <time>2015-10-25T09:42:44.964Z</time>
      </trkpt>
      <trkpt lat="45.99585" lon="4.71522">
        <ele>203.699996948</ele>
        <time>2015-10-25T09:42:47.004Z</time>
      </trkpt>
      <trkpt lat="45.99587" lon="4.71528">
        <ele>203.100006104</ele>
        <time>2015-10-25T09:42:47.964Z</time>
      </trkpt>
      <trkpt lat="45.99593" lon="4.71537">
        <ele>203.600006104</ele>
        <time>2015-10-25T09:42:49.99Z</time>
      </trkpt>
      <trkpt lat="45.99597" lon="4.7154">
        <ele>203.5</ele>
        <time>2015-10-25T09:42:50.964Z</time>
      </trkpt>
      <trkpt lat="45.99602" lon="4.7154">
        <ele>204.100006104</ele>
        <time>2015-10-25T09:42:51.998Z</time>
      </trkpt>
      <trkpt lat="45.99606" lon="4.71538">
        <ele>204.800003052</ele>
        <time>2015-10-25T09:42:52.98Z</time>
      </trkpt>
      <trkpt lat="45.9961" lon="4.71534">
        <ele>204.600006104</ele>
        <time>2015-10-25T09:42:53.995Z</time>
      </trkpt>
      <trkpt lat="45.99613" lon="4.71527">
        <ele>204.600006104</ele>
        <time>2015-10-25T09:42:54.963Z</time>
      </trkpt>
      <trkpt lat="45.99614" lon="4.7152">
        <ele>204.800003052</ele>
        <time>2015-10-25T09:42:55.997Z</time>
      </trkpt>
      <trkpt lat="45.99614" lon="4.71512">
        <ele>204.699996948</ele>
        <time>2015-10-25T09:42:56.963Z</time>
      </trkpt>
      <trkpt lat="45.99613" lon="4.71504">
        <ele>204</ele>
        <time>2015-10-25T09:42:57.997Z</time>
      </trkpt>
      <trkpt lat="45.99613" lon="4.71495">
        <ele>203.800003052</ele>
        <time>2015-10-25T09:42:58.963Z</time>
      </trkpt>
      <trkpt lat="45.99613" lon="4.71488">
        <ele>203.800003052</ele>
        <time>2015-10-25T09:42:59.994Z</time>
      </trkpt>
      <trkpt lat="45.99614" lon="4.71481">
        <ele>203.600006104</ele>
        <time>2015-10-25T09:43:00.963Z</time>
      </trkpt>
      <trkpt lat="45.99616" lon="4.71474">
        <ele>203.600006104</ele>
        <time>2015-10-25T09:43:01.99Z</time>
      </trkpt>
      <trkpt lat="45.9962" lon="4.71467">
        <ele>203.600006104</ele>
        <time>2015-10-25T09:43:02.963Z</time>
      </trkpt>
      <trkpt lat="45.99623" lon="4.7146">
        <ele>203.699996948</ele>
        <time>2015-10-25T09:43:03.994Z</time>
      </trkpt>
      <trkpt lat="45.99627" lon="4.71453">
        <ele>203.699996948</ele>
        <time>2015-10-25T09:43:04.963Z</time>
      </trkpt>
      <trkpt lat="45.9963" lon="4.71446">
        <ele>203.699996948</ele>
        <time>2015-10-25T09:43:06.054Z</time>
      </trkpt>
      <trkpt lat="45.99634" lon="4.7144">
        <ele>203.600006104</ele>
        <time>2015-10-25T09:43:06.967Z</time>
      </trkpt>
      <trkpt lat="45.99637" lon="4.71433">
        <ele>203.300003052</ele>
        <time>2015-10-25T09:43:07.99Z</time>
      </trkpt>
      <trkpt lat="45.99641" lon="4.71426">
        <ele>203.399993896</ele>
        <time>2015-10-25T09:43:08.967Z</time>
      </trkpt>
      <trkpt lat="45.99644" lon="4.71419">
        <ele>203.199996948</ele>
        <time>2015-10-25T09:43:09.993Z</time>
      </trkpt>
      <trkpt lat="45.99648" lon="4.71413">
        <ele>202.899993896</ele>
        <time>2015-10-25T09:43:10.963Z</time>
      </trkpt>
      <trkpt lat="45.99652" lon="4.71406">
        <ele>202.899993896</ele>
        <time>2015-10-25T09:43:11.995Z</time>
      </trkpt>
      <trkpt lat="45.99656" lon="4.71399">
        <ele>202.699996948</ele>
        <time>2015-10-25T09:43:12.957Z</time>
      </trkpt>
      <trkpt lat="45.99659" lon="4.71393">
        <ele>202.399993896</ele>
        <time>2015-10-25T09:43:14.006Z</time>
      </trkpt>
      <trkpt lat="45.99663" lon="4.71386">
        <ele>202.5</ele>
        <time>2015-10-25T09:43:14.963Z</time>
      </trkpt>
      <trkpt lat="45.99667" lon="4.71379">
        <ele>202.199996948</ele>
        <time>2015-10-25T09:43:15.993Z</time>
      </trkpt>
      <trkpt lat="45.9967" lon="4.71373">
        <ele>201.899993896</ele>
        <time>2015-10-25T09:43:16.963Z</time>
      </trkpt>
      <trkpt lat="45.99673" lon="4.71366">
        <ele>201.899993896</ele>
        <time>2015-10-25T09:43:17.991Z</time>
      </trkpt>
      <trkpt lat="45.99677" lon="4.71359">
        <ele>202</ele>
        <time>2015-10-25T09:43:19.005Z</time>
      </trkpt>
      <trkpt lat="45.9968" lon="4.71352">
        <ele>202.300003052</ele>
        <time>2015-10-25T09:43:19.99Z</time>
      </trkpt>
      <trkpt lat="45.99684" lon="4.71344">
        <ele>202.199996948</ele>
        <time>2015-10-25T09:43:20.963Z</time>
      </trkpt>
      <trkpt lat="45.99687" lon="4.71337">
        <ele>202.600006104</ele>
        <time>2015-10-25T09:43:21.996Z</time>
      </trkpt>
      <trkpt lat="45.99691" lon="4.7133">
        <ele>202.699996948</ele>
        <time>2015-10-25T09:43:22.963Z</time>
      </trkpt>
      <trkpt lat="45.99694" lon="4.71323">
        <ele>203.100006104</ele>
        <time>2015-10-25T09:43:23.99Z</time>
      </trkpt>
      <trkpt lat="45.99698" lon="4.71316">
        <ele>203.100006104</ele>
        <time>2015-10-25T09:43:24.963Z</time>
      </trkpt>
      <trkpt lat="45.99701" lon="4.7131">
        <ele>203.199996948</ele>
        <time>2015-10-25T09:43:25.993Z</time>
      </trkpt>
      <trkpt lat="45.99704" lon="4.71302">
        <ele>202.899993896</ele>
        <time>2015-10-25T09:43:26.963Z</time>
      </trkpt>
      <trkpt lat="45.99708" lon="4.71295">
        <ele>202.899993896</ele>
        <time>2015-10-25T09:43:27.994Z</time>
      </trkpt>
      <trkpt lat="45.99712" lon="4.71288">
        <ele>202.800003052</ele>
        <time>2015-10-25T09:43:28.962Z</time>
      </trkpt>
      <trkpt lat="45.99715" lon="4.7128">
        <ele>202.699996948</ele>
        <time>2015-10-25T09:43:29.991Z</time>
      </trkpt>
      <trkpt lat="45.99718" lon="4.71273">
        <ele>202.5</ele>
        <time>2015-10-25T09:43:31Z</time>
      </trkpt>
      <trkpt lat="45.99721" lon="4.71266">
        <ele>202.100006104</ele>
        <time>2015-10-25T09:43:31.991Z</time>
      </trkpt>
      <trkpt lat="45.99725" lon="4.71259">
        <ele>201.899993896</ele>
        <time>2015-10-25T09:43:32.962Z</time>
      </trkpt>
      <trkpt lat="45.99729" lon="4.71252">
        <ele>201.899993896</ele>
        <time>2015-10-25T09:43:33.993Z</time>
      </trkpt>
      <trkpt lat="45.99732" lon="4.71245">
        <ele>201.5</ele>
        <time>2015-10-25T09:43:34.979Z</time>
      </trkpt>
      <trkpt lat="45.99736" lon="4.71237">
        <ele>201</ele>
        <time>2015-10-25T09:43:35.99Z</time>
      </trkpt>
      <trkpt lat="45.9974" lon="4.7123">
        <ele>200.800003052</ele>
        <time>2015-10-25T09:43:36.963Z</time>
      </trkpt>
      <trkpt lat="45.99744" lon="4.71223">
        <ele>200.600006104</ele>
        <time>2015-10-25T09:43:37.99Z</time>
      </trkpt>
      <trkpt lat="45.99748" lon="4.71216">
        <ele>200.5</ele>
        <time>2015-10-25T09:43:38.964Z</time>
      </trkpt>
      <trkpt lat="45.99752" lon="4.71208">
        <ele>200.300003052</ele>
        <time>2015-10-25T09:43:39.993Z</time>
      </trkpt>
      <trkpt lat="45.99756" lon="4.712">
        <ele>200.300003052</ele>
        <time>2015-10-25T09:43:40.962Z</time>
      </trkpt>
      <trkpt lat="45.9976" lon="4.71193">
        <ele>200.300003052</ele>
        <time>2015-10-25T09:43:42.074Z</time>
      </trkpt>
      <trkpt lat="45.99763" lon="4.71185">
        <ele>200.5</ele>
        <time>2015-10-25T09:43:42.967Z</time>
      </trkpt>
      <trkpt lat="45.99767" lon="4.71178">
        <ele>200.300003052</ele>
        <time>2015-10-25T09:43:43.989Z</time>
      </trkpt>
      <trkpt lat="45.99771" lon="4.7117">
        <ele>200.100006104</ele>
        <time>2015-10-25T09:43:44.963Z</time>
      </trkpt>
      <trkpt lat="45.99775" lon="4.71164">
        <ele>199.800003052</ele>
        <time>2015-10-25T09:43:45.993Z</time>
      </trkpt>
      <trkpt lat="45.99778" lon="4.71157">
        <ele>199.600006104</ele>
        <time>2015-10-25T09:43:46.969Z</time>
      </trkpt>
      <trkpt lat="45.99782" lon="4.7115">
        <ele>199.300003052</ele>
        <time>2015-10-25T09:43:47.993Z</time>
      </trkpt>
      <trkpt lat="45.99786" lon="4.71144">
        <ele>199</ele>
        <time>2015-10-25T09:43:49.008Z</time>
      </trkpt>
      <trkpt lat="45.9979" lon="4.71136">
        <ele>199</ele>
        <time>2015-10-25T09:43:49.99Z</time>
      </trkpt>
      <trkpt lat="45.99793" lon="4.71129">
        <ele>198.899993896</ele>
        <time>2015-10-25T09:43:50.995Z</time>
      </trkpt>
      <trkpt lat="45.99795" lon="4.71121">
        <ele>198.699996948</ele>
        <time>2015-10-25T09:43:51.996Z</time>
      </trkpt>
      <trkpt lat="45.99797" lon="4.71113">
        <ele>198.800003052</ele>
        <time>2015-10-25T09:43:52.966Z</time>
      </trkpt>
      <trkpt lat="45.99799" lon="4.71105">
        <ele>198.699996948</ele>
        <time>2015-10-25T09:43:53.99Z</time>
      </trkpt>
      <trkpt lat="45.998" lon="4.71096">
        <ele>198.800003052</ele>
        <time>2015-10-25T09:43:54.962Z</time>
      </trkpt>
      <trkpt lat="45.99802" lon="4.71088">
        <ele>198.899993896</ele>
        <time>2015-10-25T09:43:56.006Z</time>
      </trkpt>
      <trkpt lat="45.99803" lon="4.71081">
        <ele>199</ele>
        <time>2015-10-25T09:43:56.962Z</time>
      </trkpt>
      <trkpt lat="45.99805" lon="4.71073">
        <ele>199.300003052</ele>
        <time>2015-10-25T09:43:57.993Z</time>
      </trkpt>
      <trkpt lat="45.99806" lon="4.71064">
        <ele>199.199996948</ele>
        <time>2015-10-25T09:43:58.963Z</time>
      </trkpt>
      <trkpt lat="45.99806" lon="4.71057">
        <ele>200.300003052</ele>
        <time>2015-10-25T09:44:00.055Z</time>
      </trkpt>
      <trkpt lat="45.99808" lon="4.7105">
        <ele>200.899993896</ele>
        <time>2015-10-25T09:44:00.966Z</time>
      </trkpt>
      <trkpt lat="45.99808" lon="4.71043">
        <ele>201.199996948</ele>
        <time>2015-10-25T09:44:02.034Z</time>
      </trkpt>
      <trkpt lat="45.99809" lon="4.71035">
        <ele>201.5</ele>
        <time>2015-10-25T09:44:02.963Z</time>
      </trkpt>
      <trkpt lat="45.9981" lon="4.71027">
        <ele>201.600006104</ele>
        <time>2015-10-25T09:44:03.993Z</time>
      </trkpt>
      <trkpt lat="45.99812" lon="4.7102">
        <ele>202.100006104</ele>
        <time>2015-10-25T09:44:04.966Z</time>
      </trkpt>
      <trkpt lat="45.99814" lon="4.71013">
        <ele>202.300003052</ele>
        <time>2015-10-25T09:44:05.993Z</time>
      </trkpt>
      <trkpt lat="45.99815" lon="4.71005">
        <ele>202.800003052</ele>
        <time>2015-10-25T09:44:06.963Z</time>
      </trkpt>
      <trkpt lat="45.99817" lon="4.70997">
        <ele>203</ele>
        <time>2015-10-25T09:44:07.99Z</time>
      </trkpt>
      <trkpt lat="45.99818" lon="4.70989">
        <ele>203.300003052</ele>
        <time>2015-10-25T09:44:08.966Z</time>
      </trkpt>
      <trkpt lat="45.9982" lon="4.70981">
        <ele>203.100006104</ele>
        <time>2015-10-25T09:44:09.997Z</time>
      </trkpt>
      <trkpt lat="45.99821" lon="4.70972">
        <ele>202.699996948</ele>
        <time>2015-10-25T09:44:10.966Z</time>
      </trkpt>
      <trkpt lat="45.99823" lon="4.70964">
        <ele>202.899993896</ele>
        <time>2015-10-25T09:44:12.008Z</time>
      </trkpt>
      <trkpt lat="45.99824" lon="4.70956">
        <ele>203.100006104</ele>
        <time>2015-10-25T09:44:12.966Z</time>
      </trkpt>
      <trkpt lat="45.99826" lon="4.70947">
        <ele>203.100006104</ele>
        <time>2015-10-25T09:44:13.992Z</time>
      </trkpt>
      <trkpt lat="45.99827" lon="4.70939">
        <ele>203</ele>
        <time>2015-10-25T09:44:14.962Z</time>
      </trkpt>
      <trkpt lat="45.99828" lon="4.70932">
        <ele>203.100006104</ele>
        <time>2015-10-25T09:44:15.997Z</time>
      </trkpt>
      <trkpt lat="45.9983" lon="4.70923">
        <ele>203.100006104</ele>
        <time>2015-10-25T09:44:16.964Z</time>
      </trkpt>
      <trkpt lat="45.99831" lon="4.70915">
        <ele>203.199996948</ele>
        <time>2015-10-25T09:44:18.015Z</time>
      </trkpt>
      <trkpt lat="45.99832" lon="4.70907">
        <ele>203.5</ele>
        <time>2015-10-25T09:44:18.966Z</time>
      </trkpt>
      <trkpt lat="45.99834" lon="4.70899">
        <ele>203.600006104</ele>
        <time>2015-10-25T09:44:19.989Z</time>
      </trkpt>
      <trkpt lat="45.99835" lon="4.7089">
        <ele>203.600006104</ele>
        <time>2015-10-25T09:44:20.966Z</time>
      </trkpt>
      <trkpt lat="45.99837" lon="4.70882">
        <ele>203.800003052</ele>
        <time>2015-10-25T09:44:21.993Z</time>
      </trkpt>
      <trkpt lat="45.99839" lon="4.70873">
        <ele>203.800003052</ele>
        <time>2015-10-25T09:44:22.963Z</time>
      </trkpt>
      <trkpt lat="45.99841" lon="4.70865">
        <ele>203.899993896</ele>
        <time>2015-10-25T09:44:23.994Z</time>
      </trkpt>
      <trkpt lat="45.99842" lon="4.70856">
        <ele>204.199996948</ele>
        <time>2015-10-25T09:44:24.962Z</time>
      </trkpt>
      <trkpt lat="45.99844" lon="4.70848">
        <ele>204.199996948</ele>
        <time>2015-10-25T09:44:25.99Z</time>
      </trkpt>
      <trkpt lat="45.99846" lon="4.7084">
        <ele>204.399993896</ele>
        <time>2015-10-25T09:44:26.962Z</time>
      </trkpt>
      <trkpt lat="45.99847" lon="4.70833">
        <ele>204.600006104</ele>
        <time>2015-10-25T09:44:28.007Z</time>
      </trkpt>
      <trkpt lat="45.99849" lon="4.70824">
        <ele>204.899993896</ele>
        <time>2015-10-25T09:44:28.962Z</time>
      </trkpt>
      <trkpt lat="45.99851" lon="4.70815">
        <ele>205</ele>
        <time>2015-10-25T09:44:29.99Z</time>
      </trkpt>
      <trkpt lat="45.99853" lon="4.70807">
        <ele>204.5</ele>
        <time>2015-10-25T09:44:30.966Z</time>
      </trkpt>
      <trkpt lat="45.99855" lon="4.70798">
        <ele>204.199996948</ele>
        <time>2015-10-25T09:44:31.989Z</time>
      </trkpt>
      <trkpt lat="45.99856" lon="4.70789">
        <ele>203.800003052</ele>
        <time>2015-10-25T09:44:32.966Z</time>
      </trkpt>
      <trkpt lat="45.99858" lon="4.70781">
        <ele>203.300003052</ele>
        <time>2015-10-25T09:44:33.996Z</time>
      </trkpt>
      <trkpt lat="45.99859" lon="4.70772">
        <ele>203.199996948</ele>
        <time>2015-10-25T09:44:34.965Z</time>
      </trkpt>
      <trkpt lat="45.99861" lon="4.70764">
        <ele>203</ele>
        <time>2015-10-25T09:44:36.024Z</time>
      </trkpt>
      <trkpt lat="45.99862" lon="4.70757">
        <ele>202.899993896</ele>
        <time>2015-10-25T09:44:36.966Z</time>
      </trkpt>
      <trkpt lat="45.99864" lon="4.70749">
        <ele>203.399993896</ele>
        <time>2015-10-25T09:44:37.993Z</time>
      </trkpt>
      <trkpt lat="45.99865" lon="4.70742">
        <ele>203.399993896</ele>
        <time>2015-10-25T09:44:38.966Z</time>
      </trkpt>
      <trkpt lat="45.99866" lon="4.70735">
        <ele>203.5</ele>
        <time>2015-10-25T09:44:39.999Z</time>
      </trkpt>
      <trkpt lat="45.99868" lon="4.70728">
        <ele>203.699996948</ele>
        <time>2015-10-25T09:44:40.967Z</time>
      </trkpt>
      <trkpt lat="45.99869" lon="4.70721">
        <ele>204.100006104</ele>
        <time>2015-10-25T09:44:41.993Z</time>
      </trkpt>
      <trkpt lat="45.99871" lon="4.70715">
        <ele>204.300003052</ele>
        <time>2015-10-25T09:44:42.962Z</time>
      </trkpt>
      <trkpt lat="45.99872" lon="4.70708">
        <ele>204.800003052</ele>
        <time>2015-10-25T09:44:44.007Z</time>
      </trkpt>
      <trkpt lat="45.99873" lon="4.70701">
        <ele>205</ele>
        <time>2015-10-25T09:44:44.966Z</time>
      </trkpt>
      <trkpt lat="45.99874" lon="4.70694">
        <ele>205.199996948</ele>
        <time>2015-10-25T09:44:45.996Z</time>
      </trkpt>
      <trkpt lat="45.99875" lon="4.70687">
        <ele>205.399993896</ele>
        <time>2015-10-25T09:44:46.966Z</time>
      </trkpt>
      <trkpt lat="45.99877" lon="4.70681">
        <ele>205.600006104</ele>
        <time>2015-10-25T09:44:47.993Z</time>
      </trkpt>
      <trkpt lat="45.99878" lon="4.70674">
        <ele>205.699996948</ele>
        <time>2015-10-25T09:44:48.966Z</time>
      </trkpt>
      <trkpt lat="45.99881" lon="4.70668">
        <ele>205.699996948</ele>
        <time>2015-10-25T09:44:50.024Z</time>
      </trkpt>
      <trkpt lat="45.99885" lon="4.70663">
        <ele>205.600006104</ele>
        <time>2015-10-25T09:44:50.966Z</time>
      </trkpt>
      <trkpt lat="45.99889" lon="4.70659">
        <ele>205.600006104</ele>
        <time>2015-10-25T09:44:51.993Z</time>
      </trkpt>
      <trkpt lat="45.99894" lon="4.70657">
        <ele>205.5</ele>
        <time>2015-10-25T09:44:52.962Z</time>
      </trkpt>
      <trkpt lat="45.99899" lon="4.70655">
        <ele>205.5</ele>
        <time>2015-10-25T09:44:53.991Z</time>
      </trkpt>
      <trkpt lat="45.99905" lon="4.70653">
        <ele>205.5</ele>
        <time>2015-10-25T09:44:54.963Z</time>
      </trkpt>
      <trkpt lat="45.99911" lon="4.70652">
        <ele>205.600006104</ele>
        <time>2015-10-25T09:44:55.99Z</time>
      </trkpt>
      <trkpt lat="45.99917" lon="4.70651">
        <ele>205.800003052</ele>
        <time>2015-10-25T09:44:56.967Z</time>
      </trkpt>
      <trkpt lat="45.99922" lon="4.70649">
        <ele>205.899993896</ele>
        <time>2015-10-25T09:44:57.997Z</time>
      </trkpt>
      <trkpt lat="45.99928" lon="4.70647">
        <ele>205.800003052</ele>
        <time>2015-10-25T09:44:58.963Z</time>
      </trkpt>
      <trkpt lat="45.99934" lon="4.70646">
        <ele>205.800003052</ele>
        <time>2015-10-25T09:45:00.09Z</time>
      </trkpt>
      <trkpt lat="45.9994" lon="4.70644">
        <ele>205.5</ele>
        <time>2015-10-25T09:45:00.966Z</time>
      </trkpt>
      <trkpt lat="45.99947" lon="4.70642">
        <ele>205.199996948</ele>
        <time>2015-10-25T09:45:01.989Z</time>
      </trkpt>
      <trkpt lat="45.99952" lon="4.70641">
        <ele>205.199996948</ele>
        <time>2015-10-25T09:45:02.985Z</time>
      </trkpt>
      <trkpt lat="45.99958" lon="4.7064">
        <ele>205.100006104</ele>
        <time>2015-10-25T09:45:03.993Z</time>
      </trkpt>
      <trkpt lat="45.99964" lon="4.70638">
        <ele>204.5</ele>
        <time>2015-10-25T09:45:04.966Z</time>
      </trkpt>
      <trkpt lat="45.9997" lon="4.70637">
        <ele>204.399993896</ele>
        <time>2015-10-25T09:45:05.992Z</time>
      </trkpt>
      <trkpt lat="45.99977" lon="4.70635">
        <ele>205</ele>
        <time>2015-10-25T09:45:06.962Z</time>
      </trkpt>
      <trkpt lat="45.99983" lon="4.70633">
        <ele>205.100006104</ele>
        <time>2015-10-25T09:45:07.989Z</time>
      </trkpt>
      <trkpt lat="45.99988" lon="4.70632">
        <ele>204.899993896</ele>
        <time>2015-10-25T09:45:08.962Z</time>
      </trkpt>
      <trkpt lat="45.99994" lon="4.7063">
        <ele>204.600006104</ele>
        <time>2015-10-25T09:45:09.993Z</time>
      </trkpt>
      <trkpt lat="45.99999" lon="4.70629">
        <ele>204.399993896</ele>
        <time>2015-10-25T09:45:10.962Z</time>
      </trkpt>
      <trkpt lat="46.00005" lon="4.70627">
        <ele>203.899993896</ele>
        <time>2015-10-25T09:45:12.074Z</time>
      </trkpt>
      <trkpt lat="46.00012" lon="4.70625">
        <ele>203.899993896</ele>
        <time>2015-10-25T09:45:12.962Z</time>
      </trkpt>
      <trkpt lat="46.00018" lon="4.70623">
        <ele>203</ele>
        <time>2015-10-25T09:45:13.989Z</time>
      </trkpt>
      <trkpt lat="46.00025" lon="4.70622">
        <ele>202.199996948</ele>
        <time>2015-10-25T09:45:14.963Z</time>
      </trkpt>
      <trkpt lat="46.0003" lon="4.7062">
        <ele>201.800003052</ele>
        <time>2015-10-25T09:45:16.007Z</time>
      </trkpt>
      <trkpt lat="46.00036" lon="4.70618">
        <ele>200.5</ele>
        <time>2015-10-25T09:45:16.962Z</time>
      </trkpt>
      <trkpt lat="46.00042" lon="4.70617">
        <ele>200.399993896</ele>
        <time>2015-10-25T09:45:18.025Z</time>
      </trkpt>
      <trkpt lat="46.00048" lon="4.70616">
        <ele>200.100006104</ele>
        <time>2015-10-25T09:45:18.962Z</time>
      </trkpt>
      <trkpt lat="46.00054" lon="4.70614">
        <ele>199.699996948</ele>
        <time>2015-10-25T09:45:19.99Z</time>
      </trkpt>
      <trkpt lat="46.0006" lon="4.70613">
        <ele>199.5</ele>
        <time>2015-10-25T09:45:20.962Z</time>
      </trkpt>
      <trkpt lat="46.00065" lon="4.70611">
        <ele>199.199996948</ele>
        <time>2015-10-25T09:45:21.997Z</time>
      </trkpt>
      <trkpt lat="46.00071" lon="4.7061">
        <ele>199.399993896</ele>
        <time>2015-10-25T09:45:22.963Z</time>
      </trkpt>
      <trkpt lat="46.00076" lon="4.70608">
        <ele>199.300003052</ele>
        <time>2015-10-25T09:45:23.994Z</time>
      </trkpt>
      <trkpt lat="46.00081" lon="4.70605">
        <ele>199.199996948</ele>
        <time>2015-10-25T09:45:24.966Z</time>
      </trkpt>
      <trkpt lat="46.00086" lon="4.70602">
        <ele>199.300003052</ele>
        <time>2015-10-25T09:45:25.993Z</time>
      </trkpt>
      <trkpt lat="46.00091" lon="4.70599">
        <ele>198.899993896</ele>
        <time>2015-10-25T09:45:26.966Z</time>
      </trkpt>
      <trkpt lat="46.00096" lon="4.70596">
        <ele>198.5</ele>
        <time>2015-10-25T09:45:27.996Z</time>
      </trkpt>
      <trkpt lat="46.00101" lon="4.70593">
        <ele>198.5</ele>
        <time>2015-10-25T09:45:28.966Z</time>
      </trkpt>
      <trkpt lat="46.00106" lon="4.70589">
        <ele>197.899993896</ele>
        <time>2015-10-25T09:45:30.024Z</time>
      </trkpt>
      <trkpt lat="46.00112" lon="4.70585">
        <ele>197.5</ele>
        <time>2015-10-25T09:45:30.963Z</time>
      </trkpt>
      <trkpt lat="46.00117" lon="4.70582">
        <ele>197.399993896</ele>
        <time>2015-10-25T09:45:32.01Z</time>
      </trkpt>
      <trkpt lat="46.00122" lon="4.70578">
        <ele>197.5</ele>
        <time>2015-10-25T09:45:32.967Z</time>
      </trkpt>
      <trkpt lat="46.00127" lon="4.70574">
        <ele>197.399993896</ele>
        <time>2015-10-25T09:45:33.997Z</time>
      </trkpt>
      <trkpt lat="46.00131" lon="4.7057">
        <ele>197.5</ele>
        <time>2015-10-25T09:45:35.03Z</time>
      </trkpt>
      <trkpt lat="46.00136" lon="4.70566">
        <ele>198</ele>
        <time>2015-10-25T09:45:36.026Z</time>
      </trkpt>
      <trkpt lat="46.00141" lon="4.70563">
        <ele>198.300003052</ele>
        <time>2015-10-25T09:45:36.962Z</time>
      </trkpt>
      <trkpt lat="46.00145" lon="4.70562">
        <ele>198.399993896</ele>
        <time>2015-10-25T09:45:37.99Z</time>
      </trkpt>
      <trkpt lat="46.0015" lon="4.70562">
        <ele>198.399993896</ele>
        <time>2015-10-25T09:45:38.966Z</time>
      </trkpt>
      <trkpt lat="46.00155" lon="4.7056">
        <ele>198.199996948</ele>
        <time>2015-10-25T09:45:39.993Z</time>
      </trkpt>
      <trkpt lat="46.00159" lon="4.70557">
        <ele>198.100006104</ele>
        <time>2015-10-25T09:45:40.962Z</time>
      </trkpt>
      <trkpt lat="46.00164" lon="4.70554">
        <ele>198.100006104</ele>
        <time>2015-10-25T09:45:41.993Z</time>
      </trkpt>
      <trkpt lat="46.00168" lon="4.7055">
        <ele>197.5</ele>
        <time>2015-10-25T09:45:42.963Z</time>
      </trkpt>
      <trkpt lat="46.00173" lon="4.70546">
        <ele>197.600006104</ele>
        <time>2015-10-25T09:45:43.993Z</time>
      </trkpt>
      <trkpt lat="46.00178" lon="4.70544">
        <ele>197.399993896</ele>
        <time>2015-10-25T09:45:44.966Z</time>
      </trkpt>
      <trkpt lat="46.00184" lon="4.70543">
        <ele>197.5</ele>
        <time>2015-10-25T09:45:45.997Z</time>
      </trkpt>
      <trkpt lat="46.00189" lon="4.70543">
        <ele>197.300003052</ele>
        <time>2015-10-25T09:45:46.965Z</time>
      </trkpt>
      <trkpt lat="46.00195" lon="4.70543">
        <ele>197.300003052</ele>
        <time>2015-10-25T09:45:48.009Z</time>
      </trkpt>
      <trkpt lat="46.00201" lon="4.70542">
        <ele>197.100006104</ele>
        <time>2015-10-25T09:45:48.962Z</time>
      </trkpt>
      <trkpt lat="46.00206" lon="4.70541">
        <ele>196.699996948</ele>
        <time>2015-10-25T09:45:49.993Z</time>
      </trkpt>
      <trkpt lat="46.00212" lon="4.70539">
        <ele>196.600006104</ele>
        <time>2015-10-25T09:45:50.963Z</time>
      </trkpt>
      <trkpt lat="46.00218" lon="4.70538">
        <ele>196.5</ele>
        <time>2015-10-25T09:45:51.992Z</time>
      </trkpt>
      <trkpt lat="46.00224" lon="4.70536">
        <ele>196.699996948</ele>
        <time>2015-10-25T09:45:52.962Z</time>
      </trkpt>
      <trkpt lat="46.00229" lon="4.70534">
        <ele>196.699996948</ele>
        <time>2015-10-25T09:45:54.025Z</time>
      </trkpt>
      <trkpt lat="46.00235" lon="4.70532">
        <ele>196.699996948</ele>
        <time>2015-10-25T09:45:54.963Z</time>
      </trkpt>
      <trkpt lat="46.00241" lon="4.7053">
        <ele>196.800003052</ele>
        <time>2015-10-25T09:45:55.989Z</time>
      </trkpt>
      <trkpt lat="46.00246" lon="4.70529">
        <ele>196.899993896</ele>
        <time>2015-10-25T09:45:56.962Z</time>
      </trkpt>
      <trkpt lat="46.00252" lon="4.70527">
        <ele>197.300003052</ele>
        <time>2015-10-25T09:45:57.995Z</time>
      </trkpt>
      <trkpt lat="46.00258" lon="4.70526">
        <ele>197.399993896</ele>
        <time>2015-10-25T09:45:58.962Z</time>
      </trkpt>
      <trkpt lat="46.00263" lon="4.70525">
        <ele>197.399993896</ele>
        <time>2015-10-25T09:46:00.107Z</time>
      </trkpt>
      <trkpt lat="46.00269" lon="4.70524">
        <ele>197.300003052</ele>
        <time>2015-10-25T09:46:00.966Z</time>
      </trkpt>
      <trkpt lat="46.00274" lon="4.70522">
        <ele>196.800003052</ele>
        <time>2015-10-25T09:46:01.99Z</time>
      </trkpt>
      <trkpt lat="46.00279" lon="4.70521">
        <ele>197.100006104</ele>
        <time>2015-10-25T09:46:02.962Z</time>
      </trkpt>
      <trkpt lat="46.00284" lon="4.7052">
        <ele>197.199996948</ele>
        <time>2015-10-25T09:46:04.009Z</time>
      </trkpt>
      <trkpt lat="46.0029" lon="4.70518">
        <ele>197.399993896</ele>
        <time>2015-10-25T09:46:04.963Z</time>
      </trkpt>
      <trkpt lat="46.00295" lon="4.70517">
        <ele>197.399993896</ele>
        <time>2015-10-25T09:46:05.993Z</time>
      </trkpt>
      <trkpt lat="46.00301" lon="4.70515">
        <ele>197.5</ele>
        <time>2015-10-25T09:46:06.963Z</time>
      </trkpt>
      <trkpt lat="46.00307" lon="4.70514">
        <ele>197.5</ele>
        <time>2015-10-25T09:46:07.993Z</time>
      </trkpt>
      <trkpt lat="46.00313" lon="4.70512">
        <ele>197.5</ele>
        <time>2015-10-25T09:46:08.961Z</time>
      </trkpt>
      <trkpt lat="46.00319" lon="4.70511">
        <ele>197.199996948</ele>
        <time>2015-10-25T09:46:09.996Z</time>
      </trkpt>
      <trkpt lat="46.00325" lon="4.7051">
        <ele>197.100006104</ele>
        <time>2015-10-25T09:46:10.962Z</time>
      </trkpt>
      <trkpt lat="46.00331" lon="4.70509">
        <ele>197.100006104</ele>
        <time>2015-10-25T09:46:11.99Z</time>
      </trkpt>
      <trkpt lat="46.00337" lon="4.70508">
        <ele>197.100006104</ele>
        <time>2015-10-25T09:46:12.963Z</time>
      </trkpt>
      <trkpt lat="46.00342" lon="4.70506">
        <ele>197.100006104</ele>
        <time>2015-10-25T09:46:13.993Z</time>
      </trkpt>
      <trkpt lat="46.00348" lon="4.70505">
        <ele>197.399993896</ele>
        <time>2015-10-25T09:46:14.962Z</time>
      </trkpt>
      <trkpt lat="46.00353" lon="4.70503">
        <ele>197.399993896</ele>
        <time>2015-10-25T09:46:15.992Z</time>
      </trkpt>
      <trkpt lat="46.00358" lon="4.70503">
        <ele>197.699996948</ele>
        <time>2015-10-25T09:46:16.962Z</time>
      </trkpt>
      <trkpt lat="46.00364" lon="4.70502">
        <ele>197.800003052</ele>
        <time>2015-10-25T09:46:18.024Z</time>
      </trkpt>
      <trkpt lat="46.00369" lon="4.70502">
        <ele>198</ele>
        <time>2015-10-25T09:46:18.963Z</time>
      </trkpt>
      <trkpt lat="46.00375" lon="4.70501">
        <ele>198</ele>
        <time>2015-10-25T09:46:20.006Z</time>
      </trkpt>
      <trkpt lat="46.00381" lon="4.70501">
        <ele>198</ele>
        <time>2015-10-25T09:46:20.963Z</time>
      </trkpt>
      <trkpt lat="46.00387" lon="4.705">
        <ele>198</ele>
        <time>2015-10-25T09:46:21.992Z</time>
      </trkpt>
      <trkpt lat="46.00392" lon="4.70499">
        <ele>197.899993896</ele>
        <time>2015-10-25T09:46:22.962Z</time>
      </trkpt>
      <trkpt lat="46.00398" lon="4.70499">
        <ele>198</ele>
        <time>2015-10-25T09:46:23.992Z</time>
      </trkpt>
      <trkpt lat="46.00404" lon="4.70499">
        <ele>198</ele>
        <time>2015-10-25T09:46:24.963Z</time>
      </trkpt>
      <trkpt lat="46.0041" lon="4.70499">
        <ele>198</ele>
        <time>2015-10-25T09:46:25.99Z</time>
      </trkpt>
      <trkpt lat="46.00416" lon="4.70499">
        <ele>198.100006104</ele>
        <time>2015-10-25T09:46:26.966Z</time>
      </trkpt>
      <trkpt lat="46.00422" lon="4.705">
        <ele>198.300003052</ele>
        <time>2015-10-25T09:46:27.992Z</time>
      </trkpt>
      <trkpt lat="46.00427" lon="4.705">
        <ele>198.399993896</ele>
        <time>2015-10-25T09:46:28.963Z</time>
      </trkpt>
      <trkpt lat="46.00433" lon="4.70501">
        <ele>198.5</ele>
        <time>2015-10-25T09:46:29.991Z</time>
      </trkpt>
      <trkpt lat="46.00438" lon="4.70502">
        <ele>198.699996948</ele>
        <time>2015-10-25T09:46:30.963Z</time>
      </trkpt>
      <trkpt lat="46.00443" lon="4.70503">
        <ele>198.800003052</ele>
        <time>2015-10-25T09:46:31.99Z</time>
      </trkpt>
      <trkpt lat="46.00449" lon="4.70504">
        <ele>199</ele>
        <time>2015-10-25T09:46:32.962Z</time>
      </trkpt>
      <trkpt lat="46.00454" lon="4.70507">
        <ele>199.199996948</ele>
        <time>2015-10-25T09:46:33.992Z</time>
      </trkpt>
      <trkpt lat="46.00458" lon="4.7051">
        <ele>199.5</ele>
        <time>2015-10-25T09:46:34.967Z</time>
      </trkpt>
      <trkpt lat="46.00463" lon="4.70514">
        <ele>199.699996948</ele>
        <time>2015-10-25T09:46:35.99Z</time>
      </trkpt>
      <trkpt lat="46.00466" lon="4.70519">
        <ele>199.800003052</ele>
        <time>2015-10-25T09:46:36.962Z</time>
      </trkpt>
      <trkpt lat="46.00469" lon="4.70526">
        <ele>199.899993896</ele>
        <time>2015-10-25T09:46:37.99Z</time>
      </trkpt>
      <trkpt lat="46.00471" lon="4.70533">
        <ele>200</ele>
        <time>2015-10-25T09:46:38.963Z</time>
      </trkpt>
      <trkpt lat="46.00473" lon="4.70539">
        <ele>200.199996948</ele>
        <time>2015-10-25T09:46:39.996Z</time>
      </trkpt>
      <trkpt lat="46.00477" lon="4.70544">
        <ele>200.300003052</ele>
        <time>2015-10-25T09:46:40.963Z</time>
      </trkpt>
      <trkpt lat="46.00481" lon="4.70547">
        <ele>200.600006104</ele>
        <time>2015-10-25T09:46:41.993Z</time>
      </trkpt>
      <trkpt lat="46.00486" lon="4.70549">
        <ele>200.600006104</ele>
        <time>2015-10-25T09:46:42.962Z</time>
      </trkpt>
      <trkpt lat="46.00494" lon="4.70546">
        <ele>200.300003052</ele>
        <time>2015-10-25T09:46:44.993Z</time>
      </trkpt>
      <trkpt lat="46.00496" lon="4.70542">
        <ele>200.300003052</ele>
        <time>2015-10-25T09:46:45.983Z</time>
      </trkpt>
      <trkpt lat="46.00501" lon="4.70533">
        <ele>200.399993896</ele>
        <time>2015-10-25T09:46:47.991Z</time>
      </trkpt>
      <trkpt lat="46.00504" lon="4.70528">
        <ele>200.5</ele>
        <time>2015-10-25T09:46:48.963Z</time>
      </trkpt>
      <trkpt lat="46.00511" lon="4.7052">
        <ele>200.300003052</ele>
        <time>2015-10-25T09:46:51.001Z</time>
      </trkpt>
      <trkpt lat="46.00515" lon="4.70518">
        <ele>200.399993896</ele>
        <time>2015-10-25T09:46:51.969Z</time>
      </trkpt>
      <trkpt lat="46.0052" lon="4.70517">
        <ele>200.399993896</ele>
        <time>2015-10-25T09:46:52.99Z</time>
      </trkpt>
      <trkpt lat="46.00524" lon="4.70517">
        <ele>200.5</ele>
        <time>2015-10-25T09:46:53.963Z</time>
      </trkpt>
      <trkpt lat="46.00529" lon="4.70517">
        <ele>200.800003052</ele>
        <time>2015-10-25T09:46:54.998Z</time>
      </trkpt>
      <trkpt lat="46.00533" lon="4.70518">
        <ele>200.800003052</ele>
        <time>2015-10-25T09:46:55.962Z</time>
      </trkpt>
      <trkpt lat="46.00538" lon="4.70518">
        <ele>200.899993896</ele>
        <time>2015-10-25T09:46:56.99Z</time>
      </trkpt>
      <trkpt lat="46.00542" lon="4.70519">
        <ele>201.5</ele>
        <time>2015-10-25T09:46:57.965Z</time>
      </trkpt>
      <trkpt lat="46.00547" lon="4.70519">
        <ele>201.899993896</ele>
        <time>2015-10-25T09:46:58.989Z</time>
      </trkpt>
      <trkpt lat="46.00551" lon="4.70519">
        <ele>202.399993896</ele>
        <time>2015-10-25T09:46:59.963Z</time>
      </trkpt>
      <trkpt lat="46.0056" lon="4.70518">
        <ele>203.399993896</ele>
        <time>2015-10-25T09:47:01.993Z</time>
      </trkpt>
      <trkpt lat="46.00564" lon="4.70517">
        <ele>203.800003052</ele>
        <time>2015-10-25T09:47:02.966Z</time>
      </trkpt>
      <trkpt lat="46.00573" lon="4.70516">
        <ele>204.600006104</ele>
        <time>2015-10-25T09:47:05.024Z</time>
      </trkpt>
      <trkpt lat="46.00577" lon="4.70515">
        <ele>204.899993896</ele>
        <time>2015-10-25T09:47:05.963Z</time>
      </trkpt>
      <trkpt lat="46.00586" lon="4.70514">
        <ele>205.100006104</ele>
        <time>2015-10-25T09:47:08.002Z</time>
      </trkpt>
      <trkpt lat="46.0059" lon="4.70514">
        <ele>205.699996948</ele>
        <time>2015-10-25T09:47:08.962Z</time>
      </trkpt>
      <trkpt lat="46.00599" lon="4.70512">
        <ele>207</ele>
        <time>2015-10-25T09:47:11.002Z</time>
      </trkpt>
      <trkpt lat="46.00603" lon="4.70511">
        <ele>207.300003052</ele>
        <time>2015-10-25T09:47:11.967Z</time>
      </trkpt>
      <trkpt lat="46.00608" lon="4.7051">
        <ele>207.699996948</ele>
        <time>2015-10-25T09:47:12.997Z</time>
      </trkpt>
      <trkpt lat="46.00612" lon="4.70509">
        <ele>208.199996948</ele>
        <time>2015-10-25T09:47:13.966Z</time>
      </trkpt>
      <trkpt lat="46.00621" lon="4.70507">
        <ele>209.300003052</ele>
        <time>2015-10-25T09:47:15.995Z</time>
      </trkpt>
      <trkpt lat="46.00626" lon="4.70506">
        <ele>209.699996948</ele>
        <time>2015-10-25T09:47:16.967Z</time>
      </trkpt>
      <trkpt lat="46.0063" lon="4.70506">
        <ele>210.100006104</ele>
        <time>2015-10-25T09:47:17.993Z</time>
      </trkpt>
      <trkpt lat="46.00635" lon="4.70508">
        <ele>210.199996948</ele>
        <time>2015-10-25T09:47:18.966Z</time>
      </trkpt>
      <trkpt lat="46.0064" lon="4.70508">
        <ele>210.300003052</ele>
        <time>2015-10-25T09:47:20.001Z</time>
      </trkpt>
      <trkpt lat="46.00645" lon="4.70508">
        <ele>210.300003052</ele>
        <time>2015-10-25T09:47:20.966Z</time>
      </trkpt>
      <trkpt lat="46.00651" lon="4.70508">
        <ele>209.800003052</ele>
        <time>2015-10-25T09:47:21.992Z</time>
      </trkpt>
      <trkpt lat="46.00656" lon="4.70508">
        <ele>210</ele>
        <time>2015-10-25T09:47:22.958Z</time>
      </trkpt>
      <trkpt lat="46.0066" lon="4.70508">
        <ele>210.800003052</ele>
        <time>2015-10-25T09:47:23.989Z</time>
      </trkpt>
      <trkpt lat="46.00665" lon="4.70507">
        <ele>210.600006104</ele>
        <time>2015-10-25T09:47:24.966Z</time>
      </trkpt>
      <trkpt lat="46.00671" lon="4.70507">
        <ele>210.600006104</ele>
        <time>2015-10-25T09:47:25.989Z</time>
      </trkpt>
      <trkpt lat="46.00676" lon="4.70507">
        <ele>210.800003052</ele>
        <time>2015-10-25T09:47:26.962Z</time>
      </trkpt>
      <trkpt lat="46.00682" lon="4.70507">
        <ele>210.100006104</ele>
        <time>2015-10-25T09:47:28.013Z</time>
      </trkpt>
      <trkpt lat="46.00687" lon="4.70506">
        <ele>209.199996948</ele>
        <time>2015-10-25T09:47:28.962Z</time>
      </trkpt>
      <trkpt lat="46.00693" lon="4.70505">
        <ele>208.800003052</ele>
        <time>2015-10-25T09:47:30.05Z</time>
      </trkpt>
      <trkpt lat="46.00699" lon="4.70505">
        <ele>208.899993896</ele>
        <time>2015-10-25T09:47:30.963Z</time>
      </trkpt>
      <trkpt lat="46.00705" lon="4.70504">
        <ele>207.899993896</ele>
        <time>2015-10-25T09:47:31.99Z</time>
      </trkpt>
      <trkpt lat="46.00711" lon="4.70504">
        <ele>207.699996948</ele>
        <time>2015-10-25T09:47:32.963Z</time>
      </trkpt>
      <trkpt lat="46.00717" lon="4.70505">
        <ele>207.600006104</ele>
        <time>2015-10-25T09:47:33.992Z</time>
      </trkpt>
      <trkpt lat="46.00723" lon="4.70506">
        <ele>207.600006104</ele>
        <time>2015-10-25T09:47:34.966Z</time>
      </trkpt>
      <trkpt lat="46.00729" lon="4.70507">
        <ele>207.5</ele>
        <time>2015-10-25T09:47:35.993Z</time>
      </trkpt>
      <trkpt lat="46.00735" lon="4.70508">
        <ele>207.199996948</ele>
        <time>2015-10-25T09:47:36.966Z</time>
      </trkpt>
      <trkpt lat="46.0074" lon="4.7051">
        <ele>207.199996948</ele>
        <time>2015-10-25T09:47:37.993Z</time>
      </trkpt>
      <trkpt lat="46.00745" lon="4.70511">
        <ele>206.899993896</ele>
        <time>2015-10-25T09:47:39.004Z</time>
      </trkpt>
      <trkpt lat="46.00749" lon="4.7051">
        <ele>206.399993896</ele>
        <time>2015-10-25T09:47:39.992Z</time>
      </trkpt>
      <trkpt lat="46.00754" lon="4.70509">
        <ele>206.199996948</ele>
        <time>2015-10-25T09:47:41.003Z</time>
      </trkpt>
      <trkpt lat="46.00757" lon="4.70505">
        <ele>205.899993896</ele>
        <time>2015-10-25T09:47:42.004Z</time>
      </trkpt>
      <trkpt lat="46.00761" lon="4.70501">
        <ele>205.600006104</ele>
        <time>2015-10-25T09:47:42.963Z</time>
      </trkpt>
      <trkpt lat="46.00765" lon="4.70496">
        <ele>205.399993896</ele>
        <time>2015-10-25T09:47:44.017Z</time>
      </trkpt>
      <trkpt lat="46.00768" lon="4.70491">
        <ele>205.199996948</ele>
        <time>2015-10-25T09:47:44.966Z</time>
      </trkpt>
      <trkpt lat="46.00772" lon="4.70488">
        <ele>204.899993896</ele>
        <time>2015-10-25T09:47:45.992Z</time>
      </trkpt>
      <trkpt lat="46.00777" lon="4.70485">
        <ele>204.5</ele>
        <time>2015-10-25T09:47:46.965Z</time>
      </trkpt>
      <trkpt lat="46.00782" lon="4.70484">
        <ele>204.5</ele>
        <time>2015-10-25T09:47:47.991Z</time>
      </trkpt>
      <trkpt lat="46.00788" lon="4.70482">
        <ele>204.300003052</ele>
        <time>2015-10-25T09:47:48.963Z</time>
      </trkpt>
      <trkpt lat="46.00793" lon="4.7048">
        <ele>204.100006104</ele>
        <time>2015-10-25T09:47:49.99Z</time>
      </trkpt>
      <trkpt lat="46.00799" lon="4.70478">
        <ele>204.199996948</ele>
        <time>2015-10-25T09:47:50.963Z</time>
      </trkpt>
      <trkpt lat="46.00804" lon="4.70475">
        <ele>204</ele>
        <time>2015-10-25T09:47:51.993Z</time>
      </trkpt>
      <trkpt lat="46.00809" lon="4.70472">
        <ele>203.800003052</ele>
        <time>2015-10-25T09:47:52.966Z</time>
      </trkpt>
      <trkpt lat="46.00814" lon="4.70468">
        <ele>203.699996948</ele>
        <time>2015-10-25T09:47:53.993Z</time>
      </trkpt>
      <trkpt lat="46.00819" lon="4.70465">
        <ele>203.399993896</ele>
        <time>2015-10-25T09:47:54.966Z</time>
      </trkpt>
      <trkpt lat="46.00824" lon="4.70461">
        <ele>203.300003052</ele>
        <time>2015-10-25T09:47:55.989Z</time>
      </trkpt>
      <trkpt lat="46.00829" lon="4.70458">
        <ele>203.199996948</ele>
        <time>2015-10-25T09:47:56.962Z</time>
      </trkpt>
      <trkpt lat="46.00834" lon="4.70456">
        <ele>203</ele>
        <time>2015-10-25T09:47:57.991Z</time>
      </trkpt>
      <trkpt lat="46.00839" lon="4.70453">
        <ele>203.300003052</ele>
        <time>2015-10-25T09:47:58.998Z</time>
      </trkpt>
      <trkpt lat="46.00844" lon="4.7045">
        <ele>203.300003052</ele>
        <time>2015-10-25T09:48:00.018Z</time>
      </trkpt>
      <trkpt lat="46.0085" lon="4.70446">
        <ele>203.399993896</ele>
        <time>2015-10-25T09:48:00.962Z</time>
      </trkpt>
      <trkpt lat="46.00855" lon="4.70443">
        <ele>203.899993896</ele>
        <time>2015-10-25T09:48:01.99Z</time>
      </trkpt>
      <trkpt lat="46.0086" lon="4.7044">
        <ele>204.100006104</ele>
        <time>2015-10-25T09:48:02.964Z</time>
      </trkpt>
      <trkpt lat="46.00864" lon="4.70437">
        <ele>204.300003052</ele>
        <time>2015-10-25T09:48:03.993Z</time>
      </trkpt>
      <trkpt lat="46.00868" lon="4.70434">
        <ele>204.399993896</ele>
        <time>2015-10-25T09:48:04.966Z</time>
      </trkpt>
      <trkpt lat="46.00873" lon="4.70431">
        <ele>204.600006104</ele>
        <time>2015-10-25T09:48:06.03Z</time>
      </trkpt>
      <trkpt lat="46.00877" lon="4.70428">
        <ele>204.800003052</ele>
        <time>2015-10-25T09:48:06.963Z</time>
      </trkpt>
      <trkpt lat="46.00881" lon="4.70425">
        <ele>205.100006104</ele>
        <time>2015-10-25T09:48:07.992Z</time>
      </trkpt>
      <trkpt lat="46.00885" lon="4.70421">
        <ele>205.300003052</ele>
        <time>2015-10-25T09:48:08.963Z</time>
      </trkpt>
      <trkpt lat="46.0089" lon="4.70417">
        <ele>205.199996948</ele>
        <time>2015-10-25T09:48:09.992Z</time>
      </trkpt>
      <trkpt lat="46.00893" lon="4.70412">
        <ele>206.5</ele>
        <time>2015-10-25T09:48:10.961Z</time>
      </trkpt>
      <trkpt lat="46.00897" lon="4.70407">
        <ele>206.600006104</ele>
        <time>2015-10-25T09:48:11.993Z</time>
      </trkpt>
      <trkpt lat="46.00901" lon="4.70403">
        <ele>206.899993896</ele>
        <time>2015-10-25T09:48:12.962Z</time>
      </trkpt>
      <trkpt lat="46.00905" lon="4.70397">
        <ele>207</ele>
        <time>2015-10-25T09:48:13.989Z</time>
      </trkpt>
      <trkpt lat="46.00909" lon="4.70392">
        <ele>206.399993896</ele>
        <time>2015-10-25T09:48:14.962Z</time>
      </trkpt>
      <trkpt lat="46.00913" lon="4.70386">
        <ele>206.300003052</ele>
        <time>2015-10-25T09:48:16.006Z</time>
      </trkpt>
      <trkpt lat="46.00917" lon="4.70381">
        <ele>206.100006104</ele>
        <time>2015-10-25T09:48:16.964Z</time>
      </trkpt>
      <trkpt lat="46.00921" lon="4.70375">
        <ele>206.199996948</ele>
        <time>2015-10-25T09:48:17.989Z</time>
      </trkpt>
      <trkpt lat="46.00925" lon="4.70369">
        <ele>206</ele>
        <time>2015-10-25T09:48:18.962Z</time>
      </trkpt>
      <trkpt lat="46.00929" lon="4.70364">
        <ele>205.800003052</ele>
        <time>2015-10-25T09:48:19.993Z</time>
      </trkpt>
      <trkpt lat="46.00932" lon="4.70358">
        <ele>205.699996948</ele>
        <time>2015-10-25T09:48:20.964Z</time>
      </trkpt>
      <trkpt lat="46.00936" lon="4.70352">
        <ele>205.699996948</ele>
        <time>2015-10-25T09:48:21.992Z</time>
      </trkpt>
      <trkpt lat="46.0094" lon="4.70346">
        <ele>206</ele>
        <time>2015-10-25T09:48:22.966Z</time>
      </trkpt>
      <trkpt lat="46.00943" lon="4.70341">
        <ele>206.199996948</ele>
        <time>2015-10-25T09:48:23.992Z</time>
      </trkpt>
      <trkpt lat="46.00947" lon="4.70335">
        <ele>206.399993896</ele>
        <time>2015-10-25T09:48:24.963Z</time>
      </trkpt>
      <trkpt lat="46.0095" lon="4.70328">
        <ele>206.199996948</ele>
        <time>2015-10-25T09:48:25.993Z</time>
      </trkpt>
      <trkpt lat="46.00953" lon="4.70323">
        <ele>205.800003052</ele>
        <time>2015-10-25T09:48:26.964Z</time>
      </trkpt>
      <trkpt lat="46.00956" lon="4.70316">
        <ele>205.800003052</ele>
        <time>2015-10-25T09:48:27.996Z</time>
      </trkpt>
      <trkpt lat="46.00959" lon="4.70309">
        <ele>206.100006104</ele>
        <time>2015-10-25T09:48:28.967Z</time>
      </trkpt>
      <trkpt lat="46.00962" lon="4.70302">
        <ele>205.899993896</ele>
        <time>2015-10-25T09:48:29.99Z</time>
      </trkpt>
      <trkpt lat="46.00964" lon="4.70296">
        <ele>205.5</ele>
        <time>2015-10-25T09:48:30.963Z</time>
      </trkpt>
      <trkpt lat="46.00967" lon="4.7029">
        <ele>205.5</ele>
        <time>2015-10-25T09:48:32.006Z</time>
      </trkpt>
      <trkpt lat="46.00969" lon="4.70284">
        <ele>205.399993896</ele>
        <time>2015-10-25T09:48:32.966Z</time>
      </trkpt>
      <trkpt lat="46.00971" lon="4.70278">
        <ele>205.300003052</ele>
        <time>2015-10-25T09:48:33.998Z</time>
      </trkpt>
      <trkpt lat="46.00974" lon="4.70273">
        <ele>205.5</ele>
        <time>2015-10-25T09:48:34.963Z</time>
      </trkpt>
      <trkpt lat="46.00976" lon="4.70267">
        <ele>205.600006104</ele>
        <time>2015-10-25T09:48:35.997Z</time>
      </trkpt>
      <trkpt lat="46.00978" lon="4.70262">
        <ele>205.199996948</ele>
        <time>2015-10-25T09:48:36.966Z</time>
      </trkpt>
      <trkpt lat="46.00981" lon="4.70256">
        <ele>205.300003052</ele>
        <time>2015-10-25T09:48:37.989Z</time>
      </trkpt>
      <trkpt lat="46.00983" lon="4.7025">
        <ele>205.100006104</ele>
        <time>2015-10-25T09:48:38.962Z</time>
      </trkpt>
      <trkpt lat="46.00986" lon="4.70244">
        <ele>204.800003052</ele>
        <time>2015-10-25T09:48:39.992Z</time>
      </trkpt>
      <trkpt lat="46.00988" lon="4.70238">
        <ele>204.800003052</ele>
        <time>2015-10-25T09:48:40.962Z</time>
      </trkpt>
      <trkpt lat="46.00991" lon="4.70231">
        <ele>204.899993896</ele>
        <time>2015-10-25T09:48:41.99Z</time>
      </trkpt>
      <trkpt lat="46.00994" lon="4.70226">
        <ele>205</ele>
        <time>2015-10-25T09:48:42.962Z</time>
      </trkpt>
      <trkpt lat="46.00997" lon="4.7022">
        <ele>205.100006104</ele>
        <time>2015-10-25T09:48:43.989Z</time>
      </trkpt>
      <trkpt lat="46.01" lon="4.70214">
        <ele>205.300003052</ele>
        <time>2015-10-25T09:48:44.963Z</time>
      </trkpt>
      <trkpt lat="46.01002" lon="4.70208">
        <ele>205.199996948</ele>
        <time>2015-10-25T09:48:45.996Z</time>
      </trkpt>
      <trkpt lat="46.01004" lon="4.70202">
        <ele>205.399993896</ele>
        <time>2015-10-25T09:48:46.965Z</time>
      </trkpt>
      <trkpt lat="46.01007" lon="4.70196">
        <ele>205.399993896</ele>
        <time>2015-10-25T09:48:48.004Z</time>
      </trkpt>
      <trkpt lat="46.01009" lon="4.7019">
        <ele>205.199996948</ele>
        <time>2015-10-25T09:48:48.962Z</time>
      </trkpt>
      <trkpt lat="46.01013" lon="4.70183">
        <ele>205.600006104</ele>
        <time>2015-10-25T09:48:49.992Z</time>
      </trkpt>
      <trkpt lat="46.01016" lon="4.70177">
        <ele>205.800003052</ele>
        <time>2015-10-25T09:48:50.962Z</time>
      </trkpt>
      <trkpt lat="46.01019" lon="4.70171">
        <ele>205.699996948</ele>
        <time>2015-10-25T09:48:51.991Z</time>
      </trkpt>
      <trkpt lat="46.01023" lon="4.70164">
        <ele>205.5</ele>
        <time>2015-10-25T09:48:52.966Z</time>
      </trkpt>
      <trkpt lat="46.01026" lon="4.70157">
        <ele>205.300003052</ele>
        <time>2015-10-25T09:48:53.989Z</time>
      </trkpt>
      <trkpt lat="46.01029" lon="4.70151">
        <ele>205.600006104</ele>
        <time>2015-10-25T09:48:54.966Z</time>
      </trkpt>
      <trkpt lat="46.01032" lon="4.70144">
        <ele>206.100006104</ele>
        <time>2015-10-25T09:48:55.989Z</time>
      </trkpt>
      <trkpt lat="46.01035" lon="4.70138">
        <ele>206.300003052</ele>
        <time>2015-10-25T09:48:56.962Z</time>
      </trkpt>
      <trkpt lat="46.01038" lon="4.70131">
        <ele>206.399993896</ele>
        <time>2015-10-25T09:48:57.992Z</time>
      </trkpt>
      <trkpt lat="46.01041" lon="4.70125">
        <ele>207</ele>
        <time>2015-10-25T09:48:58.963Z</time>
      </trkpt>
      <trkpt lat="46.01044" lon="4.70118">
        <ele>207.300003052</ele>
        <time>2015-10-25T09:48:59.998Z</time>
      </trkpt>
      <trkpt lat="46.01047" lon="4.70111">
        <ele>207.600006104</ele>
        <time>2015-10-25T09:49:00.967Z</time>
      </trkpt>
      <trkpt lat="46.0105" lon="4.70105">
        <ele>207.899993896</ele>
        <time>2015-10-25T09:49:01.989Z</time>
      </trkpt>
      <trkpt lat="46.01053" lon="4.70099">
        <ele>207.899993896</ele>
        <time>2015-10-25T09:49:02.966Z</time>
      </trkpt>
      <trkpt lat="46.01056" lon="4.70093">
        <ele>207.699996948</ele>
        <time>2015-10-25T09:49:04.06Z</time>
      </trkpt>
      <trkpt lat="46.01058" lon="4.70087">
        <ele>208.5</ele>
        <time>2015-10-25T09:49:04.966Z</time>
      </trkpt>
      <trkpt lat="46.01061" lon="4.70081">
        <ele>208.800003052</ele>
        <time>2015-10-25T09:49:05.99Z</time>
      </trkpt>
      <trkpt lat="46.01064" lon="4.70074">
        <ele>208.899993896</ele>
        <time>2015-10-25T09:49:06.962Z</time>
      </trkpt>
      <trkpt lat="46.01067" lon="4.70068">
        <ele>209.199996948</ele>
        <time>2015-10-25T09:49:07.989Z</time>
      </trkpt>
      <trkpt lat="46.0107" lon="4.70063">
        <ele>209.399993896</ele>
        <time>2015-10-25T09:49:08.962Z</time>
      </trkpt>
      <trkpt lat="46.01073" lon="4.70057">
        <ele>209.300003052</ele>
        <time>2015-10-25T09:49:10.029Z</time>
      </trkpt>
      <trkpt lat="46.01077" lon="4.70052">
        <ele>209.5</ele>
        <time>2015-10-25T09:49:10.963Z</time>
      </trkpt>
      <trkpt lat="46.0108" lon="4.70047">
        <ele>209.5</ele>
        <time>2015-10-25T09:49:11.99Z</time>
      </trkpt>
      <trkpt lat="46.01084" lon="4.70043">
        <ele>209.199996948</ele>
        <time>2015-10-25T09:49:12.965Z</time>
      </trkpt>
      <trkpt lat="46.01088" lon="4.70038">
        <ele>209.199996948</ele>
        <time>2015-10-25T09:49:14.044Z</time>
      </trkpt>
      <trkpt lat="46.01092" lon="4.70034">
        <ele>209.5</ele>
        <time>2015-10-25T09:49:14.963Z</time>
      </trkpt>
      <trkpt lat="46.01095" lon="4.70031">
        <ele>209.5</ele>
        <time>2015-10-25T09:49:15.992Z</time>
      </trkpt>
      <trkpt lat="46.011" lon="4.70028">
        <ele>209.600006104</ele>
        <time>2015-10-25T09:49:16.965Z</time>
      </trkpt>
      <trkpt lat="46.01108" lon="4.70022">
        <ele>209.199996948</ele>
        <time>2015-10-25T09:49:19.04Z</time>
      </trkpt>
      <trkpt lat="46.01112" lon="4.70019">
        <ele>209.300003052</ele>
        <time>2015-10-25T09:49:19.961Z</time>
      </trkpt>
      <trkpt lat="46.01116" lon="4.70016">
        <ele>209.300003052</ele>
        <time>2015-10-25T09:49:20.989Z</time>
      </trkpt>
      <trkpt lat="46.01121" lon="4.70014">
        <ele>209.199996948</ele>
        <time>2015-10-25T09:49:21.968Z</time>
      </trkpt>
      <trkpt lat="46.01126" lon="4.70011">
        <ele>209.399993896</ele>
        <time>2015-10-25T09:49:22.99Z</time>
      </trkpt>
      <trkpt lat="46.01131" lon="4.7001">
        <ele>209.899993896</ele>
        <time>2015-10-25T09:49:23.962Z</time>
      </trkpt>
      <trkpt lat="46.01136" lon="4.70009">
        <ele>210.300003052</ele>
        <time>2015-10-25T09:49:24.989Z</time>
      </trkpt>
      <trkpt lat="46.01141" lon="4.70008">
        <ele>210.899993896</ele>
        <time>2015-10-25T09:49:25.963Z</time>
      </trkpt>
      <trkpt lat="46.01146" lon="4.70007">
        <ele>211.100006104</ele>
        <time>2015-10-25T09:49:26.992Z</time>
      </trkpt>
      <trkpt lat="46.01151" lon="4.70006">
        <ele>211.5</ele>
        <time>2015-10-25T09:49:27.993Z</time>
      </trkpt>
      <trkpt lat="46.01156" lon="4.70005">
        <ele>211.600006104</ele>
        <time>2015-10-25T09:49:29.009Z</time>
      </trkpt>
      <trkpt lat="46.0116" lon="4.70005">
        <ele>211.800003052</ele>
        <time>2015-10-25T09:49:29.966Z</time>
      </trkpt>
      <trkpt lat="46.01165" lon="4.70005">
        <ele>212</ele>
        <time>2015-10-25T09:49:30.989Z</time>
      </trkpt>
      <trkpt lat="46.0117" lon="4.70004">
        <ele>212</ele>
        <time>2015-10-25T09:49:31.962Z</time>
      </trkpt>
      <trkpt lat="46.01175" lon="4.70004">
        <ele>211.800003052</ele>
        <time>2015-10-25T09:49:32.989Z</time>
      </trkpt>
      <trkpt lat="46.0118" lon="4.70003">
        <ele>211.300003052</ele>
        <time>2015-10-25T09:49:33.965Z</time>
      </trkpt>
      <trkpt lat="46.01185" lon="4.70002">
        <ele>211</ele>
        <time>2015-10-25T09:49:35.004Z</time>
      </trkpt>
      <trkpt lat="46.0119" lon="4.70002">
        <ele>211</ele>
        <time>2015-10-25T09:49:35.963Z</time>
      </trkpt>
      <trkpt lat="46.01195" lon="4.70002">
        <ele>210.899993896</ele>
        <time>2015-10-25T09:49:36.991Z</time>
      </trkpt>
      <trkpt lat="46.01201" lon="4.70001">
        <ele>211.100006104</ele>
        <time>2015-10-25T09:49:37.965Z</time>
      </trkpt>
      <trkpt lat="46.01205" lon="4.70001">
        <ele>211</ele>
        <time>2015-10-25T09:49:38.988Z</time>
      </trkpt>
      <trkpt lat="46.01211" lon="4.70001">
        <ele>210.600006104</ele>
        <time>2015-10-25T09:49:39.965Z</time>
      </trkpt>
      <trkpt lat="46.01216" lon="4.7">
        <ele>210.5</ele>
        <time>2015-10-25T09:49:40.989Z</time>
      </trkpt>
      <trkpt lat="46.01221" lon="4.69999">
        <ele>210.600006104</ele>
        <time>2015-10-25T09:49:41.962Z</time>
      </trkpt>
      <trkpt lat="46.01227" lon="4.69999">
        <ele>211</ele>
        <time>2015-10-25T09:49:43.03Z</time>
      </trkpt>
      <trkpt lat="46.01232" lon="4.69999">
        <ele>211.100006104</ele>
        <time>2015-10-25T09:49:43.962Z</time>
      </trkpt>
      <trkpt lat="46.01238" lon="4.69998">
        <ele>211</ele>
        <time>2015-10-25T09:49:44.989Z</time>
      </trkpt>
      <trkpt lat="46.01243" lon="4.69997">
        <ele>211.100006104</ele>
        <time>2015-10-25T09:49:45.969Z</time>
      </trkpt>
      <trkpt lat="46.01249" lon="4.69997">
        <ele>211.199996948</ele>
        <time>2015-10-25T09:49:46.991Z</time>
      </trkpt>
      <trkpt lat="46.01254" lon="4.69996">
        <ele>211</ele>
        <time>2015-10-25T09:49:47.966Z</time>
      </trkpt>
      <trkpt lat="46.0126" lon="4.69994">
        <ele>211.199996948</ele>
        <time>2015-10-25T09:49:48.989Z</time>
      </trkpt>
      <trkpt lat="46.01265" lon="4.69992">
        <ele>210.699996948</ele>
        <time>2015-10-25T09:49:49.962Z</time>
      </trkpt>
      <trkpt lat="46.01271" lon="4.69989">
        <ele>210.600006104</ele>
        <time>2015-10-25T09:49:51.007Z</time>
      </trkpt>
      <trkpt lat="46.01275" lon="4.69985">
        <ele>210.699996948</ele>
        <time>2015-10-25T09:49:51.965Z</time>
      </trkpt>
      <trkpt lat="46.0128" lon="4.69981">
        <ele>210.699996948</ele>
        <time>2015-10-25T09:49:52.989Z</time>
      </trkpt>
      <trkpt lat="46.01285" lon="4.69976">
        <ele>210.800003052</ele>
        <time>2015-10-25T09:49:53.962Z</time>
      </trkpt>
      <trkpt lat="46.0129" lon="4.69971">
        <ele>211.100006104</ele>
        <time>2015-10-25T09:49:54.989Z</time>
      </trkpt>
      <trkpt lat="46.01294" lon="4.69965">
        <ele>211.100006104</ele>
        <time>2015-10-25T09:49:55.962Z</time>
      </trkpt>
      <trkpt lat="46.01297" lon="4.69958">
        <ele>210.800003052</ele>
        <time>2015-10-25T09:49:56.989Z</time>
      </trkpt>
      <trkpt lat="46.013" lon="4.6995">
        <ele>210.800003052</ele>
        <time>2015-10-25T09:49:57.965Z</time>
      </trkpt>
      <trkpt lat="46.01302" lon="4.69943">
        <ele>210.600006104</ele>
        <time>2015-10-25T09:49:58.989Z</time>
      </trkpt>
      <trkpt lat="46.01305" lon="4.69935">
        <ele>210.5</ele>
        <time>2015-10-25T09:49:59.962Z</time>
      </trkpt>
      <trkpt lat="46.01307" lon="4.69927">
        <ele>210.300003052</ele>
        <time>2015-10-25T09:50:00.993Z</time>
      </trkpt>
      <trkpt lat="46.01309" lon="4.69919">
        <ele>210.5</ele>
        <time>2015-10-25T09:50:01.962Z</time>
      </trkpt>
      <trkpt lat="46.01311" lon="4.69912">
        <ele>210.5</ele>
        <time>2015-10-25T09:50:03.024Z</time>
      </trkpt>
      <trkpt lat="46.01313" lon="4.69904">
        <ele>210.699996948</ele>
        <time>2015-10-25T09:50:03.964Z</time>
      </trkpt>
      <trkpt lat="46.01315" lon="4.69896">
        <ele>210.699996948</ele>
        <time>2015-10-25T09:50:04.991Z</time>
      </trkpt>
      <trkpt lat="46.01317" lon="4.69887">
        <ele>210.399993896</ele>
        <time>2015-10-25T09:50:05.966Z</time>
      </trkpt>
      <trkpt lat="46.01319" lon="4.6988">
        <ele>210.399993896</ele>
        <time>2015-10-25T09:50:07.002Z</time>
      </trkpt>
      <trkpt lat="46.0132" lon="4.69872">
        <ele>210.399993896</ele>
        <time>2015-10-25T09:50:07.962Z</time>
      </trkpt>
      <trkpt lat="46.01322" lon="4.69865">
        <ele>210.100006104</ele>
        <time>2015-10-25T09:50:08.992Z</time>
      </trkpt>
      <trkpt lat="46.01324" lon="4.69857">
        <ele>210.600006104</ele>
        <time>2015-10-25T09:50:09.964Z</time>
      </trkpt>
      <trkpt lat="46.01325" lon="4.69849">
        <ele>211</ele>
        <time>2015-10-25T09:50:10.988Z</time>
      </trkpt>
      <trkpt lat="46.01327" lon="4.69842">
        <ele>210.899993896</ele>
        <time>2015-10-25T09:50:11.962Z</time>
      </trkpt>
      <trkpt lat="46.01329" lon="4.69834">
        <ele>210.800003052</ele>
        <time>2015-10-25T09:50:12.989Z</time>
      </trkpt>
      <trkpt lat="46.01331" lon="4.69825">
        <ele>210.199996948</ele>
        <time>2015-10-25T09:50:13.97Z</time>
      </trkpt>
      <trkpt lat="46.01333" lon="4.69817">
        <ele>209.699996948</ele>
        <time>2015-10-25T09:50:14.992Z</time>
      </trkpt>
      <trkpt lat="46.01335" lon="4.69809">
        <ele>209.600006104</ele>
        <time>2015-10-25T09:50:15.965Z</time>
      </trkpt>
      <trkpt lat="46.01337" lon="4.69801">
        <ele>209.5</ele>
        <time>2015-10-25T09:50:16.992Z</time>
      </trkpt>
      <trkpt lat="46.01339" lon="4.69794">
        <ele>209.5</ele>
        <time>2015-10-25T09:50:17.962Z</time>
      </trkpt>
      <trkpt lat="46.01341" lon="4.69786">
        <ele>209.300003052</ele>
        <time>2015-10-25T09:50:18.989Z</time>
      </trkpt>
      <trkpt lat="46.01343" lon="4.69778">
        <ele>208.800003052</ele>
        <time>2015-10-25T09:50:19.964Z</time>
      </trkpt>
      <trkpt lat="46.01344" lon="4.69771">
        <ele>208.399993896</ele>
        <time>2015-10-25T09:50:20.989Z</time>
      </trkpt>
      <trkpt lat="46.01346" lon="4.69763">
        <ele>208.100006104</ele>
        <time>2015-10-25T09:50:21.965Z</time>
      </trkpt>
      <trkpt lat="46.01348" lon="4.69756">
        <ele>207.899993896</ele>
        <time>2015-10-25T09:50:22.988Z</time>
      </trkpt>
      <trkpt lat="46.0135" lon="4.69749">
        <ele>207.600006104</ele>
        <time>2015-10-25T09:50:23.968Z</time>
      </trkpt>
      <trkpt lat="46.01352" lon="4.69741">
        <ele>207.300003052</ele>
        <time>2015-10-25T09:50:24.989Z</time>
      </trkpt>
      <trkpt lat="46.01354" lon="4.69733">
        <ele>207.100006104</ele>
        <time>2015-10-25T09:50:25.962Z</time>
      </trkpt>
      <trkpt lat="46.01355" lon="4.69725">
        <ele>207</ele>
        <time>2015-10-25T09:50:26.989Z</time>
      </trkpt>
      <trkpt lat="46.01357" lon="4.69717">
        <ele>207.199996948</ele>
        <time>2015-10-25T09:50:27.979Z</time>
      </trkpt>
      <trkpt lat="46.01359" lon="4.69709">
        <ele>206.699996948</ele>
        <time>2015-10-25T09:50:28.993Z</time>
      </trkpt>
      <trkpt lat="46.01361" lon="4.697">
        <ele>206.5</ele>
        <time>2015-10-25T09:50:29.961Z</time>
      </trkpt>
      <trkpt lat="46.01363" lon="4.69692">
        <ele>206.300003052</ele>
        <time>2015-10-25T09:50:30.988Z</time>
      </trkpt>
      <trkpt lat="46.01366" lon="4.69684">
        <ele>206.300003052</ele>
        <time>2015-10-25T09:50:31.961Z</time>
      </trkpt>
      <trkpt lat="46.01369" lon="4.69675">
        <ele>206</ele>
        <time>2015-10-25T09:50:32.993Z</time>
      </trkpt>
      <trkpt lat="46.01371" lon="4.69666">
        <ele>205.899993896</ele>
        <time>2015-10-25T09:50:33.97Z</time>
      </trkpt>
      <trkpt lat="46.01374" lon="4.69658">
        <ele>206</ele>
        <time>2015-10-25T09:50:34.988Z</time>
      </trkpt>
      <trkpt lat="46.01377" lon="4.6965">
        <ele>205.899993896</ele>
        <time>2015-10-25T09:50:35.963Z</time>
      </trkpt>
      <trkpt lat="46.0138" lon="4.69642">
        <ele>205.800003052</ele>
        <time>2015-10-25T09:50:36.992Z</time>
      </trkpt>
      <trkpt lat="46.01384" lon="4.69633">
        <ele>205.699996948</ele>
        <time>2015-10-25T09:50:37.962Z</time>
      </trkpt>
      <trkpt lat="46.01387" lon="4.69625">
        <ele>206.100006104</ele>
        <time>2015-10-25T09:50:38.991Z</time>
      </trkpt>
      <trkpt lat="46.01391" lon="4.69617">
        <ele>205.5</ele>
        <time>2015-10-25T09:50:39.966Z</time>
      </trkpt>
      <trkpt lat="46.01395" lon="4.69609">
        <ele>204.899993896</ele>
        <time>2015-10-25T09:50:40.989Z</time>
      </trkpt>
      <trkpt lat="46.01399" lon="4.696">
        <ele>204.300003052</ele>
        <time>2015-10-25T09:50:41.962Z</time>
      </trkpt>
      <trkpt lat="46.01403" lon="4.69592">
        <ele>204.300003052</ele>
        <time>2015-10-25T09:50:42.988Z</time>
      </trkpt>
      <trkpt lat="46.01407" lon="4.69584">
        <ele>204.199996948</ele>
        <time>2015-10-25T09:50:43.961Z</time>
      </trkpt>
      <trkpt lat="46.01412" lon="4.69576">
        <ele>204.300003052</ele>
        <time>2015-10-25T09:50:44.992Z</time>
      </trkpt>
      <trkpt lat="46.01416" lon="4.69568">
        <ele>204.399993896</ele>
        <time>2015-10-25T09:50:45.965Z</time>
      </trkpt>
      <trkpt lat="46.0142" lon="4.69561">
        <ele>204.399993896</ele>
        <time>2015-10-25T09:50:46.994Z</time>
      </trkpt>
      <trkpt lat="46.01425" lon="4.69554">
        <ele>204.399993896</ele>
        <time>2015-10-25T09:50:47.962Z</time>
      </trkpt>
      <trkpt lat="46.01429" lon="4.69547">
        <ele>204.300003052</ele>
        <time>2015-10-25T09:50:49.007Z</time>
      </trkpt>
      <trkpt lat="46.01433" lon="4.6954">
        <ele>204.300003052</ele>
        <time>2015-10-25T09:50:49.964Z</time>
      </trkpt>
      <trkpt lat="46.01437" lon="4.69533">
        <ele>204.300003052</ele>
        <time>2015-10-25T09:50:50.989Z</time>
      </trkpt>
      <trkpt lat="46.01441" lon="4.69527">
        <ele>204.199996948</ele>
        <time>2015-10-25T09:50:51.963Z</time>
      </trkpt>
      <trkpt lat="46.01444" lon="4.6952">
        <ele>204.199996948</ele>
        <time>2015-10-25T09:50:52.989Z</time>
      </trkpt>
      <trkpt lat="46.01447" lon="4.69512">
        <ele>204.300003052</ele>
        <time>2015-10-25T09:50:53.963Z</time>
      </trkpt>
      <trkpt lat="46.01449" lon="4.69505">
        <ele>204.5</ele>
        <time>2015-10-25T09:50:54.989Z</time>
      </trkpt>
      <trkpt lat="46.01451" lon="4.69499">
        <ele>205</ele>
        <time>2015-10-25T09:50:55.966Z</time>
      </trkpt>
      <trkpt lat="46.01454" lon="4.69492">
        <ele>205</ele>
        <time>2015-10-25T09:50:56.992Z</time>
      </trkpt>
      <trkpt lat="46.01456" lon="4.69485">
        <ele>204.899993896</ele>
        <time>2015-10-25T09:50:57.968Z</time>
      </trkpt>
      <trkpt lat="46.01458" lon="4.69478">
        <ele>205</ele>
        <time>2015-10-25T09:50:58.992Z</time>
      </trkpt>
      <trkpt lat="46.0146" lon="4.69472">
        <ele>204.899993896</ele>
        <time>2015-10-25T09:50:59.963Z</time>
      </trkpt>
      <trkpt lat="46.01461" lon="4.69464">
        <ele>205</ele>
        <time>2015-10-25T09:51:00.993Z</time>
      </trkpt>
      <trkpt lat="46.01462" lon="4.69458">
        <ele>204.5</ele>
        <time>2015-10-25T09:51:01.964Z</time>
      </trkpt>
      <trkpt lat="46.01464" lon="4.6945">
        <ele>205</ele>
        <time>2015-10-25T09:51:02.989Z</time>
      </trkpt>
      <trkpt lat="46.01464" lon="4.69443">
        <ele>204.899993896</ele>
        <time>2015-10-25T09:51:03.966Z</time>
      </trkpt>
      <trkpt lat="46.01465" lon="4.69436">
        <ele>204.699996948</ele>
        <time>2015-10-25T09:51:05.006Z</time>
      </trkpt>
      <trkpt lat="46.01467" lon="4.69429">
        <ele>204.800003052</ele>
        <time>2015-10-25T09:51:05.967Z</time>
      </trkpt>
      <trkpt lat="46.01468" lon="4.69422">
        <ele>204.600006104</ele>
        <time>2015-10-25T09:51:06.992Z</time>
      </trkpt>
      <trkpt lat="46.01469" lon="4.69414">
        <ele>205</ele>
        <time>2015-10-25T09:51:07.962Z</time>
      </trkpt>
      <trkpt lat="46.01471" lon="4.69407">
        <ele>205.100006104</ele>
        <time>2015-10-25T09:51:08.99Z</time>
      </trkpt>
      <trkpt lat="46.01472" lon="4.694">
        <ele>205.100006104</ele>
        <time>2015-10-25T09:51:09.969Z</time>
      </trkpt>
      <trkpt lat="46.01473" lon="4.69392">
        <ele>205.199996948</ele>
        <time>2015-10-25T09:51:10.99Z</time>
      </trkpt>
      <trkpt lat="46.01474" lon="4.69385">
        <ele>205.199996948</ele>
        <time>2015-10-25T09:51:11.963Z</time>
      </trkpt>
      <trkpt lat="46.01476" lon="4.69378">
        <ele>205.399993896</ele>
        <time>2015-10-25T09:51:12.989Z</time>
      </trkpt>
      <trkpt lat="46.01478" lon="4.69371">
        <ele>205.300003052</ele>
        <time>2015-10-25T09:51:13.963Z</time>
      </trkpt>
      <trkpt lat="46.0148" lon="4.69364">
        <ele>205.199996948</ele>
        <time>2015-10-25T09:51:14.993Z</time>
      </trkpt>
      <trkpt lat="46.01481" lon="4.69356">
        <ele>205.300003052</ele>
        <time>2015-10-25T09:51:15.966Z</time>
      </trkpt>
      <trkpt lat="46.01483" lon="4.69348">
        <ele>205.100006104</ele>
        <time>2015-10-25T09:51:17.03Z</time>
      </trkpt>
      <trkpt lat="46.01485" lon="4.6934">
        <ele>205.199996948</ele>
        <time>2015-10-25T09:51:17.966Z</time>
      </trkpt>
      <trkpt lat="46.01487" lon="4.69333">
        <ele>205.600006104</ele>
        <time>2015-10-25T09:51:18.992Z</time>
      </trkpt>
      <trkpt lat="46.01489" lon="4.69326">
        <ele>205.600006104</ele>
        <time>2015-10-25T09:51:19.962Z</time>
      </trkpt>
      <trkpt lat="46.01492" lon="4.69318">
        <ele>205.699996948</ele>
        <time>2015-10-25T09:51:21.004Z</time>
      </trkpt>
      <trkpt lat="46.01494" lon="4.69311">
        <ele>205.800003052</ele>
        <time>2015-10-25T09:51:21.964Z</time>
      </trkpt>
      <trkpt lat="46.01496" lon="4.69304">
        <ele>205.899993896</ele>
        <time>2015-10-25T09:51:22.99Z</time>
      </trkpt>
      <trkpt lat="46.01498" lon="4.69298">
        <ele>205.800003052</ele>
        <time>2015-10-25T09:51:23.963Z</time>
      </trkpt>
      <trkpt lat="46.01501" lon="4.69291">
        <ele>206</ele>
        <time>2015-10-25T09:51:25.001Z</time>
      </trkpt>
      <trkpt lat="46.01503" lon="4.69287">
        <ele>205.899993896</ele>
        <time>2015-10-25T09:51:25.963Z</time>
      </trkpt>
      <trkpt lat="46.01505" lon="4.69282">
        <ele>205.600006104</ele>
        <time>2015-10-25T09:51:27.996Z</time>
      </trkpt>
      <trkpt lat="46.01504" lon="4.69281">
        <ele>205.5</ele>
        <time>2015-10-25T09:51:28.966Z</time>
      </trkpt>
      <trkpt lat="46.01506" lon="4.69277">
        <ele>205.300003052</ele>
        <time>2015-10-25T09:51:37.989Z</time>
      </trkpt>
      <trkpt lat="46.01506" lon="4.69277">
        <ele>205.300003052</ele>
        <time>2015-10-25T09:51:38.962Z</time>
      </trkpt>
      <trkpt lat="46.01507" lon="4.69265">
        <ele>206</ele>
        <time>2015-10-25T09:52:01.002Z</time>
      </trkpt>
      <trkpt lat="46.01508" lon="4.69262">
        <ele>206.100006104</ele>
        <time>2015-10-25T09:52:01.962Z</time>
      </trkpt>
      <trkpt lat="46.01512" lon="4.69253">
        <ele>206.600006104</ele>
        <time>2015-10-25T09:52:07.018Z</time>
      </trkpt>
      <trkpt lat="46.01513" lon="4.69251">
        <ele>206.699996948</ele>
        <time>2015-10-25T09:52:07.964Z</time>
      </trkpt>
      <trkpt lat="46.01517" lon="4.69241">
        <ele>206.899993896</ele>
        <time>2015-10-25T09:52:10.997Z</time>
      </trkpt>
      <trkpt lat="46.01519" lon="4.69237">
        <ele>207</ele>
        <time>2015-10-25T09:52:11.963Z</time>
      </trkpt>
      <trkpt lat="46.01523" lon="4.69228">
        <ele>207.300003052</ele>
        <time>2015-10-25T09:52:13.989Z</time>
      </trkpt>
      <trkpt lat="46.01525" lon="4.69225">
        <ele>207.399993896</ele>
        <time>2015-10-25T09:52:14.962Z</time>
      </trkpt>
      <trkpt lat="46.0153" lon="4.69219">
        <ele>207.600006104</ele>
        <time>2015-10-25T09:52:18.034Z</time>
      </trkpt>
      <trkpt lat="46.01533" lon="4.69218">
        <ele>207.800003052</ele>
        <time>2015-10-25T09:52:18.966Z</time>
      </trkpt>
      <trkpt lat="46.01539" lon="4.69214">
        <ele>208.100006104</ele>
        <time>2015-10-25T09:52:20.993Z</time>
      </trkpt>
      <trkpt lat="46.01542" lon="4.6921">
        <ele>208</ele>
        <time>2015-10-25T09:52:21.994Z</time>
      </trkpt>
      <trkpt lat="46.01544" lon="4.69198">
        <ele>208</ele>
        <time>2015-10-25T09:52:24.007Z</time>
      </trkpt>
      <trkpt lat="46.01544" lon="4.69191">
        <ele>208.699996948</ele>
        <time>2015-10-25T09:52:25.037Z</time>
      </trkpt>
      <trkpt lat="46.01545" lon="4.69179">
        <ele>209.5</ele>
        <time>2015-10-25T09:52:26.992Z</time>
      </trkpt>
      <trkpt lat="46.01546" lon="4.69173">
        <ele>210.199996948</ele>
        <time>2015-10-25T09:52:27.963Z</time>
      </trkpt>
      <trkpt lat="46.01549" lon="4.69161">
        <ele>211.5</ele>
        <time>2015-10-25T09:52:29.989Z</time>
      </trkpt>
      <trkpt lat="46.01551" lon="4.69155">
        <ele>211.899993896</ele>
        <time>2015-10-25T09:52:30.961Z</time>
      </trkpt>
      <trkpt lat="46.01556" lon="4.69146">
        <ele>212.199996948</ele>
        <time>2015-10-25T09:52:32.99Z</time>
      </trkpt>
      <trkpt lat="46.01558" lon="4.6914">
        <ele>212.199996948</ele>
        <time>2015-10-25T09:52:33.978Z</time>
      </trkpt>
      <trkpt lat="46.01561" lon="4.69135">
        <ele>212.5</ele>
        <time>2015-10-25T09:52:35.016Z</time>
      </trkpt>
      <trkpt lat="46.01564" lon="4.69129">
        <ele>212.600006104</ele>
        <time>2015-10-25T09:52:35.963Z</time>
      </trkpt>
      <trkpt lat="46.01567" lon="4.69123">
        <ele>212.899993896</ele>
        <time>2015-10-25T09:52:36.989Z</time>
      </trkpt>
      <trkpt lat="46.0157" lon="4.69117">
        <ele>213.199996948</ele>
        <time>2015-10-25T09:52:37.966Z</time>
      </trkpt>
      <trkpt lat="46.01574" lon="4.69107">
        <ele>213.899993896</ele>
        <time>2015-10-25T09:52:40.019Z</time>
      </trkpt>
      <trkpt lat="46.01577" lon="4.69102">
        <ele>214.399993896</ele>
        <time>2015-10-25T09:52:40.963Z</time>
      </trkpt>
      <trkpt lat="46.01579" lon="4.69096">
        <ele>214.199996948</ele>
        <time>2015-10-25T09:52:42.003Z</time>
      </trkpt>
      <trkpt lat="46.01582" lon="4.6909">
        <ele>213.199996948</ele>
        <time>2015-10-25T09:52:42.989Z</time>
      </trkpt>
      <trkpt lat="46.01585" lon="4.69084">
        <ele>213.199996948</ele>
        <time>2015-10-25T09:52:44.001Z</time>
      </trkpt>
      <trkpt lat="46.01588" lon="4.69078">
        <ele>213.399993896</ele>
        <time>2015-10-25T09:52:44.966Z</time>
      </trkpt>
      <trkpt lat="46.01591" lon="4.69072">
        <ele>213.699996948</ele>
        <time>2015-10-25T09:52:45.992Z</time>
      </trkpt>
      <trkpt lat="46.01594" lon="4.69066">
        <ele>213.5</ele>
        <time>2015-10-25T09:52:46.965Z</time>
      </trkpt>
      <trkpt lat="46.01597" lon="4.6906">
        <ele>213.5</ele>
        <time>2015-10-25T09:52:47.99Z</time>
      </trkpt>
      <trkpt lat="46.016" lon="4.69054">
        <ele>213.5</ele>
        <time>2015-10-25T09:52:48.966Z</time>
      </trkpt>
      <trkpt lat="46.01602" lon="4.69049">
        <ele>213.5</ele>
        <time>2015-10-25T09:52:49.993Z</time>
      </trkpt>
      <trkpt lat="46.01604" lon="4.69043">
        <ele>213.800003052</ele>
        <time>2015-10-25T09:52:50.964Z</time>
      </trkpt>
      <trkpt lat="46.01606" lon="4.69037">
        <ele>214.600006104</ele>
        <time>2015-10-25T09:52:51.997Z</time>
      </trkpt>
      <trkpt lat="46.01607" lon="4.6903">
        <ele>215.300003052</ele>
        <time>2015-10-25T09:52:52.964Z</time>
      </trkpt>
      <trkpt lat="46.0161" lon="4.69025">
        <ele>214.800003052</ele>
        <time>2015-10-25T09:52:54.003Z</time>
      </trkpt>
      <trkpt lat="46.01613" lon="4.69019">
        <ele>214.600006104</ele>
        <time>2015-10-25T09:52:54.967Z</time>
      </trkpt>
      <trkpt lat="46.01616" lon="4.69013">
        <ele>214.5</ele>
        <time>2015-10-25T09:52:56.005Z</time>
      </trkpt>
      <trkpt lat="46.01618" lon="4.69007">
        <ele>214.699996948</ele>
        <time>2015-10-25T09:52:56.963Z</time>
      </trkpt>
      <trkpt lat="46.01621" lon="4.69001">
        <ele>215.100006104</ele>
        <time>2015-10-25T09:52:57.992Z</time>
      </trkpt>
      <trkpt lat="46.01623" lon="4.68994">
        <ele>215.300003052</ele>
        <time>2015-10-25T09:52:58.989Z</time>
      </trkpt>
      <trkpt lat="46.01626" lon="4.68988">
        <ele>215.399993896</ele>
        <time>2015-10-25T09:52:59.994Z</time>
      </trkpt>
      <trkpt lat="46.01629" lon="4.68981">
        <ele>215.300003052</ele>
        <time>2015-10-25T09:53:00.967Z</time>
      </trkpt>
      <trkpt lat="46.01632" lon="4.68974">
        <ele>215.199996948</ele>
        <time>2015-10-25T09:53:01.993Z</time>
      </trkpt>
      <trkpt lat="46.01634" lon="4.68968">
        <ele>215.300003052</ele>
        <time>2015-10-25T09:53:02.962Z</time>
      </trkpt>
      <trkpt lat="46.01636" lon="4.68962">
        <ele>215.199996948</ele>
        <time>2015-10-25T09:53:03.997Z</time>
      </trkpt>
      <trkpt lat="46.01639" lon="4.68955">
        <ele>215.199996948</ele>
        <time>2015-10-25T09:53:04.966Z</time>
      </trkpt>
      <trkpt lat="46.01642" lon="4.68949">
        <ele>215.199996948</ele>
        <time>2015-10-25T09:53:05.99Z</time>
      </trkpt>
      <trkpt lat="46.01644" lon="4.68942">
        <ele>215.399993896</ele>
        <time>2015-10-25T09:53:06.966Z</time>
      </trkpt>
      <trkpt lat="46.01648" lon="4.68936">
        <ele>215.199996948</ele>
        <time>2015-10-25T09:53:08.05Z</time>
      </trkpt>
      <trkpt lat="46.01651" lon="4.68931">
        <ele>215</ele>
        <time>2015-10-25T09:53:08.963Z</time>
      </trkpt>
      <trkpt lat="46.01654" lon="4.68925">
        <ele>214.600006104</ele>
        <time>2015-10-25T09:53:09.996Z</time>
      </trkpt>
      <trkpt lat="46.01657" lon="4.68918">
        <ele>214.699996948</ele>
        <time>2015-10-25T09:53:10.966Z</time>
      </trkpt>
      <trkpt lat="46.0166" lon="4.68911">
        <ele>214.699996948</ele>
        <time>2015-10-25T09:53:11.993Z</time>
      </trkpt>
      <trkpt lat="46.01662" lon="4.68904">
        <ele>214.600006104</ele>
        <time>2015-10-25T09:53:12.966Z</time>
      </trkpt>
      <trkpt lat="46.01666" lon="4.68897">
        <ele>214.199996948</ele>
        <time>2015-10-25T09:53:13.992Z</time>
      </trkpt>
      <trkpt lat="46.01668" lon="4.68891">
        <ele>214.300003052</ele>
        <time>2015-10-25T09:53:14.969Z</time>
      </trkpt>
      <trkpt lat="46.01671" lon="4.68884">
        <ele>214.300003052</ele>
        <time>2015-10-25T09:53:15.999Z</time>
      </trkpt>
      <trkpt lat="46.01673" lon="4.68878">
        <ele>214.199996948</ele>
        <time>2015-10-25T09:53:16.962Z</time>
      </trkpt>
      <trkpt lat="46.01675" lon="4.68872">
        <ele>214.100006104</ele>
        <time>2015-10-25T09:53:18.024Z</time>
      </trkpt>
      <trkpt lat="46.01678" lon="4.68866">
        <ele>213.699996948</ele>
        <time>2015-10-25T09:53:18.966Z</time>
      </trkpt>
      <trkpt lat="46.01681" lon="4.6886">
        <ele>213.5</ele>
        <time>2015-10-25T09:53:19.99Z</time>
      </trkpt>
      <trkpt lat="46.01683" lon="4.68854">
        <ele>213.300003052</ele>
        <time>2015-10-25T09:53:20.962Z</time>
      </trkpt>
      <trkpt lat="46.01686" lon="4.68847">
        <ele>213</ele>
        <time>2015-10-25T09:53:22.01Z</time>
      </trkpt>
      <trkpt lat="46.01689" lon="4.68841">
        <ele>212.5</ele>
        <time>2015-10-25T09:53:22.966Z</time>
      </trkpt>
      <trkpt lat="46.01692" lon="4.68835">
        <ele>211.600006104</ele>
        <time>2015-10-25T09:53:23.991Z</time>
      </trkpt>
      <trkpt lat="46.01695" lon="4.68828">
        <ele>211.399993896</ele>
        <time>2015-10-25T09:53:24.963Z</time>
      </trkpt>
      <trkpt lat="46.01698" lon="4.68822">
        <ele>211.199996948</ele>
        <time>2015-10-25T09:53:25.994Z</time>
      </trkpt>
      <trkpt lat="46.01701" lon="4.68815">
        <ele>211.199996948</ele>
        <time>2015-10-25T09:53:26.961Z</time>
      </trkpt>
      <trkpt lat="46.01703" lon="4.68808">
        <ele>211.100006104</ele>
        <time>2015-10-25T09:53:28.024Z</time>
      </trkpt>
      <trkpt lat="46.01706" lon="4.68802">
        <ele>211.199996948</ele>
        <time>2015-10-25T09:53:28.962Z</time>
      </trkpt>
      <trkpt lat="46.01708" lon="4.68795">
        <ele>211.600006104</ele>
        <time>2015-10-25T09:53:29.993Z</time>
      </trkpt>
      <trkpt lat="46.01711" lon="4.68788">
        <ele>211.399993896</ele>
        <time>2015-10-25T09:53:30.964Z</time>
      </trkpt>
      <trkpt lat="46.01714" lon="4.68781">
        <ele>211.399993896</ele>
        <time>2015-10-25T09:53:31.999Z</time>
      </trkpt>
      <trkpt lat="46.01717" lon="4.68774">
        <ele>211.300003052</ele>
        <time>2015-10-25T09:53:32.965Z</time>
      </trkpt>
      <trkpt lat="46.0172" lon="4.68768">
        <ele>211.199996948</ele>
        <time>2015-10-25T09:53:33.994Z</time>
      </trkpt>
      <trkpt lat="46.01724" lon="4.68761">
        <ele>211.100006104</ele>
        <time>2015-10-25T09:53:34.966Z</time>
      </trkpt>
      <trkpt lat="46.01726" lon="4.68755">
        <ele>211.100006104</ele>
        <time>2015-10-25T09:53:35.993Z</time>
      </trkpt>
      <trkpt lat="46.01729" lon="4.68748">
        <ele>211.300003052</ele>
        <time>2015-10-25T09:53:36.965Z</time>
      </trkpt>
      <trkpt lat="46.01732" lon="4.68741">
        <ele>211.100006104</ele>
        <time>2015-10-25T09:53:38.007Z</time>
      </trkpt>
      <trkpt lat="46.01735" lon="4.68734">
        <ele>211.199996948</ele>
        <time>2015-10-25T09:53:38.964Z</time>
      </trkpt>
      <trkpt lat="46.01738" lon="4.68727">
        <ele>211.100006104</ele>
        <time>2015-10-25T09:53:39.991Z</time>
      </trkpt>
      <trkpt lat="46.01741" lon="4.6872">
        <ele>211.199996948</ele>
        <time>2015-10-25T09:53:40.965Z</time>
      </trkpt>
      <trkpt lat="46.01744" lon="4.68713">
        <ele>211</ele>
        <time>2015-10-25T09:53:41.997Z</time>
      </trkpt>
      <trkpt lat="46.01747" lon="4.68707">
        <ele>210.899993896</ele>
        <time>2015-10-25T09:53:42.964Z</time>
      </trkpt>
      <trkpt lat="46.0175" lon="4.687">
        <ele>210.899993896</ele>
        <time>2015-10-25T09:53:43.992Z</time>
      </trkpt>
      <trkpt lat="46.01752" lon="4.68693">
        <ele>211</ele>
        <time>2015-10-25T09:53:44.963Z</time>
      </trkpt>
      <trkpt lat="46.01755" lon="4.68686">
        <ele>210.899993896</ele>
        <time>2015-10-25T09:53:45.992Z</time>
      </trkpt>
      <trkpt lat="46.01758" lon="4.68679">
        <ele>210.699996948</ele>
        <time>2015-10-25T09:53:46.968Z</time>
      </trkpt>
      <trkpt lat="46.0176" lon="4.68672">
        <ele>210.600006104</ele>
        <time>2015-10-25T09:53:48.044Z</time>
      </trkpt>
      <trkpt lat="46.01763" lon="4.68664">
        <ele>210.100006104</ele>
        <time>2015-10-25T09:53:48.966Z</time>
      </trkpt>
      <trkpt lat="46.01764" lon="4.68657">
        <ele>210.399993896</ele>
        <time>2015-10-25T09:53:49.988Z</time>
      </trkpt>
      <trkpt lat="46.01766" lon="4.68649">
        <ele>210.100006104</ele>
        <time>2015-10-25T09:53:50.962Z</time>
      </trkpt>
      <trkpt lat="46.01767" lon="4.68641">
        <ele>210.199996948</ele>
        <time>2015-10-25T09:53:52.013Z</time>
      </trkpt>
      <trkpt lat="46.01769" lon="4.68633">
        <ele>210.399993896</ele>
        <time>2015-10-25T09:53:52.966Z</time>
      </trkpt>
      <trkpt lat="46.0177" lon="4.68625">
        <ele>210.399993896</ele>
        <time>2015-10-25T09:53:54.007Z</time>
      </trkpt>
      <trkpt lat="46.01771" lon="4.68617">
        <ele>210.399993896</ele>
        <time>2015-10-25T09:53:55.001Z</time>
      </trkpt>
      <trkpt lat="46.01773" lon="4.68608">
        <ele>209.800003052</ele>
        <time>2015-10-25T09:53:55.993Z</time>
      </trkpt>
      <trkpt lat="46.01774" lon="4.686">
        <ele>209.699996948</ele>
        <time>2015-10-25T09:53:56.962Z</time>
      </trkpt>
      <trkpt lat="46.01775" lon="4.68591">
        <ele>208.899993896</ele>
        <time>2015-10-25T09:53:57.996Z</time>
      </trkpt>
      <trkpt lat="46.01776" lon="4.68583">
        <ele>208.199996948</ele>
        <time>2015-10-25T09:53:58.963Z</time>
      </trkpt>
      <trkpt lat="46.01778" lon="4.68574">
        <ele>207.5</ele>
        <time>2015-10-25T09:53:59.99Z</time>
      </trkpt>
      <trkpt lat="46.01778" lon="4.68566">
        <ele>207.300003052</ele>
        <time>2015-10-25T09:54:00.966Z</time>
      </trkpt>
      <trkpt lat="46.01779" lon="4.68556">
        <ele>206.800003052</ele>
        <time>2015-10-25T09:54:01.992Z</time>
      </trkpt>
      <trkpt lat="46.0178" lon="4.68547">
        <ele>206.5</ele>
        <time>2015-10-25T09:54:02.966Z</time>
      </trkpt>
      <trkpt lat="46.01781" lon="4.68539">
        <ele>206.199996948</ele>
        <time>2015-10-25T09:54:03.995Z</time>
      </trkpt>
      <trkpt lat="46.01782" lon="4.6853">
        <ele>206</ele>
        <time>2015-10-25T09:54:04.962Z</time>
      </trkpt>
      <trkpt lat="46.01783" lon="4.68521">
        <ele>206</ele>
        <time>2015-10-25T09:54:05.989Z</time>
      </trkpt>
      <trkpt lat="46.01785" lon="4.68512">
        <ele>206.199996948</ele>
        <time>2015-10-25T09:54:06.966Z</time>
      </trkpt>
      <trkpt lat="46.01786" lon="4.68503">
        <ele>206.199996948</ele>
        <time>2015-10-25T09:54:08.054Z</time>
      </trkpt>
      <trkpt lat="46.01787" lon="4.68494">
        <ele>206</ele>
        <time>2015-10-25T09:54:08.962Z</time>
      </trkpt>
      <trkpt lat="46.01788" lon="4.68484">
        <ele>205.699996948</ele>
        <time>2015-10-25T09:54:09.992Z</time>
      </trkpt>
      <trkpt lat="46.01789" lon="4.68474">
        <ele>205.600006104</ele>
        <time>2015-10-25T09:54:10.992Z</time>
      </trkpt>
      <trkpt lat="46.0179" lon="4.68465">
        <ele>205.199996948</ele>
        <time>2015-10-25T09:54:11.99Z</time>
      </trkpt>
      <trkpt lat="46.01791" lon="4.68455">
        <ele>205</ele>
        <time>2015-10-25T09:54:12.966Z</time>
      </trkpt>
      <trkpt lat="46.01792" lon="4.68445">
        <ele>204.699996948</ele>
        <time>2015-10-25T09:54:13.989Z</time>
      </trkpt>
      <trkpt lat="46.01793" lon="4.68435">
        <ele>204.699996948</ele>
        <time>2015-10-25T09:54:14.978Z</time>
      </trkpt>
      <trkpt lat="46.01795" lon="4.68425">
        <ele>204.5</ele>
        <time>2015-10-25T09:54:15.992Z</time>
      </trkpt>
      <trkpt lat="46.01796" lon="4.68416">
        <ele>204.399993896</ele>
        <time>2015-10-25T09:54:16.966Z</time>
      </trkpt>
      <trkpt lat="46.01798" lon="4.68406">
        <ele>204</ele>
        <time>2015-10-25T09:54:18.024Z</time>
      </trkpt>
      <trkpt lat="46.018" lon="4.68396">
        <ele>203.899993896</ele>
        <time>2015-10-25T09:54:18.963Z</time>
      </trkpt>
      <trkpt lat="46.01802" lon="4.68387">
        <ele>203.699996948</ele>
        <time>2015-10-25T09:54:20.006Z</time>
      </trkpt>
      <trkpt lat="46.01805" lon="4.68379">
        <ele>203.600006104</ele>
        <time>2015-10-25T09:54:20.966Z</time>
      </trkpt>
      <trkpt lat="46.01808" lon="4.68371">
        <ele>203.399993896</ele>
        <time>2015-10-25T09:54:21.991Z</time>
      </trkpt>
      <trkpt lat="46.0181" lon="4.68364">
        <ele>203.699996948</ele>
        <time>2015-10-25T09:54:22.962Z</time>
      </trkpt>
      <trkpt lat="46.01813" lon="4.68356">
        <ele>203.600006104</ele>
        <time>2015-10-25T09:54:23.994Z</time>
      </trkpt>
      <trkpt lat="46.01816" lon="4.68349">
        <ele>203.5</ele>
        <time>2015-10-25T09:54:24.965Z</time>
      </trkpt>
      <trkpt lat="46.0182" lon="4.68343">
        <ele>203.199996948</ele>
        <time>2015-10-25T09:54:25.989Z</time>
      </trkpt>
      <trkpt lat="46.01823" lon="4.68336">
        <ele>203</ele>
        <time>2015-10-25T09:54:26.962Z</time>
      </trkpt>
      <trkpt lat="46.01827" lon="4.6833">
        <ele>203.300003052</ele>
        <time>2015-10-25T09:54:27.992Z</time>
      </trkpt>
      <trkpt lat="46.0183" lon="4.68324">
        <ele>203.600006104</ele>
        <time>2015-10-25T09:54:28.982Z</time>
      </trkpt>
      <trkpt lat="46.01833" lon="4.68317">
        <ele>203.699996948</ele>
        <time>2015-10-25T09:54:29.989Z</time>
      </trkpt>
      <trkpt lat="46.01837" lon="4.68311">
        <ele>203.899993896</ele>
        <time>2015-10-25T09:54:30.962Z</time>
      </trkpt>
      <trkpt lat="46.0184" lon="4.68305">
        <ele>204.300003052</ele>
        <time>2015-10-25T09:54:31.989Z</time>
      </trkpt>
      <trkpt lat="46.01843" lon="4.68299">
        <ele>204.600006104</ele>
        <time>2015-10-25T09:54:32.968Z</time>
      </trkpt>
      <trkpt lat="46.01846" lon="4.68293">
        <ele>204.600006104</ele>
        <time>2015-10-25T09:54:33.995Z</time>
      </trkpt>
      <trkpt lat="46.0185" lon="4.68287">
        <ele>204.800003052</ele>
        <time>2015-10-25T09:54:34.966Z</time>
      </trkpt>
      <trkpt lat="46.01853" lon="4.68281">
        <ele>205.399993896</ele>
        <time>2015-10-25T09:54:36.003Z</time>
      </trkpt>
      <trkpt lat="46.01856" lon="4.68276">
        <ele>205.699996948</ele>
        <time>2015-10-25T09:54:36.962Z</time>
      </trkpt>
      <trkpt lat="46.01859" lon="4.68271">
        <ele>205.899993896</ele>
        <time>2015-10-25T09:54:37.989Z</time>
      </trkpt>
      <trkpt lat="46.01862" lon="4.68265">
        <ele>206</ele>
        <time>2015-10-25T09:54:39.048Z</time>
      </trkpt>
      <trkpt lat="46.01865" lon="4.68259">
        <ele>206.199996948</ele>
        <time>2015-10-25T09:54:39.991Z</time>
      </trkpt>
      <trkpt lat="46.01868" lon="4.68254">
        <ele>206.300003052</ele>
        <time>2015-10-25T09:54:40.962Z</time>
      </trkpt>
      <trkpt lat="46.01873" lon="4.68244">
        <ele>206.699996948</ele>
        <time>2015-10-25T09:54:42.993Z</time>
      </trkpt>
      <trkpt lat="46.01875" lon="4.68239">
        <ele>207.399993896</ele>
        <time>2015-10-25T09:54:43.962Z</time>
      </trkpt>
      <trkpt lat="46.0188" lon="4.68229">
        <ele>208.100006104</ele>
        <time>2015-10-25T09:54:45.992Z</time>
      </trkpt>
      <trkpt lat="46.01882" lon="4.68224">
        <ele>208.300003052</ele>
        <time>2015-10-25T09:54:46.962Z</time>
      </trkpt>
      <trkpt lat="46.01887" lon="4.68214">
        <ele>209.199996948</ele>
        <time>2015-10-25T09:54:48.989Z</time>
      </trkpt>
      <trkpt lat="46.01889" lon="4.68208">
        <ele>209.600006104</ele>
        <time>2015-10-25T09:54:49.962Z</time>
      </trkpt>
      <trkpt lat="46.01893" lon="4.68197">
        <ele>210.600006104</ele>
        <time>2015-10-25T09:54:51.992Z</time>
      </trkpt>
      <trkpt lat="46.01894" lon="4.68192">
        <ele>210.800003052</ele>
        <time>2015-10-25T09:54:52.962Z</time>
      </trkpt>
      <trkpt lat="46.01897" lon="4.68181">
        <ele>211</ele>
        <time>2015-10-25T09:54:54.989Z</time>
      </trkpt>
      <trkpt lat="46.01899" lon="4.68176">
        <ele>211.199996948</ele>
        <time>2015-10-25T09:54:55.962Z</time>
      </trkpt>
      <trkpt lat="46.01901" lon="4.68165">
        <ele>211.300003052</ele>
        <time>2015-10-25T09:54:57.991Z</time>
      </trkpt>
      <trkpt lat="46.01903" lon="4.6816">
        <ele>211.300003052</ele>
        <time>2015-10-25T09:54:58.964Z</time>
      </trkpt>
      <trkpt lat="46.01906" lon="4.68149">
        <ele>211.699996948</ele>
        <time>2015-10-25T09:55:00.989Z</time>
      </trkpt>
      <trkpt lat="46.01908" lon="4.68144">
        <ele>211.5</ele>
        <time>2015-10-25T09:55:01.963Z</time>
      </trkpt>
      <trkpt lat="46.0191" lon="4.68133">
        <ele>211.899993896</ele>
        <time>2015-10-25T09:55:03.992Z</time>
      </trkpt>
      <trkpt lat="46.01911" lon="4.68127">
        <ele>212</ele>
        <time>2015-10-25T09:55:04.963Z</time>
      </trkpt>
      <trkpt lat="46.01914" lon="4.68115">
        <ele>211.899993896</ele>
        <time>2015-10-25T09:55:06.989Z</time>
      </trkpt>
      <trkpt lat="46.01915" lon="4.6811">
        <ele>211.899993896</ele>
        <time>2015-10-25T09:55:07.962Z</time>
      </trkpt>
      <trkpt lat="46.01917" lon="4.68099">
        <ele>212.199996948</ele>
        <time>2015-10-25T09:55:09.991Z</time>
      </trkpt>
      <trkpt lat="46.01918" lon="4.68093">
        <ele>212.399993896</ele>
        <time>2015-10-25T09:55:10.962Z</time>
      </trkpt>
      <trkpt lat="46.0192" lon="4.68082">
        <ele>212.800003052</ele>
        <time>2015-10-25T09:55:13.007Z</time>
      </trkpt>
      <trkpt lat="46.0192" lon="4.68076">
        <ele>213.100006104</ele>
        <time>2015-10-25T09:55:13.962Z</time>
      </trkpt>
      <trkpt lat="46.01923" lon="4.68065">
        <ele>214.100006104</ele>
        <time>2015-10-25T09:55:15.994Z</time>
      </trkpt>
      <trkpt lat="46.01924" lon="4.68059">
        <ele>214.399993896</ele>
        <time>2015-10-25T09:55:16.963Z</time>
      </trkpt>
      <trkpt lat="46.01925" lon="4.68048">
        <ele>215</ele>
        <time>2015-10-25T09:55:18.992Z</time>
      </trkpt>
      <trkpt lat="46.01926" lon="4.68042">
        <ele>215.199996948</ele>
        <time>2015-10-25T09:55:19.964Z</time>
      </trkpt>
      <trkpt lat="46.01927" lon="4.68031">
        <ele>216</ele>
        <time>2015-10-25T09:55:21.991Z</time>
      </trkpt>
      <trkpt lat="46.01928" lon="4.68026">
        <ele>215.800003052</ele>
        <time>2015-10-25T09:55:22.963Z</time>
      </trkpt>
      <trkpt lat="46.0193" lon="4.68015">
        <ele>216.199996948</ele>
        <time>2015-10-25T09:55:25.032Z</time>
      </trkpt>
      <trkpt lat="46.01931" lon="4.68009">
        <ele>215.800003052</ele>
        <time>2015-10-25T09:55:25.967Z</time>
      </trkpt>
      <trkpt lat="46.01933" lon="4.67998">
        <ele>215.699996948</ele>
        <time>2015-10-25T09:55:27.991Z</time>
      </trkpt>
      <trkpt lat="46.01934" lon="4.67992">
        <ele>216.100006104</ele>
        <time>2015-10-25T09:55:28.966Z</time>
      </trkpt>
      <trkpt lat="46.01936" lon="4.67981">
        <ele>216.199996948</ele>
        <time>2015-10-25T09:55:30.989Z</time>
      </trkpt>
      <trkpt lat="46.01936" lon="4.67975">
        <ele>216.399993896</ele>
        <time>2015-10-25T09:55:31.962Z</time>
      </trkpt>
      <trkpt lat="46.01937" lon="4.67963">
        <ele>216.899993896</ele>
        <time>2015-10-25T09:55:33.991Z</time>
      </trkpt>
      <trkpt lat="46.01938" lon="4.67957">
        <ele>217.199996948</ele>
        <time>2015-10-25T09:55:34.962Z</time>
      </trkpt>
      <trkpt lat="46.01939" lon="4.67945">
        <ele>217.399993896</ele>
        <time>2015-10-25T09:55:36.989Z</time>
      </trkpt>
      <trkpt lat="46.0194" lon="4.67939">
        <ele>217.399993896</ele>
        <time>2015-10-25T09:55:37.986Z</time>
      </trkpt>
      <trkpt lat="46.01941" lon="4.67927">
        <ele>217.399993896</ele>
        <time>2015-10-25T09:55:40.025Z</time>
      </trkpt>
      <trkpt lat="46.01942" lon="4.67921">
        <ele>217.399993896</ele>
        <time>2015-10-25T09:55:40.963Z</time>
      </trkpt>
      <trkpt lat="46.01944" lon="4.67909">
        <ele>217.800003052</ele>
        <time>2015-10-25T09:55:42.994Z</time>
      </trkpt>
      <trkpt lat="46.01945" lon="4.67903">
        <ele>218</ele>
        <time>2015-10-25T09:55:43.989Z</time>
      </trkpt>
      <trkpt lat="46.01947" lon="4.67891">
        <ele>218.300003052</ele>
        <time>2015-10-25T09:55:46.084Z</time>
      </trkpt>
      <trkpt lat="46.01948" lon="4.67885">
        <ele>218.399993896</ele>
        <time>2015-10-25T09:55:46.968Z</time>
      </trkpt>
      <trkpt lat="46.0195" lon="4.67872">
        <ele>218.600006104</ele>
        <time>2015-10-25T09:55:48.988Z</time>
      </trkpt>
      <trkpt lat="46.01951" lon="4.67866">
        <ele>218.699996948</ele>
        <time>2015-10-25T09:55:49.966Z</time>
      </trkpt>
      <trkpt lat="46.01952" lon="4.67854">
        <ele>218.899993896</ele>
        <time>2015-10-25T09:55:51.998Z</time>
      </trkpt>
      <trkpt lat="46.01953" lon="4.67848">
        <ele>219</ele>
        <time>2015-10-25T09:55:52.962Z</time>
      </trkpt>
      <trkpt lat="46.01954" lon="4.67836">
        <ele>219.100006104</ele>
        <time>2015-10-25T09:55:55.03Z</time>
      </trkpt>
      <trkpt lat="46.01955" lon="4.6783">
        <ele>219</ele>
        <time>2015-10-25T09:55:55.966Z</time>
      </trkpt>
      <trkpt lat="46.01956" lon="4.67817">
        <ele>219</ele>
        <time>2015-10-25T09:55:58.028Z</time>
      </trkpt>
      <trkpt lat="46.01957" lon="4.67811">
        <ele>219</ele>
        <time>2015-10-25T09:55:58.967Z</time>
      </trkpt>
      <trkpt lat="46.01958" lon="4.67799">
        <ele>218.699996948</ele>
        <time>2015-10-25T09:56:00.992Z</time>
      </trkpt>
      <trkpt lat="46.01959" lon="4.67793">
        <ele>218.699996948</ele>
        <time>2015-10-25T09:56:01.962Z</time>
      </trkpt>
      <trkpt lat="46.01961" lon="4.67782">
        <ele>219.100006104</ele>
        <time>2015-10-25T09:56:03.991Z</time>
      </trkpt>
      <trkpt lat="46.01962" lon="4.67776">
        <ele>219.300003052</ele>
        <time>2015-10-25T09:56:04.963Z</time>
      </trkpt>
      <trkpt lat="46.01964" lon="4.67764">
        <ele>219.600006104</ele>
        <time>2015-10-25T09:56:06.992Z</time>
      </trkpt>
      <trkpt lat="46.01965" lon="4.67759">
        <ele>219.600006104</ele>
        <time>2015-10-25T09:56:07.962Z</time>
      </trkpt>
      <trkpt lat="46.01966" lon="4.67748">
        <ele>219.899993896</ele>
        <time>2015-10-25T09:56:09.991Z</time>
      </trkpt>
      <trkpt lat="46.01968" lon="4.67742">
        <ele>219.800003052</ele>
        <time>2015-10-25T09:56:10.962Z</time>
      </trkpt>
      <trkpt lat="46.01971" lon="4.67731">
        <ele>220.100006104</ele>
        <time>2015-10-25T09:56:12.989Z</time>
      </trkpt>
      <trkpt lat="46.01973" lon="4.67726">
        <ele>220.100006104</ele>
        <time>2015-10-25T09:56:13.963Z</time>
      </trkpt>
      <trkpt lat="46.01977" lon="4.67715">
        <ele>220.5</ele>
        <time>2015-10-25T09:56:15.991Z</time>
      </trkpt>
      <trkpt lat="46.01979" lon="4.6771">
        <ele>220.699996948</ele>
        <time>2015-10-25T09:56:16.965Z</time>
      </trkpt>
      <trkpt lat="46.01982" lon="4.677">
        <ele>220.399993896</ele>
        <time>2015-10-25T09:56:18.989Z</time>
      </trkpt>
      <trkpt lat="46.01984" lon="4.67695">
        <ele>220.399993896</ele>
        <time>2015-10-25T09:56:19.977Z</time>
      </trkpt>
      <trkpt lat="46.01989" lon="4.67685">
        <ele>220.600006104</ele>
        <time>2015-10-25T09:56:22.05Z</time>
      </trkpt>
      <trkpt lat="46.01991" lon="4.6768">
        <ele>220.699996948</ele>
        <time>2015-10-25T09:56:23.003Z</time>
      </trkpt>
      <trkpt lat="46.01995" lon="4.6767">
        <ele>220.899993896</ele>
        <time>2015-10-25T09:56:24.988Z</time>
      </trkpt>
      <trkpt lat="46.01998" lon="4.67665">
        <ele>221</ele>
        <time>2015-10-25T09:56:25.963Z</time>
      </trkpt>
      <trkpt lat="46.02001" lon="4.6766">
        <ele>221</ele>
        <time>2015-10-25T09:56:26.998Z</time>
      </trkpt>
      <trkpt lat="46.02004" lon="4.67654">
        <ele>221</ele>
        <time>2015-10-25T09:56:27.965Z</time>
      </trkpt>
      <trkpt lat="46.02009" lon="4.67645">
        <ele>221</ele>
        <time>2015-10-25T09:56:29.989Z</time>
      </trkpt>
      <trkpt lat="46.02012" lon="4.6764">
        <ele>221.100006104</ele>
        <time>2015-10-25T09:56:30.985Z</time>
      </trkpt>
      <trkpt lat="46.02015" lon="4.67635">
        <ele>221.100006104</ele>
        <time>2015-10-25T09:56:31.995Z</time>
      </trkpt>
      <trkpt lat="46.02019" lon="4.67631">
        <ele>221.100006104</ele>
        <time>2015-10-25T09:56:32.956Z</time>
      </trkpt>
      <trkpt lat="46.02026" lon="4.67622">
        <ele>220.899993896</ele>
        <time>2015-10-25T09:56:34.989Z</time>
      </trkpt>
      <trkpt lat="46.02029" lon="4.67618">
        <ele>220.800003052</ele>
        <time>2015-10-25T09:56:35.963Z</time>
      </trkpt>
      <trkpt lat="46.02033" lon="4.67613">
        <ele>220.699996948</ele>
        <time>2015-10-25T09:56:36.992Z</time>
      </trkpt>
      <trkpt lat="46.02036" lon="4.67608">
        <ele>220.699996948</ele>
        <time>2015-10-25T09:56:37.964Z</time>
      </trkpt>
      <trkpt lat="46.0204" lon="4.67603">
        <ele>220.600006104</ele>
        <time>2015-10-25T09:56:38.992Z</time>
      </trkpt>
      <trkpt lat="46.02043" lon="4.67598">
        <ele>220.5</ele>
        <time>2015-10-25T09:56:39.964Z</time>
      </trkpt>
      <trkpt lat="46.02047" lon="4.67593">
        <ele>220.5</ele>
        <time>2015-10-25T09:56:40.992Z</time>
      </trkpt>
      <trkpt lat="46.0205" lon="4.67588">
        <ele>220.399993896</ele>
        <time>2015-10-25T09:56:41.976Z</time>
      </trkpt>
      <trkpt lat="46.02054" lon="4.67583">
        <ele>220.300003052</ele>
        <time>2015-10-25T09:56:42.991Z</time>
      </trkpt>
      <trkpt lat="46.02058" lon="4.67578">
        <ele>220.199996948</ele>
        <time>2015-10-25T09:56:43.962Z</time>
      </trkpt>
      <trkpt lat="46.02062" lon="4.67573">
        <ele>220.100006104</ele>
        <time>2015-10-25T09:56:44.989Z</time>
      </trkpt>
      <trkpt lat="46.02066" lon="4.67568">
        <ele>220.199996948</ele>
        <time>2015-10-25T09:56:45.968Z</time>
      </trkpt>
      <trkpt lat="46.02069" lon="4.67563">
        <ele>220.199996948</ele>
        <time>2015-10-25T09:56:47.009Z</time>
      </trkpt>
      <trkpt lat="46.02073" lon="4.67558">
        <ele>220.199996948</ele>
        <time>2015-10-25T09:56:47.967Z</time>
      </trkpt>
      <trkpt lat="46.02077" lon="4.67553">
        <ele>220.399993896</ele>
        <time>2015-10-25T09:56:49.014Z</time>
      </trkpt>
      <trkpt lat="46.02081" lon="4.67547">
        <ele>220.5</ele>
        <time>2015-10-25T09:56:49.962Z</time>
      </trkpt>
      <trkpt lat="46.02085" lon="4.67542">
        <ele>220.800003052</ele>
        <time>2015-10-25T09:56:51.022Z</time>
      </trkpt>
      <trkpt lat="46.02089" lon="4.67536">
        <ele>221.100006104</ele>
        <time>2015-10-25T09:56:51.965Z</time>
      </trkpt>
      <trkpt lat="46.02092" lon="4.67531">
        <ele>221.199996948</ele>
        <time>2015-10-25T09:56:52.992Z</time>
      </trkpt>
      <trkpt lat="46.02096" lon="4.67526">
        <ele>221.300003052</ele>
        <time>2015-10-25T09:56:53.962Z</time>
      </trkpt>
      <trkpt lat="46.02099" lon="4.67521">
        <ele>221.399993896</ele>
        <time>2015-10-25T09:56:54.992Z</time>
      </trkpt>
      <trkpt lat="46.02103" lon="4.67516">
        <ele>221.699996948</ele>
        <time>2015-10-25T09:56:55.962Z</time>
      </trkpt>
      <trkpt lat="46.02107" lon="4.6751">
        <ele>221.600006104</ele>
        <time>2015-10-25T09:56:56.989Z</time>
      </trkpt>
      <trkpt lat="46.02111" lon="4.67505">
        <ele>221.699996948</ele>
        <time>2015-10-25T09:56:57.966Z</time>
      </trkpt>
      <trkpt lat="46.02115" lon="4.675">
        <ele>221.699996948</ele>
        <time>2015-10-25T09:56:58.988Z</time>
      </trkpt>
      <trkpt lat="46.02119" lon="4.67495">
        <ele>221.800003052</ele>
        <time>2015-10-25T09:56:59.962Z</time>
      </trkpt>
      <trkpt lat="46.02123" lon="4.6749">
        <ele>221.800003052</ele>
        <time>2015-10-25T09:57:00.992Z</time>
      </trkpt>
      <trkpt lat="46.02127" lon="4.67485">
        <ele>222.100006104</ele>
        <time>2015-10-25T09:57:01.962Z</time>
      </trkpt>
      <trkpt lat="46.02131" lon="4.6748">
        <ele>222.100006104</ele>
        <time>2015-10-25T09:57:03.035Z</time>
      </trkpt>
      <trkpt lat="46.02135" lon="4.67474">
        <ele>222.100006104</ele>
        <time>2015-10-25T09:57:03.964Z</time>
      </trkpt>
      <trkpt lat="46.02139" lon="4.67469">
        <ele>222.199996948</ele>
        <time>2015-10-25T09:57:04.99Z</time>
      </trkpt>
      <trkpt lat="46.02143" lon="4.67463">
        <ele>222.5</ele>
        <time>2015-10-25T09:57:05.963Z</time>
      </trkpt>
      <trkpt lat="46.02146" lon="4.67458">
        <ele>222.100006104</ele>
        <time>2015-10-25T09:57:06.988Z</time>
      </trkpt>
      <trkpt lat="46.0215" lon="4.67453">
        <ele>222.300003052</ele>
        <time>2015-10-25T09:57:07.962Z</time>
      </trkpt>
      <trkpt lat="46.02154" lon="4.67448">
        <ele>222.300003052</ele>
        <time>2015-10-25T09:57:08.995Z</time>
      </trkpt>
      <trkpt lat="46.02158" lon="4.67443">
        <ele>222.5</ele>
        <time>2015-10-25T09:57:09.969Z</time>
      </trkpt>
      <trkpt lat="46.02162" lon="4.67438">
        <ele>222.399993896</ele>
        <time>2015-10-25T09:57:10.989Z</time>
      </trkpt>
      <trkpt lat="46.02166" lon="4.67433">
        <ele>222.600006104</ele>
        <time>2015-10-25T09:57:11.962Z</time>
      </trkpt>
      <trkpt lat="46.0217" lon="4.67428">
        <ele>222.5</ele>
        <time>2015-10-25T09:57:12.992Z</time>
      </trkpt>
      <trkpt lat="46.02174" lon="4.67423">
        <ele>222.699996948</ele>
        <time>2015-10-25T09:57:13.962Z</time>
      </trkpt>
      <trkpt lat="46.02178" lon="4.67419">
        <ele>222.800003052</ele>
        <time>2015-10-25T09:57:14.998Z</time>
      </trkpt>
      <trkpt lat="46.02181" lon="4.67414">
        <ele>223.5</ele>
        <time>2015-10-25T09:57:15.965Z</time>
      </trkpt>
      <trkpt lat="46.02187" lon="4.67404">
        <ele>224.100006104</ele>
        <time>2015-10-25T09:57:18.002Z</time>
      </trkpt>
      <trkpt lat="46.02189" lon="4.67399">
        <ele>224.199996948</ele>
        <time>2015-10-25T09:57:18.98Z</time>
      </trkpt>
      <trkpt lat="46.02194" lon="4.67389">
        <ele>224.600006104</ele>
        <time>2015-10-25T09:57:20.992Z</time>
      </trkpt>
      <trkpt lat="46.02196" lon="4.67383">
        <ele>225.100006104</ele>
        <time>2015-10-25T09:57:21.965Z</time>
      </trkpt>
      <trkpt lat="46.022" lon="4.67373">
        <ele>226</ele>
        <time>2015-10-25T09:57:24.027Z</time>
      </trkpt>
      <trkpt lat="46.02201" lon="4.67368">
        <ele>226.100006104</ele>
        <time>2015-10-25T09:57:24.967Z</time>
      </trkpt>
      <trkpt lat="46.02204" lon="4.67357">
        <ele>226.5</ele>
        <time>2015-10-25T09:57:26.989Z</time>
      </trkpt>
      <trkpt lat="46.02205" lon="4.67352">
        <ele>226.699996948</ele>
        <time>2015-10-25T09:57:27.965Z</time>
      </trkpt>
      <trkpt lat="46.02207" lon="4.6734">
        <ele>226.899993896</ele>
        <time>2015-10-25T09:57:29.989Z</time>
      </trkpt>
      <trkpt lat="46.02208" lon="4.67334">
        <ele>227</ele>
        <time>2015-10-25T09:57:30.963Z</time>
      </trkpt>
      <trkpt lat="46.02211" lon="4.67324">
        <ele>226.800003052</ele>
        <time>2015-10-25T09:57:32.99Z</time>
      </trkpt>
      <trkpt lat="46.02212" lon="4.67318">
        <ele>226.800003052</ele>
        <time>2015-10-25T09:57:34.025Z</time>
      </trkpt>
      <trkpt lat="46.02213" lon="4.67308">
        <ele>227</ele>
        <time>2015-10-25T09:57:35.993Z</time>
      </trkpt>
      <trkpt lat="46.02214" lon="4.67302">
        <ele>227.100006104</ele>
        <time>2015-10-25T09:57:36.966Z</time>
      </trkpt>
      <trkpt lat="46.02216" lon="4.67292">
        <ele>227.199996948</ele>
        <time>2015-10-25T09:57:38.992Z</time>
      </trkpt>
      <trkpt lat="46.02216" lon="4.67287">
        <ele>227.5</ele>
        <time>2015-10-25T09:57:39.965Z</time>
      </trkpt>
      <trkpt lat="46.02218" lon="4.67277">
        <ele>228.199996948</ele>
        <time>2015-10-25T09:57:42.059Z</time>
      </trkpt>
      <trkpt lat="46.02219" lon="4.67272">
        <ele>228.600006104</ele>
        <time>2015-10-25T09:57:42.962Z</time>
      </trkpt>
      <trkpt lat="46.0222" lon="4.67262">
        <ele>228.5</ele>
        <time>2015-10-25T09:57:45.01Z</time>
      </trkpt>
      <trkpt lat="46.02221" lon="4.67257">
        <ele>228.699996948</ele>
        <time>2015-10-25T09:57:45.969Z</time>
      </trkpt>
      <trkpt lat="46.02223" lon="4.67248">
        <ele>229.199996948</ele>
        <time>2015-10-25T09:57:47.989Z</time>
      </trkpt>
      <trkpt lat="46.02223" lon="4.67243">
        <ele>229.399993896</ele>
        <time>2015-10-25T09:57:48.962Z</time>
      </trkpt>
      <trkpt lat="46.02225" lon="4.67234">
        <ele>229.699996948</ele>
        <time>2015-10-25T09:57:50.988Z</time>
      </trkpt>
      <trkpt lat="46.02225" lon="4.67229">
        <ele>229.899993896</ele>
        <time>2015-10-25T09:57:51.964Z</time>
      </trkpt>
      <trkpt lat="46.02228" lon="4.67219">
        <ele>230.199996948</ele>
        <time>2015-10-25T09:57:53.993Z</time>
      </trkpt>
      <trkpt lat="46.02228" lon="4.67213">
        <ele>230.5</ele>
        <time>2015-10-25T09:57:54.964Z</time>
      </trkpt>
      <trkpt lat="46.02229" lon="4.67203">
        <ele>231</ele>
        <time>2015-10-25T09:57:56.989Z</time>
      </trkpt>
      <trkpt lat="46.0223" lon="4.67197">
        <ele>231.199996948</ele>
        <time>2015-10-25T09:57:57.967Z</time>
      </trkpt>
      <trkpt lat="46.02233" lon="4.67187">
        <ele>231.800003052</ele>
        <time>2015-10-25T09:57:59.991Z</time>
      </trkpt>
      <trkpt lat="46.02234" lon="4.67181">
        <ele>232</ele>
        <time>2015-10-25T09:58:00.967Z</time>
      </trkpt>
      <trkpt lat="46.02237" lon="4.6717">
        <ele>232.300003052</ele>
        <time>2015-10-25T09:58:02.99Z</time>
      </trkpt>
      <trkpt lat="46.02237" lon="4.67165">
        <ele>232.399993896</ele>
        <time>2015-10-25T09:58:03.965Z</time>
      </trkpt>
      <trkpt lat="46.02239" lon="4.67154">
        <ele>232.5</ele>
        <time>2015-10-25T09:58:05.989Z</time>
      </trkpt>
      <trkpt lat="46.02241" lon="4.67148">
        <ele>232.800003052</ele>
        <time>2015-10-25T09:58:06.965Z</time>
      </trkpt>
      <trkpt lat="46.02243" lon="4.67138">
        <ele>233.199996948</ele>
        <time>2015-10-25T09:58:08.99Z</time>
      </trkpt>
      <trkpt lat="46.02245" lon="4.67133">
        <ele>233.5</ele>
        <time>2015-10-25T09:58:10.006Z</time>
      </trkpt>
      <trkpt lat="46.02248" lon="4.67123">
        <ele>234.199996948</ele>
        <time>2015-10-25T09:58:11.99Z</time>
      </trkpt>
      <trkpt lat="46.0225" lon="4.67118">
        <ele>234.600006104</ele>
        <time>2015-10-25T09:58:12.962Z</time>
      </trkpt>
      <trkpt lat="46.02253" lon="4.67108">
        <ele>234.699996948</ele>
        <time>2015-10-25T09:58:15.003Z</time>
      </trkpt>
      <trkpt lat="46.02254" lon="4.67103">
        <ele>234.800003052</ele>
        <time>2015-10-25T09:58:15.982Z</time>
      </trkpt>
      <trkpt lat="46.02257" lon="4.67092">
        <ele>235</ele>
        <time>2015-10-25T09:58:17.993Z</time>
      </trkpt>
      <trkpt lat="46.02258" lon="4.67087">
        <ele>235.600006104</ele>
        <time>2015-10-25T09:58:18.961Z</time>
      </trkpt>
      <trkpt lat="46.0226" lon="4.67077">
        <ele>236.100006104</ele>
        <time>2015-10-25T09:58:21.174Z</time>
      </trkpt>
      <trkpt lat="46.02261" lon="4.67073">
        <ele>236.399993896</ele>
        <time>2015-10-25T09:58:21.968Z</time>
      </trkpt>
      <trkpt lat="46.02264" lon="4.67063">
        <ele>237</ele>
        <time>2015-10-25T09:58:23.99Z</time>
      </trkpt>
      <trkpt lat="46.02265" lon="4.67058">
        <ele>237.100006104</ele>
        <time>2015-10-25T09:58:24.966Z</time>
      </trkpt>
      <trkpt lat="46.02267" lon="4.67049">
        <ele>237.199996948</ele>
        <time>2015-10-25T09:58:26.992Z</time>
      </trkpt>
      <trkpt lat="46.02268" lon="4.67044">
        <ele>237.300003052</ele>
        <time>2015-10-25T09:58:27.967Z</time>
      </trkpt>
      <trkpt lat="46.02269" lon="4.67034">
        <ele>237.5</ele>
        <time>2015-10-25T09:58:29.993Z</time>
      </trkpt>
      <trkpt lat="46.0227" lon="4.67029">
        <ele>238</ele>
        <time>2015-10-25T09:58:30.963Z</time>
      </trkpt>
      <trkpt lat="46.02272" lon="4.67018">
        <ele>238.300003052</ele>
        <time>2015-10-25T09:58:32.989Z</time>
      </trkpt>
      <trkpt lat="46.02272" lon="4.67012">
        <ele>238.399993896</ele>
        <time>2015-10-25T09:58:33.968Z</time>
      </trkpt>
      <trkpt lat="46.02273" lon="4.67002">
        <ele>238.699996948</ele>
        <time>2015-10-25T09:58:35.99Z</time>
      </trkpt>
      <trkpt lat="46.02274" lon="4.66996">
        <ele>238.899993896</ele>
        <time>2015-10-25T09:58:36.963Z</time>
      </trkpt>
      <trkpt lat="46.02275" lon="4.66986">
        <ele>238.899993896</ele>
        <time>2015-10-25T09:58:38.989Z</time>
      </trkpt>
      <trkpt lat="46.02276" lon="4.66981">
        <ele>239.100006104</ele>
        <time>2015-10-25T09:58:40.054Z</time>
      </trkpt>
      <trkpt lat="46.02276" lon="4.66971">
        <ele>239.600006104</ele>
        <time>2015-10-25T09:58:41.99Z</time>
      </trkpt>
      <trkpt lat="46.02276" lon="4.66966">
        <ele>239.800003052</ele>
        <time>2015-10-25T09:58:42.963Z</time>
      </trkpt>
      <trkpt lat="46.02277" lon="4.66955">
        <ele>240.399993896</ele>
        <time>2015-10-25T09:58:44.989Z</time>
      </trkpt>
      <trkpt lat="46.02278" lon="4.6695">
        <ele>240.300003052</ele>
        <time>2015-10-25T09:58:45.966Z</time>
      </trkpt>
      <trkpt lat="46.02279" lon="4.66941">
        <ele>240.300003052</ele>
        <time>2015-10-25T09:58:48.024Z</time>
      </trkpt>
      <trkpt lat="46.02279" lon="4.66936">
        <ele>240.399993896</ele>
        <time>2015-10-25T09:58:48.962Z</time>
      </trkpt>
      <trkpt lat="46.02279" lon="4.66926">
        <ele>240.800003052</ele>
        <time>2015-10-25T09:58:51.063Z</time>
      </trkpt>
      <trkpt lat="46.02279" lon="4.6692">
        <ele>240.800003052</ele>
        <time>2015-10-25T09:58:51.965Z</time>
      </trkpt>
      <trkpt lat="46.02281" lon="4.6691">
        <ele>241.199996948</ele>
        <time>2015-10-25T09:58:53.994Z</time>
      </trkpt>
      <trkpt lat="46.02281" lon="4.66905">
        <ele>240.699996948</ele>
        <time>2015-10-25T09:58:54.963Z</time>
      </trkpt>
      <trkpt lat="46.02282" lon="4.66895">
        <ele>241.399993896</ele>
        <time>2015-10-25T09:58:56.989Z</time>
      </trkpt>
      <trkpt lat="46.02283" lon="4.6689">
        <ele>241.5</ele>
        <time>2015-10-25T09:58:57.965Z</time>
      </trkpt>
      <trkpt lat="46.02285" lon="4.6688">
        <ele>240.800003052</ele>
        <time>2015-10-25T09:58:59.99Z</time>
      </trkpt>
      <trkpt lat="46.02286" lon="4.66874">
        <ele>240.899993896</ele>
        <time>2015-10-25T09:59:00.963Z</time>
      </trkpt>
      <trkpt lat="46.02288" lon="4.66864">
        <ele>240.5</ele>
        <time>2015-10-25T09:59:02.992Z</time>
      </trkpt>
      <trkpt lat="46.0229" lon="4.66859">
        <ele>240.600006104</ele>
        <time>2015-10-25T09:59:03.966Z</time>
      </trkpt>
      <trkpt lat="46.02292" lon="4.66848">
        <ele>240.600006104</ele>
        <time>2015-10-25T09:59:05.994Z</time>
      </trkpt>
      <trkpt lat="46.02293" lon="4.66843">
        <ele>240.899993896</ele>
        <time>2015-10-25T09:59:06.966Z</time>
      </trkpt>
      <trkpt lat="46.02296" lon="4.66834">
        <ele>241.399993896</ele>
        <time>2015-10-25T09:59:08.989Z</time>
      </trkpt>
      <trkpt lat="46.02297" lon="4.6683">
        <ele>241.699996948</ele>
        <time>2015-10-25T09:59:09.948Z</time>
      </trkpt>
      <trkpt lat="46.02301" lon="4.6682">
        <ele>241.800003052</ele>
        <time>2015-10-25T09:59:11.99Z</time>
      </trkpt>
      <trkpt lat="46.02302" lon="4.66816">
        <ele>241.800003052</ele>
        <time>2015-10-25T09:59:12.994Z</time>
      </trkpt>
      <trkpt lat="46.02305" lon="4.66806">
        <ele>241.899993896</ele>
        <time>2015-10-25T09:59:14.992Z</time>
      </trkpt>
      <trkpt lat="46.02306" lon="4.66801">
        <ele>241.899993896</ele>
        <time>2015-10-25T09:59:15.97Z</time>
      </trkpt>
      <trkpt lat="46.0231" lon="4.66792">
        <ele>241.699996948</ele>
        <time>2015-10-25T09:59:17.99Z</time>
      </trkpt>
      <trkpt lat="46.02311" lon="4.66787">
        <ele>241.800003052</ele>
        <time>2015-10-25T09:59:18.967Z</time>
      </trkpt>
      <trkpt lat="46.02315" lon="4.66777">
        <ele>242.199996948</ele>
        <time>2015-10-25T09:59:20.989Z</time>
      </trkpt>
      <trkpt lat="46.02317" lon="4.66772">
        <ele>242.100006104</ele>
        <time>2015-10-25T09:59:21.966Z</time>
      </trkpt>
      <trkpt lat="46.0232" lon="4.66763">
        <ele>242.399993896</ele>
        <time>2015-10-25T09:59:24.027Z</time>
      </trkpt>
      <trkpt lat="46.02321" lon="4.66759">
        <ele>242.699996948</ele>
        <time>2015-10-25T09:59:24.967Z</time>
      </trkpt>
      <trkpt lat="46.02325" lon="4.66749">
        <ele>242.899993896</ele>
        <time>2015-10-25T09:59:26.99Z</time>
      </trkpt>
      <trkpt lat="46.02327" lon="4.66745">
        <ele>243.100006104</ele>
        <time>2015-10-25T09:59:27.966Z</time>
      </trkpt>
      <trkpt lat="46.0233" lon="4.66736">
        <ele>243.5</ele>
        <time>2015-10-25T09:59:29.99Z</time>
      </trkpt>
      <trkpt lat="46.02332" lon="4.66732">
        <ele>243.800003052</ele>
        <time>2015-10-25T09:59:31Z</time>
      </trkpt>
      <trkpt lat="46.02336" lon="4.66723">
        <ele>244.100006104</ele>
        <time>2015-10-25T09:59:32.989Z</time>
      </trkpt>
      <trkpt lat="46.02338" lon="4.66718">
        <ele>244.199996948</ele>
        <time>2015-10-25T09:59:33.966Z</time>
      </trkpt>
      <trkpt lat="46.02342" lon="4.66709">
        <ele>244.199996948</ele>
        <time>2015-10-25T09:59:35.99Z</time>
      </trkpt>
      <trkpt lat="46.02344" lon="4.66704">
        <ele>244.199996948</ele>
        <time>2015-10-25T09:59:36.964Z</time>
      </trkpt>
      <trkpt lat="46.02347" lon="4.66695">
        <ele>244.399993896</ele>
        <time>2015-10-25T09:59:38.99Z</time>
      </trkpt>
      <trkpt lat="46.02349" lon="4.6669">
        <ele>244.5</ele>
        <time>2015-10-25T09:59:39.966Z</time>
      </trkpt>
      <trkpt lat="46.02353" lon="4.66681">
        <ele>244.600006104</ele>
        <time>2015-10-25T09:59:41.989Z</time>
      </trkpt>
      <trkpt lat="46.02355" lon="4.66676">
        <ele>244.699996948</ele>
        <time>2015-10-25T09:59:42.962Z</time>
      </trkpt>
      <trkpt lat="46.02358" lon="4.66667">
        <ele>244.800003052</ele>
        <time>2015-10-25T09:59:45.074Z</time>
      </trkpt>
      <trkpt lat="46.0236" lon="4.66662">
        <ele>245</ele>
        <time>2015-10-25T09:59:45.967Z</time>
      </trkpt>
      <trkpt lat="46.02363" lon="4.66652">
        <ele>245.100006104</ele>
        <time>2015-10-25T09:59:47.99Z</time>
      </trkpt>
      <trkpt lat="46.02365" lon="4.66648">
        <ele>245.300003052</ele>
        <time>2015-10-25T09:59:48.963Z</time>
      </trkpt>
      <trkpt lat="46.02369" lon="4.66639">
        <ele>245.699996948</ele>
        <time>2015-10-25T09:59:50.99Z</time>
      </trkpt>
      <trkpt lat="46.0237" lon="4.66635">
        <ele>245.899993896</ele>
        <time>2015-10-25T09:59:51.982Z</time>
      </trkpt>
      <trkpt lat="46.02374" lon="4.66626">
        <ele>246.600006104</ele>
        <time>2015-10-25T09:59:53.99Z</time>
      </trkpt>
      <trkpt lat="46.02375" lon="4.66622">
        <ele>246.800003052</ele>
        <time>2015-10-25T09:59:54.966Z</time>
      </trkpt>
      <trkpt lat="46.02378" lon="4.66613">
        <ele>247.399993896</ele>
        <time>2015-10-25T09:59:56.989Z</time>
      </trkpt>
      <trkpt lat="46.0238" lon="4.66609">
        <ele>247.699996948</ele>
        <time>2015-10-25T09:59:57.965Z</time>
      </trkpt>
      <trkpt lat="46.02384" lon="4.66601">
        <ele>248.199996948</ele>
        <time>2015-10-25T09:59:59.993Z</time>
      </trkpt>
      <trkpt lat="46.02386" lon="4.66597">
        <ele>248.399993896</ele>
        <time>2015-10-25T10:00:00.976Z</time>
      </trkpt>
      <trkpt lat="46.0239" lon="4.66588">
        <ele>249</ele>
        <time>2015-10-25T10:00:03.049Z</time>
      </trkpt>
      <trkpt lat="46.02391" lon="4.66584">
        <ele>249.300003052</ele>
        <time>2015-10-25T10:00:03.966Z</time>
      </trkpt>
      <trkpt lat="46.02395" lon="4.66575">
        <ele>249.699996948</ele>
        <time>2015-10-25T10:00:06.034Z</time>
      </trkpt>
      <trkpt lat="46.02396" lon="4.6657">
        <ele>250</ele>
        <time>2015-10-25T10:00:06.963Z</time>
      </trkpt>
      <trkpt lat="46.024" lon="4.66562">
        <ele>250.699996948</ele>
        <time>2015-10-25T10:00:08.989Z</time>
      </trkpt>
      <trkpt lat="46.02401" lon="4.66557">
        <ele>251</ele>
        <time>2015-10-25T10:00:09.966Z</time>
      </trkpt>
      <trkpt lat="46.02404" lon="4.66547">
        <ele>251.899993896</ele>
        <time>2015-10-25T10:00:11.992Z</time>
      </trkpt>
      <trkpt lat="46.02406" lon="4.66543">
        <ele>252.300003052</ele>
        <time>2015-10-25T10:00:13.027Z</time>
      </trkpt>
      <trkpt lat="46.02409" lon="4.66533">
        <ele>253.300003052</ele>
        <time>2015-10-25T10:00:14.992Z</time>
      </trkpt>
      <trkpt lat="46.0241" lon="4.66528">
        <ele>253.600006104</ele>
        <time>2015-10-25T10:00:15.969Z</time>
      </trkpt>
      <trkpt lat="46.02413" lon="4.66517">
        <ele>253.899993896</ele>
        <time>2015-10-25T10:00:17.992Z</time>
      </trkpt>
      <trkpt lat="46.02415" lon="4.66511">
        <ele>254.199996948</ele>
        <time>2015-10-25T10:00:18.963Z</time>
      </trkpt>
      <trkpt lat="46.02418" lon="4.66501">
        <ele>253.800003052</ele>
        <time>2015-10-25T10:00:20.989Z</time>
      </trkpt>
      <trkpt lat="46.0242" lon="4.66496">
        <ele>253.800003052</ele>
        <time>2015-10-25T10:00:21.964Z</time>
      </trkpt>
      <trkpt lat="46.02422" lon="4.66485">
        <ele>253.300003052</ele>
        <time>2015-10-25T10:00:24.022Z</time>
      </trkpt>
      <trkpt lat="46.02424" lon="4.66479">
        <ele>253.399993896</ele>
        <time>2015-10-25T10:00:24.963Z</time>
      </trkpt>
      <trkpt lat="46.02426" lon="4.66468">
        <ele>253.300003052</ele>
        <time>2015-10-25T10:00:26.988Z</time>
      </trkpt>
      <trkpt lat="46.02427" lon="4.66464">
        <ele>253.399993896</ele>
        <time>2015-10-25T10:00:27.996Z</time>
      </trkpt>
      <trkpt lat="46.0243" lon="4.66454">
        <ele>253.5</ele>
        <time>2015-10-25T10:00:30.008Z</time>
      </trkpt>
      <trkpt lat="46.02431" lon="4.66448">
        <ele>252.800003052</ele>
        <time>2015-10-25T10:00:30.976Z</time>
      </trkpt>
      <trkpt lat="46.02434" lon="4.66436">
        <ele>252</ele>
        <time>2015-10-25T10:00:32.992Z</time>
      </trkpt>
      <trkpt lat="46.02436" lon="4.66431">
        <ele>251.800003052</ele>
        <time>2015-10-25T10:00:33.968Z</time>
      </trkpt>
      <trkpt lat="46.02438" lon="4.66419">
        <ele>251</ele>
        <time>2015-10-25T10:00:36.019Z</time>
      </trkpt>
      <trkpt lat="46.0244" lon="4.66413">
        <ele>250.600006104</ele>
        <time>2015-10-25T10:00:36.969Z</time>
      </trkpt>
      <trkpt lat="46.02443" lon="4.66402">
        <ele>250.399993896</ele>
        <time>2015-10-25T10:00:39.028Z</time>
      </trkpt>
      <trkpt lat="46.02444" lon="4.66396">
        <ele>250.300003052</ele>
        <time>2015-10-25T10:00:39.965Z</time>
      </trkpt>
      <trkpt lat="46.02446" lon="4.6639">
        <ele>250.300003052</ele>
        <time>2015-10-25T10:00:41.074Z</time>
      </trkpt>
      <trkpt lat="46.02447" lon="4.66384">
        <ele>250.199996948</ele>
        <time>2015-10-25T10:00:41.989Z</time>
      </trkpt>
      <trkpt lat="46.02451" lon="4.66372">
        <ele>250.899993896</ele>
        <time>2015-10-25T10:00:43.988Z</time>
      </trkpt>
      <trkpt lat="46.02453" lon="4.66367">
        <ele>251</ele>
        <time>2015-10-25T10:00:44.962Z</time>
      </trkpt>
      <trkpt lat="46.02457" lon="4.66356">
        <ele>251.300003052</ele>
        <time>2015-10-25T10:00:47.005Z</time>
      </trkpt>
      <trkpt lat="46.02459" lon="4.6635">
        <ele>251.399993896</ele>
        <time>2015-10-25T10:00:47.966Z</time>
      </trkpt>
      <trkpt lat="46.02461" lon="4.66344">
        <ele>251.199996948</ele>
        <time>2015-10-25T10:00:49Z</time>
      </trkpt>
      <trkpt lat="46.02463" lon="4.66338">
        <ele>251.399993896</ele>
        <time>2015-10-25T10:00:49.963Z</time>
      </trkpt>
      <trkpt lat="46.02465" lon="4.66331">
        <ele>251.300003052</ele>
        <time>2015-10-25T10:00:51.034Z</time>
      </trkpt>
      <trkpt lat="46.02467" lon="4.66325">
        <ele>251.199996948</ele>
        <time>2015-10-25T10:00:51.969Z</time>
      </trkpt>
      <trkpt lat="46.02471" lon="4.66314">
        <ele>251.399993896</ele>
        <time>2015-10-25T10:00:53.994Z</time>
      </trkpt>
      <trkpt lat="46.02472" lon="4.66308">
        <ele>251.699996948</ele>
        <time>2015-10-25T10:00:54.963Z</time>
      </trkpt>
      <trkpt lat="46.02475" lon="4.66297">
        <ele>251.800003052</ele>
        <time>2015-10-25T10:00:56.997Z</time>
      </trkpt>
      <trkpt lat="46.02477" lon="4.66291">
        <ele>251.800003052</ele>
        <time>2015-10-25T10:00:57.965Z</time>
      </trkpt>
      <trkpt lat="46.02479" lon="4.66285">
        <ele>251.699996948</ele>
        <time>2015-10-25T10:00:59.006Z</time>
      </trkpt>
      <trkpt lat="46.02481" lon="4.66279">
        <ele>251.699996948</ele>
        <time>2015-10-25T10:00:59.967Z</time>
      </trkpt>
      <trkpt lat="46.02482" lon="4.66273">
        <ele>251.5</ele>
        <time>2015-10-25T10:01:00.999Z</time>
      </trkpt>
      <trkpt lat="46.02484" lon="4.66267">
        <ele>251.199996948</ele>
        <time>2015-10-25T10:01:01.962Z</time>
      </trkpt>
      <trkpt lat="46.02486" lon="4.6626">
        <ele>251.100006104</ele>
        <time>2015-10-25T10:01:02.995Z</time>
      </trkpt>
      <trkpt lat="46.02488" lon="4.66254">
        <ele>251.300003052</ele>
        <time>2015-10-25T10:01:03.98Z</time>
      </trkpt>
      <trkpt lat="46.0249" lon="4.66247">
        <ele>251.399993896</ele>
        <time>2015-10-25T10:01:04.993Z</time>
      </trkpt>
      <trkpt lat="46.02491" lon="4.66241">
        <ele>251.5</ele>
        <time>2015-10-25T10:01:05.963Z</time>
      </trkpt>
      <trkpt lat="46.02491" lon="4.66233">
        <ele>251.100006104</ele>
        <time>2015-10-25T10:01:06.989Z</time>
      </trkpt>
      <trkpt lat="46.02492" lon="4.66226">
        <ele>250.699996948</ele>
        <time>2015-10-25T10:01:07.962Z</time>
      </trkpt>
      <trkpt lat="46.02493" lon="4.66219">
        <ele>249.899993896</ele>
        <time>2015-10-25T10:01:08.989Z</time>
      </trkpt>
      <trkpt lat="46.02493" lon="4.66212">
        <ele>249.699996948</ele>
        <time>2015-10-25T10:01:09.964Z</time>
      </trkpt>
      <trkpt lat="46.02494" lon="4.66205">
        <ele>249.5</ele>
        <time>2015-10-25T10:01:10.992Z</time>
      </trkpt>
      <trkpt lat="46.02494" lon="4.66198">
        <ele>249.5</ele>
        <time>2015-10-25T10:01:11.967Z</time>
      </trkpt>
      <trkpt lat="46.02496" lon="4.66191">
        <ele>250.199996948</ele>
        <time>2015-10-25T10:01:12.989Z</time>
      </trkpt>
      <trkpt lat="46.02497" lon="4.66184">
        <ele>249.5</ele>
        <time>2015-10-25T10:01:13.966Z</time>
      </trkpt>
      <trkpt lat="46.02499" lon="4.66177">
        <ele>248.600006104</ele>
        <time>2015-10-25T10:01:14.989Z</time>
      </trkpt>
      <trkpt lat="46.025" lon="4.66169">
        <ele>248.600006104</ele>
        <time>2015-10-25T10:01:15.965Z</time>
      </trkpt>
      <trkpt lat="46.02501" lon="4.66161">
        <ele>248.5</ele>
        <time>2015-10-25T10:01:17.029Z</time>
      </trkpt>
      <trkpt lat="46.02502" lon="4.66152">
        <ele>248.300003052</ele>
        <time>2015-10-25T10:01:17.963Z</time>
      </trkpt>
      <trkpt lat="46.02503" lon="4.66143">
        <ele>248</ele>
        <time>2015-10-25T10:01:18.992Z</time>
      </trkpt>
      <trkpt lat="46.02505" lon="4.66134">
        <ele>247.800003052</ele>
        <time>2015-10-25T10:01:19.963Z</time>
      </trkpt>
      <trkpt lat="46.02506" lon="4.66125">
        <ele>247.699996948</ele>
        <time>2015-10-25T10:01:20.989Z</time>
      </trkpt>
      <trkpt lat="46.02507" lon="4.66116">
        <ele>247.699996948</ele>
        <time>2015-10-25T10:01:21.965Z</time>
      </trkpt>
      <trkpt lat="46.02508" lon="4.66107">
        <ele>247.300003052</ele>
        <time>2015-10-25T10:01:22.989Z</time>
      </trkpt>
      <trkpt lat="46.02509" lon="4.66097">
        <ele>247.100006104</ele>
        <time>2015-10-25T10:01:23.963Z</time>
      </trkpt>
      <trkpt lat="46.0251" lon="4.66088">
        <ele>246.800003052</ele>
        <time>2015-10-25T10:01:25.003Z</time>
      </trkpt>
      <trkpt lat="46.02511" lon="4.66078">
        <ele>246.5</ele>
        <time>2015-10-25T10:01:25.962Z</time>
      </trkpt>
      <trkpt lat="46.02512" lon="4.66068">
        <ele>246.300003052</ele>
        <time>2015-10-25T10:01:27.026Z</time>
      </trkpt>
      <trkpt lat="46.02512" lon="4.66057">
        <ele>246.100006104</ele>
        <time>2015-10-25T10:01:27.965Z</time>
      </trkpt>
      <trkpt lat="46.02513" lon="4.66046">
        <ele>246.300003052</ele>
        <time>2015-10-25T10:01:28.992Z</time>
      </trkpt>
      <trkpt lat="46.02513" lon="4.66035">
        <ele>246.600006104</ele>
        <time>2015-10-25T10:01:29.968Z</time>
      </trkpt>
      <trkpt lat="46.02513" lon="4.66024">
        <ele>246.699996948</ele>
        <time>2015-10-25T10:01:30.992Z</time>
      </trkpt>
      <trkpt lat="46.02514" lon="4.66012">
        <ele>246.699996948</ele>
        <time>2015-10-25T10:01:31.962Z</time>
      </trkpt>
      <trkpt lat="46.02514" lon="4.66">
        <ele>246.5</ele>
        <time>2015-10-25T10:01:32.989Z</time>
      </trkpt>
      <trkpt lat="46.02514" lon="4.65989">
        <ele>246.699996948</ele>
        <time>2015-10-25T10:01:33.968Z</time>
      </trkpt>
      <trkpt lat="46.02515" lon="4.65976">
        <ele>246.5</ele>
        <time>2015-10-25T10:01:35.026Z</time>
      </trkpt>
      <trkpt lat="46.02515" lon="4.65964">
        <ele>246.300003052</ele>
        <time>2015-10-25T10:01:35.962Z</time>
      </trkpt>
      <trkpt lat="46.02515" lon="4.65952">
        <ele>245.800003052</ele>
        <time>2015-10-25T10:01:36.99Z</time>
      </trkpt>
      <trkpt lat="46.02515" lon="4.65939">
        <ele>245.199996948</ele>
        <time>2015-10-25T10:01:37.966Z</time>
      </trkpt>
      <trkpt lat="46.02515" lon="4.65927">
        <ele>245</ele>
        <time>2015-10-25T10:01:38.989Z</time>
      </trkpt>
      <trkpt lat="46.02515" lon="4.65914">
        <ele>244.399993896</ele>
        <time>2015-10-25T10:01:39.964Z</time>
      </trkpt>
      <trkpt lat="46.02516" lon="4.65902">
        <ele>244</ele>
        <time>2015-10-25T10:01:40.992Z</time>
      </trkpt>
      <trkpt lat="46.02516" lon="4.65889">
        <ele>243.699996948</ele>
        <time>2015-10-25T10:01:41.963Z</time>
      </trkpt>
      <trkpt lat="46.02516" lon="4.65876">
        <ele>243.300003052</ele>
        <time>2015-10-25T10:01:42.99Z</time>
      </trkpt>
      <trkpt lat="46.02516" lon="4.65864">
        <ele>243.100006104</ele>
        <time>2015-10-25T10:01:43.963Z</time>
      </trkpt>
      <trkpt lat="46.02516" lon="4.65851">
        <ele>242.600006104</ele>
        <time>2015-10-25T10:01:44.989Z</time>
      </trkpt>
      <trkpt lat="46.02516" lon="4.65838">
        <ele>242.300003052</ele>
        <time>2015-10-25T10:01:45.985Z</time>
      </trkpt>
      <trkpt lat="46.02517" lon="4.65826">
        <ele>242.300003052</ele>
        <time>2015-10-25T10:01:46.994Z</time>
      </trkpt>
      <trkpt lat="46.02517" lon="4.65813">
        <ele>242.100006104</ele>
        <time>2015-10-25T10:01:47.966Z</time>
      </trkpt>
      <trkpt lat="46.02517" lon="4.65813">
        <ele>242.100006104</ele>
        <time>2015-10-25T10:01:47.994Z</time>
      </trkpt>
      <trkpt lat="46.02518" lon="4.658">
        <ele>241.699996948</ele>
        <time>2015-10-25T10:01:48.989Z</time>
      </trkpt>
      <trkpt lat="46.02518" lon="4.658">
        <ele>241.699996948</ele>
        <time>2015-10-25T10:01:49.035Z</time>
      </trkpt>
      <trkpt lat="46.02518" lon="4.65787">
        <ele>241.5</ele>
        <time>2015-10-25T10:01:49.963Z</time>
      </trkpt>
      <trkpt lat="46.02518" lon="4.65787">
        <ele>241.5</ele>
        <time>2015-10-25T10:01:50.023Z</time>
      </trkpt>
      <trkpt lat="46.02518" lon="4.65774">
        <ele>241.399993896</ele>
        <time>2015-10-25T10:01:51.024Z</time>
      </trkpt>
      <trkpt lat="46.02519" lon="4.65761">
        <ele>241.100006104</ele>
        <time>2015-10-25T10:01:51.991Z</time>
      </trkpt>
      <trkpt lat="46.0252" lon="4.65748">
        <ele>240.800003052</ele>
        <time>2015-10-25T10:01:53.013Z</time>
      </trkpt>
      <trkpt lat="46.0252" lon="4.65736">
        <ele>240.5</ele>
        <time>2015-10-25T10:01:53.998Z</time>
      </trkpt>
      <trkpt lat="46.0252" lon="4.65724">
        <ele>240</ele>
        <time>2015-10-25T10:01:54.969Z</time>
      </trkpt>
      <trkpt lat="46.02521" lon="4.65713">
        <ele>239.800003052</ele>
        <time>2015-10-25T10:01:55.996Z</time>
      </trkpt>
      <trkpt lat="46.02521" lon="4.65702">
        <ele>239.699996948</ele>
        <time>2015-10-25T10:01:56.967Z</time>
      </trkpt>
      <trkpt lat="46.02522" lon="4.6569">
        <ele>239.399993896</ele>
        <time>2015-10-25T10:01:57.994Z</time>
      </trkpt>
      <trkpt lat="46.02522" lon="4.65679">
        <ele>239.199996948</ele>
        <time>2015-10-25T10:01:58.964Z</time>
      </trkpt>
      <trkpt lat="46.02523" lon="4.65669">
        <ele>239</ele>
        <time>2015-10-25T10:01:59.989Z</time>
      </trkpt>
      <trkpt lat="46.02523" lon="4.65658">
        <ele>238.699996948</ele>
        <time>2015-10-25T10:02:00.963Z</time>
      </trkpt>
      <trkpt lat="46.02524" lon="4.65648">
        <ele>238.800003052</ele>
        <time>2015-10-25T10:02:02.011Z</time>
      </trkpt>
      <trkpt lat="46.02524" lon="4.65638">
        <ele>238.399993896</ele>
        <time>2015-10-25T10:02:02.962Z</time>
      </trkpt>
      <trkpt lat="46.02525" lon="4.65628">
        <ele>238.300003052</ele>
        <time>2015-10-25T10:02:03.995Z</time>
      </trkpt>
      <trkpt lat="46.02525" lon="4.65619">
        <ele>238.300003052</ele>
        <time>2015-10-25T10:02:04.967Z</time>
      </trkpt>
      <trkpt lat="46.02527" lon="4.6561">
        <ele>238.5</ele>
        <time>2015-10-25T10:02:05.993Z</time>
      </trkpt>
      <trkpt lat="46.02528" lon="4.65601">
        <ele>238.600006104</ele>
        <time>2015-10-25T10:02:06.964Z</time>
      </trkpt>
      <trkpt lat="46.0253" lon="4.65592">
        <ele>238.399993896</ele>
        <time>2015-10-25T10:02:07.989Z</time>
      </trkpt>
      <trkpt lat="46.02532" lon="4.65583">
        <ele>238.399993896</ele>
        <time>2015-10-25T10:02:08.963Z</time>
      </trkpt>
      <trkpt lat="46.02533" lon="4.65574">
        <ele>238.399993896</ele>
        <time>2015-10-25T10:02:10.02Z</time>
      </trkpt>
      <trkpt lat="46.02535" lon="4.65565">
        <ele>238.600006104</ele>
        <time>2015-10-25T10:02:10.963Z</time>
      </trkpt>
      <trkpt lat="46.02537" lon="4.65557">
        <ele>239</ele>
        <time>2015-10-25T10:02:11.989Z</time>
      </trkpt>
      <trkpt lat="46.02539" lon="4.65549">
        <ele>239.100006104</ele>
        <time>2015-10-25T10:02:12.966Z</time>
      </trkpt>
      <trkpt lat="46.0254" lon="4.65541">
        <ele>239.399993896</ele>
        <time>2015-10-25T10:02:13.992Z</time>
      </trkpt>
      <trkpt lat="46.02542" lon="4.65534">
        <ele>239.600006104</ele>
        <time>2015-10-25T10:02:14.966Z</time>
      </trkpt>
      <trkpt lat="46.02543" lon="4.65527">
        <ele>239.800003052</ele>
        <time>2015-10-25T10:02:15.991Z</time>
      </trkpt>
      <trkpt lat="46.02544" lon="4.65519">
        <ele>239.600006104</ele>
        <time>2015-10-25T10:02:16.963Z</time>
      </trkpt>
      <trkpt lat="46.02545" lon="4.65513">
        <ele>239.699996948</ele>
        <time>2015-10-25T10:02:18.006Z</time>
      </trkpt>
      <trkpt lat="46.02545" lon="4.65506">
        <ele>239.600006104</ele>
        <time>2015-10-25T10:02:18.964Z</time>
      </trkpt>
      <trkpt lat="46.02545" lon="4.65499">
        <ele>239.899993896</ele>
        <time>2015-10-25T10:02:19.992Z</time>
      </trkpt>
      <trkpt lat="46.02546" lon="4.65492">
        <ele>240.100006104</ele>
        <time>2015-10-25T10:02:20.968Z</time>
      </trkpt>
      <trkpt lat="46.02546" lon="4.6548">
        <ele>240.199996948</ele>
        <time>2015-10-25T10:02:22.989Z</time>
      </trkpt>
      <trkpt lat="46.02546" lon="4.65474">
        <ele>240.300003052</ele>
        <time>2015-10-25T10:02:23.964Z</time>
      </trkpt>
      <trkpt lat="46.02546" lon="4.65468">
        <ele>240.899993896</ele>
        <time>2015-10-25T10:02:24.989Z</time>
      </trkpt>
      <trkpt lat="46.02546" lon="4.65461">
        <ele>240.699996948</ele>
        <time>2015-10-25T10:02:25.962Z</time>
      </trkpt>
      <trkpt lat="46.02546" lon="4.65448">
        <ele>240.399993896</ele>
        <time>2015-10-25T10:02:28.046Z</time>
      </trkpt>
      <trkpt lat="46.02546" lon="4.65442">
        <ele>240.300003052</ele>
        <time>2015-10-25T10:02:28.963Z</time>
      </trkpt>
      <trkpt lat="46.02545" lon="4.6543">
        <ele>240.5</ele>
        <time>2015-10-25T10:02:30.989Z</time>
      </trkpt>
      <trkpt lat="46.02545" lon="4.65422">
        <ele>240.5</ele>
        <time>2015-10-25T10:02:31.966Z</time>
      </trkpt>
      <trkpt lat="46.02545" lon="4.65415">
        <ele>240.300003052</ele>
        <time>2015-10-25T10:02:33.005Z</time>
      </trkpt>
      <trkpt lat="46.02545" lon="4.65409">
        <ele>240.399993896</ele>
        <time>2015-10-25T10:02:33.964Z</time>
      </trkpt>
      <trkpt lat="46.02548" lon="4.65397">
        <ele>241.100006104</ele>
        <time>2015-10-25T10:02:36.028Z</time>
      </trkpt>
      <trkpt lat="46.0255" lon="4.65391">
        <ele>241.100006104</ele>
        <time>2015-10-25T10:02:36.966Z</time>
      </trkpt>
      <trkpt lat="46.02553" lon="4.65386">
        <ele>241.300003052</ele>
        <time>2015-10-25T10:02:37.997Z</time>
      </trkpt>
      <trkpt lat="46.02556" lon="4.65381">
        <ele>241.300003052</ele>
        <time>2015-10-25T10:02:38.976Z</time>
      </trkpt>
      <trkpt lat="46.0256" lon="4.65376">
        <ele>241.399993896</ele>
        <time>2015-10-25T10:02:39.991Z</time>
      </trkpt>
      <trkpt lat="46.02564" lon="4.65372">
        <ele>241.600006104</ele>
        <time>2015-10-25T10:02:40.966Z</time>
      </trkpt>
      <trkpt lat="46.02568" lon="4.65368">
        <ele>241.899993896</ele>
        <time>2015-10-25T10:02:42.074Z</time>
      </trkpt>
      <trkpt lat="46.02571" lon="4.65363">
        <ele>242.300003052</ele>
        <time>2015-10-25T10:02:42.966Z</time>
      </trkpt>
      <trkpt lat="46.02575" lon="4.65359">
        <ele>242.5</ele>
        <time>2015-10-25T10:02:43.989Z</time>
      </trkpt>
      <trkpt lat="46.02579" lon="4.65354">
        <ele>242.899993896</ele>
        <time>2015-10-25T10:02:44.966Z</time>
      </trkpt>
      <trkpt lat="46.02582" lon="4.6535">
        <ele>243.199996948</ele>
        <time>2015-10-25T10:02:46.002Z</time>
      </trkpt>
      <trkpt lat="46.02586" lon="4.65346">
        <ele>243.199996948</ele>
        <time>2015-10-25T10:02:46.972Z</time>
      </trkpt>
      <trkpt lat="46.02592" lon="4.65339">
        <ele>243.699996948</ele>
        <time>2015-10-25T10:02:49.049Z</time>
      </trkpt>
      <trkpt lat="46.02596" lon="4.65336">
        <ele>243.899993896</ele>
        <time>2015-10-25T10:02:49.964Z</time>
      </trkpt>
      <trkpt lat="46.02602" lon="4.6533">
        <ele>244.300003052</ele>
        <time>2015-10-25T10:02:51.995Z</time>
      </trkpt>
      <trkpt lat="46.02607" lon="4.6533">
        <ele>242.899993896</ele>
        <time>2015-10-25T10:02:52.966Z</time>
      </trkpt>
      <trkpt lat="46.02613" lon="4.65326">
        <ele>242</ele>
        <time>2015-10-25T10:02:54.989Z</time>
      </trkpt>
      <trkpt lat="46.02615" lon="4.65323">
        <ele>242.300003052</ele>
        <time>2015-10-25T10:02:55.966Z</time>
      </trkpt>
      <trkpt lat="46.02618" lon="4.65313">
        <ele>242.399993896</ele>
        <time>2015-10-25T10:02:57.994Z</time>
      </trkpt>
      <trkpt lat="46.02619" lon="4.65308">
        <ele>242.399993896</ele>
        <time>2015-10-25T10:02:59.014Z</time>
      </trkpt>
      <trkpt lat="46.02619" lon="4.65295">
        <ele>242.5</ele>
        <time>2015-10-25T10:03:01.104Z</time>
      </trkpt>
      <trkpt lat="46.0262" lon="4.6529">
        <ele>242.199996948</ele>
        <time>2015-10-25T10:03:02.01Z</time>
      </trkpt>
      <trkpt lat="46.02619" lon="4.65278">
        <ele>242.300003052</ele>
        <time>2015-10-25T10:03:04.104Z</time>
      </trkpt>
      <trkpt lat="46.02619" lon="4.65271">
        <ele>242.899993896</ele>
        <time>2015-10-25T10:03:05.099Z</time>
      </trkpt>
      <trkpt lat="46.02617" lon="4.6526">
        <ele>243</ele>
        <time>2015-10-25T10:03:07.094Z</time>
      </trkpt>
      <trkpt lat="46.02616" lon="4.65254">
        <ele>242.5</ele>
        <time>2015-10-25T10:03:07.965Z</time>
      </trkpt>
      <trkpt lat="46.02614" lon="4.65243">
        <ele>242.5</ele>
        <time>2015-10-25T10:03:09.994Z</time>
      </trkpt>
      <trkpt lat="46.02612" lon="4.65237">
        <ele>242.699996948</ele>
        <time>2015-10-25T10:03:10.964Z</time>
      </trkpt>
      <trkpt lat="46.02609" lon="4.65225">
        <ele>242.800003052</ele>
        <time>2015-10-25T10:03:13.034Z</time>
      </trkpt>
      <trkpt lat="46.02608" lon="4.65219">
        <ele>242.600006104</ele>
        <time>2015-10-25T10:03:13.963Z</time>
      </trkpt>
      <trkpt lat="46.02607" lon="4.65213">
        <ele>242.399993896</ele>
        <time>2015-10-25T10:03:14.989Z</time>
      </trkpt>
      <trkpt lat="46.02605" lon="4.65207">
        <ele>242.399993896</ele>
        <time>2015-10-25T10:03:15.982Z</time>
      </trkpt>
      <trkpt lat="46.02602" lon="4.65195">
        <ele>242.800003052</ele>
        <time>2015-10-25T10:03:17.993Z</time>
      </trkpt>
      <trkpt lat="46.026" lon="4.65189">
        <ele>243</ele>
        <time>2015-10-25T10:03:18.962Z</time>
      </trkpt>
      <trkpt lat="46.02599" lon="4.65183">
        <ele>242.800003052</ele>
        <time>2015-10-25T10:03:19.992Z</time>
      </trkpt>
      <trkpt lat="46.02597" lon="4.65176">
        <ele>243</ele>
        <time>2015-10-25T10:03:20.963Z</time>
      </trkpt>
      <trkpt lat="46.02594" lon="4.6517">
        <ele>243.399993896</ele>
        <time>2015-10-25T10:03:21.992Z</time>
      </trkpt>
      <trkpt lat="46.02592" lon="4.65164">
        <ele>243.699996948</ele>
        <time>2015-10-25T10:03:22.963Z</time>
      </trkpt>
      <trkpt lat="46.02588" lon="4.65154">
        <ele>243.699996948</ele>
        <time>2015-10-25T10:03:24.993Z</time>
      </trkpt>
      <trkpt lat="46.02586" lon="4.65148">
        <ele>243.899993896</ele>
        <time>2015-10-25T10:03:25.963Z</time>
      </trkpt>
      <trkpt lat="46.02583" lon="4.65137">
        <ele>244.600006104</ele>
        <time>2015-10-25T10:03:27.994Z</time>
      </trkpt>
      <trkpt lat="46.02582" lon="4.6513">
        <ele>244.899993896</ele>
        <time>2015-10-25T10:03:28.963Z</time>
      </trkpt>
      <trkpt lat="46.0258" lon="4.65124">
        <ele>245.100006104</ele>
        <time>2015-10-25T10:03:30.011Z</time>
      </trkpt>
      <trkpt lat="46.02578" lon="4.65118">
        <ele>245</ele>
        <time>2015-10-25T10:03:31.005Z</time>
      </trkpt>
      <trkpt lat="46.02577" lon="4.65112">
        <ele>245.199996948</ele>
        <time>2015-10-25T10:03:31.989Z</time>
      </trkpt>
      <trkpt lat="46.02575" lon="4.65105">
        <ele>245.199996948</ele>
        <time>2015-10-25T10:03:32.963Z</time>
      </trkpt>
      <trkpt lat="46.02573" lon="4.65093">
        <ele>245.5</ele>
        <time>2015-10-25T10:03:34.993Z</time>
      </trkpt>
      <trkpt lat="46.02572" lon="4.65088">
        <ele>245.699996948</ele>
        <time>2015-10-25T10:03:35.976Z</time>
      </trkpt>
      <trkpt lat="46.02569" lon="4.65077">
        <ele>245.699996948</ele>
        <time>2015-10-25T10:03:37.992Z</time>
      </trkpt>
      <trkpt lat="46.02567" lon="4.65071">
        <ele>245.699996948</ele>
        <time>2015-10-25T10:03:38.966Z</time>
      </trkpt>
      <trkpt lat="46.02563" lon="4.6506">
        <ele>245.800003052</ele>
        <time>2015-10-25T10:03:41.033Z</time>
      </trkpt>
      <trkpt lat="46.0256" lon="4.65054">
        <ele>246</ele>
        <time>2015-10-25T10:03:41.966Z</time>
      </trkpt>
      <trkpt lat="46.02558" lon="4.65048">
        <ele>246.100006104</ele>
        <time>2015-10-25T10:03:43.001Z</time>
      </trkpt>
      <trkpt lat="46.02556" lon="4.65042">
        <ele>246</ele>
        <time>2015-10-25T10:03:43.963Z</time>
      </trkpt>
      <trkpt lat="46.02552" lon="4.6503">
        <ele>246.899993896</ele>
        <time>2015-10-25T10:03:46.002Z</time>
      </trkpt>
      <trkpt lat="46.02551" lon="4.65025">
        <ele>247.199996948</ele>
        <time>2015-10-25T10:03:46.984Z</time>
      </trkpt>
      <trkpt lat="46.02548" lon="4.65016">
        <ele>248</ele>
        <time>2015-10-25T10:03:48.993Z</time>
      </trkpt>
      <trkpt lat="46.02546" lon="4.65011">
        <ele>248.100006104</ele>
        <time>2015-10-25T10:03:49.966Z</time>
      </trkpt>
      <trkpt lat="46.02542" lon="4.65002">
        <ele>248.399993896</ele>
        <time>2015-10-25T10:03:51.99Z</time>
      </trkpt>
      <trkpt lat="46.0254" lon="4.64997">
        <ele>248.5</ele>
        <time>2015-10-25T10:03:52.966Z</time>
      </trkpt>
      <trkpt lat="46.02536" lon="4.64988">
        <ele>248.300003052</ele>
        <time>2015-10-25T10:03:54.989Z</time>
      </trkpt>
      <trkpt lat="46.02534" lon="4.64983">
        <ele>248</ele>
        <time>2015-10-25T10:03:55.966Z</time>
      </trkpt>
      <trkpt lat="46.0253" lon="4.64973">
        <ele>248.300003052</ele>
        <time>2015-10-25T10:03:57.991Z</time>
      </trkpt>
      <trkpt lat="46.02528" lon="4.64968">
        <ele>248.5</ele>
        <time>2015-10-25T10:03:58.962Z</time>
      </trkpt>
      <trkpt lat="46.02525" lon="4.64957">
        <ele>248.899993896</ele>
        <time>2015-10-25T10:04:00.993Z</time>
      </trkpt>
      <trkpt lat="46.02524" lon="4.64952">
        <ele>249.5</ele>
        <time>2015-10-25T10:04:01.964Z</time>
      </trkpt>
      <trkpt lat="46.02524" lon="4.6494">
        <ele>249.699996948</ele>
        <time>2015-10-25T10:04:03.991Z</time>
      </trkpt>
      <trkpt lat="46.02525" lon="4.64934">
        <ele>250.100006104</ele>
        <time>2015-10-25T10:04:04.965Z</time>
      </trkpt>
      <trkpt lat="46.02527" lon="4.64924">
        <ele>250.5</ele>
        <time>2015-10-25T10:04:06.989Z</time>
      </trkpt>
      <trkpt lat="46.02528" lon="4.64919">
        <ele>251</ele>
        <time>2015-10-25T10:04:07.962Z</time>
      </trkpt>
      <trkpt lat="46.02534" lon="4.6491">
        <ele>251.5</ele>
        <time>2015-10-25T10:04:10.989Z</time>
      </trkpt>
      <trkpt lat="46.02536" lon="4.64908">
        <ele>251.899993896</ele>
        <time>2015-10-25T10:04:11.966Z</time>
      </trkpt>
      <trkpt lat="46.02544" lon="4.64902">
        <ele>253</ele>
        <time>2015-10-25T10:04:14.989Z</time>
      </trkpt>
      <trkpt lat="46.02547" lon="4.64902">
        <ele>253.5</ele>
        <time>2015-10-25T10:04:15.964Z</time>
      </trkpt>
      <trkpt lat="46.02553" lon="4.64902">
        <ele>254.699996948</ele>
        <time>2015-10-25T10:04:17.993Z</time>
      </trkpt>
      <trkpt lat="46.02556" lon="4.64902">
        <ele>254.899993896</ele>
        <time>2015-10-25T10:04:18.977Z</time>
      </trkpt>
      <trkpt lat="46.02564" lon="4.64901">
        <ele>256.100006104</ele>
        <time>2015-10-25T10:04:21.991Z</time>
      </trkpt>
      <trkpt lat="46.02567" lon="4.649">
        <ele>256.399993896</ele>
        <time>2015-10-25T10:04:22.976Z</time>
      </trkpt>
      <trkpt lat="46.02575" lon="4.649">
        <ele>258</ele>
        <time>2015-10-25T10:04:25.989Z</time>
      </trkpt>
      <trkpt lat="46.02578" lon="4.64901">
        <ele>258.799987793</ele>
        <time>2015-10-25T10:04:26.985Z</time>
      </trkpt>
      <trkpt lat="46.02586" lon="4.649">
        <ele>259.799987793</ele>
        <time>2015-10-25T10:04:29.989Z</time>
      </trkpt>
      <trkpt lat="46.02589" lon="4.64901">
        <ele>259.899993896</ele>
        <time>2015-10-25T10:04:30.965Z</time>
      </trkpt>
      <trkpt lat="46.02597" lon="4.64904">
        <ele>260.299987793</ele>
        <time>2015-10-25T10:04:33.991Z</time>
      </trkpt>
      <trkpt lat="46.02599" lon="4.64905">
        <ele>261.399993896</ele>
        <time>2015-10-25T10:04:34.962Z</time>
      </trkpt>
      <trkpt lat="46.02606" lon="4.64908">
        <ele>262.299987793</ele>
        <time>2015-10-25T10:04:37.989Z</time>
      </trkpt>
      <trkpt lat="46.02609" lon="4.6491">
        <ele>262.600006104</ele>
        <time>2015-10-25T10:04:39.004Z</time>
      </trkpt>
      <trkpt lat="46.02616" lon="4.64913">
        <ele>263.399993896</ele>
        <time>2015-10-25T10:04:41.989Z</time>
      </trkpt>
      <trkpt lat="46.02618" lon="4.64915">
        <ele>263.5</ele>
        <time>2015-10-25T10:04:42.962Z</time>
      </trkpt>
      <trkpt lat="46.02625" lon="4.6492">
        <ele>264.200012207</ele>
        <time>2015-10-25T10:04:45.991Z</time>
      </trkpt>
      <trkpt lat="46.02628" lon="4.64921">
        <ele>264.399993896</ele>
        <time>2015-10-25T10:04:47.006Z</time>
      </trkpt>
      <trkpt lat="46.02635" lon="4.64926">
        <ele>264.799987793</ele>
        <time>2015-10-25T10:04:50.017Z</time>
      </trkpt>
      <trkpt lat="46.02637" lon="4.64927">
        <ele>265</ele>
        <time>2015-10-25T10:04:50.963Z</time>
      </trkpt>
      <trkpt lat="46.02644" lon="4.64932">
        <ele>265.799987793</ele>
        <time>2015-10-25T10:04:53.993Z</time>
      </trkpt>
      <trkpt lat="46.02646" lon="4.64933">
        <ele>266</ele>
        <time>2015-10-25T10:04:54.964Z</time>
      </trkpt>
      <trkpt lat="46.02653" lon="4.64939">
        <ele>266.399993896</ele>
        <time>2015-10-25T10:04:57.994Z</time>
      </trkpt>
      <trkpt lat="46.02655" lon="4.6494">
        <ele>266.299987793</ele>
        <time>2015-10-25T10:04:58.962Z</time>
      </trkpt>
      <trkpt lat="46.02662" lon="4.64947">
        <ele>266.100006104</ele>
        <time>2015-10-25T10:05:01.989Z</time>
      </trkpt>
      <trkpt lat="46.02664" lon="4.64949">
        <ele>266.100006104</ele>
        <time>2015-10-25T10:05:02.962Z</time>
      </trkpt>
      <trkpt lat="46.0267" lon="4.64956">
        <ele>266.799987793</ele>
        <time>2015-10-25T10:05:06.038Z</time>
      </trkpt>
      <trkpt lat="46.02673" lon="4.64958">
        <ele>266.899993896</ele>
        <time>2015-10-25T10:05:06.963Z</time>
      </trkpt>
      <trkpt lat="46.02681" lon="4.64962">
        <ele>267.200012207</ele>
        <time>2015-10-25T10:05:09.991Z</time>
      </trkpt>
      <trkpt lat="46.02683" lon="4.64963">
        <ele>267.200012207</ele>
        <time>2015-10-25T10:05:10.962Z</time>
      </trkpt>
      <trkpt lat="46.0269" lon="4.64967">
        <ele>267.899993896</ele>
        <time>2015-10-25T10:05:13.989Z</time>
      </trkpt>
      <trkpt lat="46.02692" lon="4.64969">
        <ele>268</ele>
        <time>2015-10-25T10:05:14.963Z</time>
      </trkpt>
      <trkpt lat="46.02698" lon="4.64975">
        <ele>268.5</ele>
        <time>2015-10-25T10:05:17.993Z</time>
      </trkpt>
      <trkpt lat="46.027" lon="4.64977">
        <ele>268.399993896</ele>
        <time>2015-10-25T10:05:18.966Z</time>
      </trkpt>
      <trkpt lat="46.02708" lon="4.64982">
        <ele>268.799987793</ele>
        <time>2015-10-25T10:05:22.024Z</time>
      </trkpt>
      <trkpt lat="46.02711" lon="4.64984">
        <ele>269.100006104</ele>
        <time>2015-10-25T10:05:22.969Z</time>
      </trkpt>
      <trkpt lat="46.02718" lon="4.64989">
        <ele>269.399993896</ele>
        <time>2015-10-25T10:05:25.989Z</time>
      </trkpt>
      <trkpt lat="46.0272" lon="4.64991">
        <ele>269.700012207</ele>
        <time>2015-10-25T10:05:26.962Z</time>
      </trkpt>
      <trkpt lat="46.02727" lon="4.64996">
        <ele>270.600006104</ele>
        <time>2015-10-25T10:05:29.993Z</time>
      </trkpt>
      <trkpt lat="46.02729" lon="4.64998">
        <ele>271.100006104</ele>
        <time>2015-10-25T10:05:31.044Z</time>
      </trkpt>
      <trkpt lat="46.02736" lon="4.65003">
        <ele>271.899993896</ele>
        <time>2015-10-25T10:05:33.991Z</time>
      </trkpt>
      <trkpt lat="46.02738" lon="4.65006">
        <ele>271.700012207</ele>
        <time>2015-10-25T10:05:34.962Z</time>
      </trkpt>
      <trkpt lat="46.02745" lon="4.65011">
        <ele>271.899993896</ele>
        <time>2015-10-25T10:05:37.992Z</time>
      </trkpt>
      <trkpt lat="46.02747" lon="4.65013">
        <ele>272.399993896</ele>
        <time>2015-10-25T10:05:38.986Z</time>
      </trkpt>
      <trkpt lat="46.02754" lon="4.65018">
        <ele>272.5</ele>
        <time>2015-10-25T10:05:42.038Z</time>
      </trkpt>
      <trkpt lat="46.02756" lon="4.6502">
        <ele>272.700012207</ele>
        <time>2015-10-25T10:05:42.974Z</time>
      </trkpt>
      <trkpt lat="46.02762" lon="4.65026">
        <ele>273</ele>
        <time>2015-10-25T10:05:45.994Z</time>
      </trkpt>
      <trkpt lat="46.02764" lon="4.65028">
        <ele>273</ele>
        <time>2015-10-25T10:05:47.084Z</time>
      </trkpt>
      <trkpt lat="46.0277" lon="4.65033">
        <ele>273</ele>
        <time>2015-10-25T10:05:49.992Z</time>
      </trkpt>
      <trkpt lat="46.02772" lon="4.65036">
        <ele>273.399993896</ele>
        <time>2015-10-25T10:05:50.963Z</time>
      </trkpt>
      <trkpt lat="46.02778" lon="4.6504">
        <ele>274.299987793</ele>
        <time>2015-10-25T10:05:53.99Z</time>
      </trkpt>
      <trkpt lat="46.02781" lon="4.65042">
        <ele>274.5</ele>
        <time>2015-10-25T10:05:54.962Z</time>
      </trkpt>
      <trkpt lat="46.02787" lon="4.65048">
        <ele>275.299987793</ele>
        <time>2015-10-25T10:05:58.023Z</time>
      </trkpt>
      <trkpt lat="46.02789" lon="4.6505">
        <ele>275.600006104</ele>
        <time>2015-10-25T10:05:59.075Z</time>
      </trkpt>
      <trkpt lat="46.02796" lon="4.65054">
        <ele>276.200012207</ele>
        <time>2015-10-25T10:06:02.003Z</time>
      </trkpt>
      <trkpt lat="46.02798" lon="4.65055">
        <ele>276.299987793</ele>
        <time>2015-10-25T10:06:02.975Z</time>
      </trkpt>
      <trkpt lat="46.02805" lon="4.65057">
        <ele>276.700012207</ele>
        <time>2015-10-25T10:06:06.076Z</time>
      </trkpt>
      <trkpt lat="46.02808" lon="4.65058">
        <ele>276.899993896</ele>
        <time>2015-10-25T10:06:06.968Z</time>
      </trkpt>
      <trkpt lat="46.02816" lon="4.65058">
        <ele>277.200012207</ele>
        <time>2015-10-25T10:06:09.999Z</time>
      </trkpt>
      <trkpt lat="46.02818" lon="4.65057">
        <ele>277.200012207</ele>
        <time>2015-10-25T10:06:10.97Z</time>
      </trkpt>
      <trkpt lat="46.02825" lon="4.65055">
        <ele>278.5</ele>
        <time>2015-10-25T10:06:14.01Z</time>
      </trkpt>
      <trkpt lat="46.02827" lon="4.65054">
        <ele>278.600006104</ele>
        <time>2015-10-25T10:06:14.967Z</time>
      </trkpt>
      <trkpt lat="46.02833" lon="4.6505">
        <ele>278.799987793</ele>
        <time>2015-10-25T10:06:18.004Z</time>
      </trkpt>
      <trkpt lat="46.02836" lon="4.65047">
        <ele>279</ele>
        <time>2015-10-25T10:06:18.956Z</time>
      </trkpt>
      <trkpt lat="46.02843" lon="4.6504">
        <ele>278.399993896</ele>
        <time>2015-10-25T10:06:22.043Z</time>
      </trkpt>
      <trkpt lat="46.02845" lon="4.65037">
        <ele>278.200012207</ele>
        <time>2015-10-25T10:06:22.97Z</time>
      </trkpt>
      <trkpt lat="46.0285" lon="4.65031">
        <ele>278.5</ele>
        <time>2015-10-25T10:06:25.998Z</time>
      </trkpt>
      <trkpt lat="46.02852" lon="4.65028">
        <ele>278.5</ele>
        <time>2015-10-25T10:06:26.963Z</time>
      </trkpt>
      <trkpt lat="46.02856" lon="4.6502">
        <ele>278.200012207</ele>
        <time>2015-10-25T10:06:29.995Z</time>
      </trkpt>
      <trkpt lat="46.02858" lon="4.65017">
        <ele>277.700012207</ele>
        <time>2015-10-25T10:06:30.964Z</time>
      </trkpt>
      <trkpt lat="46.02863" lon="4.65008">
        <ele>278</ele>
        <time>2015-10-25T10:06:33.993Z</time>
      </trkpt>
      <trkpt lat="46.02865" lon="4.65005">
        <ele>278</ele>
        <time>2015-10-25T10:06:34.98Z</time>
      </trkpt>
      <trkpt lat="46.0287" lon="4.64997">
        <ele>278.299987793</ele>
        <time>2015-10-25T10:06:37.991Z</time>
      </trkpt>
      <trkpt lat="46.02871" lon="4.64995">
        <ele>278.299987793</ele>
        <time>2015-10-25T10:06:38.988Z</time>
      </trkpt>
      <trkpt lat="46.02876" lon="4.64987">
        <ele>278.799987793</ele>
        <time>2015-10-25T10:06:42.045Z</time>
      </trkpt>
      <trkpt lat="46.02878" lon="4.64985">
        <ele>278.899993896</ele>
        <time>2015-10-25T10:06:42.964Z</time>
      </trkpt>
      <trkpt lat="46.02883" lon="4.64977">
        <ele>279.5</ele>
        <time>2015-10-25T10:06:45.995Z</time>
      </trkpt>
      <trkpt lat="46.02885" lon="4.64974">
        <ele>279.700012207</ele>
        <time>2015-10-25T10:06:46.97Z</time>
      </trkpt>
      <trkpt lat="46.0289" lon="4.64966">
        <ele>280.700012207</ele>
        <time>2015-10-25T10:06:49.99Z</time>
      </trkpt>
      <trkpt lat="46.02891" lon="4.64963">
        <ele>280.899993896</ele>
        <time>2015-10-25T10:06:50.962Z</time>
      </trkpt>
      <trkpt lat="46.02895" lon="4.64954">
        <ele>281.600006104</ele>
        <time>2015-10-25T10:06:54.074Z</time>
      </trkpt>
      <trkpt lat="46.02897" lon="4.64952">
        <ele>281.700012207</ele>
        <time>2015-10-25T10:06:54.963Z</time>
      </trkpt>
      <trkpt lat="46.02902" lon="4.64944">
        <ele>281.5</ele>
        <time>2015-10-25T10:06:57.992Z</time>
      </trkpt>
      <trkpt lat="46.02903" lon="4.64941">
        <ele>281.399993896</ele>
        <time>2015-10-25T10:06:58.963Z</time>
      </trkpt>
      <trkpt lat="46.02909" lon="4.64935">
        <ele>282.299987793</ele>
        <time>2015-10-25T10:07:01.995Z</time>
      </trkpt>
      <trkpt lat="46.02911" lon="4.64932">
        <ele>282.700012207</ele>
        <time>2015-10-25T10:07:02.963Z</time>
      </trkpt>
      <trkpt lat="46.02917" lon="4.64925">
        <ele>283</ele>
        <time>2015-10-25T10:07:06.052Z</time>
      </trkpt>
      <trkpt lat="46.02919" lon="4.64924">
        <ele>282.700012207</ele>
        <time>2015-10-25T10:07:07.049Z</time>
      </trkpt>
      <trkpt lat="46.02927" lon="4.64918">
        <ele>283.399993896</ele>
        <time>2015-10-25T10:07:11.124Z</time>
      </trkpt>
      <trkpt lat="46.02929" lon="4.64916">
        <ele>283.399993896</ele>
        <time>2015-10-25T10:07:11.968Z</time>
      </trkpt>
      <trkpt lat="46.02934" lon="4.64909">
        <ele>283.899993896</ele>
        <time>2015-10-25T10:07:15.026Z</time>
      </trkpt>
      <trkpt lat="46.02937" lon="4.64907">
        <ele>284.299987793</ele>
        <time>2015-10-25T10:07:15.966Z</time>
      </trkpt>
      <trkpt lat="46.02944" lon="4.64901">
        <ele>284.100006104</ele>
        <time>2015-10-25T10:07:18.991Z</time>
      </trkpt>
      <trkpt lat="46.02946" lon="4.64898">
        <ele>284.299987793</ele>
        <time>2015-10-25T10:07:19.963Z</time>
      </trkpt>
      <trkpt lat="46.02952" lon="4.64893">
        <ele>284.200012207</ele>
        <time>2015-10-25T10:07:21.993Z</time>
      </trkpt>
      <trkpt lat="46.02955" lon="4.6489">
        <ele>284</ele>
        <time>2015-10-25T10:07:22.962Z</time>
      </trkpt>
      <trkpt lat="46.02962" lon="4.64884">
        <ele>283.100006104</ele>
        <time>2015-10-25T10:07:26.022Z</time>
      </trkpt>
      <trkpt lat="46.02964" lon="4.64882">
        <ele>283.100006104</ele>
        <time>2015-10-25T10:07:26.963Z</time>
      </trkpt>
      <trkpt lat="46.02969" lon="4.64876">
        <ele>283.399993896</ele>
        <time>2015-10-25T10:07:28.991Z</time>
      </trkpt>
      <trkpt lat="46.02971" lon="4.64872">
        <ele>283.399993896</ele>
        <time>2015-10-25T10:07:29.968Z</time>
      </trkpt>
      <trkpt lat="46.02973" lon="4.64863">
        <ele>283.899993896</ele>
        <time>2015-10-25T10:07:32.006Z</time>
      </trkpt>
      <trkpt lat="46.02975" lon="4.64858">
        <ele>283.899993896</ele>
        <time>2015-10-25T10:07:32.966Z</time>
      </trkpt>
      <trkpt lat="46.02978" lon="4.64849">
        <ele>284.100006104</ele>
        <time>2015-10-25T10:07:34.99Z</time>
      </trkpt>
      <trkpt lat="46.02979" lon="4.64846">
        <ele>284.299987793</ele>
        <time>2015-10-25T10:07:35.968Z</time>
      </trkpt>
      <trkpt lat="46.02981" lon="4.64838">
        <ele>284.5</ele>
        <time>2015-10-25T10:07:37.994Z</time>
      </trkpt>
      <trkpt lat="46.02982" lon="4.64833">
        <ele>284.5</ele>
        <time>2015-10-25T10:07:38.964Z</time>
      </trkpt>
      <trkpt lat="46.02984" lon="4.64821">
        <ele>285.200012207</ele>
        <time>2015-10-25T10:07:41.99Z</time>
      </trkpt>
      <trkpt lat="46.02984" lon="4.64817">
        <ele>285.299987793</ele>
        <time>2015-10-25T10:07:42.963Z</time>
      </trkpt>
      <trkpt lat="46.02985" lon="4.64806">
        <ele>285.700012207</ele>
        <time>2015-10-25T10:07:46.004Z</time>
      </trkpt>
      <trkpt lat="46.02986" lon="4.64803">
        <ele>285.799987793</ele>
        <time>2015-10-25T10:07:46.97Z</time>
      </trkpt>
      <trkpt lat="46.02986" lon="4.64794">
        <ele>285.700012207</ele>
        <time>2015-10-25T10:07:48.995Z</time>
      </trkpt>
      <trkpt lat="46.02987" lon="4.6479">
        <ele>285.899993896</ele>
        <time>2015-10-25T10:07:49.964Z</time>
      </trkpt>
      <trkpt lat="46.02989" lon="4.64778">
        <ele>286.5</ele>
        <time>2015-10-25T10:07:53.006Z</time>
      </trkpt>
      <trkpt lat="46.02989" lon="4.64774">
        <ele>286.899993896</ele>
        <time>2015-10-25T10:07:54.025Z</time>
      </trkpt>
      <trkpt lat="46.0299" lon="4.64763">
        <ele>287</ele>
        <time>2015-10-25T10:07:56.996Z</time>
      </trkpt>
      <trkpt lat="46.0299" lon="4.64759">
        <ele>287.200012207</ele>
        <time>2015-10-25T10:07:57.967Z</time>
      </trkpt>
      <trkpt lat="46.02991" lon="4.64747">
        <ele>288.399993896</ele>
        <time>2015-10-25T10:08:00.992Z</time>
      </trkpt>
      <trkpt lat="46.02992" lon="4.64743">
        <ele>288.399993896</ele>
        <time>2015-10-25T10:08:01.966Z</time>
      </trkpt>
      <trkpt lat="46.02993" lon="4.64731">
        <ele>289.100006104</ele>
        <time>2015-10-25T10:08:04.991Z</time>
      </trkpt>
      <trkpt lat="46.02994" lon="4.64727">
        <ele>289.5</ele>
        <time>2015-10-25T10:08:06.011Z</time>
      </trkpt>
      <trkpt lat="46.02994" lon="4.64716">
        <ele>290.299987793</ele>
        <time>2015-10-25T10:08:08.992Z</time>
      </trkpt>
      <trkpt lat="46.02994" lon="4.64712">
        <ele>290.600006104</ele>
        <time>2015-10-25T10:08:09.968Z</time>
      </trkpt>
      <trkpt lat="46.02995" lon="4.647">
        <ele>291.399993896</ele>
        <time>2015-10-25T10:08:12.99Z</time>
      </trkpt>
      <trkpt lat="46.02995" lon="4.64696">
        <ele>291.700012207</ele>
        <time>2015-10-25T10:08:13.979Z</time>
      </trkpt>
      <trkpt lat="46.02996" lon="4.64683">
        <ele>291.700012207</ele>
        <time>2015-10-25T10:08:16.994Z</time>
      </trkpt>
      <trkpt lat="46.02997" lon="4.64678">
        <ele>292</ele>
        <time>2015-10-25T10:08:17.962Z</time>
      </trkpt>
      <trkpt lat="46.02998" lon="4.64666">
        <ele>292.600006104</ele>
        <time>2015-10-25T10:08:20.991Z</time>
      </trkpt>
      <trkpt lat="46.02999" lon="4.64662">
        <ele>292.799987793</ele>
        <time>2015-10-25T10:08:21.965Z</time>
      </trkpt>
      <trkpt lat="46.02999" lon="4.6465">
        <ele>293.399993896</ele>
        <time>2015-10-25T10:08:24.993Z</time>
      </trkpt>
      <trkpt lat="46.03" lon="4.64647">
        <ele>293.200012207</ele>
        <time>2015-10-25T10:08:25.979Z</time>
      </trkpt>
      <trkpt lat="46.03004" lon="4.64636">
        <ele>293.700012207</ele>
        <time>2015-10-25T10:08:29.064Z</time>
      </trkpt>
      <trkpt lat="46.03005" lon="4.64633">
        <ele>293.899993896</ele>
        <time>2015-10-25T10:08:29.967Z</time>
      </trkpt>
      <trkpt lat="46.03011" lon="4.64624">
        <ele>294.600006104</ele>
        <time>2015-10-25T10:08:32.994Z</time>
      </trkpt>
      <trkpt lat="46.03013" lon="4.64622">
        <ele>294.700012207</ele>
        <time>2015-10-25T10:08:33.967Z</time>
      </trkpt>
      <trkpt lat="46.03019" lon="4.64619">
        <ele>295.399993896</ele>
        <time>2015-10-25T10:08:35.999Z</time>
      </trkpt>
      <trkpt lat="46.03023" lon="4.64619">
        <ele>295.700012207</ele>
        <time>2015-10-25T10:08:36.965Z</time>
      </trkpt>
      <trkpt lat="46.0303" lon="4.64618">
        <ele>295.799987793</ele>
        <time>2015-10-25T10:08:39.01Z</time>
      </trkpt>
      <trkpt lat="46.03034" lon="4.64618">
        <ele>295.799987793</ele>
        <time>2015-10-25T10:08:39.965Z</time>
      </trkpt>
      <trkpt lat="46.03041" lon="4.64617">
        <ele>295.899993896</ele>
        <time>2015-10-25T10:08:42.027Z</time>
      </trkpt>
      <trkpt lat="46.03045" lon="4.64616">
        <ele>296.100006104</ele>
        <time>2015-10-25T10:08:42.962Z</time>
      </trkpt>
      <trkpt lat="46.03053" lon="4.64616">
        <ele>296.200012207</ele>
        <time>2015-10-25T10:08:45.004Z</time>
      </trkpt>
      <trkpt lat="46.03057" lon="4.64615">
        <ele>296.399993896</ele>
        <time>2015-10-25T10:08:45.97Z</time>
      </trkpt>
      <trkpt lat="46.03065" lon="4.64613">
        <ele>296.5</ele>
        <time>2015-10-25T10:08:47.993Z</time>
      </trkpt>
      <trkpt lat="46.03069" lon="4.64611">
        <ele>296.299987793</ele>
        <time>2015-10-25T10:08:48.966Z</time>
      </trkpt>
      <trkpt lat="46.03077" lon="4.64607">
        <ele>296.700012207</ele>
        <time>2015-10-25T10:08:50.995Z</time>
      </trkpt>
      <trkpt lat="46.0308" lon="4.64604">
        <ele>296.899993896</ele>
        <time>2015-10-25T10:08:51.995Z</time>
      </trkpt>
      <trkpt lat="46.03086" lon="4.64597">
        <ele>296.799987793</ele>
        <time>2015-10-25T10:08:53.994Z</time>
      </trkpt>
      <trkpt lat="46.03089" lon="4.64593">
        <ele>296.799987793</ele>
        <time>2015-10-25T10:08:55.024Z</time>
      </trkpt>
      <trkpt lat="46.03094" lon="4.64585">
        <ele>296.600006104</ele>
        <time>2015-10-25T10:08:56.998Z</time>
      </trkpt>
      <trkpt lat="46.03097" lon="4.64581">
        <ele>296.399993896</ele>
        <time>2015-10-25T10:08:57.968Z</time>
      </trkpt>
      <trkpt lat="46.03101" lon="4.64575">
        <ele>296.899993896</ele>
        <time>2015-10-25T10:08:59.99Z</time>
      </trkpt>
      <trkpt lat="46.03103" lon="4.64571">
        <ele>297.200012207</ele>
        <time>2015-10-25T10:09:00.965Z</time>
      </trkpt>
      <trkpt lat="46.03108" lon="4.64565">
        <ele>297.5</ele>
        <time>2015-10-25T10:09:03.04Z</time>
      </trkpt>
      <trkpt lat="46.0311" lon="4.64561">
        <ele>297.600006104</ele>
        <time>2015-10-25T10:09:03.964Z</time>
      </trkpt>
      <trkpt lat="46.03115" lon="4.64555">
        <ele>297.700012207</ele>
        <time>2015-10-25T10:09:05.998Z</time>
      </trkpt>
      <trkpt lat="46.03118" lon="4.64552">
        <ele>297.799987793</ele>
        <time>2015-10-25T10:09:06.996Z</time>
      </trkpt>
      <trkpt lat="46.03124" lon="4.64543">
        <ele>297.600006104</ele>
        <time>2015-10-25T10:09:09.99Z</time>
      </trkpt>
      <trkpt lat="46.03127" lon="4.6454">
        <ele>298</ele>
        <time>2015-10-25T10:09:10.966Z</time>
      </trkpt>
      <trkpt lat="46.03133" lon="4.64536">
        <ele>298</ele>
        <time>2015-10-25T10:09:12.989Z</time>
      </trkpt>
      <trkpt lat="46.03136" lon="4.64533">
        <ele>298.600006104</ele>
        <time>2015-10-25T10:09:13.962Z</time>
      </trkpt>
      <trkpt lat="46.03141" lon="4.64524">
        <ele>298.700012207</ele>
        <time>2015-10-25T10:09:17.026Z</time>
      </trkpt>
      <trkpt lat="46.03143" lon="4.64522">
        <ele>299.200012207</ele>
        <time>2015-10-25T10:09:17.962Z</time>
      </trkpt>
      <trkpt lat="46.03148" lon="4.64516">
        <ele>298.799987793</ele>
        <time>2015-10-25T10:09:19.997Z</time>
      </trkpt>
      <trkpt lat="46.03151" lon="4.64514">
        <ele>299.100006104</ele>
        <time>2015-10-25T10:09:20.979Z</time>
      </trkpt>
      <trkpt lat="46.03156" lon="4.64505">
        <ele>299.299987793</ele>
        <time>2015-10-25T10:09:23.99Z</time>
      </trkpt>
      <trkpt lat="46.03158" lon="4.64502">
        <ele>299.399993896</ele>
        <time>2015-10-25T10:09:24.962Z</time>
      </trkpt>
      <trkpt lat="46.03163" lon="4.64494">
        <ele>299.100006104</ele>
        <time>2015-10-25T10:09:27.991Z</time>
      </trkpt>
      <trkpt lat="46.03166" lon="4.64492">
        <ele>299.200012207</ele>
        <time>2015-10-25T10:09:28.966Z</time>
      </trkpt>
      <trkpt lat="46.03173" lon="4.64485">
        <ele>300.600006104</ele>
        <time>2015-10-25T10:09:31.99Z</time>
      </trkpt>
      <trkpt lat="46.03175" lon="4.64482">
        <ele>301</ele>
        <time>2015-10-25T10:09:32.966Z</time>
      </trkpt>
      <trkpt lat="46.03182" lon="4.64475">
        <ele>301.600006104</ele>
        <time>2015-10-25T10:09:36.003Z</time>
      </trkpt>
      <trkpt lat="46.03185" lon="4.64474">
        <ele>301.399993896</ele>
        <time>2015-10-25T10:09:36.98Z</time>
      </trkpt>
      <trkpt lat="46.03192" lon="4.64475">
        <ele>302.100006104</ele>
        <time>2015-10-25T10:09:39.994Z</time>
      </trkpt>
      <trkpt lat="46.03195" lon="4.64475">
        <ele>302.200012207</ele>
        <time>2015-10-25T10:09:40.967Z</time>
      </trkpt>
      <trkpt lat="46.03203" lon="4.64472">
        <ele>303</ele>
        <time>2015-10-25T10:09:43.997Z</time>
      </trkpt>
      <trkpt lat="46.03206" lon="4.6447">
        <ele>303.100006104</ele>
        <time>2015-10-25T10:09:44.984Z</time>
      </trkpt>
      <trkpt lat="46.03212" lon="4.64466">
        <ele>303</ele>
        <time>2015-10-25T10:09:46.995Z</time>
      </trkpt>
      <trkpt lat="46.03214" lon="4.64464">
        <ele>302.700012207</ele>
        <time>2015-10-25T10:09:47.963Z</time>
      </trkpt>
      <trkpt lat="46.03223" lon="4.64462">
        <ele>303.600006104</ele>
        <time>2015-10-25T10:09:50.991Z</time>
      </trkpt>
      <trkpt lat="46.03226" lon="4.64462">
        <ele>304</ele>
        <time>2015-10-25T10:09:51.963Z</time>
      </trkpt>
      <trkpt lat="46.03234" lon="4.64464">
        <ele>305.299987793</ele>
        <time>2015-10-25T10:09:55.074Z</time>
      </trkpt>
      <trkpt lat="46.03237" lon="4.64465">
        <ele>305.5</ele>
        <time>2015-10-25T10:09:55.967Z</time>
      </trkpt>
      <trkpt lat="46.03244" lon="4.64471">
        <ele>307.100006104</ele>
        <time>2015-10-25T10:09:58.991Z</time>
      </trkpt>
      <trkpt lat="46.03246" lon="4.64474">
        <ele>307.700012207</ele>
        <time>2015-10-25T10:09:59.962Z</time>
      </trkpt>
      <trkpt lat="46.03253" lon="4.64481">
        <ele>308.5</ele>
        <time>2015-10-25T10:10:02.989Z</time>
      </trkpt>
      <trkpt lat="46.03256" lon="4.64483">
        <ele>309</ele>
        <time>2015-10-25T10:10:03.963Z</time>
      </trkpt>
      <trkpt lat="46.03263" lon="4.6449">
        <ele>309.799987793</ele>
        <time>2015-10-25T10:10:06.989Z</time>
      </trkpt>
      <trkpt lat="46.03265" lon="4.64492">
        <ele>310.100006104</ele>
        <time>2015-10-25T10:10:07.961Z</time>
      </trkpt>
      <trkpt lat="46.03273" lon="4.64498">
        <ele>311.5</ele>
        <time>2015-10-25T10:10:10.988Z</time>
      </trkpt>
      <trkpt lat="46.03275" lon="4.645">
        <ele>311.5</ele>
        <time>2015-10-25T10:10:12.025Z</time>
      </trkpt>
      <trkpt lat="46.03282" lon="4.64506">
        <ele>311.700012207</ele>
        <time>2015-10-25T10:10:14.99Z</time>
      </trkpt>
      <trkpt lat="46.03285" lon="4.64508">
        <ele>311.799987793</ele>
        <time>2015-10-25T10:10:15.967Z</time>
      </trkpt>
      <trkpt lat="46.03293" lon="4.64511">
        <ele>311.799987793</ele>
        <time>2015-10-25T10:10:18.989Z</time>
      </trkpt>
      <trkpt lat="46.03295" lon="4.64513">
        <ele>311.600006104</ele>
        <time>2015-10-25T10:10:20.004Z</time>
      </trkpt>
      <trkpt lat="46.03301" lon="4.64515">
        <ele>311.799987793</ele>
        <time>2015-10-25T10:10:21.99Z</time>
      </trkpt>
      <trkpt lat="46.03304" lon="4.64516">
        <ele>312</ele>
        <time>2015-10-25T10:10:22.964Z</time>
      </trkpt>
      <trkpt lat="46.03311" lon="4.64519">
        <ele>312.600006104</ele>
        <time>2015-10-25T10:10:25.995Z</time>
      </trkpt>
      <trkpt lat="46.03315" lon="4.64521">
        <ele>312.899993896</ele>
        <time>2015-10-25T10:10:26.966Z</time>
      </trkpt>
      <trkpt lat="46.0332" lon="4.64522">
        <ele>313.100006104</ele>
        <time>2015-10-25T10:10:28.995Z</time>
      </trkpt>
      <trkpt lat="46.03324" lon="4.64521">
        <ele>312.799987793</ele>
        <time>2015-10-25T10:10:29.966Z</time>
      </trkpt>
      <trkpt lat="46.0333" lon="4.6452">
        <ele>312.5</ele>
        <time>2015-10-25T10:10:31.988Z</time>
      </trkpt>
      <trkpt lat="46.03333" lon="4.6452">
        <ele>312.399993896</ele>
        <time>2015-10-25T10:10:32.96Z</time>
      </trkpt>
      <trkpt lat="46.03342" lon="4.64522">
        <ele>312.700012207</ele>
        <time>2015-10-25T10:10:36.007Z</time>
      </trkpt>
      <trkpt lat="46.03345" lon="4.64523">
        <ele>312.600006104</ele>
        <time>2015-10-25T10:10:36.961Z</time>
      </trkpt>
      <trkpt lat="46.03353" lon="4.64526">
        <ele>313</ele>
        <time>2015-10-25T10:10:39.99Z</time>
      </trkpt>
      <trkpt lat="46.03356" lon="4.64526">
        <ele>313</ele>
        <time>2015-10-25T10:10:40.96Z</time>
      </trkpt>
      <trkpt lat="46.03362" lon="4.64526">
        <ele>313.399993896</ele>
        <time>2015-10-25T10:10:42.99Z</time>
      </trkpt>
      <trkpt lat="46.03365" lon="4.64526">
        <ele>313.700012207</ele>
        <time>2015-10-25T10:10:43.963Z</time>
      </trkpt>
      <trkpt lat="46.03372" lon="4.64529">
        <ele>314.100006104</ele>
        <time>2015-10-25T10:10:46.045Z</time>
      </trkpt>
      <trkpt lat="46.03375" lon="4.64531">
        <ele>314.399993896</ele>
        <time>2015-10-25T10:10:46.962Z</time>
      </trkpt>
      <trkpt lat="46.03381" lon="4.64534">
        <ele>314.399993896</ele>
        <time>2015-10-25T10:10:48.991Z</time>
      </trkpt>
      <trkpt lat="46.03384" lon="4.64535">
        <ele>314.700012207</ele>
        <time>2015-10-25T10:10:49.966Z</time>
      </trkpt>
      <trkpt lat="46.0339" lon="4.64538">
        <ele>314.700012207</ele>
        <time>2015-10-25T10:10:51.991Z</time>
      </trkpt>
      <trkpt lat="46.03393" lon="4.64539">
        <ele>314.899993896</ele>
        <time>2015-10-25T10:10:52.99Z</time>
      </trkpt>
      <trkpt lat="46.03402" lon="4.6454">
        <ele>314.799987793</ele>
        <time>2015-10-25T10:10:56.004Z</time>
      </trkpt>
      <trkpt lat="46.03405" lon="4.6454">
        <ele>314.899993896</ele>
        <time>2015-10-25T10:10:56.963Z</time>
      </trkpt>
      <trkpt lat="46.03413" lon="4.64542">
        <ele>314.799987793</ele>
        <time>2015-10-25T10:10:59.989Z</time>
      </trkpt>
      <trkpt lat="46.03416" lon="4.64543">
        <ele>314.5</ele>
        <time>2015-10-25T10:11:00.994Z</time>
      </trkpt>
      <trkpt lat="46.03425" lon="4.64545">
        <ele>315.299987793</ele>
        <time>2015-10-25T10:11:03.99Z</time>
      </trkpt>
      <trkpt lat="46.03428" lon="4.64545">
        <ele>315.399993896</ele>
        <time>2015-10-25T10:11:04.96Z</time>
      </trkpt>
      <trkpt lat="46.03434" lon="4.64545">
        <ele>315.299987793</ele>
        <time>2015-10-25T10:11:06.988Z</time>
      </trkpt>
      <trkpt lat="46.03437" lon="4.64545">
        <ele>315.5</ele>
        <time>2015-10-25T10:11:07.96Z</time>
      </trkpt>
      <trkpt lat="46.03444" lon="4.64544">
        <ele>315.299987793</ele>
        <time>2015-10-25T10:11:09.99Z</time>
      </trkpt>
      <trkpt lat="46.03447" lon="4.64543">
        <ele>315.399993896</ele>
        <time>2015-10-25T10:11:10.959Z</time>
      </trkpt>
      <trkpt lat="46.03453" lon="4.64541">
        <ele>315.600006104</ele>
        <time>2015-10-25T10:11:12.99Z</time>
      </trkpt>
      <trkpt lat="46.03457" lon="4.64539">
        <ele>315.600006104</ele>
        <time>2015-10-25T10:11:13.96Z</time>
      </trkpt>
      <trkpt lat="46.03463" lon="4.64536">
        <ele>315.200012207</ele>
        <time>2015-10-25T10:11:16.012Z</time>
      </trkpt>
      <trkpt lat="46.03467" lon="4.64535">
        <ele>315.200012207</ele>
        <time>2015-10-25T10:11:16.96Z</time>
      </trkpt>
      <trkpt lat="46.03474" lon="4.64531">
        <ele>314.899993896</ele>
        <time>2015-10-25T10:11:18.987Z</time>
      </trkpt>
      <trkpt lat="46.03477" lon="4.64529">
        <ele>314.799987793</ele>
        <time>2015-10-25T10:11:20.034Z</time>
      </trkpt>
      <trkpt lat="46.03484" lon="4.64526">
        <ele>314.799987793</ele>
        <time>2015-10-25T10:11:21.99Z</time>
      </trkpt>
      <trkpt lat="46.03487" lon="4.64525">
        <ele>315</ele>
        <time>2015-10-25T10:11:23.007Z</time>
      </trkpt>
      <trkpt lat="46.03495" lon="4.64522">
        <ele>315.299987793</ele>
        <time>2015-10-25T10:11:25.023Z</time>
      </trkpt>
      <trkpt lat="46.03498" lon="4.64521">
        <ele>315.399993896</ele>
        <time>2015-10-25T10:11:26.035Z</time>
      </trkpt>
      <trkpt lat="46.03505" lon="4.64518">
        <ele>315.399993896</ele>
        <time>2015-10-25T10:11:27.994Z</time>
      </trkpt>
      <trkpt lat="46.03509" lon="4.64517">
        <ele>315.299987793</ele>
        <time>2015-10-25T10:11:28.964Z</time>
      </trkpt>
      <trkpt lat="46.03516" lon="4.64514">
        <ele>315.399993896</ele>
        <time>2015-10-25T10:11:30.988Z</time>
      </trkpt>
      <trkpt lat="46.0352" lon="4.64512">
        <ele>315.299987793</ele>
        <time>2015-10-25T10:11:31.961Z</time>
      </trkpt>
      <trkpt lat="46.03527" lon="4.64509">
        <ele>315.399993896</ele>
        <time>2015-10-25T10:11:33.99Z</time>
      </trkpt>
      <trkpt lat="46.03531" lon="4.64508">
        <ele>315.600006104</ele>
        <time>2015-10-25T10:11:34.96Z</time>
      </trkpt>
      <trkpt lat="46.03538" lon="4.64505">
        <ele>315.700012207</ele>
        <time>2015-10-25T10:11:37.001Z</time>
      </trkpt>
      <trkpt lat="46.03541" lon="4.64503">
        <ele>316</ele>
        <time>2015-10-25T10:11:38.014Z</time>
      </trkpt>
      <trkpt lat="46.03548" lon="4.645">
        <ele>316</ele>
        <time>2015-10-25T10:11:39.99Z</time>
      </trkpt>
      <trkpt lat="46.03552" lon="4.64498">
        <ele>316</ele>
        <time>2015-10-25T10:11:40.96Z</time>
      </trkpt>
      <trkpt lat="46.03559" lon="4.64495">
        <ele>316.299987793</ele>
        <time>2015-10-25T10:11:42.987Z</time>
      </trkpt>
      <trkpt lat="46.03562" lon="4.64494">
        <ele>316.399993896</ele>
        <time>2015-10-25T10:11:43.96Z</time>
      </trkpt>
      <trkpt lat="46.03569" lon="4.64492">
        <ele>316.799987793</ele>
        <time>2015-10-25T10:11:45.996Z</time>
      </trkpt>
      <trkpt lat="46.03573" lon="4.64491">
        <ele>316.899993896</ele>
        <time>2015-10-25T10:11:46.967Z</time>
      </trkpt>
      <trkpt lat="46.03581" lon="4.64489">
        <ele>317.5</ele>
        <time>2015-10-25T10:11:48.995Z</time>
      </trkpt>
      <trkpt lat="46.03584" lon="4.64488">
        <ele>317.700012207</ele>
        <time>2015-10-25T10:11:49.963Z</time>
      </trkpt>
      <trkpt lat="46.03591" lon="4.64485">
        <ele>317.899993896</ele>
        <time>2015-10-25T10:11:52.029Z</time>
      </trkpt>
      <trkpt lat="46.03594" lon="4.64484">
        <ele>318</ele>
        <time>2015-10-25T10:11:52.979Z</time>
      </trkpt>
      <trkpt lat="46.03601" lon="4.64481">
        <ele>318.100006104</ele>
        <time>2015-10-25T10:11:54.99Z</time>
      </trkpt>
      <trkpt lat="46.03604" lon="4.6448">
        <ele>318</ele>
        <time>2015-10-25T10:11:55.965Z</time>
      </trkpt>
      <trkpt lat="46.0361" lon="4.64477">
        <ele>318.100006104</ele>
        <time>2015-10-25T10:11:58.004Z</time>
      </trkpt>
      <trkpt lat="46.03614" lon="4.64476">
        <ele>318.100006104</ele>
        <time>2015-10-25T10:11:58.963Z</time>
      </trkpt>
      <trkpt lat="46.03621" lon="4.64473">
        <ele>318.200012207</ele>
        <time>2015-10-25T10:12:00.99Z</time>
      </trkpt>
      <trkpt lat="46.03625" lon="4.64472">
        <ele>318.399993896</ele>
        <time>2015-10-25T10:12:01.96Z</time>
      </trkpt>
      <trkpt lat="46.03632" lon="4.64469">
        <ele>318.200012207</ele>
        <time>2015-10-25T10:12:03.991Z</time>
      </trkpt>
      <trkpt lat="46.03636" lon="4.64468">
        <ele>318.299987793</ele>
        <time>2015-10-25T10:12:04.96Z</time>
      </trkpt>
      <trkpt lat="46.03643" lon="4.64465">
        <ele>318.200012207</ele>
        <time>2015-10-25T10:12:06.986Z</time>
      </trkpt>
      <trkpt lat="46.03647" lon="4.64463">
        <ele>318.100006104</ele>
        <time>2015-10-25T10:12:07.964Z</time>
      </trkpt>
      <trkpt lat="46.03655" lon="4.6446">
        <ele>317.899993896</ele>
        <time>2015-10-25T10:12:09.99Z</time>
      </trkpt>
      <trkpt lat="46.03659" lon="4.64458">
        <ele>317.899993896</ele>
        <time>2015-10-25T10:12:10.96Z</time>
      </trkpt>
      <trkpt lat="46.03663" lon="4.64455">
        <ele>317.799987793</ele>
        <time>2015-10-25T10:12:12.029Z</time>
      </trkpt>
      <trkpt lat="46.03668" lon="4.64453">
        <ele>317.600006104</ele>
        <time>2015-10-25T10:12:12.96Z</time>
      </trkpt>
      <trkpt lat="46.03672" lon="4.64451">
        <ele>317.399993896</ele>
        <time>2015-10-25T10:12:13.987Z</time>
      </trkpt>
      <trkpt lat="46.03676" lon="4.64448">
        <ele>317.299987793</ele>
        <time>2015-10-25T10:12:14.959Z</time>
      </trkpt>
      <trkpt lat="46.03681" lon="4.64445">
        <ele>317</ele>
        <time>2015-10-25T10:12:15.995Z</time>
      </trkpt>
      <trkpt lat="46.03685" lon="4.64442">
        <ele>317.100006104</ele>
        <time>2015-10-25T10:12:16.963Z</time>
      </trkpt>
      <trkpt lat="46.0369" lon="4.64438">
        <ele>316.899993896</ele>
        <time>2015-10-25T10:12:17.987Z</time>
      </trkpt>
      <trkpt lat="46.03694" lon="4.64435">
        <ele>316.899993896</ele>
        <time>2015-10-25T10:12:18.963Z</time>
      </trkpt>
      <trkpt lat="46.03698" lon="4.64431">
        <ele>316.799987793</ele>
        <time>2015-10-25T10:12:19.995Z</time>
      </trkpt>
      <trkpt lat="46.03703" lon="4.64427">
        <ele>316.700012207</ele>
        <time>2015-10-25T10:12:20.961Z</time>
      </trkpt>
      <trkpt lat="46.03707" lon="4.64423">
        <ele>316.600006104</ele>
        <time>2015-10-25T10:12:21.99Z</time>
      </trkpt>
      <trkpt lat="46.03712" lon="4.64418">
        <ele>316.399993896</ele>
        <time>2015-10-25T10:12:22.984Z</time>
      </trkpt>
      <trkpt lat="46.03716" lon="4.64412">
        <ele>316.100006104</ele>
        <time>2015-10-25T10:12:24.006Z</time>
      </trkpt>
      <trkpt lat="46.03721" lon="4.64406">
        <ele>315.799987793</ele>
        <time>2015-10-25T10:12:24.96Z</time>
      </trkpt>
      <trkpt lat="46.03726" lon="4.644">
        <ele>315.700012207</ele>
        <time>2015-10-25T10:12:26.003Z</time>
      </trkpt>
      <trkpt lat="46.0373" lon="4.64394">
        <ele>315.5</ele>
        <time>2015-10-25T10:12:26.96Z</time>
      </trkpt>
      <trkpt lat="46.03735" lon="4.64387">
        <ele>315.100006104</ele>
        <time>2015-10-25T10:12:27.997Z</time>
      </trkpt>
      <trkpt lat="46.03739" lon="4.64379">
        <ele>314.799987793</ele>
        <time>2015-10-25T10:12:28.96Z</time>
      </trkpt>
      <trkpt lat="46.03744" lon="4.64371">
        <ele>314.5</ele>
        <time>2015-10-25T10:12:29.988Z</time>
      </trkpt>
      <trkpt lat="46.03747" lon="4.64362">
        <ele>314.299987793</ele>
        <time>2015-10-25T10:12:30.963Z</time>
      </trkpt>
      <trkpt lat="46.0375" lon="4.64352">
        <ele>314.299987793</ele>
        <time>2015-10-25T10:12:31.991Z</time>
      </trkpt>
      <trkpt lat="46.03753" lon="4.64342">
        <ele>314.299987793</ele>
        <time>2015-10-25T10:12:32.964Z</time>
      </trkpt>
      <trkpt lat="46.03754" lon="4.64332">
        <ele>314.100006104</ele>
        <time>2015-10-25T10:12:33.99Z</time>
      </trkpt>
      <trkpt lat="46.03754" lon="4.64322">
        <ele>314.100006104</ele>
        <time>2015-10-25T10:12:34.96Z</time>
      </trkpt>
      <trkpt lat="46.03754" lon="4.64314">
        <ele>314.100006104</ele>
        <time>2015-10-25T10:12:35.993Z</time>
      </trkpt>
      <trkpt lat="46.03754" lon="4.64306">
        <ele>314.5</ele>
        <time>2015-10-25T10:12:36.963Z</time>
      </trkpt>
      <trkpt lat="46.03753" lon="4.64293">
        <ele>314.200012207</ele>
        <time>2015-10-25T10:12:39.044Z</time>
      </trkpt>
      <trkpt lat="46.03752" lon="4.64288">
        <ele>314.200012207</ele>
        <time>2015-10-25T10:12:39.977Z</time>
      </trkpt>
      <trkpt lat="46.0375" lon="4.64279">
        <ele>314</ele>
        <time>2015-10-25T10:12:41.993Z</time>
      </trkpt>
      <trkpt lat="46.03749" lon="4.64275">
        <ele>314.299987793</ele>
        <time>2015-10-25T10:12:42.963Z</time>
      </trkpt>
      <trkpt lat="46.03749" lon="4.64265">
        <ele>314.399993896</ele>
        <time>2015-10-25T10:12:46.034Z</time>
      </trkpt>
      <trkpt lat="46.03748" lon="4.64261">
        <ele>314.399993896</ele>
        <time>2015-10-25T10:12:46.963Z</time>
      </trkpt>
      <trkpt lat="46.03746" lon="4.64249">
        <ele>314.600006104</ele>
        <time>2015-10-25T10:12:49.987Z</time>
      </trkpt>
      <trkpt lat="46.03745" lon="4.64245">
        <ele>314.5</ele>
        <time>2015-10-25T10:12:50.96Z</time>
      </trkpt>
      <trkpt lat="46.03744" lon="4.64232">
        <ele>314.5</ele>
        <time>2015-10-25T10:12:53.988Z</time>
      </trkpt>
      <trkpt lat="46.03743" lon="4.64229">
        <ele>314.299987793</ele>
        <time>2015-10-25T10:12:54.959Z</time>
      </trkpt>
      <trkpt lat="46.03741" lon="4.64217">
        <ele>314.799987793</ele>
        <time>2015-10-25T10:12:57.993Z</time>
      </trkpt>
      <trkpt lat="46.03741" lon="4.64213">
        <ele>314.799987793</ele>
        <time>2015-10-25T10:12:59.044Z</time>
      </trkpt>
      <trkpt lat="46.03738" lon="4.64202">
        <ele>316</ele>
        <time>2015-10-25T10:13:01.992Z</time>
      </trkpt>
      <trkpt lat="46.03738" lon="4.64199">
        <ele>316.399993896</ele>
        <time>2015-10-25T10:13:02.963Z</time>
      </trkpt>
      <trkpt lat="46.03736" lon="4.64188">
        <ele>316.600006104</ele>
        <time>2015-10-25T10:13:05.991Z</time>
      </trkpt>
      <trkpt lat="46.03736" lon="4.64184">
        <ele>317</ele>
        <time>2015-10-25T10:13:06.96Z</time>
      </trkpt>
      <trkpt lat="46.03735" lon="4.64172">
        <ele>317.799987793</ele>
        <time>2015-10-25T10:13:09.99Z</time>
      </trkpt>
      <trkpt lat="46.03735" lon="4.64169">
        <ele>317.799987793</ele>
        <time>2015-10-25T10:13:10.963Z</time>
      </trkpt>
      <trkpt lat="46.03733" lon="4.64158">
        <ele>317.5</ele>
        <time>2015-10-25T10:13:13.989Z</time>
      </trkpt>
      <trkpt lat="46.03732" lon="4.64155">
        <ele>317.200012207</ele>
        <time>2015-10-25T10:13:14.994Z</time>
      </trkpt>
      <trkpt lat="46.0373" lon="4.64144">
        <ele>317.299987793</ele>
        <time>2015-10-25T10:13:17.987Z</time>
      </trkpt>
      <trkpt lat="46.03729" lon="4.64141">
        <ele>317.299987793</ele>
        <time>2015-10-25T10:13:18.965Z</time>
      </trkpt>
      <trkpt lat="46.03727" lon="4.6413">
        <ele>317.5</ele>
        <time>2015-10-25T10:13:21.989Z</time>
      </trkpt>
      <trkpt lat="46.03728" lon="4.64126">
        <ele>317.200012207</ele>
        <time>2015-10-25T10:13:22.987Z</time>
      </trkpt>
      <trkpt lat="46.03727" lon="4.64116">
        <ele>318</ele>
        <time>2015-10-25T10:13:25.99Z</time>
      </trkpt>
      <trkpt lat="46.03726" lon="4.64113">
        <ele>318.5</ele>
        <time>2015-10-25T10:13:26.96Z</time>
      </trkpt>
      <trkpt lat="46.03724" lon="4.64103">
        <ele>318.600006104</ele>
        <time>2015-10-25T10:13:29.988Z</time>
      </trkpt>
      <trkpt lat="46.03724" lon="4.64099">
        <ele>318.600006104</ele>
        <time>2015-10-25T10:13:30.959Z</time>
      </trkpt>
      <trkpt lat="46.03723" lon="4.64089">
        <ele>319.100006104</ele>
        <time>2015-10-25T10:13:33.989Z</time>
      </trkpt>
      <trkpt lat="46.03722" lon="4.64085">
        <ele>319.600006104</ele>
        <time>2015-10-25T10:13:34.959Z</time>
      </trkpt>
      <trkpt lat="46.03721" lon="4.64075">
        <ele>320.700012207</ele>
        <time>2015-10-25T10:13:37.993Z</time>
      </trkpt>
      <trkpt lat="46.0372" lon="4.64072">
        <ele>320.5</ele>
        <time>2015-10-25T10:13:38.959Z</time>
      </trkpt>
      <trkpt lat="46.03718" lon="4.64062">
        <ele>320.600006104</ele>
        <time>2015-10-25T10:13:41.989Z</time>
      </trkpt>
      <trkpt lat="46.03718" lon="4.64059">
        <ele>320.700012207</ele>
        <time>2015-10-25T10:13:42.963Z</time>
      </trkpt>
      <trkpt lat="46.03716" lon="4.64049">
        <ele>321.799987793</ele>
        <time>2015-10-25T10:13:45.992Z</time>
      </trkpt>
      <trkpt lat="46.03716" lon="4.64046">
        <ele>322.299987793</ele>
        <time>2015-10-25T10:13:46.964Z</time>
      </trkpt>
      <trkpt lat="46.03714" lon="4.64035">
        <ele>322.899993896</ele>
        <time>2015-10-25T10:13:49.986Z</time>
      </trkpt>
      <trkpt lat="46.03713" lon="4.64032">
        <ele>323</ele>
        <time>2015-10-25T10:13:50.959Z</time>
      </trkpt>
      <trkpt lat="46.03711" lon="4.64021">
        <ele>323.200012207</ele>
        <time>2015-10-25T10:13:54.002Z</time>
      </trkpt>
      <trkpt lat="46.0371" lon="4.64018">
        <ele>323.5</ele>
        <time>2015-10-25T10:13:54.959Z</time>
      </trkpt>
      <trkpt lat="46.03709" lon="4.64007">
        <ele>324.399993896</ele>
        <time>2015-10-25T10:13:58.004Z</time>
      </trkpt>
      <trkpt lat="46.03708" lon="4.64004">
        <ele>325</ele>
        <time>2015-10-25T10:13:58.96Z</time>
      </trkpt>
      <trkpt lat="46.03707" lon="4.63993">
        <ele>325.600006104</ele>
        <time>2015-10-25T10:14:01.986Z</time>
      </trkpt>
      <trkpt lat="46.03706" lon="4.6399">
        <ele>325.899993896</ele>
        <time>2015-10-25T10:14:02.962Z</time>
      </trkpt>
      <trkpt lat="46.03704" lon="4.6398">
        <ele>325.899993896</ele>
        <time>2015-10-25T10:14:05.993Z</time>
      </trkpt>
      <trkpt lat="46.03703" lon="4.63977">
        <ele>325.799987793</ele>
        <time>2015-10-25T10:14:06.96Z</time>
      </trkpt>
      <trkpt lat="46.03702" lon="4.63967">
        <ele>326.200012207</ele>
        <time>2015-10-25T10:14:09.989Z</time>
      </trkpt>
      <trkpt lat="46.03702" lon="4.63964">
        <ele>326.5</ele>
        <time>2015-10-25T10:14:10.959Z</time>
      </trkpt>
      <trkpt lat="46.037" lon="4.63951">
        <ele>327.399993896</ele>
        <time>2015-10-25T10:14:15.054Z</time>
      </trkpt>
      <trkpt lat="46.037" lon="4.63948">
        <ele>327.899993896</ele>
        <time>2015-10-25T10:14:15.965Z</time>
      </trkpt>
      <trkpt lat="46.03698" lon="4.63938">
        <ele>328.5</ele>
        <time>2015-10-25T10:14:19.032Z</time>
      </trkpt>
      <trkpt lat="46.03697" lon="4.63935">
        <ele>328.700012207</ele>
        <time>2015-10-25T10:14:19.958Z</time>
      </trkpt>
      <trkpt lat="46.03696" lon="4.63924">
        <ele>329</ele>
        <time>2015-10-25T10:14:22.986Z</time>
      </trkpt>
      <trkpt lat="46.03696" lon="4.63921">
        <ele>329.100006104</ele>
        <time>2015-10-25T10:14:23.961Z</time>
      </trkpt>
      <trkpt lat="46.03694" lon="4.6391">
        <ele>328</ele>
        <time>2015-10-25T10:14:26.986Z</time>
      </trkpt>
      <trkpt lat="46.03694" lon="4.63907">
        <ele>327.5</ele>
        <time>2015-10-25T10:14:27.963Z</time>
      </trkpt>
      <trkpt lat="46.03692" lon="4.63895">
        <ele>327.200012207</ele>
        <time>2015-10-25T10:14:31.994Z</time>
      </trkpt>
      <trkpt lat="46.03692" lon="4.63892">
        <ele>327.299987793</ele>
        <time>2015-10-25T10:14:32.971Z</time>
      </trkpt>
      <trkpt lat="46.0369" lon="4.63883">
        <ele>326.899993896</ele>
        <time>2015-10-25T10:14:36.031Z</time>
      </trkpt>
      <trkpt lat="46.03689" lon="4.63879">
        <ele>327</ele>
        <time>2015-10-25T10:14:36.959Z</time>
      </trkpt>
      <trkpt lat="46.03687" lon="4.63869">
        <ele>327.899993896</ele>
        <time>2015-10-25T10:14:40.004Z</time>
      </trkpt>
      <trkpt lat="46.03686" lon="4.63866">
        <ele>328.399993896</ele>
        <time>2015-10-25T10:14:40.96Z</time>
      </trkpt>
      <trkpt lat="46.03684" lon="4.63856">
        <ele>329.700012207</ele>
        <time>2015-10-25T10:14:44.02Z</time>
      </trkpt>
      <trkpt lat="46.03683" lon="4.63852">
        <ele>330.299987793</ele>
        <time>2015-10-25T10:14:44.96Z</time>
      </trkpt>
      <trkpt lat="46.03681" lon="4.63842">
        <ele>330.899993896</ele>
        <time>2015-10-25T10:14:47.988Z</time>
      </trkpt>
      <trkpt lat="46.0368" lon="4.63838">
        <ele>331.5</ele>
        <time>2015-10-25T10:14:48.959Z</time>
      </trkpt>
      <trkpt lat="46.03678" lon="4.63828">
        <ele>333.200012207</ele>
        <time>2015-10-25T10:14:51.993Z</time>
      </trkpt>
      <trkpt lat="46.03678" lon="4.63825">
        <ele>333.799987793</ele>
        <time>2015-10-25T10:14:52.963Z</time>
      </trkpt>
      <trkpt lat="46.03678" lon="4.63815">
        <ele>335</ele>
        <time>2015-10-25T10:14:55.999Z</time>
      </trkpt>
      <trkpt lat="46.03678" lon="4.63811">
        <ele>335.5</ele>
        <time>2015-10-25T10:14:56.964Z</time>
      </trkpt>
      <trkpt lat="46.03674" lon="4.638">
        <ele>338</ele>
        <time>2015-10-25T10:15:01Z</time>
      </trkpt>
      <trkpt lat="46.03674" lon="4.63796">
        <ele>338.600006104</ele>
        <time>2015-10-25T10:15:01.962Z</time>
      </trkpt>
      <trkpt lat="46.03673" lon="4.63786">
        <ele>339.799987793</ele>
        <time>2015-10-25T10:15:04.994Z</time>
      </trkpt>
      <trkpt lat="46.03672" lon="4.63783">
        <ele>340.200012207</ele>
        <time>2015-10-25T10:15:05.97Z</time>
      </trkpt>
      <trkpt lat="46.03672" lon="4.6377">
        <ele>341.100006104</ele>
        <time>2015-10-25T10:15:09.993Z</time>
      </trkpt>
      <trkpt lat="46.03674" lon="4.63768">
        <ele>341.600006104</ele>
        <time>2015-10-25T10:15:10.96Z</time>
      </trkpt>
      <trkpt lat="46.03677" lon="4.63759">
        <ele>343.600006104</ele>
        <time>2015-10-25T10:15:13.986Z</time>
      </trkpt>
      <trkpt lat="46.03678" lon="4.63755">
        <ele>343.799987793</ele>
        <time>2015-10-25T10:15:14.959Z</time>
      </trkpt>
      <trkpt lat="46.03685" lon="4.63747">
        <ele>344.600006104</ele>
        <time>2015-10-25T10:15:18.989Z</time>
      </trkpt>
      <trkpt lat="46.03687" lon="4.63745">
        <ele>344.899993896</ele>
        <time>2015-10-25T10:15:19.997Z</time>
      </trkpt>
      <trkpt lat="46.03694" lon="4.6374">
        <ele>346</ele>
        <time>2015-10-25T10:15:24.054Z</time>
      </trkpt>
      <trkpt lat="46.03696" lon="4.63739">
        <ele>346.200012207</ele>
        <time>2015-10-25T10:15:24.962Z</time>
      </trkpt>
      <trkpt lat="46.03703" lon="4.63735">
        <ele>345.700012207</ele>
        <time>2015-10-25T10:15:27.989Z</time>
      </trkpt>
      <trkpt lat="46.03705" lon="4.63734">
        <ele>345.600006104</ele>
        <time>2015-10-25T10:15:28.958Z</time>
      </trkpt>
      <trkpt lat="46.03712" lon="4.6373">
        <ele>344.700012207</ele>
        <time>2015-10-25T10:15:32.144Z</time>
      </trkpt>
      <trkpt lat="46.03714" lon="4.63728">
        <ele>344.799987793</ele>
        <time>2015-10-25T10:15:32.96Z</time>
      </trkpt>
      <trkpt lat="46.03721" lon="4.63721">
        <ele>346.200012207</ele>
        <time>2015-10-25T10:15:36.989Z</time>
      </trkpt>
      <trkpt lat="46.03723" lon="4.6372">
        <ele>346.899993896</ele>
        <time>2015-10-25T10:15:37.963Z</time>
      </trkpt>
      <trkpt lat="46.03728" lon="4.63713">
        <ele>348.100006104</ele>
        <time>2015-10-25T10:15:40.985Z</time>
      </trkpt>
      <trkpt lat="46.03729" lon="4.63711">
        <ele>348.399993896</ele>
        <time>2015-10-25T10:15:41.961Z</time>
      </trkpt>
      <trkpt lat="46.03734" lon="4.63701">
        <ele>349.100006104</ele>
        <time>2015-10-25T10:15:46Z</time>
      </trkpt>
      <trkpt lat="46.03735" lon="4.63697">
        <ele>349</ele>
        <time>2015-10-25T10:15:46.963Z</time>
      </trkpt>
      <trkpt lat="46.03738" lon="4.63688">
        <ele>348.799987793</ele>
        <time>2015-10-25T10:15:49.988Z</time>
      </trkpt>
      <trkpt lat="46.03738" lon="4.63685">
        <ele>348.399993896</ele>
        <time>2015-10-25T10:15:50.959Z</time>
      </trkpt>
      <trkpt lat="46.0374" lon="4.63675">
        <ele>348.799987793</ele>
        <time>2015-10-25T10:15:54.024Z</time>
      </trkpt>
      <trkpt lat="46.03741" lon="4.63672">
        <ele>349.100006104</ele>
        <time>2015-10-25T10:15:54.959Z</time>
      </trkpt>
      <trkpt lat="46.03742" lon="4.63662">
        <ele>349.5</ele>
        <time>2015-10-25T10:15:57.995Z</time>
      </trkpt>
      <trkpt lat="46.03742" lon="4.63658">
        <ele>349.5</ele>
        <time>2015-10-25T10:15:58.959Z</time>
      </trkpt>
      <trkpt lat="46.03742" lon="4.63648">
        <ele>348.700012207</ele>
        <time>2015-10-25T10:16:01.988Z</time>
      </trkpt>
      <trkpt lat="46.03742" lon="4.63644">
        <ele>348.5</ele>
        <time>2015-10-25T10:16:02.954Z</time>
      </trkpt>
      <trkpt lat="46.03744" lon="4.63632">
        <ele>348.600006104</ele>
        <time>2015-10-25T10:16:06.991Z</time>
      </trkpt>
      <trkpt lat="46.03744" lon="4.63629">
        <ele>348.799987793</ele>
        <time>2015-10-25T10:16:07.959Z</time>
      </trkpt>
      <trkpt lat="46.03745" lon="4.63619">
        <ele>348.600006104</ele>
        <time>2015-10-25T10:16:10.985Z</time>
      </trkpt>
      <trkpt lat="46.03746" lon="4.63615">
        <ele>348.399993896</ele>
        <time>2015-10-25T10:16:11.964Z</time>
      </trkpt>
      <trkpt lat="46.03747" lon="4.63605">
        <ele>347.899993896</ele>
        <time>2015-10-25T10:16:15.014Z</time>
      </trkpt>
      <trkpt lat="46.03747" lon="4.63602">
        <ele>348.100006104</ele>
        <time>2015-10-25T10:16:15.976Z</time>
      </trkpt>
      <trkpt lat="46.03747" lon="4.63592">
        <ele>348.299987793</ele>
        <time>2015-10-25T10:16:19.004Z</time>
      </trkpt>
      <trkpt lat="46.03747" lon="4.63588">
        <ele>348.399993896</ele>
        <time>2015-10-25T10:16:19.962Z</time>
      </trkpt>
      <trkpt lat="46.03746" lon="4.63576">
        <ele>348.200012207</ele>
        <time>2015-10-25T10:16:23.99Z</time>
      </trkpt>
      <trkpt lat="46.03746" lon="4.63573">
        <ele>348.399993896</ele>
        <time>2015-10-25T10:16:24.962Z</time>
      </trkpt>
      <trkpt lat="46.03742" lon="4.63562">
        <ele>349.700012207</ele>
        <time>2015-10-25T10:16:28.985Z</time>
      </trkpt>
      <trkpt lat="46.03744" lon="4.63559">
        <ele>350</ele>
        <time>2015-10-25T10:16:29.96Z</time>
      </trkpt>
      <trkpt lat="46.03745" lon="4.63546">
        <ele>350.899993896</ele>
        <time>2015-10-25T10:16:33.989Z</time>
      </trkpt>
      <trkpt lat="46.03745" lon="4.63543">
        <ele>351.299987793</ele>
        <time>2015-10-25T10:16:34.976Z</time>
      </trkpt>
      <trkpt lat="46.03745" lon="4.63531">
        <ele>352.399993896</ele>
        <time>2015-10-25T10:16:39.02Z</time>
      </trkpt>
      <trkpt lat="46.03745" lon="4.63527">
        <ele>352.399993896</ele>
        <time>2015-10-25T10:16:39.962Z</time>
      </trkpt>
      <trkpt lat="46.03745" lon="4.63515">
        <ele>353.899993896</ele>
        <time>2015-10-25T10:16:43.985Z</time>
      </trkpt>
      <trkpt lat="46.03745" lon="4.63512">
        <ele>354.299987793</ele>
        <time>2015-10-25T10:16:44.982Z</time>
      </trkpt>
      <trkpt lat="46.03745" lon="4.63502">
        <ele>354.5</ele>
        <time>2015-10-25T10:16:47.986Z</time>
      </trkpt>
      <trkpt lat="46.03745" lon="4.63499">
        <ele>354.399993896</ele>
        <time>2015-10-25T10:16:48.962Z</time>
      </trkpt>
      <trkpt lat="46.03744" lon="4.63489">
        <ele>354.299987793</ele>
        <time>2015-10-25T10:16:51.988Z</time>
      </trkpt>
      <trkpt lat="46.03743" lon="4.63486">
        <ele>354.299987793</ele>
        <time>2015-10-25T10:16:52.962Z</time>
      </trkpt>
      <trkpt lat="46.03742" lon="4.63476">
        <ele>354.700012207</ele>
        <time>2015-10-25T10:16:56.007Z</time>
      </trkpt>
      <trkpt lat="46.03743" lon="4.63473">
        <ele>355.100006104</ele>
        <time>2015-10-25T10:16:56.994Z</time>
      </trkpt>
      <trkpt lat="46.03744" lon="4.63463">
        <ele>355</ele>
        <time>2015-10-25T10:17:00.024Z</time>
      </trkpt>
      <trkpt lat="46.03744" lon="4.6346">
        <ele>354.600006104</ele>
        <time>2015-10-25T10:17:00.975Z</time>
      </trkpt>
      <trkpt lat="46.03742" lon="4.63447">
        <ele>355.600006104</ele>
        <time>2015-10-25T10:17:05.025Z</time>
      </trkpt>
      <trkpt lat="46.03743" lon="4.63444">
        <ele>355.700012207</ele>
        <time>2015-10-25T10:17:05.98Z</time>
      </trkpt>
      <trkpt lat="46.03743" lon="4.63434">
        <ele>356.100006104</ele>
        <time>2015-10-25T10:17:08.985Z</time>
      </trkpt>
      <trkpt lat="46.03743" lon="4.63431">
        <ele>356.399993896</ele>
        <time>2015-10-25T10:17:09.962Z</time>
      </trkpt>
      <trkpt lat="46.03741" lon="4.63419">
        <ele>356.299987793</ele>
        <time>2015-10-25T10:17:13.985Z</time>
      </trkpt>
      <trkpt lat="46.03741" lon="4.63415">
        <ele>356.399993896</ele>
        <time>2015-10-25T10:17:14.963Z</time>
      </trkpt>
      <trkpt lat="46.03741" lon="4.63403">
        <ele>357.5</ele>
        <time>2015-10-25T10:17:18.988Z</time>
      </trkpt>
      <trkpt lat="46.03741" lon="4.634">
        <ele>357.799987793</ele>
        <time>2015-10-25T10:17:19.961Z</time>
      </trkpt>
      <trkpt lat="46.0374" lon="4.63387">
        <ele>357.899993896</ele>
        <time>2015-10-25T10:17:24.037Z</time>
      </trkpt>
      <trkpt lat="46.0374" lon="4.63384">
        <ele>357.799987793</ele>
        <time>2015-10-25T10:17:24.958Z</time>
      </trkpt>
      <trkpt lat="46.03738" lon="4.63374">
        <ele>357.399993896</ele>
        <time>2015-10-25T10:17:27.991Z</time>
      </trkpt>
      <trkpt lat="46.03738" lon="4.6337">
        <ele>357.799987793</ele>
        <time>2015-10-25T10:17:28.958Z</time>
      </trkpt>
      <trkpt lat="46.03738" lon="4.63359">
        <ele>358.799987793</ele>
        <time>2015-10-25T10:17:31.985Z</time>
      </trkpt>
      <trkpt lat="46.03737" lon="4.63355">
        <ele>359</ele>
        <time>2015-10-25T10:17:32.959Z</time>
      </trkpt>
      <trkpt lat="46.03737" lon="4.63346">
        <ele>359.299987793</ele>
        <time>2015-10-25T10:17:36.012Z</time>
      </trkpt>
      <trkpt lat="46.03737" lon="4.63342">
        <ele>359.399993896</ele>
        <time>2015-10-25T10:17:36.988Z</time>
      </trkpt>
      <trkpt lat="46.03737" lon="4.63332">
        <ele>359.399993896</ele>
        <time>2015-10-25T10:17:39.998Z</time>
      </trkpt>
      <trkpt lat="46.03737" lon="4.63328">
        <ele>359.700012207</ele>
        <time>2015-10-25T10:17:41.004Z</time>
      </trkpt>
      <trkpt lat="46.03737" lon="4.63318">
        <ele>359.899993896</ele>
        <time>2015-10-25T10:17:43.987Z</time>
      </trkpt>
      <trkpt lat="46.03738" lon="4.63315">
        <ele>360.600006104</ele>
        <time>2015-10-25T10:17:44.958Z</time>
      </trkpt>
      <trkpt lat="46.03739" lon="4.63304">
        <ele>361.399993896</ele>
        <time>2015-10-25T10:17:47.986Z</time>
      </trkpt>
      <trkpt lat="46.03739" lon="4.63301">
        <ele>361.700012207</ele>
        <time>2015-10-25T10:17:48.958Z</time>
      </trkpt>
      <trkpt lat="46.03739" lon="4.63291">
        <ele>362.100006104</ele>
        <time>2015-10-25T10:17:51.991Z</time>
      </trkpt>
      <trkpt lat="46.03739" lon="4.63287">
        <ele>362.299987793</ele>
        <time>2015-10-25T10:17:52.958Z</time>
      </trkpt>
      <trkpt lat="46.03739" lon="4.63277">
        <ele>363.200012207</ele>
        <time>2015-10-25T10:17:56.013Z</time>
      </trkpt>
      <trkpt lat="46.0374" lon="4.63274">
        <ele>363.200012207</ele>
        <time>2015-10-25T10:17:56.958Z</time>
      </trkpt>
      <trkpt lat="46.03741" lon="4.63264">
        <ele>363.899993896</ele>
        <time>2015-10-25T10:17:59.986Z</time>
      </trkpt>
      <trkpt lat="46.03742" lon="4.6326">
        <ele>364.100006104</ele>
        <time>2015-10-25T10:18:00.958Z</time>
      </trkpt>
      <trkpt lat="46.03741" lon="4.6325">
        <ele>364</ele>
        <time>2015-10-25T10:18:03.994Z</time>
      </trkpt>
      <trkpt lat="46.03741" lon="4.63246">
        <ele>363.899993896</ele>
        <time>2015-10-25T10:18:04.988Z</time>
      </trkpt>
      <trkpt lat="46.03741" lon="4.63237">
        <ele>364.100006104</ele>
        <time>2015-10-25T10:18:08.055Z</time>
      </trkpt>
      <trkpt lat="46.03741" lon="4.63233">
        <ele>364.100006104</ele>
        <time>2015-10-25T10:18:08.958Z</time>
      </trkpt>
      <trkpt lat="46.03742" lon="4.63223">
        <ele>364.200012207</ele>
        <time>2015-10-25T10:18:11.986Z</time>
      </trkpt>
      <trkpt lat="46.03742" lon="4.6322">
        <ele>364.100006104</ele>
        <time>2015-10-25T10:18:12.958Z</time>
      </trkpt>
      <trkpt lat="46.03744" lon="4.63207">
        <ele>365.399993896</ele>
        <time>2015-10-25T10:18:16.984Z</time>
      </trkpt>
      <trkpt lat="46.03744" lon="4.63204">
        <ele>365.600006104</ele>
        <time>2015-10-25T10:18:17.962Z</time>
      </trkpt>
      <trkpt lat="46.03745" lon="4.63194">
        <ele>366</ele>
        <time>2015-10-25T10:18:20.99Z</time>
      </trkpt>
      <trkpt lat="46.03746" lon="4.63191">
        <ele>366.399993896</ele>
        <time>2015-10-25T10:18:21.963Z</time>
      </trkpt>
      <trkpt lat="46.03746" lon="4.63181">
        <ele>366.799987793</ele>
        <time>2015-10-25T10:18:24.987Z</time>
      </trkpt>
      <trkpt lat="46.03746" lon="4.63178">
        <ele>367.100006104</ele>
        <time>2015-10-25T10:18:25.983Z</time>
      </trkpt>
      <trkpt lat="46.03745" lon="4.63165">
        <ele>367.700012207</ele>
        <time>2015-10-25T10:18:30.086Z</time>
      </trkpt>
      <trkpt lat="46.03745" lon="4.63162">
        <ele>368</ele>
        <time>2015-10-25T10:18:30.958Z</time>
      </trkpt>
      <trkpt lat="46.03745" lon="4.63149">
        <ele>368.899993896</ele>
        <time>2015-10-25T10:18:34.99Z</time>
      </trkpt>
      <trkpt lat="46.03745" lon="4.63146">
        <ele>369.100006104</ele>
        <time>2015-10-25T10:18:35.992Z</time>
      </trkpt>
      <trkpt lat="46.03746" lon="4.63136">
        <ele>368.799987793</ele>
        <time>2015-10-25T10:18:39.024Z</time>
      </trkpt>
      <trkpt lat="46.03746" lon="4.63133">
        <ele>368.899993896</ele>
        <time>2015-10-25T10:18:39.965Z</time>
      </trkpt>
      <trkpt lat="46.03745" lon="4.63123">
        <ele>369.299987793</ele>
        <time>2015-10-25T10:18:42.984Z</time>
      </trkpt>
      <trkpt lat="46.03745" lon="4.6312">
        <ele>369.600006104</ele>
        <time>2015-10-25T10:18:43.99Z</time>
      </trkpt>
      <trkpt lat="46.03744" lon="4.63107">
        <ele>370.299987793</ele>
        <time>2015-10-25T10:18:47.989Z</time>
      </trkpt>
      <trkpt lat="46.03744" lon="4.63104">
        <ele>370.600006104</ele>
        <time>2015-10-25T10:18:49.004Z</time>
      </trkpt>
      <trkpt lat="46.03744" lon="4.63092">
        <ele>371.200012207</ele>
        <time>2015-10-25T10:18:52.985Z</time>
      </trkpt>
      <trkpt lat="46.03744" lon="4.63089">
        <ele>371.5</ele>
        <time>2015-10-25T10:18:53.961Z</time>
      </trkpt>
      <trkpt lat="46.03743" lon="4.63076">
        <ele>372.299987793</ele>
        <time>2015-10-25T10:18:57.988Z</time>
      </trkpt>
      <trkpt lat="46.03743" lon="4.63073">
        <ele>372.299987793</ele>
        <time>2015-10-25T10:18:58.96Z</time>
      </trkpt>
      <trkpt lat="46.03741" lon="4.63061">
        <ele>372.799987793</ele>
        <time>2015-10-25T10:19:03.029Z</time>
      </trkpt>
      <trkpt lat="46.0374" lon="4.63057">
        <ele>373.200012207</ele>
        <time>2015-10-25T10:19:03.96Z</time>
      </trkpt>
      <trkpt lat="46.03738" lon="4.63047">
        <ele>373.200012207</ele>
        <time>2015-10-25T10:19:06.988Z</time>
      </trkpt>
      <trkpt lat="46.03737" lon="4.63044">
        <ele>373.700012207</ele>
        <time>2015-10-25T10:19:07.958Z</time>
      </trkpt>
      <trkpt lat="46.03735" lon="4.63034">
        <ele>374.299987793</ele>
        <time>2015-10-25T10:19:10.988Z</time>
      </trkpt>
      <trkpt lat="46.03733" lon="4.63031">
        <ele>374.200012207</ele>
        <time>2015-10-25T10:19:11.959Z</time>
      </trkpt>
      <trkpt lat="46.03729" lon="4.63023">
        <ele>374.299987793</ele>
        <time>2015-10-25T10:19:14.988Z</time>
      </trkpt>
      <trkpt lat="46.03728" lon="4.6302">
        <ele>374.600006104</ele>
        <time>2015-10-25T10:19:15.997Z</time>
      </trkpt>
      <trkpt lat="46.03724" lon="4.63011">
        <ele>374.299987793</ele>
        <time>2015-10-25T10:19:19.163Z</time>
      </trkpt>
      <trkpt lat="46.03722" lon="4.63008">
        <ele>374.200012207</ele>
        <time>2015-10-25T10:19:19.962Z</time>
      </trkpt>
      <trkpt lat="46.03718" lon="4.63001">
        <ele>373.899993896</ele>
        <time>2015-10-25T10:19:23.008Z</time>
      </trkpt>
      <trkpt lat="46.03716" lon="4.62998">
        <ele>374.100006104</ele>
        <time>2015-10-25T10:19:23.963Z</time>
      </trkpt>
      <trkpt lat="46.03712" lon="4.62989">
        <ele>374.100006104</ele>
        <time>2015-10-25T10:19:26.986Z</time>
      </trkpt>
      <trkpt lat="46.03711" lon="4.62986">
        <ele>374.100006104</ele>
        <time>2015-10-25T10:19:28Z</time>
      </trkpt>
      <trkpt lat="46.03706" lon="4.62978">
        <ele>374.299987793</ele>
        <time>2015-10-25T10:19:30.984Z</time>
      </trkpt>
      <trkpt lat="46.03705" lon="4.62976">
        <ele>374.5</ele>
        <time>2015-10-25T10:19:31.958Z</time>
      </trkpt>
      <trkpt lat="46.03701" lon="4.62966">
        <ele>375.100006104</ele>
        <time>2015-10-25T10:19:36.063Z</time>
      </trkpt>
      <trkpt lat="46.037" lon="4.62962">
        <ele>375.299987793</ele>
        <time>2015-10-25T10:19:36.958Z</time>
      </trkpt>
      <trkpt lat="46.03697" lon="4.62951">
        <ele>376.200012207</ele>
        <time>2015-10-25T10:19:40.984Z</time>
      </trkpt>
      <trkpt lat="46.03696" lon="4.62948">
        <ele>376</ele>
        <time>2015-10-25T10:19:41.962Z</time>
      </trkpt>
      <trkpt lat="46.03693" lon="4.62939">
        <ele>375.799987793</ele>
        <time>2015-10-25T10:19:44.987Z</time>
      </trkpt>
      <trkpt lat="46.03691" lon="4.62936">
        <ele>375.899993896</ele>
        <time>2015-10-25T10:19:45.988Z</time>
      </trkpt>
      <trkpt lat="46.03687" lon="4.62928">
        <ele>376</ele>
        <time>2015-10-25T10:19:48.985Z</time>
      </trkpt>
      <trkpt lat="46.03685" lon="4.62926">
        <ele>376</ele>
        <time>2015-10-25T10:19:49.958Z</time>
      </trkpt>
      <trkpt lat="46.03682" lon="4.62914">
        <ele>376.399993896</ele>
        <time>2015-10-25T10:19:53.986Z</time>
      </trkpt>
      <trkpt lat="46.03681" lon="4.62911">
        <ele>376.299987793</ele>
        <time>2015-10-25T10:19:54.981Z</time>
      </trkpt>
      <trkpt lat="46.03678" lon="4.62902">
        <ele>376.299987793</ele>
        <time>2015-10-25T10:19:58.252Z</time>
      </trkpt>
      <trkpt lat="46.03677" lon="4.62899">
        <ele>376.299987793</ele>
        <time>2015-10-25T10:19:58.958Z</time>
      </trkpt>
      <trkpt lat="46.03675" lon="4.62888">
        <ele>377.799987793</ele>
        <time>2015-10-25T10:20:03.031Z</time>
      </trkpt>
      <trkpt lat="46.03672" lon="4.62885">
        <ele>377.200012207</ele>
        <time>2015-10-25T10:20:03.961Z</time>
      </trkpt>
      <trkpt lat="46.0367" lon="4.62873">
        <ele>379</ele>
        <time>2015-10-25T10:20:08.108Z</time>
      </trkpt>
      <trkpt lat="46.03669" lon="4.6287">
        <ele>379.299987793</ele>
        <time>2015-10-25T10:20:08.975Z</time>
      </trkpt>
      <trkpt lat="46.03666" lon="4.62861">
        <ele>381.600006104</ele>
        <time>2015-10-25T10:20:13.018Z</time>
      </trkpt>
      <trkpt lat="46.03665" lon="4.62858">
        <ele>381.799987793</ele>
        <time>2015-10-25T10:20:13.958Z</time>
      </trkpt>
      <trkpt lat="46.03664" lon="4.62847">
        <ele>384.299987793</ele>
        <time>2015-10-25T10:20:18.07Z</time>
      </trkpt>
      <trkpt lat="46.03664" lon="4.62844">
        <ele>385</ele>
        <time>2015-10-25T10:20:18.962Z</time>
      </trkpt>
      <trkpt lat="46.03663" lon="4.62835">
        <ele>386.100006104</ele>
        <time>2015-10-25T10:20:21.988Z</time>
      </trkpt>
      <trkpt lat="46.03663" lon="4.62831">
        <ele>386.399993896</ele>
        <time>2015-10-25T10:20:22.958Z</time>
      </trkpt>
      <trkpt lat="46.03662" lon="4.62821">
        <ele>387.200012207</ele>
        <time>2015-10-25T10:20:26.018Z</time>
      </trkpt>
      <trkpt lat="46.03662" lon="4.62818">
        <ele>387.399993896</ele>
        <time>2015-10-25T10:20:26.962Z</time>
      </trkpt>
      <trkpt lat="46.03662" lon="4.62808">
        <ele>387.5</ele>
        <time>2015-10-25T10:20:29.988Z</time>
      </trkpt>
      <trkpt lat="46.03661" lon="4.62804">
        <ele>387.799987793</ele>
        <time>2015-10-25T10:20:30.954Z</time>
      </trkpt>
      <trkpt lat="46.03661" lon="4.62793">
        <ele>388.200012207</ele>
        <time>2015-10-25T10:20:33.991Z</time>
      </trkpt>
      <trkpt lat="46.03661" lon="4.6279">
        <ele>388.5</ele>
        <time>2015-10-25T10:20:34.958Z</time>
      </trkpt>
      <trkpt lat="46.03662" lon="4.62779">
        <ele>388.700012207</ele>
        <time>2015-10-25T10:20:38.074Z</time>
      </trkpt>
      <trkpt lat="46.03662" lon="4.62776">
        <ele>388.600006104</ele>
        <time>2015-10-25T10:20:38.996Z</time>
      </trkpt>
      <trkpt lat="46.03661" lon="4.62766">
        <ele>389.200012207</ele>
        <time>2015-10-25T10:20:41.986Z</time>
      </trkpt>
      <trkpt lat="46.03661" lon="4.62763">
        <ele>389.700012207</ele>
        <time>2015-10-25T10:20:42.96Z</time>
      </trkpt>
      <trkpt lat="46.03661" lon="4.62753">
        <ele>390.5</ele>
        <time>2015-10-25T10:20:46.019Z</time>
      </trkpt>
      <trkpt lat="46.03661" lon="4.6275">
        <ele>390.5</ele>
        <time>2015-10-25T10:20:46.991Z</time>
      </trkpt>
      <trkpt lat="46.0366" lon="4.62738">
        <ele>391.700012207</ele>
        <time>2015-10-25T10:20:50.998Z</time>
      </trkpt>
      <trkpt lat="46.03661" lon="4.62735">
        <ele>392.200012207</ele>
        <time>2015-10-25T10:20:51.962Z</time>
      </trkpt>
      <trkpt lat="46.0366" lon="4.62725">
        <ele>393.600006104</ele>
        <time>2015-10-25T10:20:54.984Z</time>
      </trkpt>
      <trkpt lat="46.0366" lon="4.62721">
        <ele>393.5</ele>
        <time>2015-10-25T10:20:55.96Z</time>
      </trkpt>
      <trkpt lat="46.03658" lon="4.62711">
        <ele>394.600006104</ele>
        <time>2015-10-25T10:20:58.984Z</time>
      </trkpt>
      <trkpt lat="46.03658" lon="4.62708">
        <ele>394.600006104</ele>
        <time>2015-10-25T10:20:59.959Z</time>
      </trkpt>
      <trkpt lat="46.03657" lon="4.62697">
        <ele>394.399993896</ele>
        <time>2015-10-25T10:21:02.988Z</time>
      </trkpt>
      <trkpt lat="46.03656" lon="4.62694">
        <ele>393.899993896</ele>
        <time>2015-10-25T10:21:03.96Z</time>
      </trkpt>
      <trkpt lat="46.03653" lon="4.62683">
        <ele>393.399993896</ele>
        <time>2015-10-25T10:21:07.074Z</time>
      </trkpt>
      <trkpt lat="46.03652" lon="4.6268">
        <ele>392.899993896</ele>
        <time>2015-10-25T10:21:07.958Z</time>
      </trkpt>
      <trkpt lat="46.0365" lon="4.6267">
        <ele>393.200012207</ele>
        <time>2015-10-25T10:21:10.984Z</time>
      </trkpt>
      <trkpt lat="46.03649" lon="4.62667">
        <ele>393.399993896</ele>
        <time>2015-10-25T10:21:11.979Z</time>
      </trkpt>
      <trkpt lat="46.03645" lon="4.62658">
        <ele>392.899993896</ele>
        <time>2015-10-25T10:21:15.02Z</time>
      </trkpt>
      <trkpt lat="46.03645" lon="4.62655">
        <ele>392.899993896</ele>
        <time>2015-10-25T10:21:15.963Z</time>
      </trkpt>
      <trkpt lat="46.03641" lon="4.62646">
        <ele>392.799987793</ele>
        <time>2015-10-25T10:21:18.983Z</time>
      </trkpt>
      <trkpt lat="46.0364" lon="4.62643">
        <ele>393.100006104</ele>
        <time>2015-10-25T10:21:19.958Z</time>
      </trkpt>
      <trkpt lat="46.03636" lon="4.62636">
        <ele>393.299987793</ele>
        <time>2015-10-25T10:21:22.984Z</time>
      </trkpt>
      <trkpt lat="46.03634" lon="4.62633">
        <ele>393.299987793</ele>
        <time>2015-10-25T10:21:23.959Z</time>
      </trkpt>
      <trkpt lat="46.03629" lon="4.62625">
        <ele>393.200012207</ele>
        <time>2015-10-25T10:21:26.984Z</time>
      </trkpt>
      <trkpt lat="46.03627" lon="4.62623">
        <ele>393.100006104</ele>
        <time>2015-10-25T10:21:27.961Z</time>
      </trkpt>
      <trkpt lat="46.03621" lon="4.62616">
        <ele>393.100006104</ele>
        <time>2015-10-25T10:21:30.984Z</time>
      </trkpt>
      <trkpt lat="46.03619" lon="4.62614">
        <ele>393</ele>
        <time>2015-10-25T10:21:31.958Z</time>
      </trkpt>
      <trkpt lat="46.03613" lon="4.62607">
        <ele>393.100006104</ele>
        <time>2015-10-25T10:21:34.99Z</time>
      </trkpt>
      <trkpt lat="46.03612" lon="4.62604">
        <ele>393.100006104</ele>
        <time>2015-10-25T10:21:35.963Z</time>
      </trkpt>
      <trkpt lat="46.03605" lon="4.62599">
        <ele>393.299987793</ele>
        <time>2015-10-25T10:21:38.998Z</time>
      </trkpt>
      <trkpt lat="46.03603" lon="4.62597">
        <ele>393.299987793</ele>
        <time>2015-10-25T10:21:39.961Z</time>
      </trkpt>
      <trkpt lat="46.03596" lon="4.62592">
        <ele>393.700012207</ele>
        <time>2015-10-25T10:21:42.995Z</time>
      </trkpt>
      <trkpt lat="46.03594" lon="4.6259">
        <ele>394</ele>
        <time>2015-10-25T10:21:43.957Z</time>
      </trkpt>
      <trkpt lat="46.03587" lon="4.62585">
        <ele>394.200012207</ele>
        <time>2015-10-25T10:21:46.988Z</time>
      </trkpt>
      <trkpt lat="46.03585" lon="4.62584">
        <ele>394.399993896</ele>
        <time>2015-10-25T10:21:47.982Z</time>
      </trkpt>
      <trkpt lat="46.03578" lon="4.6258">
        <ele>394.5</ele>
        <time>2015-10-25T10:21:50.984Z</time>
      </trkpt>
      <trkpt lat="46.03576" lon="4.62578">
        <ele>394.399993896</ele>
        <time>2015-10-25T10:21:51.961Z</time>
      </trkpt>
      <trkpt lat="46.03569" lon="4.62573">
        <ele>394.5</ele>
        <time>2015-10-25T10:21:54.988Z</time>
      </trkpt>
      <trkpt lat="46.03567" lon="4.62572">
        <ele>394.5</ele>
        <time>2015-10-25T10:21:56.085Z</time>
      </trkpt>
      <trkpt lat="46.0356" lon="4.62568">
        <ele>394.399993896</ele>
        <time>2015-10-25T10:21:58.983Z</time>
      </trkpt>
      <trkpt lat="46.03558" lon="4.62566">
        <ele>394.5</ele>
        <time>2015-10-25T10:21:59.975Z</time>
      </trkpt>
      <trkpt lat="46.03552" lon="4.62561">
        <ele>395.299987793</ele>
        <time>2015-10-25T10:22:02.984Z</time>
      </trkpt>
      <trkpt lat="46.0355" lon="4.62559">
        <ele>395.600006104</ele>
        <time>2015-10-25T10:22:03.961Z</time>
      </trkpt>
      <trkpt lat="46.03543" lon="4.62555">
        <ele>396.5</ele>
        <time>2015-10-25T10:22:06.99Z</time>
      </trkpt>
      <trkpt lat="46.03541" lon="4.62553">
        <ele>396.799987793</ele>
        <time>2015-10-25T10:22:07.958Z</time>
      </trkpt>
      <trkpt lat="46.03534" lon="4.62548">
        <ele>396.899993896</ele>
        <time>2015-10-25T10:22:10.983Z</time>
      </trkpt>
      <trkpt lat="46.03532" lon="4.62546">
        <ele>397.200012207</ele>
        <time>2015-10-25T10:22:11.961Z</time>
      </trkpt>
      <trkpt lat="46.03525" lon="4.6254">
        <ele>397.600006104</ele>
        <time>2015-10-25T10:22:15.044Z</time>
      </trkpt>
      <trkpt lat="46.03523" lon="4.62538">
        <ele>397.5</ele>
        <time>2015-10-25T10:22:15.961Z</time>
      </trkpt>
      <trkpt lat="46.03517" lon="4.62531">
        <ele>398.200012207</ele>
        <time>2015-10-25T10:22:18.984Z</time>
      </trkpt>
      <trkpt lat="46.03515" lon="4.62529">
        <ele>398.399993896</ele>
        <time>2015-10-25T10:22:19.957Z</time>
      </trkpt>
      <trkpt lat="46.03507" lon="4.62523">
        <ele>399.200012207</ele>
        <time>2015-10-25T10:22:24.047Z</time>
      </trkpt>
      <trkpt lat="46.03505" lon="4.62522">
        <ele>399.399993896</ele>
        <time>2015-10-25T10:22:24.961Z</time>
      </trkpt>
      <trkpt lat="46.03497" lon="4.62516">
        <ele>399.899993896</ele>
        <time>2015-10-25T10:22:28.983Z</time>
      </trkpt>
      <trkpt lat="46.03495" lon="4.62514">
        <ele>400.200012207</ele>
        <time>2015-10-25T10:22:29.958Z</time>
      </trkpt>
      <trkpt lat="46.03487" lon="4.62509">
        <ele>401.700012207</ele>
        <time>2015-10-25T10:22:33.988Z</time>
      </trkpt>
      <trkpt lat="46.03485" lon="4.62508">
        <ele>401.700012207</ele>
        <time>2015-10-25T10:22:34.958Z</time>
      </trkpt>
      <trkpt lat="46.03477" lon="4.62502">
        <ele>403.299987793</ele>
        <time>2015-10-25T10:22:37.984Z</time>
      </trkpt>
      <trkpt lat="46.03475" lon="4.62499">
        <ele>403.799987793</ele>
        <time>2015-10-25T10:22:38.957Z</time>
      </trkpt>
      <trkpt lat="46.03468" lon="4.62494">
        <ele>404.799987793</ele>
        <time>2015-10-25T10:22:41.986Z</time>
      </trkpt>
      <trkpt lat="46.03466" lon="4.62492">
        <ele>405.100006104</ele>
        <time>2015-10-25T10:22:42.996Z</time>
      </trkpt>
      <trkpt lat="46.03459" lon="4.62486">
        <ele>405.899993896</ele>
        <time>2015-10-25T10:22:46.029Z</time>
      </trkpt>
      <trkpt lat="46.03456" lon="4.62484">
        <ele>406.200012207</ele>
        <time>2015-10-25T10:22:46.963Z</time>
      </trkpt>
      <trkpt lat="46.0345" lon="4.62477">
        <ele>406.399993896</ele>
        <time>2015-10-25T10:22:50Z</time>
      </trkpt>
      <trkpt lat="46.03448" lon="4.62475">
        <ele>406.600006104</ele>
        <time>2015-10-25T10:22:50.999Z</time>
      </trkpt>
      <trkpt lat="46.03443" lon="4.62469">
        <ele>406.5</ele>
        <time>2015-10-25T10:22:53.988Z</time>
      </trkpt>
      <trkpt lat="46.03442" lon="4.62466">
        <ele>406.799987793</ele>
        <time>2015-10-25T10:22:54.957Z</time>
      </trkpt>
      <trkpt lat="46.03436" lon="4.62457">
        <ele>407.700012207</ele>
        <time>2015-10-25T10:22:57.991Z</time>
      </trkpt>
      <trkpt lat="46.03435" lon="4.62453">
        <ele>408.100006104</ele>
        <time>2015-10-25T10:22:58.995Z</time>
      </trkpt>
      <trkpt lat="46.03429" lon="4.62444">
        <ele>408.5</ele>
        <time>2015-10-25T10:23:01.997Z</time>
      </trkpt>
      <trkpt lat="46.03427" lon="4.62441">
        <ele>408.5</ele>
        <time>2015-10-25T10:23:02.958Z</time>
      </trkpt>
      <trkpt lat="46.03421" lon="4.62432">
        <ele>408.799987793</ele>
        <time>2015-10-25T10:23:05.991Z</time>
      </trkpt>
      <trkpt lat="46.0342" lon="4.62428">
        <ele>409.100006104</ele>
        <time>2015-10-25T10:23:06.978Z</time>
      </trkpt>
      <trkpt lat="46.03416" lon="4.6242">
        <ele>408.700012207</ele>
        <time>2015-10-25T10:23:08.987Z</time>
      </trkpt>
      <trkpt lat="46.03414" lon="4.62416">
        <ele>408.299987793</ele>
        <time>2015-10-25T10:23:09.961Z</time>
      </trkpt>
      <trkpt lat="46.03409" lon="4.6241">
        <ele>408.399993896</ele>
        <time>2015-10-25T10:23:11.989Z</time>
      </trkpt>
      <trkpt lat="46.03407" lon="4.62407">
        <ele>408.700012207</ele>
        <time>2015-10-25T10:23:12.957Z</time>
      </trkpt>
      <trkpt lat="46.03402" lon="4.62399">
        <ele>408.299987793</ele>
        <time>2015-10-25T10:23:15.993Z</time>
      </trkpt>
      <trkpt lat="46.034" lon="4.62396">
        <ele>408.200012207</ele>
        <time>2015-10-25T10:23:16.957Z</time>
      </trkpt>
      <trkpt lat="46.03396" lon="4.62387">
        <ele>407.899993896</ele>
        <time>2015-10-25T10:23:19.987Z</time>
      </trkpt>
      <trkpt lat="46.03394" lon="4.62384">
        <ele>407.899993896</ele>
        <time>2015-10-25T10:23:20.957Z</time>
      </trkpt>
      <trkpt lat="46.0339" lon="4.62374">
        <ele>407.399993896</ele>
        <time>2015-10-25T10:23:24.125Z</time>
      </trkpt>
      <trkpt lat="46.03388" lon="4.62371">
        <ele>407.200012207</ele>
        <time>2015-10-25T10:23:24.964Z</time>
      </trkpt>
      <trkpt lat="46.03383" lon="4.62362">
        <ele>407</ele>
        <time>2015-10-25T10:23:27.991Z</time>
      </trkpt>
      <trkpt lat="46.03382" lon="4.62359">
        <ele>406.899993896</ele>
        <time>2015-10-25T10:23:28.957Z</time>
      </trkpt>
      <trkpt lat="46.03378" lon="4.62348">
        <ele>407.5</ele>
        <time>2015-10-25T10:23:32.983Z</time>
      </trkpt>
      <trkpt lat="46.03377" lon="4.62345">
        <ele>407.700012207</ele>
        <time>2015-10-25T10:23:33.978Z</time>
      </trkpt>
      <trkpt lat="46.03374" lon="4.62335">
        <ele>408.899993896</ele>
        <time>2015-10-25T10:23:37.02Z</time>
      </trkpt>
      <trkpt lat="46.03373" lon="4.62331">
        <ele>409.299987793</ele>
        <time>2015-10-25T10:23:37.957Z</time>
      </trkpt>
      <trkpt lat="46.03372" lon="4.62319">
        <ele>410.5</ele>
        <time>2015-10-25T10:23:40.984Z</time>
      </trkpt>
      <trkpt lat="46.03371" lon="4.62315">
        <ele>410.899993896</ele>
        <time>2015-10-25T10:23:41.958Z</time>
      </trkpt>
      <trkpt lat="46.0337" lon="4.62304">
        <ele>412.399993896</ele>
        <time>2015-10-25T10:23:44.994Z</time>
      </trkpt>
      <trkpt lat="46.0337" lon="4.623">
        <ele>412.799987793</ele>
        <time>2015-10-25T10:23:45.984Z</time>
      </trkpt>
      <trkpt lat="46.03371" lon="4.6229">
        <ele>413.799987793</ele>
        <time>2015-10-25T10:23:48.984Z</time>
      </trkpt>
      <trkpt lat="46.03371" lon="4.62286">
        <ele>413.899993896</ele>
        <time>2015-10-25T10:23:49.957Z</time>
      </trkpt>
      <trkpt lat="46.0337" lon="4.62275">
        <ele>414.600006104</ele>
        <time>2015-10-25T10:23:52.986Z</time>
      </trkpt>
      <trkpt lat="46.03369" lon="4.62272">
        <ele>414.299987793</ele>
        <time>2015-10-25T10:23:53.962Z</time>
      </trkpt>
      <trkpt lat="46.03365" lon="4.62262">
        <ele>414.600006104</ele>
        <time>2015-10-25T10:23:56.984Z</time>
      </trkpt>
      <trkpt lat="46.03364" lon="4.62259">
        <ele>414.899993896</ele>
        <time>2015-10-25T10:23:57.964Z</time>
      </trkpt>
      <trkpt lat="46.03358" lon="4.62251">
        <ele>415</ele>
        <time>2015-10-25T10:24:00.984Z</time>
      </trkpt>
      <trkpt lat="46.03356" lon="4.62249">
        <ele>415.299987793</ele>
        <time>2015-10-25T10:24:01.98Z</time>
      </trkpt>
      <trkpt lat="46.03349" lon="4.62245">
        <ele>415.899993896</ele>
        <time>2015-10-25T10:24:04.998Z</time>
      </trkpt>
      <trkpt lat="46.03346" lon="4.62244">
        <ele>415.700012207</ele>
        <time>2015-10-25T10:24:05.958Z</time>
      </trkpt>
      <trkpt lat="46.03338" lon="4.6224">
        <ele>416</ele>
        <time>2015-10-25T10:24:08.983Z</time>
      </trkpt>
      <trkpt lat="46.03335" lon="4.62239">
        <ele>416.100006104</ele>
        <time>2015-10-25T10:24:10.131Z</time>
      </trkpt>
      <trkpt lat="46.03327" lon="4.62237">
        <ele>416</ele>
        <time>2015-10-25T10:24:13.02Z</time>
      </trkpt>
      <trkpt lat="46.03325" lon="4.62237">
        <ele>416</ele>
        <time>2015-10-25T10:24:13.958Z</time>
      </trkpt>
      <trkpt lat="46.03316" lon="4.62236">
        <ele>416.100006104</ele>
        <time>2015-10-25T10:24:16.983Z</time>
      </trkpt>
      <trkpt lat="46.03313" lon="4.62235">
        <ele>416</ele>
        <time>2015-10-25T10:24:17.958Z</time>
      </trkpt>
      <trkpt lat="46.03306" lon="4.62234">
        <ele>416.100006104</ele>
        <time>2015-10-25T10:24:21.006Z</time>
      </trkpt>
      <trkpt lat="46.03303" lon="4.62234">
        <ele>416.200012207</ele>
        <time>2015-10-25T10:24:21.961Z</time>
      </trkpt>
      <trkpt lat="46.03296" lon="4.62235">
        <ele>416.600006104</ele>
        <time>2015-10-25T10:24:24.984Z</time>
      </trkpt>
      <trkpt lat="46.03293" lon="4.62235">
        <ele>416.600006104</ele>
        <time>2015-10-25T10:24:25.96Z</time>
      </trkpt>
      <trkpt lat="46.03286" lon="4.62237">
        <ele>417.100006104</ele>
        <time>2015-10-25T10:24:29.185Z</time>
      </trkpt>
      <trkpt lat="46.03284" lon="4.62238">
        <ele>417.399993896</ele>
        <time>2015-10-25T10:24:30.004Z</time>
      </trkpt>
      <trkpt lat="46.03277" lon="4.62241">
        <ele>417.899993896</ele>
        <time>2015-10-25T10:24:32.987Z</time>
      </trkpt>
      <trkpt lat="46.03274" lon="4.62242">
        <ele>418.100006104</ele>
        <time>2015-10-25T10:24:33.96Z</time>
      </trkpt>
      <trkpt lat="46.03267" lon="4.62244">
        <ele>418.5</ele>
        <time>2015-10-25T10:24:37.003Z</time>
      </trkpt>
      <trkpt lat="46.03265" lon="4.62245">
        <ele>418.600006104</ele>
        <time>2015-10-25T10:24:37.979Z</time>
      </trkpt>
      <trkpt lat="46.03257" lon="4.62247">
        <ele>418.899993896</ele>
        <time>2015-10-25T10:24:40.983Z</time>
      </trkpt>
      <trkpt lat="46.03254" lon="4.62248">
        <ele>419</ele>
        <time>2015-10-25T10:24:41.962Z</time>
      </trkpt>
      <trkpt lat="46.03247" lon="4.6225">
        <ele>419.299987793</ele>
        <time>2015-10-25T10:24:44.984Z</time>
      </trkpt>
      <trkpt lat="46.03244" lon="4.6225">
        <ele>419.5</ele>
        <time>2015-10-25T10:24:46.136Z</time>
      </trkpt>
      <trkpt lat="46.03238" lon="4.62252">
        <ele>420</ele>
        <time>2015-10-25T10:24:48.983Z</time>
      </trkpt>
      <trkpt lat="46.03235" lon="4.62253">
        <ele>420.100006104</ele>
        <time>2015-10-25T10:24:49.957Z</time>
      </trkpt>
      <trkpt lat="46.03228" lon="4.62254">
        <ele>420.299987793</ele>
        <time>2015-10-25T10:24:52.983Z</time>
      </trkpt>
      <trkpt lat="46.03225" lon="4.62253">
        <ele>420.399993896</ele>
        <time>2015-10-25T10:24:53.958Z</time>
      </trkpt>
      <trkpt lat="46.03218" lon="4.62254">
        <ele>420.700012207</ele>
        <time>2015-10-25T10:24:56.983Z</time>
      </trkpt>
      <trkpt lat="46.03215" lon="4.62255">
        <ele>420.700012207</ele>
        <time>2015-10-25T10:24:57.96Z</time>
      </trkpt>
      <trkpt lat="46.03208" lon="4.62255">
        <ele>420.799987793</ele>
        <time>2015-10-25T10:25:00.984Z</time>
      </trkpt>
      <trkpt lat="46.03206" lon="4.62254">
        <ele>421</ele>
        <time>2015-10-25T10:25:01.957Z</time>
      </trkpt>
      <trkpt lat="46.03198" lon="4.62251">
        <ele>421.200012207</ele>
        <time>2015-10-25T10:25:04.983Z</time>
      </trkpt>
      <trkpt lat="46.03196" lon="4.6225">
        <ele>421.399993896</ele>
        <time>2015-10-25T10:25:05.961Z</time>
      </trkpt>
      <trkpt lat="46.03191" lon="4.62243">
        <ele>421.700012207</ele>
        <time>2015-10-25T10:25:08.986Z</time>
      </trkpt>
      <trkpt lat="46.03189" lon="4.6224">
        <ele>421.799987793</ele>
        <time>2015-10-25T10:25:09.964Z</time>
      </trkpt>
      <trkpt lat="46.03185" lon="4.62231">
        <ele>422.200012207</ele>
        <time>2015-10-25T10:25:13.04Z</time>
      </trkpt>
      <trkpt lat="46.03184" lon="4.62228">
        <ele>422.299987793</ele>
        <time>2015-10-25T10:25:13.959Z</time>
      </trkpt>
      <trkpt lat="46.03182" lon="4.62217">
        <ele>422.5</ele>
        <time>2015-10-25T10:25:16.984Z</time>
      </trkpt>
      <trkpt lat="46.03181" lon="4.62214">
        <ele>422.5</ele>
        <time>2015-10-25T10:25:17.973Z</time>
      </trkpt>
      <trkpt lat="46.03179" lon="4.62203">
        <ele>422.899993896</ele>
        <time>2015-10-25T10:25:20.987Z</time>
      </trkpt>
      <trkpt lat="46.03179" lon="4.622">
        <ele>422.899993896</ele>
        <time>2015-10-25T10:25:21.961Z</time>
      </trkpt>
      <trkpt lat="46.03175" lon="4.6219">
        <ele>423.200012207</ele>
        <time>2015-10-25T10:25:24.983Z</time>
      </trkpt>
      <trkpt lat="46.03174" lon="4.62187">
        <ele>423.399993896</ele>
        <time>2015-10-25T10:25:25.97Z</time>
      </trkpt>
      <trkpt lat="46.03172" lon="4.62176">
        <ele>424</ele>
        <time>2015-10-25T10:25:29.034Z</time>
      </trkpt>
      <trkpt lat="46.03171" lon="4.62173">
        <ele>424.200012207</ele>
        <time>2015-10-25T10:25:29.961Z</time>
      </trkpt>
      <trkpt lat="46.03167" lon="4.62164">
        <ele>423.899993896</ele>
        <time>2015-10-25T10:25:32.984Z</time>
      </trkpt>
      <trkpt lat="46.03165" lon="4.62161">
        <ele>423.700012207</ele>
        <time>2015-10-25T10:25:33.961Z</time>
      </trkpt>
      <trkpt lat="46.03162" lon="4.62152">
        <ele>423.700012207</ele>
        <time>2015-10-25T10:25:36.992Z</time>
      </trkpt>
      <trkpt lat="46.03161" lon="4.62149">
        <ele>423.799987793</ele>
        <time>2015-10-25T10:25:37.957Z</time>
      </trkpt>
      <trkpt lat="46.03158" lon="4.6214">
        <ele>424.200012207</ele>
        <time>2015-10-25T10:25:40.988Z</time>
      </trkpt>
      <trkpt lat="46.03156" lon="4.62138">
        <ele>423.700012207</ele>
        <time>2015-10-25T10:25:41.958Z</time>
      </trkpt>
      <trkpt lat="46.03151" lon="4.6213">
        <ele>423.700012207</ele>
        <time>2015-10-25T10:25:44.983Z</time>
      </trkpt>
      <trkpt lat="46.0315" lon="4.62128">
        <ele>423.5</ele>
        <time>2015-10-25T10:25:45.959Z</time>
      </trkpt>
      <trkpt lat="46.03147" lon="4.62119">
        <ele>424.299987793</ele>
        <time>2015-10-25T10:25:48.983Z</time>
      </trkpt>
      <trkpt lat="46.03145" lon="4.62116">
        <ele>424.100006104</ele>
        <time>2015-10-25T10:25:49.957Z</time>
      </trkpt>
      <trkpt lat="46.0314" lon="4.62107">
        <ele>425.5</ele>
        <time>2015-10-25T10:25:54.021Z</time>
      </trkpt>
      <trkpt lat="46.03138" lon="4.62104">
        <ele>425.700012207</ele>
        <time>2015-10-25T10:25:54.975Z</time>
      </trkpt>
      <trkpt lat="46.03133" lon="4.62096">
        <ele>426.5</ele>
        <time>2015-10-25T10:25:57.993Z</time>
      </trkpt>
      <trkpt lat="46.03131" lon="4.62093">
        <ele>426.799987793</ele>
        <time>2015-10-25T10:25:58.957Z</time>
      </trkpt>
      <trkpt lat="46.03126" lon="4.62084">
        <ele>427.5</ele>
        <time>2015-10-25T10:26:02.009Z</time>
      </trkpt>
      <trkpt lat="46.03125" lon="4.62081">
        <ele>427.700012207</ele>
        <time>2015-10-25T10:26:02.955Z</time>
      </trkpt>
      <trkpt lat="46.03119" lon="4.62074">
        <ele>428.600006104</ele>
        <time>2015-10-25T10:26:05.988Z</time>
      </trkpt>
      <trkpt lat="46.03117" lon="4.62071">
        <ele>428.5</ele>
        <time>2015-10-25T10:26:06.957Z</time>
      </trkpt>
      <trkpt lat="46.03112" lon="4.62062">
        <ele>428.899993896</ele>
        <time>2015-10-25T10:26:09.988Z</time>
      </trkpt>
      <trkpt lat="46.0311" lon="4.62059">
        <ele>428.700012207</ele>
        <time>2015-10-25T10:26:10.96Z</time>
      </trkpt>
      <trkpt lat="46.03107" lon="4.6205">
        <ele>428.600006104</ele>
        <time>2015-10-25T10:26:13.987Z</time>
      </trkpt>
      <trkpt lat="46.03106" lon="4.62046">
        <ele>428.299987793</ele>
        <time>2015-10-25T10:26:14.961Z</time>
      </trkpt>
      <trkpt lat="46.03103" lon="4.62036">
        <ele>428.700012207</ele>
        <time>2015-10-25T10:26:17.987Z</time>
      </trkpt>
      <trkpt lat="46.03102" lon="4.62033">
        <ele>428.700012207</ele>
        <time>2015-10-25T10:26:18.957Z</time>
      </trkpt>
      <trkpt lat="46.031" lon="4.62023">
        <ele>429.799987793</ele>
        <time>2015-10-25T10:26:21.99Z</time>
      </trkpt>
      <trkpt lat="46.03099" lon="4.62019">
        <ele>429.600006104</ele>
        <time>2015-10-25T10:26:23.006Z</time>
      </trkpt>
      <trkpt lat="46.03098" lon="4.62008">
        <ele>429.899993896</ele>
        <time>2015-10-25T10:26:25.984Z</time>
      </trkpt>
      <trkpt lat="46.03098" lon="4.62005">
        <ele>430.200012207</ele>
        <time>2015-10-25T10:26:26.977Z</time>
      </trkpt>
      <trkpt lat="46.03099" lon="4.61994">
        <ele>430.5</ele>
        <time>2015-10-25T10:26:29.984Z</time>
      </trkpt>
      <trkpt lat="46.03099" lon="4.6199">
        <ele>430.799987793</ele>
        <time>2015-10-25T10:26:30.959Z</time>
      </trkpt>
      <trkpt lat="46.031" lon="4.6198">
        <ele>431.799987793</ele>
        <time>2015-10-25T10:26:33.987Z</time>
      </trkpt>
      <trkpt lat="46.03101" lon="4.61976">
        <ele>431.5</ele>
        <time>2015-10-25T10:26:34.96Z</time>
      </trkpt>
      <trkpt lat="46.03104" lon="4.61966">
        <ele>432.600006104</ele>
        <time>2015-10-25T10:26:38.042Z</time>
      </trkpt>
      <trkpt lat="46.03105" lon="4.61963">
        <ele>433.100006104</ele>
        <time>2015-10-25T10:26:38.957Z</time>
      </trkpt>
      <trkpt lat="46.03109" lon="4.61952">
        <ele>433.799987793</ele>
        <time>2015-10-25T10:26:41.984Z</time>
      </trkpt>
      <trkpt lat="46.03109" lon="4.61948">
        <ele>434.200012207</ele>
        <time>2015-10-25T10:26:42.956Z</time>
      </trkpt>
      <trkpt lat="46.03112" lon="4.61938">
        <ele>435</ele>
        <time>2015-10-25T10:26:45.987Z</time>
      </trkpt>
      <trkpt lat="46.03113" lon="4.61933">
        <ele>434.899993896</ele>
        <time>2015-10-25T10:26:46.963Z</time>
      </trkpt>
      <trkpt lat="46.03115" lon="4.61922">
        <ele>434.5</ele>
        <time>2015-10-25T10:26:49.983Z</time>
      </trkpt>
      <trkpt lat="46.03115" lon="4.61918">
        <ele>434.700012207</ele>
        <time>2015-10-25T10:26:50.958Z</time>
      </trkpt>
      <trkpt lat="46.03116" lon="4.61906">
        <ele>434.700012207</ele>
        <time>2015-10-25T10:26:53.986Z</time>
      </trkpt>
      <trkpt lat="46.03117" lon="4.61903">
        <ele>434.600006104</ele>
        <time>2015-10-25T10:26:54.957Z</time>
      </trkpt>
      <trkpt lat="46.03119" lon="4.61892">
        <ele>434.299987793</ele>
        <time>2015-10-25T10:26:58.049Z</time>
      </trkpt>
      <trkpt lat="46.03119" lon="4.61888">
        <ele>434.600006104</ele>
        <time>2015-10-25T10:26:58.957Z</time>
      </trkpt>
      <trkpt lat="46.03121" lon="4.61877">
        <ele>435.200012207</ele>
        <time>2015-10-25T10:27:01.983Z</time>
      </trkpt>
      <trkpt lat="46.03121" lon="4.61873">
        <ele>435.299987793</ele>
        <time>2015-10-25T10:27:02.992Z</time>
      </trkpt>
      <trkpt lat="46.03122" lon="4.61862">
        <ele>435.299987793</ele>
        <time>2015-10-25T10:27:05.984Z</time>
      </trkpt>
      <trkpt lat="46.03122" lon="4.61858">
        <ele>435.5</ele>
        <time>2015-10-25T10:27:06.96Z</time>
      </trkpt>
      <trkpt lat="46.03122" lon="4.61846">
        <ele>435.700012207</ele>
        <time>2015-10-25T10:27:10.054Z</time>
      </trkpt>
      <trkpt lat="46.03122" lon="4.61842">
        <ele>435.799987793</ele>
        <time>2015-10-25T10:27:10.957Z</time>
      </trkpt>
      <trkpt lat="46.03121" lon="4.61834">
        <ele>435</ele>
        <time>2015-10-25T10:27:12.983Z</time>
      </trkpt>
      <trkpt lat="46.03121" lon="4.61829">
        <ele>434.799987793</ele>
        <time>2015-10-25T10:27:14.008Z</time>
      </trkpt>
      <trkpt lat="46.0312" lon="4.61819">
        <ele>434.299987793</ele>
        <time>2015-10-25T10:27:15.987Z</time>
      </trkpt>
      <trkpt lat="46.0312" lon="4.61814">
        <ele>434.299987793</ele>
        <time>2015-10-25T10:27:16.957Z</time>
      </trkpt>
      <trkpt lat="46.03118" lon="4.61803">
        <ele>434.299987793</ele>
        <time>2015-10-25T10:27:18.983Z</time>
      </trkpt>
      <trkpt lat="46.03117" lon="4.61798">
        <ele>434.299987793</ele>
        <time>2015-10-25T10:27:19.957Z</time>
      </trkpt>
      <trkpt lat="46.03115" lon="4.61788">
        <ele>434</ele>
        <time>2015-10-25T10:27:22.005Z</time>
      </trkpt>
      <trkpt lat="46.03114" lon="4.61783">
        <ele>433.899993896</ele>
        <time>2015-10-25T10:27:22.959Z</time>
      </trkpt>
      <trkpt lat="46.03111" lon="4.61774">
        <ele>433.899993896</ele>
        <time>2015-10-25T10:27:25.022Z</time>
      </trkpt>
      <trkpt lat="46.0311" lon="4.6177">
        <ele>433.799987793</ele>
        <time>2015-10-25T10:27:25.957Z</time>
      </trkpt>
      <trkpt lat="46.03108" lon="4.61761">
        <ele>433.899993896</ele>
        <time>2015-10-25T10:27:27.987Z</time>
      </trkpt>
      <trkpt lat="46.03107" lon="4.61756">
        <ele>434.200012207</ele>
        <time>2015-10-25T10:27:28.957Z</time>
      </trkpt>
      <trkpt lat="46.03105" lon="4.61746">
        <ele>434.399993896</ele>
        <time>2015-10-25T10:27:30.983Z</time>
      </trkpt>
      <trkpt lat="46.03104" lon="4.61741">
        <ele>434.5</ele>
        <time>2015-10-25T10:27:31.957Z</time>
      </trkpt>
      <trkpt lat="46.03101" lon="4.61732">
        <ele>434.799987793</ele>
        <time>2015-10-25T10:27:33.99Z</time>
      </trkpt>
      <trkpt lat="46.03099" lon="4.61728">
        <ele>435.100006104</ele>
        <time>2015-10-25T10:27:34.956Z</time>
      </trkpt>
      <trkpt lat="46.03096" lon="4.6172">
        <ele>435.5</ele>
        <time>2015-10-25T10:27:36.983Z</time>
      </trkpt>
      <trkpt lat="46.03094" lon="4.61715">
        <ele>435.700012207</ele>
        <time>2015-10-25T10:27:37.96Z</time>
      </trkpt>
      <trkpt lat="46.03089" lon="4.61706">
        <ele>435.899993896</ele>
        <time>2015-10-25T10:27:39.986Z</time>
      </trkpt>
      <trkpt lat="46.03086" lon="4.61702">
        <ele>436</ele>
        <time>2015-10-25T10:27:40.957Z</time>
      </trkpt>
      <trkpt lat="46.03081" lon="4.61695">
        <ele>436.299987793</ele>
        <time>2015-10-25T10:27:42.986Z</time>
      </trkpt>
      <trkpt lat="46.03079" lon="4.61692">
        <ele>436.299987793</ele>
        <time>2015-10-25T10:27:43.956Z</time>
      </trkpt>
      <trkpt lat="46.03074" lon="4.61686">
        <ele>436.799987793</ele>
        <time>2015-10-25T10:27:45.986Z</time>
      </trkpt>
      <trkpt lat="46.03071" lon="4.61683">
        <ele>436.899993896</ele>
        <time>2015-10-25T10:27:46.963Z</time>
      </trkpt>
      <trkpt lat="46.03064" lon="4.61678">
        <ele>436.700012207</ele>
        <time>2015-10-25T10:27:48.985Z</time>
      </trkpt>
      <trkpt lat="46.0306" lon="4.61675">
        <ele>436.700012207</ele>
        <time>2015-10-25T10:27:49.972Z</time>
      </trkpt>
      <trkpt lat="46.03055" lon="4.61673">
        <ele>436.799987793</ele>
        <time>2015-10-25T10:27:50.999Z</time>
      </trkpt>
      <trkpt lat="46.03051" lon="4.61671">
        <ele>436.899993896</ele>
        <time>2015-10-25T10:27:51.96Z</time>
      </trkpt>
      <trkpt lat="46.03046" lon="4.61669">
        <ele>436.5</ele>
        <time>2015-10-25T10:27:53.143Z</time>
      </trkpt>
      <trkpt lat="46.03042" lon="4.61667">
        <ele>436.5</ele>
        <time>2015-10-25T10:27:53.958Z</time>
      </trkpt>
      <trkpt lat="46.03037" lon="4.61664">
        <ele>436.5</ele>
        <time>2015-10-25T10:27:54.983Z</time>
      </trkpt>
      <trkpt lat="46.03033" lon="4.61662">
        <ele>436.399993896</ele>
        <time>2015-10-25T10:27:55.957Z</time>
      </trkpt>
      <trkpt lat="46.03028" lon="4.61659">
        <ele>436.200012207</ele>
        <time>2015-10-25T10:27:56.983Z</time>
      </trkpt>
      <trkpt lat="46.03023" lon="4.61657">
        <ele>436.100006104</ele>
        <time>2015-10-25T10:27:57.963Z</time>
      </trkpt>
      <trkpt lat="46.03017" lon="4.61653">
        <ele>435.700012207</ele>
        <time>2015-10-25T10:27:58.986Z</time>
      </trkpt>
      <trkpt lat="46.03013" lon="4.61649">
        <ele>435.399993896</ele>
        <time>2015-10-25T10:27:59.957Z</time>
      </trkpt>
      <trkpt lat="46.03007" lon="4.61644">
        <ele>435.200012207</ele>
        <time>2015-10-25T10:28:00.986Z</time>
      </trkpt>
      <trkpt lat="46.03002" lon="4.61639">
        <ele>435</ele>
        <time>2015-10-25T10:28:01.96Z</time>
      </trkpt>
      <trkpt lat="46.02996" lon="4.61633">
        <ele>434.799987793</ele>
        <time>2015-10-25T10:28:02.986Z</time>
      </trkpt>
      <trkpt lat="46.02991" lon="4.61627">
        <ele>434.200012207</ele>
        <time>2015-10-25T10:28:03.966Z</time>
      </trkpt>
      <trkpt lat="46.02986" lon="4.61621">
        <ele>433.799987793</ele>
        <time>2015-10-25T10:28:04.983Z</time>
      </trkpt>
      <trkpt lat="46.02981" lon="4.61614">
        <ele>433.399993896</ele>
        <time>2015-10-25T10:28:05.96Z</time>
      </trkpt>
      <trkpt lat="46.02976" lon="4.61607">
        <ele>432.799987793</ele>
        <time>2015-10-25T10:28:06.997Z</time>
      </trkpt>
      <trkpt lat="46.0297" lon="4.61601">
        <ele>432.200012207</ele>
        <time>2015-10-25T10:28:07.979Z</time>
      </trkpt>
      <trkpt lat="46.02964" lon="4.61595">
        <ele>431.799987793</ele>
        <time>2015-10-25T10:28:09.004Z</time>
      </trkpt>
      <trkpt lat="46.02958" lon="4.6159">
        <ele>431.700012207</ele>
        <time>2015-10-25T10:28:09.958Z</time>
      </trkpt>
      <trkpt lat="46.02951" lon="4.61584">
        <ele>431.399993896</ele>
        <time>2015-10-25T10:28:10.982Z</time>
      </trkpt>
      <trkpt lat="46.02945" lon="4.61579">
        <ele>431.299987793</ele>
        <time>2015-10-25T10:28:11.958Z</time>
      </trkpt>
      <trkpt lat="46.0294" lon="4.61573">
        <ele>431.200012207</ele>
        <time>2015-10-25T10:28:12.988Z</time>
      </trkpt>
      <trkpt lat="46.02935" lon="4.61566">
        <ele>430.899993896</ele>
        <time>2015-10-25T10:28:13.956Z</time>
      </trkpt>
      <trkpt lat="46.02931" lon="4.61558">
        <ele>430.600006104</ele>
        <time>2015-10-25T10:28:14.989Z</time>
      </trkpt>
      <trkpt lat="46.02927" lon="4.6155">
        <ele>430.799987793</ele>
        <time>2015-10-25T10:28:15.96Z</time>
      </trkpt>
      <trkpt lat="46.02924" lon="4.61543">
        <ele>430.600006104</ele>
        <time>2015-10-25T10:28:17.049Z</time>
      </trkpt>
      <trkpt lat="46.02922" lon="4.61535">
        <ele>430</ele>
        <time>2015-10-25T10:28:17.957Z</time>
      </trkpt>
      <trkpt lat="46.0292" lon="4.61529">
        <ele>430.299987793</ele>
        <time>2015-10-25T10:28:18.987Z</time>
      </trkpt>
      <trkpt lat="46.02919" lon="4.61522">
        <ele>430.5</ele>
        <time>2015-10-25T10:28:19.96Z</time>
      </trkpt>
      <trkpt lat="46.02915" lon="4.6151">
        <ele>430.899993896</ele>
        <time>2015-10-25T10:28:21.99Z</time>
      </trkpt>
      <trkpt lat="46.02914" lon="4.61504">
        <ele>431.200012207</ele>
        <time>2015-10-25T10:28:22.973Z</time>
      </trkpt>
      <trkpt lat="46.02914" lon="4.61491">
        <ele>431.600006104</ele>
        <time>2015-10-25T10:28:25.017Z</time>
      </trkpt>
      <trkpt lat="46.02913" lon="4.61486">
        <ele>431.5</ele>
        <time>2015-10-25T10:28:25.959Z</time>
      </trkpt>
      <trkpt lat="46.02912" lon="4.61473">
        <ele>431.399993896</ele>
        <time>2015-10-25T10:28:27.988Z</time>
      </trkpt>
      <trkpt lat="46.02911" lon="4.61467">
        <ele>431.100006104</ele>
        <time>2015-10-25T10:28:28.985Z</time>
      </trkpt>
      <trkpt lat="46.0291" lon="4.61455">
        <ele>430.700012207</ele>
        <time>2015-10-25T10:28:30.988Z</time>
      </trkpt>
      <trkpt lat="46.02909" lon="4.61449">
        <ele>430.100006104</ele>
        <time>2015-10-25T10:28:31.958Z</time>
      </trkpt>
      <trkpt lat="46.02908" lon="4.61442">
        <ele>430</ele>
        <time>2015-10-25T10:28:32.992Z</time>
      </trkpt>
      <trkpt lat="46.02907" lon="4.61435">
        <ele>429.899993896</ele>
        <time>2015-10-25T10:28:33.963Z</time>
      </trkpt>
      <trkpt lat="46.02907" lon="4.61428">
        <ele>429.700012207</ele>
        <time>2015-10-25T10:28:34.982Z</time>
      </trkpt>
      <trkpt lat="46.02907" lon="4.61421">
        <ele>429.700012207</ele>
        <time>2015-10-25T10:28:35.957Z</time>
      </trkpt>
      <trkpt lat="46.02906" lon="4.61415">
        <ele>429.399993896</ele>
        <time>2015-10-25T10:28:36.982Z</time>
      </trkpt>
      <trkpt lat="46.02906" lon="4.61408">
        <ele>429.399993896</ele>
        <time>2015-10-25T10:28:37.956Z</time>
      </trkpt>
      <trkpt lat="46.02906" lon="4.614">
        <ele>429</ele>
        <time>2015-10-25T10:28:38.996Z</time>
      </trkpt>
      <trkpt lat="46.02906" lon="4.61393">
        <ele>428.799987793</ele>
        <time>2015-10-25T10:28:39.96Z</time>
      </trkpt>
      <trkpt lat="46.02906" lon="4.61385">
        <ele>428</ele>
        <time>2015-10-25T10:28:40.985Z</time>
      </trkpt>
      <trkpt lat="46.02907" lon="4.61377">
        <ele>427.399993896</ele>
        <time>2015-10-25T10:28:41.961Z</time>
      </trkpt>
      <trkpt lat="46.02908" lon="4.6137">
        <ele>427.299987793</ele>
        <time>2015-10-25T10:28:42.982Z</time>
      </trkpt>
      <trkpt lat="46.0291" lon="4.61362">
        <ele>427.100006104</ele>
        <time>2015-10-25T10:28:43.96Z</time>
      </trkpt>
      <trkpt lat="46.02911" lon="4.61355">
        <ele>427.100006104</ele>
        <time>2015-10-25T10:28:44.986Z</time>
      </trkpt>
      <trkpt lat="46.02913" lon="4.61347">
        <ele>427</ele>
        <time>2015-10-25T10:28:45.963Z</time>
      </trkpt>
      <trkpt lat="46.02917" lon="4.6134">
        <ele>426.799987793</ele>
        <time>2015-10-25T10:28:46.99Z</time>
      </trkpt>
      <trkpt lat="46.02919" lon="4.61333">
        <ele>426.700012207</ele>
        <time>2015-10-25T10:28:47.961Z</time>
      </trkpt>
      <trkpt lat="46.02922" lon="4.61326">
        <ele>427</ele>
        <time>2015-10-25T10:28:48.983Z</time>
      </trkpt>
      <trkpt lat="46.02925" lon="4.61319">
        <ele>427.200012207</ele>
        <time>2015-10-25T10:28:49.956Z</time>
      </trkpt>
      <trkpt lat="46.02928" lon="4.61311">
        <ele>427.200012207</ele>
        <time>2015-10-25T10:28:50.983Z</time>
      </trkpt>
      <trkpt lat="46.02931" lon="4.61303">
        <ele>427</ele>
        <time>2015-10-25T10:28:51.96Z</time>
      </trkpt>
      <trkpt lat="46.02934" lon="4.61295">
        <ele>426.600006104</ele>
        <time>2015-10-25T10:28:52.986Z</time>
      </trkpt>
      <trkpt lat="46.02937" lon="4.61287">
        <ele>426.100006104</ele>
        <time>2015-10-25T10:28:53.957Z</time>
      </trkpt>
      <trkpt lat="46.02941" lon="4.61278">
        <ele>425.600006104</ele>
        <time>2015-10-25T10:28:54.982Z</time>
      </trkpt>
      <trkpt lat="46.02944" lon="4.61269">
        <ele>425.5</ele>
        <time>2015-10-25T10:28:55.959Z</time>
      </trkpt>
      <trkpt lat="46.02947" lon="4.61261">
        <ele>425.600006104</ele>
        <time>2015-10-25T10:28:56.986Z</time>
      </trkpt>
      <trkpt lat="46.0295" lon="4.61252">
        <ele>425.399993896</ele>
        <time>2015-10-25T10:28:57.959Z</time>
      </trkpt>
      <trkpt lat="46.02953" lon="4.61242">
        <ele>426.200012207</ele>
        <time>2015-10-25T10:28:58.985Z</time>
      </trkpt>
      <trkpt lat="46.02955" lon="4.61233">
        <ele>426.5</ele>
        <time>2015-10-25T10:29:00.014Z</time>
      </trkpt>
      <trkpt lat="46.02955" lon="4.61222">
        <ele>426.700012207</ele>
        <time>2015-10-25T10:29:00.994Z</time>
      </trkpt>
      <trkpt lat="46.02955" lon="4.61212">
        <ele>426.700012207</ele>
        <time>2015-10-25T10:29:01.959Z</time>
      </trkpt>
      <trkpt lat="46.02954" lon="4.61202">
        <ele>426.600006104</ele>
        <time>2015-10-25T10:29:02.986Z</time>
      </trkpt>
      <trkpt lat="46.02951" lon="4.61193">
        <ele>426.399993896</ele>
        <time>2015-10-25T10:29:03.959Z</time>
      </trkpt>
      <trkpt lat="46.02949" lon="4.61183">
        <ele>426.100006104</ele>
        <time>2015-10-25T10:29:05.044Z</time>
      </trkpt>
      <trkpt lat="46.02946" lon="4.61174">
        <ele>425.600006104</ele>
        <time>2015-10-25T10:29:05.957Z</time>
      </trkpt>
      <trkpt lat="46.02943" lon="4.61167">
        <ele>425.100006104</ele>
        <time>2015-10-25T10:29:06.985Z</time>
      </trkpt>
      <trkpt lat="46.0294" lon="4.6116">
        <ele>425</ele>
        <time>2015-10-25T10:29:07.957Z</time>
      </trkpt>
      <trkpt lat="46.02936" lon="4.61154">
        <ele>424.799987793</ele>
        <time>2015-10-25T10:29:08.987Z</time>
      </trkpt>
      <trkpt lat="46.02931" lon="4.6115">
        <ele>424.799987793</ele>
        <time>2015-10-25T10:29:09.963Z</time>
      </trkpt>
      <trkpt lat="46.02927" lon="4.61147">
        <ele>425.200012207</ele>
        <time>2015-10-25T10:29:10.987Z</time>
      </trkpt>
      <trkpt lat="46.02922" lon="4.61145">
        <ele>425.200012207</ele>
        <time>2015-10-25T10:29:11.957Z</time>
      </trkpt>
      <trkpt lat="46.02917" lon="4.61144">
        <ele>425.299987793</ele>
        <time>2015-10-25T10:29:12.982Z</time>
      </trkpt>
      <trkpt lat="46.02912" lon="4.61143">
        <ele>425.399993896</ele>
        <time>2015-10-25T10:29:13.959Z</time>
      </trkpt>
      <trkpt lat="46.02904" lon="4.61142">
        <ele>425.799987793</ele>
        <time>2015-10-25T10:29:15.986Z</time>
      </trkpt>
      <trkpt lat="46.02901" lon="4.61141">
        <ele>425.5</ele>
        <time>2015-10-25T10:29:16.96Z</time>
      </trkpt>
      <trkpt lat="46.02892" lon="4.61137">
        <ele>425.799987793</ele>
        <time>2015-10-25T10:29:19.983Z</time>
      </trkpt>
      <trkpt lat="46.02889" lon="4.61136">
        <ele>426</ele>
        <time>2015-10-25T10:29:20.973Z</time>
      </trkpt>
      <trkpt lat="46.02881" lon="4.61131">
        <ele>426.600006104</ele>
        <time>2015-10-25T10:29:23.995Z</time>
      </trkpt>
      <trkpt lat="46.02878" lon="4.61129">
        <ele>426.899993896</ele>
        <time>2015-10-25T10:29:24.956Z</time>
      </trkpt>
      <trkpt lat="46.02871" lon="4.61122">
        <ele>428.700012207</ele>
        <time>2015-10-25T10:29:27.986Z</time>
      </trkpt>
      <trkpt lat="46.02869" lon="4.6112">
        <ele>429.200012207</ele>
        <time>2015-10-25T10:29:28.956Z</time>
      </trkpt>
      <trkpt lat="46.02863" lon="4.61113">
        <ele>429.700012207</ele>
        <time>2015-10-25T10:29:31.02Z</time>
      </trkpt>
      <trkpt lat="46.02861" lon="4.6111">
        <ele>429.600006104</ele>
        <time>2015-10-25T10:29:31.955Z</time>
      </trkpt>
      <trkpt lat="46.02855" lon="4.61103">
        <ele>429.700012207</ele>
        <time>2015-10-25T10:29:34.064Z</time>
      </trkpt>
      <trkpt lat="46.02852" lon="4.61099">
        <ele>429.799987793</ele>
        <time>2015-10-25T10:29:34.986Z</time>
      </trkpt>
      <trkpt lat="46.02846" lon="4.6109">
        <ele>429.899993896</ele>
        <time>2015-10-25T10:29:36.986Z</time>
      </trkpt>
      <trkpt lat="46.02843" lon="4.61084">
        <ele>429.700012207</ele>
        <time>2015-10-25T10:29:37.956Z</time>
      </trkpt>
      <trkpt lat="46.02838" lon="4.61074">
        <ele>429.600006104</ele>
        <time>2015-10-25T10:29:39.994Z</time>
      </trkpt>
      <trkpt lat="46.02835" lon="4.61069">
        <ele>429.399993896</ele>
        <time>2015-10-25T10:29:40.956Z</time>
      </trkpt>
      <trkpt lat="46.02832" lon="4.61063">
        <ele>429.200012207</ele>
        <time>2015-10-25T10:29:41.997Z</time>
      </trkpt>
      <trkpt lat="46.02828" lon="4.61057">
        <ele>428.899993896</ele>
        <time>2015-10-25T10:29:42.955Z</time>
      </trkpt>
      <trkpt lat="46.02825" lon="4.61051">
        <ele>428.299987793</ele>
        <time>2015-10-25T10:29:44.025Z</time>
      </trkpt>
      <trkpt lat="46.02822" lon="4.61044">
        <ele>428</ele>
        <time>2015-10-25T10:29:44.959Z</time>
      </trkpt>
      <trkpt lat="46.02819" lon="4.61037">
        <ele>427.600006104</ele>
        <time>2015-10-25T10:29:45.987Z</time>
      </trkpt>
      <trkpt lat="46.02817" lon="4.6103">
        <ele>427.100006104</ele>
        <time>2015-10-25T10:29:46.959Z</time>
      </trkpt>
      <trkpt lat="46.02814" lon="4.61022">
        <ele>427</ele>
        <time>2015-10-25T10:29:47.983Z</time>
      </trkpt>
      <trkpt lat="46.02812" lon="4.61014">
        <ele>426.899993896</ele>
        <time>2015-10-25T10:29:48.955Z</time>
      </trkpt>
      <trkpt lat="46.0281" lon="4.61006">
        <ele>426.899993896</ele>
        <time>2015-10-25T10:29:49.986Z</time>
      </trkpt>
      <trkpt lat="46.02809" lon="4.60998">
        <ele>426.600006104</ele>
        <time>2015-10-25T10:29:50.959Z</time>
      </trkpt>
      <trkpt lat="46.02808" lon="4.6099">
        <ele>426.700012207</ele>
        <time>2015-10-25T10:29:51.986Z</time>
      </trkpt>
      <trkpt lat="46.02807" lon="4.60982">
        <ele>426.899993896</ele>
        <time>2015-10-25T10:29:52.982Z</time>
      </trkpt>
      <trkpt lat="46.02807" lon="4.60974">
        <ele>427.399993896</ele>
        <time>2015-10-25T10:29:53.987Z</time>
      </trkpt>
      <trkpt lat="46.02805" lon="4.60966">
        <ele>427.399993896</ele>
        <time>2015-10-25T10:29:54.959Z</time>
      </trkpt>
      <trkpt lat="46.02802" lon="4.60954">
        <ele>427.899993896</ele>
        <time>2015-10-25T10:29:56.991Z</time>
      </trkpt>
      <trkpt lat="46.028" lon="4.60949">
        <ele>428.399993896</ele>
        <time>2015-10-25T10:29:57.963Z</time>
      </trkpt>
      <trkpt lat="46.02796" lon="4.6094">
        <ele>428.899993896</ele>
        <time>2015-10-25T10:29:59.986Z</time>
      </trkpt>
      <trkpt lat="46.02793" lon="4.60936">
        <ele>429</ele>
        <time>2015-10-25T10:30:00.955Z</time>
      </trkpt>
      <trkpt lat="46.02787" lon="4.6093">
        <ele>429.399993896</ele>
        <time>2015-10-25T10:30:02.996Z</time>
      </trkpt>
      <trkpt lat="46.02784" lon="4.60927">
        <ele>429.899993896</ele>
        <time>2015-10-25T10:30:03.963Z</time>
      </trkpt>
      <trkpt lat="46.02778" lon="4.60923">
        <ele>430.299987793</ele>
        <time>2015-10-25T10:30:05.984Z</time>
      </trkpt>
      <trkpt lat="46.02775" lon="4.60921">
        <ele>430.600006104</ele>
        <time>2015-10-25T10:30:06.959Z</time>
      </trkpt>
      <trkpt lat="46.0277" lon="4.60913">
        <ele>431.399993896</ele>
        <time>2015-10-25T10:30:09.989Z</time>
      </trkpt>
      <trkpt lat="46.02767" lon="4.6091">
        <ele>431.700012207</ele>
        <time>2015-10-25T10:30:10.956Z</time>
      </trkpt>
      <trkpt lat="46.0276" lon="4.60903">
        <ele>432.700012207</ele>
        <time>2015-10-25T10:30:13.986Z</time>
      </trkpt>
      <trkpt lat="46.02757" lon="4.60901">
        <ele>433</ele>
        <time>2015-10-25T10:30:14.96Z</time>
      </trkpt>
      <trkpt lat="46.02753" lon="4.6089">
        <ele>433.299987793</ele>
        <time>2015-10-25T10:30:16.986Z</time>
      </trkpt>
      <trkpt lat="46.0275" lon="4.60887">
        <ele>433.5</ele>
        <time>2015-10-25T10:30:17.957Z</time>
      </trkpt>
      <trkpt lat="46.02744" lon="4.60881">
        <ele>434.299987793</ele>
        <time>2015-10-25T10:30:19.982Z</time>
      </trkpt>
      <trkpt lat="46.02741" lon="4.60878">
        <ele>434.700012207</ele>
        <time>2015-10-25T10:30:20.955Z</time>
      </trkpt>
      <trkpt lat="46.02735" lon="4.60872">
        <ele>435.600006104</ele>
        <time>2015-10-25T10:30:22.982Z</time>
      </trkpt>
      <trkpt lat="46.02732" lon="4.60869">
        <ele>436.5</ele>
        <time>2015-10-25T10:30:23.96Z</time>
      </trkpt>
      <trkpt lat="46.02727" lon="4.60862">
        <ele>437.200012207</ele>
        <time>2015-10-25T10:30:25.985Z</time>
      </trkpt>
      <trkpt lat="46.02725" lon="4.60858">
        <ele>437.799987793</ele>
        <time>2015-10-25T10:30:26.959Z</time>
      </trkpt>
      <trkpt lat="46.02719" lon="4.6085">
        <ele>438.299987793</ele>
        <time>2015-10-25T10:30:29.01Z</time>
      </trkpt>
      <trkpt lat="46.02714" lon="4.60846">
        <ele>438.5</ele>
        <time>2015-10-25T10:30:29.957Z</time>
      </trkpt>
      <trkpt lat="46.0271" lon="4.60842">
        <ele>438.700012207</ele>
        <time>2015-10-25T10:30:30.986Z</time>
      </trkpt>
      <trkpt lat="46.02706" lon="4.60836">
        <ele>438.899993896</ele>
        <time>2015-10-25T10:30:31.959Z</time>
      </trkpt>
      <trkpt lat="46.02705" lon="4.60828">
        <ele>438.299987793</ele>
        <time>2015-10-25T10:30:32.986Z</time>
      </trkpt>
      <trkpt lat="46.02703" lon="4.60821">
        <ele>437.700012207</ele>
        <time>2015-10-25T10:30:33.959Z</time>
      </trkpt>
      <trkpt lat="46.02702" lon="4.60814">
        <ele>437.700012207</ele>
        <time>2015-10-25T10:30:35.004Z</time>
      </trkpt>
      <trkpt lat="46.02701" lon="4.60808">
        <ele>438.200012207</ele>
        <time>2015-10-25T10:30:35.96Z</time>
      </trkpt>
      <trkpt lat="46.02699" lon="4.60797">
        <ele>438.5</ele>
        <time>2015-10-25T10:30:37.982Z</time>
      </trkpt>
      <trkpt lat="46.02697" lon="4.60792">
        <ele>438.299987793</ele>
        <time>2015-10-25T10:30:38.956Z</time>
      </trkpt>
      <trkpt lat="46.02696" lon="4.60782">
        <ele>438.600006104</ele>
        <time>2015-10-25T10:30:40.985Z</time>
      </trkpt>
      <trkpt lat="46.02695" lon="4.60778">
        <ele>438.799987793</ele>
        <time>2015-10-25T10:30:41.96Z</time>
      </trkpt>
      <trkpt lat="46.02694" lon="4.60768">
        <ele>439.299987793</ele>
        <time>2015-10-25T10:30:43.981Z</time>
      </trkpt>
      <trkpt lat="46.02694" lon="4.60764">
        <ele>439.600006104</ele>
        <time>2015-10-25T10:30:44.958Z</time>
      </trkpt>
      <trkpt lat="46.02693" lon="4.60751">
        <ele>440</ele>
        <time>2015-10-25T10:30:48.014Z</time>
      </trkpt>
      <trkpt lat="46.02692" lon="4.60747">
        <ele>440</ele>
        <time>2015-10-25T10:30:48.959Z</time>
      </trkpt>
      <trkpt lat="46.02691" lon="4.60738">
        <ele>440.700012207</ele>
        <time>2015-10-25T10:30:50.987Z</time>
      </trkpt>
      <trkpt lat="46.02691" lon="4.60734">
        <ele>440.700012207</ele>
        <time>2015-10-25T10:30:51.959Z</time>
      </trkpt>
      <trkpt lat="46.02691" lon="4.60721">
        <ele>441.299987793</ele>
        <time>2015-10-25T10:30:54.981Z</time>
      </trkpt>
      <trkpt lat="46.02691" lon="4.60717">
        <ele>441.5</ele>
        <time>2015-10-25T10:30:55.955Z</time>
      </trkpt>
      <trkpt lat="46.0269" lon="4.60705">
        <ele>441.799987793</ele>
        <time>2015-10-25T10:30:58.981Z</time>
      </trkpt>
      <trkpt lat="46.02689" lon="4.60701">
        <ele>442.299987793</ele>
        <time>2015-10-25T10:30:59.958Z</time>
      </trkpt>
      <trkpt lat="46.02689" lon="4.6069">
        <ele>443.100006104</ele>
        <time>2015-10-25T10:31:02.983Z</time>
      </trkpt>
      <trkpt lat="46.02689" lon="4.60687">
        <ele>443.5</ele>
        <time>2015-10-25T10:31:03.958Z</time>
      </trkpt>
      <trkpt lat="46.02689" lon="4.60676">
        <ele>443.600006104</ele>
        <time>2015-10-25T10:31:06.981Z</time>
      </trkpt>
      <trkpt lat="46.02689" lon="4.60672">
        <ele>443.600006104</ele>
        <time>2015-10-25T10:31:07.955Z</time>
      </trkpt>
      <trkpt lat="46.02688" lon="4.60661">
        <ele>444.100006104</ele>
        <time>2015-10-25T10:31:10.985Z</time>
      </trkpt>
      <trkpt lat="46.02688" lon="4.60658">
        <ele>444.100006104</ele>
        <time>2015-10-25T10:31:11.973Z</time>
      </trkpt>
      <trkpt lat="46.02687" lon="4.60646">
        <ele>444.299987793</ele>
        <time>2015-10-25T10:31:14.981Z</time>
      </trkpt>
      <trkpt lat="46.02687" lon="4.60642">
        <ele>444.399993896</ele>
        <time>2015-10-25T10:31:15.975Z</time>
      </trkpt>
      <trkpt lat="46.02687" lon="4.6063">
        <ele>444.399993896</ele>
        <time>2015-10-25T10:31:18.981Z</time>
      </trkpt>
      <trkpt lat="46.02687" lon="4.60626">
        <ele>444.299987793</ele>
        <time>2015-10-25T10:31:19.955Z</time>
      </trkpt>
      <trkpt lat="46.02686" lon="4.60614">
        <ele>444.299987793</ele>
        <time>2015-10-25T10:31:23.129Z</time>
      </trkpt>
      <trkpt lat="46.02685" lon="4.60611">
        <ele>444.399993896</ele>
        <time>2015-10-25T10:31:23.96Z</time>
      </trkpt>
      <trkpt lat="46.02685" lon="4.60599">
        <ele>444.700012207</ele>
        <time>2015-10-25T10:31:26.982Z</time>
      </trkpt>
      <trkpt lat="46.02686" lon="4.60595">
        <ele>444.799987793</ele>
        <time>2015-10-25T10:31:27.961Z</time>
      </trkpt>
      <trkpt lat="46.02686" lon="4.60584">
        <ele>445</ele>
        <time>2015-10-25T10:31:30.981Z</time>
      </trkpt>
      <trkpt lat="46.02685" lon="4.6058">
        <ele>445.100006104</ele>
        <time>2015-10-25T10:31:31.959Z</time>
      </trkpt>
      <trkpt lat="46.02685" lon="4.60569">
        <ele>446.200012207</ele>
        <time>2015-10-25T10:31:34.981Z</time>
      </trkpt>
      <trkpt lat="46.02684" lon="4.60565">
        <ele>446.600006104</ele>
        <time>2015-10-25T10:31:35.956Z</time>
      </trkpt>
      <trkpt lat="46.02684" lon="4.60554">
        <ele>447.5</ele>
        <time>2015-10-25T10:31:39.015Z</time>
      </trkpt>
      <trkpt lat="46.02684" lon="4.60551">
        <ele>447.700012207</ele>
        <time>2015-10-25T10:31:39.958Z</time>
      </trkpt>
      <trkpt lat="46.02684" lon="4.60539">
        <ele>448.600006104</ele>
        <time>2015-10-25T10:31:42.982Z</time>
      </trkpt>
      <trkpt lat="46.02684" lon="4.60535">
        <ele>448.899993896</ele>
        <time>2015-10-25T10:31:43.957Z</time>
      </trkpt>
      <trkpt lat="46.02684" lon="4.60524">
        <ele>450</ele>
        <time>2015-10-25T10:31:46.985Z</time>
      </trkpt>
      <trkpt lat="46.02683" lon="4.6052">
        <ele>450.100006104</ele>
        <time>2015-10-25T10:31:47.956Z</time>
      </trkpt>
      <trkpt lat="46.02682" lon="4.6051">
        <ele>450.899993896</ele>
        <time>2015-10-25T10:31:50.982Z</time>
      </trkpt>
      <trkpt lat="46.02682" lon="4.60506">
        <ele>451.200012207</ele>
        <time>2015-10-25T10:31:51.962Z</time>
      </trkpt>
      <trkpt lat="46.02682" lon="4.60495">
        <ele>452.200012207</ele>
        <time>2015-10-25T10:31:55.012Z</time>
      </trkpt>
      <trkpt lat="46.02682" lon="4.6049">
        <ele>452.399993896</ele>
        <time>2015-10-25T10:31:55.99Z</time>
      </trkpt>
      <trkpt lat="46.02682" lon="4.60478">
        <ele>453.5</ele>
        <time>2015-10-25T10:31:58.984Z</time>
      </trkpt>
      <trkpt lat="46.02682" lon="4.60474">
        <ele>454.100006104</ele>
        <time>2015-10-25T10:31:59.956Z</time>
      </trkpt>
      <trkpt lat="46.02683" lon="4.60462">
        <ele>455.200012207</ele>
        <time>2015-10-25T10:32:02.982Z</time>
      </trkpt>
      <trkpt lat="46.02683" lon="4.60459">
        <ele>455.700012207</ele>
        <time>2015-10-25T10:32:03.959Z</time>
      </trkpt>
      <trkpt lat="46.02684" lon="4.60449">
        <ele>456.299987793</ele>
        <time>2015-10-25T10:32:06.985Z</time>
      </trkpt>
      <trkpt lat="46.02684" lon="4.60446">
        <ele>456.600006104</ele>
        <time>2015-10-25T10:32:07.954Z</time>
      </trkpt>
      <trkpt lat="46.02684" lon="4.60436">
        <ele>456.899993896</ele>
        <time>2015-10-25T10:32:10.985Z</time>
      </trkpt>
      <trkpt lat="46.02685" lon="4.60432">
        <ele>457.299987793</ele>
        <time>2015-10-25T10:32:11.99Z</time>
      </trkpt>
      <trkpt lat="46.02686" lon="4.60422">
        <ele>458</ele>
        <time>2015-10-25T10:32:15.024Z</time>
      </trkpt>
      <trkpt lat="46.02687" lon="4.60418">
        <ele>458.100006104</ele>
        <time>2015-10-25T10:32:15.962Z</time>
      </trkpt>
      <trkpt lat="46.02689" lon="4.60407">
        <ele>458.600006104</ele>
        <time>2015-10-25T10:32:18.982Z</time>
      </trkpt>
      <trkpt lat="46.02689" lon="4.60403">
        <ele>458.5</ele>
        <time>2015-10-25T10:32:19.955Z</time>
      </trkpt>
      <trkpt lat="46.0269" lon="4.60392">
        <ele>459.100006104</ele>
        <time>2015-10-25T10:32:22.987Z</time>
      </trkpt>
      <trkpt lat="46.02691" lon="4.60388">
        <ele>459.299987793</ele>
        <time>2015-10-25T10:32:23.97Z</time>
      </trkpt>
      <trkpt lat="46.02694" lon="4.60377">
        <ele>459.799987793</ele>
        <time>2015-10-25T10:32:26.985Z</time>
      </trkpt>
      <trkpt lat="46.02695" lon="4.60374">
        <ele>460.399993896</ele>
        <time>2015-10-25T10:32:27.962Z</time>
      </trkpt>
      <trkpt lat="46.02697" lon="4.60363">
        <ele>461.399993896</ele>
        <time>2015-10-25T10:32:30.985Z</time>
      </trkpt>
      <trkpt lat="46.02698" lon="4.60359">
        <ele>461.600006104</ele>
        <time>2015-10-25T10:32:31.978Z</time>
      </trkpt>
      <trkpt lat="46.027" lon="4.60347">
        <ele>462.5</ele>
        <time>2015-10-25T10:32:35.006Z</time>
      </trkpt>
      <trkpt lat="46.02701" lon="4.60343">
        <ele>462.600006104</ele>
        <time>2015-10-25T10:32:35.956Z</time>
      </trkpt>
      <trkpt lat="46.02705" lon="4.60332">
        <ele>462.299987793</ele>
        <time>2015-10-25T10:32:38.981Z</time>
      </trkpt>
      <trkpt lat="46.02706" lon="4.60328">
        <ele>462.399993896</ele>
        <time>2015-10-25T10:32:39.98Z</time>
      </trkpt>
      <trkpt lat="46.02709" lon="4.60316">
        <ele>462.5</ele>
        <time>2015-10-25T10:32:42.981Z</time>
      </trkpt>
      <trkpt lat="46.0271" lon="4.60312">
        <ele>462.799987793</ele>
        <time>2015-10-25T10:32:43.955Z</time>
      </trkpt>
      <trkpt lat="46.02713" lon="4.60304">
        <ele>462.899993896</ele>
        <time>2015-10-25T10:32:45.988Z</time>
      </trkpt>
      <trkpt lat="46.02715" lon="4.603">
        <ele>462.700012207</ele>
        <time>2015-10-25T10:32:46.989Z</time>
      </trkpt>
      <trkpt lat="46.02718" lon="4.60291">
        <ele>462.799987793</ele>
        <time>2015-10-25T10:32:49.026Z</time>
      </trkpt>
      <trkpt lat="46.0272" lon="4.60286">
        <ele>462.899993896</ele>
        <time>2015-10-25T10:32:50.005Z</time>
      </trkpt>
      <trkpt lat="46.02722" lon="4.6028">
        <ele>463</ele>
        <time>2015-10-25T10:32:50.985Z</time>
      </trkpt>
      <trkpt lat="46.02724" lon="4.60274">
        <ele>462.899993896</ele>
        <time>2015-10-25T10:32:51.962Z</time>
      </trkpt>
      <trkpt lat="46.02726" lon="4.60267">
        <ele>462.600006104</ele>
        <time>2015-10-25T10:32:52.984Z</time>
      </trkpt>
      <trkpt lat="46.02727" lon="4.60258">
        <ele>462</ele>
        <time>2015-10-25T10:32:53.959Z</time>
      </trkpt>
      <trkpt lat="46.02728" lon="4.60249">
        <ele>461.600006104</ele>
        <time>2015-10-25T10:32:54.984Z</time>
      </trkpt>
      <trkpt lat="46.02728" lon="4.60239">
        <ele>461</ele>
        <time>2015-10-25T10:32:55.96Z</time>
      </trkpt>
      <trkpt lat="46.02727" lon="4.60229">
        <ele>460</ele>
        <time>2015-10-25T10:32:56.988Z</time>
      </trkpt>
      <trkpt lat="46.02726" lon="4.60218">
        <ele>458.899993896</ele>
        <time>2015-10-25T10:32:57.961Z</time>
      </trkpt>
      <trkpt lat="46.02724" lon="4.60206">
        <ele>458</ele>
        <time>2015-10-25T10:32:59.047Z</time>
      </trkpt>
      <trkpt lat="46.02723" lon="4.60195">
        <ele>457.200012207</ele>
        <time>2015-10-25T10:32:59.959Z</time>
      </trkpt>
      <trkpt lat="46.02721" lon="4.60183">
        <ele>456.5</ele>
        <time>2015-10-25T10:33:00.994Z</time>
      </trkpt>
      <trkpt lat="46.02719" lon="4.60171">
        <ele>456.100006104</ele>
        <time>2015-10-25T10:33:01.958Z</time>
      </trkpt>
      <trkpt lat="46.02718" lon="4.6016">
        <ele>455.5</ele>
        <time>2015-10-25T10:33:02.984Z</time>
      </trkpt>
      <trkpt lat="46.02715" lon="4.60148">
        <ele>454.700012207</ele>
        <time>2015-10-25T10:33:03.958Z</time>
      </trkpt>
      <trkpt lat="46.02714" lon="4.60137">
        <ele>454.200012207</ele>
        <time>2015-10-25T10:33:05.004Z</time>
      </trkpt>
      <trkpt lat="46.02712" lon="4.60125">
        <ele>453.799987793</ele>
        <time>2015-10-25T10:33:05.955Z</time>
      </trkpt>
      <trkpt lat="46.02709" lon="4.60114">
        <ele>453.200012207</ele>
        <time>2015-10-25T10:33:06.985Z</time>
      </trkpt>
      <trkpt lat="46.02707" lon="4.60103">
        <ele>452.799987793</ele>
        <time>2015-10-25T10:33:07.957Z</time>
      </trkpt>
      <trkpt lat="46.02703" lon="4.60093">
        <ele>452.299987793</ele>
        <time>2015-10-25T10:33:08.984Z</time>
      </trkpt>
      <trkpt lat="46.02699" lon="4.60082">
        <ele>451.100006104</ele>
        <time>2015-10-25T10:33:09.962Z</time>
      </trkpt>
      <trkpt lat="46.02695" lon="4.60072">
        <ele>451.100006104</ele>
        <time>2015-10-25T10:33:10.985Z</time>
      </trkpt>
      <trkpt lat="46.02691" lon="4.60062">
        <ele>450.5</ele>
        <time>2015-10-25T10:33:11.959Z</time>
      </trkpt>
      <trkpt lat="46.02686" lon="4.60052">
        <ele>449.899993896</ele>
        <time>2015-10-25T10:33:12.984Z</time>
      </trkpt>
      <trkpt lat="46.02682" lon="4.60042">
        <ele>449.299987793</ele>
        <time>2015-10-25T10:33:13.954Z</time>
      </trkpt>
      <trkpt lat="46.02679" lon="4.60032">
        <ele>448.299987793</ele>
        <time>2015-10-25T10:33:14.984Z</time>
      </trkpt>
      <trkpt lat="46.02676" lon="4.60021">
        <ele>446.799987793</ele>
        <time>2015-10-25T10:33:15.962Z</time>
      </trkpt>
      <trkpt lat="46.02672" lon="4.60011">
        <ele>446</ele>
        <time>2015-10-25T10:33:16.996Z</time>
      </trkpt>
      <trkpt lat="46.02668" lon="4.60001">
        <ele>445.100006104</ele>
        <time>2015-10-25T10:33:17.959Z</time>
      </trkpt>
      <trkpt lat="46.02662" lon="4.59994">
        <ele>444.399993896</ele>
        <time>2015-10-25T10:33:18.981Z</time>
      </trkpt>
      <trkpt lat="46.02655" lon="4.59989">
        <ele>444.200012207</ele>
        <time>2015-10-25T10:33:19.955Z</time>
      </trkpt>
      <trkpt lat="46.02648" lon="4.59988">
        <ele>443.299987793</ele>
        <time>2015-10-25T10:33:20.981Z</time>
      </trkpt>
      <trkpt lat="46.02641" lon="4.59991">
        <ele>442.700012207</ele>
        <time>2015-10-25T10:33:21.953Z</time>
      </trkpt>
      <trkpt lat="46.02635" lon="4.59995">
        <ele>441.5</ele>
        <time>2015-10-25T10:33:22.981Z</time>
      </trkpt>
      <trkpt lat="46.02629" lon="4.60001">
        <ele>441.100006104</ele>
        <time>2015-10-25T10:33:23.958Z</time>
      </trkpt>
      <trkpt lat="46.02625" lon="4.60007">
        <ele>440.899993896</ele>
        <time>2015-10-25T10:33:24.99Z</time>
      </trkpt>
      <trkpt lat="46.02621" lon="4.60013">
        <ele>440.700012207</ele>
        <time>2015-10-25T10:33:25.954Z</time>
      </trkpt>
      <trkpt lat="46.02618" lon="4.6002">
        <ele>440.399993896</ele>
        <time>2015-10-25T10:33:26.986Z</time>
      </trkpt>
      <trkpt lat="46.02616" lon="4.60026">
        <ele>440.299987793</ele>
        <time>2015-10-25T10:33:27.962Z</time>
      </trkpt>
      <trkpt lat="46.02615" lon="4.60038">
        <ele>439.899993896</ele>
        <time>2015-10-25T10:33:29.994Z</time>
      </trkpt>
      <trkpt lat="46.02614" lon="4.60044">
        <ele>439.600006104</ele>
        <time>2015-10-25T10:33:30.955Z</time>
      </trkpt>
      <trkpt lat="46.02615" lon="4.60054">
        <ele>439.5</ele>
        <time>2015-10-25T10:33:33.003Z</time>
      </trkpt>
      <trkpt lat="46.02617" lon="4.60059">
        <ele>439.5</ele>
        <time>2015-10-25T10:33:33.963Z</time>
      </trkpt>
      <trkpt lat="46.02616" lon="4.6007">
        <ele>439.399993896</ele>
        <time>2015-10-25T10:33:36.045Z</time>
      </trkpt>
      <trkpt lat="46.02615" lon="4.60075">
        <ele>439.399993896</ele>
        <time>2015-10-25T10:33:36.958Z</time>
      </trkpt>
      <trkpt lat="46.02613" lon="4.60085">
        <ele>439.299987793</ele>
        <time>2015-10-25T10:33:38.981Z</time>
      </trkpt>
      <trkpt lat="46.02612" lon="4.60091">
        <ele>439.5</ele>
        <time>2015-10-25T10:33:39.962Z</time>
      </trkpt>
      <trkpt lat="46.0261" lon="4.60097">
        <ele>439.600006104</ele>
        <time>2015-10-25T10:33:40.981Z</time>
      </trkpt>
      <trkpt lat="46.02609" lon="4.60103">
        <ele>439.799987793</ele>
        <time>2015-10-25T10:33:41.956Z</time>
      </trkpt>
      <trkpt lat="46.02608" lon="4.6011">
        <ele>440.100006104</ele>
        <time>2015-10-25T10:33:42.984Z</time>
      </trkpt>
      <trkpt lat="46.02606" lon="4.60116">
        <ele>440.200012207</ele>
        <time>2015-10-25T10:33:43.957Z</time>
      </trkpt>
      <trkpt lat="46.02604" lon="4.60122">
        <ele>440.5</ele>
        <time>2015-10-25T10:33:44.985Z</time>
      </trkpt>
      <trkpt lat="46.02602" lon="4.60129">
        <ele>440.899993896</ele>
        <time>2015-10-25T10:33:45.961Z</time>
      </trkpt>
      <trkpt lat="46.02598" lon="4.6014">
        <ele>441.399993896</ele>
        <time>2015-10-25T10:33:47.982Z</time>
      </trkpt>
      <trkpt lat="46.02596" lon="4.60145">
        <ele>442.100006104</ele>
        <time>2015-10-25T10:33:48.97Z</time>
      </trkpt>
      <trkpt lat="46.02591" lon="4.60153">
        <ele>442.600006104</ele>
        <time>2015-10-25T10:33:50.981Z</time>
      </trkpt>
      <trkpt lat="46.02589" lon="4.60157">
        <ele>442.799987793</ele>
        <time>2015-10-25T10:33:51.995Z</time>
      </trkpt>
      <trkpt lat="46.02585" lon="4.60165">
        <ele>443</ele>
        <time>2015-10-25T10:33:53.982Z</time>
      </trkpt>
      <trkpt lat="46.02583" lon="4.6017">
        <ele>442.799987793</ele>
        <time>2015-10-25T10:33:54.954Z</time>
      </trkpt>
      <trkpt lat="46.02578" lon="4.6018">
        <ele>443.100006104</ele>
        <time>2015-10-25T10:33:57.169Z</time>
      </trkpt>
      <trkpt lat="46.02575" lon="4.60185">
        <ele>443.299987793</ele>
        <time>2015-10-25T10:33:57.958Z</time>
      </trkpt>
      <trkpt lat="46.02572" lon="4.60191">
        <ele>443.399993896</ele>
        <time>2015-10-25T10:33:58.985Z</time>
      </trkpt>
      <trkpt lat="46.0257" lon="4.60197">
        <ele>443.5</ele>
        <time>2015-10-25T10:33:59.972Z</time>
      </trkpt>
      <trkpt lat="46.02568" lon="4.60203">
        <ele>443.399993896</ele>
        <time>2015-10-25T10:34:00.989Z</time>
      </trkpt>
      <trkpt lat="46.02566" lon="4.60209">
        <ele>443.399993896</ele>
        <time>2015-10-25T10:34:01.954Z</time>
      </trkpt>
      <trkpt lat="46.02563" lon="4.60215">
        <ele>443.200012207</ele>
        <time>2015-10-25T10:34:02.981Z</time>
      </trkpt>
      <trkpt lat="46.02562" lon="4.60221">
        <ele>443</ele>
        <time>2015-10-25T10:34:03.958Z</time>
      </trkpt>
      <trkpt lat="46.0256" lon="4.60227">
        <ele>442.899993896</ele>
        <time>2015-10-25T10:34:04.994Z</time>
      </trkpt>
      <trkpt lat="46.02557" lon="4.60233">
        <ele>442.600006104</ele>
        <time>2015-10-25T10:34:05.956Z</time>
      </trkpt>
      <trkpt lat="46.02555" lon="4.60239">
        <ele>442.5</ele>
        <time>2015-10-25T10:34:06.985Z</time>
      </trkpt>
      <trkpt lat="46.02553" lon="4.60245">
        <ele>442.299987793</ele>
        <time>2015-10-25T10:34:07.958Z</time>
      </trkpt>
      <trkpt lat="46.02551" lon="4.60252">
        <ele>442.100006104</ele>
        <time>2015-10-25T10:34:09.024Z</time>
      </trkpt>
      <trkpt lat="46.02548" lon="4.60259">
        <ele>442</ele>
        <time>2015-10-25T10:34:09.961Z</time>
      </trkpt>
      <trkpt lat="46.02546" lon="4.60266">
        <ele>441.899993896</ele>
        <time>2015-10-25T10:34:10.984Z</time>
      </trkpt>
      <trkpt lat="46.02544" lon="4.60273">
        <ele>441.799987793</ele>
        <time>2015-10-25T10:34:11.994Z</time>
      </trkpt>
      <trkpt lat="46.02542" lon="4.60281">
        <ele>441.600006104</ele>
        <time>2015-10-25T10:34:12.981Z</time>
      </trkpt>
      <trkpt lat="46.02539" lon="4.60289">
        <ele>441.399993896</ele>
        <time>2015-10-25T10:34:13.957Z</time>
      </trkpt>
      <trkpt lat="46.02537" lon="4.60297">
        <ele>441.299987793</ele>
        <time>2015-10-25T10:34:14.98Z</time>
      </trkpt>
      <trkpt lat="46.02535" lon="4.60305">
        <ele>441.100006104</ele>
        <time>2015-10-25T10:34:15.961Z</time>
      </trkpt>
      <trkpt lat="46.02533" lon="4.60314">
        <ele>440.799987793</ele>
        <time>2015-10-25T10:34:17.011Z</time>
      </trkpt>
      <trkpt lat="46.0253" lon="4.60323">
        <ele>440.399993896</ele>
        <time>2015-10-25T10:34:17.955Z</time>
      </trkpt>
      <trkpt lat="46.02527" lon="4.60332">
        <ele>439.799987793</ele>
        <time>2015-10-25T10:34:18.98Z</time>
      </trkpt>
      <trkpt lat="46.02525" lon="4.60341">
        <ele>439.5</ele>
        <time>2015-10-25T10:34:19.954Z</time>
      </trkpt>
      <trkpt lat="46.02522" lon="4.6035">
        <ele>439.200012207</ele>
        <time>2015-10-25T10:34:20.999Z</time>
      </trkpt>
      <trkpt lat="46.02519" lon="4.60359">
        <ele>438.899993896</ele>
        <time>2015-10-25T10:34:21.962Z</time>
      </trkpt>
      <trkpt lat="46.02516" lon="4.60368">
        <ele>438.600006104</ele>
        <time>2015-10-25T10:34:22.985Z</time>
      </trkpt>
      <trkpt lat="46.02513" lon="4.60376">
        <ele>438.200012207</ele>
        <time>2015-10-25T10:34:23.96Z</time>
      </trkpt>
      <trkpt lat="46.0251" lon="4.60384">
        <ele>437.600006104</ele>
        <time>2015-10-25T10:34:25.024Z</time>
      </trkpt>
      <trkpt lat="46.02508" lon="4.60391">
        <ele>437.600006104</ele>
        <time>2015-10-25T10:34:25.953Z</time>
      </trkpt>
      <trkpt lat="46.02506" lon="4.60397">
        <ele>437.200012207</ele>
        <time>2015-10-25T10:34:26.982Z</time>
      </trkpt>
      <trkpt lat="46.02503" lon="4.60403">
        <ele>437.299987793</ele>
        <time>2015-10-25T10:34:27.961Z</time>
      </trkpt>
      <trkpt lat="46.02502" lon="4.60409">
        <ele>437.700012207</ele>
        <time>2015-10-25T10:34:29.024Z</time>
      </trkpt>
      <trkpt lat="46.025" lon="4.60416">
        <ele>437.399993896</ele>
        <time>2015-10-25T10:34:29.956Z</time>
      </trkpt>
      <trkpt lat="46.02499" lon="4.60423">
        <ele>437.5</ele>
        <time>2015-10-25T10:34:30.984Z</time>
      </trkpt>
      <trkpt lat="46.02497" lon="4.6043">
        <ele>437.200012207</ele>
        <time>2015-10-25T10:34:31.955Z</time>
      </trkpt>
      <trkpt lat="46.02495" lon="4.60442">
        <ele>437.700012207</ele>
        <time>2015-10-25T10:34:33.984Z</time>
      </trkpt>
      <trkpt lat="46.02493" lon="4.60448">
        <ele>437.5</ele>
        <time>2015-10-25T10:34:34.954Z</time>
      </trkpt>
      <trkpt lat="46.02493" lon="4.60455">
        <ele>438</ele>
        <time>2015-10-25T10:34:35.982Z</time>
      </trkpt>
      <trkpt lat="46.02491" lon="4.60461">
        <ele>437.899993896</ele>
        <time>2015-10-25T10:34:36.972Z</time>
      </trkpt>
      <trkpt lat="46.0249" lon="4.60467">
        <ele>438.200012207</ele>
        <time>2015-10-25T10:34:37.987Z</time>
      </trkpt>
      <trkpt lat="46.02489" lon="4.60474">
        <ele>438.600006104</ele>
        <time>2015-10-25T10:34:39.006Z</time>
      </trkpt>
      <trkpt lat="46.02487" lon="4.6048">
        <ele>438.799987793</ele>
        <time>2015-10-25T10:34:39.988Z</time>
      </trkpt>
      <trkpt lat="46.02486" lon="4.60486">
        <ele>439.600006104</ele>
        <time>2015-10-25T10:34:40.955Z</time>
      </trkpt>
      <trkpt lat="46.02484" lon="4.60499">
        <ele>440.100006104</ele>
        <time>2015-10-25T10:34:42.989Z</time>
      </trkpt>
      <trkpt lat="46.02482" lon="4.60505">
        <ele>440.299987793</ele>
        <time>2015-10-25T10:34:43.955Z</time>
      </trkpt>
      <trkpt lat="46.0248" lon="4.60517">
        <ele>440.299987793</ele>
        <time>2015-10-25T10:34:45.984Z</time>
      </trkpt>
      <trkpt lat="46.02478" lon="4.60522">
        <ele>440.299987793</ele>
        <time>2015-10-25T10:34:46.96Z</time>
      </trkpt>
      <trkpt lat="46.02474" lon="4.60532">
        <ele>440.399993896</ele>
        <time>2015-10-25T10:34:48.98Z</time>
      </trkpt>
      <trkpt lat="46.02472" lon="4.60536">
        <ele>441.200012207</ele>
        <time>2015-10-25T10:34:49.955Z</time>
      </trkpt>
      <trkpt lat="46.02469" lon="4.60545">
        <ele>441.399993896</ele>
        <time>2015-10-25T10:34:51.988Z</time>
      </trkpt>
      <trkpt lat="46.02467" lon="4.60549">
        <ele>442.200012207</ele>
        <time>2015-10-25T10:34:52.955Z</time>
      </trkpt>
      <trkpt lat="46.02463" lon="4.60556">
        <ele>442.899993896</ele>
        <time>2015-10-25T10:34:54.98Z</time>
      </trkpt>
      <trkpt lat="46.02461" lon="4.60559">
        <ele>443.5</ele>
        <time>2015-10-25T10:34:55.954Z</time>
      </trkpt>
      <trkpt lat="46.02456" lon="4.60569">
        <ele>445.100006104</ele>
        <time>2015-10-25T10:34:58.984Z</time>
      </trkpt>
      <trkpt lat="46.02455" lon="4.60572">
        <ele>445.799987793</ele>
        <time>2015-10-25T10:34:59.993Z</time>
      </trkpt>
      <trkpt lat="46.02452" lon="4.60582">
        <ele>447.100006104</ele>
        <time>2015-10-25T10:35:02.997Z</time>
      </trkpt>
      <trkpt lat="46.02451" lon="4.60585">
        <ele>447.700012207</ele>
        <time>2015-10-25T10:35:03.961Z</time>
      </trkpt>
      <trkpt lat="46.02449" lon="4.60596">
        <ele>448.899993896</ele>
        <time>2015-10-25T10:35:06.995Z</time>
      </trkpt>
      <trkpt lat="46.02447" lon="4.60599">
        <ele>448.899993896</ele>
        <time>2015-10-25T10:35:07.988Z</time>
      </trkpt>
      <trkpt lat="46.02442" lon="4.60609">
        <ele>449.399993896</ele>
        <time>2015-10-25T10:35:10.984Z</time>
      </trkpt>
      <trkpt lat="46.0244" lon="4.60612">
        <ele>449.200012207</ele>
        <time>2015-10-25T10:35:11.955Z</time>
      </trkpt>
      <trkpt lat="46.02436" lon="4.60622">
        <ele>449.100006104</ele>
        <time>2015-10-25T10:35:14.989Z</time>
      </trkpt>
      <trkpt lat="46.02434" lon="4.60626">
        <ele>448.299987793</ele>
        <time>2015-10-25T10:35:15.995Z</time>
      </trkpt>
      <trkpt lat="46.0243" lon="4.60634">
        <ele>449.299987793</ele>
        <time>2015-10-25T10:35:18.994Z</time>
      </trkpt>
      <trkpt lat="46.02428" lon="4.60637">
        <ele>449.5</ele>
        <time>2015-10-25T10:35:19.954Z</time>
      </trkpt>
      <trkpt lat="46.02424" lon="4.60646">
        <ele>449.700012207</ele>
        <time>2015-10-25T10:35:23.018Z</time>
      </trkpt>
      <trkpt lat="46.02422" lon="4.60649">
        <ele>450</ele>
        <time>2015-10-25T10:35:23.955Z</time>
      </trkpt>
      <trkpt lat="46.02417" lon="4.60657">
        <ele>450.399993896</ele>
        <time>2015-10-25T10:35:27.017Z</time>
      </trkpt>
      <trkpt lat="46.02415" lon="4.60659">
        <ele>450.600006104</ele>
        <time>2015-10-25T10:35:27.957Z</time>
      </trkpt>
      <trkpt lat="46.0241" lon="4.60666">
        <ele>451.100006104</ele>
        <time>2015-10-25T10:35:30.983Z</time>
      </trkpt>
      <trkpt lat="46.02408" lon="4.60669">
        <ele>451.299987793</ele>
        <time>2015-10-25T10:35:31.957Z</time>
      </trkpt>
      <trkpt lat="46.02402" lon="4.60675">
        <ele>451.700012207</ele>
        <time>2015-10-25T10:35:34.994Z</time>
      </trkpt>
      <trkpt lat="46.024" lon="4.60677">
        <ele>451.700012207</ele>
        <time>2015-10-25T10:35:35.959Z</time>
      </trkpt>
      <trkpt lat="46.02394" lon="4.60684">
        <ele>452</ele>
        <time>2015-10-25T10:35:38.983Z</time>
      </trkpt>
      <trkpt lat="46.02392" lon="4.60685">
        <ele>451.799987793</ele>
        <time>2015-10-25T10:35:39.958Z</time>
      </trkpt>
      <trkpt lat="46.02386" lon="4.60691">
        <ele>451.600006104</ele>
        <time>2015-10-25T10:35:42.987Z</time>
      </trkpt>
      <trkpt lat="46.02384" lon="4.60693">
        <ele>451.700012207</ele>
        <time>2015-10-25T10:35:43.994Z</time>
      </trkpt>
      <trkpt lat="46.02377" lon="4.60699">
        <ele>452.399993896</ele>
        <time>2015-10-25T10:35:46.985Z</time>
      </trkpt>
      <trkpt lat="46.02376" lon="4.60701">
        <ele>452.5</ele>
        <time>2015-10-25T10:35:47.955Z</time>
      </trkpt>
      <trkpt lat="46.02368" lon="4.60705">
        <ele>452.899993896</ele>
        <time>2015-10-25T10:35:50.98Z</time>
      </trkpt>
      <trkpt lat="46.02366" lon="4.60707">
        <ele>453</ele>
        <time>2015-10-25T10:35:51.957Z</time>
      </trkpt>
      <trkpt lat="46.02359" lon="4.6071">
        <ele>453.399993896</ele>
        <time>2015-10-25T10:35:54.984Z</time>
      </trkpt>
      <trkpt lat="46.02357" lon="4.60711">
        <ele>453.600006104</ele>
        <time>2015-10-25T10:35:55.969Z</time>
      </trkpt>
      <trkpt lat="46.02351" lon="4.60716">
        <ele>454.399993896</ele>
        <time>2015-10-25T10:35:58.98Z</time>
      </trkpt>
      <trkpt lat="46.02349" lon="4.60717">
        <ele>454.600006104</ele>
        <time>2015-10-25T10:35:59.955Z</time>
      </trkpt>
      <trkpt lat="46.02341" lon="4.6072">
        <ele>455</ele>
        <time>2015-10-25T10:36:03.001Z</time>
      </trkpt>
      <trkpt lat="46.02338" lon="4.60721">
        <ele>455.600006104</ele>
        <time>2015-10-25T10:36:03.961Z</time>
      </trkpt>
      <trkpt lat="46.0233" lon="4.60724">
        <ele>455.899993896</ele>
        <time>2015-10-25T10:36:07.988Z</time>
      </trkpt>
      <trkpt lat="46.02327" lon="4.60725">
        <ele>456.399993896</ele>
        <time>2015-10-25T10:36:08.994Z</time>
      </trkpt>
      <trkpt lat="46.0232" lon="4.60727">
        <ele>457.299987793</ele>
        <time>2015-10-25T10:36:11.981Z</time>
      </trkpt>
      <trkpt lat="46.02318" lon="4.60728">
        <ele>457.600006104</ele>
        <time>2015-10-25T10:36:12.957Z</time>
      </trkpt>
      <trkpt lat="46.02311" lon="4.60731">
        <ele>458.399993896</ele>
        <time>2015-10-25T10:36:16.999Z</time>
      </trkpt>
      <trkpt lat="46.02309" lon="4.60732">
        <ele>458.600006104</ele>
        <time>2015-10-25T10:36:17.958Z</time>
      </trkpt>
      <trkpt lat="46.02302" lon="4.60736">
        <ele>460.799987793</ele>
        <time>2015-10-25T10:36:21.987Z</time>
      </trkpt>
      <trkpt lat="46.023" lon="4.60736">
        <ele>461.200012207</ele>
        <time>2015-10-25T10:36:22.961Z</time>
      </trkpt>
      <trkpt lat="46.02291" lon="4.60737">
        <ele>462.299987793</ele>
        <time>2015-10-25T10:36:26.987Z</time>
      </trkpt>
      <trkpt lat="46.02289" lon="4.60738">
        <ele>462.5</ele>
        <time>2015-10-25T10:36:27.961Z</time>
      </trkpt>
      <trkpt lat="46.02281" lon="4.60742">
        <ele>463.600006104</ele>
        <time>2015-10-25T10:36:32.98Z</time>
      </trkpt>
      <trkpt lat="46.02279" lon="4.60742">
        <ele>463.899993896</ele>
        <time>2015-10-25T10:36:33.985Z</time>
      </trkpt>
      <trkpt lat="46.02273" lon="4.60747">
        <ele>464.899993896</ele>
        <time>2015-10-25T10:36:36.987Z</time>
      </trkpt>
      <trkpt lat="46.02271" lon="4.60748">
        <ele>465.299987793</ele>
        <time>2015-10-25T10:36:37.966Z</time>
      </trkpt>
      <trkpt lat="46.02263" lon="4.60751">
        <ele>467.5</ele>
        <time>2015-10-25T10:36:42.983Z</time>
      </trkpt>
      <trkpt lat="46.02261" lon="4.60753">
        <ele>468</ele>
        <time>2015-10-25T10:36:43.953Z</time>
      </trkpt>
      <trkpt lat="46.02255" lon="4.60757">
        <ele>469.799987793</ele>
        <time>2015-10-25T10:36:47.985Z</time>
      </trkpt>
      <trkpt lat="46.02253" lon="4.60758">
        <ele>470.200012207</ele>
        <time>2015-10-25T10:36:48.954Z</time>
      </trkpt>
      <trkpt lat="46.02246" lon="4.60764">
        <ele>472.5</ele>
        <time>2015-10-25T10:36:54.02Z</time>
      </trkpt>
      <trkpt lat="46.02244" lon="4.60765">
        <ele>473</ele>
        <time>2015-10-25T10:36:54.957Z</time>
      </trkpt>
      <trkpt lat="46.02237" lon="4.60767">
        <ele>474.399993896</ele>
        <time>2015-10-25T10:36:57.984Z</time>
      </trkpt>
      <trkpt lat="46.02234" lon="4.60768">
        <ele>474.799987793</ele>
        <time>2015-10-25T10:36:58.968Z</time>
      </trkpt>
      <trkpt lat="46.02227" lon="4.60773">
        <ele>476.399993896</ele>
        <time>2015-10-25T10:37:02.983Z</time>
      </trkpt>
      <trkpt lat="46.02224" lon="4.60774">
        <ele>476.600006104</ele>
        <time>2015-10-25T10:37:04.025Z</time>
      </trkpt>
      <trkpt lat="46.02216" lon="4.60776">
        <ele>477.399993896</ele>
        <time>2015-10-25T10:37:06.988Z</time>
      </trkpt>
      <trkpt lat="46.02213" lon="4.60776">
        <ele>477.700012207</ele>
        <time>2015-10-25T10:37:07.952Z</time>
      </trkpt>
      <trkpt lat="46.02204" lon="4.60776">
        <ele>478.700012207</ele>
        <time>2015-10-25T10:37:11.985Z</time>
      </trkpt>
      <trkpt lat="46.02202" lon="4.60777">
        <ele>478.799987793</ele>
        <time>2015-10-25T10:37:12.957Z</time>
      </trkpt>
      <trkpt lat="46.02195" lon="4.60776">
        <ele>479.600006104</ele>
        <time>2015-10-25T10:37:16.987Z</time>
      </trkpt>
      <trkpt lat="46.02192" lon="4.60776">
        <ele>479.799987793</ele>
        <time>2015-10-25T10:37:17.956Z</time>
      </trkpt>
      <trkpt lat="46.02184" lon="4.60773">
        <ele>479.799987793</ele>
        <time>2015-10-25T10:37:21.986Z</time>
      </trkpt>
      <trkpt lat="46.02181" lon="4.60772">
        <ele>479.899993896</ele>
        <time>2015-10-25T10:37:22.953Z</time>
      </trkpt>
      <trkpt lat="46.02174" lon="4.60771">
        <ele>480.5</ele>
        <time>2015-10-25T10:37:26.989Z</time>
      </trkpt>
      <trkpt lat="46.02172" lon="4.6077">
        <ele>480.799987793</ele>
        <time>2015-10-25T10:37:27.96Z</time>
      </trkpt>
      <trkpt lat="46.02165" lon="4.60767">
        <ele>481.200012207</ele>
        <time>2015-10-25T10:37:31.984Z</time>
      </trkpt>
      <trkpt lat="46.02163" lon="4.60768">
        <ele>481.299987793</ele>
        <time>2015-10-25T10:37:32.994Z</time>
      </trkpt>
      <trkpt lat="46.02155" lon="4.6076">
        <ele>481</ele>
        <time>2015-10-25T10:37:36.985Z</time>
      </trkpt>
      <trkpt lat="46.02154" lon="4.6076">
        <ele>481.100006104</ele>
        <time>2015-10-25T10:37:37.957Z</time>
      </trkpt>
      <trkpt lat="46.02146" lon="4.60759">
        <ele>481.299987793</ele>
        <time>2015-10-25T10:37:40.998Z</time>
      </trkpt>
      <trkpt lat="46.02144" lon="4.60758">
        <ele>481.100006104</ele>
        <time>2015-10-25T10:37:41.959Z</time>
      </trkpt>
      <trkpt lat="46.02135" lon="4.60754">
        <ele>481.100006104</ele>
        <time>2015-10-25T10:37:45.984Z</time>
      </trkpt>
      <trkpt lat="46.02134" lon="4.60753">
        <ele>481</ele>
        <time>2015-10-25T10:37:47.001Z</time>
      </trkpt>
      <trkpt lat="46.02127" lon="4.6075">
        <ele>481.299987793</ele>
        <time>2015-10-25T10:37:51.084Z</time>
      </trkpt>
      <trkpt lat="46.02125" lon="4.60749">
        <ele>481.299987793</ele>
        <time>2015-10-25T10:37:51.987Z</time>
      </trkpt>
      <trkpt lat="46.02117" lon="4.60746">
        <ele>481.399993896</ele>
        <time>2015-10-25T10:37:55.992Z</time>
      </trkpt>
      <trkpt lat="46.02115" lon="4.60745">
        <ele>481.299987793</ele>
        <time>2015-10-25T10:37:56.965Z</time>
      </trkpt>
      <trkpt lat="46.02106" lon="4.60742">
        <ele>481.299987793</ele>
        <time>2015-10-25T10:38:00.99Z</time>
      </trkpt>
      <trkpt lat="46.02104" lon="4.60742">
        <ele>481.100006104</ele>
        <time>2015-10-25T10:38:01.963Z</time>
      </trkpt>
      <trkpt lat="46.02096" lon="4.60738">
        <ele>480.799987793</ele>
        <time>2015-10-25T10:38:04.995Z</time>
      </trkpt>
      <trkpt lat="46.02093" lon="4.60737">
        <ele>480.799987793</ele>
        <time>2015-10-25T10:38:05.977Z</time>
      </trkpt>
      <trkpt lat="46.02086" lon="4.60732">
        <ele>480.899993896</ele>
        <time>2015-10-25T10:38:09.035Z</time>
      </trkpt>
      <trkpt lat="46.02082" lon="4.60731">
        <ele>480.799987793</ele>
        <time>2015-10-25T10:38:09.958Z</time>
      </trkpt>
      <trkpt lat="46.02074" lon="4.6073">
        <ele>481.399993896</ele>
        <time>2015-10-25T10:38:12.985Z</time>
      </trkpt>
      <trkpt lat="46.02071" lon="4.60729">
        <ele>481.399993896</ele>
        <time>2015-10-25T10:38:13.957Z</time>
      </trkpt>
      <trkpt lat="46.02063" lon="4.60727">
        <ele>481.100006104</ele>
        <time>2015-10-25T10:38:17.986Z</time>
      </trkpt>
      <trkpt lat="46.0206" lon="4.60727">
        <ele>481.299987793</ele>
        <time>2015-10-25T10:38:18.975Z</time>
      </trkpt>
      <trkpt lat="46.02052" lon="4.60728">
        <ele>482</ele>
        <time>2015-10-25T10:38:22.984Z</time>
      </trkpt>
      <trkpt lat="46.0205" lon="4.60728">
        <ele>482</ele>
        <time>2015-10-25T10:38:23.957Z</time>
      </trkpt>
      <trkpt lat="46.02042" lon="4.60729">
        <ele>482.600006104</ele>
        <time>2015-10-25T10:38:26.986Z</time>
      </trkpt>
      <trkpt lat="46.0204" lon="4.60729">
        <ele>483</ele>
        <time>2015-10-25T10:38:27.972Z</time>
      </trkpt>
      <trkpt lat="46.02033" lon="4.60731">
        <ele>483.700012207</ele>
        <time>2015-10-25T10:38:31.983Z</time>
      </trkpt>
      <trkpt lat="46.02031" lon="4.60732">
        <ele>483.600006104</ele>
        <time>2015-10-25T10:38:32.958Z</time>
      </trkpt>
      <trkpt lat="46.02022" lon="4.60734">
        <ele>483.5</ele>
        <time>2015-10-25T10:38:36.986Z</time>
      </trkpt>
      <trkpt lat="46.0202" lon="4.60734">
        <ele>483.799987793</ele>
        <time>2015-10-25T10:38:37.964Z</time>
      </trkpt>
      <trkpt lat="46.02013" lon="4.60737">
        <ele>484</ele>
        <time>2015-10-25T10:38:40.99Z</time>
      </trkpt>
      <trkpt lat="46.0201" lon="4.60737">
        <ele>484.100006104</ele>
        <time>2015-10-25T10:38:41.983Z</time>
      </trkpt>
      <trkpt lat="46.02002" lon="4.60741">
        <ele>484.600006104</ele>
        <time>2015-10-25T10:38:44.987Z</time>
      </trkpt>
      <trkpt lat="46.01998" lon="4.60743">
        <ele>484.899993896</ele>
        <time>2015-10-25T10:38:45.958Z</time>
      </trkpt>
      <trkpt lat="46.01989" lon="4.60747">
        <ele>484.700012207</ele>
        <time>2015-10-25T10:38:47.988Z</time>
      </trkpt>
      <trkpt lat="46.01988" lon="4.6075">
        <ele>484.700012207</ele>
        <time>2015-10-25T10:38:48.962Z</time>
      </trkpt>
      <trkpt lat="46.01984" lon="4.60756">
        <ele>485.200012207</ele>
        <time>2015-10-25T10:38:50.986Z</time>
      </trkpt>
      <trkpt lat="46.01982" lon="4.6076">
        <ele>485.299987793</ele>
        <time>2015-10-25T10:38:51.961Z</time>
      </trkpt>
      <trkpt lat="46.0198" lon="4.60772">
        <ele>486.399993896</ele>
        <time>2015-10-25T10:38:54.985Z</time>
      </trkpt>
      <trkpt lat="46.0198" lon="4.60777">
        <ele>486.799987793</ele>
        <time>2015-10-25T10:38:55.959Z</time>
      </trkpt>
      <trkpt lat="46.01983" lon="4.60787">
        <ele>488.100006104</ele>
        <time>2015-10-25T10:38:59.019Z</time>
      </trkpt>
      <trkpt lat="46.01984" lon="4.6079">
        <ele>488.700012207</ele>
        <time>2015-10-25T10:38:59.96Z</time>
      </trkpt>
      <trkpt lat="46.0199" lon="4.60799">
        <ele>488.799987793</ele>
        <time>2015-10-25T10:39:02.985Z</time>
      </trkpt>
      <trkpt lat="46.01992" lon="4.60802">
        <ele>488.899993896</ele>
        <time>2015-10-25T10:39:03.956Z</time>
      </trkpt>
      <trkpt lat="46.01998" lon="4.60809">
        <ele>489.200012207</ele>
        <time>2015-10-25T10:39:06.997Z</time>
      </trkpt>
      <trkpt lat="46.02" lon="4.60812">
        <ele>489.100006104</ele>
        <time>2015-10-25T10:39:07.955Z</time>
      </trkpt>
      <trkpt lat="46.02006" lon="4.60821">
        <ele>489.200012207</ele>
        <time>2015-10-25T10:39:10.99Z</time>
      </trkpt>
      <trkpt lat="46.02008" lon="4.60823">
        <ele>489.299987793</ele>
        <time>2015-10-25T10:39:11.962Z</time>
      </trkpt>
      <trkpt lat="46.02013" lon="4.6083">
        <ele>489.700012207</ele>
        <time>2015-10-25T10:39:14.985Z</time>
      </trkpt>
      <trkpt lat="46.02015" lon="4.60832">
        <ele>489.899993896</ele>
        <time>2015-10-25T10:39:15.96Z</time>
      </trkpt>
      <trkpt lat="46.0202" lon="4.60842">
        <ele>490</ele>
        <time>2015-10-25T10:39:19.982Z</time>
      </trkpt>
      <trkpt lat="46.02021" lon="4.60844">
        <ele>489.899993896</ele>
        <time>2015-10-25T10:39:20.955Z</time>
      </trkpt>
      <trkpt lat="46.02025" lon="4.60852">
        <ele>489.899993896</ele>
        <time>2015-10-25T10:39:23.988Z</time>
      </trkpt>
      <trkpt lat="46.02027" lon="4.60854">
        <ele>489.899993896</ele>
        <time>2015-10-25T10:39:24.959Z</time>
      </trkpt>
      <trkpt lat="46.02032" lon="4.60862">
        <ele>490.5</ele>
        <time>2015-10-25T10:39:27.989Z</time>
      </trkpt>
      <trkpt lat="46.02033" lon="4.60865">
        <ele>490.399993896</ele>
        <time>2015-10-25T10:39:28.955Z</time>
      </trkpt>
      <trkpt lat="46.02038" lon="4.60873">
        <ele>490.299987793</ele>
        <time>2015-10-25T10:39:31.992Z</time>
      </trkpt>
      <trkpt lat="46.0204" lon="4.60876">
        <ele>490.5</ele>
        <time>2015-10-25T10:39:32.959Z</time>
      </trkpt>
      <trkpt lat="46.02044" lon="4.60884">
        <ele>491.299987793</ele>
        <time>2015-10-25T10:39:36.001Z</time>
      </trkpt>
      <trkpt lat="46.02045" lon="4.60887">
        <ele>491.299987793</ele>
        <time>2015-10-25T10:39:36.969Z</time>
      </trkpt>
      <trkpt lat="46.02048" lon="4.60898">
        <ele>491.299987793</ele>
        <time>2015-10-25T10:39:41.044Z</time>
      </trkpt>
      <trkpt lat="46.02048" lon="4.60901">
        <ele>491.399993896</ele>
        <time>2015-10-25T10:39:41.961Z</time>
      </trkpt>
      <trkpt lat="46.02049" lon="4.60911">
        <ele>491.5</ele>
        <time>2015-10-25T10:39:44.981Z</time>
      </trkpt>
      <trkpt lat="46.0205" lon="4.60914">
        <ele>491.399993896</ele>
        <time>2015-10-25T10:39:45.962Z</time>
      </trkpt>
      <trkpt lat="46.02053" lon="4.60923">
        <ele>490.700012207</ele>
        <time>2015-10-25T10:39:48.988Z</time>
      </trkpt>
      <trkpt lat="46.02054" lon="4.60927">
        <ele>490.700012207</ele>
        <time>2015-10-25T10:39:49.961Z</time>
      </trkpt>
      <trkpt lat="46.02055" lon="4.60938">
        <ele>490.899993896</ele>
        <time>2015-10-25T10:39:53.983Z</time>
      </trkpt>
      <trkpt lat="46.02056" lon="4.60941">
        <ele>490.799987793</ele>
        <time>2015-10-25T10:39:54.96Z</time>
      </trkpt>
      <trkpt lat="46.02057" lon="4.6095">
        <ele>490.700012207</ele>
        <time>2015-10-25T10:39:57.986Z</time>
      </trkpt>
      <trkpt lat="46.02058" lon="4.60954">
        <ele>490.899993896</ele>
        <time>2015-10-25T10:39:58.988Z</time>
      </trkpt>
      <trkpt lat="46.0206" lon="4.60963">
        <ele>491.200012207</ele>
        <time>2015-10-25T10:40:01.999Z</time>
      </trkpt>
      <trkpt lat="46.0206" lon="4.60967">
        <ele>491.299987793</ele>
        <time>2015-10-25T10:40:02.962Z</time>
      </trkpt>
      <trkpt lat="46.0206" lon="4.60979">
        <ele>492</ele>
        <time>2015-10-25T10:40:07.051Z</time>
      </trkpt>
      <trkpt lat="46.0206" lon="4.60982">
        <ele>491.899993896</ele>
        <time>2015-10-25T10:40:07.955Z</time>
      </trkpt>
      <trkpt lat="46.02059" lon="4.60994">
        <ele>492.399993896</ele>
        <time>2015-10-25T10:40:11.983Z</time>
      </trkpt>
      <trkpt lat="46.02058" lon="4.60997">
        <ele>492.399993896</ele>
        <time>2015-10-25T10:40:12.96Z</time>
      </trkpt>
      <trkpt lat="46.02054" lon="4.61008">
        <ele>493.600006104</ele>
        <time>2015-10-25T10:40:17.024Z</time>
      </trkpt>
      <trkpt lat="46.02053" lon="4.61011">
        <ele>493.700012207</ele>
        <time>2015-10-25T10:40:17.973Z</time>
      </trkpt>
      <trkpt lat="46.02048" lon="4.61019">
        <ele>494.399993896</ele>
        <time>2015-10-25T10:40:21.202Z</time>
      </trkpt>
      <trkpt lat="46.02047" lon="4.61021">
        <ele>494.600006104</ele>
        <time>2015-10-25T10:40:21.961Z</time>
      </trkpt>
      <trkpt lat="46.02042" lon="4.61029">
        <ele>495.100006104</ele>
        <time>2015-10-25T10:40:24.981Z</time>
      </trkpt>
      <trkpt lat="46.02041" lon="4.61032">
        <ele>494.700012207</ele>
        <time>2015-10-25T10:40:25.958Z</time>
      </trkpt>
      <trkpt lat="46.02037" lon="4.6104">
        <ele>494.399993896</ele>
        <time>2015-10-25T10:40:28.986Z</time>
      </trkpt>
      <trkpt lat="46.02035" lon="4.61042">
        <ele>494.200012207</ele>
        <time>2015-10-25T10:40:29.96Z</time>
      </trkpt>
      <trkpt lat="46.02028" lon="4.61051">
        <ele>494.600006104</ele>
        <time>2015-10-25T10:40:33.985Z</time>
      </trkpt>
      <trkpt lat="46.02027" lon="4.61053">
        <ele>494.700012207</ele>
        <time>2015-10-25T10:40:34.956Z</time>
      </trkpt>
      <trkpt lat="46.0202" lon="4.6106">
        <ele>495.200012207</ele>
        <time>2015-10-25T10:40:38.982Z</time>
      </trkpt>
      <trkpt lat="46.02018" lon="4.61061">
        <ele>495.399993896</ele>
        <time>2015-10-25T10:40:39.964Z</time>
      </trkpt>
      <trkpt lat="46.0201" lon="4.61067">
        <ele>496.299987793</ele>
        <time>2015-10-25T10:40:44.004Z</time>
      </trkpt>
      <trkpt lat="46.02009" lon="4.61068">
        <ele>496.5</ele>
        <time>2015-10-25T10:40:44.955Z</time>
      </trkpt>
      <trkpt lat="46.02001" lon="4.61073">
        <ele>497.700012207</ele>
        <time>2015-10-25T10:40:48.984Z</time>
      </trkpt>
      <trkpt lat="46.01999" lon="4.61074">
        <ele>498.100006104</ele>
        <time>2015-10-25T10:40:49.961Z</time>
      </trkpt>
      <trkpt lat="46.01992" lon="4.61079">
        <ele>498.899993896</ele>
        <time>2015-10-25T10:40:53.984Z</time>
      </trkpt>
      <trkpt lat="46.0199" lon="4.6108">
        <ele>499.100006104</ele>
        <time>2015-10-25T10:40:54.956Z</time>
      </trkpt>
      <trkpt lat="46.01983" lon="4.61083">
        <ele>499.200012207</ele>
        <time>2015-10-25T10:40:58.981Z</time>
      </trkpt>
      <trkpt lat="46.01981" lon="4.61085">
        <ele>499.299987793</ele>
        <time>2015-10-25T10:40:59.969Z</time>
      </trkpt>
      <trkpt lat="46.01973" lon="4.61088">
        <ele>500.399993896</ele>
        <time>2015-10-25T10:41:03.988Z</time>
      </trkpt>
      <trkpt lat="46.01971" lon="4.61089">
        <ele>500.299987793</ele>
        <time>2015-10-25T10:41:04.974Z</time>
      </trkpt>
      <trkpt lat="46.01963" lon="4.61092">
        <ele>500.399993896</ele>
        <time>2015-10-25T10:41:08.982Z</time>
      </trkpt>
      <trkpt lat="46.01961" lon="4.61093">
        <ele>500.600006104</ele>
        <time>2015-10-25T10:41:09.949Z</time>
      </trkpt>
      <trkpt lat="46.01954" lon="4.61097">
        <ele>501.299987793</ele>
        <time>2015-10-25T10:41:13.986Z</time>
      </trkpt>
      <trkpt lat="46.01952" lon="4.61098">
        <ele>501.299987793</ele>
        <time>2015-10-25T10:41:14.958Z</time>
      </trkpt>
      <trkpt lat="46.01944" lon="4.61103">
        <ele>501.600006104</ele>
        <time>2015-10-25T10:41:18.984Z</time>
      </trkpt>
      <trkpt lat="46.01942" lon="4.61103">
        <ele>501.799987793</ele>
        <time>2015-10-25T10:41:20.004Z</time>
      </trkpt>
      <trkpt lat="46.01934" lon="4.61106">
        <ele>502.600006104</ele>
        <time>2015-10-25T10:41:23.993Z</time>
      </trkpt>
      <trkpt lat="46.01932" lon="4.61107">
        <ele>502.700012207</ele>
        <time>2015-10-25T10:41:24.956Z</time>
      </trkpt>
      <trkpt lat="46.01924" lon="4.61109">
        <ele>503.200012207</ele>
        <time>2015-10-25T10:41:28.984Z</time>
      </trkpt>
      <trkpt lat="46.01922" lon="4.61109">
        <ele>503.299987793</ele>
        <time>2015-10-25T10:41:29.959Z</time>
      </trkpt>
      <trkpt lat="46.01914" lon="4.61111">
        <ele>503.799987793</ele>
        <time>2015-10-25T10:41:33.988Z</time>
      </trkpt>
      <trkpt lat="46.01913" lon="4.61112">
        <ele>504</ele>
        <time>2015-10-25T10:41:34.954Z</time>
      </trkpt>
      <trkpt lat="46.01905" lon="4.61113">
        <ele>504.799987793</ele>
        <time>2015-10-25T10:41:38.98Z</time>
      </trkpt>
      <trkpt lat="46.01902" lon="4.61114">
        <ele>504.899993896</ele>
        <time>2015-10-25T10:41:39.96Z</time>
      </trkpt>
      <trkpt lat="46.01894" lon="4.61116">
        <ele>505.200012207</ele>
        <time>2015-10-25T10:41:43.981Z</time>
      </trkpt>
      <trkpt lat="46.01892" lon="4.61117">
        <ele>504.700012207</ele>
        <time>2015-10-25T10:41:44.954Z</time>
      </trkpt>
      <trkpt lat="46.01884" lon="4.61118">
        <ele>505.600006104</ele>
        <time>2015-10-25T10:41:48.981Z</time>
      </trkpt>
      <trkpt lat="46.01883" lon="4.61118">
        <ele>505.899993896</ele>
        <time>2015-10-25T10:41:49.955Z</time>
      </trkpt>
      <trkpt lat="46.01875" lon="4.6112">
        <ele>506.600006104</ele>
        <time>2015-10-25T10:41:54.001Z</time>
      </trkpt>
      <trkpt lat="46.01873" lon="4.61121">
        <ele>506.799987793</ele>
        <time>2015-10-25T10:41:54.955Z</time>
      </trkpt>
      <trkpt lat="46.01865" lon="4.61121">
        <ele>507.299987793</ele>
        <time>2015-10-25T10:41:58.985Z</time>
      </trkpt>
      <trkpt lat="46.01863" lon="4.61121">
        <ele>507.399993896</ele>
        <time>2015-10-25T10:41:59.96Z</time>
      </trkpt>
      <trkpt lat="46.01855" lon="4.6112">
        <ele>508.100006104</ele>
        <time>2015-10-25T10:42:03.986Z</time>
      </trkpt>
      <trkpt lat="46.01853" lon="4.6112">
        <ele>508.399993896</ele>
        <time>2015-10-25T10:42:04.979Z</time>
      </trkpt>
      <trkpt lat="46.01845" lon="4.6112">
        <ele>509.899993896</ele>
        <time>2015-10-25T10:42:09.002Z</time>
      </trkpt>
      <trkpt lat="46.01843" lon="4.6112">
        <ele>510.299987793</ele>
        <time>2015-10-25T10:42:09.96Z</time>
      </trkpt>
      <trkpt lat="46.01836" lon="4.61119">
        <ele>510.600006104</ele>
        <time>2015-10-25T10:42:13.002Z</time>
      </trkpt>
      <trkpt lat="46.01834" lon="4.61118">
        <ele>510.899993896</ele>
        <time>2015-10-25T10:42:13.953Z</time>
      </trkpt>
      <trkpt lat="46.01825" lon="4.61116">
        <ele>511.700012207</ele>
        <time>2015-10-25T10:42:17.99Z</time>
      </trkpt>
      <trkpt lat="46.01823" lon="4.61115">
        <ele>511.799987793</ele>
        <time>2015-10-25T10:42:18.957Z</time>
      </trkpt>
      <trkpt lat="46.01815" lon="4.61109">
        <ele>511.799987793</ele>
        <time>2015-10-25T10:42:22.984Z</time>
      </trkpt>
      <trkpt lat="46.01812" lon="4.61108">
        <ele>511.700012207</ele>
        <time>2015-10-25T10:42:23.961Z</time>
      </trkpt>
      <trkpt lat="46.01805" lon="4.61105">
        <ele>511.200012207</ele>
        <time>2015-10-25T10:42:27.005Z</time>
      </trkpt>
      <trkpt lat="46.01803" lon="4.61104">
        <ele>511.100006104</ele>
        <time>2015-10-25T10:42:27.961Z</time>
      </trkpt>
      <trkpt lat="46.01796" lon="4.611">
        <ele>511</ele>
        <time>2015-10-25T10:42:30.98Z</time>
      </trkpt>
      <trkpt lat="46.01793" lon="4.61099">
        <ele>510.799987793</ele>
        <time>2015-10-25T10:42:31.957Z</time>
      </trkpt>
      <trkpt lat="46.01785" lon="4.61094">
        <ele>510.299987793</ele>
        <time>2015-10-25T10:42:34.982Z</time>
      </trkpt>
      <trkpt lat="46.01782" lon="4.61093">
        <ele>510.299987793</ele>
        <time>2015-10-25T10:42:35.956Z</time>
      </trkpt>
      <trkpt lat="46.01776" lon="4.61089">
        <ele>509.899993896</ele>
        <time>2015-10-25T10:42:38.033Z</time>
      </trkpt>
      <trkpt lat="46.01773" lon="4.61087">
        <ele>509.700012207</ele>
        <time>2015-10-25T10:42:38.988Z</time>
      </trkpt>
      <trkpt lat="46.01767" lon="4.61082">
        <ele>509.799987793</ele>
        <time>2015-10-25T10:42:40.98Z</time>
      </trkpt>
      <trkpt lat="46.01763" lon="4.6108">
        <ele>509.799987793</ele>
        <time>2015-10-25T10:42:41.955Z</time>
      </trkpt>
      <trkpt lat="46.01756" lon="4.61076">
        <ele>509.700012207</ele>
        <time>2015-10-25T10:42:43.98Z</time>
      </trkpt>
      <trkpt lat="46.01752" lon="4.61074">
        <ele>509.799987793</ele>
        <time>2015-10-25T10:42:44.974Z</time>
      </trkpt>
      <trkpt lat="46.01746" lon="4.6107">
        <ele>509.700012207</ele>
        <time>2015-10-25T10:42:47.007Z</time>
      </trkpt>
      <trkpt lat="46.01742" lon="4.61069">
        <ele>509.399993896</ele>
        <time>2015-10-25T10:42:47.958Z</time>
      </trkpt>
      <trkpt lat="46.01735" lon="4.61065">
        <ele>509.399993896</ele>
        <time>2015-10-25T10:42:50.066Z</time>
      </trkpt>
      <trkpt lat="46.01732" lon="4.61064">
        <ele>509.600006104</ele>
        <time>2015-10-25T10:42:50.958Z</time>
      </trkpt>
      <trkpt lat="46.01724" lon="4.61062">
        <ele>509.600006104</ele>
        <time>2015-10-25T10:42:52.981Z</time>
      </trkpt>
      <trkpt lat="46.0172" lon="4.61062">
        <ele>509.799987793</ele>
        <time>2015-10-25T10:42:53.955Z</time>
      </trkpt>
      <trkpt lat="46.01711" lon="4.61061">
        <ele>510</ele>
        <time>2015-10-25T10:42:55.989Z</time>
      </trkpt>
      <trkpt lat="46.01707" lon="4.6106">
        <ele>510.100006104</ele>
        <time>2015-10-25T10:42:57.014Z</time>
      </trkpt>
      <trkpt lat="46.01699" lon="4.61058">
        <ele>510.100006104</ele>
        <time>2015-10-25T10:42:58.981Z</time>
      </trkpt>
      <trkpt lat="46.01696" lon="4.61057">
        <ele>510.5</ele>
        <time>2015-10-25T10:42:59.959Z</time>
      </trkpt>
      <trkpt lat="46.01688" lon="4.61057">
        <ele>510.399993896</ele>
        <time>2015-10-25T10:43:01.984Z</time>
      </trkpt>
      <trkpt lat="46.01684" lon="4.61056">
        <ele>510.200012207</ele>
        <time>2015-10-25T10:43:02.957Z</time>
      </trkpt>
      <trkpt lat="46.01676" lon="4.61055">
        <ele>510.299987793</ele>
        <time>2015-10-25T10:43:04.984Z</time>
      </trkpt>
      <trkpt lat="46.01672" lon="4.61054">
        <ele>510.399993896</ele>
        <time>2015-10-25T10:43:05.937Z</time>
      </trkpt>
      <trkpt lat="46.01665" lon="4.61053">
        <ele>510.700012207</ele>
        <time>2015-10-25T10:43:07.983Z</time>
      </trkpt>
      <trkpt lat="46.01661" lon="4.61052">
        <ele>510.799987793</ele>
        <time>2015-10-25T10:43:09.004Z</time>
      </trkpt>
      <trkpt lat="46.01654" lon="4.61049">
        <ele>510.700012207</ele>
        <time>2015-10-25T10:43:10.998Z</time>
      </trkpt>
      <trkpt lat="46.01651" lon="4.61047">
        <ele>510.600006104</ele>
        <time>2015-10-25T10:43:11.958Z</time>
      </trkpt>
      <trkpt lat="46.01644" lon="4.61045">
        <ele>510.399993896</ele>
        <time>2015-10-25T10:43:13.984Z</time>
      </trkpt>
      <trkpt lat="46.01641" lon="4.61043">
        <ele>510.299987793</ele>
        <time>2015-10-25T10:43:14.958Z</time>
      </trkpt>
      <trkpt lat="46.01635" lon="4.61041">
        <ele>510.299987793</ele>
        <time>2015-10-25T10:43:17.008Z</time>
      </trkpt>
      <trkpt lat="46.01631" lon="4.6104">
        <ele>510.299987793</ele>
        <time>2015-10-25T10:43:17.953Z</time>
      </trkpt>
      <trkpt lat="46.01624" lon="4.61037">
        <ele>510.200012207</ele>
        <time>2015-10-25T10:43:20.054Z</time>
      </trkpt>
      <trkpt lat="46.0162" lon="4.61034">
        <ele>510</ele>
        <time>2015-10-25T10:43:20.957Z</time>
      </trkpt>
      <trkpt lat="46.01611" lon="4.61032">
        <ele>509.600006104</ele>
        <time>2015-10-25T10:43:22.991Z</time>
      </trkpt>
      <trkpt lat="46.01606" lon="4.6103">
        <ele>509.600006104</ele>
        <time>2015-10-25T10:43:23.958Z</time>
      </trkpt>
      <trkpt lat="46.016" lon="4.61028">
        <ele>509.700012207</ele>
        <time>2015-10-25T10:43:24.992Z</time>
      </trkpt>
      <trkpt lat="46.01594" lon="4.61027">
        <ele>509.700012207</ele>
        <time>2015-10-25T10:43:25.961Z</time>
      </trkpt>
      <trkpt lat="46.01586" lon="4.61024">
        <ele>509.399993896</ele>
        <time>2015-10-25T10:43:27.986Z</time>
      </trkpt>
      <trkpt lat="46.01582" lon="4.61022">
        <ele>509.299987793</ele>
        <time>2015-10-25T10:43:28.951Z</time>
      </trkpt>
      <trkpt lat="46.01573" lon="4.61017">
        <ele>508.899993896</ele>
        <time>2015-10-25T10:43:31.031Z</time>
      </trkpt>
      <trkpt lat="46.01569" lon="4.61015">
        <ele>508.899993896</ele>
        <time>2015-10-25T10:43:31.966Z</time>
      </trkpt>
      <trkpt lat="46.01564" lon="4.61013">
        <ele>508.700012207</ele>
        <time>2015-10-25T10:43:32.983Z</time>
      </trkpt>
      <trkpt lat="46.01559" lon="4.61011">
        <ele>508.600006104</ele>
        <time>2015-10-25T10:43:33.957Z</time>
      </trkpt>
      <trkpt lat="46.01555" lon="4.61009">
        <ele>508.700012207</ele>
        <time>2015-10-25T10:43:34.984Z</time>
      </trkpt>
      <trkpt lat="46.0155" lon="4.61007">
        <ele>508.799987793</ele>
        <time>2015-10-25T10:43:35.959Z</time>
      </trkpt>
      <trkpt lat="46.01545" lon="4.61005">
        <ele>508.899993896</ele>
        <time>2015-10-25T10:43:37.023Z</time>
      </trkpt>
      <trkpt lat="46.01539" lon="4.61004">
        <ele>508.899993896</ele>
        <time>2015-10-25T10:43:37.953Z</time>
      </trkpt>
      <trkpt lat="46.01534" lon="4.61003">
        <ele>508.899993896</ele>
        <time>2015-10-25T10:43:38.981Z</time>
      </trkpt>
      <trkpt lat="46.0153" lon="4.61">
        <ele>509</ele>
        <time>2015-10-25T10:43:39.954Z</time>
      </trkpt>
      <trkpt lat="46.01522" lon="4.60996">
        <ele>509.299987793</ele>
        <time>2015-10-25T10:43:41.985Z</time>
      </trkpt>
      <trkpt lat="46.01519" lon="4.60995">
        <ele>509.600006104</ele>
        <time>2015-10-25T10:43:42.956Z</time>
      </trkpt>
      <trkpt lat="46.01511" lon="4.6099">
        <ele>508.399993896</ele>
        <time>2015-10-25T10:43:47.011Z</time>
      </trkpt>
      <trkpt lat="46.01509" lon="4.6099">
        <ele>508.200012207</ele>
        <time>2015-10-25T10:43:47.97Z</time>
      </trkpt>
      <trkpt lat="46.015" lon="4.60989">
        <ele>507.600006104</ele>
        <time>2015-10-25T10:43:50.983Z</time>
      </trkpt>
      <trkpt lat="46.01496" lon="4.60988">
        <ele>507.299987793</ele>
        <time>2015-10-25T10:43:51.97Z</time>
      </trkpt>
      <trkpt lat="46.01491" lon="4.60987">
        <ele>507.100006104</ele>
        <time>2015-10-25T10:43:53.012Z</time>
      </trkpt>
      <trkpt lat="46.01486" lon="4.60986">
        <ele>506.799987793</ele>
        <time>2015-10-25T10:43:53.958Z</time>
      </trkpt>
      <trkpt lat="46.01479" lon="4.60985">
        <ele>506.600006104</ele>
        <time>2015-10-25T10:43:54.98Z</time>
      </trkpt>
      <trkpt lat="46.01471" lon="4.60982">
        <ele>506.299987793</ele>
        <time>2015-10-25T10:43:55.952Z</time>
      </trkpt>
      <trkpt lat="46.01463" lon="4.60977">
        <ele>505.399993896</ele>
        <time>2015-10-25T10:43:57.007Z</time>
      </trkpt>
      <trkpt lat="46.01456" lon="4.60973">
        <ele>504.200012207</ele>
        <time>2015-10-25T10:43:57.955Z</time>
      </trkpt>
      <trkpt lat="46.01447" lon="4.60971">
        <ele>503.100006104</ele>
        <time>2015-10-25T10:43:59Z</time>
      </trkpt>
      <trkpt lat="46.01438" lon="4.60969">
        <ele>502.200012207</ele>
        <time>2015-10-25T10:43:59.956Z</time>
      </trkpt>
      <trkpt lat="46.01438" lon="4.60969">
        <ele>502.200012207</ele>
        <time>2015-10-25T10:44:00.014Z</time>
      </trkpt>
      <trkpt lat="46.01428" lon="4.60967">
        <ele>501</ele>
        <time>2015-10-25T10:44:00.957Z</time>
      </trkpt>
      <trkpt lat="46.01428" lon="4.60967">
        <ele>501</ele>
        <time>2015-10-25T10:44:00.999Z</time>
      </trkpt>
      <trkpt lat="46.01417" lon="4.60965">
        <ele>500.299987793</ele>
        <time>2015-10-25T10:44:01.957Z</time>
      </trkpt>
      <trkpt lat="46.01417" lon="4.60965">
        <ele>500.299987793</ele>
        <time>2015-10-25T10:44:02.004Z</time>
      </trkpt>
      <trkpt lat="46.01407" lon="4.60962">
        <ele>499.5</ele>
        <time>2015-10-25T10:44:02.996Z</time>
      </trkpt>
      <trkpt lat="46.01407" lon="4.60962">
        <ele>499.5</ele>
        <time>2015-10-25T10:44:03.058Z</time>
      </trkpt>
      <trkpt lat="46.01396" lon="4.6096">
        <ele>498.700012207</ele>
        <time>2015-10-25T10:44:03.96Z</time>
      </trkpt>
      <trkpt lat="46.01396" lon="4.6096">
        <ele>498.700012207</ele>
        <time>2015-10-25T10:44:03.993Z</time>
      </trkpt>
      <trkpt lat="46.01386" lon="4.60957">
        <ele>498.100006104</ele>
        <time>2015-10-25T10:44:04.957Z</time>
      </trkpt>
      <trkpt lat="46.01386" lon="4.60957">
        <ele>498.100006104</ele>
        <time>2015-10-25T10:44:05.006Z</time>
      </trkpt>
      <trkpt lat="46.01376" lon="4.60953">
        <ele>496.799987793</ele>
        <time>2015-10-25T10:44:05.961Z</time>
      </trkpt>
      <trkpt lat="46.01376" lon="4.60953">
        <ele>496.799987793</ele>
        <time>2015-10-25T10:44:06.001Z</time>
      </trkpt>
      <trkpt lat="46.01366" lon="4.6095">
        <ele>495.899993896</ele>
        <time>2015-10-25T10:44:06.965Z</time>
      </trkpt>
      <trkpt lat="46.01366" lon="4.6095">
        <ele>495.899993896</ele>
        <time>2015-10-25T10:44:07.037Z</time>
      </trkpt>
      <trkpt lat="46.01357" lon="4.60949">
        <ele>494.799987793</ele>
        <time>2015-10-25T10:44:07.957Z</time>
      </trkpt>
      <trkpt lat="46.01357" lon="4.60949">
        <ele>494.799987793</ele>
        <time>2015-10-25T10:44:08.042Z</time>
      </trkpt>
      <trkpt lat="46.01347" lon="4.60949">
        <ele>493.399993896</ele>
        <time>2015-10-25T10:44:08.954Z</time>
      </trkpt>
      <trkpt lat="46.01347" lon="4.60949">
        <ele>493.399993896</ele>
        <time>2015-10-25T10:44:08.982Z</time>
      </trkpt>
      <trkpt lat="46.01336" lon="4.60949">
        <ele>492.399993896</ele>
        <time>2015-10-25T10:44:09.956Z</time>
      </trkpt>
      <trkpt lat="46.01336" lon="4.60949">
        <ele>492.399993896</ele>
        <time>2015-10-25T10:44:09.996Z</time>
      </trkpt>
      <trkpt lat="46.01325" lon="4.60949">
        <ele>491</ele>
        <time>2015-10-25T10:44:10.953Z</time>
      </trkpt>
      <trkpt lat="46.01325" lon="4.60949">
        <ele>491</ele>
        <time>2015-10-25T10:44:10.982Z</time>
      </trkpt>
      <trkpt lat="46.01314" lon="4.6095">
        <ele>489.700012207</ele>
        <time>2015-10-25T10:44:11.954Z</time>
      </trkpt>
      <trkpt lat="46.01314" lon="4.6095">
        <ele>489.700012207</ele>
        <time>2015-10-25T10:44:11.983Z</time>
      </trkpt>
      <trkpt lat="46.01304" lon="4.60949">
        <ele>487.899993896</ele>
        <time>2015-10-25T10:44:12.991Z</time>
      </trkpt>
      <trkpt lat="46.01304" lon="4.60949">
        <ele>487.899993896</ele>
        <time>2015-10-25T10:44:13.051Z</time>
      </trkpt>
      <trkpt lat="46.01293" lon="4.60948">
        <ele>486.700012207</ele>
        <time>2015-10-25T10:44:13.968Z</time>
      </trkpt>
      <trkpt lat="46.01293" lon="4.60948">
        <ele>486.700012207</ele>
        <time>2015-10-25T10:44:14.026Z</time>
      </trkpt>
      <trkpt lat="46.01283" lon="4.60944">
        <ele>485.100006104</ele>
        <time>2015-10-25T10:44:14.953Z</time>
      </trkpt>
      <trkpt lat="46.01283" lon="4.60944">
        <ele>485.100006104</ele>
        <time>2015-10-25T10:44:14.981Z</time>
      </trkpt>
      <trkpt lat="46.01272" lon="4.60937">
        <ele>483.799987793</ele>
        <time>2015-10-25T10:44:15.956Z</time>
      </trkpt>
      <trkpt lat="46.01272" lon="4.60937">
        <ele>483.799987793</ele>
        <time>2015-10-25T10:44:15.984Z</time>
      </trkpt>
      <trkpt lat="46.01262" lon="4.6093">
        <ele>482.5</ele>
        <time>2015-10-25T10:44:16.954Z</time>
      </trkpt>
      <trkpt lat="46.01262" lon="4.6093">
        <ele>482.5</ele>
        <time>2015-10-25T10:44:17.039Z</time>
      </trkpt>
      <trkpt lat="46.01251" lon="4.60922">
        <ele>481.100006104</ele>
        <time>2015-10-25T10:44:17.958Z</time>
      </trkpt>
      <trkpt lat="46.01251" lon="4.60922">
        <ele>481.100006104</ele>
        <time>2015-10-25T10:44:18.025Z</time>
      </trkpt>
      <trkpt lat="46.01241" lon="4.60914">
        <ele>479.700012207</ele>
        <time>2015-10-25T10:44:18.957Z</time>
      </trkpt>
      <trkpt lat="46.01241" lon="4.60914">
        <ele>479.700012207</ele>
        <time>2015-10-25T10:44:19.024Z</time>
      </trkpt>
      <trkpt lat="46.01231" lon="4.60906">
        <ele>478.5</ele>
        <time>2015-10-25T10:44:19.952Z</time>
      </trkpt>
      <trkpt lat="46.01231" lon="4.60906">
        <ele>478.5</ele>
        <time>2015-10-25T10:44:20.014Z</time>
      </trkpt>
      <trkpt lat="46.01221" lon="4.60899">
        <ele>477.200012207</ele>
        <time>2015-10-25T10:44:20.979Z</time>
      </trkpt>
      <trkpt lat="46.01221" lon="4.60899">
        <ele>477.200012207</ele>
        <time>2015-10-25T10:44:21.032Z</time>
      </trkpt>
      <trkpt lat="46.01211" lon="4.60891">
        <ele>476.200012207</ele>
        <time>2015-10-25T10:44:21.955Z</time>
      </trkpt>
      <trkpt lat="46.01211" lon="4.60891">
        <ele>476.200012207</ele>
        <time>2015-10-25T10:44:22.037Z</time>
      </trkpt>
      <trkpt lat="46.01202" lon="4.60884">
        <ele>474.899993896</ele>
        <time>2015-10-25T10:44:22.957Z</time>
      </trkpt>
      <trkpt lat="46.01202" lon="4.60884">
        <ele>474.899993896</ele>
        <time>2015-10-25T10:44:22.984Z</time>
      </trkpt>
      <trkpt lat="46.01191" lon="4.60877">
        <ele>473.299987793</ele>
        <time>2015-10-25T10:44:23.958Z</time>
      </trkpt>
      <trkpt lat="46.01191" lon="4.60877">
        <ele>473.299987793</ele>
        <time>2015-10-25T10:44:24.013Z</time>
      </trkpt>
      <trkpt lat="46.01181" lon="4.60869">
        <ele>472</ele>
        <time>2015-10-25T10:44:24.957Z</time>
      </trkpt>
      <trkpt lat="46.01181" lon="4.60869">
        <ele>472</ele>
        <time>2015-10-25T10:44:25.008Z</time>
      </trkpt>
      <trkpt lat="46.01171" lon="4.60861">
        <ele>470.399993896</ele>
        <time>2015-10-25T10:44:25.952Z</time>
      </trkpt>
      <trkpt lat="46.01171" lon="4.60861">
        <ele>470.399993896</ele>
        <time>2015-10-25T10:44:26.005Z</time>
      </trkpt>
      <trkpt lat="46.01161" lon="4.60852">
        <ele>469.399993896</ele>
        <time>2015-10-25T10:44:26.954Z</time>
      </trkpt>
      <trkpt lat="46.01161" lon="4.60852">
        <ele>469.399993896</ele>
        <time>2015-10-25T10:44:27.022Z</time>
      </trkpt>
      <trkpt lat="46.01153" lon="4.60842">
        <ele>468.5</ele>
        <time>2015-10-25T10:44:27.962Z</time>
      </trkpt>
      <trkpt lat="46.01153" lon="4.60842">
        <ele>468.5</ele>
        <time>2015-10-25T10:44:27.989Z</time>
      </trkpt>
      <trkpt lat="46.01144" lon="4.60831">
        <ele>467.5</ele>
        <time>2015-10-25T10:44:28.958Z</time>
      </trkpt>
      <trkpt lat="46.01144" lon="4.60831">
        <ele>467.5</ele>
        <time>2015-10-25T10:44:29.017Z</time>
      </trkpt>
      <trkpt lat="46.01136" lon="4.60819">
        <ele>466.299987793</ele>
        <time>2015-10-25T10:44:29.973Z</time>
      </trkpt>
      <trkpt lat="46.01136" lon="4.60819">
        <ele>466.299987793</ele>
        <time>2015-10-25T10:44:30.003Z</time>
      </trkpt>
      <trkpt lat="46.01128" lon="4.60807">
        <ele>465.5</ele>
        <time>2015-10-25T10:44:30.953Z</time>
      </trkpt>
      <trkpt lat="46.01128" lon="4.60807">
        <ele>465.5</ele>
        <time>2015-10-25T10:44:30.986Z</time>
      </trkpt>
      <trkpt lat="46.01121" lon="4.60796">
        <ele>464.5</ele>
        <time>2015-10-25T10:44:31.953Z</time>
      </trkpt>
      <trkpt lat="46.01121" lon="4.60796">
        <ele>464.5</ele>
        <time>2015-10-25T10:44:31.982Z</time>
      </trkpt>
      <trkpt lat="46.01114" lon="4.60785">
        <ele>463.600006104</ele>
        <time>2015-10-25T10:44:32.957Z</time>
      </trkpt>
      <trkpt lat="46.01114" lon="4.60785">
        <ele>463.600006104</ele>
        <time>2015-10-25T10:44:33.008Z</time>
      </trkpt>
      <trkpt lat="46.01108" lon="4.60774">
        <ele>462.600006104</ele>
        <time>2015-10-25T10:44:33.96Z</time>
      </trkpt>
      <trkpt lat="46.01103" lon="4.60764">
        <ele>461.700012207</ele>
        <time>2015-10-25T10:44:34.998Z</time>
      </trkpt>
      <trkpt lat="46.01098" lon="4.60753">
        <ele>460.700012207</ele>
        <time>2015-10-25T10:44:35.955Z</time>
      </trkpt>
      <trkpt lat="46.01095" lon="4.60741">
        <ele>459.700012207</ele>
        <time>2015-10-25T10:44:36.994Z</time>
      </trkpt>
      <trkpt lat="46.01093" lon="4.60729">
        <ele>458.799987793</ele>
        <time>2015-10-25T10:44:37.953Z</time>
      </trkpt>
      <trkpt lat="46.01092" lon="4.60717">
        <ele>458.100006104</ele>
        <time>2015-10-25T10:44:38.981Z</time>
      </trkpt>
      <trkpt lat="46.0109" lon="4.60706">
        <ele>457.200012207</ele>
        <time>2015-10-25T10:44:39.957Z</time>
      </trkpt>
      <trkpt lat="46.01089" lon="4.60695">
        <ele>456.600006104</ele>
        <time>2015-10-25T10:44:40.981Z</time>
      </trkpt>
      <trkpt lat="46.01088" lon="4.60684">
        <ele>455.799987793</ele>
        <time>2015-10-25T10:44:41.954Z</time>
      </trkpt>
      <trkpt lat="46.01089" lon="4.60674">
        <ele>455.100006104</ele>
        <time>2015-10-25T10:44:42.981Z</time>
      </trkpt>
      <trkpt lat="46.01091" lon="4.60665">
        <ele>454.600006104</ele>
        <time>2015-10-25T10:44:43.957Z</time>
      </trkpt>
      <trkpt lat="46.01096" lon="4.60657">
        <ele>454.399993896</ele>
        <time>2015-10-25T10:44:44.981Z</time>
      </trkpt>
      <trkpt lat="46.01103" lon="4.60651">
        <ele>453.200012207</ele>
        <time>2015-10-25T10:44:45.958Z</time>
      </trkpt>
      <trkpt lat="46.0111" lon="4.60646">
        <ele>452.700012207</ele>
        <time>2015-10-25T10:44:47.008Z</time>
      </trkpt>
      <trkpt lat="46.01119" lon="4.60644">
        <ele>451.700012207</ele>
        <time>2015-10-25T10:44:47.959Z</time>
      </trkpt>
      <trkpt lat="46.01119" lon="4.60644">
        <ele>451.700012207</ele>
        <time>2015-10-25T10:44:47.987Z</time>
      </trkpt>
      <trkpt lat="46.01129" lon="4.60643">
        <ele>451.5</ele>
        <time>2015-10-25T10:44:48.991Z</time>
      </trkpt>
      <trkpt lat="46.01129" lon="4.60643">
        <ele>451.5</ele>
        <time>2015-10-25T10:44:49.07Z</time>
      </trkpt>
      <trkpt lat="46.01138" lon="4.60642">
        <ele>451.5</ele>
        <time>2015-10-25T10:44:49.957Z</time>
      </trkpt>
      <trkpt lat="46.01138" lon="4.60642">
        <ele>451.5</ele>
        <time>2015-10-25T10:44:49.995Z</time>
      </trkpt>
      <trkpt lat="46.01147" lon="4.60641">
        <ele>451</ele>
        <time>2015-10-25T10:44:50.974Z</time>
      </trkpt>
      <trkpt lat="46.01156" lon="4.6064">
        <ele>450.5</ele>
        <time>2015-10-25T10:44:52.064Z</time>
      </trkpt>
      <trkpt lat="46.01164" lon="4.60638">
        <ele>450.100006104</ele>
        <time>2015-10-25T10:44:52.957Z</time>
      </trkpt>
      <trkpt lat="46.01172" lon="4.60636">
        <ele>450</ele>
        <time>2015-10-25T10:44:53.987Z</time>
      </trkpt>
      <trkpt lat="46.0118" lon="4.60631">
        <ele>449.799987793</ele>
        <time>2015-10-25T10:44:54.958Z</time>
      </trkpt>
      <trkpt lat="46.01187" lon="4.60625">
        <ele>449.100006104</ele>
        <time>2015-10-25T10:44:55.988Z</time>
      </trkpt>
      <trkpt lat="46.01193" lon="4.60616">
        <ele>448.399993896</ele>
        <time>2015-10-25T10:44:56.957Z</time>
      </trkpt>
      <trkpt lat="46.01197" lon="4.60607">
        <ele>448.399993896</ele>
        <time>2015-10-25T10:44:57.983Z</time>
      </trkpt>
      <trkpt lat="46.01201" lon="4.60597">
        <ele>448.299987793</ele>
        <time>2015-10-25T10:44:58.954Z</time>
      </trkpt>
      <trkpt lat="46.01204" lon="4.60588">
        <ele>447.899993896</ele>
        <time>2015-10-25T10:44:59.985Z</time>
      </trkpt>
      <trkpt lat="46.01208" lon="4.60578">
        <ele>447.600006104</ele>
        <time>2015-10-25T10:45:00.953Z</time>
      </trkpt>
      <trkpt lat="46.01211" lon="4.60568">
        <ele>447.200012207</ele>
        <time>2015-10-25T10:45:02.034Z</time>
      </trkpt>
      <trkpt lat="46.01213" lon="4.60559">
        <ele>446.899993896</ele>
        <time>2015-10-25T10:45:02.957Z</time>
      </trkpt>
      <trkpt lat="46.01216" lon="4.6055">
        <ele>446.600006104</ele>
        <time>2015-10-25T10:45:03.987Z</time>
      </trkpt>
      <trkpt lat="46.01219" lon="4.60541">
        <ele>446.399993896</ele>
        <time>2015-10-25T10:45:04.954Z</time>
      </trkpt>
      <trkpt lat="46.01221" lon="4.60532">
        <ele>446.100006104</ele>
        <time>2015-10-25T10:45:05.985Z</time>
      </trkpt>
      <trkpt lat="46.01224" lon="4.60523">
        <ele>445.899993896</ele>
        <time>2015-10-25T10:45:06.971Z</time>
      </trkpt>
      <trkpt lat="46.01226" lon="4.60514">
        <ele>445.5</ele>
        <time>2015-10-25T10:45:07.984Z</time>
      </trkpt>
      <trkpt lat="46.01227" lon="4.60505">
        <ele>445.200012207</ele>
        <time>2015-10-25T10:45:08.957Z</time>
      </trkpt>
      <trkpt lat="46.01225" lon="4.60496">
        <ele>445.299987793</ele>
        <time>2015-10-25T10:45:09.987Z</time>
      </trkpt>
      <trkpt lat="46.01221" lon="4.60487">
        <ele>444.899993896</ele>
        <time>2015-10-25T10:45:10.953Z</time>
      </trkpt>
      <trkpt lat="46.01216" lon="4.60479">
        <ele>444.5</ele>
        <time>2015-10-25T10:45:11.982Z</time>
      </trkpt>
      <trkpt lat="46.01211" lon="4.6047">
        <ele>443.899993896</ele>
        <time>2015-10-25T10:45:12.954Z</time>
      </trkpt>
      <trkpt lat="46.01205" lon="4.60461">
        <ele>443.5</ele>
        <time>2015-10-25T10:45:14.018Z</time>
      </trkpt>
      <trkpt lat="46.01199" lon="4.60452">
        <ele>443</ele>
        <time>2015-10-25T10:45:14.957Z</time>
      </trkpt>
      <trkpt lat="46.01199" lon="4.60452">
        <ele>443</ele>
        <time>2015-10-25T10:45:15.007Z</time>
      </trkpt>
      <trkpt lat="46.01193" lon="4.60442">
        <ele>442.5</ele>
        <time>2015-10-25T10:45:15.954Z</time>
      </trkpt>
      <trkpt lat="46.01193" lon="4.60442">
        <ele>442.5</ele>
        <time>2015-10-25T10:45:15.984Z</time>
      </trkpt>
      <trkpt lat="46.01187" lon="4.60431">
        <ele>441.899993896</ele>
        <time>2015-10-25T10:45:16.952Z</time>
      </trkpt>
      <trkpt lat="46.01187" lon="4.60431">
        <ele>441.899993896</ele>
        <time>2015-10-25T10:45:16.996Z</time>
      </trkpt>
      <trkpt lat="46.01181" lon="4.60419">
        <ele>441.200012207</ele>
        <time>2015-10-25T10:45:17.955Z</time>
      </trkpt>
      <trkpt lat="46.01181" lon="4.60419">
        <ele>441.200012207</ele>
        <time>2015-10-25T10:45:18.002Z</time>
      </trkpt>
      <trkpt lat="46.01176" lon="4.60406">
        <ele>440.600006104</ele>
        <time>2015-10-25T10:45:18.953Z</time>
      </trkpt>
      <trkpt lat="46.01176" lon="4.60406">
        <ele>440.600006104</ele>
        <time>2015-10-25T10:45:19.008Z</time>
      </trkpt>
      <trkpt lat="46.01171" lon="4.60394">
        <ele>439.799987793</ele>
        <time>2015-10-25T10:45:19.954Z</time>
      </trkpt>
      <trkpt lat="46.01171" lon="4.60394">
        <ele>439.799987793</ele>
        <time>2015-10-25T10:45:20.012Z</time>
      </trkpt>
      <trkpt lat="46.01165" lon="4.6038">
        <ele>438.799987793</ele>
        <time>2015-10-25T10:45:20.955Z</time>
      </trkpt>
      <trkpt lat="46.01165" lon="4.6038">
        <ele>438.799987793</ele>
        <time>2015-10-25T10:45:20.989Z</time>
      </trkpt>
      <trkpt lat="46.01159" lon="4.60367">
        <ele>437.899993896</ele>
        <time>2015-10-25T10:45:22.014Z</time>
      </trkpt>
      <trkpt lat="46.01159" lon="4.60367">
        <ele>437.899993896</ele>
        <time>2015-10-25T10:45:22.093Z</time>
      </trkpt>
      <trkpt lat="46.01153" lon="4.60354">
        <ele>437.200012207</ele>
        <time>2015-10-25T10:45:22.957Z</time>
      </trkpt>
      <trkpt lat="46.01153" lon="4.60354">
        <ele>437.200012207</ele>
        <time>2015-10-25T10:45:23.013Z</time>
      </trkpt>
      <trkpt lat="46.01147" lon="4.6034">
        <ele>436.100006104</ele>
        <time>2015-10-25T10:45:23.955Z</time>
      </trkpt>
      <trkpt lat="46.01147" lon="4.6034">
        <ele>436.100006104</ele>
        <time>2015-10-25T10:45:23.983Z</time>
      </trkpt>
      <trkpt lat="46.01141" lon="4.60327">
        <ele>435.299987793</ele>
        <time>2015-10-25T10:45:24.954Z</time>
      </trkpt>
      <trkpt lat="46.01141" lon="4.60327">
        <ele>435.299987793</ele>
        <time>2015-10-25T10:45:24.982Z</time>
      </trkpt>
      <trkpt lat="46.01135" lon="4.60313">
        <ele>434.600006104</ele>
        <time>2015-10-25T10:45:25.953Z</time>
      </trkpt>
      <trkpt lat="46.01135" lon="4.60313">
        <ele>434.600006104</ele>
        <time>2015-10-25T10:45:25.982Z</time>
      </trkpt>
      <trkpt lat="46.0113" lon="4.60299">
        <ele>433.700012207</ele>
        <time>2015-10-25T10:45:26.953Z</time>
      </trkpt>
      <trkpt lat="46.0113" lon="4.60299">
        <ele>433.700012207</ele>
        <time>2015-10-25T10:45:26.987Z</time>
      </trkpt>
      <trkpt lat="46.01124" lon="4.60286">
        <ele>432.399993896</ele>
        <time>2015-10-25T10:45:27.959Z</time>
      </trkpt>
      <trkpt lat="46.01124" lon="4.60286">
        <ele>432.399993896</ele>
        <time>2015-10-25T10:45:28.019Z</time>
      </trkpt>
      <trkpt lat="46.01118" lon="4.60274">
        <ele>431.100006104</ele>
        <time>2015-10-25T10:45:28.954Z</time>
      </trkpt>
      <trkpt lat="46.01118" lon="4.60274">
        <ele>431.100006104</ele>
        <time>2015-10-25T10:45:28.982Z</time>
      </trkpt>
      <trkpt lat="46.01111" lon="4.60263">
        <ele>430.399993896</ele>
        <time>2015-10-25T10:45:29.958Z</time>
      </trkpt>
      <trkpt lat="46.01111" lon="4.60263">
        <ele>430.399993896</ele>
        <time>2015-10-25T10:45:30.001Z</time>
      </trkpt>
      <trkpt lat="46.01104" lon="4.60251">
        <ele>429.200012207</ele>
        <time>2015-10-25T10:45:30.957Z</time>
      </trkpt>
      <trkpt lat="46.01104" lon="4.60251">
        <ele>429.200012207</ele>
        <time>2015-10-25T10:45:31.005Z</time>
      </trkpt>
      <trkpt lat="46.01099" lon="4.60238">
        <ele>428.100006104</ele>
        <time>2015-10-25T10:45:31.947Z</time>
      </trkpt>
      <trkpt lat="46.01099" lon="4.60238">
        <ele>428.100006104</ele>
        <time>2015-10-25T10:45:32.058Z</time>
      </trkpt>
      <trkpt lat="46.01093" lon="4.60225">
        <ele>427.200012207</ele>
        <time>2015-10-25T10:45:32.968Z</time>
      </trkpt>
      <trkpt lat="46.01093" lon="4.60225">
        <ele>427.200012207</ele>
        <time>2015-10-25T10:45:32.994Z</time>
      </trkpt>
      <trkpt lat="46.01088" lon="4.60211">
        <ele>425.899993896</ele>
        <time>2015-10-25T10:45:33.957Z</time>
      </trkpt>
      <trkpt lat="46.01088" lon="4.60211">
        <ele>425.899993896</ele>
        <time>2015-10-25T10:45:33.984Z</time>
      </trkpt>
      <trkpt lat="46.01083" lon="4.60197">
        <ele>425.100006104</ele>
        <time>2015-10-25T10:45:35.054Z</time>
      </trkpt>
      <trkpt lat="46.01083" lon="4.60197">
        <ele>425.100006104</ele>
        <time>2015-10-25T10:45:35.266Z</time>
      </trkpt>
      <trkpt lat="46.01078" lon="4.60184">
        <ele>424.100006104</ele>
        <time>2015-10-25T10:45:35.955Z</time>
      </trkpt>
      <trkpt lat="46.01078" lon="4.60184">
        <ele>424.100006104</ele>
        <time>2015-10-25T10:45:35.986Z</time>
      </trkpt>
      <trkpt lat="46.01072" lon="4.60171">
        <ele>422.799987793</ele>
        <time>2015-10-25T10:45:36.954Z</time>
      </trkpt>
      <trkpt lat="46.01072" lon="4.60171">
        <ele>422.799987793</ele>
        <time>2015-10-25T10:45:36.983Z</time>
      </trkpt>
      <trkpt lat="46.01066" lon="4.60159">
        <ele>422.100006104</ele>
        <time>2015-10-25T10:45:37.953Z</time>
      </trkpt>
      <trkpt lat="46.01066" lon="4.60159">
        <ele>422.100006104</ele>
        <time>2015-10-25T10:45:37.982Z</time>
      </trkpt>
      <trkpt lat="46.01059" lon="4.60148">
        <ele>421.200012207</ele>
        <time>2015-10-25T10:45:38.954Z</time>
      </trkpt>
      <trkpt lat="46.01059" lon="4.60148">
        <ele>421.200012207</ele>
        <time>2015-10-25T10:45:38.982Z</time>
      </trkpt>
      <trkpt lat="46.01052" lon="4.60138">
        <ele>420.100006104</ele>
        <time>2015-10-25T10:45:39.956Z</time>
      </trkpt>
      <trkpt lat="46.01052" lon="4.60138">
        <ele>420.100006104</ele>
        <time>2015-10-25T10:45:39.989Z</time>
      </trkpt>
      <trkpt lat="46.01044" lon="4.6013">
        <ele>418.899993896</ele>
        <time>2015-10-25T10:45:40.995Z</time>
      </trkpt>
      <trkpt lat="46.01044" lon="4.6013">
        <ele>418.899993896</ele>
        <time>2015-10-25T10:45:41.204Z</time>
      </trkpt>
      <trkpt lat="46.01035" lon="4.60122">
        <ele>417.799987793</ele>
        <time>2015-10-25T10:45:41.955Z</time>
      </trkpt>
      <trkpt lat="46.01035" lon="4.60122">
        <ele>417.799987793</ele>
        <time>2015-10-25T10:45:41.984Z</time>
      </trkpt>
      <trkpt lat="46.01026" lon="4.60114">
        <ele>416.600006104</ele>
        <time>2015-10-25T10:45:42.953Z</time>
      </trkpt>
      <trkpt lat="46.01026" lon="4.60114">
        <ele>416.600006104</ele>
        <time>2015-10-25T10:45:42.983Z</time>
      </trkpt>
      <trkpt lat="46.01016" lon="4.60106">
        <ele>415.700012207</ele>
        <time>2015-10-25T10:45:43.957Z</time>
      </trkpt>
      <trkpt lat="46.01016" lon="4.60106">
        <ele>415.700012207</ele>
        <time>2015-10-25T10:45:44.025Z</time>
      </trkpt>
      <trkpt lat="46.01008" lon="4.60097">
        <ele>414.700012207</ele>
        <time>2015-10-25T10:45:44.976Z</time>
      </trkpt>
      <trkpt lat="46.01008" lon="4.60097">
        <ele>414.700012207</ele>
        <time>2015-10-25T10:45:45.002Z</time>
      </trkpt>
      <trkpt lat="46.00999" lon="4.60088">
        <ele>413.5</ele>
        <time>2015-10-25T10:45:45.956Z</time>
      </trkpt>
      <trkpt lat="46.00999" lon="4.60088">
        <ele>413.5</ele>
        <time>2015-10-25T10:45:45.984Z</time>
      </trkpt>
      <trkpt lat="46.00991" lon="4.60078">
        <ele>412.399993896</ele>
        <time>2015-10-25T10:45:46.956Z</time>
      </trkpt>
      <trkpt lat="46.00991" lon="4.60078">
        <ele>412.399993896</ele>
        <time>2015-10-25T10:45:46.984Z</time>
      </trkpt>
      <trkpt lat="46.00983" lon="4.60069">
        <ele>411.799987793</ele>
        <time>2015-10-25T10:45:47.954Z</time>
      </trkpt>
      <trkpt lat="46.00983" lon="4.60069">
        <ele>411.799987793</ele>
        <time>2015-10-25T10:45:47.983Z</time>
      </trkpt>
      <trkpt lat="46.00975" lon="4.60061">
        <ele>410.899993896</ele>
        <time>2015-10-25T10:45:48.953Z</time>
      </trkpt>
      <trkpt lat="46.00975" lon="4.60061">
        <ele>410.899993896</ele>
        <time>2015-10-25T10:45:48.981Z</time>
      </trkpt>
      <trkpt lat="46.00967" lon="4.60052">
        <ele>410</ele>
        <time>2015-10-25T10:45:49.98Z</time>
      </trkpt>
      <trkpt lat="46.00967" lon="4.60052">
        <ele>410</ele>
        <time>2015-10-25T10:45:50.048Z</time>
      </trkpt>
      <trkpt lat="46.00959" lon="4.60043">
        <ele>409.399993896</ele>
        <time>2015-10-25T10:45:50.953Z</time>
      </trkpt>
      <trkpt lat="46.00959" lon="4.60043">
        <ele>409.399993896</ele>
        <time>2015-10-25T10:45:50.981Z</time>
      </trkpt>
      <trkpt lat="46.00952" lon="4.60033">
        <ele>408.700012207</ele>
        <time>2015-10-25T10:45:51.959Z</time>
      </trkpt>
      <trkpt lat="46.00952" lon="4.60033">
        <ele>408.700012207</ele>
        <time>2015-10-25T10:45:52.017Z</time>
      </trkpt>
      <trkpt lat="46.00945" lon="4.60022">
        <ele>407.5</ele>
        <time>2015-10-25T10:45:52.957Z</time>
      </trkpt>
      <trkpt lat="46.00945" lon="4.60022">
        <ele>407.5</ele>
        <time>2015-10-25T10:45:52.984Z</time>
      </trkpt>
      <trkpt lat="46.00939" lon="4.60011">
        <ele>406.200012207</ele>
        <time>2015-10-25T10:45:53.97Z</time>
      </trkpt>
      <trkpt lat="46.00939" lon="4.60011">
        <ele>406.200012207</ele>
        <time>2015-10-25T10:45:54.046Z</time>
      </trkpt>
      <trkpt lat="46.00933" lon="4.59999">
        <ele>405</ele>
        <time>2015-10-25T10:45:54.957Z</time>
      </trkpt>
      <trkpt lat="46.00933" lon="4.59999">
        <ele>405</ele>
        <time>2015-10-25T10:45:55.013Z</time>
      </trkpt>
      <trkpt lat="46.00928" lon="4.59987">
        <ele>404</ele>
        <time>2015-10-25T10:45:55.953Z</time>
      </trkpt>
      <trkpt lat="46.00928" lon="4.59987">
        <ele>404</ele>
        <time>2015-10-25T10:45:55.981Z</time>
      </trkpt>
      <trkpt lat="46.00922" lon="4.59976">
        <ele>402.899993896</ele>
        <time>2015-10-25T10:45:56.96Z</time>
      </trkpt>
      <trkpt lat="46.00922" lon="4.59976">
        <ele>402.899993896</ele>
        <time>2015-10-25T10:45:57.027Z</time>
      </trkpt>
      <trkpt lat="46.00915" lon="4.59966">
        <ele>401.899993896</ele>
        <time>2015-10-25T10:45:57.959Z</time>
      </trkpt>
      <trkpt lat="46.00915" lon="4.59966">
        <ele>401.899993896</ele>
        <time>2015-10-25T10:45:57.993Z</time>
      </trkpt>
      <trkpt lat="46.00908" lon="4.59956">
        <ele>401.100006104</ele>
        <time>2015-10-25T10:45:58.957Z</time>
      </trkpt>
      <trkpt lat="46.00908" lon="4.59956">
        <ele>401.100006104</ele>
        <time>2015-10-25T10:45:59.022Z</time>
      </trkpt>
      <trkpt lat="46.009" lon="4.59947">
        <ele>399.600006104</ele>
        <time>2015-10-25T10:45:59.954Z</time>
      </trkpt>
      <trkpt lat="46.009" lon="4.59947">
        <ele>399.600006104</ele>
        <time>2015-10-25T10:45:59.983Z</time>
      </trkpt>
      <trkpt lat="46.00891" lon="4.59939">
        <ele>398.200012207</ele>
        <time>2015-10-25T10:46:00.951Z</time>
      </trkpt>
      <trkpt lat="46.00891" lon="4.59939">
        <ele>398.200012207</ele>
        <time>2015-10-25T10:46:01.125Z</time>
      </trkpt>
      <trkpt lat="46.00883" lon="4.59931">
        <ele>397.200012207</ele>
        <time>2015-10-25T10:46:01.957Z</time>
      </trkpt>
      <trkpt lat="46.00883" lon="4.59931">
        <ele>397.200012207</ele>
        <time>2015-10-25T10:46:01.99Z</time>
      </trkpt>
      <trkpt lat="46.00874" lon="4.59925">
        <ele>395.799987793</ele>
        <time>2015-10-25T10:46:02.956Z</time>
      </trkpt>
      <trkpt lat="46.00874" lon="4.59925">
        <ele>395.799987793</ele>
        <time>2015-10-25T10:46:02.984Z</time>
      </trkpt>
      <trkpt lat="46.00864" lon="4.59919">
        <ele>394.899993896</ele>
        <time>2015-10-25T10:46:03.955Z</time>
      </trkpt>
      <trkpt lat="46.00864" lon="4.59919">
        <ele>394.899993896</ele>
        <time>2015-10-25T10:46:03.999Z</time>
      </trkpt>
      <trkpt lat="46.00855" lon="4.59915">
        <ele>393.700012207</ele>
        <time>2015-10-25T10:46:04.957Z</time>
      </trkpt>
      <trkpt lat="46.00855" lon="4.59915">
        <ele>393.700012207</ele>
        <time>2015-10-25T10:46:04.988Z</time>
      </trkpt>
      <trkpt lat="46.00844" lon="4.59911">
        <ele>392.600006104</ele>
        <time>2015-10-25T10:46:05.954Z</time>
      </trkpt>
      <trkpt lat="46.00844" lon="4.59911">
        <ele>392.600006104</ele>
        <time>2015-10-25T10:46:05.982Z</time>
      </trkpt>
      <trkpt lat="46.00834" lon="4.59908">
        <ele>391.5</ele>
        <time>2015-10-25T10:46:06.957Z</time>
      </trkpt>
      <trkpt lat="46.00834" lon="4.59908">
        <ele>391.5</ele>
        <time>2015-10-25T10:46:07.005Z</time>
      </trkpt>
      <trkpt lat="46.00824" lon="4.59906">
        <ele>390.399993896</ele>
        <time>2015-10-25T10:46:07.953Z</time>
      </trkpt>
      <trkpt lat="46.00824" lon="4.59906">
        <ele>390.399993896</ele>
        <time>2015-10-25T10:46:07.981Z</time>
      </trkpt>
      <trkpt lat="46.00815" lon="4.59905">
        <ele>389.299987793</ele>
        <time>2015-10-25T10:46:08.953Z</time>
      </trkpt>
      <trkpt lat="46.00806" lon="4.59905">
        <ele>388.200012207</ele>
        <time>2015-10-25T10:46:09.997Z</time>
      </trkpt>
      <trkpt lat="46.00797" lon="4.59906">
        <ele>387.100006104</ele>
        <time>2015-10-25T10:46:10.953Z</time>
      </trkpt>
      <trkpt lat="46.0079" lon="4.59909">
        <ele>386.100006104</ele>
        <time>2015-10-25T10:46:11.984Z</time>
      </trkpt>
      <trkpt lat="46.00782" lon="4.59912">
        <ele>385</ele>
        <time>2015-10-25T10:46:12.951Z</time>
      </trkpt>
      <trkpt lat="46.00774" lon="4.59916">
        <ele>384.200012207</ele>
        <time>2015-10-25T10:46:13.983Z</time>
      </trkpt>
      <trkpt lat="46.00766" lon="4.59919">
        <ele>383.899993896</ele>
        <time>2015-10-25T10:46:14.972Z</time>
      </trkpt>
      <trkpt lat="46.00759" lon="4.59922">
        <ele>383.100006104</ele>
        <time>2015-10-25T10:46:15.983Z</time>
      </trkpt>
      <trkpt lat="46.00753" lon="4.59924">
        <ele>382.5</ele>
        <time>2015-10-25T10:46:16.953Z</time>
      </trkpt>
      <trkpt lat="46.00746" lon="4.59925">
        <ele>382.5</ele>
        <time>2015-10-25T10:46:17.985Z</time>
      </trkpt>
      <trkpt lat="46.00742" lon="4.59926">
        <ele>381.5</ele>
        <time>2015-10-25T10:46:18.953Z</time>
      </trkpt>
      <trkpt lat="46.00737" lon="4.59926">
        <ele>380.399993896</ele>
        <time>2015-10-25T10:46:19.98Z</time>
      </trkpt>
      <trkpt lat="46.00732" lon="4.59924">
        <ele>379.600006104</ele>
        <time>2015-10-25T10:46:20.953Z</time>
      </trkpt>
      <trkpt lat="46.00729" lon="4.59919">
        <ele>378.700012207</ele>
        <time>2015-10-25T10:46:21.986Z</time>
      </trkpt>
      <trkpt lat="46.00726" lon="4.59912">
        <ele>377.899993896</ele>
        <time>2015-10-25T10:46:22.96Z</time>
      </trkpt>
      <trkpt lat="46.00726" lon="4.59904">
        <ele>377.200012207</ele>
        <time>2015-10-25T10:46:23.987Z</time>
      </trkpt>
      <trkpt lat="46.00728" lon="4.59895">
        <ele>376.399993896</ele>
        <time>2015-10-25T10:46:24.953Z</time>
      </trkpt>
      <trkpt lat="46.00731" lon="4.59887">
        <ele>375.5</ele>
        <time>2015-10-25T10:46:25.98Z</time>
      </trkpt>
      <trkpt lat="46.00736" lon="4.59878">
        <ele>374.600006104</ele>
        <time>2015-10-25T10:46:26.953Z</time>
      </trkpt>
      <trkpt lat="46.00741" lon="4.59869">
        <ele>374.299987793</ele>
        <time>2015-10-25T10:46:27.986Z</time>
      </trkpt>
      <trkpt lat="46.00746" lon="4.5986">
        <ele>373.5</ele>
        <time>2015-10-25T10:46:28.954Z</time>
      </trkpt>
      <trkpt lat="46.00751" lon="4.5985">
        <ele>372.600006104</ele>
        <time>2015-10-25T10:46:29.981Z</time>
      </trkpt>
      <trkpt lat="46.00757" lon="4.5984">
        <ele>371.799987793</ele>
        <time>2015-10-25T10:46:30.956Z</time>
      </trkpt>
      <trkpt lat="46.00762" lon="4.5983">
        <ele>371.100006104</ele>
        <time>2015-10-25T10:46:31.979Z</time>
      </trkpt>
      <trkpt lat="46.00768" lon="4.59821">
        <ele>370.700012207</ele>
        <time>2015-10-25T10:46:32.952Z</time>
      </trkpt>
      <trkpt lat="46.00773" lon="4.59812">
        <ele>370</ele>
        <time>2015-10-25T10:46:33.983Z</time>
      </trkpt>
      <trkpt lat="46.00779" lon="4.59803">
        <ele>369.200012207</ele>
        <time>2015-10-25T10:46:34.956Z</time>
      </trkpt>
      <trkpt lat="46.00785" lon="4.59795">
        <ele>368.600006104</ele>
        <time>2015-10-25T10:46:35.998Z</time>
      </trkpt>
      <trkpt lat="46.00792" lon="4.59787">
        <ele>367.799987793</ele>
        <time>2015-10-25T10:46:36.956Z</time>
      </trkpt>
      <trkpt lat="46.00799" lon="4.59779">
        <ele>367.200012207</ele>
        <time>2015-10-25T10:46:38.004Z</time>
      </trkpt>
      <trkpt lat="46.00806" lon="4.59772">
        <ele>366.399993896</ele>
        <time>2015-10-25T10:46:38.956Z</time>
      </trkpt>
      <trkpt lat="46.00813" lon="4.59765">
        <ele>365.700012207</ele>
        <time>2015-10-25T10:46:39.986Z</time>
      </trkpt>
      <trkpt lat="46.0082" lon="4.59758">
        <ele>365.299987793</ele>
        <time>2015-10-25T10:46:41.024Z</time>
      </trkpt>
      <trkpt lat="46.00826" lon="4.59752">
        <ele>364.799987793</ele>
        <time>2015-10-25T10:46:41.984Z</time>
      </trkpt>
      <trkpt lat="46.0083" lon="4.59744">
        <ele>364.5</ele>
        <time>2015-10-25T10:46:42.957Z</time>
      </trkpt>
      <trkpt lat="46.00833" lon="4.59736">
        <ele>363.799987793</ele>
        <time>2015-10-25T10:46:43.98Z</time>
      </trkpt>
      <trkpt lat="46.00834" lon="4.59727">
        <ele>363.200012207</ele>
        <time>2015-10-25T10:46:44.956Z</time>
      </trkpt>
      <trkpt lat="46.0083" lon="4.5972">
        <ele>363.299987793</ele>
        <time>2015-10-25T10:46:45.986Z</time>
      </trkpt>
      <trkpt lat="46.00827" lon="4.59715">
        <ele>363.100006104</ele>
        <time>2015-10-25T10:46:46.959Z</time>
      </trkpt>
      <trkpt lat="46.00822" lon="4.59713">
        <ele>362.200012207</ele>
        <time>2015-10-25T10:46:47.981Z</time>
      </trkpt>
      <trkpt lat="46.00816" lon="4.59712">
        <ele>361.600006104</ele>
        <time>2015-10-25T10:46:48.96Z</time>
      </trkpt>
      <trkpt lat="46.0081" lon="4.59713">
        <ele>361</ele>
        <time>2015-10-25T10:46:49.98Z</time>
      </trkpt>
      <trkpt lat="46.00804" lon="4.59715">
        <ele>360.600006104</ele>
        <time>2015-10-25T10:46:50.956Z</time>
      </trkpt>
      <trkpt lat="46.00797" lon="4.59716">
        <ele>360.200012207</ele>
        <time>2015-10-25T10:46:51.985Z</time>
      </trkpt>
      <trkpt lat="46.0079" lon="4.59717">
        <ele>359.600006104</ele>
        <time>2015-10-25T10:46:52.951Z</time>
      </trkpt>
      <trkpt lat="46.00783" lon="4.59718">
        <ele>359.200012207</ele>
        <time>2015-10-25T10:46:53.98Z</time>
      </trkpt>
      <trkpt lat="46.00775" lon="4.59721">
        <ele>358.5</ele>
        <time>2015-10-25T10:46:54.953Z</time>
      </trkpt>
      <trkpt lat="46.00768" lon="4.59723">
        <ele>358</ele>
        <time>2015-10-25T10:46:55.983Z</time>
      </trkpt>
      <trkpt lat="46.0076" lon="4.59727">
        <ele>357.5</ele>
        <time>2015-10-25T10:46:56.973Z</time>
      </trkpt>
      <trkpt lat="46.00752" lon="4.59732">
        <ele>357.100006104</ele>
        <time>2015-10-25T10:46:57.982Z</time>
      </trkpt>
      <trkpt lat="46.00745" lon="4.59738">
        <ele>356</ele>
        <time>2015-10-25T10:46:58.952Z</time>
      </trkpt>
      <trkpt lat="46.00745" lon="4.59738">
        <ele>356</ele>
        <time>2015-10-25T10:46:58.98Z</time>
      </trkpt>
      <trkpt lat="46.00737" lon="4.59744">
        <ele>355</ele>
        <time>2015-10-25T10:46:59.954Z</time>
      </trkpt>
      <trkpt lat="46.00737" lon="4.59744">
        <ele>355</ele>
        <time>2015-10-25T10:46:59.982Z</time>
      </trkpt>
      <trkpt lat="46.00729" lon="4.59751">
        <ele>354.600006104</ele>
        <time>2015-10-25T10:47:00.946Z</time>
      </trkpt>
      <trkpt lat="46.00729" lon="4.59751">
        <ele>354.600006104</ele>
        <time>2015-10-25T10:47:01.073Z</time>
      </trkpt>
      <trkpt lat="46.00721" lon="4.59757">
        <ele>354</ele>
        <time>2015-10-25T10:47:01.953Z</time>
      </trkpt>
      <trkpt lat="46.00721" lon="4.59757">
        <ele>354</ele>
        <time>2015-10-25T10:47:01.98Z</time>
      </trkpt>
      <trkpt lat="46.00713" lon="4.59764">
        <ele>353.399993896</ele>
        <time>2015-10-25T10:47:02.956Z</time>
      </trkpt>
      <trkpt lat="46.00705" lon="4.5977">
        <ele>352.899993896</ele>
        <time>2015-10-25T10:47:03.982Z</time>
      </trkpt>
      <trkpt lat="46.00697" lon="4.59776">
        <ele>352.299987793</ele>
        <time>2015-10-25T10:47:04.952Z</time>
      </trkpt>
      <trkpt lat="46.00689" lon="4.59781">
        <ele>351.799987793</ele>
        <time>2015-10-25T10:47:05.986Z</time>
      </trkpt>
      <trkpt lat="46.00683" lon="4.59786">
        <ele>351.200012207</ele>
        <time>2015-10-25T10:47:06.956Z</time>
      </trkpt>
      <trkpt lat="46.00676" lon="4.59791">
        <ele>350.700012207</ele>
        <time>2015-10-25T10:47:08.021Z</time>
      </trkpt>
      <trkpt lat="46.0067" lon="4.59796">
        <ele>350.200012207</ele>
        <time>2015-10-25T10:47:08.954Z</time>
      </trkpt>
      <trkpt lat="46.00665" lon="4.59801">
        <ele>350</ele>
        <time>2015-10-25T10:47:09.986Z</time>
      </trkpt>
      <trkpt lat="46.0066" lon="4.59805">
        <ele>349.700012207</ele>
        <time>2015-10-25T10:47:10.956Z</time>
      </trkpt>
      <trkpt lat="46.00654" lon="4.59809">
        <ele>348.5</ele>
        <time>2015-10-25T10:47:11.981Z</time>
      </trkpt>
      <trkpt lat="46.00649" lon="4.59812">
        <ele>347.5</ele>
        <time>2015-10-25T10:47:12.953Z</time>
      </trkpt>
      <trkpt lat="46.00645" lon="4.59814">
        <ele>346.700012207</ele>
        <time>2015-10-25T10:47:13.979Z</time>
      </trkpt>
      <trkpt lat="46.0064" lon="4.59815">
        <ele>346.100006104</ele>
        <time>2015-10-25T10:47:14.956Z</time>
      </trkpt>
      <trkpt lat="46.00633" lon="4.59814">
        <ele>345</ele>
        <time>2015-10-25T10:47:16.983Z</time>
      </trkpt>
      <trkpt lat="46.0063" lon="4.59812">
        <ele>344.200012207</ele>
        <time>2015-10-25T10:47:17.967Z</time>
      </trkpt>
      <trkpt lat="46.00622" lon="4.59809">
        <ele>342.600006104</ele>
        <time>2015-10-25T10:47:20.983Z</time>
      </trkpt>
      <trkpt lat="46.0062" lon="4.59811">
        <ele>342.399993896</ele>
        <time>2015-10-25T10:47:21.954Z</time>
      </trkpt>
      <trkpt lat="46.00616" lon="4.59819">
        <ele>341.700012207</ele>
        <time>2015-10-25T10:47:23.984Z</time>
      </trkpt>
      <trkpt lat="46.00615" lon="4.59825">
        <ele>341.200012207</ele>
        <time>2015-10-25T10:47:24.956Z</time>
      </trkpt>
      <trkpt lat="46.00614" lon="4.59838">
        <ele>340.5</ele>
        <time>2015-10-25T10:47:26.987Z</time>
      </trkpt>
      <trkpt lat="46.00614" lon="4.59845">
        <ele>340.200012207</ele>
        <time>2015-10-25T10:47:27.956Z</time>
      </trkpt>
      <trkpt lat="46.00614" lon="4.59852">
        <ele>339.799987793</ele>
        <time>2015-10-25T10:47:28.979Z</time>
      </trkpt>
      <trkpt lat="46.00613" lon="4.59859">
        <ele>339.600006104</ele>
        <time>2015-10-25T10:47:29.954Z</time>
      </trkpt>
      <trkpt lat="46.0061" lon="4.5987">
        <ele>339.200012207</ele>
        <time>2015-10-25T10:47:31.983Z</time>
      </trkpt>
      <trkpt lat="46.00606" lon="4.59873">
        <ele>339.200012207</ele>
        <time>2015-10-25T10:47:32.956Z</time>
      </trkpt>
      <trkpt lat="46.00601" lon="4.59874">
        <ele>339</ele>
        <time>2015-10-25T10:47:33.993Z</time>
      </trkpt>
      <trkpt lat="46.00596" lon="4.59874">
        <ele>338.600006104</ele>
        <time>2015-10-25T10:47:34.956Z</time>
      </trkpt>
      <trkpt lat="46.0059" lon="4.59874">
        <ele>338.299987793</ele>
        <time>2015-10-25T10:47:35.989Z</time>
      </trkpt>
      <trkpt lat="46.00584" lon="4.59875">
        <ele>338</ele>
        <time>2015-10-25T10:47:36.943Z</time>
      </trkpt>
      <trkpt lat="46.00577" lon="4.59876">
        <ele>337.700012207</ele>
        <time>2015-10-25T10:47:37.983Z</time>
      </trkpt>
      <trkpt lat="46.00572" lon="4.59878">
        <ele>337.600006104</ele>
        <time>2015-10-25T10:47:38.952Z</time>
      </trkpt>
      <trkpt lat="46.00566" lon="4.5988">
        <ele>337.399993896</ele>
        <time>2015-10-25T10:47:39.986Z</time>
      </trkpt>
      <trkpt lat="46.00559" lon="4.59884">
        <ele>336.899993896</ele>
        <time>2015-10-25T10:47:40.954Z</time>
      </trkpt>
      <trkpt lat="46.00553" lon="4.59888">
        <ele>336.600006104</ele>
        <time>2015-10-25T10:47:41.98Z</time>
      </trkpt>
      <trkpt lat="46.00547" lon="4.59893">
        <ele>336.399993896</ele>
        <time>2015-10-25T10:47:42.956Z</time>
      </trkpt>
      <trkpt lat="46.00541" lon="4.599">
        <ele>335.899993896</ele>
        <time>2015-10-25T10:47:43.993Z</time>
      </trkpt>
      <trkpt lat="46.00537" lon="4.59906">
        <ele>335.5</ele>
        <time>2015-10-25T10:47:44.956Z</time>
      </trkpt>
      <trkpt lat="46.00532" lon="4.59913">
        <ele>335.399993896</ele>
        <time>2015-10-25T10:47:45.982Z</time>
      </trkpt>
      <trkpt lat="46.00528" lon="4.5992">
        <ele>335.299987793</ele>
        <time>2015-10-25T10:47:46.96Z</time>
      </trkpt>
      <trkpt lat="46.00525" lon="4.59926">
        <ele>335.299987793</ele>
        <time>2015-10-25T10:47:47.984Z</time>
      </trkpt>
      <trkpt lat="46.0052" lon="4.59932">
        <ele>335.100006104</ele>
        <time>2015-10-25T10:47:48.952Z</time>
      </trkpt>
      <trkpt lat="46.00517" lon="4.59938">
        <ele>335.200012207</ele>
        <time>2015-10-25T10:47:49.983Z</time>
      </trkpt>
      <trkpt lat="46.00515" lon="4.59945">
        <ele>335.299987793</ele>
        <time>2015-10-25T10:47:50.959Z</time>
      </trkpt>
      <trkpt lat="46.00513" lon="4.59957">
        <ele>335.399993896</ele>
        <time>2015-10-25T10:47:52.983Z</time>
      </trkpt>
      <trkpt lat="46.00512" lon="4.59963">
        <ele>335.5</ele>
        <time>2015-10-25T10:47:53.954Z</time>
      </trkpt>
      <trkpt lat="46.00511" lon="4.59974">
        <ele>336</ele>
        <time>2015-10-25T10:47:55.98Z</time>
      </trkpt>
      <trkpt lat="46.0051" lon="4.59979">
        <ele>336.100006104</ele>
        <time>2015-10-25T10:47:56.956Z</time>
      </trkpt>
      <trkpt lat="46.00508" lon="4.59989">
        <ele>337.200012207</ele>
        <time>2015-10-25T10:47:58.983Z</time>
      </trkpt>
      <trkpt lat="46.00508" lon="4.59995">
        <ele>336.899993896</ele>
        <time>2015-10-25T10:47:59.955Z</time>
      </trkpt>
      <trkpt lat="46.00505" lon="4.60006">
        <ele>337.200012207</ele>
        <time>2015-10-25T10:48:01.983Z</time>
      </trkpt>
      <trkpt lat="46.00504" lon="4.60012">
        <ele>337.5</ele>
        <time>2015-10-25T10:48:02.956Z</time>
      </trkpt>
      <trkpt lat="46.00502" lon="4.60024">
        <ele>338</ele>
        <time>2015-10-25T10:48:04.983Z</time>
      </trkpt>
      <trkpt lat="46.00501" lon="4.6003">
        <ele>338.399993896</ele>
        <time>2015-10-25T10:48:05.957Z</time>
      </trkpt>
      <trkpt lat="46.005" lon="4.60041">
        <ele>338.899993896</ele>
        <time>2015-10-25T10:48:07.98Z</time>
      </trkpt>
      <trkpt lat="46.00499" lon="4.60046">
        <ele>339.100006104</ele>
        <time>2015-10-25T10:48:08.952Z</time>
      </trkpt>
      <trkpt lat="46.00497" lon="4.60056">
        <ele>339.399993896</ele>
        <time>2015-10-25T10:48:10.983Z</time>
      </trkpt>
      <trkpt lat="46.00496" lon="4.6006">
        <ele>339.799987793</ele>
        <time>2015-10-25T10:48:11.957Z</time>
      </trkpt>
      <trkpt lat="46.00493" lon="4.60068">
        <ele>340.799987793</ele>
        <time>2015-10-25T10:48:13.979Z</time>
      </trkpt>
      <trkpt lat="46.00492" lon="4.60072">
        <ele>341</ele>
        <time>2015-10-25T10:48:14.953Z</time>
      </trkpt>
      <trkpt lat="46.00489" lon="4.60081">
        <ele>341.399993896</ele>
        <time>2015-10-25T10:48:16.985Z</time>
      </trkpt>
      <trkpt lat="46.00488" lon="4.60086">
        <ele>341.399993896</ele>
        <time>2015-10-25T10:48:17.958Z</time>
      </trkpt>
      <trkpt lat="46.00485" lon="4.60094">
        <ele>341.700012207</ele>
        <time>2015-10-25T10:48:19.983Z</time>
      </trkpt>
      <trkpt lat="46.00483" lon="4.60098">
        <ele>341.600006104</ele>
        <time>2015-10-25T10:48:20.954Z</time>
      </trkpt>
      <trkpt lat="46.00479" lon="4.60107">
        <ele>341.299987793</ele>
        <time>2015-10-25T10:48:24.001Z</time>
      </trkpt>
      <trkpt lat="46.00479" lon="4.60111">
        <ele>341.5</ele>
        <time>2015-10-25T10:48:24.956Z</time>
      </trkpt>
      <trkpt lat="46.00475" lon="4.60123">
        <ele>341.700012207</ele>
        <time>2015-10-25T10:48:27.985Z</time>
      </trkpt>
      <trkpt lat="46.00474" lon="4.60127">
        <ele>341.799987793</ele>
        <time>2015-10-25T10:48:28.951Z</time>
      </trkpt>
      <trkpt lat="46.00471" lon="4.60138">
        <ele>342</ele>
        <time>2015-10-25T10:48:30.997Z</time>
      </trkpt>
      <trkpt lat="46.0047" lon="4.60143">
        <ele>341.799987793</ele>
        <time>2015-10-25T10:48:31.954Z</time>
      </trkpt>
      <trkpt lat="46.00466" lon="4.60152">
        <ele>341.299987793</ele>
        <time>2015-10-25T10:48:33.982Z</time>
      </trkpt>
      <trkpt lat="46.00464" lon="4.60158">
        <ele>341</ele>
        <time>2015-10-25T10:48:34.952Z</time>
      </trkpt>
      <trkpt lat="46.00461" lon="4.60163">
        <ele>341</ele>
        <time>2015-10-25T10:48:36.084Z</time>
      </trkpt>
      <trkpt lat="46.0046" lon="4.60169">
        <ele>341</ele>
        <time>2015-10-25T10:48:36.954Z</time>
      </trkpt>
      <trkpt lat="46.00458" lon="4.60175">
        <ele>341.200012207</ele>
        <time>2015-10-25T10:48:37.993Z</time>
      </trkpt>
      <trkpt lat="46.00455" lon="4.60181">
        <ele>341.299987793</ele>
        <time>2015-10-25T10:48:38.952Z</time>
      </trkpt>
      <trkpt lat="46.00453" lon="4.60187">
        <ele>341.100006104</ele>
        <time>2015-10-25T10:48:40.12Z</time>
      </trkpt>
      <trkpt lat="46.00451" lon="4.60192">
        <ele>341</ele>
        <time>2015-10-25T10:48:40.953Z</time>
      </trkpt>
      <trkpt lat="46.00449" lon="4.60197">
        <ele>340.799987793</ele>
        <time>2015-10-25T10:48:41.984Z</time>
      </trkpt>
      <trkpt lat="46.00446" lon="4.60203">
        <ele>340.600006104</ele>
        <time>2015-10-25T10:48:42.955Z</time>
      </trkpt>
      <trkpt lat="46.00441" lon="4.60213">
        <ele>340.100006104</ele>
        <time>2015-10-25T10:48:44.98Z</time>
      </trkpt>
      <trkpt lat="46.00438" lon="4.60218">
        <ele>340.200012207</ele>
        <time>2015-10-25T10:48:45.955Z</time>
      </trkpt>
      <trkpt lat="46.00433" lon="4.60227">
        <ele>340.200012207</ele>
        <time>2015-10-25T10:48:47.982Z</time>
      </trkpt>
      <trkpt lat="46.0043" lon="4.60232">
        <ele>340.200012207</ele>
        <time>2015-10-25T10:48:48.958Z</time>
      </trkpt>
      <trkpt lat="46.00425" lon="4.6024">
        <ele>340.299987793</ele>
        <time>2015-10-25T10:48:50.981Z</time>
      </trkpt>
      <trkpt lat="46.00422" lon="4.60245">
        <ele>340.299987793</ele>
        <time>2015-10-25T10:48:51.957Z</time>
      </trkpt>
      <trkpt lat="46.00417" lon="4.60253">
        <ele>340.5</ele>
        <time>2015-10-25T10:48:53.98Z</time>
      </trkpt>
      <trkpt lat="46.00414" lon="4.60258">
        <ele>340.600006104</ele>
        <time>2015-10-25T10:48:54.952Z</time>
      </trkpt>
      <trkpt lat="46.00409" lon="4.60267">
        <ele>340.700012207</ele>
        <time>2015-10-25T10:48:57.105Z</time>
      </trkpt>
      <trkpt lat="46.00407" lon="4.60273">
        <ele>340.799987793</ele>
        <time>2015-10-25T10:48:57.954Z</time>
      </trkpt>
      <trkpt lat="46.00403" lon="4.60284">
        <ele>341</ele>
        <time>2015-10-25T10:48:59.99Z</time>
      </trkpt>
      <trkpt lat="46.00401" lon="4.6029">
        <ele>341.200012207</ele>
        <time>2015-10-25T10:49:00.952Z</time>
      </trkpt>
      <trkpt lat="46.00398" lon="4.60302">
        <ele>341.399993896</ele>
        <time>2015-10-25T10:49:02.979Z</time>
      </trkpt>
      <trkpt lat="46.00396" lon="4.60307">
        <ele>341.399993896</ele>
        <time>2015-10-25T10:49:03.955Z</time>
      </trkpt>
      <trkpt lat="46.00394" lon="4.60313">
        <ele>341.600006104</ele>
        <time>2015-10-25T10:49:04.979Z</time>
      </trkpt>
      <trkpt lat="46.00392" lon="4.60319">
        <ele>341.600006104</ele>
        <time>2015-10-25T10:49:05.946Z</time>
      </trkpt>
      <trkpt lat="46.00388" lon="4.60331">
        <ele>341.700012207</ele>
        <time>2015-10-25T10:49:07.992Z</time>
      </trkpt>
      <trkpt lat="46.00386" lon="4.60336">
        <ele>341.600006104</ele>
        <time>2015-10-25T10:49:08.959Z</time>
      </trkpt>
      <trkpt lat="46.00382" lon="4.60347">
        <ele>341.399993896</ele>
        <time>2015-10-25T10:49:10.979Z</time>
      </trkpt>
      <trkpt lat="46.00379" lon="4.60353">
        <ele>341.5</ele>
        <time>2015-10-25T10:49:11.953Z</time>
      </trkpt>
      <trkpt lat="46.00375" lon="4.60363">
        <ele>341.399993896</ele>
        <time>2015-10-25T10:49:14.004Z</time>
      </trkpt>
      <trkpt lat="46.00373" lon="4.60369">
        <ele>341.399993896</ele>
        <time>2015-10-25T10:49:14.952Z</time>
      </trkpt>
      <trkpt lat="46.00369" lon="4.6038">
        <ele>341.600006104</ele>
        <time>2015-10-25T10:49:17.057Z</time>
      </trkpt>
      <trkpt lat="46.00366" lon="4.60385">
        <ele>341.799987793</ele>
        <time>2015-10-25T10:49:17.957Z</time>
      </trkpt>
      <trkpt lat="46.0036" lon="4.60394">
        <ele>341.899993896</ele>
        <time>2015-10-25T10:49:19.98Z</time>
      </trkpt>
      <trkpt lat="46.00358" lon="4.60399">
        <ele>341.799987793</ele>
        <time>2015-10-25T10:49:20.953Z</time>
      </trkpt>
      <trkpt lat="46.00352" lon="4.60408">
        <ele>342.299987793</ele>
        <time>2015-10-25T10:49:22.979Z</time>
      </trkpt>
      <trkpt lat="46.0035" lon="4.60413">
        <ele>342.200012207</ele>
        <time>2015-10-25T10:49:23.954Z</time>
      </trkpt>
      <trkpt lat="46.00345" lon="4.60424">
        <ele>341.600006104</ele>
        <time>2015-10-25T10:49:25.979Z</time>
      </trkpt>
      <trkpt lat="46.00343" lon="4.6043">
        <ele>341.399993896</ele>
        <time>2015-10-25T10:49:26.952Z</time>
      </trkpt>
      <trkpt lat="46.0034" lon="4.60435">
        <ele>341.100006104</ele>
        <time>2015-10-25T10:49:27.981Z</time>
      </trkpt>
      <trkpt lat="46.00338" lon="4.6044">
        <ele>341</ele>
        <time>2015-10-25T10:49:28.97Z</time>
      </trkpt>
      <trkpt lat="46.00333" lon="4.60451">
        <ele>341.100006104</ele>
        <time>2015-10-25T10:49:30.979Z</time>
      </trkpt>
      <trkpt lat="46.00331" lon="4.60456">
        <ele>340.899993896</ele>
        <time>2015-10-25T10:49:31.952Z</time>
      </trkpt>
      <trkpt lat="46.00326" lon="4.60467">
        <ele>341.399993896</ele>
        <time>2015-10-25T10:49:33.982Z</time>
      </trkpt>
      <trkpt lat="46.00324" lon="4.60472">
        <ele>341.299987793</ele>
        <time>2015-10-25T10:49:34.955Z</time>
      </trkpt>
      <trkpt lat="46.0032" lon="4.60482">
        <ele>341.100006104</ele>
        <time>2015-10-25T10:49:36.979Z</time>
      </trkpt>
      <trkpt lat="46.00317" lon="4.60488">
        <ele>341</ele>
        <time>2015-10-25T10:49:37.956Z</time>
      </trkpt>
      <trkpt lat="46.00313" lon="4.60498">
        <ele>341.100006104</ele>
        <time>2015-10-25T10:49:39.982Z</time>
      </trkpt>
      <trkpt lat="46.00311" lon="4.60504">
        <ele>340.899993896</ele>
        <time>2015-10-25T10:49:40.989Z</time>
      </trkpt>
      <trkpt lat="46.00307" lon="4.60514">
        <ele>341.100006104</ele>
        <time>2015-10-25T10:49:42.979Z</time>
      </trkpt>
      <trkpt lat="46.00305" lon="4.60519">
        <ele>341.200012207</ele>
        <time>2015-10-25T10:49:43.957Z</time>
      </trkpt>
      <trkpt lat="46.00301" lon="4.60529">
        <ele>341.899993896</ele>
        <time>2015-10-25T10:49:45.985Z</time>
      </trkpt>
      <trkpt lat="46.00299" lon="4.60534">
        <ele>341.899993896</ele>
        <time>2015-10-25T10:49:46.955Z</time>
      </trkpt>
      <trkpt lat="46.00295" lon="4.60543">
        <ele>342.5</ele>
        <time>2015-10-25T10:49:49.133Z</time>
      </trkpt>
      <trkpt lat="46.00293" lon="4.60547">
        <ele>342.700012207</ele>
        <time>2015-10-25T10:49:49.953Z</time>
      </trkpt>
      <trkpt lat="46.00288" lon="4.60555">
        <ele>343.399993896</ele>
        <time>2015-10-25T10:49:51.981Z</time>
      </trkpt>
      <trkpt lat="46.00285" lon="4.6056">
        <ele>343.299987793</ele>
        <time>2015-10-25T10:49:52.956Z</time>
      </trkpt>
      <trkpt lat="46.0028" lon="4.60567">
        <ele>343.299987793</ele>
        <time>2015-10-25T10:49:54.978Z</time>
      </trkpt>
      <trkpt lat="46.00278" lon="4.60571">
        <ele>343.600006104</ele>
        <time>2015-10-25T10:49:55.956Z</time>
      </trkpt>
      <trkpt lat="46.00274" lon="4.60577">
        <ele>343.700012207</ele>
        <time>2015-10-25T10:49:57.985Z</time>
      </trkpt>
      <trkpt lat="46.00271" lon="4.6058">
        <ele>343.799987793</ele>
        <time>2015-10-25T10:49:58.953Z</time>
      </trkpt>
      <trkpt lat="46.00266" lon="4.60585">
        <ele>344.799987793</ele>
        <time>2015-10-25T10:50:00.983Z</time>
      </trkpt>
      <trkpt lat="46.00263" lon="4.60588">
        <ele>344.799987793</ele>
        <time>2015-10-25T10:50:01.954Z</time>
      </trkpt>
      <trkpt lat="46.00257" lon="4.60593">
        <ele>345.100006104</ele>
        <time>2015-10-25T10:50:03.981Z</time>
      </trkpt>
      <trkpt lat="46.00254" lon="4.60595">
        <ele>345.5</ele>
        <time>2015-10-25T10:50:04.952Z</time>
      </trkpt>
      <trkpt lat="46.00248" lon="4.60599">
        <ele>346.200012207</ele>
        <time>2015-10-25T10:50:06.989Z</time>
      </trkpt>
      <trkpt lat="46.00245" lon="4.60602">
        <ele>346.600006104</ele>
        <time>2015-10-25T10:50:07.956Z</time>
      </trkpt>
      <trkpt lat="46.00239" lon="4.60606">
        <ele>347</ele>
        <time>2015-10-25T10:50:10.002Z</time>
      </trkpt>
      <trkpt lat="46.00236" lon="4.60608">
        <ele>347.200012207</ele>
        <time>2015-10-25T10:50:10.952Z</time>
      </trkpt>
      <trkpt lat="46.0023" lon="4.60612">
        <ele>347.5</ele>
        <time>2015-10-25T10:50:12.978Z</time>
      </trkpt>
      <trkpt lat="46.00227" lon="4.60614">
        <ele>347.799987793</ele>
        <time>2015-10-25T10:50:13.956Z</time>
      </trkpt>
      <trkpt lat="46.00221" lon="4.60618">
        <ele>348.200012207</ele>
        <time>2015-10-25T10:50:15.985Z</time>
      </trkpt>
      <trkpt lat="46.00218" lon="4.6062">
        <ele>348.200012207</ele>
        <time>2015-10-25T10:50:17.01Z</time>
      </trkpt>
      <trkpt lat="46.00212" lon="4.60624">
        <ele>348.399993896</ele>
        <time>2015-10-25T10:50:18.979Z</time>
      </trkpt>
      <trkpt lat="46.00209" lon="4.60626">
        <ele>348</ele>
        <time>2015-10-25T10:50:19.952Z</time>
      </trkpt>
      <trkpt lat="46.00202" lon="4.60633">
        <ele>347.700012207</ele>
        <time>2015-10-25T10:50:22.018Z</time>
      </trkpt>
      <trkpt lat="46.00199" lon="4.60637">
        <ele>347.399993896</ele>
        <time>2015-10-25T10:50:22.956Z</time>
      </trkpt>
      <trkpt lat="46.00195" lon="4.60641">
        <ele>347.200012207</ele>
        <time>2015-10-25T10:50:23.983Z</time>
      </trkpt>
      <trkpt lat="46.00192" lon="4.60646">
        <ele>347</ele>
        <time>2015-10-25T10:50:24.991Z</time>
      </trkpt>
      <trkpt lat="46.0019" lon="4.60651">
        <ele>346.700012207</ele>
        <time>2015-10-25T10:50:26.064Z</time>
      </trkpt>
      <trkpt lat="46.00187" lon="4.60656">
        <ele>346.799987793</ele>
        <time>2015-10-25T10:50:26.955Z</time>
      </trkpt>
      <trkpt lat="46.00182" lon="4.60666">
        <ele>346.799987793</ele>
        <time>2015-10-25T10:50:28.982Z</time>
      </trkpt>
      <trkpt lat="46.0018" lon="4.60672">
        <ele>346.799987793</ele>
        <time>2015-10-25T10:50:29.953Z</time>
      </trkpt>
      <trkpt lat="46.00177" lon="4.60683">
        <ele>346.799987793</ele>
        <time>2015-10-25T10:50:31.978Z</time>
      </trkpt>
      <trkpt lat="46.00176" lon="4.60689">
        <ele>347.100006104</ele>
        <time>2015-10-25T10:50:32.952Z</time>
      </trkpt>
      <trkpt lat="46.00175" lon="4.60701">
        <ele>347.299987793</ele>
        <time>2015-10-25T10:50:34.978Z</time>
      </trkpt>
      <trkpt lat="46.00175" lon="4.60706">
        <ele>347.5</ele>
        <time>2015-10-25T10:50:36.06Z</time>
      </trkpt>
      <trkpt lat="46.00175" lon="4.60716">
        <ele>348</ele>
        <time>2015-10-25T10:50:37.979Z</time>
      </trkpt>
      <trkpt lat="46.00175" lon="4.60721">
        <ele>348.299987793</ele>
        <time>2015-10-25T10:50:38.956Z</time>
      </trkpt>
      <trkpt lat="46.00175" lon="4.6073">
        <ele>348.700012207</ele>
        <time>2015-10-25T10:50:40.983Z</time>
      </trkpt>
      <trkpt lat="46.00175" lon="4.60734">
        <ele>348.899993896</ele>
        <time>2015-10-25T10:50:41.953Z</time>
      </trkpt>
      <trkpt lat="46.00173" lon="4.60747">
        <ele>349.700012207</ele>
        <time>2015-10-25T10:50:44.98Z</time>
      </trkpt>
      <trkpt lat="46.00173" lon="4.60751">
        <ele>349.700012207</ele>
        <time>2015-10-25T10:50:46.004Z</time>
      </trkpt>
      <trkpt lat="46.0017" lon="4.60762">
        <ele>350</ele>
        <time>2015-10-25T10:50:48.979Z</time>
      </trkpt>
      <trkpt lat="46.00169" lon="4.60766">
        <ele>350.100006104</ele>
        <time>2015-10-25T10:50:49.952Z</time>
      </trkpt>
      <trkpt lat="46.00164" lon="4.60776">
        <ele>350.700012207</ele>
        <time>2015-10-25T10:50:52.982Z</time>
      </trkpt>
      <trkpt lat="46.00162" lon="4.60779">
        <ele>350.600006104</ele>
        <time>2015-10-25T10:50:53.954Z</time>
      </trkpt>
      <trkpt lat="46.00158" lon="4.60787">
        <ele>351</ele>
        <time>2015-10-25T10:50:55.988Z</time>
      </trkpt>
      <trkpt lat="46.00156" lon="4.6079">
        <ele>351.299987793</ele>
        <time>2015-10-25T10:50:56.956Z</time>
      </trkpt>
      <trkpt lat="46.00152" lon="4.60798">
        <ele>351.299987793</ele>
        <time>2015-10-25T10:50:58.983Z</time>
      </trkpt>
      <trkpt lat="46.0015" lon="4.60802">
        <ele>351.600006104</ele>
        <time>2015-10-25T10:50:59.953Z</time>
      </trkpt>
      <trkpt lat="46.00144" lon="4.6081">
        <ele>351.399993896</ele>
        <time>2015-10-25T10:51:01.982Z</time>
      </trkpt>
      <trkpt lat="46.00142" lon="4.60815">
        <ele>350.700012207</ele>
        <time>2015-10-25T10:51:02.975Z</time>
      </trkpt>
      <trkpt lat="46.00135" lon="4.60824">
        <ele>350.399993896</ele>
        <time>2015-10-25T10:51:04.986Z</time>
      </trkpt>
      <trkpt lat="46.00132" lon="4.60828">
        <ele>350.200012207</ele>
        <time>2015-10-25T10:51:05.957Z</time>
      </trkpt>
      <trkpt lat="46.00128" lon="4.60833">
        <ele>349.899993896</ele>
        <time>2015-10-25T10:51:06.983Z</time>
      </trkpt>
      <trkpt lat="46.00124" lon="4.60838">
        <ele>349.700012207</ele>
        <time>2015-10-25T10:51:07.952Z</time>
      </trkpt>
      <trkpt lat="46.0012" lon="4.60843">
        <ele>349.399993896</ele>
        <time>2015-10-25T10:51:08.988Z</time>
      </trkpt>
      <trkpt lat="46.00116" lon="4.60848">
        <ele>349.100006104</ele>
        <time>2015-10-25T10:51:09.954Z</time>
      </trkpt>
      <trkpt lat="46.00111" lon="4.60852">
        <ele>348.799987793</ele>
        <time>2015-10-25T10:51:10.982Z</time>
      </trkpt>
      <trkpt lat="46.00105" lon="4.60856">
        <ele>349</ele>
        <time>2015-10-25T10:51:11.952Z</time>
      </trkpt>
      <trkpt lat="46.001" lon="4.60859">
        <ele>349.100006104</ele>
        <time>2015-10-25T10:51:12.992Z</time>
      </trkpt>
      <trkpt lat="46.00095" lon="4.60863">
        <ele>349.399993896</ele>
        <time>2015-10-25T10:51:13.956Z</time>
      </trkpt>
      <trkpt lat="46.0009" lon="4.60867">
        <ele>349.600006104</ele>
        <time>2015-10-25T10:51:14.978Z</time>
      </trkpt>
      <trkpt lat="46.00086" lon="4.60871">
        <ele>349.600006104</ele>
        <time>2015-10-25T10:51:15.955Z</time>
      </trkpt>
      <trkpt lat="46.00082" lon="4.60876">
        <ele>349.600006104</ele>
        <time>2015-10-25T10:51:16.978Z</time>
      </trkpt>
      <trkpt lat="46.00078" lon="4.60881">
        <ele>350</ele>
        <time>2015-10-25T10:51:17.954Z</time>
      </trkpt>
      <trkpt lat="46.00075" lon="4.60887">
        <ele>349.799987793</ele>
        <time>2015-10-25T10:51:18.982Z</time>
      </trkpt>
      <trkpt lat="46.00072" lon="4.60892">
        <ele>349.799987793</ele>
        <time>2015-10-25T10:51:19.952Z</time>
      </trkpt>
      <trkpt lat="46.00071" lon="4.60898">
        <ele>350</ele>
        <time>2015-10-25T10:51:20.983Z</time>
      </trkpt>
      <trkpt lat="46.00069" lon="4.60905">
        <ele>350</ele>
        <time>2015-10-25T10:51:21.955Z</time>
      </trkpt>
      <trkpt lat="46.00068" lon="4.60917">
        <ele>350.100006104</ele>
        <time>2015-10-25T10:51:23.98Z</time>
      </trkpt>
      <trkpt lat="46.00068" lon="4.60923">
        <ele>350.200012207</ele>
        <time>2015-10-25T10:51:25.004Z</time>
      </trkpt>
      <trkpt lat="46.00068" lon="4.60934">
        <ele>350.299987793</ele>
        <time>2015-10-25T10:51:26.98Z</time>
      </trkpt>
      <trkpt lat="46.00068" lon="4.6094">
        <ele>350.100006104</ele>
        <time>2015-10-25T10:51:27.959Z</time>
      </trkpt>
      <trkpt lat="46.00067" lon="4.60952">
        <ele>350.299987793</ele>
        <time>2015-10-25T10:51:29.98Z</time>
      </trkpt>
      <trkpt lat="46.00067" lon="4.60958">
        <ele>350.399993896</ele>
        <time>2015-10-25T10:51:30.952Z</time>
      </trkpt>
      <trkpt lat="46.00065" lon="4.60969">
        <ele>350.700012207</ele>
        <time>2015-10-25T10:51:32.979Z</time>
      </trkpt>
      <trkpt lat="46.00064" lon="4.60975">
        <ele>351.100006104</ele>
        <time>2015-10-25T10:51:33.955Z</time>
      </trkpt>
      <trkpt lat="46.00062" lon="4.60986">
        <ele>351.299987793</ele>
        <time>2015-10-25T10:51:36.034Z</time>
      </trkpt>
      <trkpt lat="46.0006" lon="4.60991">
        <ele>351.5</ele>
        <time>2015-10-25T10:51:36.953Z</time>
      </trkpt>
      <trkpt lat="46.00058" lon="4.61002">
        <ele>351.299987793</ele>
        <time>2015-10-25T10:51:38.98Z</time>
      </trkpt>
      <trkpt lat="46.00056" lon="4.61007">
        <ele>351.299987793</ele>
        <time>2015-10-25T10:51:39.955Z</time>
      </trkpt>
      <trkpt lat="46.00053" lon="4.61018">
        <ele>351</ele>
        <time>2015-10-25T10:51:41.98Z</time>
      </trkpt>
      <trkpt lat="46.00051" lon="4.61023">
        <ele>351</ele>
        <time>2015-10-25T10:51:42.953Z</time>
      </trkpt>
      <trkpt lat="46.00048" lon="4.61033">
        <ele>351.100006104</ele>
        <time>2015-10-25T10:51:44.996Z</time>
      </trkpt>
      <trkpt lat="46.00046" lon="4.61038">
        <ele>351.5</ele>
        <time>2015-10-25T10:51:45.956Z</time>
      </trkpt>
      <trkpt lat="46.00043" lon="4.61049">
        <ele>351.899993896</ele>
        <time>2015-10-25T10:51:47.979Z</time>
      </trkpt>
      <trkpt lat="46.00041" lon="4.61053">
        <ele>352</ele>
        <time>2015-10-25T10:51:48.953Z</time>
      </trkpt>
      <trkpt lat="46.00039" lon="4.61063">
        <ele>352.200012207</ele>
        <time>2015-10-25T10:51:50.979Z</time>
      </trkpt>
      <trkpt lat="46.00037" lon="4.61068">
        <ele>352.100006104</ele>
        <time>2015-10-25T10:51:51.955Z</time>
      </trkpt>
      <trkpt lat="46.00035" lon="4.61078">
        <ele>352.299987793</ele>
        <time>2015-10-25T10:51:53.98Z</time>
      </trkpt>
      <trkpt lat="46.00033" lon="4.61083">
        <ele>352.299987793</ele>
        <time>2015-10-25T10:51:54.953Z</time>
      </trkpt>
      <trkpt lat="46.00031" lon="4.61093">
        <ele>352.200012207</ele>
        <time>2015-10-25T10:51:57.024Z</time>
      </trkpt>
      <trkpt lat="46.0003" lon="4.61097">
        <ele>351.899993896</ele>
        <time>2015-10-25T10:51:57.959Z</time>
      </trkpt>
      <trkpt lat="46.00027" lon="4.61106">
        <ele>352.299987793</ele>
        <time>2015-10-25T10:51:59.979Z</time>
      </trkpt>
      <trkpt lat="46.00024" lon="4.61111">
        <ele>352.399993896</ele>
        <time>2015-10-25T10:52:00.953Z</time>
      </trkpt>
      <trkpt lat="46.00018" lon="4.61119">
        <ele>353.100006104</ele>
        <time>2015-10-25T10:52:03.016Z</time>
      </trkpt>
      <trkpt lat="46.00015" lon="4.61123">
        <ele>353</ele>
        <time>2015-10-25T10:52:03.954Z</time>
      </trkpt>
      <trkpt lat="46.00011" lon="4.61132">
        <ele>353.700012207</ele>
        <time>2015-10-25T10:52:05.979Z</time>
      </trkpt>
      <trkpt lat="46.00009" lon="4.61137">
        <ele>354.299987793</ele>
        <time>2015-10-25T10:52:06.956Z</time>
      </trkpt>
      <trkpt lat="46.00005" lon="4.61146">
        <ele>354.100006104</ele>
        <time>2015-10-25T10:52:08.988Z</time>
      </trkpt>
      <trkpt lat="46.00003" lon="4.61151">
        <ele>354.200012207</ele>
        <time>2015-10-25T10:52:09.955Z</time>
      </trkpt>
      <trkpt lat="46" lon="4.6116">
        <ele>355.200012207</ele>
        <time>2015-10-25T10:52:11.986Z</time>
      </trkpt>
      <trkpt lat="45.99999" lon="4.61165">
        <ele>355.299987793</ele>
        <time>2015-10-25T10:52:12.956Z</time>
      </trkpt>
      <trkpt lat="45.99996" lon="4.61177">
        <ele>356</ele>
        <time>2015-10-25T10:52:16Z</time>
      </trkpt>
      <trkpt lat="45.99995" lon="4.6118">
        <ele>356.299987793</ele>
        <time>2015-10-25T10:52:17.004Z</time>
      </trkpt>
      <trkpt lat="45.99992" lon="4.6119">
        <ele>356.299987793</ele>
        <time>2015-10-25T10:52:19.982Z</time>
      </trkpt>
      <trkpt lat="45.99992" lon="4.61194">
        <ele>356.299987793</ele>
        <time>2015-10-25T10:52:20.979Z</time>
      </trkpt>
      <trkpt lat="45.99988" lon="4.61205">
        <ele>357.100006104</ele>
        <time>2015-10-25T10:52:23.982Z</time>
      </trkpt>
      <trkpt lat="45.99987" lon="4.61209">
        <ele>357.799987793</ele>
        <time>2015-10-25T10:52:24.956Z</time>
      </trkpt>
      <trkpt lat="45.99985" lon="4.6122">
        <ele>358.799987793</ele>
        <time>2015-10-25T10:52:27.985Z</time>
      </trkpt>
      <trkpt lat="45.99984" lon="4.61224">
        <ele>358.899993896</ele>
        <time>2015-10-25T10:52:28.952Z</time>
      </trkpt>
      <trkpt lat="45.99981" lon="4.61233">
        <ele>360.100006104</ele>
        <time>2015-10-25T10:52:31.981Z</time>
      </trkpt>
      <trkpt lat="45.9998" lon="4.61237">
        <ele>360.200012207</ele>
        <time>2015-10-25T10:52:32.952Z</time>
      </trkpt>
      <trkpt lat="45.99978" lon="4.61247">
        <ele>360.899993896</ele>
        <time>2015-10-25T10:52:35.983Z</time>
      </trkpt>
      <trkpt lat="45.99978" lon="4.61251">
        <ele>361.100006104</ele>
        <time>2015-10-25T10:52:36.991Z</time>
      </trkpt>
      <trkpt lat="45.99975" lon="4.6126">
        <ele>362</ele>
        <time>2015-10-25T10:52:39.981Z</time>
      </trkpt>
      <trkpt lat="45.99975" lon="4.61263">
        <ele>362.299987793</ele>
        <time>2015-10-25T10:52:40.952Z</time>
      </trkpt>
      <trkpt lat="45.9997" lon="4.61272">
        <ele>362.799987793</ele>
        <time>2015-10-25T10:52:43.98Z</time>
      </trkpt>
      <trkpt lat="45.99969" lon="4.61274">
        <ele>363.100006104</ele>
        <time>2015-10-25T10:52:44.976Z</time>
      </trkpt>
      <trkpt lat="45.99964" lon="4.61281">
        <ele>364</ele>
        <time>2015-10-25T10:52:47.983Z</time>
      </trkpt>
      <trkpt lat="45.99963" lon="4.61283">
        <ele>363.899993896</ele>
        <time>2015-10-25T10:52:48.952Z</time>
      </trkpt>
      <trkpt lat="45.99957" lon="4.61292">
        <ele>364</ele>
        <time>2015-10-25T10:52:52.994Z</time>
      </trkpt>
      <trkpt lat="45.99955" lon="4.61294">
        <ele>363.899993896</ele>
        <time>2015-10-25T10:52:53.956Z</time>
      </trkpt>
      <trkpt lat="45.99949" lon="4.61299">
        <ele>365.399993896</ele>
        <time>2015-10-25T10:52:56.978Z</time>
      </trkpt>
      <trkpt lat="45.99946" lon="4.613">
        <ele>365.600006104</ele>
        <time>2015-10-25T10:52:57.955Z</time>
      </trkpt>
      <trkpt lat="45.99939" lon="4.61304">
        <ele>366.299987793</ele>
        <time>2015-10-25T10:53:00.978Z</time>
      </trkpt>
      <trkpt lat="45.99937" lon="4.61305">
        <ele>366.5</ele>
        <time>2015-10-25T10:53:01.952Z</time>
      </trkpt>
      <trkpt lat="45.9993" lon="4.61309">
        <ele>367.100006104</ele>
        <time>2015-10-25T10:53:05.014Z</time>
      </trkpt>
      <trkpt lat="45.99928" lon="4.61311">
        <ele>367.200012207</ele>
        <time>2015-10-25T10:53:05.956Z</time>
      </trkpt>
      <trkpt lat="45.9992" lon="4.61316">
        <ele>367.299987793</ele>
        <time>2015-10-25T10:53:08.983Z</time>
      </trkpt>
      <trkpt lat="45.99918" lon="4.61317">
        <ele>367.299987793</ele>
        <time>2015-10-25T10:53:09.954Z</time>
      </trkpt>
      <trkpt lat="45.99909" lon="4.61321">
        <ele>367.399993896</ele>
        <time>2015-10-25T10:53:12.982Z</time>
      </trkpt>
      <trkpt lat="45.99906" lon="4.61322">
        <ele>367.5</ele>
        <time>2015-10-25T10:53:13.994Z</time>
      </trkpt>
      <trkpt lat="45.999" lon="4.61326">
        <ele>367.5</ele>
        <time>2015-10-25T10:53:15.984Z</time>
      </trkpt>
      <trkpt lat="45.99897" lon="4.61327">
        <ele>367.5</ele>
        <time>2015-10-25T10:53:16.955Z</time>
      </trkpt>
      <trkpt lat="45.9989" lon="4.6133">
        <ele>367.600006104</ele>
        <time>2015-10-25T10:53:18.978Z</time>
      </trkpt>
      <trkpt lat="45.99887" lon="4.61331">
        <ele>367.600006104</ele>
        <time>2015-10-25T10:53:19.952Z</time>
      </trkpt>
      <trkpt lat="45.9988" lon="4.61334">
        <ele>367.5</ele>
        <time>2015-10-25T10:53:21.981Z</time>
      </trkpt>
      <trkpt lat="45.99876" lon="4.61336">
        <ele>367.600006104</ele>
        <time>2015-10-25T10:53:22.956Z</time>
      </trkpt>
      <trkpt lat="45.99869" lon="4.61338">
        <ele>367.700012207</ele>
        <time>2015-10-25T10:53:24.979Z</time>
      </trkpt>
      <trkpt lat="45.99865" lon="4.6134">
        <ele>367.700012207</ele>
        <time>2015-10-25T10:53:25.952Z</time>
      </trkpt>
      <trkpt lat="45.99858" lon="4.61342">
        <ele>367.700012207</ele>
        <time>2015-10-25T10:53:27.981Z</time>
      </trkpt>
      <trkpt lat="45.99855" lon="4.61342">
        <ele>367.600006104</ele>
        <time>2015-10-25T10:53:28.958Z</time>
      </trkpt>
      <trkpt lat="45.99847" lon="4.61344">
        <ele>367.299987793</ele>
        <time>2015-10-25T10:53:30.982Z</time>
      </trkpt>
      <trkpt lat="45.99843" lon="4.61344">
        <ele>367.299987793</ele>
        <time>2015-10-25T10:53:31.959Z</time>
      </trkpt>
      <trkpt lat="45.99836" lon="4.61346">
        <ele>367.299987793</ele>
        <time>2015-10-25T10:53:33.984Z</time>
      </trkpt>
      <trkpt lat="45.99832" lon="4.61347">
        <ele>367.399993896</ele>
        <time>2015-10-25T10:53:34.956Z</time>
      </trkpt>
      <trkpt lat="45.99824" lon="4.61347">
        <ele>367.399993896</ele>
        <time>2015-10-25T10:53:36.979Z</time>
      </trkpt>
      <trkpt lat="45.99821" lon="4.61348">
        <ele>367.200012207</ele>
        <time>2015-10-25T10:53:37.952Z</time>
      </trkpt>
      <trkpt lat="45.99814" lon="4.61349">
        <ele>367.600006104</ele>
        <time>2015-10-25T10:53:39.994Z</time>
      </trkpt>
      <trkpt lat="45.99811" lon="4.61349">
        <ele>367.799987793</ele>
        <time>2015-10-25T10:53:40.98Z</time>
      </trkpt>
      <trkpt lat="45.99803" lon="4.6135">
        <ele>367.899993896</ele>
        <time>2015-10-25T10:53:43.153Z</time>
      </trkpt>
      <trkpt lat="45.998" lon="4.61351">
        <ele>367.899993896</ele>
        <time>2015-10-25T10:53:43.952Z</time>
      </trkpt>
      <trkpt lat="45.99792" lon="4.61354">
        <ele>368.200012207</ele>
        <time>2015-10-25T10:53:45.999Z</time>
      </trkpt>
      <trkpt lat="45.99789" lon="4.61356">
        <ele>368.399993896</ele>
        <time>2015-10-25T10:53:46.954Z</time>
      </trkpt>
      <trkpt lat="45.99782" lon="4.6136">
        <ele>368.700012207</ele>
        <time>2015-10-25T10:53:48.978Z</time>
      </trkpt>
      <trkpt lat="45.99779" lon="4.61363">
        <ele>368.799987793</ele>
        <time>2015-10-25T10:53:49.952Z</time>
      </trkpt>
      <trkpt lat="45.99772" lon="4.61367">
        <ele>368.899993896</ele>
        <time>2015-10-25T10:53:51.98Z</time>
      </trkpt>
      <trkpt lat="45.99769" lon="4.6137">
        <ele>369</ele>
        <time>2015-10-25T10:53:52.957Z</time>
      </trkpt>
      <trkpt lat="45.99763" lon="4.61375">
        <ele>369.299987793</ele>
        <time>2015-10-25T10:53:54.985Z</time>
      </trkpt>
      <trkpt lat="45.9976" lon="4.61377">
        <ele>369.5</ele>
        <time>2015-10-25T10:53:55.954Z</time>
      </trkpt>
      <trkpt lat="45.99755" lon="4.61383">
        <ele>369.899993896</ele>
        <time>2015-10-25T10:53:57.984Z</time>
      </trkpt>
      <trkpt lat="45.99752" lon="4.61386">
        <ele>370.100006104</ele>
        <time>2015-10-25T10:53:58.952Z</time>
      </trkpt>
      <trkpt lat="45.99748" lon="4.61393">
        <ele>370.5</ele>
        <time>2015-10-25T10:54:00.982Z</time>
      </trkpt>
      <trkpt lat="45.99747" lon="4.61397">
        <ele>370.799987793</ele>
        <time>2015-10-25T10:54:01.952Z</time>
      </trkpt>
      <trkpt lat="45.99744" lon="4.61406">
        <ele>371.5</ele>
        <time>2015-10-25T10:54:03.98Z</time>
      </trkpt>
      <trkpt lat="45.99742" lon="4.6141">
        <ele>371.799987793</ele>
        <time>2015-10-25T10:54:04.97Z</time>
      </trkpt>
      <trkpt lat="45.99739" lon="4.61419">
        <ele>372</ele>
        <time>2015-10-25T10:54:07.013Z</time>
      </trkpt>
      <trkpt lat="45.99738" lon="4.61423">
        <ele>372</ele>
        <time>2015-10-25T10:54:07.952Z</time>
      </trkpt>
      <trkpt lat="45.99735" lon="4.61432">
        <ele>372.100006104</ele>
        <time>2015-10-25T10:54:09.98Z</time>
      </trkpt>
      <trkpt lat="45.99734" lon="4.61437">
        <ele>372.200012207</ele>
        <time>2015-10-25T10:54:10.952Z</time>
      </trkpt>
      <trkpt lat="45.99731" lon="4.61446">
        <ele>372.299987793</ele>
        <time>2015-10-25T10:54:12.979Z</time>
      </trkpt>
      <trkpt lat="45.99729" lon="4.6145">
        <ele>372.399993896</ele>
        <time>2015-10-25T10:54:13.952Z</time>
      </trkpt>
      <trkpt lat="45.99725" lon="4.61458">
        <ele>372.600006104</ele>
        <time>2015-10-25T10:54:15.989Z</time>
      </trkpt>
      <trkpt lat="45.99722" lon="4.61461">
        <ele>372.600006104</ele>
        <time>2015-10-25T10:54:16.955Z</time>
      </trkpt>
      <trkpt lat="45.99719" lon="4.61469">
        <ele>373</ele>
        <time>2015-10-25T10:54:18.978Z</time>
      </trkpt>
      <trkpt lat="45.99717" lon="4.61473">
        <ele>373.200012207</ele>
        <time>2015-10-25T10:54:19.952Z</time>
      </trkpt>
      <trkpt lat="45.99713" lon="4.61481">
        <ele>373.799987793</ele>
        <time>2015-10-25T10:54:21.984Z</time>
      </trkpt>
      <trkpt lat="45.99712" lon="4.61485">
        <ele>374.100006104</ele>
        <time>2015-10-25T10:54:22.952Z</time>
      </trkpt>
      <trkpt lat="45.99709" lon="4.61494">
        <ele>374.700012207</ele>
        <time>2015-10-25T10:54:25.013Z</time>
      </trkpt>
      <trkpt lat="45.99707" lon="4.61498">
        <ele>374.899993896</ele>
        <time>2015-10-25T10:54:25.952Z</time>
      </trkpt>
      <trkpt lat="45.99704" lon="4.61507">
        <ele>375.100006104</ele>
        <time>2015-10-25T10:54:27.981Z</time>
      </trkpt>
      <trkpt lat="45.99702" lon="4.61513">
        <ele>375.200012207</ele>
        <time>2015-10-25T10:54:28.952Z</time>
      </trkpt>
      <trkpt lat="45.99699" lon="4.61524">
        <ele>375.299987793</ele>
        <time>2015-10-25T10:54:30.982Z</time>
      </trkpt>
      <trkpt lat="45.99698" lon="4.61528">
        <ele>375.399993896</ele>
        <time>2015-10-25T10:54:31.952Z</time>
      </trkpt>
      <trkpt lat="45.99695" lon="4.61539">
        <ele>375.700012207</ele>
        <time>2015-10-25T10:54:34.001Z</time>
      </trkpt>
      <trkpt lat="45.99694" lon="4.61544">
        <ele>375.700012207</ele>
        <time>2015-10-25T10:54:34.952Z</time>
      </trkpt>
      <trkpt lat="45.99692" lon="4.61555">
        <ele>376.100006104</ele>
        <time>2015-10-25T10:54:36.978Z</time>
      </trkpt>
      <trkpt lat="45.9969" lon="4.61561">
        <ele>375.799987793</ele>
        <time>2015-10-25T10:54:37.954Z</time>
      </trkpt>
      <trkpt lat="45.99688" lon="4.61571">
        <ele>375.799987793</ele>
        <time>2015-10-25T10:54:39.986Z</time>
      </trkpt>
      <trkpt lat="45.99687" lon="4.61576">
        <ele>375.899993896</ele>
        <time>2015-10-25T10:54:40.952Z</time>
      </trkpt>
      <trkpt lat="45.99685" lon="4.61587">
        <ele>375.799987793</ele>
        <time>2015-10-25T10:54:43.011Z</time>
      </trkpt>
      <trkpt lat="45.99684" lon="4.61592">
        <ele>375.799987793</ele>
        <time>2015-10-25T10:54:43.952Z</time>
      </trkpt>
      <trkpt lat="45.99681" lon="4.61603">
        <ele>375.700012207</ele>
        <time>2015-10-25T10:54:46.007Z</time>
      </trkpt>
      <trkpt lat="45.9968" lon="4.61609">
        <ele>375.700012207</ele>
        <time>2015-10-25T10:54:46.954Z</time>
      </trkpt>
      <trkpt lat="45.99677" lon="4.6162">
        <ele>375.600006104</ele>
        <time>2015-10-25T10:54:49.034Z</time>
      </trkpt>
      <trkpt lat="45.99676" lon="4.61625">
        <ele>375.600006104</ele>
        <time>2015-10-25T10:54:49.952Z</time>
      </trkpt>
      <trkpt lat="45.99674" lon="4.61636">
        <ele>375.799987793</ele>
        <time>2015-10-25T10:54:51.984Z</time>
      </trkpt>
      <trkpt lat="45.99672" lon="4.61642">
        <ele>375.799987793</ele>
        <time>2015-10-25T10:54:52.955Z</time>
      </trkpt>
      <trkpt lat="45.9967" lon="4.61652">
        <ele>375.899993896</ele>
        <time>2015-10-25T10:54:54.981Z</time>
      </trkpt>
      <trkpt lat="45.99669" lon="4.61657">
        <ele>376.100006104</ele>
        <time>2015-10-25T10:54:55.956Z</time>
      </trkpt>
      <trkpt lat="45.99667" lon="4.61667">
        <ele>376.299987793</ele>
        <time>2015-10-25T10:54:57.984Z</time>
      </trkpt>
      <trkpt lat="45.99665" lon="4.61672">
        <ele>376.600006104</ele>
        <time>2015-10-25T10:54:58.955Z</time>
      </trkpt>
      <trkpt lat="45.99662" lon="4.61681">
        <ele>376.600006104</ele>
        <time>2015-10-25T10:55:00.982Z</time>
      </trkpt>
      <trkpt lat="45.99661" lon="4.61685">
        <ele>376.799987793</ele>
        <time>2015-10-25T10:55:01.956Z</time>
      </trkpt>
      <trkpt lat="45.99659" lon="4.61694">
        <ele>377</ele>
        <time>2015-10-25T10:55:03.981Z</time>
      </trkpt>
      <trkpt lat="45.99657" lon="4.617">
        <ele>377.200012207</ele>
        <time>2015-10-25T10:55:04.955Z</time>
      </trkpt>
      <trkpt lat="45.99653" lon="4.6171">
        <ele>377.299987793</ele>
        <time>2015-10-25T10:55:06.978Z</time>
      </trkpt>
      <trkpt lat="45.99652" lon="4.61716">
        <ele>377.299987793</ele>
        <time>2015-10-25T10:55:07.976Z</time>
      </trkpt>
      <trkpt lat="45.99649" lon="4.61727">
        <ele>377.700012207</ele>
        <time>2015-10-25T10:55:09.981Z</time>
      </trkpt>
      <trkpt lat="45.99647" lon="4.61732">
        <ele>377.299987793</ele>
        <time>2015-10-25T10:55:10.955Z</time>
      </trkpt>
      <trkpt lat="45.99646" lon="4.61738">
        <ele>377.200012207</ele>
        <time>2015-10-25T10:55:11.988Z</time>
      </trkpt>
      <trkpt lat="45.99644" lon="4.61745">
        <ele>377</ele>
        <time>2015-10-25T10:55:12.955Z</time>
      </trkpt>
      <trkpt lat="45.99642" lon="4.61751">
        <ele>376.799987793</ele>
        <time>2015-10-25T10:55:13.981Z</time>
      </trkpt>
      <trkpt lat="45.9964" lon="4.61758">
        <ele>376.600006104</ele>
        <time>2015-10-25T10:55:14.976Z</time>
      </trkpt>
      <trkpt lat="45.99637" lon="4.61764">
        <ele>376.399993896</ele>
        <time>2015-10-25T10:55:15.984Z</time>
      </trkpt>
      <trkpt lat="45.99634" lon="4.61769">
        <ele>376.5</ele>
        <time>2015-10-25T10:55:16.955Z</time>
      </trkpt>
      <trkpt lat="45.99629" lon="4.61778">
        <ele>376.899993896</ele>
        <time>2015-10-25T10:55:19.041Z</time>
      </trkpt>
      <trkpt lat="45.99626" lon="4.61782">
        <ele>377.100006104</ele>
        <time>2015-10-25T10:55:19.952Z</time>
      </trkpt>
      <trkpt lat="45.99621" lon="4.6179">
        <ele>378.100006104</ele>
        <time>2015-10-25T10:55:21.98Z</time>
      </trkpt>
      <trkpt lat="45.99619" lon="4.61793">
        <ele>378.5</ele>
        <time>2015-10-25T10:55:22.955Z</time>
      </trkpt>
      <trkpt lat="45.99614" lon="4.618">
        <ele>378.799987793</ele>
        <time>2015-10-25T10:55:24.988Z</time>
      </trkpt>
      <trkpt lat="45.99612" lon="4.61804">
        <ele>379.299987793</ele>
        <time>2015-10-25T10:55:25.951Z</time>
      </trkpt>
      <trkpt lat="45.99608" lon="4.6181">
        <ele>380.200012207</ele>
        <time>2015-10-25T10:55:27.984Z</time>
      </trkpt>
      <trkpt lat="45.99606" lon="4.61814">
        <ele>380.5</ele>
        <time>2015-10-25T10:55:28.95Z</time>
      </trkpt>
      <trkpt lat="45.99603" lon="4.61821">
        <ele>380.899993896</ele>
        <time>2015-10-25T10:55:30.992Z</time>
      </trkpt>
      <trkpt lat="45.99601" lon="4.61825">
        <ele>381.100006104</ele>
        <time>2015-10-25T10:55:31.951Z</time>
      </trkpt>
      <trkpt lat="45.99599" lon="4.61833">
        <ele>381.5</ele>
        <time>2015-10-25T10:55:33.98Z</time>
      </trkpt>
      <trkpt lat="45.99598" lon="4.61837">
        <ele>381.799987793</ele>
        <time>2015-10-25T10:55:34.952Z</time>
      </trkpt>
      <trkpt lat="45.99597" lon="4.61848">
        <ele>383.100006104</ele>
        <time>2015-10-25T10:55:37.981Z</time>
      </trkpt>
      <trkpt lat="45.99596" lon="4.61852">
        <ele>383.100006104</ele>
        <time>2015-10-25T10:55:38.955Z</time>
      </trkpt>
      <trkpt lat="45.99592" lon="4.61862">
        <ele>383.5</ele>
        <time>2015-10-25T10:55:40.978Z</time>
      </trkpt>
      <trkpt lat="45.9959" lon="4.61867">
        <ele>383.799987793</ele>
        <time>2015-10-25T10:55:41.952Z</time>
      </trkpt>
      <trkpt lat="45.99586" lon="4.61878">
        <ele>384.5</ele>
        <time>2015-10-25T10:55:43.981Z</time>
      </trkpt>
      <trkpt lat="45.99584" lon="4.61883">
        <ele>384.600006104</ele>
        <time>2015-10-25T10:55:44.955Z</time>
      </trkpt>
      <trkpt lat="45.9958" lon="4.61894">
        <ele>384.700012207</ele>
        <time>2015-10-25T10:55:46.989Z</time>
      </trkpt>
      <trkpt lat="45.99577" lon="4.619">
        <ele>384.399993896</ele>
        <time>2015-10-25T10:55:47.953Z</time>
      </trkpt>
      <trkpt lat="45.99575" lon="4.61906">
        <ele>384.200012207</ele>
        <time>2015-10-25T10:55:48.978Z</time>
      </trkpt>
      <trkpt lat="45.99573" lon="4.61913">
        <ele>384</ele>
        <time>2015-10-25T10:55:49.955Z</time>
      </trkpt>
      <trkpt lat="45.99571" lon="4.61919">
        <ele>383.799987793</ele>
        <time>2015-10-25T10:55:50.979Z</time>
      </trkpt>
      <trkpt lat="45.99569" lon="4.61925">
        <ele>383.799987793</ele>
        <time>2015-10-25T10:55:51.954Z</time>
      </trkpt>
      <trkpt lat="45.99567" lon="4.61931">
        <ele>383.5</ele>
        <time>2015-10-25T10:55:52.978Z</time>
      </trkpt>
      <trkpt lat="45.99565" lon="4.61937">
        <ele>383.100006104</ele>
        <time>2015-10-25T10:55:53.952Z</time>
      </trkpt>
      <trkpt lat="45.99562" lon="4.61942">
        <ele>382.799987793</ele>
        <time>2015-10-25T10:55:54.986Z</time>
      </trkpt>
      <trkpt lat="45.9956" lon="4.61948">
        <ele>382.899993896</ele>
        <time>2015-10-25T10:55:55.951Z</time>
      </trkpt>
      <trkpt lat="45.99557" lon="4.61954">
        <ele>382.700012207</ele>
        <time>2015-10-25T10:55:56.996Z</time>
      </trkpt>
      <trkpt lat="45.99554" lon="4.6196">
        <ele>382.600006104</ele>
        <time>2015-10-25T10:55:57.957Z</time>
      </trkpt>
      <trkpt lat="45.99553" lon="4.61966">
        <ele>382.399993896</ele>
        <time>2015-10-25T10:55:58.978Z</time>
      </trkpt>
      <trkpt lat="45.9955" lon="4.61973">
        <ele>381.700012207</ele>
        <time>2015-10-25T10:55:59.955Z</time>
      </trkpt>
      <trkpt lat="45.99546" lon="4.61979">
        <ele>381.200012207</ele>
        <time>2015-10-25T10:56:00.978Z</time>
      </trkpt>
      <trkpt lat="45.99544" lon="4.61986">
        <ele>381</ele>
        <time>2015-10-25T10:56:01.95Z</time>
      </trkpt>
      <trkpt lat="45.99541" lon="4.61993">
        <ele>380.5</ele>
        <time>2015-10-25T10:56:02.981Z</time>
      </trkpt>
      <trkpt lat="45.99537" lon="4.62001">
        <ele>380.100006104</ele>
        <time>2015-10-25T10:56:03.952Z</time>
      </trkpt>
      <trkpt lat="45.99533" lon="4.62009">
        <ele>379.5</ele>
        <time>2015-10-25T10:56:04.978Z</time>
      </trkpt>
      <trkpt lat="45.9953" lon="4.62018">
        <ele>379.100006104</ele>
        <time>2015-10-25T10:56:05.951Z</time>
      </trkpt>
      <trkpt lat="45.99525" lon="4.62026">
        <ele>378.799987793</ele>
        <time>2015-10-25T10:56:07.119Z</time>
      </trkpt>
      <trkpt lat="45.99521" lon="4.62035">
        <ele>378.200012207</ele>
        <time>2015-10-25T10:56:07.959Z</time>
      </trkpt>
      <trkpt lat="45.99518" lon="4.62044">
        <ele>377.899993896</ele>
        <time>2015-10-25T10:56:09.024Z</time>
      </trkpt>
      <trkpt lat="45.99515" lon="4.62054">
        <ele>377.5</ele>
        <time>2015-10-25T10:56:09.948Z</time>
      </trkpt>
      <trkpt lat="45.99513" lon="4.62064">
        <ele>377.299987793</ele>
        <time>2015-10-25T10:56:10.978Z</time>
      </trkpt>
      <trkpt lat="45.99512" lon="4.62074">
        <ele>376.799987793</ele>
        <time>2015-10-25T10:56:11.953Z</time>
      </trkpt>
      <trkpt lat="45.99512" lon="4.62084">
        <ele>376.700012207</ele>
        <time>2015-10-25T10:56:12.978Z</time>
      </trkpt>
      <trkpt lat="45.99513" lon="4.62094">
        <ele>376.399993896</ele>
        <time>2015-10-25T10:56:13.961Z</time>
      </trkpt>
      <trkpt lat="45.99515" lon="4.62104">
        <ele>376.299987793</ele>
        <time>2015-10-25T10:56:14.981Z</time>
      </trkpt>
      <trkpt lat="45.99517" lon="4.62113">
        <ele>376</ele>
        <time>2015-10-25T10:56:15.961Z</time>
      </trkpt>
      <trkpt lat="45.99519" lon="4.62121">
        <ele>375.700012207</ele>
        <time>2015-10-25T10:56:16.999Z</time>
      </trkpt>
      <trkpt lat="45.99521" lon="4.62129">
        <ele>375.399993896</ele>
        <time>2015-10-25T10:56:17.969Z</time>
      </trkpt>
      <trkpt lat="45.99521" lon="4.62136">
        <ele>375.200012207</ele>
        <time>2015-10-25T10:56:19.067Z</time>
      </trkpt>
      <trkpt lat="45.99519" lon="4.62142">
        <ele>375.399993896</ele>
        <time>2015-10-25T10:56:19.978Z</time>
      </trkpt>
      <trkpt lat="45.99515" lon="4.6215">
        <ele>375.600006104</ele>
        <time>2015-10-25T10:56:21.983Z</time>
      </trkpt>
      <trkpt lat="45.99512" lon="4.62152">
        <ele>375.600006104</ele>
        <time>2015-10-25T10:56:22.955Z</time>
      </trkpt>
      <trkpt lat="45.99506" lon="4.62157">
        <ele>375.600006104</ele>
        <time>2015-10-25T10:56:24.987Z</time>
      </trkpt>
      <trkpt lat="45.99504" lon="4.6216">
        <ele>375.399993896</ele>
        <time>2015-10-25T10:56:25.95Z</time>
      </trkpt>
      <trkpt lat="45.99499" lon="4.62166">
        <ele>375.399993896</ele>
        <time>2015-10-25T10:56:27.989Z</time>
      </trkpt>
      <trkpt lat="45.99496" lon="4.62168">
        <ele>375.5</ele>
        <time>2015-10-25T10:56:28.955Z</time>
      </trkpt>
      <trkpt lat="45.99491" lon="4.62172">
        <ele>375.5</ele>
        <time>2015-10-25T10:56:30.978Z</time>
      </trkpt>
      <trkpt lat="45.99488" lon="4.62175">
        <ele>375.600006104</ele>
        <time>2015-10-25T10:56:31.951Z</time>
      </trkpt>
      <trkpt lat="45.99483" lon="4.6218">
        <ele>375.799987793</ele>
        <time>2015-10-25T10:56:33.995Z</time>
      </trkpt>
      <trkpt lat="45.9948" lon="4.62182">
        <ele>375.899993896</ele>
        <time>2015-10-25T10:56:34.951Z</time>
      </trkpt>
      <trkpt lat="45.99475" lon="4.62188">
        <ele>376.100006104</ele>
        <time>2015-10-25T10:56:36.978Z</time>
      </trkpt>
      <trkpt lat="45.99472" lon="4.62192">
        <ele>376.100006104</ele>
        <time>2015-10-25T10:56:37.955Z</time>
      </trkpt>
      <trkpt lat="45.99465" lon="4.62196">
        <ele>376.799987793</ele>
        <time>2015-10-25T10:56:40.054Z</time>
      </trkpt>
      <trkpt lat="45.9946" lon="4.62197">
        <ele>376.899993896</ele>
        <time>2015-10-25T10:56:40.95Z</time>
      </trkpt>
      <trkpt lat="45.99456" lon="4.62197">
        <ele>377.100006104</ele>
        <time>2015-10-25T10:56:41.991Z</time>
      </trkpt>
      <trkpt lat="45.99451" lon="4.62195">
        <ele>377.100006104</ele>
        <time>2015-10-25T10:56:42.955Z</time>
      </trkpt>
      <trkpt lat="45.99446" lon="4.62191">
        <ele>377.700012207</ele>
        <time>2015-10-25T10:56:43.978Z</time>
      </trkpt>
      <trkpt lat="45.99442" lon="4.62188">
        <ele>378.399993896</ele>
        <time>2015-10-25T10:56:44.955Z</time>
      </trkpt>
      <trkpt lat="45.99434" lon="4.62182">
        <ele>378.899993896</ele>
        <time>2015-10-25T10:56:46.984Z</time>
      </trkpt>
      <trkpt lat="45.99431" lon="4.62179">
        <ele>379.100006104</ele>
        <time>2015-10-25T10:56:47.953Z</time>
      </trkpt>
      <trkpt lat="45.99423" lon="4.62174">
        <ele>379.399993896</ele>
        <time>2015-10-25T10:56:49.997Z</time>
      </trkpt>
      <trkpt lat="45.99419" lon="4.62172">
        <ele>379.799987793</ele>
        <time>2015-10-25T10:56:50.951Z</time>
      </trkpt>
      <trkpt lat="45.99412" lon="4.62168">
        <ele>380.299987793</ele>
        <time>2015-10-25T10:56:52.978Z</time>
      </trkpt>
      <trkpt lat="45.99408" lon="4.62166">
        <ele>380.600006104</ele>
        <time>2015-10-25T10:56:53.956Z</time>
      </trkpt>
      <trkpt lat="45.99399" lon="4.62163">
        <ele>380.799987793</ele>
        <time>2015-10-25T10:56:55.982Z</time>
      </trkpt>
      <trkpt lat="45.99395" lon="4.62161">
        <ele>380.700012207</ele>
        <time>2015-10-25T10:56:56.95Z</time>
      </trkpt>
      <trkpt lat="45.9939" lon="4.6216">
        <ele>380.799987793</ele>
        <time>2015-10-25T10:56:57.991Z</time>
      </trkpt>
      <trkpt lat="45.99386" lon="4.62159">
        <ele>380.600006104</ele>
        <time>2015-10-25T10:56:58.951Z</time>
      </trkpt>
      <trkpt lat="45.99381" lon="4.62159">
        <ele>379.5</ele>
        <time>2015-10-25T10:56:59.979Z</time>
      </trkpt>
      <trkpt lat="45.99376" lon="4.62158">
        <ele>379.299987793</ele>
        <time>2015-10-25T10:57:00.95Z</time>
      </trkpt>
      <trkpt lat="45.99371" lon="4.62157">
        <ele>379.100006104</ele>
        <time>2015-10-25T10:57:01.981Z</time>
      </trkpt>
      <trkpt lat="45.99366" lon="4.62156">
        <ele>378.899993896</ele>
        <time>2015-10-25T10:57:02.987Z</time>
      </trkpt>
      <trkpt lat="45.99361" lon="4.62155">
        <ele>378.799987793</ele>
        <time>2015-10-25T10:57:03.981Z</time>
      </trkpt>
      <trkpt lat="45.99356" lon="4.62155">
        <ele>378.600006104</ele>
        <time>2015-10-25T10:57:04.951Z</time>
      </trkpt>
      <trkpt lat="45.99351" lon="4.62155">
        <ele>378.600006104</ele>
        <time>2015-10-25T10:57:05.979Z</time>
      </trkpt>
      <trkpt lat="45.99346" lon="4.62156">
        <ele>378.5</ele>
        <time>2015-10-25T10:57:06.955Z</time>
      </trkpt>
      <trkpt lat="45.9934" lon="4.62157">
        <ele>378.399993896</ele>
        <time>2015-10-25T10:57:08.002Z</time>
      </trkpt>
      <trkpt lat="45.99336" lon="4.62161">
        <ele>378.100006104</ele>
        <time>2015-10-25T10:57:08.955Z</time>
      </trkpt>
      <trkpt lat="45.99331" lon="4.62166">
        <ele>378</ele>
        <time>2015-10-25T10:57:10.02Z</time>
      </trkpt>
      <trkpt lat="45.99328" lon="4.62172">
        <ele>378</ele>
        <time>2015-10-25T10:57:10.952Z</time>
      </trkpt>
      <trkpt lat="45.99325" lon="4.62179">
        <ele>378</ele>
        <time>2015-10-25T10:57:11.983Z</time>
      </trkpt>
      <trkpt lat="45.99323" lon="4.62186">
        <ele>378</ele>
        <time>2015-10-25T10:57:12.974Z</time>
      </trkpt>
      <trkpt lat="45.99321" lon="4.62193">
        <ele>378</ele>
        <time>2015-10-25T10:57:13.978Z</time>
      </trkpt>
      <trkpt lat="45.9932" lon="4.62201">
        <ele>377.899993896</ele>
        <time>2015-10-25T10:57:14.955Z</time>
      </trkpt>
      <trkpt lat="45.99318" lon="4.62208">
        <ele>377.700012207</ele>
        <time>2015-10-25T10:57:15.98Z</time>
      </trkpt>
      <trkpt lat="45.99316" lon="4.62215">
        <ele>377.5</ele>
        <time>2015-10-25T10:57:16.951Z</time>
      </trkpt>
      <trkpt lat="45.99313" lon="4.62227">
        <ele>377.600006104</ele>
        <time>2015-10-25T10:57:18.981Z</time>
      </trkpt>
      <trkpt lat="45.99311" lon="4.62232">
        <ele>377.5</ele>
        <time>2015-10-25T10:57:19.954Z</time>
      </trkpt>
      <trkpt lat="45.99307" lon="4.62235">
        <ele>377.200012207</ele>
        <time>2015-10-25T10:57:21.031Z</time>
      </trkpt>
      <trkpt lat="45.99302" lon="4.62235">
        <ele>377.200012207</ele>
        <time>2015-10-25T10:57:21.953Z</time>
      </trkpt>
      <trkpt lat="45.99296" lon="4.62233">
        <ele>377</ele>
        <time>2015-10-25T10:57:22.989Z</time>
      </trkpt>
      <trkpt lat="45.99288" lon="4.62232">
        <ele>376.799987793</ele>
        <time>2015-10-25T10:57:23.956Z</time>
      </trkpt>
      <trkpt lat="45.99281" lon="4.62233">
        <ele>376.600006104</ele>
        <time>2015-10-25T10:57:24.981Z</time>
      </trkpt>
      <trkpt lat="45.99273" lon="4.62234">
        <ele>376</ele>
        <time>2015-10-25T10:57:25.951Z</time>
      </trkpt>
      <trkpt lat="45.99265" lon="4.62237">
        <ele>375.299987793</ele>
        <time>2015-10-25T10:57:26.981Z</time>
      </trkpt>
      <trkpt lat="45.99258" lon="4.6224">
        <ele>374.899993896</ele>
        <time>2015-10-25T10:57:27.951Z</time>
      </trkpt>
      <trkpt lat="45.9925" lon="4.62243">
        <ele>374.299987793</ele>
        <time>2015-10-25T10:57:28.977Z</time>
      </trkpt>
      <trkpt lat="45.99242" lon="4.62248">
        <ele>373.600006104</ele>
        <time>2015-10-25T10:57:29.952Z</time>
      </trkpt>
      <trkpt lat="45.99235" lon="4.62253">
        <ele>373.299987793</ele>
        <time>2015-10-25T10:57:30.977Z</time>
      </trkpt>
      <trkpt lat="45.99227" lon="4.62259">
        <ele>372.700012207</ele>
        <time>2015-10-25T10:57:31.95Z</time>
      </trkpt>
      <trkpt lat="45.99219" lon="4.62265">
        <ele>371.799987793</ele>
        <time>2015-10-25T10:57:32.977Z</time>
      </trkpt>
      <trkpt lat="45.99212" lon="4.62273">
        <ele>371.399993896</ele>
        <time>2015-10-25T10:57:33.952Z</time>
      </trkpt>
      <trkpt lat="45.99212" lon="4.62273">
        <ele>371.399993896</ele>
        <time>2015-10-25T10:57:34.015Z</time>
      </trkpt>
      <trkpt lat="45.99206" lon="4.62282">
        <ele>370.200012207</ele>
        <time>2015-10-25T10:57:34.951Z</time>
      </trkpt>
      <trkpt lat="45.99206" lon="4.62282">
        <ele>370.200012207</ele>
        <time>2015-10-25T10:57:34.979Z</time>
      </trkpt>
      <trkpt lat="45.992" lon="4.62292">
        <ele>369.600006104</ele>
        <time>2015-10-25T10:57:35.952Z</time>
      </trkpt>
      <trkpt lat="45.99195" lon="4.62302">
        <ele>369.200012207</ele>
        <time>2015-10-25T10:57:36.977Z</time>
      </trkpt>
      <trkpt lat="45.9919" lon="4.62313">
        <ele>368.899993896</ele>
        <time>2015-10-25T10:57:37.955Z</time>
      </trkpt>
      <trkpt lat="45.99188" lon="4.62325">
        <ele>368.5</ele>
        <time>2015-10-25T10:57:38.998Z</time>
      </trkpt>
      <trkpt lat="45.99186" lon="4.62336">
        <ele>368.200012207</ele>
        <time>2015-10-25T10:57:39.955Z</time>
      </trkpt>
      <trkpt lat="45.99184" lon="4.62348">
        <ele>367.899993896</ele>
        <time>2015-10-25T10:57:40.98Z</time>
      </trkpt>
      <trkpt lat="45.99183" lon="4.62359">
        <ele>367.600006104</ele>
        <time>2015-10-25T10:57:41.966Z</time>
      </trkpt>
      <trkpt lat="45.99182" lon="4.6237">
        <ele>367.200012207</ele>
        <time>2015-10-25T10:57:43.014Z</time>
      </trkpt>
      <trkpt lat="45.99181" lon="4.6238">
        <ele>367.100006104</ele>
        <time>2015-10-25T10:57:43.953Z</time>
      </trkpt>
      <trkpt lat="45.9918" lon="4.62389">
        <ele>367.100006104</ele>
        <time>2015-10-25T10:57:44.985Z</time>
      </trkpt>
      <trkpt lat="45.9918" lon="4.62399">
        <ele>366.799987793</ele>
        <time>2015-10-25T10:57:45.957Z</time>
      </trkpt>
      <trkpt lat="45.99179" lon="4.62407">
        <ele>366.5</ele>
        <time>2015-10-25T10:57:46.998Z</time>
      </trkpt>
      <trkpt lat="45.99179" lon="4.62416">
        <ele>366.299987793</ele>
        <time>2015-10-25T10:57:47.95Z</time>
      </trkpt>
      <trkpt lat="45.99178" lon="4.62423">
        <ele>366.399993896</ele>
        <time>2015-10-25T10:57:48.981Z</time>
      </trkpt>
      <trkpt lat="45.99177" lon="4.6243">
        <ele>366.399993896</ele>
        <time>2015-10-25T10:57:49.954Z</time>
      </trkpt>
      <trkpt lat="45.99176" lon="4.62442">
        <ele>366.200012207</ele>
        <time>2015-10-25T10:57:51.983Z</time>
      </trkpt>
      <trkpt lat="45.99176" lon="4.62448">
        <ele>366.100006104</ele>
        <time>2015-10-25T10:57:52.951Z</time>
      </trkpt>
      <trkpt lat="45.99175" lon="4.6246">
        <ele>365.899993896</ele>
        <time>2015-10-25T10:57:54.981Z</time>
      </trkpt>
      <trkpt lat="45.99175" lon="4.62466">
        <ele>365.600006104</ele>
        <time>2015-10-25T10:57:55.956Z</time>
      </trkpt>
      <trkpt lat="45.99173" lon="4.62477">
        <ele>365.299987793</ele>
        <time>2015-10-25T10:57:57.98Z</time>
      </trkpt>
      <trkpt lat="45.99172" lon="4.62483">
        <ele>365.399993896</ele>
        <time>2015-10-25T10:57:58.956Z</time>
      </trkpt>
      <trkpt lat="45.99169" lon="4.62493">
        <ele>365.899993896</ele>
        <time>2015-10-25T10:58:00.993Z</time>
      </trkpt>
      <trkpt lat="45.99167" lon="4.62499">
        <ele>365.899993896</ele>
        <time>2015-10-25T10:58:01.953Z</time>
      </trkpt>
      <trkpt lat="45.99163" lon="4.6251">
        <ele>366.299987793</ele>
        <time>2015-10-25T10:58:03.985Z</time>
      </trkpt>
      <trkpt lat="45.9916" lon="4.62515">
        <ele>366.299987793</ele>
        <time>2015-10-25T10:58:04.991Z</time>
      </trkpt>
      <trkpt lat="45.99158" lon="4.6252">
        <ele>366.600006104</ele>
        <time>2015-10-25T10:58:06.04Z</time>
      </trkpt>
      <trkpt lat="45.99155" lon="4.62526">
        <ele>366.5</ele>
        <time>2015-10-25T10:58:06.95Z</time>
      </trkpt>
      <trkpt lat="45.99152" lon="4.62531">
        <ele>366.5</ele>
        <time>2015-10-25T10:58:07.98Z</time>
      </trkpt>
      <trkpt lat="45.99149" lon="4.62537">
        <ele>366.600006104</ele>
        <time>2015-10-25T10:58:08.95Z</time>
      </trkpt>
      <trkpt lat="45.99147" lon="4.62542">
        <ele>366.700012207</ele>
        <time>2015-10-25T10:58:10.064Z</time>
      </trkpt>
      <trkpt lat="45.99143" lon="4.62547">
        <ele>366.700012207</ele>
        <time>2015-10-25T10:58:10.954Z</time>
      </trkpt>
      <trkpt lat="45.9914" lon="4.62551">
        <ele>366.600006104</ele>
        <time>2015-10-25T10:58:11.982Z</time>
      </trkpt>
      <trkpt lat="45.99136" lon="4.62555">
        <ele>366.399993896</ele>
        <time>2015-10-25T10:58:12.95Z</time>
      </trkpt>
      <trkpt lat="45.99132" lon="4.62559">
        <ele>366.200012207</ele>
        <time>2015-10-25T10:58:14.011Z</time>
      </trkpt>
      <trkpt lat="45.99126" lon="4.62562">
        <ele>366.299987793</ele>
        <time>2015-10-25T10:58:14.95Z</time>
      </trkpt>
      <trkpt lat="45.99121" lon="4.62566">
        <ele>366.299987793</ele>
        <time>2015-10-25T10:58:15.983Z</time>
      </trkpt>
      <trkpt lat="45.99115" lon="4.6257">
        <ele>366.100006104</ele>
        <time>2015-10-25T10:58:16.954Z</time>
      </trkpt>
      <trkpt lat="45.9911" lon="4.62574">
        <ele>366.100006104</ele>
        <time>2015-10-25T10:58:17.978Z</time>
      </trkpt>
      <trkpt lat="45.99104" lon="4.62579">
        <ele>365.799987793</ele>
        <time>2015-10-25T10:58:18.95Z</time>
      </trkpt>
      <trkpt lat="45.99098" lon="4.62583">
        <ele>365.5</ele>
        <time>2015-10-25T10:58:20.004Z</time>
      </trkpt>
      <trkpt lat="45.99092" lon="4.62587">
        <ele>365.299987793</ele>
        <time>2015-10-25T10:58:20.953Z</time>
      </trkpt>
      <trkpt lat="45.99085" lon="4.62591">
        <ele>364.899993896</ele>
        <time>2015-10-25T10:58:21.983Z</time>
      </trkpt>
      <trkpt lat="45.99079" lon="4.62596">
        <ele>363.700012207</ele>
        <time>2015-10-25T10:58:22.954Z</time>
      </trkpt>
      <trkpt lat="45.99072" lon="4.626">
        <ele>363.100006104</ele>
        <time>2015-10-25T10:58:23.996Z</time>
      </trkpt>
      <trkpt lat="45.99064" lon="4.62604">
        <ele>362.600006104</ele>
        <time>2015-10-25T10:58:24.954Z</time>
      </trkpt>
      <trkpt lat="45.99056" lon="4.62605">
        <ele>361.899993896</ele>
        <time>2015-10-25T10:58:25.977Z</time>
      </trkpt>
      <trkpt lat="45.99047" lon="4.62606">
        <ele>361.299987793</ele>
        <time>2015-10-25T10:58:26.95Z</time>
      </trkpt>
      <trkpt lat="45.99038" lon="4.62604">
        <ele>361.100006104</ele>
        <time>2015-10-25T10:58:27.983Z</time>
      </trkpt>
      <trkpt lat="45.9903" lon="4.62601">
        <ele>360.5</ele>
        <time>2015-10-25T10:58:28.953Z</time>
      </trkpt>
      <trkpt lat="45.99021" lon="4.62597">
        <ele>359.799987793</ele>
        <time>2015-10-25T10:58:29.981Z</time>
      </trkpt>
      <trkpt lat="45.99012" lon="4.62592">
        <ele>359.100006104</ele>
        <time>2015-10-25T10:58:30.956Z</time>
      </trkpt>
      <trkpt lat="45.99012" lon="4.62592">
        <ele>359.100006104</ele>
        <time>2015-10-25T10:58:30.982Z</time>
      </trkpt>
      <trkpt lat="45.99003" lon="4.62587">
        <ele>358.5</ele>
        <time>2015-10-25T10:58:31.954Z</time>
      </trkpt>
      <trkpt lat="45.99003" lon="4.62587">
        <ele>358.5</ele>
        <time>2015-10-25T10:58:31.983Z</time>
      </trkpt>
      <trkpt lat="45.98993" lon="4.62582">
        <ele>358.200012207</ele>
        <time>2015-10-25T10:58:32.953Z</time>
      </trkpt>
      <trkpt lat="45.98993" lon="4.62582">
        <ele>358.200012207</ele>
        <time>2015-10-25T10:58:32.981Z</time>
      </trkpt>
      <trkpt lat="45.98984" lon="4.62577">
        <ele>357.899993896</ele>
        <time>2015-10-25T10:58:33.951Z</time>
      </trkpt>
      <trkpt lat="45.98984" lon="4.62577">
        <ele>357.899993896</ele>
        <time>2015-10-25T10:58:33.987Z</time>
      </trkpt>
      <trkpt lat="45.98975" lon="4.62571">
        <ele>357.399993896</ele>
        <time>2015-10-25T10:58:34.95Z</time>
      </trkpt>
      <trkpt lat="45.98975" lon="4.62571">
        <ele>357.399993896</ele>
        <time>2015-10-25T10:58:35.004Z</time>
      </trkpt>
      <trkpt lat="45.98966" lon="4.62567">
        <ele>356.799987793</ele>
        <time>2015-10-25T10:58:35.953Z</time>
      </trkpt>
      <trkpt lat="45.98966" lon="4.62567">
        <ele>356.799987793</ele>
        <time>2015-10-25T10:58:35.981Z</time>
      </trkpt>
      <trkpt lat="45.98957" lon="4.62561">
        <ele>356.5</ele>
        <time>2015-10-25T10:58:36.957Z</time>
      </trkpt>
      <trkpt lat="45.98957" lon="4.62561">
        <ele>356.5</ele>
        <time>2015-10-25T10:58:36.992Z</time>
      </trkpt>
      <trkpt lat="45.98948" lon="4.62556">
        <ele>355.700012207</ele>
        <time>2015-10-25T10:58:37.95Z</time>
      </trkpt>
      <trkpt lat="45.98948" lon="4.62556">
        <ele>355.700012207</ele>
        <time>2015-10-25T10:58:38.016Z</time>
      </trkpt>
      <trkpt lat="45.98939" lon="4.62551">
        <ele>355.200012207</ele>
        <time>2015-10-25T10:58:38.953Z</time>
      </trkpt>
      <trkpt lat="45.98939" lon="4.62551">
        <ele>355.200012207</ele>
        <time>2015-10-25T10:58:38.981Z</time>
      </trkpt>
      <trkpt lat="45.9893" lon="4.62545">
        <ele>354.5</ele>
        <time>2015-10-25T10:58:39.967Z</time>
      </trkpt>
      <trkpt lat="45.9893" lon="4.62545">
        <ele>354.5</ele>
        <time>2015-10-25T10:58:40.042Z</time>
      </trkpt>
      <trkpt lat="45.98922" lon="4.6254">
        <ele>353.799987793</ele>
        <time>2015-10-25T10:58:40.95Z</time>
      </trkpt>
      <trkpt lat="45.98922" lon="4.6254">
        <ele>353.799987793</ele>
        <time>2015-10-25T10:58:41.004Z</time>
      </trkpt>
      <trkpt lat="45.98913" lon="4.62535">
        <ele>353.200012207</ele>
        <time>2015-10-25T10:58:41.955Z</time>
      </trkpt>
      <trkpt lat="45.98913" lon="4.62535">
        <ele>353.200012207</ele>
        <time>2015-10-25T10:58:41.983Z</time>
      </trkpt>
      <trkpt lat="45.98904" lon="4.6253">
        <ele>352.5</ele>
        <time>2015-10-25T10:58:42.953Z</time>
      </trkpt>
      <trkpt lat="45.98904" lon="4.6253">
        <ele>352.5</ele>
        <time>2015-10-25T10:58:42.981Z</time>
      </trkpt>
      <trkpt lat="45.98894" lon="4.62526">
        <ele>351.799987793</ele>
        <time>2015-10-25T10:58:43.948Z</time>
      </trkpt>
      <trkpt lat="45.98894" lon="4.62526">
        <ele>351.799987793</ele>
        <time>2015-10-25T10:58:43.981Z</time>
      </trkpt>
      <trkpt lat="45.98885" lon="4.62521">
        <ele>351.100006104</ele>
        <time>2015-10-25T10:58:44.95Z</time>
      </trkpt>
      <trkpt lat="45.98885" lon="4.62521">
        <ele>351.100006104</ele>
        <time>2015-10-25T10:58:45.039Z</time>
      </trkpt>
      <trkpt lat="45.98876" lon="4.62516">
        <ele>350.399993896</ele>
        <time>2015-10-25T10:58:45.951Z</time>
      </trkpt>
      <trkpt lat="45.98876" lon="4.62516">
        <ele>350.399993896</ele>
        <time>2015-10-25T10:58:46.006Z</time>
      </trkpt>
      <trkpt lat="45.98867" lon="4.62511">
        <ele>349.799987793</ele>
        <time>2015-10-25T10:58:46.956Z</time>
      </trkpt>
      <trkpt lat="45.98867" lon="4.62511">
        <ele>349.799987793</ele>
        <time>2015-10-25T10:58:46.984Z</time>
      </trkpt>
      <trkpt lat="45.98858" lon="4.62506">
        <ele>349.200012207</ele>
        <time>2015-10-25T10:58:47.954Z</time>
      </trkpt>
      <trkpt lat="45.98858" lon="4.62506">
        <ele>349.200012207</ele>
        <time>2015-10-25T10:58:48.034Z</time>
      </trkpt>
      <trkpt lat="45.98849" lon="4.62501">
        <ele>348.899993896</ele>
        <time>2015-10-25T10:58:48.95Z</time>
      </trkpt>
      <trkpt lat="45.98849" lon="4.62501">
        <ele>348.899993896</ele>
        <time>2015-10-25T10:58:49.064Z</time>
      </trkpt>
      <trkpt lat="45.9884" lon="4.62497">
        <ele>348.399993896</ele>
        <time>2015-10-25T10:58:49.948Z</time>
      </trkpt>
      <trkpt lat="45.9884" lon="4.62497">
        <ele>348.399993896</ele>
        <time>2015-10-25T10:58:50.022Z</time>
      </trkpt>
      <trkpt lat="45.98831" lon="4.62492">
        <ele>347.899993896</ele>
        <time>2015-10-25T10:58:50.953Z</time>
      </trkpt>
      <trkpt lat="45.98831" lon="4.62492">
        <ele>347.899993896</ele>
        <time>2015-10-25T10:58:50.981Z</time>
      </trkpt>
      <trkpt lat="45.98822" lon="4.62489">
        <ele>347.5</ele>
        <time>2015-10-25T10:58:51.956Z</time>
      </trkpt>
      <trkpt lat="45.98814" lon="4.62486">
        <ele>347</ele>
        <time>2015-10-25T10:58:52.977Z</time>
      </trkpt>
      <trkpt lat="45.98806" lon="4.62485">
        <ele>346.299987793</ele>
        <time>2015-10-25T10:58:53.955Z</time>
      </trkpt>
      <trkpt lat="45.98798" lon="4.62483">
        <ele>345.899993896</ele>
        <time>2015-10-25T10:58:54.98Z</time>
      </trkpt>
      <trkpt lat="45.98789" lon="4.62482">
        <ele>345.600006104</ele>
        <time>2015-10-25T10:58:55.953Z</time>
      </trkpt>
      <trkpt lat="45.98789" lon="4.62482">
        <ele>345.600006104</ele>
        <time>2015-10-25T10:58:55.981Z</time>
      </trkpt>
      <trkpt lat="45.9878" lon="4.62481">
        <ele>345.799987793</ele>
        <time>2015-10-25T10:58:56.953Z</time>
      </trkpt>
      <trkpt lat="45.98771" lon="4.6248">
        <ele>345.799987793</ele>
        <time>2015-10-25T10:58:58.044Z</time>
      </trkpt>
      <trkpt lat="45.98762" lon="4.62479">
        <ele>345.399993896</ele>
        <time>2015-10-25T10:58:58.956Z</time>
      </trkpt>
      <trkpt lat="45.98753" lon="4.62477">
        <ele>345.100006104</ele>
        <time>2015-10-25T10:58:59.979Z</time>
      </trkpt>
      <trkpt lat="45.98744" lon="4.62476">
        <ele>344.799987793</ele>
        <time>2015-10-25T10:59:00.97Z</time>
      </trkpt>
      <trkpt lat="45.98736" lon="4.62474">
        <ele>344.600006104</ele>
        <time>2015-10-25T10:59:02.015Z</time>
      </trkpt>
      <trkpt lat="45.98728" lon="4.62474">
        <ele>344.200012207</ele>
        <time>2015-10-25T10:59:02.954Z</time>
      </trkpt>
      <trkpt lat="45.9872" lon="4.62474">
        <ele>343.899993896</ele>
        <time>2015-10-25T10:59:03.983Z</time>
      </trkpt>
      <trkpt lat="45.98712" lon="4.62475">
        <ele>343.5</ele>
        <time>2015-10-25T10:59:04.95Z</time>
      </trkpt>
      <trkpt lat="45.98705" lon="4.62476">
        <ele>343</ele>
        <time>2015-10-25T10:59:05.981Z</time>
      </trkpt>
      <trkpt lat="45.98699" lon="4.62477">
        <ele>342.399993896</ele>
        <time>2015-10-25T10:59:06.953Z</time>
      </trkpt>
      <trkpt lat="45.98691" lon="4.62477">
        <ele>341.899993896</ele>
        <time>2015-10-25T10:59:08.044Z</time>
      </trkpt>
      <trkpt lat="45.98684" lon="4.62477">
        <ele>341.600006104</ele>
        <time>2015-10-25T10:59:08.953Z</time>
      </trkpt>
      <trkpt lat="45.98677" lon="4.62479">
        <ele>341.299987793</ele>
        <time>2015-10-25T10:59:09.991Z</time>
      </trkpt>
      <trkpt lat="45.9867" lon="4.6248">
        <ele>341</ele>
        <time>2015-10-25T10:59:10.95Z</time>
      </trkpt>
      <trkpt lat="45.98665" lon="4.62481">
        <ele>340.799987793</ele>
        <time>2015-10-25T10:59:11.983Z</time>
      </trkpt>
      <trkpt lat="45.98659" lon="4.62483">
        <ele>340.5</ele>
        <time>2015-10-25T10:59:12.948Z</time>
      </trkpt>
      <trkpt lat="45.98654" lon="4.62485">
        <ele>340.299987793</ele>
        <time>2015-10-25T10:59:13.98Z</time>
      </trkpt>
      <trkpt lat="45.98648" lon="4.62487">
        <ele>340.299987793</ele>
        <time>2015-10-25T10:59:14.953Z</time>
      </trkpt>
      <trkpt lat="45.98643" lon="4.62488">
        <ele>340.399993896</ele>
        <time>2015-10-25T10:59:15.983Z</time>
      </trkpt>
      <trkpt lat="45.98638" lon="4.62489">
        <ele>340.5</ele>
        <time>2015-10-25T10:59:16.953Z</time>
      </trkpt>
      <trkpt lat="45.98632" lon="4.62492">
        <ele>341.100006104</ele>
        <time>2015-10-25T10:59:17.981Z</time>
      </trkpt>
      <trkpt lat="45.98626" lon="4.62494">
        <ele>341.299987793</ele>
        <time>2015-10-25T10:59:18.95Z</time>
      </trkpt>
      <trkpt lat="45.98621" lon="4.62495">
        <ele>341.399993896</ele>
        <time>2015-10-25T10:59:19.976Z</time>
      </trkpt>
      <trkpt lat="45.98615" lon="4.62496">
        <ele>341.5</ele>
        <time>2015-10-25T10:59:20.953Z</time>
      </trkpt>
      <trkpt lat="45.98609" lon="4.62497">
        <ele>342</ele>
        <time>2015-10-25T10:59:22.002Z</time>
      </trkpt>
      <trkpt lat="45.98604" lon="4.62497">
        <ele>342.100006104</ele>
        <time>2015-10-25T10:59:22.95Z</time>
      </trkpt>
      <trkpt lat="45.98599" lon="4.62498">
        <ele>342.399993896</ele>
        <time>2015-10-25T10:59:23.978Z</time>
      </trkpt>
      <trkpt lat="45.98593" lon="4.62499">
        <ele>342.600006104</ele>
        <time>2015-10-25T10:59:24.95Z</time>
      </trkpt>
      <trkpt lat="45.98588" lon="4.62499">
        <ele>343.200012207</ele>
        <time>2015-10-25T10:59:25.98Z</time>
      </trkpt>
      <trkpt lat="45.98583" lon="4.625">
        <ele>343.700012207</ele>
        <time>2015-10-25T10:59:26.953Z</time>
      </trkpt>
      <trkpt lat="45.98574" lon="4.62502">
        <ele>344.200012207</ele>
        <time>2015-10-25T10:59:28.999Z</time>
      </trkpt>
      <trkpt lat="45.9857" lon="4.62503">
        <ele>344.799987793</ele>
        <time>2015-10-25T10:59:29.949Z</time>
      </trkpt>
      <trkpt lat="45.98563" lon="4.62505">
        <ele>345.700012207</ele>
        <time>2015-10-25T10:59:32.007Z</time>
      </trkpt>
      <trkpt lat="45.98559" lon="4.62506">
        <ele>346.100006104</ele>
        <time>2015-10-25T10:59:32.953Z</time>
      </trkpt>
      <trkpt lat="45.98552" lon="4.62509">
        <ele>347</ele>
        <time>2015-10-25T10:59:34.98Z</time>
      </trkpt>
      <trkpt lat="45.98549" lon="4.62509">
        <ele>347.299987793</ele>
        <time>2015-10-25T10:59:35.949Z</time>
      </trkpt>
      <trkpt lat="45.98542" lon="4.62511">
        <ele>347.899993896</ele>
        <time>2015-10-25T10:59:37.976Z</time>
      </trkpt>
      <trkpt lat="45.98539" lon="4.62511">
        <ele>348.200012207</ele>
        <time>2015-10-25T10:59:38.953Z</time>
      </trkpt>
      <trkpt lat="45.98533" lon="4.62512">
        <ele>348.5</ele>
        <time>2015-10-25T10:59:40.979Z</time>
      </trkpt>
      <trkpt lat="45.9853" lon="4.62513">
        <ele>348.899993896</ele>
        <time>2015-10-25T10:59:41.955Z</time>
      </trkpt>
      <trkpt lat="45.98524" lon="4.62515">
        <ele>349.5</ele>
        <time>2015-10-25T10:59:43.976Z</time>
      </trkpt>
      <trkpt lat="45.98521" lon="4.62516">
        <ele>349.899993896</ele>
        <time>2015-10-25T10:59:44.95Z</time>
      </trkpt>
      <trkpt lat="45.98514" lon="4.62516">
        <ele>350.600006104</ele>
        <time>2015-10-25T10:59:46.983Z</time>
      </trkpt>
      <trkpt lat="45.98511" lon="4.62516">
        <ele>350.600006104</ele>
        <time>2015-10-25T10:59:47.95Z</time>
      </trkpt>
      <trkpt lat="45.98502" lon="4.6252">
        <ele>351.399993896</ele>
        <time>2015-10-25T10:59:51.001Z</time>
      </trkpt>
      <trkpt lat="45.985" lon="4.62521">
        <ele>351.700012207</ele>
        <time>2015-10-25T10:59:51.953Z</time>
      </trkpt>
      <trkpt lat="45.98491" lon="4.62522">
        <ele>352.5</ele>
        <time>2015-10-25T10:59:54.98Z</time>
      </trkpt>
      <trkpt lat="45.98488" lon="4.62521">
        <ele>352.600006104</ele>
        <time>2015-10-25T10:59:55.95Z</time>
      </trkpt>
      <trkpt lat="45.9848" lon="4.6252">
        <ele>353.200012207</ele>
        <time>2015-10-25T10:59:58.99Z</time>
      </trkpt>
      <trkpt lat="45.98478" lon="4.6252">
        <ele>353.399993896</ele>
        <time>2015-10-25T10:59:59.954Z</time>
      </trkpt>
      <trkpt lat="45.9847" lon="4.62521">
        <ele>354</ele>
        <time>2015-10-25T11:00:02.977Z</time>
      </trkpt>
      <trkpt lat="45.98468" lon="4.6252">
        <ele>354.299987793</ele>
        <time>2015-10-25T11:00:03.956Z</time>
      </trkpt>
      <trkpt lat="45.9846" lon="4.62516">
        <ele>354.700012207</ele>
        <time>2015-10-25T11:00:06.976Z</time>
      </trkpt>
      <trkpt lat="45.98457" lon="4.62514">
        <ele>354.399993896</ele>
        <time>2015-10-25T11:00:07.953Z</time>
      </trkpt>
      <trkpt lat="45.98449" lon="4.62511">
        <ele>355</ele>
        <time>2015-10-25T11:00:10.976Z</time>
      </trkpt>
      <trkpt lat="45.98446" lon="4.6251">
        <ele>355.399993896</ele>
        <time>2015-10-25T11:00:11.951Z</time>
      </trkpt>
      <trkpt lat="45.98439" lon="4.62503">
        <ele>355.600006104</ele>
        <time>2015-10-25T11:00:14.977Z</time>
      </trkpt>
      <trkpt lat="45.98437" lon="4.625">
        <ele>355.899993896</ele>
        <time>2015-10-25T11:00:15.953Z</time>
      </trkpt>
      <trkpt lat="45.98431" lon="4.62494">
        <ele>356</ele>
        <time>2015-10-25T11:00:19.044Z</time>
      </trkpt>
      <trkpt lat="45.98428" lon="4.62492">
        <ele>355.899993896</ele>
        <time>2015-10-25T11:00:19.953Z</time>
      </trkpt>
      <trkpt lat="45.98421" lon="4.62485">
        <ele>356.299987793</ele>
        <time>2015-10-25T11:00:22.976Z</time>
      </trkpt>
      <trkpt lat="45.98419" lon="4.62483">
        <ele>356.200012207</ele>
        <time>2015-10-25T11:00:23.951Z</time>
      </trkpt>
      <trkpt lat="45.98413" lon="4.62476">
        <ele>357.799987793</ele>
        <time>2015-10-25T11:00:26.977Z</time>
      </trkpt>
      <trkpt lat="45.98411" lon="4.62474">
        <ele>357.899993896</ele>
        <time>2015-10-25T11:00:27.956Z</time>
      </trkpt>
      <trkpt lat="45.98405" lon="4.62467">
        <ele>358.100006104</ele>
        <time>2015-10-25T11:00:30.977Z</time>
      </trkpt>
      <trkpt lat="45.98403" lon="4.62464">
        <ele>358.600006104</ele>
        <time>2015-10-25T11:00:31.949Z</time>
      </trkpt>
      <trkpt lat="45.98397" lon="4.62457">
        <ele>359</ele>
        <time>2015-10-25T11:00:34.98Z</time>
      </trkpt>
      <trkpt lat="45.98395" lon="4.62454">
        <ele>358.899993896</ele>
        <time>2015-10-25T11:00:35.955Z</time>
      </trkpt>
      <trkpt lat="45.98391" lon="4.62446">
        <ele>359.100006104</ele>
        <time>2015-10-25T11:00:38.981Z</time>
      </trkpt>
      <trkpt lat="45.98389" lon="4.62443">
        <ele>359.100006104</ele>
        <time>2015-10-25T11:00:39.953Z</time>
      </trkpt>
      <trkpt lat="45.98384" lon="4.62435">
        <ele>359.5</ele>
        <time>2015-10-25T11:00:43.007Z</time>
      </trkpt>
      <trkpt lat="45.98383" lon="4.62432">
        <ele>359.799987793</ele>
        <time>2015-10-25T11:00:43.972Z</time>
      </trkpt>
      <trkpt lat="45.98377" lon="4.62425">
        <ele>360.200012207</ele>
        <time>2015-10-25T11:00:46.983Z</time>
      </trkpt>
      <trkpt lat="45.98375" lon="4.62422">
        <ele>360.299987793</ele>
        <time>2015-10-25T11:00:47.951Z</time>
      </trkpt>
      <trkpt lat="45.9837" lon="4.62412">
        <ele>360.5</ele>
        <time>2015-10-25T11:00:50.99Z</time>
      </trkpt>
      <trkpt lat="45.98368" lon="4.62409">
        <ele>360.799987793</ele>
        <time>2015-10-25T11:00:51.952Z</time>
      </trkpt>
      <trkpt lat="45.98362" lon="4.62401">
        <ele>361.399993896</ele>
        <time>2015-10-25T11:00:54.976Z</time>
      </trkpt>
      <trkpt lat="45.98361" lon="4.62398">
        <ele>361.600006104</ele>
        <time>2015-10-25T11:00:55.949Z</time>
      </trkpt>
      <trkpt lat="45.98355" lon="4.62389">
        <ele>362.100006104</ele>
        <time>2015-10-25T11:00:58.976Z</time>
      </trkpt>
      <trkpt lat="45.98353" lon="4.62385">
        <ele>362.100006104</ele>
        <time>2015-10-25T11:00:59.951Z</time>
      </trkpt>
      <trkpt lat="45.98349" lon="4.62377">
        <ele>361.799987793</ele>
        <time>2015-10-25T11:01:01.975Z</time>
      </trkpt>
      <trkpt lat="45.98346" lon="4.62374">
        <ele>362.100006104</ele>
        <time>2015-10-25T11:01:02.949Z</time>
      </trkpt>
      <trkpt lat="45.98342" lon="4.62366">
        <ele>361.899993896</ele>
        <time>2015-10-25T11:01:04.98Z</time>
      </trkpt>
      <trkpt lat="45.9834" lon="4.62362">
        <ele>361.700012207</ele>
        <time>2015-10-25T11:01:06.004Z</time>
      </trkpt>
      <trkpt lat="45.98336" lon="4.62353">
        <ele>361.5</ele>
        <time>2015-10-25T11:01:08.014Z</time>
      </trkpt>
      <trkpt lat="45.98333" lon="4.62348">
        <ele>361.100006104</ele>
        <time>2015-10-25T11:01:08.949Z</time>
      </trkpt>
      <trkpt lat="45.98331" lon="4.62342">
        <ele>361.399993896</ele>
        <time>2015-10-25T11:01:09.979Z</time>
      </trkpt>
      <trkpt lat="45.98328" lon="4.62336">
        <ele>361</ele>
        <time>2015-10-25T11:01:10.946Z</time>
      </trkpt>
      <trkpt lat="45.98325" lon="4.6233">
        <ele>360.799987793</ele>
        <time>2015-10-25T11:01:12.001Z</time>
      </trkpt>
      <trkpt lat="45.98322" lon="4.62323">
        <ele>360.700012207</ele>
        <time>2015-10-25T11:01:12.947Z</time>
      </trkpt>
      <trkpt lat="45.9832" lon="4.62317">
        <ele>360.600006104</ele>
        <time>2015-10-25T11:01:14.04Z</time>
      </trkpt>
      <trkpt lat="45.98317" lon="4.62309">
        <ele>360.399993896</ele>
        <time>2015-10-25T11:01:14.952Z</time>
      </trkpt>
      <trkpt lat="45.98315" lon="4.623">
        <ele>360.100006104</ele>
        <time>2015-10-25T11:01:15.98Z</time>
      </trkpt>
      <trkpt lat="45.98313" lon="4.62292">
        <ele>359.200012207</ele>
        <time>2015-10-25T11:01:16.966Z</time>
      </trkpt>
      <trkpt lat="45.98312" lon="4.62282">
        <ele>358.799987793</ele>
        <time>2015-10-25T11:01:17.983Z</time>
      </trkpt>
      <trkpt lat="45.98311" lon="4.62272">
        <ele>357.899993896</ele>
        <time>2015-10-25T11:01:18.95Z</time>
      </trkpt>
      <trkpt lat="45.9831" lon="4.62262">
        <ele>357.200012207</ele>
        <time>2015-10-25T11:01:19.98Z</time>
      </trkpt>
      <trkpt lat="45.98308" lon="4.62251">
        <ele>356.600006104</ele>
        <time>2015-10-25T11:01:20.949Z</time>
      </trkpt>
      <trkpt lat="45.98307" lon="4.6224">
        <ele>356</ele>
        <time>2015-10-25T11:01:21.979Z</time>
      </trkpt>
      <trkpt lat="45.98306" lon="4.62229">
        <ele>355.399993896</ele>
        <time>2015-10-25T11:01:22.949Z</time>
      </trkpt>
      <trkpt lat="45.98305" lon="4.62217">
        <ele>355.100006104</ele>
        <time>2015-10-25T11:01:23.978Z</time>
      </trkpt>
      <trkpt lat="45.98304" lon="4.62205">
        <ele>354.600006104</ele>
        <time>2015-10-25T11:01:24.949Z</time>
      </trkpt>
      <trkpt lat="45.98303" lon="4.62193">
        <ele>354.100006104</ele>
        <time>2015-10-25T11:01:25.984Z</time>
      </trkpt>
      <trkpt lat="45.98302" lon="4.6218">
        <ele>353.100006104</ele>
        <time>2015-10-25T11:01:26.953Z</time>
      </trkpt>
      <trkpt lat="45.98302" lon="4.6218">
        <ele>353.100006104</ele>
        <time>2015-10-25T11:01:26.981Z</time>
      </trkpt>
      <trkpt lat="45.98301" lon="4.62167">
        <ele>352.5</ele>
        <time>2015-10-25T11:01:27.953Z</time>
      </trkpt>
      <trkpt lat="45.98301" lon="4.62167">
        <ele>352.5</ele>
        <time>2015-10-25T11:01:27.991Z</time>
      </trkpt>
      <trkpt lat="45.983" lon="4.62154">
        <ele>352</ele>
        <time>2015-10-25T11:01:28.99Z</time>
      </trkpt>
      <trkpt lat="45.983" lon="4.62154">
        <ele>352</ele>
        <time>2015-10-25T11:01:29.051Z</time>
      </trkpt>
      <trkpt lat="45.98298" lon="4.6214">
        <ele>351.799987793</ele>
        <time>2015-10-25T11:01:29.952Z</time>
      </trkpt>
      <trkpt lat="45.98298" lon="4.6214">
        <ele>351.799987793</ele>
        <time>2015-10-25T11:01:29.98Z</time>
      </trkpt>
      <trkpt lat="45.98297" lon="4.62127">
        <ele>351.700012207</ele>
        <time>2015-10-25T11:01:30.949Z</time>
      </trkpt>
      <trkpt lat="45.98297" lon="4.62127">
        <ele>351.700012207</ele>
        <time>2015-10-25T11:01:31.011Z</time>
      </trkpt>
      <trkpt lat="45.98295" lon="4.62115">
        <ele>352</ele>
        <time>2015-10-25T11:01:31.95Z</time>
      </trkpt>
      <trkpt lat="45.98293" lon="4.62103">
        <ele>352</ele>
        <time>2015-10-25T11:01:32.976Z</time>
      </trkpt>
      <trkpt lat="45.9829" lon="4.62092">
        <ele>352.200012207</ele>
        <time>2015-10-25T11:01:33.952Z</time>
      </trkpt>
      <trkpt lat="45.98286" lon="4.62083">
        <ele>352.200012207</ele>
        <time>2015-10-25T11:01:34.98Z</time>
      </trkpt>
      <trkpt lat="45.98282" lon="4.62074">
        <ele>352.399993896</ele>
        <time>2015-10-25T11:01:35.95Z</time>
      </trkpt>
      <trkpt lat="45.98278" lon="4.62068">
        <ele>353.299987793</ele>
        <time>2015-10-25T11:01:36.98Z</time>
      </trkpt>
      <trkpt lat="45.98273" lon="4.62062">
        <ele>353.899993896</ele>
        <time>2015-10-25T11:01:37.952Z</time>
      </trkpt>
      <trkpt lat="45.98269" lon="4.62058">
        <ele>354.299987793</ele>
        <time>2015-10-25T11:01:38.99Z</time>
      </trkpt>
      <trkpt lat="45.98265" lon="4.62055">
        <ele>354.600006104</ele>
        <time>2015-10-25T11:01:39.953Z</time>
      </trkpt>
      <trkpt lat="45.98258" lon="4.62049">
        <ele>355.700012207</ele>
        <time>2015-10-25T11:01:41.978Z</time>
      </trkpt>
      <trkpt lat="45.98254" lon="4.62046">
        <ele>355.799987793</ele>
        <time>2015-10-25T11:01:42.962Z</time>
      </trkpt>
      <trkpt lat="45.98247" lon="4.62041">
        <ele>356.399993896</ele>
        <time>2015-10-25T11:01:44.98Z</time>
      </trkpt>
      <trkpt lat="45.98244" lon="4.62038">
        <ele>356.5</ele>
        <time>2015-10-25T11:01:45.956Z</time>
      </trkpt>
      <trkpt lat="45.98238" lon="4.62033">
        <ele>356.899993896</ele>
        <time>2015-10-25T11:01:47.978Z</time>
      </trkpt>
      <trkpt lat="45.98234" lon="4.62031">
        <ele>356.899993896</ele>
        <time>2015-10-25T11:01:48.949Z</time>
      </trkpt>
      <trkpt lat="45.98228" lon="4.62026">
        <ele>357.299987793</ele>
        <time>2015-10-25T11:01:50.98Z</time>
      </trkpt>
      <trkpt lat="45.98225" lon="4.62023">
        <ele>357.399993896</ele>
        <time>2015-10-25T11:01:51.952Z</time>
      </trkpt>
      <trkpt lat="45.98218" lon="4.62018">
        <ele>357.799987793</ele>
        <time>2015-10-25T11:01:53.981Z</time>
      </trkpt>
      <trkpt lat="45.98216" lon="4.62015">
        <ele>358</ele>
        <time>2015-10-25T11:01:55.014Z</time>
      </trkpt>
      <trkpt lat="45.98211" lon="4.62008">
        <ele>358.299987793</ele>
        <time>2015-10-25T11:01:57.018Z</time>
      </trkpt>
      <trkpt lat="45.98208" lon="4.62005">
        <ele>358.600006104</ele>
        <time>2015-10-25T11:01:57.953Z</time>
      </trkpt>
      <trkpt lat="45.98203" lon="4.61999">
        <ele>358.899993896</ele>
        <time>2015-10-25T11:01:59.978Z</time>
      </trkpt>
      <trkpt lat="45.982" lon="4.61996">
        <ele>359.200012207</ele>
        <time>2015-10-25T11:02:00.949Z</time>
      </trkpt>
      <trkpt lat="45.98195" lon="4.6199">
        <ele>359.700012207</ele>
        <time>2015-10-25T11:02:02.976Z</time>
      </trkpt>
      <trkpt lat="45.98194" lon="4.61986">
        <ele>359.899993896</ele>
        <time>2015-10-25T11:02:03.985Z</time>
      </trkpt>
      <trkpt lat="45.98188" lon="4.61976">
        <ele>361.100006104</ele>
        <time>2015-10-25T11:02:06.976Z</time>
      </trkpt>
      <trkpt lat="45.98186" lon="4.61973">
        <ele>361.5</ele>
        <time>2015-10-25T11:02:07.949Z</time>
      </trkpt>
      <trkpt lat="45.98182" lon="4.61966">
        <ele>362.200012207</ele>
        <time>2015-10-25T11:02:09.979Z</time>
      </trkpt>
      <trkpt lat="45.98179" lon="4.61963">
        <ele>362.399993896</ele>
        <time>2015-10-25T11:02:10.949Z</time>
      </trkpt>
      <trkpt lat="45.98175" lon="4.61957">
        <ele>362.799987793</ele>
        <time>2015-10-25T11:02:12.976Z</time>
      </trkpt>
      <trkpt lat="45.98173" lon="4.61954">
        <ele>362.899993896</ele>
        <time>2015-10-25T11:02:13.949Z</time>
      </trkpt>
      <trkpt lat="45.98168" lon="4.61947">
        <ele>363.200012207</ele>
        <time>2015-10-25T11:02:16.011Z</time>
      </trkpt>
      <trkpt lat="45.98166" lon="4.61945">
        <ele>363.399993896</ele>
        <time>2015-10-25T11:02:16.949Z</time>
      </trkpt>
      <trkpt lat="45.9816" lon="4.61935">
        <ele>363.5</ele>
        <time>2015-10-25T11:02:20.024Z</time>
      </trkpt>
      <trkpt lat="45.98158" lon="4.61932">
        <ele>363.5</ele>
        <time>2015-10-25T11:02:20.949Z</time>
      </trkpt>
      <trkpt lat="45.98153" lon="4.61925">
        <ele>363.700012207</ele>
        <time>2015-10-25T11:02:22.975Z</time>
      </trkpt>
      <trkpt lat="45.98151" lon="4.61922">
        <ele>363.799987793</ele>
        <time>2015-10-25T11:02:23.983Z</time>
      </trkpt>
      <trkpt lat="45.98147" lon="4.61915">
        <ele>363.899993896</ele>
        <time>2015-10-25T11:02:25.976Z</time>
      </trkpt>
      <trkpt lat="45.98145" lon="4.61912">
        <ele>364.100006104</ele>
        <time>2015-10-25T11:02:26.957Z</time>
      </trkpt>
      <trkpt lat="45.9814" lon="4.61906">
        <ele>363.899993896</ele>
        <time>2015-10-25T11:02:29Z</time>
      </trkpt>
      <trkpt lat="45.98138" lon="4.61902">
        <ele>364</ele>
        <time>2015-10-25T11:02:30.004Z</time>
      </trkpt>
      <trkpt lat="45.98134" lon="4.61895">
        <ele>364.5</ele>
        <time>2015-10-25T11:02:31.976Z</time>
      </trkpt>
      <trkpt lat="45.98131" lon="4.61892">
        <ele>364.700012207</ele>
        <time>2015-10-25T11:02:32.949Z</time>
      </trkpt>
      <trkpt lat="45.98127" lon="4.61884">
        <ele>364.899993896</ele>
        <time>2015-10-25T11:02:34.979Z</time>
      </trkpt>
      <trkpt lat="45.98124" lon="4.6188">
        <ele>364.799987793</ele>
        <time>2015-10-25T11:02:35.949Z</time>
      </trkpt>
      <trkpt lat="45.98119" lon="4.61871">
        <ele>365.100006104</ele>
        <time>2015-10-25T11:02:37.975Z</time>
      </trkpt>
      <trkpt lat="45.98116" lon="4.61867">
        <ele>364.700012207</ele>
        <time>2015-10-25T11:02:38.949Z</time>
      </trkpt>
      <trkpt lat="45.98111" lon="4.6186">
        <ele>364.600006104</ele>
        <time>2015-10-25T11:02:40.997Z</time>
      </trkpt>
      <trkpt lat="45.98108" lon="4.61856">
        <ele>364.799987793</ele>
        <time>2015-10-25T11:02:41.95Z</time>
      </trkpt>
      <trkpt lat="45.98103" lon="4.61848">
        <ele>364.600006104</ele>
        <time>2015-10-25T11:02:43.975Z</time>
      </trkpt>
      <trkpt lat="45.98101" lon="4.61844">
        <ele>364.399993896</ele>
        <time>2015-10-25T11:02:44.949Z</time>
      </trkpt>
      <trkpt lat="45.98095" lon="4.61836">
        <ele>364.299987793</ele>
        <time>2015-10-25T11:02:46.981Z</time>
      </trkpt>
      <trkpt lat="45.98092" lon="4.61831">
        <ele>364.700012207</ele>
        <time>2015-10-25T11:02:47.951Z</time>
      </trkpt>
      <trkpt lat="45.98087" lon="4.61821">
        <ele>364.700012207</ele>
        <time>2015-10-25T11:02:49.976Z</time>
      </trkpt>
      <trkpt lat="45.98085" lon="4.61816">
        <ele>364.600006104</ele>
        <time>2015-10-25T11:02:50.952Z</time>
      </trkpt>
      <trkpt lat="45.98081" lon="4.61806">
        <ele>364.700012207</ele>
        <time>2015-10-25T11:02:52.975Z</time>
      </trkpt>
      <trkpt lat="45.98079" lon="4.61801">
        <ele>364.700012207</ele>
        <time>2015-10-25T11:02:53.951Z</time>
      </trkpt>
      <trkpt lat="45.98075" lon="4.6179">
        <ele>365</ele>
        <time>2015-10-25T11:02:55.978Z</time>
      </trkpt>
      <trkpt lat="45.98073" lon="4.61784">
        <ele>365</ele>
        <time>2015-10-25T11:02:56.95Z</time>
      </trkpt>
      <trkpt lat="45.98071" lon="4.61778">
        <ele>365.100006104</ele>
        <time>2015-10-25T11:02:57.988Z</time>
      </trkpt>
      <trkpt lat="45.98069" lon="4.61772">
        <ele>365.200012207</ele>
        <time>2015-10-25T11:02:58.952Z</time>
      </trkpt>
      <trkpt lat="45.98067" lon="4.61766">
        <ele>365.200012207</ele>
        <time>2015-10-25T11:02:59.98Z</time>
      </trkpt>
      <trkpt lat="45.98066" lon="4.61759">
        <ele>365.299987793</ele>
        <time>2015-10-25T11:03:00.949Z</time>
      </trkpt>
      <trkpt lat="45.98065" lon="4.61753">
        <ele>365.399993896</ele>
        <time>2015-10-25T11:03:01.983Z</time>
      </trkpt>
      <trkpt lat="45.98064" lon="4.61747">
        <ele>365.5</ele>
        <time>2015-10-25T11:03:02.994Z</time>
      </trkpt>
      <trkpt lat="45.98062" lon="4.61734">
        <ele>365.899993896</ele>
        <time>2015-10-25T11:03:04.975Z</time>
      </trkpt>
      <trkpt lat="45.98062" lon="4.61728">
        <ele>365.899993896</ele>
        <time>2015-10-25T11:03:05.95Z</time>
      </trkpt>
      <trkpt lat="45.98061" lon="4.61721">
        <ele>366</ele>
        <time>2015-10-25T11:03:06.995Z</time>
      </trkpt>
      <trkpt lat="45.98061" lon="4.61715">
        <ele>366</ele>
        <time>2015-10-25T11:03:07.952Z</time>
      </trkpt>
      <trkpt lat="45.98061" lon="4.61708">
        <ele>366</ele>
        <time>2015-10-25T11:03:08.976Z</time>
      </trkpt>
      <trkpt lat="45.98061" lon="4.61701">
        <ele>365.899993896</ele>
        <time>2015-10-25T11:03:09.956Z</time>
      </trkpt>
      <trkpt lat="45.98061" lon="4.61695">
        <ele>366</ele>
        <time>2015-10-25T11:03:10.975Z</time>
      </trkpt>
      <trkpt lat="45.98061" lon="4.61688">
        <ele>366.100006104</ele>
        <time>2015-10-25T11:03:11.962Z</time>
      </trkpt>
      <trkpt lat="45.98062" lon="4.61682">
        <ele>366</ele>
        <time>2015-10-25T11:03:12.989Z</time>
      </trkpt>
      <trkpt lat="45.98063" lon="4.61675">
        <ele>366</ele>
        <time>2015-10-25T11:03:13.949Z</time>
      </trkpt>
      <trkpt lat="45.98064" lon="4.61668">
        <ele>366.100006104</ele>
        <time>2015-10-25T11:03:15.009Z</time>
      </trkpt>
      <trkpt lat="45.98065" lon="4.61661">
        <ele>365.899993896</ele>
        <time>2015-10-25T11:03:15.952Z</time>
      </trkpt>
      <trkpt lat="45.98066" lon="4.61654">
        <ele>365.799987793</ele>
        <time>2015-10-25T11:03:16.976Z</time>
      </trkpt>
      <trkpt lat="45.98067" lon="4.61647">
        <ele>365.700012207</ele>
        <time>2015-10-25T11:03:17.954Z</time>
      </trkpt>
      <trkpt lat="45.98069" lon="4.6164">
        <ele>365.600006104</ele>
        <time>2015-10-25T11:03:18.975Z</time>
      </trkpt>
      <trkpt lat="45.98071" lon="4.61633">
        <ele>365.5</ele>
        <time>2015-10-25T11:03:19.948Z</time>
      </trkpt>
      <trkpt lat="45.98073" lon="4.61626">
        <ele>365.5</ele>
        <time>2015-10-25T11:03:20.975Z</time>
      </trkpt>
      <trkpt lat="45.98075" lon="4.6162">
        <ele>365.200012207</ele>
        <time>2015-10-25T11:03:21.986Z</time>
      </trkpt>
      <trkpt lat="45.98077" lon="4.61613">
        <ele>365.100006104</ele>
        <time>2015-10-25T11:03:22.993Z</time>
      </trkpt>
      <trkpt lat="45.98079" lon="4.61607">
        <ele>364.899993896</ele>
        <time>2015-10-25T11:03:23.952Z</time>
      </trkpt>
      <trkpt lat="45.98081" lon="4.616">
        <ele>364.799987793</ele>
        <time>2015-10-25T11:03:24.979Z</time>
      </trkpt>
      <trkpt lat="45.98084" lon="4.61593">
        <ele>364.5</ele>
        <time>2015-10-25T11:03:25.949Z</time>
      </trkpt>
      <trkpt lat="45.98086" lon="4.61586">
        <ele>364.200012207</ele>
        <time>2015-10-25T11:03:26.976Z</time>
      </trkpt>
      <trkpt lat="45.9809" lon="4.61579">
        <ele>363.799987793</ele>
        <time>2015-10-25T11:03:27.952Z</time>
      </trkpt>
      <trkpt lat="45.98093" lon="4.61572">
        <ele>363.399993896</ele>
        <time>2015-10-25T11:03:28.979Z</time>
      </trkpt>
      <trkpt lat="45.98097" lon="4.61564">
        <ele>363.100006104</ele>
        <time>2015-10-25T11:03:29.949Z</time>
      </trkpt>
      <trkpt lat="45.981" lon="4.61557">
        <ele>362.799987793</ele>
        <time>2015-10-25T11:03:30.975Z</time>
      </trkpt>
      <trkpt lat="45.98105" lon="4.61549">
        <ele>362.5</ele>
        <time>2015-10-25T11:03:31.948Z</time>
      </trkpt>
      <trkpt lat="45.98109" lon="4.61541">
        <ele>362.100006104</ele>
        <time>2015-10-25T11:03:33.064Z</time>
      </trkpt>
      <trkpt lat="45.98113" lon="4.61533">
        <ele>361.799987793</ele>
        <time>2015-10-25T11:03:33.952Z</time>
      </trkpt>
      <trkpt lat="45.98118" lon="4.61524">
        <ele>361.5</ele>
        <time>2015-10-25T11:03:34.975Z</time>
      </trkpt>
      <trkpt lat="45.98123" lon="4.61516">
        <ele>361.100006104</ele>
        <time>2015-10-25T11:03:35.95Z</time>
      </trkpt>
      <trkpt lat="45.98127" lon="4.61508">
        <ele>360.799987793</ele>
        <time>2015-10-25T11:03:36.977Z</time>
      </trkpt>
      <trkpt lat="45.98132" lon="4.61499">
        <ele>360.299987793</ele>
        <time>2015-10-25T11:03:37.948Z</time>
      </trkpt>
      <trkpt lat="45.98137" lon="4.61491">
        <ele>360</ele>
        <time>2015-10-25T11:03:38.979Z</time>
      </trkpt>
      <trkpt lat="45.98142" lon="4.61483">
        <ele>359.700012207</ele>
        <time>2015-10-25T11:03:39.952Z</time>
      </trkpt>
      <trkpt lat="45.98148" lon="4.61474">
        <ele>359.600006104</ele>
        <time>2015-10-25T11:03:40.975Z</time>
      </trkpt>
      <trkpt lat="45.98153" lon="4.61467">
        <ele>359.600006104</ele>
        <time>2015-10-25T11:03:41.953Z</time>
      </trkpt>
      <trkpt lat="45.98159" lon="4.61459">
        <ele>359.399993896</ele>
        <time>2015-10-25T11:03:43.064Z</time>
      </trkpt>
      <trkpt lat="45.98166" lon="4.61453">
        <ele>359.100006104</ele>
        <time>2015-10-25T11:03:43.962Z</time>
      </trkpt>
      <trkpt lat="45.98173" lon="4.61447">
        <ele>359</ele>
        <time>2015-10-25T11:03:44.979Z</time>
      </trkpt>
      <trkpt lat="45.9818" lon="4.61443">
        <ele>358.700012207</ele>
        <time>2015-10-25T11:03:45.951Z</time>
      </trkpt>
      <trkpt lat="45.98187" lon="4.61439">
        <ele>358.600006104</ele>
        <time>2015-10-25T11:03:46.979Z</time>
      </trkpt>
      <trkpt lat="45.98194" lon="4.61436">
        <ele>358.799987793</ele>
        <time>2015-10-25T11:03:47.951Z</time>
      </trkpt>
      <trkpt lat="45.982" lon="4.61434">
        <ele>358.799987793</ele>
        <time>2015-10-25T11:03:48.979Z</time>
      </trkpt>
      <trkpt lat="45.98205" lon="4.61433">
        <ele>358.5</ele>
        <time>2015-10-25T11:03:49.949Z</time>
      </trkpt>
      <trkpt lat="45.98211" lon="4.61432">
        <ele>358.200012207</ele>
        <time>2015-10-25T11:03:51.007Z</time>
      </trkpt>
      <trkpt lat="45.98215" lon="4.61431">
        <ele>358.100006104</ele>
        <time>2015-10-25T11:03:51.951Z</time>
      </trkpt>
      <trkpt lat="45.98223" lon="4.61428">
        <ele>358.100006104</ele>
        <time>2015-10-25T11:03:53.98Z</time>
      </trkpt>
      <trkpt lat="45.98227" lon="4.61425">
        <ele>358.100006104</ele>
        <time>2015-10-25T11:03:54.952Z</time>
      </trkpt>
      <trkpt lat="45.98234" lon="4.61418">
        <ele>358.399993896</ele>
        <time>2015-10-25T11:03:56.978Z</time>
      </trkpt>
      <trkpt lat="45.98237" lon="4.61414">
        <ele>359.100006104</ele>
        <time>2015-10-25T11:03:57.957Z</time>
      </trkpt>
      <trkpt lat="45.98242" lon="4.61404">
        <ele>359.600006104</ele>
        <time>2015-10-25T11:03:59.998Z</time>
      </trkpt>
      <trkpt lat="45.98244" lon="4.61398">
        <ele>359.600006104</ele>
        <time>2015-10-25T11:04:00.947Z</time>
      </trkpt>
      <trkpt lat="45.98246" lon="4.61391">
        <ele>359.799987793</ele>
        <time>2015-10-25T11:04:01.978Z</time>
      </trkpt>
      <trkpt lat="45.98247" lon="4.61384">
        <ele>359.700012207</ele>
        <time>2015-10-25T11:04:03.004Z</time>
      </trkpt>
      <trkpt lat="45.98247" lon="4.61378">
        <ele>359.700012207</ele>
        <time>2015-10-25T11:04:03.98Z</time>
      </trkpt>
      <trkpt lat="45.98247" lon="4.61371">
        <ele>360.100006104</ele>
        <time>2015-10-25T11:04:04.954Z</time>
      </trkpt>
      <trkpt lat="45.98246" lon="4.61364">
        <ele>360.100006104</ele>
        <time>2015-10-25T11:04:05.979Z</time>
      </trkpt>
      <trkpt lat="45.98244" lon="4.61358">
        <ele>359.799987793</ele>
        <time>2015-10-25T11:04:06.954Z</time>
      </trkpt>
      <trkpt lat="45.98239" lon="4.61348">
        <ele>359.899993896</ele>
        <time>2015-10-25T11:04:08.976Z</time>
      </trkpt>
      <trkpt lat="45.98236" lon="4.61343">
        <ele>360.399993896</ele>
        <time>2015-10-25T11:04:09.952Z</time>
      </trkpt>
      <trkpt lat="45.9823" lon="4.61337">
        <ele>360.799987793</ele>
        <time>2015-10-25T11:04:11.98Z</time>
      </trkpt>
      <trkpt lat="45.98227" lon="4.61335">
        <ele>361.100006104</ele>
        <time>2015-10-25T11:04:12.953Z</time>
      </trkpt>
      <trkpt lat="45.98218" lon="4.61331">
        <ele>361.600006104</ele>
        <time>2015-10-25T11:04:15Z</time>
      </trkpt>
      <trkpt lat="45.98214" lon="4.6133">
        <ele>361.799987793</ele>
        <time>2015-10-25T11:04:15.953Z</time>
      </trkpt>
      <trkpt lat="45.98205" lon="4.61327">
        <ele>361.899993896</ele>
        <time>2015-10-25T11:04:17.988Z</time>
      </trkpt>
      <trkpt lat="45.98201" lon="4.61326">
        <ele>362.100006104</ele>
        <time>2015-10-25T11:04:18.948Z</time>
      </trkpt>
      <trkpt lat="45.98193" lon="4.61325">
        <ele>362.399993896</ele>
        <time>2015-10-25T11:04:20.99Z</time>
      </trkpt>
      <trkpt lat="45.98189" lon="4.61324">
        <ele>362.600006104</ele>
        <time>2015-10-25T11:04:21.953Z</time>
      </trkpt>
      <trkpt lat="45.9818" lon="4.61321">
        <ele>362.899993896</ele>
        <time>2015-10-25T11:04:23.995Z</time>
      </trkpt>
      <trkpt lat="45.98176" lon="4.6132">
        <ele>363.100006104</ele>
        <time>2015-10-25T11:04:24.949Z</time>
      </trkpt>
      <trkpt lat="45.98167" lon="4.61318">
        <ele>363.100006104</ele>
        <time>2015-10-25T11:04:27.121Z</time>
      </trkpt>
      <trkpt lat="45.98162" lon="4.61317">
        <ele>363.299987793</ele>
        <time>2015-10-25T11:04:27.957Z</time>
      </trkpt>
      <trkpt lat="45.98154" lon="4.61316">
        <ele>363.799987793</ele>
        <time>2015-10-25T11:04:29.98Z</time>
      </trkpt>
      <trkpt lat="45.98151" lon="4.61315">
        <ele>363.899993896</ele>
        <time>2015-10-25T11:04:30.948Z</time>
      </trkpt>
      <trkpt lat="45.98144" lon="4.61313">
        <ele>363.700012207</ele>
        <time>2015-10-25T11:04:32.975Z</time>
      </trkpt>
      <trkpt lat="45.9814" lon="4.61313">
        <ele>363.899993896</ele>
        <time>2015-10-25T11:04:33.953Z</time>
      </trkpt>
      <trkpt lat="45.98133" lon="4.61312">
        <ele>364</ele>
        <time>2015-10-25T11:04:36.008Z</time>
      </trkpt>
      <trkpt lat="45.9813" lon="4.61311">
        <ele>364.100006104</ele>
        <time>2015-10-25T11:04:36.949Z</time>
      </trkpt>
      <trkpt lat="45.98122" lon="4.6131">
        <ele>364.799987793</ele>
        <time>2015-10-25T11:04:38.977Z</time>
      </trkpt>
      <trkpt lat="45.98118" lon="4.61308">
        <ele>365.100006104</ele>
        <time>2015-10-25T11:04:39.955Z</time>
      </trkpt>
      <trkpt lat="45.98111" lon="4.61306">
        <ele>365.899993896</ele>
        <time>2015-10-25T11:04:41.996Z</time>
      </trkpt>
      <trkpt lat="45.98107" lon="4.61304">
        <ele>366.100006104</ele>
        <time>2015-10-25T11:04:42.948Z</time>
      </trkpt>
      <trkpt lat="45.98101" lon="4.61304">
        <ele>366.5</ele>
        <time>2015-10-25T11:04:44.979Z</time>
      </trkpt>
      <trkpt lat="45.98098" lon="4.61304">
        <ele>367</ele>
        <time>2015-10-25T11:04:45.952Z</time>
      </trkpt>
      <trkpt lat="45.9809" lon="4.61302">
        <ele>368</ele>
        <time>2015-10-25T11:04:48.979Z</time>
      </trkpt>
      <trkpt lat="45.98087" lon="4.613">
        <ele>368.299987793</ele>
        <time>2015-10-25T11:04:49.952Z</time>
      </trkpt>
      <trkpt lat="45.9808" lon="4.61294">
        <ele>369.700012207</ele>
        <time>2015-10-25T11:04:52.975Z</time>
      </trkpt>
      <trkpt lat="45.98077" lon="4.61292">
        <ele>369.600006104</ele>
        <time>2015-10-25T11:04:53.95Z</time>
      </trkpt>
      <trkpt lat="45.98073" lon="4.61284">
        <ele>371.200012207</ele>
        <time>2015-10-25T11:04:55.975Z</time>
      </trkpt>
      <trkpt lat="45.98072" lon="4.61279">
        <ele>371.5</ele>
        <time>2015-10-25T11:04:56.952Z</time>
      </trkpt>
      <trkpt lat="45.9807" lon="4.61267">
        <ele>372</ele>
        <time>2015-10-25T11:04:59.976Z</time>
      </trkpt>
      <trkpt lat="45.9807" lon="4.61263">
        <ele>371.700012207</ele>
        <time>2015-10-25T11:05:00.949Z</time>
      </trkpt>
      <trkpt lat="45.98068" lon="4.61251">
        <ele>372.100006104</ele>
        <time>2015-10-25T11:05:03.978Z</time>
      </trkpt>
      <trkpt lat="45.98068" lon="4.61247">
        <ele>372.299987793</ele>
        <time>2015-10-25T11:05:04.948Z</time>
      </trkpt>
      <trkpt lat="45.98066" lon="4.61235">
        <ele>372.700012207</ele>
        <time>2015-10-25T11:05:08.017Z</time>
      </trkpt>
      <trkpt lat="45.98066" lon="4.61231">
        <ele>372.899993896</ele>
        <time>2015-10-25T11:05:08.949Z</time>
      </trkpt>
      <trkpt lat="45.98065" lon="4.61219">
        <ele>373.100006104</ele>
        <time>2015-10-25T11:05:11.977Z</time>
      </trkpt>
      <trkpt lat="45.98064" lon="4.61215">
        <ele>373.100006104</ele>
        <time>2015-10-25T11:05:12.948Z</time>
      </trkpt>
      <trkpt lat="45.98062" lon="4.61203">
        <ele>373.399993896</ele>
        <time>2015-10-25T11:05:15.995Z</time>
      </trkpt>
      <trkpt lat="45.98062" lon="4.61199">
        <ele>373.600006104</ele>
        <time>2015-10-25T11:05:16.972Z</time>
      </trkpt>
      <trkpt lat="45.98061" lon="4.61187">
        <ele>374.5</ele>
        <time>2015-10-25T11:05:20.01Z</time>
      </trkpt>
      <trkpt lat="45.98061" lon="4.61183">
        <ele>374.399993896</ele>
        <time>2015-10-25T11:05:20.948Z</time>
      </trkpt>
      <trkpt lat="45.9806" lon="4.6117">
        <ele>374.5</ele>
        <time>2015-10-25T11:05:23.976Z</time>
      </trkpt>
      <trkpt lat="45.98059" lon="4.61166">
        <ele>375</ele>
        <time>2015-10-25T11:05:24.948Z</time>
      </trkpt>
      <trkpt lat="45.98058" lon="4.61158">
        <ele>375.700012207</ele>
        <time>2015-10-25T11:05:27.034Z</time>
      </trkpt>
      <trkpt lat="45.98058" lon="4.61153">
        <ele>375.600006104</ele>
        <time>2015-10-25T11:05:27.953Z</time>
      </trkpt>
      <trkpt lat="45.98057" lon="4.61145">
        <ele>375.799987793</ele>
        <time>2015-10-25T11:05:29.98Z</time>
      </trkpt>
      <trkpt lat="45.98056" lon="4.6114">
        <ele>375.899993896</ele>
        <time>2015-10-25T11:05:30.952Z</time>
      </trkpt>
      <trkpt lat="45.98056" lon="4.61132">
        <ele>376.100006104</ele>
        <time>2015-10-25T11:05:32.979Z</time>
      </trkpt>
      <trkpt lat="45.98055" lon="4.61127">
        <ele>376.200012207</ele>
        <time>2015-10-25T11:05:33.99Z</time>
      </trkpt>
      <trkpt lat="45.98054" lon="4.61118">
        <ele>376.399993896</ele>
        <time>2015-10-25T11:05:35.976Z</time>
      </trkpt>
      <trkpt lat="45.98054" lon="4.61114">
        <ele>376.5</ele>
        <time>2015-10-25T11:05:36.948Z</time>
      </trkpt>
      <trkpt lat="45.98053" lon="4.61104">
        <ele>377</ele>
        <time>2015-10-25T11:05:39.011Z</time>
      </trkpt>
      <trkpt lat="45.98053" lon="4.61099">
        <ele>376.799987793</ele>
        <time>2015-10-25T11:05:39.953Z</time>
      </trkpt>
      <trkpt lat="45.98052" lon="4.61089">
        <ele>377.200012207</ele>
        <time>2015-10-25T11:05:41.979Z</time>
      </trkpt>
      <trkpt lat="45.98051" lon="4.61085">
        <ele>377.399993896</ele>
        <time>2015-10-25T11:05:42.952Z</time>
      </trkpt>
      <trkpt lat="45.9805" lon="4.61075">
        <ele>377.5</ele>
        <time>2015-10-25T11:05:44.975Z</time>
      </trkpt>
      <trkpt lat="45.9805" lon="4.6107">
        <ele>377.5</ele>
        <time>2015-10-25T11:05:45.956Z</time>
      </trkpt>
      <trkpt lat="45.98049" lon="4.61059">
        <ele>377.600006104</ele>
        <time>2015-10-25T11:05:47.977Z</time>
      </trkpt>
      <trkpt lat="45.98049" lon="4.61054">
        <ele>377.5</ele>
        <time>2015-10-25T11:05:48.948Z</time>
      </trkpt>
      <trkpt lat="45.98048" lon="4.61042">
        <ele>377.299987793</ele>
        <time>2015-10-25T11:05:51.01Z</time>
      </trkpt>
      <trkpt lat="45.98047" lon="4.61036">
        <ele>377.200012207</ele>
        <time>2015-10-25T11:05:51.957Z</time>
      </trkpt>
      <trkpt lat="45.98047" lon="4.6103">
        <ele>376.799987793</ele>
        <time>2015-10-25T11:05:52.978Z</time>
      </trkpt>
      <trkpt lat="45.98047" lon="4.61023">
        <ele>376.5</ele>
        <time>2015-10-25T11:05:53.951Z</time>
      </trkpt>
      <trkpt lat="45.98048" lon="4.61015">
        <ele>376.100006104</ele>
        <time>2015-10-25T11:05:54.992Z</time>
      </trkpt>
      <trkpt lat="45.98049" lon="4.61007">
        <ele>375.700012207</ele>
        <time>2015-10-25T11:05:55.952Z</time>
      </trkpt>
      <trkpt lat="45.9805" lon="4.60999">
        <ele>375.5</ele>
        <time>2015-10-25T11:05:57.031Z</time>
      </trkpt>
      <trkpt lat="45.98051" lon="4.6099">
        <ele>375.5</ele>
        <time>2015-10-25T11:05:57.955Z</time>
      </trkpt>
      <trkpt lat="45.98052" lon="4.6098">
        <ele>375.299987793</ele>
        <time>2015-10-25T11:05:58.978Z</time>
      </trkpt>
      <trkpt lat="45.98053" lon="4.6097">
        <ele>374.799987793</ele>
        <time>2015-10-25T11:05:59.953Z</time>
      </trkpt>
      <trkpt lat="45.98055" lon="4.6096">
        <ele>374</ele>
        <time>2015-10-25T11:06:00.999Z</time>
      </trkpt>
      <trkpt lat="45.98056" lon="4.6095">
        <ele>372.899993896</ele>
        <time>2015-10-25T11:06:01.948Z</time>
      </trkpt>
      <trkpt lat="45.98058" lon="4.60939">
        <ele>373.100006104</ele>
        <time>2015-10-25T11:06:02.978Z</time>
      </trkpt>
      <trkpt lat="45.98059" lon="4.60928">
        <ele>373.200012207</ele>
        <time>2015-10-25T11:06:03.952Z</time>
      </trkpt>
      <trkpt lat="45.98061" lon="4.60916">
        <ele>373</ele>
        <time>2015-10-25T11:06:04.974Z</time>
      </trkpt>
      <trkpt lat="45.98062" lon="4.60904">
        <ele>372.299987793</ele>
        <time>2015-10-25T11:06:05.95Z</time>
      </trkpt>
      <trkpt lat="45.98065" lon="4.60892">
        <ele>371.5</ele>
        <time>2015-10-25T11:06:07.008Z</time>
      </trkpt>
      <trkpt lat="45.98066" lon="4.60879">
        <ele>371</ele>
        <time>2015-10-25T11:06:07.948Z</time>
      </trkpt>
      <trkpt lat="45.98066" lon="4.60879">
        <ele>371</ele>
        <time>2015-10-25T11:06:08.003Z</time>
      </trkpt>
      <trkpt lat="45.98067" lon="4.60866">
        <ele>370.700012207</ele>
        <time>2015-10-25T11:06:08.948Z</time>
      </trkpt>
      <trkpt lat="45.98067" lon="4.60866">
        <ele>370.700012207</ele>
        <time>2015-10-25T11:06:08.998Z</time>
      </trkpt>
      <trkpt lat="45.98067" lon="4.60853">
        <ele>370.799987793</ele>
        <time>2015-10-25T11:06:09.951Z</time>
      </trkpt>
      <trkpt lat="45.98067" lon="4.60853">
        <ele>370.799987793</ele>
        <time>2015-10-25T11:06:09.98Z</time>
      </trkpt>
      <trkpt lat="45.98065" lon="4.60839">
        <ele>370.700012207</ele>
        <time>2015-10-25T11:06:10.962Z</time>
      </trkpt>
      <trkpt lat="45.98065" lon="4.60839">
        <ele>370.700012207</ele>
        <time>2015-10-25T11:06:10.99Z</time>
      </trkpt>
      <trkpt lat="45.9806" lon="4.60828">
        <ele>370.100006104</ele>
        <time>2015-10-25T11:06:11.953Z</time>
      </trkpt>
      <trkpt lat="45.98054" lon="4.60821">
        <ele>369.799987793</ele>
        <time>2015-10-25T11:06:12.975Z</time>
      </trkpt>
      <trkpt lat="45.98047" lon="4.60816">
        <ele>369.299987793</ele>
        <time>2015-10-25T11:06:13.951Z</time>
      </trkpt>
      <trkpt lat="45.9804" lon="4.60811">
        <ele>368.600006104</ele>
        <time>2015-10-25T11:06:14.976Z</time>
      </trkpt>
      <trkpt lat="45.98034" lon="4.60804">
        <ele>368.200012207</ele>
        <time>2015-10-25T11:06:15.954Z</time>
      </trkpt>
      <trkpt lat="45.9803" lon="4.60795">
        <ele>367.600006104</ele>
        <time>2015-10-25T11:06:17.051Z</time>
      </trkpt>
      <trkpt lat="45.98027" lon="4.60785">
        <ele>367.5</ele>
        <time>2015-10-25T11:06:17.95Z</time>
      </trkpt>
      <trkpt lat="45.98027" lon="4.60773">
        <ele>367.100006104</ele>
        <time>2015-10-25T11:06:18.975Z</time>
      </trkpt>
      <trkpt lat="45.98031" lon="4.60762">
        <ele>367.100006104</ele>
        <time>2015-10-25T11:06:19.952Z</time>
      </trkpt>
      <trkpt lat="45.98035" lon="4.60753">
        <ele>367.200012207</ele>
        <time>2015-10-25T11:06:20.979Z</time>
      </trkpt>
      <trkpt lat="45.9804" lon="4.60745">
        <ele>367.299987793</ele>
        <time>2015-10-25T11:06:21.954Z</time>
      </trkpt>
      <trkpt lat="45.98046" lon="4.60738">
        <ele>367.200012207</ele>
        <time>2015-10-25T11:06:22.975Z</time>
      </trkpt>
      <trkpt lat="45.98051" lon="4.60731">
        <ele>367.100006104</ele>
        <time>2015-10-25T11:06:23.956Z</time>
      </trkpt>
      <trkpt lat="45.98058" lon="4.60725">
        <ele>366.899993896</ele>
        <time>2015-10-25T11:06:24.982Z</time>
      </trkpt>
      <trkpt lat="45.98064" lon="4.60719">
        <ele>367</ele>
        <time>2015-10-25T11:06:25.951Z</time>
      </trkpt>
      <trkpt lat="45.98069" lon="4.60712">
        <ele>366.899993896</ele>
        <time>2015-10-25T11:06:27.104Z</time>
      </trkpt>
      <trkpt lat="45.98074" lon="4.60706">
        <ele>366.600006104</ele>
        <time>2015-10-25T11:06:27.952Z</time>
      </trkpt>
      <trkpt lat="45.98079" lon="4.607">
        <ele>366.799987793</ele>
        <time>2015-10-25T11:06:28.976Z</time>
      </trkpt>
      <trkpt lat="45.98084" lon="4.60694">
        <ele>366.5</ele>
        <time>2015-10-25T11:06:29.949Z</time>
      </trkpt>
      <trkpt lat="45.98089" lon="4.60688">
        <ele>366.100006104</ele>
        <time>2015-10-25T11:06:30.976Z</time>
      </trkpt>
      <trkpt lat="45.98094" lon="4.60683">
        <ele>366.100006104</ele>
        <time>2015-10-25T11:06:31.948Z</time>
      </trkpt>
      <trkpt lat="45.98098" lon="4.60677">
        <ele>365.600006104</ele>
        <time>2015-10-25T11:06:32.987Z</time>
      </trkpt>
      <trkpt lat="45.98103" lon="4.60672">
        <ele>365.5</ele>
        <time>2015-10-25T11:06:33.952Z</time>
      </trkpt>
      <trkpt lat="45.98107" lon="4.60667">
        <ele>365.799987793</ele>
        <time>2015-10-25T11:06:34.975Z</time>
      </trkpt>
      <trkpt lat="45.98112" lon="4.60662">
        <ele>365.600006104</ele>
        <time>2015-10-25T11:06:35.949Z</time>
      </trkpt>
      <trkpt lat="45.98116" lon="4.60658">
        <ele>365.200012207</ele>
        <time>2015-10-25T11:06:37.074Z</time>
      </trkpt>
      <trkpt lat="45.98121" lon="4.60654">
        <ele>365</ele>
        <time>2015-10-25T11:06:37.942Z</time>
      </trkpt>
      <trkpt lat="45.98125" lon="4.6065">
        <ele>365.100006104</ele>
        <time>2015-10-25T11:06:38.979Z</time>
      </trkpt>
      <trkpt lat="45.9813" lon="4.60646">
        <ele>365</ele>
        <time>2015-10-25T11:06:39.955Z</time>
      </trkpt>
      <trkpt lat="45.98134" lon="4.60643">
        <ele>365</ele>
        <time>2015-10-25T11:06:40.978Z</time>
      </trkpt>
      <trkpt lat="45.98139" lon="4.6064">
        <ele>364.899993896</ele>
        <time>2015-10-25T11:06:41.952Z</time>
      </trkpt>
      <trkpt lat="45.98143" lon="4.60637">
        <ele>364.700012207</ele>
        <time>2015-10-25T11:06:42.978Z</time>
      </trkpt>
      <trkpt lat="45.98147" lon="4.60634">
        <ele>364.899993896</ele>
        <time>2015-10-25T11:06:43.95Z</time>
      </trkpt>
      <trkpt lat="45.98151" lon="4.6063">
        <ele>365.200012207</ele>
        <time>2015-10-25T11:06:44.979Z</time>
      </trkpt>
      <trkpt lat="45.98154" lon="4.60625">
        <ele>365.200012207</ele>
        <time>2015-10-25T11:06:45.955Z</time>
      </trkpt>
      <trkpt lat="45.98157" lon="4.60614">
        <ele>365.5</ele>
        <time>2015-10-25T11:06:47.98Z</time>
      </trkpt>
      <trkpt lat="45.98157" lon="4.60608">
        <ele>365.700012207</ele>
        <time>2015-10-25T11:06:48.948Z</time>
      </trkpt>
      <trkpt lat="45.98154" lon="4.60596">
        <ele>366.299987793</ele>
        <time>2015-10-25T11:06:50.982Z</time>
      </trkpt>
      <trkpt lat="45.98152" lon="4.60591">
        <ele>366.5</ele>
        <time>2015-10-25T11:06:51.956Z</time>
      </trkpt>
      <trkpt lat="45.98146" lon="4.60583">
        <ele>366.700012207</ele>
        <time>2015-10-25T11:06:53.977Z</time>
      </trkpt>
      <trkpt lat="45.98142" lon="4.6058">
        <ele>366.700012207</ele>
        <time>2015-10-25T11:06:54.948Z</time>
      </trkpt>
      <trkpt lat="45.98134" lon="4.60575">
        <ele>367.100006104</ele>
        <time>2015-10-25T11:06:56.979Z</time>
      </trkpt>
      <trkpt lat="45.98131" lon="4.60572">
        <ele>367.200012207</ele>
        <time>2015-10-25T11:06:57.956Z</time>
      </trkpt>
      <trkpt lat="45.98124" lon="4.60566">
        <ele>367.700012207</ele>
        <time>2015-10-25T11:06:59.978Z</time>
      </trkpt>
      <trkpt lat="45.9812" lon="4.60563">
        <ele>368.5</ele>
        <time>2015-10-25T11:07:00.99Z</time>
      </trkpt>
      <trkpt lat="45.98115" lon="4.60556">
        <ele>369.5</ele>
        <time>2015-10-25T11:07:02.978Z</time>
      </trkpt>
      <trkpt lat="45.98112" lon="4.60552">
        <ele>369.799987793</ele>
        <time>2015-10-25T11:07:03.954Z</time>
      </trkpt>
      <trkpt lat="45.98107" lon="4.60545">
        <ele>370.299987793</ele>
        <time>2015-10-25T11:07:05.98Z</time>
      </trkpt>
      <trkpt lat="45.98104" lon="4.60542">
        <ele>370.700012207</ele>
        <time>2015-10-25T11:07:06.948Z</time>
      </trkpt>
      <trkpt lat="45.98097" lon="4.60534">
        <ele>370.399993896</ele>
        <time>2015-10-25T11:07:09.024Z</time>
      </trkpt>
      <trkpt lat="45.98095" lon="4.6053">
        <ele>370.399993896</ele>
        <time>2015-10-25T11:07:09.953Z</time>
      </trkpt>
      <trkpt lat="45.98089" lon="4.60523">
        <ele>370.100006104</ele>
        <time>2015-10-25T11:07:12.004Z</time>
      </trkpt>
      <trkpt lat="45.98086" lon="4.60519">
        <ele>370.100006104</ele>
        <time>2015-10-25T11:07:12.951Z</time>
      </trkpt>
      <trkpt lat="45.98081" lon="4.60513">
        <ele>370.100006104</ele>
        <time>2015-10-25T11:07:15.014Z</time>
      </trkpt>
      <trkpt lat="45.98078" lon="4.60509">
        <ele>370.100006104</ele>
        <time>2015-10-25T11:07:15.958Z</time>
      </trkpt>
      <trkpt lat="45.98072" lon="4.60502">
        <ele>371.100006104</ele>
        <time>2015-10-25T11:07:17.985Z</time>
      </trkpt>
      <trkpt lat="45.9807" lon="4.60499">
        <ele>371.600006104</ele>
        <time>2015-10-25T11:07:18.948Z</time>
      </trkpt>
      <trkpt lat="45.98064" lon="4.60493">
        <ele>371.700012207</ele>
        <time>2015-10-25T11:07:20.974Z</time>
      </trkpt>
      <trkpt lat="45.98062" lon="4.60488">
        <ele>371.799987793</ele>
        <time>2015-10-25T11:07:21.953Z</time>
      </trkpt>
      <trkpt lat="45.98057" lon="4.6048">
        <ele>371.600006104</ele>
        <time>2015-10-25T11:07:23.976Z</time>
      </trkpt>
      <trkpt lat="45.98054" lon="4.60476">
        <ele>371.5</ele>
        <time>2015-10-25T11:07:24.951Z</time>
      </trkpt>
      <trkpt lat="45.98049" lon="4.60465">
        <ele>371.100006104</ele>
        <time>2015-10-25T11:07:26.983Z</time>
      </trkpt>
      <trkpt lat="45.98047" lon="4.6046">
        <ele>370.799987793</ele>
        <time>2015-10-25T11:07:27.952Z</time>
      </trkpt>
      <trkpt lat="45.98045" lon="4.60454">
        <ele>370.600006104</ele>
        <time>2015-10-25T11:07:28.981Z</time>
      </trkpt>
      <trkpt lat="45.98044" lon="4.60447">
        <ele>370.600006104</ele>
        <time>2015-10-25T11:07:29.945Z</time>
      </trkpt>
      <trkpt lat="45.98042" lon="4.60441">
        <ele>370.899993896</ele>
        <time>2015-10-25T11:07:31.04Z</time>
      </trkpt>
      <trkpt lat="45.98041" lon="4.60434">
        <ele>370.600006104</ele>
        <time>2015-10-25T11:07:31.951Z</time>
      </trkpt>
      <trkpt lat="45.98041" lon="4.60427">
        <ele>370.5</ele>
        <time>2015-10-25T11:07:32.974Z</time>
      </trkpt>
      <trkpt lat="45.98041" lon="4.6042">
        <ele>370.5</ele>
        <time>2015-10-25T11:07:33.952Z</time>
      </trkpt>
      <trkpt lat="45.98041" lon="4.60413">
        <ele>370.700012207</ele>
        <time>2015-10-25T11:07:34.988Z</time>
      </trkpt>
      <trkpt lat="45.98042" lon="4.60406">
        <ele>370.600006104</ele>
        <time>2015-10-25T11:07:35.949Z</time>
      </trkpt>
      <trkpt lat="45.98042" lon="4.60399">
        <ele>370.600006104</ele>
        <time>2015-10-25T11:07:36.978Z</time>
      </trkpt>
      <trkpt lat="45.98043" lon="4.60392">
        <ele>370.799987793</ele>
        <time>2015-10-25T11:07:37.948Z</time>
      </trkpt>
      <trkpt lat="45.98044" lon="4.60384">
        <ele>370.700012207</ele>
        <time>2015-10-25T11:07:38.978Z</time>
      </trkpt>
      <trkpt lat="45.98044" lon="4.60376">
        <ele>370.600006104</ele>
        <time>2015-10-25T11:07:39.955Z</time>
      </trkpt>
      <trkpt lat="45.98045" lon="4.60367">
        <ele>370.200012207</ele>
        <time>2015-10-25T11:07:40.974Z</time>
      </trkpt>
      <trkpt lat="45.98045" lon="4.60359">
        <ele>369.799987793</ele>
        <time>2015-10-25T11:07:41.955Z</time>
      </trkpt>
      <trkpt lat="45.98046" lon="4.6035">
        <ele>369.600006104</ele>
        <time>2015-10-25T11:07:42.977Z</time>
      </trkpt>
      <trkpt lat="45.98047" lon="4.60342">
        <ele>369.200012207</ele>
        <time>2015-10-25T11:07:43.947Z</time>
      </trkpt>
      <trkpt lat="45.98047" lon="4.60333">
        <ele>369.299987793</ele>
        <time>2015-10-25T11:07:44.974Z</time>
      </trkpt>
      <trkpt lat="45.98049" lon="4.60325">
        <ele>368.899993896</ele>
        <time>2015-10-25T11:07:45.974Z</time>
      </trkpt>
      <trkpt lat="45.9805" lon="4.60316">
        <ele>368.399993896</ele>
        <time>2015-10-25T11:07:46.977Z</time>
      </trkpt>
      <trkpt lat="45.98052" lon="4.60307">
        <ele>368.200012207</ele>
        <time>2015-10-25T11:07:47.952Z</time>
      </trkpt>
      <trkpt lat="45.98053" lon="4.60298">
        <ele>367.899993896</ele>
        <time>2015-10-25T11:07:48.974Z</time>
      </trkpt>
      <trkpt lat="45.98055" lon="4.60289">
        <ele>367.700012207</ele>
        <time>2015-10-25T11:07:49.946Z</time>
      </trkpt>
      <trkpt lat="45.98056" lon="4.6028">
        <ele>367.399993896</ele>
        <time>2015-10-25T11:07:50.993Z</time>
      </trkpt>
      <trkpt lat="45.98057" lon="4.60271">
        <ele>367.5</ele>
        <time>2015-10-25T11:07:51.952Z</time>
      </trkpt>
      <trkpt lat="45.98059" lon="4.60262">
        <ele>367.200012207</ele>
        <time>2015-10-25T11:07:52.974Z</time>
      </trkpt>
      <trkpt lat="45.9806" lon="4.60253">
        <ele>366.899993896</ele>
        <time>2015-10-25T11:07:53.949Z</time>
      </trkpt>
      <trkpt lat="45.98061" lon="4.60243">
        <ele>367.200012207</ele>
        <time>2015-10-25T11:07:54.974Z</time>
      </trkpt>
      <trkpt lat="45.98063" lon="4.60234">
        <ele>367.200012207</ele>
        <time>2015-10-25T11:07:55.947Z</time>
      </trkpt>
      <trkpt lat="45.98064" lon="4.60225">
        <ele>367.200012207</ele>
        <time>2015-10-25T11:07:56.974Z</time>
      </trkpt>
      <trkpt lat="45.98066" lon="4.60217">
        <ele>367</ele>
        <time>2015-10-25T11:07:57.951Z</time>
      </trkpt>
      <trkpt lat="45.98068" lon="4.60208">
        <ele>366.899993896</ele>
        <time>2015-10-25T11:07:58.974Z</time>
      </trkpt>
      <trkpt lat="45.98069" lon="4.60198">
        <ele>366.700012207</ele>
        <time>2015-10-25T11:07:59.949Z</time>
      </trkpt>
      <trkpt lat="45.98071" lon="4.60189">
        <ele>366.600006104</ele>
        <time>2015-10-25T11:08:01.005Z</time>
      </trkpt>
      <trkpt lat="45.98073" lon="4.6018">
        <ele>366.399993896</ele>
        <time>2015-10-25T11:08:01.951Z</time>
      </trkpt>
      <trkpt lat="45.98075" lon="4.60171">
        <ele>366.100006104</ele>
        <time>2015-10-25T11:08:02.974Z</time>
      </trkpt>
      <trkpt lat="45.98077" lon="4.60163">
        <ele>365.600006104</ele>
        <time>2015-10-25T11:08:03.952Z</time>
      </trkpt>
      <trkpt lat="45.9808" lon="4.60154">
        <ele>365.299987793</ele>
        <time>2015-10-25T11:08:04.974Z</time>
      </trkpt>
      <trkpt lat="45.98082" lon="4.60144">
        <ele>364.899993896</ele>
        <time>2015-10-25T11:08:05.948Z</time>
      </trkpt>
      <trkpt lat="45.98085" lon="4.60135">
        <ele>364.700012207</ele>
        <time>2015-10-25T11:08:06.975Z</time>
      </trkpt>
      <trkpt lat="45.98087" lon="4.60126">
        <ele>364.5</ele>
        <time>2015-10-25T11:08:07.95Z</time>
      </trkpt>
      <trkpt lat="45.9809" lon="4.60117">
        <ele>364.200012207</ele>
        <time>2015-10-25T11:08:08.978Z</time>
      </trkpt>
      <trkpt lat="45.98092" lon="4.60108">
        <ele>364.100006104</ele>
        <time>2015-10-25T11:08:09.952Z</time>
      </trkpt>
      <trkpt lat="45.98095" lon="4.60099">
        <ele>363.799987793</ele>
        <time>2015-10-25T11:08:10.974Z</time>
      </trkpt>
      <trkpt lat="45.98097" lon="4.6009">
        <ele>363.600006104</ele>
        <time>2015-10-25T11:08:11.949Z</time>
      </trkpt>
      <trkpt lat="45.98099" lon="4.60081">
        <ele>363.299987793</ele>
        <time>2015-10-25T11:08:12.978Z</time>
      </trkpt>
      <trkpt lat="45.98102" lon="4.60073">
        <ele>363.299987793</ele>
        <time>2015-10-25T11:08:13.947Z</time>
      </trkpt>
      <trkpt lat="45.98104" lon="4.60064">
        <ele>363.399993896</ele>
        <time>2015-10-25T11:08:14.975Z</time>
      </trkpt>
      <trkpt lat="45.98107" lon="4.60056">
        <ele>363.200012207</ele>
        <time>2015-10-25T11:08:15.952Z</time>
      </trkpt>
      <trkpt lat="45.98109" lon="4.60047">
        <ele>363.200012207</ele>
        <time>2015-10-25T11:08:16.991Z</time>
      </trkpt>
      <trkpt lat="45.98111" lon="4.60039">
        <ele>363.200012207</ele>
        <time>2015-10-25T11:08:17.947Z</time>
      </trkpt>
      <trkpt lat="45.98113" lon="4.6003">
        <ele>363.100006104</ele>
        <time>2015-10-25T11:08:18.977Z</time>
      </trkpt>
      <trkpt lat="45.98116" lon="4.60022">
        <ele>363.200012207</ele>
        <time>2015-10-25T11:08:19.947Z</time>
      </trkpt>
      <trkpt lat="45.98117" lon="4.60014">
        <ele>363.200012207</ele>
        <time>2015-10-25T11:08:21.014Z</time>
      </trkpt>
      <trkpt lat="45.98119" lon="4.60006">
        <ele>363.200012207</ele>
        <time>2015-10-25T11:08:21.994Z</time>
      </trkpt>
      <trkpt lat="45.98122" lon="4.59998">
        <ele>363.200012207</ele>
        <time>2015-10-25T11:08:22.975Z</time>
      </trkpt>
      <trkpt lat="45.98124" lon="4.5999">
        <ele>363.100006104</ele>
        <time>2015-10-25T11:08:23.948Z</time>
      </trkpt>
      <trkpt lat="45.98124" lon="4.59982">
        <ele>363</ele>
        <time>2015-10-25T11:08:24.974Z</time>
      </trkpt>
      <trkpt lat="45.98126" lon="4.59974">
        <ele>362.700012207</ele>
        <time>2015-10-25T11:08:25.947Z</time>
      </trkpt>
      <trkpt lat="45.98129" lon="4.59965">
        <ele>362.5</ele>
        <time>2015-10-25T11:08:26.974Z</time>
      </trkpt>
      <trkpt lat="45.98132" lon="4.59956">
        <ele>362.5</ele>
        <time>2015-10-25T11:08:27.95Z</time>
      </trkpt>
      <trkpt lat="45.98134" lon="4.59947">
        <ele>362.299987793</ele>
        <time>2015-10-25T11:08:28.978Z</time>
      </trkpt>
      <trkpt lat="45.98137" lon="4.59938">
        <ele>361.799987793</ele>
        <time>2015-10-25T11:08:29.952Z</time>
      </trkpt>
      <trkpt lat="45.9814" lon="4.59929">
        <ele>362.299987793</ele>
        <time>2015-10-25T11:08:31.024Z</time>
      </trkpt>
      <trkpt lat="45.98143" lon="4.59919">
        <ele>362.399993896</ele>
        <time>2015-10-25T11:08:31.947Z</time>
      </trkpt>
      <trkpt lat="45.98146" lon="4.5991">
        <ele>362.399993896</ele>
        <time>2015-10-25T11:08:32.992Z</time>
      </trkpt>
      <trkpt lat="45.98149" lon="4.59901">
        <ele>362.299987793</ele>
        <time>2015-10-25T11:08:33.954Z</time>
      </trkpt>
      <trkpt lat="45.98152" lon="4.59891">
        <ele>362</ele>
        <time>2015-10-25T11:08:34.982Z</time>
      </trkpt>
      <trkpt lat="45.98155" lon="4.59881">
        <ele>361.399993896</ele>
        <time>2015-10-25T11:08:35.952Z</time>
      </trkpt>
      <trkpt lat="45.98157" lon="4.59871">
        <ele>360.899993896</ele>
        <time>2015-10-25T11:08:36.978Z</time>
      </trkpt>
      <trkpt lat="45.98158" lon="4.59859">
        <ele>360.799987793</ele>
        <time>2015-10-25T11:08:37.947Z</time>
      </trkpt>
      <trkpt lat="45.98157" lon="4.59848">
        <ele>360.399993896</ele>
        <time>2015-10-25T11:08:39.005Z</time>
      </trkpt>
      <trkpt lat="45.98155" lon="4.59837">
        <ele>360.299987793</ele>
        <time>2015-10-25T11:08:39.949Z</time>
      </trkpt>
      <trkpt lat="45.98152" lon="4.59828">
        <ele>360</ele>
        <time>2015-10-25T11:08:40.978Z</time>
      </trkpt>
      <trkpt lat="45.98144" lon="4.59822">
        <ele>359.899993896</ele>
        <time>2015-10-25T11:08:41.951Z</time>
      </trkpt>
      <trkpt lat="45.98138" lon="4.59819">
        <ele>359.899993896</ele>
        <time>2015-10-25T11:08:42.977Z</time>
      </trkpt>
      <trkpt lat="45.98131" lon="4.5982">
        <ele>360</ele>
        <time>2015-10-25T11:08:43.947Z</time>
      </trkpt>
      <trkpt lat="45.98126" lon="4.59823">
        <ele>360.100006104</ele>
        <time>2015-10-25T11:08:44.977Z</time>
      </trkpt>
      <trkpt lat="45.98122" lon="4.59826">
        <ele>360.299987793</ele>
        <time>2015-10-25T11:08:45.954Z</time>
      </trkpt>
      <trkpt lat="45.98113" lon="4.59831">
        <ele>360.899993896</ele>
        <time>2015-10-25T11:08:47.978Z</time>
      </trkpt>
      <trkpt lat="45.9811" lon="4.59835">
        <ele>361.5</ele>
        <time>2015-10-25T11:08:48.963Z</time>
      </trkpt>
      <trkpt lat="45.98104" lon="4.59844">
        <ele>362</ele>
        <time>2015-10-25T11:08:50.974Z</time>
      </trkpt>
      <trkpt lat="45.98101" lon="4.59848">
        <ele>361.899993896</ele>
        <time>2015-10-25T11:08:51.979Z</time>
      </trkpt>
      <trkpt lat="45.98094" lon="4.59856">
        <ele>361.899993896</ele>
        <time>2015-10-25T11:08:53.975Z</time>
      </trkpt>
      <trkpt lat="45.98091" lon="4.59859">
        <ele>361.899993896</ele>
        <time>2015-10-25T11:08:54.951Z</time>
      </trkpt>
      <trkpt lat="45.98086" lon="4.59866">
        <ele>362.100006104</ele>
        <time>2015-10-25T11:08:57.006Z</time>
      </trkpt>
      <trkpt lat="45.98083" lon="4.5987">
        <ele>362.200012207</ele>
        <time>2015-10-25T11:08:57.954Z</time>
      </trkpt>
      <trkpt lat="45.98077" lon="4.59877">
        <ele>362.700012207</ele>
        <time>2015-10-25T11:08:59.981Z</time>
      </trkpt>
      <trkpt lat="45.98074" lon="4.59881">
        <ele>363</ele>
        <time>2015-10-25T11:09:00.948Z</time>
      </trkpt>
      <trkpt lat="45.98069" lon="4.59888">
        <ele>363.600006104</ele>
        <time>2015-10-25T11:09:02.978Z</time>
      </trkpt>
      <trkpt lat="45.98067" lon="4.59892">
        <ele>363.799987793</ele>
        <time>2015-10-25T11:09:03.951Z</time>
      </trkpt>
      <trkpt lat="45.98063" lon="4.599">
        <ele>364</ele>
        <time>2015-10-25T11:09:05.975Z</time>
      </trkpt>
      <trkpt lat="45.98061" lon="4.59904">
        <ele>364.100006104</ele>
        <time>2015-10-25T11:09:06.95Z</time>
      </trkpt>
      <trkpt lat="45.98057" lon="4.59912">
        <ele>364.799987793</ele>
        <time>2015-10-25T11:09:08.975Z</time>
      </trkpt>
      <trkpt lat="45.98054" lon="4.59915">
        <ele>365.200012207</ele>
        <time>2015-10-25T11:09:09.953Z</time>
      </trkpt>
      <trkpt lat="45.98049" lon="4.59922">
        <ele>365.899993896</ele>
        <time>2015-10-25T11:09:11.977Z</time>
      </trkpt>
      <trkpt lat="45.98047" lon="4.59926">
        <ele>366.5</ele>
        <time>2015-10-25T11:09:12.975Z</time>
      </trkpt>
      <trkpt lat="45.98042" lon="4.59933">
        <ele>367.100006104</ele>
        <time>2015-10-25T11:09:14.989Z</time>
      </trkpt>
      <trkpt lat="45.98039" lon="4.59937">
        <ele>367.200012207</ele>
        <time>2015-10-25T11:09:15.952Z</time>
      </trkpt>
      <trkpt lat="45.98035" lon="4.59944">
        <ele>367.600006104</ele>
        <time>2015-10-25T11:09:17.975Z</time>
      </trkpt>
      <trkpt lat="45.98033" lon="4.59948">
        <ele>368</ele>
        <time>2015-10-25T11:09:18.947Z</time>
      </trkpt>
      <trkpt lat="45.98029" lon="4.59954">
        <ele>368.100006104</ele>
        <time>2015-10-25T11:09:20.974Z</time>
      </trkpt>
      <trkpt lat="45.98026" lon="4.59957">
        <ele>368.299987793</ele>
        <time>2015-10-25T11:09:21.955Z</time>
      </trkpt>
      <trkpt lat="45.9802" lon="4.5996">
        <ele>369</ele>
        <time>2015-10-25T11:09:23.979Z</time>
      </trkpt>
      <trkpt lat="45.98016" lon="4.5996">
        <ele>369.200012207</ele>
        <time>2015-10-25T11:09:24.951Z</time>
      </trkpt>
      <trkpt lat="45.9801" lon="4.59961">
        <ele>370</ele>
        <time>2015-10-25T11:09:26.981Z</time>
      </trkpt>
      <trkpt lat="45.98006" lon="4.59961">
        <ele>370.399993896</ele>
        <time>2015-10-25T11:09:27.952Z</time>
      </trkpt>
      <trkpt lat="45.97999" lon="4.5996">
        <ele>371.700012207</ele>
        <time>2015-10-25T11:09:29.975Z</time>
      </trkpt>
      <trkpt lat="45.97996" lon="4.59959">
        <ele>371.899993896</ele>
        <time>2015-10-25T11:09:30.95Z</time>
      </trkpt>
      <trkpt lat="45.9799" lon="4.59959">
        <ele>372.299987793</ele>
        <time>2015-10-25T11:09:32.975Z</time>
      </trkpt>
      <trkpt lat="45.97987" lon="4.59958">
        <ele>372.799987793</ele>
        <time>2015-10-25T11:09:33.954Z</time>
      </trkpt>
      <trkpt lat="45.97981" lon="4.59958">
        <ele>373.600006104</ele>
        <time>2015-10-25T11:09:35.975Z</time>
      </trkpt>
      <trkpt lat="45.97978" lon="4.59959">
        <ele>373.399993896</ele>
        <time>2015-10-25T11:09:36.947Z</time>
      </trkpt>
      <trkpt lat="45.97972" lon="4.59962">
        <ele>373.200012207</ele>
        <time>2015-10-25T11:09:38.977Z</time>
      </trkpt>
      <trkpt lat="45.97969" lon="4.59964">
        <ele>373.600006104</ele>
        <time>2015-10-25T11:09:39.952Z</time>
      </trkpt>
      <trkpt lat="45.97964" lon="4.5997">
        <ele>373.399993896</ele>
        <time>2015-10-25T11:09:42.033Z</time>
      </trkpt>
      <trkpt lat="45.97961" lon="4.59972">
        <ele>373</ele>
        <time>2015-10-25T11:09:42.986Z</time>
      </trkpt>
      <trkpt lat="45.97956" lon="4.59982">
        <ele>373.5</ele>
        <time>2015-10-25T11:09:45.978Z</time>
      </trkpt>
      <trkpt lat="45.97955" lon="4.59986">
        <ele>374</ele>
        <time>2015-10-25T11:09:46.95Z</time>
      </trkpt>
      <trkpt lat="45.97951" lon="4.59996">
        <ele>375.200012207</ele>
        <time>2015-10-25T11:09:49.973Z</time>
      </trkpt>
      <trkpt lat="45.9795" lon="4.6">
        <ele>375.399993896</ele>
        <time>2015-10-25T11:09:50.973Z</time>
      </trkpt>
      <trkpt lat="45.97949" lon="4.60009">
        <ele>376.200012207</ele>
        <time>2015-10-25T11:09:52.973Z</time>
      </trkpt>
      <trkpt lat="45.97948" lon="4.60013">
        <ele>376.200012207</ele>
        <time>2015-10-25T11:09:53.948Z</time>
      </trkpt>
      <trkpt lat="45.97947" lon="4.60023">
        <ele>376.200012207</ele>
        <time>2015-10-25T11:09:55.973Z</time>
      </trkpt>
      <trkpt lat="45.97945" lon="4.60028">
        <ele>376.100006104</ele>
        <time>2015-10-25T11:09:56.947Z</time>
      </trkpt>
      <trkpt lat="45.97943" lon="4.60037">
        <ele>376.200012207</ele>
        <time>2015-10-25T11:09:58.973Z</time>
      </trkpt>
      <trkpt lat="45.97942" lon="4.60041">
        <ele>376.5</ele>
        <time>2015-10-25T11:09:59.948Z</time>
      </trkpt>
      <trkpt lat="45.97938" lon="4.60052">
        <ele>377.100006104</ele>
        <time>2015-10-25T11:10:02.978Z</time>
      </trkpt>
      <trkpt lat="45.97937" lon="4.60056">
        <ele>377.100006104</ele>
        <time>2015-10-25T11:10:03.951Z</time>
      </trkpt>
      <trkpt lat="45.97934" lon="4.60068">
        <ele>376.600006104</ele>
        <time>2015-10-25T11:10:06.988Z</time>
      </trkpt>
      <trkpt lat="45.97932" lon="4.60071">
        <ele>376.799987793</ele>
        <time>2015-10-25T11:10:07.947Z</time>
      </trkpt>
      <trkpt lat="45.97927" lon="4.60082">
        <ele>376.899993896</ele>
        <time>2015-10-25T11:10:10.973Z</time>
      </trkpt>
      <trkpt lat="45.97925" lon="4.60085">
        <ele>377.100006104</ele>
        <time>2015-10-25T11:10:11.948Z</time>
      </trkpt>
      <trkpt lat="45.9792" lon="4.60096">
        <ele>377.100006104</ele>
        <time>2015-10-25T11:10:14.973Z</time>
      </trkpt>
      <trkpt lat="45.97919" lon="4.60099">
        <ele>377.100006104</ele>
        <time>2015-10-25T11:10:15.959Z</time>
      </trkpt>
      <trkpt lat="45.97913" lon="4.60108">
        <ele>377.399993896</ele>
        <time>2015-10-25T11:10:19.014Z</time>
      </trkpt>
      <trkpt lat="45.97911" lon="4.60111">
        <ele>377.5</ele>
        <time>2015-10-25T11:10:19.946Z</time>
      </trkpt>
      <trkpt lat="45.97905" lon="4.6012">
        <ele>377.799987793</ele>
        <time>2015-10-25T11:10:22.977Z</time>
      </trkpt>
      <trkpt lat="45.97904" lon="4.60123">
        <ele>377.700012207</ele>
        <time>2015-10-25T11:10:23.95Z</time>
      </trkpt>
      <trkpt lat="45.97898" lon="4.60133">
        <ele>377.899993896</ele>
        <time>2015-10-25T11:10:26.977Z</time>
      </trkpt>
      <trkpt lat="45.97896" lon="4.60135">
        <ele>378</ele>
        <time>2015-10-25T11:10:27.951Z</time>
      </trkpt>
      <trkpt lat="45.9789" lon="4.60144">
        <ele>378.5</ele>
        <time>2015-10-25T11:10:31.043Z</time>
      </trkpt>
      <trkpt lat="45.97888" lon="4.60146">
        <ele>378.600006104</ele>
        <time>2015-10-25T11:10:31.947Z</time>
      </trkpt>
      <trkpt lat="45.97882" lon="4.60154">
        <ele>379</ele>
        <time>2015-10-25T11:10:34.974Z</time>
      </trkpt>
      <trkpt lat="45.9788" lon="4.60157">
        <ele>379.100006104</ele>
        <time>2015-10-25T11:10:35.948Z</time>
      </trkpt>
      <trkpt lat="45.97874" lon="4.60165">
        <ele>379.399993896</ele>
        <time>2015-10-25T11:10:38.975Z</time>
      </trkpt>
      <trkpt lat="45.97873" lon="4.60168">
        <ele>379.399993896</ele>
        <time>2015-10-25T11:10:39.952Z</time>
      </trkpt>
      <trkpt lat="45.97868" lon="4.60174">
        <ele>379.700012207</ele>
        <time>2015-10-25T11:10:41.976Z</time>
      </trkpt>
      <trkpt lat="45.97865" lon="4.60177">
        <ele>379.5</ele>
        <time>2015-10-25T11:10:42.952Z</time>
      </trkpt>
      <trkpt lat="45.97861" lon="4.60184">
        <ele>379.600006104</ele>
        <time>2015-10-25T11:10:44.973Z</time>
      </trkpt>
      <trkpt lat="45.97859" lon="4.60187">
        <ele>379.299987793</ele>
        <time>2015-10-25T11:10:45.955Z</time>
      </trkpt>
      <trkpt lat="45.97855" lon="4.60194">
        <ele>379.100006104</ele>
        <time>2015-10-25T11:10:48.014Z</time>
      </trkpt>
      <trkpt lat="45.97853" lon="4.60197">
        <ele>379.399993896</ele>
        <time>2015-10-25T11:10:48.947Z</time>
      </trkpt>
      <trkpt lat="45.97849" lon="4.60204">
        <ele>379.799987793</ele>
        <time>2015-10-25T11:10:50.973Z</time>
      </trkpt>
      <trkpt lat="45.97847" lon="4.60208">
        <ele>379.899993896</ele>
        <time>2015-10-25T11:10:51.958Z</time>
      </trkpt>
      <trkpt lat="45.97844" lon="4.60216">
        <ele>380.299987793</ele>
        <time>2015-10-25T11:10:53.977Z</time>
      </trkpt>
      <trkpt lat="45.97843" lon="4.60219">
        <ele>380.399993896</ele>
        <time>2015-10-25T11:10:54.947Z</time>
      </trkpt>
      <trkpt lat="45.9784" lon="4.60232">
        <ele>380.399993896</ele>
        <time>2015-10-25T11:10:58.161Z</time>
      </trkpt>
      <trkpt lat="45.97839" lon="4.60236">
        <ele>380.5</ele>
        <time>2015-10-25T11:10:58.943Z</time>
      </trkpt>
      <trkpt lat="45.97837" lon="4.60244">
        <ele>380.700012207</ele>
        <time>2015-10-25T11:11:00.977Z</time>
      </trkpt>
      <trkpt lat="45.97835" lon="4.60248">
        <ele>380.700012207</ele>
        <time>2015-10-25T11:11:01.947Z</time>
      </trkpt>
      <trkpt lat="45.97831" lon="4.60256">
        <ele>381</ele>
        <time>2015-10-25T11:11:03.992Z</time>
      </trkpt>
      <trkpt lat="45.97829" lon="4.60259">
        <ele>381</ele>
        <time>2015-10-25T11:11:04.95Z</time>
      </trkpt>
      <trkpt lat="45.97826" lon="4.60267">
        <ele>380.700012207</ele>
        <time>2015-10-25T11:11:07Z</time>
      </trkpt>
      <trkpt lat="45.97825" lon="4.60272">
        <ele>380.200012207</ele>
        <time>2015-10-25T11:11:07.947Z</time>
      </trkpt>
      <trkpt lat="45.97823" lon="4.6028">
        <ele>380.5</ele>
        <time>2015-10-25T11:11:09.978Z</time>
      </trkpt>
      <trkpt lat="45.97821" lon="4.60284">
        <ele>380.700012207</ele>
        <time>2015-10-25T11:11:10.946Z</time>
      </trkpt>
      <trkpt lat="45.97819" lon="4.60292">
        <ele>381.200012207</ele>
        <time>2015-10-25T11:11:12.974Z</time>
      </trkpt>
      <trkpt lat="45.97818" lon="4.60296">
        <ele>381.5</ele>
        <time>2015-10-25T11:11:13.947Z</time>
      </trkpt>
      <trkpt lat="45.97814" lon="4.60307">
        <ele>382.299987793</ele>
        <time>2015-10-25T11:11:16.974Z</time>
      </trkpt>
      <trkpt lat="45.97812" lon="4.60311">
        <ele>382.200012207</ele>
        <time>2015-10-25T11:11:17.974Z</time>
      </trkpt>
      <trkpt lat="45.97808" lon="4.60322">
        <ele>382.700012207</ele>
        <time>2015-10-25T11:11:20.974Z</time>
      </trkpt>
      <trkpt lat="45.97806" lon="4.60325">
        <ele>382.799987793</ele>
        <time>2015-10-25T11:11:21.951Z</time>
      </trkpt>
      <trkpt lat="45.97802" lon="4.60336">
        <ele>383.799987793</ele>
        <time>2015-10-25T11:11:24.974Z</time>
      </trkpt>
      <trkpt lat="45.978" lon="4.6034">
        <ele>384.100006104</ele>
        <time>2015-10-25T11:11:25.95Z</time>
      </trkpt>
      <trkpt lat="45.97796" lon="4.6035">
        <ele>384.600006104</ele>
        <time>2015-10-25T11:11:28.973Z</time>
      </trkpt>
      <trkpt lat="45.97794" lon="4.60354">
        <ele>384.200012207</ele>
        <time>2015-10-25T11:11:29.974Z</time>
      </trkpt>
      <trkpt lat="45.97791" lon="4.60362">
        <ele>384.299987793</ele>
        <time>2015-10-25T11:11:31.974Z</time>
      </trkpt>
      <trkpt lat="45.9779" lon="4.60366">
        <ele>384.5</ele>
        <time>2015-10-25T11:11:32.947Z</time>
      </trkpt>
      <trkpt lat="45.97785" lon="4.60376">
        <ele>385.200012207</ele>
        <time>2015-10-25T11:11:36.005Z</time>
      </trkpt>
      <trkpt lat="45.97784" lon="4.6038">
        <ele>385.5</ele>
        <time>2015-10-25T11:11:36.947Z</time>
      </trkpt>
      <trkpt lat="45.97781" lon="4.60387">
        <ele>385.799987793</ele>
        <time>2015-10-25T11:11:38.977Z</time>
      </trkpt>
      <trkpt lat="45.97779" lon="4.6039">
        <ele>386</ele>
        <time>2015-10-25T11:11:39.952Z</time>
      </trkpt>
      <trkpt lat="45.97774" lon="4.60401">
        <ele>386.100006104</ele>
        <time>2015-10-25T11:11:42.973Z</time>
      </trkpt>
      <trkpt lat="45.97772" lon="4.60405">
        <ele>386.100006104</ele>
        <time>2015-10-25T11:11:43.949Z</time>
      </trkpt>
      <trkpt lat="45.97769" lon="4.60412">
        <ele>386.200012207</ele>
        <time>2015-10-25T11:11:46.027Z</time>
      </trkpt>
      <trkpt lat="45.97767" lon="4.60416">
        <ele>386.299987793</ele>
        <time>2015-10-25T11:11:46.95Z</time>
      </trkpt>
      <trkpt lat="45.97763" lon="4.60423">
        <ele>386.5</ele>
        <time>2015-10-25T11:11:48.973Z</time>
      </trkpt>
      <trkpt lat="45.97762" lon="4.60427">
        <ele>386.700012207</ele>
        <time>2015-10-25T11:11:49.947Z</time>
      </trkpt>
      <trkpt lat="45.97758" lon="4.60434">
        <ele>386.799987793</ele>
        <time>2015-10-25T11:11:51.978Z</time>
      </trkpt>
      <trkpt lat="45.97756" lon="4.60438">
        <ele>386.600006104</ele>
        <time>2015-10-25T11:11:52.948Z</time>
      </trkpt>
      <trkpt lat="45.97751" lon="4.60445">
        <ele>386.899993896</ele>
        <time>2015-10-25T11:11:54.973Z</time>
      </trkpt>
      <trkpt lat="45.97749" lon="4.60449">
        <ele>387</ele>
        <time>2015-10-25T11:11:55.965Z</time>
      </trkpt>
      <trkpt lat="45.97745" lon="4.60457">
        <ele>386.799987793</ele>
        <time>2015-10-25T11:11:57.981Z</time>
      </trkpt>
      <trkpt lat="45.97744" lon="4.60461">
        <ele>386.899993896</ele>
        <time>2015-10-25T11:11:58.986Z</time>
      </trkpt>
      <trkpt lat="45.9774" lon="4.60469">
        <ele>386.700012207</ele>
        <time>2015-10-25T11:12:00.977Z</time>
      </trkpt>
      <trkpt lat="45.97738" lon="4.60473">
        <ele>386.899993896</ele>
        <time>2015-10-25T11:12:01.948Z</time>
      </trkpt>
      <trkpt lat="45.97735" lon="4.60481">
        <ele>387.100006104</ele>
        <time>2015-10-25T11:12:04.031Z</time>
      </trkpt>
      <trkpt lat="45.97734" lon="4.60485">
        <ele>387.600006104</ele>
        <time>2015-10-25T11:12:04.953Z</time>
      </trkpt>
      <trkpt lat="45.97729" lon="4.60495">
        <ele>388.600006104</ele>
        <time>2015-10-25T11:12:07.981Z</time>
      </trkpt>
      <trkpt lat="45.97728" lon="4.60499">
        <ele>388.799987793</ele>
        <time>2015-10-25T11:12:08.952Z</time>
      </trkpt>
      <trkpt lat="45.97724" lon="4.60507">
        <ele>389.5</ele>
        <time>2015-10-25T11:12:11.006Z</time>
      </trkpt>
      <trkpt lat="45.97723" lon="4.6051">
        <ele>389.899993896</ele>
        <time>2015-10-25T11:12:11.955Z</time>
      </trkpt>
      <trkpt lat="45.9772" lon="4.60517">
        <ele>391.299987793</ele>
        <time>2015-10-25T11:12:13.982Z</time>
      </trkpt>
      <trkpt lat="45.97718" lon="4.60521">
        <ele>391.600006104</ele>
        <time>2015-10-25T11:12:14.954Z</time>
      </trkpt>
      <trkpt lat="45.97713" lon="4.60528">
        <ele>392.100006104</ele>
        <time>2015-10-25T11:12:17.052Z</time>
      </trkpt>
      <trkpt lat="45.97711" lon="4.60532">
        <ele>392.100006104</ele>
        <time>2015-10-25T11:12:17.978Z</time>
      </trkpt>
      <trkpt lat="45.97706" lon="4.60539">
        <ele>392.600006104</ele>
        <time>2015-10-25T11:12:19.978Z</time>
      </trkpt>
      <trkpt lat="45.97704" lon="4.60542">
        <ele>392.799987793</ele>
        <time>2015-10-25T11:12:20.949Z</time>
      </trkpt>
      <trkpt lat="45.97699" lon="4.60552">
        <ele>393.399993896</ele>
        <time>2015-10-25T11:12:23.978Z</time>
      </trkpt>
      <trkpt lat="45.97697" lon="4.60555">
        <ele>393.399993896</ele>
        <time>2015-10-25T11:12:24.953Z</time>
      </trkpt>
      <trkpt lat="45.97692" lon="4.60565">
        <ele>394</ele>
        <time>2015-10-25T11:12:27.993Z</time>
      </trkpt>
      <trkpt lat="45.97691" lon="4.60569">
        <ele>394.5</ele>
        <time>2015-10-25T11:12:28.972Z</time>
      </trkpt>
      <trkpt lat="45.97687" lon="4.60577">
        <ele>394.799987793</ele>
        <time>2015-10-25T11:12:30.977Z</time>
      </trkpt>
      <trkpt lat="45.97685" lon="4.6058">
        <ele>395.399993896</ele>
        <time>2015-10-25T11:12:31.951Z</time>
      </trkpt>
      <trkpt lat="45.97681" lon="4.60587">
        <ele>395.799987793</ele>
        <time>2015-10-25T11:12:33.981Z</time>
      </trkpt>
      <trkpt lat="45.97679" lon="4.6059">
        <ele>396</ele>
        <time>2015-10-25T11:12:34.951Z</time>
      </trkpt>
      <trkpt lat="45.97674" lon="4.60598">
        <ele>395.899993896</ele>
        <time>2015-10-25T11:12:37.019Z</time>
      </trkpt>
      <trkpt lat="45.97672" lon="4.60601">
        <ele>395.399993896</ele>
        <time>2015-10-25T11:12:37.951Z</time>
      </trkpt>
      <trkpt lat="45.97667" lon="4.60608">
        <ele>395.200012207</ele>
        <time>2015-10-25T11:12:39.98Z</time>
      </trkpt>
      <trkpt lat="45.97665" lon="4.60612">
        <ele>395.600006104</ele>
        <time>2015-10-25T11:12:40.951Z</time>
      </trkpt>
      <trkpt lat="45.97661" lon="4.60619">
        <ele>395.899993896</ele>
        <time>2015-10-25T11:12:42.999Z</time>
      </trkpt>
      <trkpt lat="45.97659" lon="4.60622">
        <ele>396.200012207</ele>
        <time>2015-10-25T11:12:43.986Z</time>
      </trkpt>
      <trkpt lat="45.97654" lon="4.60629">
        <ele>395.399993896</ele>
        <time>2015-10-25T11:12:45.983Z</time>
      </trkpt>
      <trkpt lat="45.97652" lon="4.60632">
        <ele>395.600006104</ele>
        <time>2015-10-25T11:12:46.951Z</time>
      </trkpt>
      <trkpt lat="45.97647" lon="4.60638">
        <ele>395.700012207</ele>
        <time>2015-10-25T11:12:48.979Z</time>
      </trkpt>
      <trkpt lat="45.97645" lon="4.60642">
        <ele>395.799987793</ele>
        <time>2015-10-25T11:12:49.947Z</time>
      </trkpt>
      <trkpt lat="45.9764" lon="4.60647">
        <ele>396.100006104</ele>
        <time>2015-10-25T11:12:51.985Z</time>
      </trkpt>
      <trkpt lat="45.97637" lon="4.6065">
        <ele>396</ele>
        <time>2015-10-25T11:12:52.948Z</time>
      </trkpt>
      <trkpt lat="45.97632" lon="4.60656">
        <ele>396.299987793</ele>
        <time>2015-10-25T11:12:54.978Z</time>
      </trkpt>
      <trkpt lat="45.97629" lon="4.60659">
        <ele>396.399993896</ele>
        <time>2015-10-25T11:12:55.949Z</time>
      </trkpt>
      <trkpt lat="45.97624" lon="4.60664">
        <ele>396.5</ele>
        <time>2015-10-25T11:12:57.982Z</time>
      </trkpt>
      <trkpt lat="45.97621" lon="4.60666">
        <ele>396.5</ele>
        <time>2015-10-25T11:12:58.949Z</time>
      </trkpt>
      <trkpt lat="45.97615" lon="4.60671">
        <ele>396.700012207</ele>
        <time>2015-10-25T11:13:01.014Z</time>
      </trkpt>
      <trkpt lat="45.97613" lon="4.60673">
        <ele>396.799987793</ele>
        <time>2015-10-25T11:13:01.977Z</time>
      </trkpt>
      <trkpt lat="45.97607" lon="4.60677">
        <ele>396.899993896</ele>
        <time>2015-10-25T11:13:04.002Z</time>
      </trkpt>
      <trkpt lat="45.97604" lon="4.60679">
        <ele>397.100006104</ele>
        <time>2015-10-25T11:13:04.95Z</time>
      </trkpt>
      <trkpt lat="45.97598" lon="4.60684">
        <ele>397.299987793</ele>
        <time>2015-10-25T11:13:06.979Z</time>
      </trkpt>
      <trkpt lat="45.97595" lon="4.60686">
        <ele>397.399993896</ele>
        <time>2015-10-25T11:13:07.948Z</time>
      </trkpt>
      <trkpt lat="45.97589" lon="4.6069">
        <ele>397.5</ele>
        <time>2015-10-25T11:13:09.981Z</time>
      </trkpt>
      <trkpt lat="45.97586" lon="4.60691">
        <ele>397.700012207</ele>
        <time>2015-10-25T11:13:10.947Z</time>
      </trkpt>
      <trkpt lat="45.9758" lon="4.60694">
        <ele>397.799987793</ele>
        <time>2015-10-25T11:13:12.976Z</time>
      </trkpt>
      <trkpt lat="45.97577" lon="4.60696">
        <ele>397.799987793</ele>
        <time>2015-10-25T11:13:13.947Z</time>
      </trkpt>
      <trkpt lat="45.97571" lon="4.60698">
        <ele>398.600006104</ele>
        <time>2015-10-25T11:13:15.984Z</time>
      </trkpt>
      <trkpt lat="45.97568" lon="4.60699">
        <ele>398.899993896</ele>
        <time>2015-10-25T11:13:16.956Z</time>
      </trkpt>
      <trkpt lat="45.97561" lon="4.60701">
        <ele>399.600006104</ele>
        <time>2015-10-25T11:13:19.113Z</time>
      </trkpt>
      <trkpt lat="45.97558" lon="4.60702">
        <ele>399.899993896</ele>
        <time>2015-10-25T11:13:19.949Z</time>
      </trkpt>
      <trkpt lat="45.97551" lon="4.60703">
        <ele>400.100006104</ele>
        <time>2015-10-25T11:13:21.988Z</time>
      </trkpt>
      <trkpt lat="45.97548" lon="4.60704">
        <ele>400.299987793</ele>
        <time>2015-10-25T11:13:22.948Z</time>
      </trkpt>
      <trkpt lat="45.97542" lon="4.60705">
        <ele>400.700012207</ele>
        <time>2015-10-25T11:13:24.979Z</time>
      </trkpt>
      <trkpt lat="45.97538" lon="4.60705">
        <ele>401</ele>
        <time>2015-10-25T11:13:25.951Z</time>
      </trkpt>
      <trkpt lat="45.97531" lon="4.60706">
        <ele>401.200012207</ele>
        <time>2015-10-25T11:13:28.035Z</time>
      </trkpt>
      <trkpt lat="45.97528" lon="4.60706">
        <ele>401.299987793</ele>
        <time>2015-10-25T11:13:28.948Z</time>
      </trkpt>
      <trkpt lat="45.97521" lon="4.60704">
        <ele>401.399993896</ele>
        <time>2015-10-25T11:13:30.98Z</time>
      </trkpt>
      <trkpt lat="45.97519" lon="4.60703">
        <ele>401.700012207</ele>
        <time>2015-10-25T11:13:31.955Z</time>
      </trkpt>
      <trkpt lat="45.97513" lon="4.60693">
        <ele>402.100006104</ele>
        <time>2015-10-25T11:13:36.06Z</time>
      </trkpt>
      <trkpt lat="45.97511" lon="4.60691">
        <ele>402.5</ele>
        <time>2015-10-25T11:13:36.951Z</time>
      </trkpt>
      <trkpt lat="45.97506" lon="4.60687">
        <ele>402.200012207</ele>
        <time>2015-10-25T11:13:38.979Z</time>
      </trkpt>
      <trkpt lat="45.97503" lon="4.60684">
        <ele>402.299987793</ele>
        <time>2015-10-25T11:13:39.957Z</time>
      </trkpt>
      <trkpt lat="45.97497" lon="4.60678">
        <ele>402.399993896</ele>
        <time>2015-10-25T11:13:41.98Z</time>
      </trkpt>
      <trkpt lat="45.97494" lon="4.60675">
        <ele>402.399993896</ele>
        <time>2015-10-25T11:13:42.961Z</time>
      </trkpt>
      <trkpt lat="45.97489" lon="4.60667">
        <ele>401</ele>
        <time>2015-10-25T11:13:44.978Z</time>
      </trkpt>
      <trkpt lat="45.97486" lon="4.60663">
        <ele>401</ele>
        <time>2015-10-25T11:13:45.954Z</time>
      </trkpt>
      <trkpt lat="45.97479" lon="4.60655">
        <ele>401.100006104</ele>
        <time>2015-10-25T11:13:47.981Z</time>
      </trkpt>
      <trkpt lat="45.97476" lon="4.60651">
        <ele>401.200012207</ele>
        <time>2015-10-25T11:13:48.953Z</time>
      </trkpt>
      <trkpt lat="45.97473" lon="4.60647">
        <ele>401.100006104</ele>
        <time>2015-10-25T11:13:49.975Z</time>
      </trkpt>
      <trkpt lat="45.97469" lon="4.60643">
        <ele>400.899993896</ele>
        <time>2015-10-25T11:13:50.96Z</time>
      </trkpt>
      <trkpt lat="45.97465" lon="4.60638">
        <ele>400.700012207</ele>
        <time>2015-10-25T11:13:52.019Z</time>
      </trkpt>
      <trkpt lat="45.97461" lon="4.60634">
        <ele>400.399993896</ele>
        <time>2015-10-25T11:13:52.947Z</time>
      </trkpt>
      <trkpt lat="45.97458" lon="4.60629">
        <ele>399.600006104</ele>
        <time>2015-10-25T11:13:53.979Z</time>
      </trkpt>
      <trkpt lat="45.97453" lon="4.60625">
        <ele>400</ele>
        <time>2015-10-25T11:13:54.977Z</time>
      </trkpt>
      <trkpt lat="45.97449" lon="4.6062">
        <ele>400</ele>
        <time>2015-10-25T11:13:55.98Z</time>
      </trkpt>
      <trkpt lat="45.97445" lon="4.60616">
        <ele>400</ele>
        <time>2015-10-25T11:13:56.969Z</time>
      </trkpt>
      <trkpt lat="45.9744" lon="4.60612">
        <ele>400.200012207</ele>
        <time>2015-10-25T11:13:57.98Z</time>
      </trkpt>
      <trkpt lat="45.97436" lon="4.60608">
        <ele>400.100006104</ele>
        <time>2015-10-25T11:13:58.947Z</time>
      </trkpt>
      <trkpt lat="45.97432" lon="4.60605">
        <ele>400</ele>
        <time>2015-10-25T11:13:59.98Z</time>
      </trkpt>
      <trkpt lat="45.97427" lon="4.60601">
        <ele>400.200012207</ele>
        <time>2015-10-25T11:14:00.948Z</time>
      </trkpt>
      <trkpt lat="45.97422" lon="4.60597">
        <ele>399.700012207</ele>
        <time>2015-10-25T11:14:01.983Z</time>
      </trkpt>
      <trkpt lat="45.97417" lon="4.60592">
        <ele>399.799987793</ele>
        <time>2015-10-25T11:14:02.95Z</time>
      </trkpt>
      <trkpt lat="45.97412" lon="4.60588">
        <ele>399.600006104</ele>
        <time>2015-10-25T11:14:03.982Z</time>
      </trkpt>
      <trkpt lat="45.97407" lon="4.60583">
        <ele>399.5</ele>
        <time>2015-10-25T11:14:04.946Z</time>
      </trkpt>
      <trkpt lat="45.97401" lon="4.60579">
        <ele>399.299987793</ele>
        <time>2015-10-25T11:14:05.976Z</time>
      </trkpt>
      <trkpt lat="45.97395" lon="4.60574">
        <ele>399.100006104</ele>
        <time>2015-10-25T11:14:06.948Z</time>
      </trkpt>
      <trkpt lat="45.9739" lon="4.6057">
        <ele>399.100006104</ele>
        <time>2015-10-25T11:14:07.974Z</time>
      </trkpt>
      <trkpt lat="45.97384" lon="4.60566">
        <ele>398.899993896</ele>
        <time>2015-10-25T11:14:08.993Z</time>
      </trkpt>
      <trkpt lat="45.97379" lon="4.60562">
        <ele>398.899993896</ele>
        <time>2015-10-25T11:14:09.979Z</time>
      </trkpt>
      <trkpt lat="45.97373" lon="4.60557">
        <ele>399.100006104</ele>
        <time>2015-10-25T11:14:10.951Z</time>
      </trkpt>
      <trkpt lat="45.97368" lon="4.60553">
        <ele>399.100006104</ele>
        <time>2015-10-25T11:14:11.99Z</time>
      </trkpt>
      <trkpt lat="45.97362" lon="4.60549">
        <ele>399.299987793</ele>
        <time>2015-10-25T11:14:12.949Z</time>
      </trkpt>
      <trkpt lat="45.97357" lon="4.60545">
        <ele>399.299987793</ele>
        <time>2015-10-25T11:14:13.977Z</time>
      </trkpt>
      <trkpt lat="45.97352" lon="4.6054">
        <ele>399.399993896</ele>
        <time>2015-10-25T11:14:14.953Z</time>
      </trkpt>
      <trkpt lat="45.97347" lon="4.60535">
        <ele>399.299987793</ele>
        <time>2015-10-25T11:14:15.982Z</time>
      </trkpt>
      <trkpt lat="45.97342" lon="4.60531">
        <ele>399.200012207</ele>
        <time>2015-10-25T11:14:16.949Z</time>
      </trkpt>
      <trkpt lat="45.97336" lon="4.60528">
        <ele>399.100006104</ele>
        <time>2015-10-25T11:14:18.024Z</time>
      </trkpt>
      <trkpt lat="45.97331" lon="4.60525">
        <ele>399.100006104</ele>
        <time>2015-10-25T11:14:18.951Z</time>
      </trkpt>
      <trkpt lat="45.97327" lon="4.60521">
        <ele>399</ele>
        <time>2015-10-25T11:14:19.982Z</time>
      </trkpt>
      <trkpt lat="45.97322" lon="4.60518">
        <ele>399</ele>
        <time>2015-10-25T11:14:20.951Z</time>
      </trkpt>
      <trkpt lat="45.97318" lon="4.60514">
        <ele>398.899993896</ele>
        <time>2015-10-25T11:14:21.98Z</time>
      </trkpt>
      <trkpt lat="45.97313" lon="4.6051">
        <ele>398.899993896</ele>
        <time>2015-10-25T11:14:22.947Z</time>
      </trkpt>
      <trkpt lat="45.97309" lon="4.60506">
        <ele>398.899993896</ele>
        <time>2015-10-25T11:14:23.98Z</time>
      </trkpt>
      <trkpt lat="45.97304" lon="4.60502">
        <ele>399.100006104</ele>
        <time>2015-10-25T11:14:24.947Z</time>
      </trkpt>
      <trkpt lat="45.973" lon="4.60498">
        <ele>398.899993896</ele>
        <time>2015-10-25T11:14:25.974Z</time>
      </trkpt>
      <trkpt lat="45.97295" lon="4.60493">
        <ele>399.200012207</ele>
        <time>2015-10-25T11:14:26.947Z</time>
      </trkpt>
      <trkpt lat="45.97291" lon="4.60489">
        <ele>399.200012207</ele>
        <time>2015-10-25T11:14:27.994Z</time>
      </trkpt>
      <trkpt lat="45.97286" lon="4.60484">
        <ele>399.299987793</ele>
        <time>2015-10-25T11:14:29.004Z</time>
      </trkpt>
      <trkpt lat="45.97282" lon="4.60479">
        <ele>399.299987793</ele>
        <time>2015-10-25T11:14:29.979Z</time>
      </trkpt>
      <trkpt lat="45.97277" lon="4.60474">
        <ele>399.299987793</ele>
        <time>2015-10-25T11:14:30.951Z</time>
      </trkpt>
      <trkpt lat="45.97273" lon="4.6047">
        <ele>399.399993896</ele>
        <time>2015-10-25T11:14:31.979Z</time>
      </trkpt>
      <trkpt lat="45.97269" lon="4.60465">
        <ele>399.600006104</ele>
        <time>2015-10-25T11:14:32.945Z</time>
      </trkpt>
      <trkpt lat="45.97264" lon="4.60461">
        <ele>399.700012207</ele>
        <time>2015-10-25T11:14:33.983Z</time>
      </trkpt>
      <trkpt lat="45.97261" lon="4.60457">
        <ele>399.700012207</ele>
        <time>2015-10-25T11:14:34.95Z</time>
      </trkpt>
      <trkpt lat="45.97254" lon="4.6045">
        <ele>399.899993896</ele>
        <time>2015-10-25T11:14:36.978Z</time>
      </trkpt>
      <trkpt lat="45.97251" lon="4.60446">
        <ele>400</ele>
        <time>2015-10-25T11:14:37.948Z</time>
      </trkpt>
      <trkpt lat="45.97247" lon="4.60442">
        <ele>400.200012207</ele>
        <time>2015-10-25T11:14:38.985Z</time>
      </trkpt>
      <trkpt lat="45.97243" lon="4.60439">
        <ele>400.299987793</ele>
        <time>2015-10-25T11:14:39.957Z</time>
      </trkpt>
      <trkpt lat="45.97236" lon="4.60431">
        <ele>400.600006104</ele>
        <time>2015-10-25T11:14:41.977Z</time>
      </trkpt>
      <trkpt lat="45.97232" lon="4.60428">
        <ele>400.700012207</ele>
        <time>2015-10-25T11:14:42.95Z</time>
      </trkpt>
      <trkpt lat="45.97225" lon="4.60421">
        <ele>401.100006104</ele>
        <time>2015-10-25T11:14:44.978Z</time>
      </trkpt>
      <trkpt lat="45.97222" lon="4.60417">
        <ele>401.399993896</ele>
        <time>2015-10-25T11:14:45.955Z</time>
      </trkpt>
      <trkpt lat="45.97214" lon="4.60411">
        <ele>401.799987793</ele>
        <time>2015-10-25T11:14:47.981Z</time>
      </trkpt>
      <trkpt lat="45.9721" lon="4.60409">
        <ele>402.200012207</ele>
        <time>2015-10-25T11:14:48.951Z</time>
      </trkpt>
      <trkpt lat="45.97202" lon="4.60406">
        <ele>402.399993896</ele>
        <time>2015-10-25T11:14:50.986Z</time>
      </trkpt>
      <trkpt lat="45.97198" lon="4.60406">
        <ele>402.600006104</ele>
        <time>2015-10-25T11:14:51.954Z</time>
      </trkpt>
      <trkpt lat="45.9719" lon="4.60406">
        <ele>402.799987793</ele>
        <time>2015-10-25T11:14:54.025Z</time>
      </trkpt>
      <trkpt lat="45.97186" lon="4.60407">
        <ele>402.799987793</ele>
        <time>2015-10-25T11:14:54.948Z</time>
      </trkpt>
      <trkpt lat="45.97178" lon="4.6041">
        <ele>403.299987793</ele>
        <time>2015-10-25T11:14:56.975Z</time>
      </trkpt>
      <trkpt lat="45.97175" lon="4.60412">
        <ele>403.399993896</ele>
        <time>2015-10-25T11:14:57.953Z</time>
      </trkpt>
      <trkpt lat="45.97168" lon="4.60417">
        <ele>403.799987793</ele>
        <time>2015-10-25T11:14:59.976Z</time>
      </trkpt>
      <trkpt lat="45.97165" lon="4.6042">
        <ele>404.100006104</ele>
        <time>2015-10-25T11:15:00.948Z</time>
      </trkpt>
      <trkpt lat="45.97159" lon="4.60425">
        <ele>404.600006104</ele>
        <time>2015-10-25T11:15:02.98Z</time>
      </trkpt>
      <trkpt lat="45.97156" lon="4.60427">
        <ele>404.700012207</ele>
        <time>2015-10-25T11:15:03.955Z</time>
      </trkpt>
      <trkpt lat="45.9715" lon="4.60432">
        <ele>405</ele>
        <time>2015-10-25T11:15:05.977Z</time>
      </trkpt>
      <trkpt lat="45.97147" lon="4.60434">
        <ele>405.200012207</ele>
        <time>2015-10-25T11:15:06.947Z</time>
      </trkpt>
      <trkpt lat="45.97142" lon="4.60439">
        <ele>405.5</ele>
        <time>2015-10-25T11:15:08.974Z</time>
      </trkpt>
      <trkpt lat="45.97139" lon="4.60442">
        <ele>405.600006104</ele>
        <time>2015-10-25T11:15:09.956Z</time>
      </trkpt>
      <trkpt lat="45.97131" lon="4.60447">
        <ele>406.399993896</ele>
        <time>2015-10-25T11:15:12.978Z</time>
      </trkpt>
      <trkpt lat="45.97129" lon="4.60449">
        <ele>406.600006104</ele>
        <time>2015-10-25T11:15:13.947Z</time>
      </trkpt>
      <trkpt lat="45.97122" lon="4.60456">
        <ele>407.100006104</ele>
        <time>2015-10-25T11:15:16.974Z</time>
      </trkpt>
      <trkpt lat="45.97119" lon="4.60459">
        <ele>407</ele>
        <time>2015-10-25T11:15:17.947Z</time>
      </trkpt>
      <trkpt lat="45.97112" lon="4.60465">
        <ele>407</ele>
        <time>2015-10-25T11:15:20.974Z</time>
      </trkpt>
      <trkpt lat="45.9711" lon="4.60467">
        <ele>407.100006104</ele>
        <time>2015-10-25T11:15:21.951Z</time>
      </trkpt>
      <trkpt lat="45.97102" lon="4.60473">
        <ele>407.799987793</ele>
        <time>2015-10-25T11:15:25.049Z</time>
      </trkpt>
      <trkpt lat="45.971" lon="4.60476">
        <ele>407.899993896</ele>
        <time>2015-10-25T11:15:25.95Z</time>
      </trkpt>
      <trkpt lat="45.97093" lon="4.60482">
        <ele>408.200012207</ele>
        <time>2015-10-25T11:15:28.975Z</time>
      </trkpt>
      <trkpt lat="45.9709" lon="4.60483">
        <ele>408.299987793</ele>
        <time>2015-10-25T11:15:29.949Z</time>
      </trkpt>
      <trkpt lat="45.97083" lon="4.60488">
        <ele>408.799987793</ele>
        <time>2015-10-25T11:15:32.973Z</time>
      </trkpt>
      <trkpt lat="45.97081" lon="4.60491">
        <ele>409</ele>
        <time>2015-10-25T11:15:33.95Z</time>
      </trkpt>
      <trkpt lat="45.97073" lon="4.60497">
        <ele>409.600006104</ele>
        <time>2015-10-25T11:15:37.019Z</time>
      </trkpt>
      <trkpt lat="45.97071" lon="4.60499">
        <ele>409.700012207</ele>
        <time>2015-10-25T11:15:37.97Z</time>
      </trkpt>
      <trkpt lat="45.97064" lon="4.60506">
        <ele>410</ele>
        <time>2015-10-25T11:15:40.975Z</time>
      </trkpt>
      <trkpt lat="45.97062" lon="4.60508">
        <ele>410.100006104</ele>
        <time>2015-10-25T11:15:41.948Z</time>
      </trkpt>
      <trkpt lat="45.97055" lon="4.60513">
        <ele>410.600006104</ele>
        <time>2015-10-25T11:15:44.974Z</time>
      </trkpt>
      <trkpt lat="45.97052" lon="4.60515">
        <ele>410.799987793</ele>
        <time>2015-10-25T11:15:45.972Z</time>
      </trkpt>
      <trkpt lat="45.97046" lon="4.60521">
        <ele>411.200012207</ele>
        <time>2015-10-25T11:15:49.047Z</time>
      </trkpt>
      <trkpt lat="45.97043" lon="4.60523">
        <ele>411.299987793</ele>
        <time>2015-10-25T11:15:49.946Z</time>
      </trkpt>
      <trkpt lat="45.97036" lon="4.60528">
        <ele>411.799987793</ele>
        <time>2015-10-25T11:15:52.974Z</time>
      </trkpt>
      <trkpt lat="45.97034" lon="4.6053">
        <ele>412.100006104</ele>
        <time>2015-10-25T11:15:53.948Z</time>
      </trkpt>
      <trkpt lat="45.97028" lon="4.60537">
        <ele>412.5</ele>
        <time>2015-10-25T11:15:57.011Z</time>
      </trkpt>
      <trkpt lat="45.97026" lon="4.60539">
        <ele>412.5</ele>
        <time>2015-10-25T11:15:57.952Z</time>
      </trkpt>
      <trkpt lat="45.97019" lon="4.60544">
        <ele>412.899993896</ele>
        <time>2015-10-25T11:16:00.974Z</time>
      </trkpt>
      <trkpt lat="45.97018" lon="4.60546">
        <ele>413.100006104</ele>
        <time>2015-10-25T11:16:01.95Z</time>
      </trkpt>
      <trkpt lat="45.97011" lon="4.60551">
        <ele>413.600006104</ele>
        <time>2015-10-25T11:16:04.974Z</time>
      </trkpt>
      <trkpt lat="45.97009" lon="4.60553">
        <ele>413.799987793</ele>
        <time>2015-10-25T11:16:05.989Z</time>
      </trkpt>
      <trkpt lat="45.97003" lon="4.60559">
        <ele>414.200012207</ele>
        <time>2015-10-25T11:16:08.974Z</time>
      </trkpt>
      <trkpt lat="45.97001" lon="4.60561">
        <ele>414.299987793</ele>
        <time>2015-10-25T11:16:09.951Z</time>
      </trkpt>
      <trkpt lat="45.96994" lon="4.60566">
        <ele>414.700012207</ele>
        <time>2015-10-25T11:16:12.981Z</time>
      </trkpt>
      <trkpt lat="45.96992" lon="4.60568">
        <ele>414.799987793</ele>
        <time>2015-10-25T11:16:13.972Z</time>
      </trkpt>
      <trkpt lat="45.96986" lon="4.60573">
        <ele>415.299987793</ele>
        <time>2015-10-25T11:16:17.023Z</time>
      </trkpt>
      <trkpt lat="45.96983" lon="4.60575">
        <ele>415.5</ele>
        <time>2015-10-25T11:16:17.948Z</time>
      </trkpt>
      <trkpt lat="45.96977" lon="4.60579">
        <ele>416</ele>
        <time>2015-10-25T11:16:20.978Z</time>
      </trkpt>
      <trkpt lat="45.96974" lon="4.60581">
        <ele>416.200012207</ele>
        <time>2015-10-25T11:16:21.955Z</time>
      </trkpt>
      <trkpt lat="45.96967" lon="4.60586">
        <ele>416.600006104</ele>
        <time>2015-10-25T11:16:24.978Z</time>
      </trkpt>
      <trkpt lat="45.96965" lon="4.60588">
        <ele>416.700012207</ele>
        <time>2015-10-25T11:16:25.95Z</time>
      </trkpt>
      <trkpt lat="45.96958" lon="4.60593">
        <ele>417.100006104</ele>
        <time>2015-10-25T11:16:29.014Z</time>
      </trkpt>
      <trkpt lat="45.96956" lon="4.60595">
        <ele>417.200012207</ele>
        <time>2015-10-25T11:16:29.989Z</time>
      </trkpt>
      <trkpt lat="45.9695" lon="4.60602">
        <ele>417.700012207</ele>
        <time>2015-10-25T11:16:32.974Z</time>
      </trkpt>
      <trkpt lat="45.96947" lon="4.60603">
        <ele>417.899993896</ele>
        <time>2015-10-25T11:16:33.954Z</time>
      </trkpt>
      <trkpt lat="45.96941" lon="4.60609">
        <ele>418.299987793</ele>
        <time>2015-10-25T11:16:37.018Z</time>
      </trkpt>
      <trkpt lat="45.96938" lon="4.60611">
        <ele>418.5</ele>
        <time>2015-10-25T11:16:37.969Z</time>
      </trkpt>
      <trkpt lat="45.96932" lon="4.60617">
        <ele>418.799987793</ele>
        <time>2015-10-25T11:16:41.055Z</time>
      </trkpt>
      <trkpt lat="45.9693" lon="4.60619">
        <ele>418.899993896</ele>
        <time>2015-10-25T11:16:41.949Z</time>
      </trkpt>
      <trkpt lat="45.96924" lon="4.60624">
        <ele>419.299987793</ele>
        <time>2015-10-25T11:16:44.975Z</time>
      </trkpt>
      <trkpt lat="45.96922" lon="4.60627">
        <ele>419.5</ele>
        <time>2015-10-25T11:16:45.951Z</time>
      </trkpt>
      <trkpt lat="45.96915" lon="4.6063">
        <ele>419.799987793</ele>
        <time>2015-10-25T11:16:48.977Z</time>
      </trkpt>
      <trkpt lat="45.96913" lon="4.60632">
        <ele>420</ele>
        <time>2015-10-25T11:16:49.946Z</time>
      </trkpt>
      <trkpt lat="45.96907" lon="4.60638">
        <ele>420.399993896</ele>
        <time>2015-10-25T11:16:52.974Z</time>
      </trkpt>
      <trkpt lat="45.96905" lon="4.60641">
        <ele>420.399993896</ele>
        <time>2015-10-25T11:16:53.948Z</time>
      </trkpt>
      <trkpt lat="45.96899" lon="4.60646">
        <ele>420.799987793</ele>
        <time>2015-10-25T11:16:57.017Z</time>
      </trkpt>
      <trkpt lat="45.96896" lon="4.60647">
        <ele>421</ele>
        <time>2015-10-25T11:16:57.974Z</time>
      </trkpt>
      <trkpt lat="45.96889" lon="4.60651">
        <ele>421.5</ele>
        <time>2015-10-25T11:17:00.978Z</time>
      </trkpt>
      <trkpt lat="45.96887" lon="4.60653">
        <ele>421.600006104</ele>
        <time>2015-10-25T11:17:01.947Z</time>
      </trkpt>
      <trkpt lat="45.96881" lon="4.60659">
        <ele>422</ele>
        <time>2015-10-25T11:17:04.991Z</time>
      </trkpt>
      <trkpt lat="45.96878" lon="4.6066">
        <ele>422.200012207</ele>
        <time>2015-10-25T11:17:05.947Z</time>
      </trkpt>
      <trkpt lat="45.96872" lon="4.60666">
        <ele>422.600006104</ele>
        <time>2015-10-25T11:17:08.974Z</time>
      </trkpt>
      <trkpt lat="45.96869" lon="4.60668">
        <ele>422.700012207</ele>
        <time>2015-10-25T11:17:09.951Z</time>
      </trkpt>
      <trkpt lat="45.96862" lon="4.60674">
        <ele>422.899993896</ele>
        <time>2015-10-25T11:17:12.975Z</time>
      </trkpt>
      <trkpt lat="45.9686" lon="4.60676">
        <ele>423</ele>
        <time>2015-10-25T11:17:13.975Z</time>
      </trkpt>
      <trkpt lat="45.96855" lon="4.60682">
        <ele>423.399993896</ele>
        <time>2015-10-25T11:17:17.014Z</time>
      </trkpt>
      <trkpt lat="45.96853" lon="4.60684">
        <ele>423.5</ele>
        <time>2015-10-25T11:17:17.949Z</time>
      </trkpt>
      <trkpt lat="45.96846" lon="4.6069">
        <ele>423.799987793</ele>
        <time>2015-10-25T11:17:20.975Z</time>
      </trkpt>
      <trkpt lat="45.96844" lon="4.60692">
        <ele>423.799987793</ele>
        <time>2015-10-25T11:17:21.969Z</time>
      </trkpt>
      <trkpt lat="45.96837" lon="4.60696">
        <ele>424.100006104</ele>
        <time>2015-10-25T11:17:24.975Z</time>
      </trkpt>
      <trkpt lat="45.96835" lon="4.60698">
        <ele>424.200012207</ele>
        <time>2015-10-25T11:17:25.946Z</time>
      </trkpt>
      <trkpt lat="45.96828" lon="4.60704">
        <ele>424.5</ele>
        <time>2015-10-25T11:17:28.998Z</time>
      </trkpt>
      <trkpt lat="45.96826" lon="4.60706">
        <ele>424.799987793</ele>
        <time>2015-10-25T11:17:29.984Z</time>
      </trkpt>
      <trkpt lat="45.96819" lon="4.60711">
        <ele>425.5</ele>
        <time>2015-10-25T11:17:32.976Z</time>
      </trkpt>
      <trkpt lat="45.96817" lon="4.60713">
        <ele>425.799987793</ele>
        <time>2015-10-25T11:17:33.95Z</time>
      </trkpt>
      <trkpt lat="45.96809" lon="4.60718">
        <ele>426.299987793</ele>
        <time>2015-10-25T11:17:37.014Z</time>
      </trkpt>
      <trkpt lat="45.96807" lon="4.60719">
        <ele>426.600006104</ele>
        <time>2015-10-25T11:17:37.978Z</time>
      </trkpt>
      <trkpt lat="45.96801" lon="4.60725">
        <ele>427.100006104</ele>
        <time>2015-10-25T11:17:40.991Z</time>
      </trkpt>
      <trkpt lat="45.96799" lon="4.60728">
        <ele>427.299987793</ele>
        <time>2015-10-25T11:17:41.948Z</time>
      </trkpt>
      <trkpt lat="45.96792" lon="4.60733">
        <ele>427.700012207</ele>
        <time>2015-10-25T11:17:44.975Z</time>
      </trkpt>
      <trkpt lat="45.96789" lon="4.60735">
        <ele>427.799987793</ele>
        <time>2015-10-25T11:17:45.951Z</time>
      </trkpt>
      <trkpt lat="45.96783" lon="4.6074">
        <ele>428.200012207</ele>
        <time>2015-10-25T11:17:48.986Z</time>
      </trkpt>
      <trkpt lat="45.96781" lon="4.60742">
        <ele>428.299987793</ele>
        <time>2015-10-25T11:17:49.947Z</time>
      </trkpt>
      <trkpt lat="45.96775" lon="4.60748">
        <ele>428.700012207</ele>
        <time>2015-10-25T11:17:52.978Z</time>
      </trkpt>
      <trkpt lat="45.96773" lon="4.6075">
        <ele>428.799987793</ele>
        <time>2015-10-25T11:17:53.948Z</time>
      </trkpt>
      <trkpt lat="45.96766" lon="4.60755">
        <ele>429.100006104</ele>
        <time>2015-10-25T11:17:57.203Z</time>
      </trkpt>
      <trkpt lat="45.96764" lon="4.60757">
        <ele>429.200012207</ele>
        <time>2015-10-25T11:17:57.95Z</time>
      </trkpt>
      <trkpt lat="45.96758" lon="4.60762">
        <ele>429.600006104</ele>
        <time>2015-10-25T11:18:00.974Z</time>
      </trkpt>
      <trkpt lat="45.96755" lon="4.60764">
        <ele>429.700012207</ele>
        <time>2015-10-25T11:18:01.949Z</time>
      </trkpt>
      <trkpt lat="45.96749" lon="4.6077">
        <ele>430</ele>
        <time>2015-10-25T11:18:04.978Z</time>
      </trkpt>
      <trkpt lat="45.96746" lon="4.60772">
        <ele>430.200012207</ele>
        <time>2015-10-25T11:18:06.064Z</time>
      </trkpt>
      <trkpt lat="45.96739" lon="4.60778">
        <ele>430.600006104</ele>
        <time>2015-10-25T11:18:08.978Z</time>
      </trkpt>
      <trkpt lat="45.96737" lon="4.60779">
        <ele>430.799987793</ele>
        <time>2015-10-25T11:18:09.951Z</time>
      </trkpt>
      <trkpt lat="45.96729" lon="4.60784">
        <ele>431.100006104</ele>
        <time>2015-10-25T11:18:12.974Z</time>
      </trkpt>
      <trkpt lat="45.96726" lon="4.60786">
        <ele>431.200012207</ele>
        <time>2015-10-25T11:18:13.968Z</time>
      </trkpt>
      <trkpt lat="45.96719" lon="4.60792">
        <ele>431.600006104</ele>
        <time>2015-10-25T11:18:17.001Z</time>
      </trkpt>
      <trkpt lat="45.96717" lon="4.60794">
        <ele>431.799987793</ele>
        <time>2015-10-25T11:18:17.952Z</time>
      </trkpt>
      <trkpt lat="45.96715" lon="4.60799">
        <ele>432</ele>
        <time>2015-10-25T11:18:19.974Z</time>
      </trkpt>
      <trkpt lat="45.96715" lon="4.608">
        <ele>432.200012207</ele>
        <time>2015-10-25T11:18:20.95Z</time>
      </trkpt>
      <trkpt lat="45.96716" lon="4.608">
        <ele>432</ele>
        <time>2015-10-25T11:19:19.984Z</time>
      </trkpt>
      <trkpt lat="45.96717" lon="4.60797">
        <ele>431.899993896</ele>
        <time>2015-10-25T11:19:20.969Z</time>
      </trkpt>
      <trkpt lat="45.96711" lon="4.60793">
        <ele>431.600006104</ele>
        <time>2015-10-25T11:23:57.977Z</time>
      </trkpt>
      <trkpt lat="45.96708" lon="4.60791">
        <ele>431.600006104</ele>
        <time>2015-10-25T11:23:58.948Z</time>
      </trkpt>
      <trkpt lat="45.96703" lon="4.60787">
        <ele>431.5</ele>
        <time>2015-10-25T11:24:00.972Z</time>
      </trkpt>
      <trkpt lat="45.967" lon="4.60785">
        <ele>431.700012207</ele>
        <time>2015-10-25T11:24:01.949Z</time>
      </trkpt>
      <trkpt lat="45.96693" lon="4.60779">
        <ele>431.799987793</ele>
        <time>2015-10-25T11:24:04.015Z</time>
      </trkpt>
      <trkpt lat="45.96691" lon="4.60776">
        <ele>431.899993896</ele>
        <time>2015-10-25T11:24:04.944Z</time>
      </trkpt>
      <trkpt lat="45.96685" lon="4.6077">
        <ele>432.100006104</ele>
        <time>2015-10-25T11:24:07.025Z</time>
      </trkpt>
      <trkpt lat="45.96682" lon="4.60766">
        <ele>432.200012207</ele>
        <time>2015-10-25T11:24:07.949Z</time>
      </trkpt>
      <trkpt lat="45.96676" lon="4.60759">
        <ele>432.299987793</ele>
        <time>2015-10-25T11:24:10.054Z</time>
      </trkpt>
      <trkpt lat="45.96673" lon="4.60755">
        <ele>432.399993896</ele>
        <time>2015-10-25T11:24:10.946Z</time>
      </trkpt>
      <trkpt lat="45.96667" lon="4.60746">
        <ele>432.399993896</ele>
        <time>2015-10-25T11:24:12.977Z</time>
      </trkpt>
      <trkpt lat="45.96664" lon="4.60742">
        <ele>432.299987793</ele>
        <time>2015-10-25T11:24:13.949Z</time>
      </trkpt>
      <trkpt lat="45.9666" lon="4.60738">
        <ele>432.200012207</ele>
        <time>2015-10-25T11:24:15Z</time>
      </trkpt>
      <trkpt lat="45.96657" lon="4.60733">
        <ele>432</ele>
        <time>2015-10-25T11:24:15.948Z</time>
      </trkpt>
      <trkpt lat="45.96653" lon="4.60729">
        <ele>432.200012207</ele>
        <time>2015-10-25T11:24:16.987Z</time>
      </trkpt>
      <trkpt lat="45.9665" lon="4.60725">
        <ele>432.100006104</ele>
        <time>2015-10-25T11:24:17.95Z</time>
      </trkpt>
      <trkpt lat="45.96646" lon="4.60721">
        <ele>432.100006104</ele>
        <time>2015-10-25T11:24:18.975Z</time>
      </trkpt>
      <trkpt lat="45.96642" lon="4.60716">
        <ele>432.100006104</ele>
        <time>2015-10-25T11:24:19.994Z</time>
      </trkpt>
      <trkpt lat="45.96639" lon="4.60713">
        <ele>432</ele>
        <time>2015-10-25T11:24:20.976Z</time>
      </trkpt>
      <trkpt lat="45.96635" lon="4.60708">
        <ele>431.899993896</ele>
        <time>2015-10-25T11:24:21.952Z</time>
      </trkpt>
      <trkpt lat="45.96631" lon="4.60704">
        <ele>431.700012207</ele>
        <time>2015-10-25T11:24:22.977Z</time>
      </trkpt>
      <trkpt lat="45.96627" lon="4.607">
        <ele>431.700012207</ele>
        <time>2015-10-25T11:24:23.948Z</time>
      </trkpt>
      <trkpt lat="45.96622" lon="4.60696">
        <ele>431.700012207</ele>
        <time>2015-10-25T11:24:24.994Z</time>
      </trkpt>
      <trkpt lat="45.96618" lon="4.60691">
        <ele>431.600006104</ele>
        <time>2015-10-25T11:24:25.951Z</time>
      </trkpt>
      <trkpt lat="45.96614" lon="4.60688">
        <ele>431.5</ele>
        <time>2015-10-25T11:24:26.995Z</time>
      </trkpt>
      <trkpt lat="45.9661" lon="4.60683">
        <ele>431.5</ele>
        <time>2015-10-25T11:24:27.956Z</time>
      </trkpt>
      <trkpt lat="45.96606" lon="4.6068">
        <ele>431.299987793</ele>
        <time>2015-10-25T11:24:28.989Z</time>
      </trkpt>
      <trkpt lat="45.96602" lon="4.60676">
        <ele>431.200012207</ele>
        <time>2015-10-25T11:24:30.077Z</time>
      </trkpt>
      <trkpt lat="45.96595" lon="4.6067">
        <ele>431.200012207</ele>
        <time>2015-10-25T11:24:32.003Z</time>
      </trkpt>
      <trkpt lat="45.96591" lon="4.60667">
        <ele>431.200012207</ele>
        <time>2015-10-25T11:24:32.95Z</time>
      </trkpt>
      <trkpt lat="45.96584" lon="4.60659">
        <ele>430.899993896</ele>
        <time>2015-10-25T11:24:34.982Z</time>
      </trkpt>
      <trkpt lat="45.96579" lon="4.60656">
        <ele>431.100006104</ele>
        <time>2015-10-25T11:24:35.951Z</time>
      </trkpt>
      <trkpt lat="45.96576" lon="4.60652">
        <ele>431.200012207</ele>
        <time>2015-10-25T11:24:36.998Z</time>
      </trkpt>
      <trkpt lat="45.96572" lon="4.60648">
        <ele>431.100006104</ele>
        <time>2015-10-25T11:24:37.946Z</time>
      </trkpt>
      <trkpt lat="45.96568" lon="4.60644">
        <ele>431</ele>
        <time>2015-10-25T11:24:38.974Z</time>
      </trkpt>
      <trkpt lat="45.96564" lon="4.60639">
        <ele>430.899993896</ele>
        <time>2015-10-25T11:24:39.949Z</time>
      </trkpt>
      <trkpt lat="45.9656" lon="4.60635">
        <ele>431</ele>
        <time>2015-10-25T11:24:40.989Z</time>
      </trkpt>
      <trkpt lat="45.96556" lon="4.60631">
        <ele>430.899993896</ele>
        <time>2015-10-25T11:24:41.951Z</time>
      </trkpt>
      <trkpt lat="45.96553" lon="4.60626">
        <ele>430.700012207</ele>
        <time>2015-10-25T11:24:42.974Z</time>
      </trkpt>
      <trkpt lat="45.96549" lon="4.60621">
        <ele>430.5</ele>
        <time>2015-10-25T11:24:43.949Z</time>
      </trkpt>
      <trkpt lat="45.96545" lon="4.60617">
        <ele>430.399993896</ele>
        <time>2015-10-25T11:24:44.978Z</time>
      </trkpt>
      <trkpt lat="45.96542" lon="4.60612">
        <ele>430.399993896</ele>
        <time>2015-10-25T11:24:45.953Z</time>
      </trkpt>
      <trkpt lat="45.96537" lon="4.60607">
        <ele>430.299987793</ele>
        <time>2015-10-25T11:24:46.996Z</time>
      </trkpt>
      <trkpt lat="45.96533" lon="4.60602">
        <ele>430.200012207</ele>
        <time>2015-10-25T11:24:47.948Z</time>
      </trkpt>
      <trkpt lat="45.96529" lon="4.60597">
        <ele>430.100006104</ele>
        <time>2015-10-25T11:24:48.974Z</time>
      </trkpt>
      <trkpt lat="45.96525" lon="4.60592">
        <ele>429.899993896</ele>
        <time>2015-10-25T11:24:49.949Z</time>
      </trkpt>
      <trkpt lat="45.96521" lon="4.60586">
        <ele>429.700012207</ele>
        <time>2015-10-25T11:24:51.007Z</time>
      </trkpt>
      <trkpt lat="45.96517" lon="4.60581">
        <ele>429.700012207</ele>
        <time>2015-10-25T11:24:51.949Z</time>
      </trkpt>
      <trkpt lat="45.96512" lon="4.60576">
        <ele>429.5</ele>
        <time>2015-10-25T11:24:52.973Z</time>
      </trkpt>
      <trkpt lat="45.96508" lon="4.60571">
        <ele>429.399993896</ele>
        <time>2015-10-25T11:24:53.95Z</time>
      </trkpt>
      <trkpt lat="45.96504" lon="4.60565">
        <ele>429.399993896</ele>
        <time>2015-10-25T11:24:54.98Z</time>
      </trkpt>
      <trkpt lat="45.965" lon="4.6056">
        <ele>429.200012207</ele>
        <time>2015-10-25T11:24:55.946Z</time>
      </trkpt>
      <trkpt lat="45.96496" lon="4.60556">
        <ele>429.100006104</ele>
        <time>2015-10-25T11:24:57.013Z</time>
      </trkpt>
      <trkpt lat="45.96493" lon="4.60551">
        <ele>429</ele>
        <time>2015-10-25T11:24:57.949Z</time>
      </trkpt>
      <trkpt lat="45.96489" lon="4.60546">
        <ele>429</ele>
        <time>2015-10-25T11:24:58.973Z</time>
      </trkpt>
      <trkpt lat="45.96485" lon="4.6054">
        <ele>428.799987793</ele>
        <time>2015-10-25T11:24:59.947Z</time>
      </trkpt>
      <trkpt lat="45.96481" lon="4.60535">
        <ele>428.600006104</ele>
        <time>2015-10-25T11:25:00.977Z</time>
      </trkpt>
      <trkpt lat="45.96478" lon="4.6053">
        <ele>428.5</ele>
        <time>2015-10-25T11:25:01.946Z</time>
      </trkpt>
      <trkpt lat="45.96474" lon="4.60524">
        <ele>428.399993896</ele>
        <time>2015-10-25T11:25:02.977Z</time>
      </trkpt>
      <trkpt lat="45.9647" lon="4.60518">
        <ele>428.399993896</ele>
        <time>2015-10-25T11:25:03.95Z</time>
      </trkpt>
      <trkpt lat="45.96466" lon="4.60513">
        <ele>428.299987793</ele>
        <time>2015-10-25T11:25:04.978Z</time>
      </trkpt>
      <trkpt lat="45.96461" lon="4.60507">
        <ele>428.100006104</ele>
        <time>2015-10-25T11:25:05.947Z</time>
      </trkpt>
      <trkpt lat="45.96456" lon="4.60501">
        <ele>428.200012207</ele>
        <time>2015-10-25T11:25:06.993Z</time>
      </trkpt>
      <trkpt lat="45.96452" lon="4.60495">
        <ele>428.299987793</ele>
        <time>2015-10-25T11:25:07.949Z</time>
      </trkpt>
      <trkpt lat="45.96447" lon="4.60489">
        <ele>428.100006104</ele>
        <time>2015-10-25T11:25:09.008Z</time>
      </trkpt>
      <trkpt lat="45.96443" lon="4.60483">
        <ele>428</ele>
        <time>2015-10-25T11:25:09.949Z</time>
      </trkpt>
      <trkpt lat="45.96439" lon="4.60477">
        <ele>427.899993896</ele>
        <time>2015-10-25T11:25:10.976Z</time>
      </trkpt>
      <trkpt lat="45.96435" lon="4.60471">
        <ele>427.799987793</ele>
        <time>2015-10-25T11:25:11.957Z</time>
      </trkpt>
      <trkpt lat="45.96432" lon="4.60465">
        <ele>427.799987793</ele>
        <time>2015-10-25T11:25:12.99Z</time>
      </trkpt>
      <trkpt lat="45.96429" lon="4.60458">
        <ele>427.799987793</ele>
        <time>2015-10-25T11:25:13.946Z</time>
      </trkpt>
      <trkpt lat="45.96426" lon="4.60452">
        <ele>427.600006104</ele>
        <time>2015-10-25T11:25:14.976Z</time>
      </trkpt>
      <trkpt lat="45.96423" lon="4.60446">
        <ele>427.799987793</ele>
        <time>2015-10-25T11:25:15.949Z</time>
      </trkpt>
      <trkpt lat="45.9642" lon="4.60439">
        <ele>427.799987793</ele>
        <time>2015-10-25T11:25:16.996Z</time>
      </trkpt>
      <trkpt lat="45.96416" lon="4.60432">
        <ele>427.899993896</ele>
        <time>2015-10-25T11:25:17.947Z</time>
      </trkpt>
      <trkpt lat="45.96413" lon="4.60425">
        <ele>428.100006104</ele>
        <time>2015-10-25T11:25:18.999Z</time>
      </trkpt>
      <trkpt lat="45.96409" lon="4.60419">
        <ele>428.399993896</ele>
        <time>2015-10-25T11:25:19.951Z</time>
      </trkpt>
      <trkpt lat="45.96406" lon="4.60412">
        <ele>428.799987793</ele>
        <time>2015-10-25T11:25:20.98Z</time>
      </trkpt>
      <trkpt lat="45.96403" lon="4.60406">
        <ele>429.100006104</ele>
        <time>2015-10-25T11:25:21.949Z</time>
      </trkpt>
      <trkpt lat="45.96399" lon="4.60399">
        <ele>429.200012207</ele>
        <time>2015-10-25T11:25:22.973Z</time>
      </trkpt>
      <trkpt lat="45.96395" lon="4.60394">
        <ele>429.200012207</ele>
        <time>2015-10-25T11:25:23.947Z</time>
      </trkpt>
      <trkpt lat="45.9639" lon="4.60389">
        <ele>429</ele>
        <time>2015-10-25T11:25:24.994Z</time>
      </trkpt>
      <trkpt lat="45.96385" lon="4.60386">
        <ele>428.600006104</ele>
        <time>2015-10-25T11:25:25.949Z</time>
      </trkpt>
      <trkpt lat="45.9638" lon="4.60384">
        <ele>428.700012207</ele>
        <time>2015-10-25T11:25:27.029Z</time>
      </trkpt>
      <trkpt lat="45.96374" lon="4.60384">
        <ele>428.700012207</ele>
        <time>2015-10-25T11:25:27.953Z</time>
      </trkpt>
      <trkpt lat="45.96369" lon="4.60384">
        <ele>428.799987793</ele>
        <time>2015-10-25T11:25:29.082Z</time>
      </trkpt>
      <trkpt lat="45.96364" lon="4.60385">
        <ele>428.799987793</ele>
        <time>2015-10-25T11:25:29.95Z</time>
      </trkpt>
      <trkpt lat="45.96358" lon="4.60386">
        <ele>428.799987793</ele>
        <time>2015-10-25T11:25:30.976Z</time>
      </trkpt>
      <trkpt lat="45.96352" lon="4.60387">
        <ele>428.5</ele>
        <time>2015-10-25T11:25:31.949Z</time>
      </trkpt>
      <trkpt lat="45.96346" lon="4.60387">
        <ele>428.5</ele>
        <time>2015-10-25T11:25:32.973Z</time>
      </trkpt>
      <trkpt lat="45.96339" lon="4.60386">
        <ele>428.600006104</ele>
        <time>2015-10-25T11:25:33.953Z</time>
      </trkpt>
      <trkpt lat="45.96333" lon="4.60385">
        <ele>428.399993896</ele>
        <time>2015-10-25T11:25:34.985Z</time>
      </trkpt>
      <trkpt lat="45.96327" lon="4.60384">
        <ele>428</ele>
        <time>2015-10-25T11:25:35.947Z</time>
      </trkpt>
      <trkpt lat="45.96321" lon="4.60382">
        <ele>427.600006104</ele>
        <time>2015-10-25T11:25:36.999Z</time>
      </trkpt>
      <trkpt lat="45.96315" lon="4.6038">
        <ele>427.200012207</ele>
        <time>2015-10-25T11:25:37.95Z</time>
      </trkpt>
      <trkpt lat="45.96309" lon="4.60378">
        <ele>427.100006104</ele>
        <time>2015-10-25T11:25:38.99Z</time>
      </trkpt>
      <trkpt lat="45.96303" lon="4.60375">
        <ele>426.5</ele>
        <time>2015-10-25T11:25:39.95Z</time>
      </trkpt>
      <trkpt lat="45.96296" lon="4.60372">
        <ele>426.5</ele>
        <time>2015-10-25T11:25:40.973Z</time>
      </trkpt>
      <trkpt lat="45.9629" lon="4.6037">
        <ele>426</ele>
        <time>2015-10-25T11:25:41.951Z</time>
      </trkpt>
      <trkpt lat="45.96283" lon="4.60367">
        <ele>425.399993896</ele>
        <time>2015-10-25T11:25:42.973Z</time>
      </trkpt>
      <trkpt lat="45.96276" lon="4.60365">
        <ele>425.200012207</ele>
        <time>2015-10-25T11:25:43.946Z</time>
      </trkpt>
      <trkpt lat="45.9627" lon="4.60363">
        <ele>425.200012207</ele>
        <time>2015-10-25T11:25:45.008Z</time>
      </trkpt>
      <trkpt lat="45.96263" lon="4.60362">
        <ele>424.899993896</ele>
        <time>2015-10-25T11:25:45.955Z</time>
      </trkpt>
      <trkpt lat="45.96256" lon="4.60361">
        <ele>424.899993896</ele>
        <time>2015-10-25T11:25:47.007Z</time>
      </trkpt>
      <trkpt lat="45.96249" lon="4.6036">
        <ele>424.899993896</ele>
        <time>2015-10-25T11:25:47.95Z</time>
      </trkpt>
      <trkpt lat="45.96242" lon="4.60361">
        <ele>424.700012207</ele>
        <time>2015-10-25T11:25:48.976Z</time>
      </trkpt>
      <trkpt lat="45.96235" lon="4.60362">
        <ele>424.399993896</ele>
        <time>2015-10-25T11:25:49.949Z</time>
      </trkpt>
      <trkpt lat="45.96229" lon="4.60364">
        <ele>424.200012207</ele>
        <time>2015-10-25T11:25:50.976Z</time>
      </trkpt>
      <trkpt lat="45.96223" lon="4.60366">
        <ele>424.100006104</ele>
        <time>2015-10-25T11:25:51.949Z</time>
      </trkpt>
      <trkpt lat="45.96217" lon="4.60368">
        <ele>424</ele>
        <time>2015-10-25T11:25:52.973Z</time>
      </trkpt>
      <trkpt lat="45.9621" lon="4.60371">
        <ele>423.799987793</ele>
        <time>2015-10-25T11:25:53.947Z</time>
      </trkpt>
      <trkpt lat="45.96204" lon="4.60375">
        <ele>423.799987793</ele>
        <time>2015-10-25T11:25:54.99Z</time>
      </trkpt>
      <trkpt lat="45.96199" lon="4.6038">
        <ele>423.799987793</ele>
        <time>2015-10-25T11:25:55.946Z</time>
      </trkpt>
      <trkpt lat="45.96193" lon="4.60387">
        <ele>423.799987793</ele>
        <time>2015-10-25T11:25:56.998Z</time>
      </trkpt>
      <trkpt lat="45.96188" lon="4.60394">
        <ele>423.299987793</ele>
        <time>2015-10-25T11:25:57.95Z</time>
      </trkpt>
      <trkpt lat="45.96184" lon="4.60403">
        <ele>423.100006104</ele>
        <time>2015-10-25T11:25:58.973Z</time>
      </trkpt>
      <trkpt lat="45.9618" lon="4.60413">
        <ele>423.100006104</ele>
        <time>2015-10-25T11:25:59.95Z</time>
      </trkpt>
      <trkpt lat="45.96177" lon="4.60423">
        <ele>422.799987793</ele>
        <time>2015-10-25T11:26:00.976Z</time>
      </trkpt>
      <trkpt lat="45.96175" lon="4.60433">
        <ele>422.5</ele>
        <time>2015-10-25T11:26:01.949Z</time>
      </trkpt>
      <trkpt lat="45.96171" lon="4.60443">
        <ele>422.600006104</ele>
        <time>2015-10-25T11:26:03.014Z</time>
      </trkpt>
      <trkpt lat="45.96169" lon="4.60454">
        <ele>422.399993896</ele>
        <time>2015-10-25T11:26:03.989Z</time>
      </trkpt>
      <trkpt lat="45.96165" lon="4.60464">
        <ele>422.200012207</ele>
        <time>2015-10-25T11:26:04.978Z</time>
      </trkpt>
      <trkpt lat="45.96162" lon="4.60475">
        <ele>421.899993896</ele>
        <time>2015-10-25T11:26:05.947Z</time>
      </trkpt>
      <trkpt lat="45.96158" lon="4.60486">
        <ele>421.600006104</ele>
        <time>2015-10-25T11:26:07.002Z</time>
      </trkpt>
      <trkpt lat="45.96156" lon="4.60498">
        <ele>421.299987793</ele>
        <time>2015-10-25T11:26:07.945Z</time>
      </trkpt>
      <trkpt lat="45.96153" lon="4.6051">
        <ele>420.600006104</ele>
        <time>2015-10-25T11:26:08.976Z</time>
      </trkpt>
      <trkpt lat="45.96151" lon="4.60522">
        <ele>420.700012207</ele>
        <time>2015-10-25T11:26:09.948Z</time>
      </trkpt>
      <trkpt lat="45.96149" lon="4.60533">
        <ele>420.5</ele>
        <time>2015-10-25T11:26:10.987Z</time>
      </trkpt>
      <trkpt lat="45.96146" lon="4.60544">
        <ele>420.399993896</ele>
        <time>2015-10-25T11:26:11.952Z</time>
      </trkpt>
      <trkpt lat="45.96142" lon="4.60554">
        <ele>419.799987793</ele>
        <time>2015-10-25T11:26:12.979Z</time>
      </trkpt>
      <trkpt lat="45.96138" lon="4.60562">
        <ele>419.5</ele>
        <time>2015-10-25T11:26:13.948Z</time>
      </trkpt>
      <trkpt lat="45.96134" lon="4.6057">
        <ele>420</ele>
        <time>2015-10-25T11:26:14.975Z</time>
      </trkpt>
      <trkpt lat="45.9613" lon="4.60578">
        <ele>420.5</ele>
        <time>2015-10-25T11:26:15.951Z</time>
      </trkpt>
      <trkpt lat="45.96127" lon="4.60585">
        <ele>420.899993896</ele>
        <time>2015-10-25T11:26:17.001Z</time>
      </trkpt>
      <trkpt lat="45.96124" lon="4.60591">
        <ele>421.100006104</ele>
        <time>2015-10-25T11:26:17.97Z</time>
      </trkpt>
      <trkpt lat="45.96121" lon="4.60598">
        <ele>421</ele>
        <time>2015-10-25T11:26:18.986Z</time>
      </trkpt>
      <trkpt lat="45.96118" lon="4.60604">
        <ele>420.899993896</ele>
        <time>2015-10-25T11:26:19.945Z</time>
      </trkpt>
      <trkpt lat="45.96115" lon="4.6061">
        <ele>420.899993896</ele>
        <time>2015-10-25T11:26:21.006Z</time>
      </trkpt>
      <trkpt lat="45.96112" lon="4.60617">
        <ele>421</ele>
        <time>2015-10-25T11:26:21.952Z</time>
      </trkpt>
      <trkpt lat="45.9611" lon="4.60623">
        <ele>421.399993896</ele>
        <time>2015-10-25T11:26:22.98Z</time>
      </trkpt>
      <trkpt lat="45.96108" lon="4.60629">
        <ele>422</ele>
        <time>2015-10-25T11:26:23.949Z</time>
      </trkpt>
      <trkpt lat="45.96105" lon="4.60634">
        <ele>422.100006104</ele>
        <time>2015-10-25T11:26:24.972Z</time>
      </trkpt>
      <trkpt lat="45.96101" lon="4.60639">
        <ele>422.799987793</ele>
        <time>2015-10-25T11:26:25.948Z</time>
      </trkpt>
      <trkpt lat="45.96099" lon="4.60645">
        <ele>423.200012207</ele>
        <time>2015-10-25T11:26:27.019Z</time>
      </trkpt>
      <trkpt lat="45.96096" lon="4.6065">
        <ele>423.600006104</ele>
        <time>2015-10-25T11:26:27.948Z</time>
      </trkpt>
      <trkpt lat="45.96092" lon="4.60655">
        <ele>423.799987793</ele>
        <time>2015-10-25T11:26:28.972Z</time>
      </trkpt>
      <trkpt lat="45.9609" lon="4.60661">
        <ele>424.299987793</ele>
        <time>2015-10-25T11:26:29.947Z</time>
      </trkpt>
      <trkpt lat="45.96086" lon="4.60666">
        <ele>424.299987793</ele>
        <time>2015-10-25T11:26:30.972Z</time>
      </trkpt>
      <trkpt lat="45.96083" lon="4.6067">
        <ele>424.799987793</ele>
        <time>2015-10-25T11:26:31.948Z</time>
      </trkpt>
      <trkpt lat="45.96078" lon="4.60679">
        <ele>425.700012207</ele>
        <time>2015-10-25T11:26:33.975Z</time>
      </trkpt>
      <trkpt lat="45.96075" lon="4.60684">
        <ele>426</ele>
        <time>2015-10-25T11:26:34.948Z</time>
      </trkpt>
      <trkpt lat="45.9607" lon="4.60694">
        <ele>427.100006104</ele>
        <time>2015-10-25T11:26:37.003Z</time>
      </trkpt>
      <trkpt lat="45.96067" lon="4.60698">
        <ele>427.299987793</ele>
        <time>2015-10-25T11:26:37.948Z</time>
      </trkpt>
      <trkpt lat="45.96061" lon="4.60707">
        <ele>427.700012207</ele>
        <time>2015-10-25T11:26:39.975Z</time>
      </trkpt>
      <trkpt lat="45.96058" lon="4.60712">
        <ele>427.799987793</ele>
        <time>2015-10-25T11:26:40.948Z</time>
      </trkpt>
      <trkpt lat="45.96054" lon="4.60722">
        <ele>428.299987793</ele>
        <time>2015-10-25T11:26:43.024Z</time>
      </trkpt>
      <trkpt lat="45.96052" lon="4.60728">
        <ele>428.600006104</ele>
        <time>2015-10-25T11:26:43.945Z</time>
      </trkpt>
      <trkpt lat="45.96048" lon="4.60739">
        <ele>429.100006104</ele>
        <time>2015-10-25T11:26:45.978Z</time>
      </trkpt>
      <trkpt lat="45.96047" lon="4.60745">
        <ele>429.299987793</ele>
        <time>2015-10-25T11:26:47.102Z</time>
      </trkpt>
      <trkpt lat="45.96043" lon="4.60756">
        <ele>429.700012207</ele>
        <time>2015-10-25T11:26:48.972Z</time>
      </trkpt>
      <trkpt lat="45.96041" lon="4.60762">
        <ele>429.399993896</ele>
        <time>2015-10-25T11:26:49.945Z</time>
      </trkpt>
      <trkpt lat="45.96038" lon="4.60772">
        <ele>429.799987793</ele>
        <time>2015-10-25T11:26:51.975Z</time>
      </trkpt>
      <trkpt lat="45.96037" lon="4.60777">
        <ele>429.600006104</ele>
        <time>2015-10-25T11:26:52.945Z</time>
      </trkpt>
      <trkpt lat="45.96033" lon="4.60788">
        <ele>429.899993896</ele>
        <time>2015-10-25T11:26:54.976Z</time>
      </trkpt>
      <trkpt lat="45.96032" lon="4.60793">
        <ele>429.799987793</ele>
        <time>2015-10-25T11:26:55.948Z</time>
      </trkpt>
      <trkpt lat="45.96027" lon="4.60803">
        <ele>429.899993896</ele>
        <time>2015-10-25T11:26:57.975Z</time>
      </trkpt>
      <trkpt lat="45.96025" lon="4.60808">
        <ele>429.899993896</ele>
        <time>2015-10-25T11:26:58.945Z</time>
      </trkpt>
      <trkpt lat="45.96021" lon="4.60817">
        <ele>430.399993896</ele>
        <time>2015-10-25T11:27:00.972Z</time>
      </trkpt>
      <trkpt lat="45.96019" lon="4.60821">
        <ele>430.700012207</ele>
        <time>2015-10-25T11:27:01.945Z</time>
      </trkpt>
      <trkpt lat="45.96013" lon="4.60827">
        <ele>431.100006104</ele>
        <time>2015-10-25T11:27:03.988Z</time>
      </trkpt>
      <trkpt lat="45.9601" lon="4.60831">
        <ele>431.5</ele>
        <time>2015-10-25T11:27:05.035Z</time>
      </trkpt>
      <trkpt lat="45.96003" lon="4.60837">
        <ele>431.200012207</ele>
        <time>2015-10-25T11:27:07.081Z</time>
      </trkpt>
      <trkpt lat="45.96" lon="4.60839">
        <ele>431.200012207</ele>
        <time>2015-10-25T11:27:07.955Z</time>
      </trkpt>
      <trkpt lat="45.95993" lon="4.60844">
        <ele>431.299987793</ele>
        <time>2015-10-25T11:27:09.979Z</time>
      </trkpt>
      <trkpt lat="45.95989" lon="4.60845">
        <ele>431.200012207</ele>
        <time>2015-10-25T11:27:10.969Z</time>
      </trkpt>
      <trkpt lat="45.95983" lon="4.6085">
        <ele>431.299987793</ele>
        <time>2015-10-25T11:27:12.976Z</time>
      </trkpt>
      <trkpt lat="45.95981" lon="4.60854">
        <ele>431.5</ele>
        <time>2015-10-25T11:27:13.95Z</time>
      </trkpt>
      <trkpt lat="45.9598" lon="4.60865">
        <ele>431.5</ele>
        <time>2015-10-25T11:27:16.039Z</time>
      </trkpt>
      <trkpt lat="45.9598" lon="4.60871">
        <ele>431.299987793</ele>
        <time>2015-10-25T11:27:16.987Z</time>
      </trkpt>
      <trkpt lat="45.95979" lon="4.60882">
        <ele>431.100006104</ele>
        <time>2015-10-25T11:27:18.982Z</time>
      </trkpt>
      <trkpt lat="45.95977" lon="4.60888">
        <ele>431</ele>
        <time>2015-10-25T11:27:19.954Z</time>
      </trkpt>
      <trkpt lat="45.95974" lon="4.60892">
        <ele>430.799987793</ele>
        <time>2015-10-25T11:27:20.982Z</time>
      </trkpt>
      <trkpt lat="45.9597" lon="4.60895">
        <ele>431</ele>
        <time>2015-10-25T11:27:21.959Z</time>
      </trkpt>
      <trkpt lat="45.95966" lon="4.60898">
        <ele>430.899993896</ele>
        <time>2015-10-25T11:27:22.99Z</time>
      </trkpt>
      <trkpt lat="45.95962" lon="4.60901">
        <ele>430.700012207</ele>
        <time>2015-10-25T11:27:23.95Z</time>
      </trkpt>
      <trkpt lat="45.95957" lon="4.60904">
        <ele>430.5</ele>
        <time>2015-10-25T11:27:24.994Z</time>
      </trkpt>
      <trkpt lat="45.95952" lon="4.60906">
        <ele>430.399993896</ele>
        <time>2015-10-25T11:27:25.952Z</time>
      </trkpt>
      <trkpt lat="45.95947" lon="4.60908">
        <ele>430.399993896</ele>
        <time>2015-10-25T11:27:27.013Z</time>
      </trkpt>
      <trkpt lat="45.95942" lon="4.60909">
        <ele>430</ele>
        <time>2015-10-25T11:27:27.953Z</time>
      </trkpt>
      <trkpt lat="45.95936" lon="4.6091">
        <ele>429.799987793</ele>
        <time>2015-10-25T11:27:29.326Z</time>
      </trkpt>
      <trkpt lat="45.9593" lon="4.60912">
        <ele>429.600006104</ele>
        <time>2015-10-25T11:27:29.975Z</time>
      </trkpt>
      <trkpt lat="45.95922" lon="4.60913">
        <ele>429.200012207</ele>
        <time>2015-10-25T11:27:30.986Z</time>
      </trkpt>
      <trkpt lat="45.95915" lon="4.60914">
        <ele>428.899993896</ele>
        <time>2015-10-25T11:27:31.95Z</time>
      </trkpt>
      <trkpt lat="45.95908" lon="4.60915">
        <ele>428.299987793</ele>
        <time>2015-10-25T11:27:32.976Z</time>
      </trkpt>
      <trkpt lat="45.95899" lon="4.60917">
        <ele>427.600006104</ele>
        <time>2015-10-25T11:27:33.949Z</time>
      </trkpt>
      <trkpt lat="45.95891" lon="4.60918">
        <ele>427.5</ele>
        <time>2015-10-25T11:27:35.11Z</time>
      </trkpt>
      <trkpt lat="45.95883" lon="4.60919">
        <ele>427.200012207</ele>
        <time>2015-10-25T11:27:35.952Z</time>
      </trkpt>
      <trkpt lat="45.95874" lon="4.60921">
        <ele>426.600006104</ele>
        <time>2015-10-25T11:27:37.01Z</time>
      </trkpt>
      <trkpt lat="45.95866" lon="4.60923">
        <ele>426</ele>
        <time>2015-10-25T11:27:37.95Z</time>
      </trkpt>
      <trkpt lat="45.95857" lon="4.60924">
        <ele>424.899993896</ele>
        <time>2015-10-25T11:27:38.979Z</time>
      </trkpt>
      <trkpt lat="45.95849" lon="4.60925">
        <ele>424.299987793</ele>
        <time>2015-10-25T11:27:39.949Z</time>
      </trkpt>
      <trkpt lat="45.9584" lon="4.60925">
        <ele>423.399993896</ele>
        <time>2015-10-25T11:27:40.978Z</time>
      </trkpt>
      <trkpt lat="45.95831" lon="4.60925">
        <ele>423.399993896</ele>
        <time>2015-10-25T11:27:41.951Z</time>
      </trkpt>
      <trkpt lat="45.95831" lon="4.60925">
        <ele>423.399993896</ele>
        <time>2015-10-25T11:27:41.983Z</time>
      </trkpt>
      <trkpt lat="45.95822" lon="4.60925">
        <ele>422.399993896</ele>
        <time>2015-10-25T11:27:42.949Z</time>
      </trkpt>
      <trkpt lat="45.95822" lon="4.60925">
        <ele>422.399993896</ele>
        <time>2015-10-25T11:27:43.012Z</time>
      </trkpt>
      <trkpt lat="45.95812" lon="4.60924">
        <ele>421.700012207</ele>
        <time>2015-10-25T11:27:43.946Z</time>
      </trkpt>
      <trkpt lat="45.95803" lon="4.60924">
        <ele>421.200012207</ele>
        <time>2015-10-25T11:27:44.98Z</time>
      </trkpt>
      <trkpt lat="45.95795" lon="4.60923">
        <ele>421.600006104</ele>
        <time>2015-10-25T11:27:45.95Z</time>
      </trkpt>
      <trkpt lat="45.95786" lon="4.60923">
        <ele>421.799987793</ele>
        <time>2015-10-25T11:27:47.011Z</time>
      </trkpt>
      <trkpt lat="45.95778" lon="4.60922">
        <ele>421.5</ele>
        <time>2015-10-25T11:27:47.956Z</time>
      </trkpt>
      <trkpt lat="45.95769" lon="4.60922">
        <ele>421.399993896</ele>
        <time>2015-10-25T11:27:48.976Z</time>
      </trkpt>
      <trkpt lat="45.95761" lon="4.60922">
        <ele>420.700012207</ele>
        <time>2015-10-25T11:27:49.949Z</time>
      </trkpt>
      <trkpt lat="45.95753" lon="4.60921">
        <ele>420.399993896</ele>
        <time>2015-10-25T11:27:51.002Z</time>
      </trkpt>
      <trkpt lat="45.95745" lon="4.6092">
        <ele>419.899993896</ele>
        <time>2015-10-25T11:27:51.949Z</time>
      </trkpt>
      <trkpt lat="45.95738" lon="4.60918">
        <ele>419.600006104</ele>
        <time>2015-10-25T11:27:52.98Z</time>
      </trkpt>
      <trkpt lat="45.95731" lon="4.60915">
        <ele>419.200012207</ele>
        <time>2015-10-25T11:27:54.056Z</time>
      </trkpt>
      <trkpt lat="45.95724" lon="4.60913">
        <ele>418.899993896</ele>
        <time>2015-10-25T11:27:54.978Z</time>
      </trkpt>
      <trkpt lat="45.95717" lon="4.6091">
        <ele>418.399993896</ele>
        <time>2015-10-25T11:27:55.948Z</time>
      </trkpt>
      <trkpt lat="45.9571" lon="4.60907">
        <ele>417.899993896</ele>
        <time>2015-10-25T11:27:57.011Z</time>
      </trkpt>
      <trkpt lat="45.95703" lon="4.60904">
        <ele>417.299987793</ele>
        <time>2015-10-25T11:27:57.953Z</time>
      </trkpt>
      <trkpt lat="45.95696" lon="4.60902">
        <ele>416.899993896</ele>
        <time>2015-10-25T11:27:58.979Z</time>
      </trkpt>
      <trkpt lat="45.9569" lon="4.609">
        <ele>416.600006104</ele>
        <time>2015-10-25T11:27:59.951Z</time>
      </trkpt>
      <trkpt lat="45.95683" lon="4.60899">
        <ele>416.399993896</ele>
        <time>2015-10-25T11:28:00.979Z</time>
      </trkpt>
      <trkpt lat="45.95676" lon="4.60898">
        <ele>416</ele>
        <time>2015-10-25T11:28:01.949Z</time>
      </trkpt>
      <trkpt lat="45.95669" lon="4.60896">
        <ele>415.700012207</ele>
        <time>2015-10-25T11:28:02.975Z</time>
      </trkpt>
      <trkpt lat="45.95663" lon="4.60895">
        <ele>415.299987793</ele>
        <time>2015-10-25T11:28:03.976Z</time>
      </trkpt>
      <trkpt lat="45.95656" lon="4.60895">
        <ele>415</ele>
        <time>2015-10-25T11:28:04.976Z</time>
      </trkpt>
      <trkpt lat="45.95649" lon="4.60895">
        <ele>415</ele>
        <time>2015-10-25T11:28:05.947Z</time>
      </trkpt>
      <trkpt lat="45.95642" lon="4.60895">
        <ele>414.5</ele>
        <time>2015-10-25T11:28:07.041Z</time>
      </trkpt>
      <trkpt lat="45.95635" lon="4.60895">
        <ele>414.600006104</ele>
        <time>2015-10-25T11:28:07.949Z</time>
      </trkpt>
      <trkpt lat="45.95629" lon="4.60896">
        <ele>414.399993896</ele>
        <time>2015-10-25T11:28:08.974Z</time>
      </trkpt>
      <trkpt lat="45.95622" lon="4.60899">
        <ele>414.299987793</ele>
        <time>2015-10-25T11:28:09.949Z</time>
      </trkpt>
      <trkpt lat="45.95616" lon="4.60903">
        <ele>414.799987793</ele>
        <time>2015-10-25T11:28:10.974Z</time>
      </trkpt>
      <trkpt lat="45.95611" lon="4.60908">
        <ele>414.799987793</ele>
        <time>2015-10-25T11:28:11.952Z</time>
      </trkpt>
      <trkpt lat="45.95607" lon="4.60915">
        <ele>415.100006104</ele>
        <time>2015-10-25T11:28:12.975Z</time>
      </trkpt>
      <trkpt lat="45.95604" lon="4.60922">
        <ele>415.100006104</ele>
        <time>2015-10-25T11:28:13.95Z</time>
      </trkpt>
      <trkpt lat="45.95602" lon="4.6093">
        <ele>415</ele>
        <time>2015-10-25T11:28:14.978Z</time>
      </trkpt>
      <trkpt lat="45.95601" lon="4.60935">
        <ele>415</ele>
        <time>2015-10-25T11:28:15.952Z</time>
      </trkpt>
      <trkpt lat="45.95608" lon="4.60928">
        <ele>415.5</ele>
        <time>2015-10-25T11:28:24.979Z</time>
      </trkpt>
      <trkpt lat="45.95612" lon="4.60929">
        <ele>415.799987793</ele>
        <time>2015-10-25T11:28:25.954Z</time>
      </trkpt>
      <trkpt lat="45.95616" lon="4.60934">
        <ele>415.5</ele>
        <time>2015-10-25T11:28:27.013Z</time>
      </trkpt>
      <trkpt lat="45.95619" lon="4.6094">
        <ele>415.299987793</ele>
        <time>2015-10-25T11:28:27.968Z</time>
      </trkpt>
      <trkpt lat="45.95624" lon="4.60948">
        <ele>414.899993896</ele>
        <time>2015-10-25T11:28:28.977Z</time>
      </trkpt>
      <trkpt lat="45.95629" lon="4.60955">
        <ele>414.5</ele>
        <time>2015-10-25T11:28:29.951Z</time>
      </trkpt>
      <trkpt lat="45.95634" lon="4.60964">
        <ele>414.200012207</ele>
        <time>2015-10-25T11:28:30.979Z</time>
      </trkpt>
      <trkpt lat="45.9564" lon="4.60972">
        <ele>413.700012207</ele>
        <time>2015-10-25T11:28:31.949Z</time>
      </trkpt>
      <trkpt lat="45.95645" lon="4.60981">
        <ele>413.299987793</ele>
        <time>2015-10-25T11:28:32.991Z</time>
      </trkpt>
      <trkpt lat="45.95651" lon="4.60989">
        <ele>412.899993896</ele>
        <time>2015-10-25T11:28:33.952Z</time>
      </trkpt>
      <trkpt lat="45.95657" lon="4.60997">
        <ele>412.299987793</ele>
        <time>2015-10-25T11:28:35.017Z</time>
      </trkpt>
      <trkpt lat="45.95664" lon="4.61005">
        <ele>411.899993896</ele>
        <time>2015-10-25T11:28:35.95Z</time>
      </trkpt>
      <trkpt lat="45.95671" lon="4.61012">
        <ele>411.5</ele>
        <time>2015-10-25T11:28:37.009Z</time>
      </trkpt>
      <trkpt lat="45.95677" lon="4.61018">
        <ele>411</ele>
        <time>2015-10-25T11:28:37.95Z</time>
      </trkpt>
      <trkpt lat="45.95683" lon="4.61024">
        <ele>410.600006104</ele>
        <time>2015-10-25T11:28:38.978Z</time>
      </trkpt>
      <trkpt lat="45.95688" lon="4.61031">
        <ele>410.299987793</ele>
        <time>2015-10-25T11:28:39.951Z</time>
      </trkpt>
      <trkpt lat="45.95693" lon="4.6104">
        <ele>409.700012207</ele>
        <time>2015-10-25T11:28:40.979Z</time>
      </trkpt>
      <trkpt lat="45.95696" lon="4.6105">
        <ele>409.200012207</ele>
        <time>2015-10-25T11:28:41.949Z</time>
      </trkpt>
      <trkpt lat="45.957" lon="4.6106">
        <ele>408.799987793</ele>
        <time>2015-10-25T11:28:42.978Z</time>
      </trkpt>
      <trkpt lat="45.95704" lon="4.6107">
        <ele>408.299987793</ele>
        <time>2015-10-25T11:28:43.949Z</time>
      </trkpt>
      <trkpt lat="45.95708" lon="4.61081">
        <ele>407.799987793</ele>
        <time>2015-10-25T11:28:44.978Z</time>
      </trkpt>
      <trkpt lat="45.95712" lon="4.61093">
        <ele>406.899993896</ele>
        <time>2015-10-25T11:28:45.952Z</time>
      </trkpt>
      <trkpt lat="45.95712" lon="4.61093">
        <ele>406.899993896</ele>
        <time>2015-10-25T11:28:45.988Z</time>
      </trkpt>
      <trkpt lat="45.95717" lon="4.61105">
        <ele>406</ele>
        <time>2015-10-25T11:28:46.96Z</time>
      </trkpt>
      <trkpt lat="45.95717" lon="4.61105">
        <ele>406</ele>
        <time>2015-10-25T11:28:47.079Z</time>
      </trkpt>
      <trkpt lat="45.95722" lon="4.61116">
        <ele>405.299987793</ele>
        <time>2015-10-25T11:28:47.947Z</time>
      </trkpt>
      <trkpt lat="45.95722" lon="4.61116">
        <ele>405.299987793</ele>
        <time>2015-10-25T11:28:48.033Z</time>
      </trkpt>
      <trkpt lat="45.95727" lon="4.61127">
        <ele>404.399993896</ele>
        <time>2015-10-25T11:28:48.963Z</time>
      </trkpt>
      <trkpt lat="45.95727" lon="4.61127">
        <ele>404.399993896</ele>
        <time>2015-10-25T11:28:49.03Z</time>
      </trkpt>
      <trkpt lat="45.95732" lon="4.61137">
        <ele>403.399993896</ele>
        <time>2015-10-25T11:28:49.95Z</time>
      </trkpt>
      <trkpt lat="45.95732" lon="4.61137">
        <ele>403.399993896</ele>
        <time>2015-10-25T11:28:50.014Z</time>
      </trkpt>
      <trkpt lat="45.95738" lon="4.61147">
        <ele>402.399993896</ele>
        <time>2015-10-25T11:28:50.948Z</time>
      </trkpt>
      <trkpt lat="45.95738" lon="4.61147">
        <ele>402.399993896</ele>
        <time>2015-10-25T11:28:51.037Z</time>
      </trkpt>
      <trkpt lat="45.95744" lon="4.61157">
        <ele>401.5</ele>
        <time>2015-10-25T11:28:51.949Z</time>
      </trkpt>
      <trkpt lat="45.95744" lon="4.61157">
        <ele>401.5</ele>
        <time>2015-10-25T11:28:52.012Z</time>
      </trkpt>
      <trkpt lat="45.9575" lon="4.61166">
        <ele>400.399993896</ele>
        <time>2015-10-25T11:28:52.94Z</time>
      </trkpt>
      <trkpt lat="45.95757" lon="4.61175">
        <ele>399.399993896</ele>
        <time>2015-10-25T11:28:53.975Z</time>
      </trkpt>
      <trkpt lat="45.95763" lon="4.61182">
        <ele>398.299987793</ele>
        <time>2015-10-25T11:28:54.949Z</time>
      </trkpt>
      <trkpt lat="45.95769" lon="4.6119">
        <ele>397.299987793</ele>
        <time>2015-10-25T11:28:55.977Z</time>
      </trkpt>
      <trkpt lat="45.95774" lon="4.61199">
        <ele>396.200012207</ele>
        <time>2015-10-25T11:28:56.994Z</time>
      </trkpt>
      <trkpt lat="45.95778" lon="4.61208">
        <ele>395</ele>
        <time>2015-10-25T11:28:58.011Z</time>
      </trkpt>
      <trkpt lat="45.95782" lon="4.61219">
        <ele>393.700012207</ele>
        <time>2015-10-25T11:28:58.95Z</time>
      </trkpt>
      <trkpt lat="45.95786" lon="4.61229">
        <ele>392.5</ele>
        <time>2015-10-25T11:29:00.017Z</time>
      </trkpt>
      <trkpt lat="45.9579" lon="4.6124">
        <ele>391.600006104</ele>
        <time>2015-10-25T11:29:00.949Z</time>
      </trkpt>
      <trkpt lat="45.95793" lon="4.61252">
        <ele>390.600006104</ele>
        <time>2015-10-25T11:29:01.978Z</time>
      </trkpt>
      <trkpt lat="45.95795" lon="4.61265">
        <ele>389.399993896</ele>
        <time>2015-10-25T11:29:02.949Z</time>
      </trkpt>
      <trkpt lat="45.95795" lon="4.61265">
        <ele>389.399993896</ele>
        <time>2015-10-25T11:29:02.98Z</time>
      </trkpt>
      <trkpt lat="45.95798" lon="4.61279">
        <ele>388.5</ele>
        <time>2015-10-25T11:29:03.951Z</time>
      </trkpt>
      <trkpt lat="45.95798" lon="4.61279">
        <ele>388.5</ele>
        <time>2015-10-25T11:29:03.982Z</time>
      </trkpt>
      <trkpt lat="45.958" lon="4.61294">
        <ele>387.299987793</ele>
        <time>2015-10-25T11:29:04.949Z</time>
      </trkpt>
      <trkpt lat="45.958" lon="4.61294">
        <ele>387.299987793</ele>
        <time>2015-10-25T11:29:05.075Z</time>
      </trkpt>
      <trkpt lat="45.95802" lon="4.61309">
        <ele>386.100006104</ele>
        <time>2015-10-25T11:29:05.95Z</time>
      </trkpt>
      <trkpt lat="45.95802" lon="4.61309">
        <ele>386.100006104</ele>
        <time>2015-10-25T11:29:05.982Z</time>
      </trkpt>
      <trkpt lat="45.95805" lon="4.61325">
        <ele>384.600006104</ele>
        <time>2015-10-25T11:29:06.951Z</time>
      </trkpt>
      <trkpt lat="45.95805" lon="4.61325">
        <ele>384.600006104</ele>
        <time>2015-10-25T11:29:07.063Z</time>
      </trkpt>
      <trkpt lat="45.95806" lon="4.61341">
        <ele>383.5</ele>
        <time>2015-10-25T11:29:07.949Z</time>
      </trkpt>
      <trkpt lat="45.95806" lon="4.61341">
        <ele>383.5</ele>
        <time>2015-10-25T11:29:07.989Z</time>
      </trkpt>
      <trkpt lat="45.95808" lon="4.61357">
        <ele>381.899993896</ele>
        <time>2015-10-25T11:29:08.948Z</time>
      </trkpt>
      <trkpt lat="45.95808" lon="4.61357">
        <ele>381.899993896</ele>
        <time>2015-10-25T11:29:09.184Z</time>
      </trkpt>
      <trkpt lat="45.95809" lon="4.61373">
        <ele>380.600006104</ele>
        <time>2015-10-25T11:29:09.949Z</time>
      </trkpt>
      <trkpt lat="45.95809" lon="4.61373">
        <ele>380.600006104</ele>
        <time>2015-10-25T11:29:10.077Z</time>
      </trkpt>
      <trkpt lat="45.95811" lon="4.6139">
        <ele>379.100006104</ele>
        <time>2015-10-25T11:29:10.95Z</time>
      </trkpt>
      <trkpt lat="45.95811" lon="4.6139">
        <ele>379.100006104</ele>
        <time>2015-10-25T11:29:11.07Z</time>
      </trkpt>
      <trkpt lat="45.95813" lon="4.61406">
        <ele>377.399993896</ele>
        <time>2015-10-25T11:29:11.951Z</time>
      </trkpt>
      <trkpt lat="45.95813" lon="4.61406">
        <ele>377.399993896</ele>
        <time>2015-10-25T11:29:11.984Z</time>
      </trkpt>
      <trkpt lat="45.95814" lon="4.61422">
        <ele>376.100006104</ele>
        <time>2015-10-25T11:29:12.949Z</time>
      </trkpt>
      <trkpt lat="45.95814" lon="4.61422">
        <ele>376.100006104</ele>
        <time>2015-10-25T11:29:13.019Z</time>
      </trkpt>
      <trkpt lat="45.95817" lon="4.61438">
        <ele>374.700012207</ele>
        <time>2015-10-25T11:29:13.945Z</time>
      </trkpt>
      <trkpt lat="45.95817" lon="4.61438">
        <ele>374.700012207</ele>
        <time>2015-10-25T11:29:13.979Z</time>
      </trkpt>
      <trkpt lat="45.95819" lon="4.61452">
        <ele>373.200012207</ele>
        <time>2015-10-25T11:29:14.946Z</time>
      </trkpt>
      <trkpt lat="45.95819" lon="4.61452">
        <ele>373.200012207</ele>
        <time>2015-10-25T11:29:14.979Z</time>
      </trkpt>
      <trkpt lat="45.95822" lon="4.61466">
        <ele>371.799987793</ele>
        <time>2015-10-25T11:29:15.948Z</time>
      </trkpt>
      <trkpt lat="45.95822" lon="4.61466">
        <ele>371.799987793</ele>
        <time>2015-10-25T11:29:16.008Z</time>
      </trkpt>
      <trkpt lat="45.95824" lon="4.6148">
        <ele>370.5</ele>
        <time>2015-10-25T11:29:16.954Z</time>
      </trkpt>
      <trkpt lat="45.95824" lon="4.6148">
        <ele>370.5</ele>
        <time>2015-10-25T11:29:17.098Z</time>
      </trkpt>
      <trkpt lat="45.95824" lon="4.61493">
        <ele>369</ele>
        <time>2015-10-25T11:29:17.948Z</time>
      </trkpt>
      <trkpt lat="45.95824" lon="4.61493">
        <ele>369</ele>
        <time>2015-10-25T11:29:17.992Z</time>
      </trkpt>
      <trkpt lat="45.95823" lon="4.61507">
        <ele>367.700012207</ele>
        <time>2015-10-25T11:29:18.946Z</time>
      </trkpt>
      <trkpt lat="45.95823" lon="4.61507">
        <ele>367.700012207</ele>
        <time>2015-10-25T11:29:19.03Z</time>
      </trkpt>
      <trkpt lat="45.95822" lon="4.61521">
        <ele>366.200012207</ele>
        <time>2015-10-25T11:29:19.946Z</time>
      </trkpt>
      <trkpt lat="45.95822" lon="4.61521">
        <ele>366.200012207</ele>
        <time>2015-10-25T11:29:19.981Z</time>
      </trkpt>
      <trkpt lat="45.95821" lon="4.61535">
        <ele>364.700012207</ele>
        <time>2015-10-25T11:29:20.964Z</time>
      </trkpt>
      <trkpt lat="45.95821" lon="4.61535">
        <ele>364.700012207</ele>
        <time>2015-10-25T11:29:20.995Z</time>
      </trkpt>
      <trkpt lat="45.9582" lon="4.6155">
        <ele>363.399993896</ele>
        <time>2015-10-25T11:29:21.948Z</time>
      </trkpt>
      <trkpt lat="45.9582" lon="4.6155">
        <ele>363.399993896</ele>
        <time>2015-10-25T11:29:21.993Z</time>
      </trkpt>
      <trkpt lat="45.95817" lon="4.61564">
        <ele>361.899993896</ele>
        <time>2015-10-25T11:29:22.945Z</time>
      </trkpt>
      <trkpt lat="45.95817" lon="4.61564">
        <ele>361.899993896</ele>
        <time>2015-10-25T11:29:22.994Z</time>
      </trkpt>
      <trkpt lat="45.95813" lon="4.61578">
        <ele>360.100006104</ele>
        <time>2015-10-25T11:29:23.947Z</time>
      </trkpt>
      <trkpt lat="45.95813" lon="4.61578">
        <ele>360.100006104</ele>
        <time>2015-10-25T11:29:24.002Z</time>
      </trkpt>
      <trkpt lat="45.9581" lon="4.61591">
        <ele>359.399993896</ele>
        <time>2015-10-25T11:29:24.952Z</time>
      </trkpt>
      <trkpt lat="45.9581" lon="4.61591">
        <ele>359.399993896</ele>
        <time>2015-10-25T11:29:25.001Z</time>
      </trkpt>
      <trkpt lat="45.95806" lon="4.61604">
        <ele>358</ele>
        <time>2015-10-25T11:29:25.945Z</time>
      </trkpt>
      <trkpt lat="45.95802" lon="4.61615">
        <ele>357.200012207</ele>
        <time>2015-10-25T11:29:26.995Z</time>
      </trkpt>
      <trkpt lat="45.958" lon="4.61626">
        <ele>355.899993896</ele>
        <time>2015-10-25T11:29:27.953Z</time>
      </trkpt>
      <trkpt lat="45.95799" lon="4.61637">
        <ele>354.600006104</ele>
        <time>2015-10-25T11:29:28.979Z</time>
      </trkpt>
      <trkpt lat="45.95799" lon="4.61648">
        <ele>353.700012207</ele>
        <time>2015-10-25T11:29:29.951Z</time>
      </trkpt>
      <trkpt lat="45.95803" lon="4.61658">
        <ele>352.399993896</ele>
        <time>2015-10-25T11:29:30.979Z</time>
      </trkpt>
      <trkpt lat="45.95806" lon="4.61669">
        <ele>351.799987793</ele>
        <time>2015-10-25T11:29:31.947Z</time>
      </trkpt>
      <trkpt lat="45.95809" lon="4.6168">
        <ele>350.700012207</ele>
        <time>2015-10-25T11:29:32.977Z</time>
      </trkpt>
      <trkpt lat="45.95812" lon="4.61691">
        <ele>349.700012207</ele>
        <time>2015-10-25T11:29:33.952Z</time>
      </trkpt>
      <trkpt lat="45.95814" lon="4.61703">
        <ele>348.700012207</ele>
        <time>2015-10-25T11:29:34.983Z</time>
      </trkpt>
      <trkpt lat="45.95818" lon="4.61715">
        <ele>347.899993896</ele>
        <time>2015-10-25T11:29:35.949Z</time>
      </trkpt>
      <trkpt lat="45.9582" lon="4.61727">
        <ele>346.799987793</ele>
        <time>2015-10-25T11:29:37.026Z</time>
      </trkpt>
      <trkpt lat="45.95822" lon="4.61741">
        <ele>345.700012207</ele>
        <time>2015-10-25T11:29:37.946Z</time>
      </trkpt>
      <trkpt lat="45.95822" lon="4.61741">
        <ele>345.700012207</ele>
        <time>2015-10-25T11:29:38.086Z</time>
      </trkpt>
      <trkpt lat="45.95823" lon="4.61754">
        <ele>345</ele>
        <time>2015-10-25T11:29:38.945Z</time>
      </trkpt>
      <trkpt lat="45.95823" lon="4.61754">
        <ele>345</ele>
        <time>2015-10-25T11:29:38.979Z</time>
      </trkpt>
      <trkpt lat="45.95823" lon="4.61767">
        <ele>344.100006104</ele>
        <time>2015-10-25T11:29:39.947Z</time>
      </trkpt>
      <trkpt lat="45.95823" lon="4.61767">
        <ele>344.100006104</ele>
        <time>2015-10-25T11:29:40.029Z</time>
      </trkpt>
      <trkpt lat="45.95823" lon="4.6178">
        <ele>343.600006104</ele>
        <time>2015-10-25T11:29:40.948Z</time>
      </trkpt>
      <trkpt lat="45.95823" lon="4.6178">
        <ele>343.600006104</ele>
        <time>2015-10-25T11:29:41.022Z</time>
      </trkpt>
      <trkpt lat="45.95824" lon="4.61794">
        <ele>342.399993896</ele>
        <time>2015-10-25T11:29:41.947Z</time>
      </trkpt>
      <trkpt lat="45.95824" lon="4.61794">
        <ele>342.399993896</ele>
        <time>2015-10-25T11:29:42.042Z</time>
      </trkpt>
      <trkpt lat="45.95825" lon="4.61807">
        <ele>341.799987793</ele>
        <time>2015-10-25T11:29:42.945Z</time>
      </trkpt>
      <trkpt lat="45.95825" lon="4.61807">
        <ele>341.799987793</ele>
        <time>2015-10-25T11:29:42.98Z</time>
      </trkpt>
      <trkpt lat="45.95826" lon="4.61821">
        <ele>340.899993896</ele>
        <time>2015-10-25T11:29:43.945Z</time>
      </trkpt>
      <trkpt lat="45.95826" lon="4.61821">
        <ele>340.899993896</ele>
        <time>2015-10-25T11:29:43.98Z</time>
      </trkpt>
      <trkpt lat="45.95828" lon="4.61834">
        <ele>340.5</ele>
        <time>2015-10-25T11:29:44.945Z</time>
      </trkpt>
      <trkpt lat="45.95828" lon="4.61834">
        <ele>340.5</ele>
        <time>2015-10-25T11:29:45.009Z</time>
      </trkpt>
      <trkpt lat="45.95829" lon="4.61848">
        <ele>339.700012207</ele>
        <time>2015-10-25T11:29:45.946Z</time>
      </trkpt>
      <trkpt lat="45.95829" lon="4.61848">
        <ele>339.700012207</ele>
        <time>2015-10-25T11:29:46.073Z</time>
      </trkpt>
      <trkpt lat="45.9583" lon="4.61862">
        <ele>338.799987793</ele>
        <time>2015-10-25T11:29:46.948Z</time>
      </trkpt>
      <trkpt lat="45.9583" lon="4.61862">
        <ele>338.799987793</ele>
        <time>2015-10-25T11:29:47.169Z</time>
      </trkpt>
      <trkpt lat="45.95832" lon="4.61876">
        <ele>338</ele>
        <time>2015-10-25T11:29:47.945Z</time>
      </trkpt>
      <trkpt lat="45.95832" lon="4.61876">
        <ele>338</ele>
        <time>2015-10-25T11:29:47.979Z</time>
      </trkpt>
      <trkpt lat="45.95834" lon="4.61889">
        <ele>337.399993896</ele>
        <time>2015-10-25T11:29:48.944Z</time>
      </trkpt>
      <trkpt lat="45.95834" lon="4.61889">
        <ele>337.399993896</ele>
        <time>2015-10-25T11:29:48.998Z</time>
      </trkpt>
      <trkpt lat="45.95837" lon="4.61903">
        <ele>336.5</ele>
        <time>2015-10-25T11:29:49.968Z</time>
      </trkpt>
      <trkpt lat="45.95837" lon="4.61903">
        <ele>336.5</ele>
        <time>2015-10-25T11:29:50.006Z</time>
      </trkpt>
      <trkpt lat="45.9584" lon="4.61917">
        <ele>335.399993896</ele>
        <time>2015-10-25T11:29:50.952Z</time>
      </trkpt>
      <trkpt lat="45.9584" lon="4.61917">
        <ele>335.399993896</ele>
        <time>2015-10-25T11:29:50.986Z</time>
      </trkpt>
      <trkpt lat="45.95841" lon="4.6193">
        <ele>334.799987793</ele>
        <time>2015-10-25T11:29:51.952Z</time>
      </trkpt>
      <trkpt lat="45.95841" lon="4.6193">
        <ele>334.799987793</ele>
        <time>2015-10-25T11:29:51.988Z</time>
      </trkpt>
      <trkpt lat="45.95841" lon="4.61944">
        <ele>334.200012207</ele>
        <time>2015-10-25T11:29:52.944Z</time>
      </trkpt>
      <trkpt lat="45.95841" lon="4.61944">
        <ele>334.200012207</ele>
        <time>2015-10-25T11:29:52.98Z</time>
      </trkpt>
      <trkpt lat="45.9584" lon="4.61958">
        <ele>332.799987793</ele>
        <time>2015-10-25T11:29:54.004Z</time>
      </trkpt>
      <trkpt lat="45.9584" lon="4.61958">
        <ele>332.799987793</ele>
        <time>2015-10-25T11:29:54.263Z</time>
      </trkpt>
      <trkpt lat="45.95838" lon="4.61972">
        <ele>332</ele>
        <time>2015-10-25T11:29:54.945Z</time>
      </trkpt>
      <trkpt lat="45.95838" lon="4.61972">
        <ele>332</ele>
        <time>2015-10-25T11:29:54.984Z</time>
      </trkpt>
      <trkpt lat="45.95837" lon="4.61986">
        <ele>331.299987793</ele>
        <time>2015-10-25T11:29:55.945Z</time>
      </trkpt>
      <trkpt lat="45.95837" lon="4.61986">
        <ele>331.299987793</ele>
        <time>2015-10-25T11:29:55.978Z</time>
      </trkpt>
      <trkpt lat="45.95836" lon="4.62">
        <ele>330.299987793</ele>
        <time>2015-10-25T11:29:56.949Z</time>
      </trkpt>
      <trkpt lat="45.95836" lon="4.62">
        <ele>330.299987793</ele>
        <time>2015-10-25T11:29:57.171Z</time>
      </trkpt>
      <trkpt lat="45.95835" lon="4.62014">
        <ele>329.600006104</ele>
        <time>2015-10-25T11:29:57.964Z</time>
      </trkpt>
      <trkpt lat="45.95835" lon="4.62014">
        <ele>329.600006104</ele>
        <time>2015-10-25T11:29:57.997Z</time>
      </trkpt>
      <trkpt lat="45.95833" lon="4.62029">
        <ele>328.899993896</ele>
        <time>2015-10-25T11:29:58.945Z</time>
      </trkpt>
      <trkpt lat="45.95833" lon="4.62029">
        <ele>328.899993896</ele>
        <time>2015-10-25T11:29:58.979Z</time>
      </trkpt>
      <trkpt lat="45.95831" lon="4.62043">
        <ele>327.899993896</ele>
        <time>2015-10-25T11:29:59.949Z</time>
      </trkpt>
      <trkpt lat="45.95831" lon="4.62043">
        <ele>327.899993896</ele>
        <time>2015-10-25T11:30:00.244Z</time>
      </trkpt>
      <trkpt lat="45.9583" lon="4.62057">
        <ele>326.899993896</ele>
        <time>2015-10-25T11:30:00.945Z</time>
      </trkpt>
      <trkpt lat="45.9583" lon="4.62057">
        <ele>326.899993896</ele>
        <time>2015-10-25T11:30:00.979Z</time>
      </trkpt>
      <trkpt lat="45.95828" lon="4.62071">
        <ele>326.200012207</ele>
        <time>2015-10-25T11:30:01.948Z</time>
      </trkpt>
      <trkpt lat="45.95828" lon="4.62071">
        <ele>326.200012207</ele>
        <time>2015-10-25T11:30:02.255Z</time>
      </trkpt>
      <trkpt lat="45.95827" lon="4.62085">
        <ele>325.399993896</ele>
        <time>2015-10-25T11:30:02.948Z</time>
      </trkpt>
      <trkpt lat="45.95827" lon="4.62085">
        <ele>325.399993896</ele>
        <time>2015-10-25T11:30:03.099Z</time>
      </trkpt>
      <trkpt lat="45.95825" lon="4.62098">
        <ele>324.399993896</ele>
        <time>2015-10-25T11:30:03.949Z</time>
      </trkpt>
      <trkpt lat="45.95825" lon="4.62098">
        <ele>324.399993896</ele>
        <time>2015-10-25T11:30:04.147Z</time>
      </trkpt>
      <trkpt lat="45.95822" lon="4.62111">
        <ele>323.600006104</ele>
        <time>2015-10-25T11:30:04.948Z</time>
      </trkpt>
      <trkpt lat="45.95822" lon="4.62111">
        <ele>323.600006104</ele>
        <time>2015-10-25T11:30:04.983Z</time>
      </trkpt>
      <trkpt lat="45.95818" lon="4.62125">
        <ele>322.700012207</ele>
        <time>2015-10-25T11:30:05.946Z</time>
      </trkpt>
      <trkpt lat="45.95818" lon="4.62125">
        <ele>322.700012207</ele>
        <time>2015-10-25T11:30:06.041Z</time>
      </trkpt>
      <trkpt lat="45.95814" lon="4.62137">
        <ele>322</ele>
        <time>2015-10-25T11:30:06.944Z</time>
      </trkpt>
      <trkpt lat="45.95814" lon="4.62137">
        <ele>322</ele>
        <time>2015-10-25T11:30:07.064Z</time>
      </trkpt>
      <trkpt lat="45.95809" lon="4.62149">
        <ele>321.600006104</ele>
        <time>2015-10-25T11:30:07.949Z</time>
      </trkpt>
      <trkpt lat="45.95809" lon="4.62149">
        <ele>321.600006104</ele>
        <time>2015-10-25T11:30:08.037Z</time>
      </trkpt>
      <trkpt lat="45.95805" lon="4.62161">
        <ele>321.200012207</ele>
        <time>2015-10-25T11:30:08.944Z</time>
      </trkpt>
      <trkpt lat="45.95805" lon="4.62161">
        <ele>321.200012207</ele>
        <time>2015-10-25T11:30:08.976Z</time>
      </trkpt>
      <trkpt lat="45.95801" lon="4.62173">
        <ele>320.799987793</ele>
        <time>2015-10-25T11:30:09.951Z</time>
      </trkpt>
      <trkpt lat="45.95801" lon="4.62173">
        <ele>320.799987793</ele>
        <time>2015-10-25T11:30:09.986Z</time>
      </trkpt>
      <trkpt lat="45.95798" lon="4.62185">
        <ele>320.5</ele>
        <time>2015-10-25T11:30:10.944Z</time>
      </trkpt>
      <trkpt lat="45.95798" lon="4.62185">
        <ele>320.5</ele>
        <time>2015-10-25T11:30:10.979Z</time>
      </trkpt>
      <trkpt lat="45.95796" lon="4.62198">
        <ele>319.399993896</ele>
        <time>2015-10-25T11:30:11.945Z</time>
      </trkpt>
      <trkpt lat="45.95796" lon="4.62198">
        <ele>319.399993896</ele>
        <time>2015-10-25T11:30:11.975Z</time>
      </trkpt>
      <trkpt lat="45.95793" lon="4.62211">
        <ele>318.600006104</ele>
        <time>2015-10-25T11:30:12.944Z</time>
      </trkpt>
      <trkpt lat="45.95793" lon="4.62211">
        <ele>318.600006104</ele>
        <time>2015-10-25T11:30:12.979Z</time>
      </trkpt>
      <trkpt lat="45.9579" lon="4.62224">
        <ele>317.700012207</ele>
        <time>2015-10-25T11:30:13.961Z</time>
      </trkpt>
      <trkpt lat="45.9579" lon="4.62224">
        <ele>317.700012207</ele>
        <time>2015-10-25T11:30:14.025Z</time>
      </trkpt>
      <trkpt lat="45.95788" lon="4.62236">
        <ele>317</ele>
        <time>2015-10-25T11:30:14.944Z</time>
      </trkpt>
      <trkpt lat="45.95788" lon="4.62236">
        <ele>317</ele>
        <time>2015-10-25T11:30:14.978Z</time>
      </trkpt>
      <trkpt lat="45.95786" lon="4.6225">
        <ele>316.299987793</ele>
        <time>2015-10-25T11:30:15.951Z</time>
      </trkpt>
      <trkpt lat="45.95786" lon="4.6225">
        <ele>316.299987793</ele>
        <time>2015-10-25T11:30:15.985Z</time>
      </trkpt>
      <trkpt lat="45.95783" lon="4.62263">
        <ele>315.399993896</ele>
        <time>2015-10-25T11:30:16.95Z</time>
      </trkpt>
      <trkpt lat="45.95783" lon="4.62263">
        <ele>315.399993896</ele>
        <time>2015-10-25T11:30:17.082Z</time>
      </trkpt>
      <trkpt lat="45.9578" lon="4.62277">
        <ele>314.700012207</ele>
        <time>2015-10-25T11:30:17.946Z</time>
      </trkpt>
      <trkpt lat="45.9578" lon="4.62277">
        <ele>314.700012207</ele>
        <time>2015-10-25T11:30:18.019Z</time>
      </trkpt>
      <trkpt lat="45.95777" lon="4.6229">
        <ele>313.799987793</ele>
        <time>2015-10-25T11:30:18.945Z</time>
      </trkpt>
      <trkpt lat="45.95777" lon="4.6229">
        <ele>313.799987793</ele>
        <time>2015-10-25T11:30:19.31Z</time>
      </trkpt>
      <trkpt lat="45.95774" lon="4.62303">
        <ele>313.299987793</ele>
        <time>2015-10-25T11:30:19.944Z</time>
      </trkpt>
      <trkpt lat="45.95774" lon="4.62303">
        <ele>313.299987793</ele>
        <time>2015-10-25T11:30:19.981Z</time>
      </trkpt>
      <trkpt lat="45.9577" lon="4.62316">
        <ele>312.600006104</ele>
        <time>2015-10-25T11:30:20.949Z</time>
      </trkpt>
      <trkpt lat="45.9577" lon="4.62316">
        <ele>312.600006104</ele>
        <time>2015-10-25T11:30:20.995Z</time>
      </trkpt>
      <trkpt lat="45.95767" lon="4.62329">
        <ele>312.200012207</ele>
        <time>2015-10-25T11:30:21.951Z</time>
      </trkpt>
      <trkpt lat="45.95767" lon="4.62329">
        <ele>312.200012207</ele>
        <time>2015-10-25T11:30:21.984Z</time>
      </trkpt>
      <trkpt lat="45.95763" lon="4.62342">
        <ele>311.5</ele>
        <time>2015-10-25T11:30:22.944Z</time>
      </trkpt>
      <trkpt lat="45.9576" lon="4.62354">
        <ele>311.299987793</ele>
        <time>2015-10-25T11:30:23.973Z</time>
      </trkpt>
      <trkpt lat="45.95755" lon="4.62365">
        <ele>311</ele>
        <time>2015-10-25T11:30:24.947Z</time>
      </trkpt>
      <trkpt lat="45.9575" lon="4.62375">
        <ele>310.299987793</ele>
        <time>2015-10-25T11:30:25.976Z</time>
      </trkpt>
      <trkpt lat="45.95744" lon="4.62384">
        <ele>310</ele>
        <time>2015-10-25T11:30:26.945Z</time>
      </trkpt>
      <trkpt lat="45.95744" lon="4.62384">
        <ele>310</ele>
        <time>2015-10-25T11:30:26.989Z</time>
      </trkpt>
      <trkpt lat="45.95737" lon="4.62393">
        <ele>309.5</ele>
        <time>2015-10-25T11:30:27.948Z</time>
      </trkpt>
      <trkpt lat="45.95737" lon="4.62393">
        <ele>309.5</ele>
        <time>2015-10-25T11:30:28.06Z</time>
      </trkpt>
      <trkpt lat="45.95731" lon="4.62403">
        <ele>309.200012207</ele>
        <time>2015-10-25T11:30:28.949Z</time>
      </trkpt>
      <trkpt lat="45.95725" lon="4.62412">
        <ele>309.399993896</ele>
        <time>2015-10-25T11:30:29.99Z</time>
      </trkpt>
      <trkpt lat="45.9572" lon="4.62422">
        <ele>309</ele>
        <time>2015-10-25T11:30:30.944Z</time>
      </trkpt>
      <trkpt lat="45.95715" lon="4.62433">
        <ele>308.700012207</ele>
        <time>2015-10-25T11:30:31.973Z</time>
      </trkpt>
      <trkpt lat="45.95711" lon="4.62443">
        <ele>308.100006104</ele>
        <time>2015-10-25T11:30:32.945Z</time>
      </trkpt>
      <trkpt lat="45.95706" lon="4.62454">
        <ele>307.799987793</ele>
        <time>2015-10-25T11:30:33.978Z</time>
      </trkpt>
      <trkpt lat="45.95702" lon="4.62465">
        <ele>307.5</ele>
        <time>2015-10-25T11:30:34.944Z</time>
      </trkpt>
      <trkpt lat="45.95699" lon="4.62475">
        <ele>306.899993896</ele>
        <time>2015-10-25T11:30:35.976Z</time>
      </trkpt>
      <trkpt lat="45.95695" lon="4.62485">
        <ele>306.700012207</ele>
        <time>2015-10-25T11:30:36.948Z</time>
      </trkpt>
      <trkpt lat="45.95691" lon="4.62495">
        <ele>306.5</ele>
        <time>2015-10-25T11:30:38.084Z</time>
      </trkpt>
      <trkpt lat="45.95688" lon="4.62505">
        <ele>306.399993896</ele>
        <time>2015-10-25T11:30:38.981Z</time>
      </trkpt>
      <trkpt lat="45.95685" lon="4.62514">
        <ele>306.399993896</ele>
        <time>2015-10-25T11:30:39.975Z</time>
      </trkpt>
      <trkpt lat="45.95681" lon="4.62524">
        <ele>306.600006104</ele>
        <time>2015-10-25T11:30:40.943Z</time>
      </trkpt>
      <trkpt lat="45.95678" lon="4.62533">
        <ele>306.700012207</ele>
        <time>2015-10-25T11:30:41.973Z</time>
      </trkpt>
      <trkpt lat="45.95674" lon="4.62543">
        <ele>306.799987793</ele>
        <time>2015-10-25T11:30:42.929Z</time>
      </trkpt>
      <trkpt lat="45.9567" lon="4.62551">
        <ele>306.799987793</ele>
        <time>2015-10-25T11:30:44.025Z</time>
      </trkpt>
      <trkpt lat="45.95666" lon="4.6256">
        <ele>306.899993896</ele>
        <time>2015-10-25T11:30:44.944Z</time>
      </trkpt>
      <trkpt lat="45.95663" lon="4.6257">
        <ele>306.899993896</ele>
        <time>2015-10-25T11:30:45.995Z</time>
      </trkpt>
      <trkpt lat="45.95659" lon="4.6258">
        <ele>306.299987793</ele>
        <time>2015-10-25T11:30:46.947Z</time>
      </trkpt>
      <trkpt lat="45.95655" lon="4.6259">
        <ele>306.700012207</ele>
        <time>2015-10-25T11:30:48.077Z</time>
      </trkpt>
      <trkpt lat="45.9565" lon="4.62599">
        <ele>306.899993896</ele>
        <time>2015-10-25T11:30:48.944Z</time>
      </trkpt>
      <trkpt lat="45.95646" lon="4.62608">
        <ele>307</ele>
        <time>2015-10-25T11:30:49.98Z</time>
      </trkpt>
      <trkpt lat="45.9564" lon="4.62616">
        <ele>307.399993896</ele>
        <time>2015-10-25T11:30:50.945Z</time>
      </trkpt>
      <trkpt lat="45.95636" lon="4.62624">
        <ele>307.100006104</ele>
        <time>2015-10-25T11:30:51.979Z</time>
      </trkpt>
      <trkpt lat="45.95631" lon="4.62632">
        <ele>306.899993896</ele>
        <time>2015-10-25T11:30:52.944Z</time>
      </trkpt>
      <trkpt lat="45.95626" lon="4.62641">
        <ele>306.899993896</ele>
        <time>2015-10-25T11:30:53.976Z</time>
      </trkpt>
      <trkpt lat="45.95621" lon="4.62649">
        <ele>306.600006104</ele>
        <time>2015-10-25T11:30:54.943Z</time>
      </trkpt>
      <trkpt lat="45.95616" lon="4.62657">
        <ele>306.700012207</ele>
        <time>2015-10-25T11:30:55.983Z</time>
      </trkpt>
      <trkpt lat="45.95611" lon="4.62666">
        <ele>306.700012207</ele>
        <time>2015-10-25T11:30:56.939Z</time>
      </trkpt>
      <trkpt lat="45.95606" lon="4.62674">
        <ele>306.299987793</ele>
        <time>2015-10-25T11:30:57.979Z</time>
      </trkpt>
      <trkpt lat="45.95601" lon="4.62682">
        <ele>306</ele>
        <time>2015-10-25T11:30:58.948Z</time>
      </trkpt>
      <trkpt lat="45.95595" lon="4.6269">
        <ele>305.299987793</ele>
        <time>2015-10-25T11:30:59.977Z</time>
      </trkpt>
      <trkpt lat="45.95589" lon="4.62697">
        <ele>305</ele>
        <time>2015-10-25T11:31:00.944Z</time>
      </trkpt>
      <trkpt lat="45.95584" lon="4.62704">
        <ele>305</ele>
        <time>2015-10-25T11:31:01.991Z</time>
      </trkpt>
      <trkpt lat="45.95578" lon="4.62711">
        <ele>304.5</ele>
        <time>2015-10-25T11:31:02.948Z</time>
      </trkpt>
      <trkpt lat="45.95572" lon="4.62719">
        <ele>304</ele>
        <time>2015-10-25T11:31:03.978Z</time>
      </trkpt>
      <trkpt lat="45.95566" lon="4.62727">
        <ele>303.5</ele>
        <time>2015-10-25T11:31:04.947Z</time>
      </trkpt>
      <trkpt lat="45.95566" lon="4.62727">
        <ele>303.5</ele>
        <time>2015-10-25T11:31:05.009Z</time>
      </trkpt>
      <trkpt lat="45.9556" lon="4.62737">
        <ele>302.399993896</ele>
        <time>2015-10-25T11:31:05.948Z</time>
      </trkpt>
      <trkpt lat="45.9556" lon="4.62737">
        <ele>302.399993896</ele>
        <time>2015-10-25T11:31:06.01Z</time>
      </trkpt>
      <trkpt lat="45.95554" lon="4.62748">
        <ele>301.200012207</ele>
        <time>2015-10-25T11:31:06.944Z</time>
      </trkpt>
      <trkpt lat="45.95554" lon="4.62748">
        <ele>301.200012207</ele>
        <time>2015-10-25T11:31:07.314Z</time>
      </trkpt>
      <trkpt lat="45.95547" lon="4.62759">
        <ele>301.100006104</ele>
        <time>2015-10-25T11:31:07.945Z</time>
      </trkpt>
      <trkpt lat="45.95547" lon="4.62759">
        <ele>301.100006104</ele>
        <time>2015-10-25T11:31:07.978Z</time>
      </trkpt>
      <trkpt lat="45.95541" lon="4.62771">
        <ele>300.5</ele>
        <time>2015-10-25T11:31:08.952Z</time>
      </trkpt>
      <trkpt lat="45.95541" lon="4.62771">
        <ele>300.5</ele>
        <time>2015-10-25T11:31:09.004Z</time>
      </trkpt>
      <trkpt lat="45.95537" lon="4.62784">
        <ele>300</ele>
        <time>2015-10-25T11:31:09.951Z</time>
      </trkpt>
      <trkpt lat="45.95537" lon="4.62784">
        <ele>300</ele>
        <time>2015-10-25T11:31:09.99Z</time>
      </trkpt>
      <trkpt lat="45.95533" lon="4.62796">
        <ele>299.899993896</ele>
        <time>2015-10-25T11:31:10.945Z</time>
      </trkpt>
      <trkpt lat="45.9553" lon="4.62808">
        <ele>299.5</ele>
        <time>2015-10-25T11:31:11.977Z</time>
      </trkpt>
      <trkpt lat="45.95528" lon="4.6282">
        <ele>299.600006104</ele>
        <time>2015-10-25T11:31:12.945Z</time>
      </trkpt>
      <trkpt lat="45.95526" lon="4.62831">
        <ele>299.5</ele>
        <time>2015-10-25T11:31:13.973Z</time>
      </trkpt>
      <trkpt lat="45.95524" lon="4.62841">
        <ele>299.200012207</ele>
        <time>2015-10-25T11:31:14.949Z</time>
      </trkpt>
      <trkpt lat="45.95522" lon="4.6285">
        <ele>299.600006104</ele>
        <time>2015-10-25T11:31:15.979Z</time>
      </trkpt>
      <trkpt lat="45.9552" lon="4.62858">
        <ele>299.299987793</ele>
        <time>2015-10-25T11:31:16.948Z</time>
      </trkpt>
      <trkpt lat="45.95519" lon="4.62865">
        <ele>298.700012207</ele>
        <time>2015-10-25T11:31:17.994Z</time>
      </trkpt>
      <trkpt lat="45.95517" lon="4.62872">
        <ele>298.399993896</ele>
        <time>2015-10-25T11:31:18.945Z</time>
      </trkpt>
      <trkpt lat="45.95516" lon="4.62883">
        <ele>298.899993896</ele>
        <time>2015-10-25T11:31:20.98Z</time>
      </trkpt>
      <trkpt lat="45.95515" lon="4.62889">
        <ele>299.399993896</ele>
        <time>2015-10-25T11:31:21.951Z</time>
      </trkpt>
      <trkpt lat="45.95513" lon="4.62899">
        <ele>300.200012207</ele>
        <time>2015-10-25T11:31:23.977Z</time>
      </trkpt>
      <trkpt lat="45.95511" lon="4.62904">
        <ele>300.5</ele>
        <time>2015-10-25T11:31:24.948Z</time>
      </trkpt>
      <trkpt lat="45.9551" lon="4.62914">
        <ele>301.600006104</ele>
        <time>2015-10-25T11:31:26.972Z</time>
      </trkpt>
      <trkpt lat="45.95509" lon="4.62919">
        <ele>302</ele>
        <time>2015-10-25T11:31:27.948Z</time>
      </trkpt>
      <trkpt lat="45.95506" lon="4.6293">
        <ele>302</ele>
        <time>2015-10-25T11:31:29.976Z</time>
      </trkpt>
      <trkpt lat="45.95505" lon="4.62935">
        <ele>302.100006104</ele>
        <time>2015-10-25T11:31:30.943Z</time>
      </trkpt>
      <trkpt lat="45.95502" lon="4.62946">
        <ele>302.200012207</ele>
        <time>2015-10-25T11:31:32.972Z</time>
      </trkpt>
      <trkpt lat="45.95501" lon="4.62952">
        <ele>302.600006104</ele>
        <time>2015-10-25T11:31:33.947Z</time>
      </trkpt>
      <trkpt lat="45.95499" lon="4.62963">
        <ele>303.299987793</ele>
        <time>2015-10-25T11:31:35.997Z</time>
      </trkpt>
      <trkpt lat="45.95498" lon="4.62968">
        <ele>303.799987793</ele>
        <time>2015-10-25T11:31:36.945Z</time>
      </trkpt>
      <trkpt lat="45.95495" lon="4.62978">
        <ele>304</ele>
        <time>2015-10-25T11:31:38.993Z</time>
      </trkpt>
      <trkpt lat="45.95494" lon="4.62982">
        <ele>304.100006104</ele>
        <time>2015-10-25T11:31:39.947Z</time>
      </trkpt>
      <trkpt lat="45.95492" lon="4.62991">
        <ele>304.600006104</ele>
        <time>2015-10-25T11:31:41.972Z</time>
      </trkpt>
      <trkpt lat="45.95491" lon="4.62995">
        <ele>304.799987793</ele>
        <time>2015-10-25T11:31:42.947Z</time>
      </trkpt>
      <trkpt lat="45.9549" lon="4.63008">
        <ele>305.100006104</ele>
        <time>2015-10-25T11:31:45.976Z</time>
      </trkpt>
      <trkpt lat="45.95489" lon="4.63011">
        <ele>305.100006104</ele>
        <time>2015-10-25T11:31:46.946Z</time>
      </trkpt>
      <trkpt lat="45.95488" lon="4.63022">
        <ele>305.5</ele>
        <time>2015-10-25T11:31:49.972Z</time>
      </trkpt>
      <trkpt lat="45.95487" lon="4.63026">
        <ele>305.600006104</ele>
        <time>2015-10-25T11:31:50.948Z</time>
      </trkpt>
      <trkpt lat="45.95486" lon="4.63036">
        <ele>306.200012207</ele>
        <time>2015-10-25T11:31:53.975Z</time>
      </trkpt>
      <trkpt lat="45.95486" lon="4.63039">
        <ele>306.899993896</ele>
        <time>2015-10-25T11:31:54.995Z</time>
      </trkpt>
      <trkpt lat="45.95487" lon="4.63052">
        <ele>307.299987793</ele>
        <time>2015-10-25T11:31:58.979Z</time>
      </trkpt>
      <trkpt lat="45.95486" lon="4.63054">
        <ele>307.5</ele>
        <time>2015-10-25T11:31:59.945Z</time>
      </trkpt>
      <trkpt lat="45.95487" lon="4.63067">
        <ele>308.100006104</ele>
        <time>2015-10-25T11:32:03.974Z</time>
      </trkpt>
      <trkpt lat="45.95487" lon="4.6307">
        <ele>308.5</ele>
        <time>2015-10-25T11:32:04.947Z</time>
      </trkpt>
      <trkpt lat="45.95486" lon="4.63081">
        <ele>309.600006104</ele>
        <time>2015-10-25T11:32:08.971Z</time>
      </trkpt>
      <trkpt lat="45.95486" lon="4.63084">
        <ele>309.700012207</ele>
        <time>2015-10-25T11:32:09.949Z</time>
      </trkpt>
      <trkpt lat="45.95488" lon="4.63096">
        <ele>310.600006104</ele>
        <time>2015-10-25T11:32:13.977Z</time>
      </trkpt>
      <trkpt lat="45.95488" lon="4.63099">
        <ele>310.700012207</ele>
        <time>2015-10-25T11:32:14.942Z</time>
      </trkpt>
      <trkpt lat="45.95489" lon="4.63111">
        <ele>311.100006104</ele>
        <time>2015-10-25T11:32:18.97Z</time>
      </trkpt>
      <trkpt lat="45.95489" lon="4.63115">
        <ele>311.399993896</ele>
        <time>2015-10-25T11:32:19.943Z</time>
      </trkpt>
      <trkpt lat="45.95488" lon="4.63125">
        <ele>311.899993896</ele>
        <time>2015-10-25T11:32:22.973Z</time>
      </trkpt>
      <trkpt lat="45.95489" lon="4.63129">
        <ele>311.899993896</ele>
        <time>2015-10-25T11:32:23.946Z</time>
      </trkpt>
      <trkpt lat="45.95489" lon="4.6314">
        <ele>312.399993896</ele>
        <time>2015-10-25T11:32:28.016Z</time>
      </trkpt>
      <trkpt lat="45.95489" lon="4.63143">
        <ele>312.600006104</ele>
        <time>2015-10-25T11:32:28.965Z</time>
      </trkpt>
      <trkpt lat="45.95489" lon="4.63154">
        <ele>313.5</ele>
        <time>2015-10-25T11:32:32.973Z</time>
      </trkpt>
      <trkpt lat="45.95489" lon="4.63157">
        <ele>314</ele>
        <time>2015-10-25T11:32:33.949Z</time>
      </trkpt>
      <trkpt lat="45.9549" lon="4.63167">
        <ele>315</ele>
        <time>2015-10-25T11:32:37.973Z</time>
      </trkpt>
      <trkpt lat="45.9549" lon="4.6317">
        <ele>315.100006104</ele>
        <time>2015-10-25T11:32:38.969Z</time>
      </trkpt>
      <trkpt lat="45.9549" lon="4.63182">
        <ele>316.299987793</ele>
        <time>2015-10-25T11:32:42.969Z</time>
      </trkpt>
      <trkpt lat="45.9549" lon="4.63184">
        <ele>316.5</ele>
        <time>2015-10-25T11:32:43.981Z</time>
      </trkpt>
      <trkpt lat="45.9549" lon="4.63197">
        <ele>317.299987793</ele>
        <time>2015-10-25T11:32:48.973Z</time>
      </trkpt>
      <trkpt lat="45.95491" lon="4.632">
        <ele>317.799987793</ele>
        <time>2015-10-25T11:32:49.942Z</time>
      </trkpt>
      <trkpt lat="45.95492" lon="4.63212">
        <ele>319.100006104</ele>
        <time>2015-10-25T11:32:55.085Z</time>
      </trkpt>
      <trkpt lat="45.95492" lon="4.63214">
        <ele>319.200012207</ele>
        <time>2015-10-25T11:32:55.946Z</time>
      </trkpt>
      <trkpt lat="45.95492" lon="4.63226">
        <ele>320.700012207</ele>
        <time>2015-10-25T11:33:01.004Z</time>
      </trkpt>
      <trkpt lat="45.95493" lon="4.63228">
        <ele>321</ele>
        <time>2015-10-25T11:33:01.942Z</time>
      </trkpt>
      <trkpt lat="45.95494" lon="4.63239">
        <ele>322.399993896</ele>
        <time>2015-10-25T11:33:05.979Z</time>
      </trkpt>
      <trkpt lat="45.95496" lon="4.63242">
        <ele>322.700012207</ele>
        <time>2015-10-25T11:33:06.942Z</time>
      </trkpt>
      <trkpt lat="45.95498" lon="4.63253">
        <ele>324</ele>
        <time>2015-10-25T11:33:10.97Z</time>
      </trkpt>
      <trkpt lat="45.95498" lon="4.63257">
        <ele>324.299987793</ele>
        <time>2015-10-25T11:33:11.943Z</time>
      </trkpt>
      <trkpt lat="45.95501" lon="4.63267">
        <ele>325.399993896</ele>
        <time>2015-10-25T11:33:14.97Z</time>
      </trkpt>
      <trkpt lat="45.95502" lon="4.6327">
        <ele>325.600006104</ele>
        <time>2015-10-25T11:33:15.946Z</time>
      </trkpt>
      <trkpt lat="45.95505" lon="4.63282">
        <ele>326.899993896</ele>
        <time>2015-10-25T11:33:19.007Z</time>
      </trkpt>
      <trkpt lat="45.95505" lon="4.63286">
        <ele>326.799987793</ele>
        <time>2015-10-25T11:33:19.984Z</time>
      </trkpt>
      <trkpt lat="45.95507" lon="4.63298">
        <ele>326.5</ele>
        <time>2015-10-25T11:33:23.101Z</time>
      </trkpt>
      <trkpt lat="45.95507" lon="4.63303">
        <ele>327.100006104</ele>
        <time>2015-10-25T11:33:23.961Z</time>
      </trkpt>
      <trkpt lat="45.95508" lon="4.63311">
        <ele>327.299987793</ele>
        <time>2015-10-25T11:33:25.97Z</time>
      </trkpt>
      <trkpt lat="45.95507" lon="4.63316">
        <ele>327.200012207</ele>
        <time>2015-10-25T11:33:26.942Z</time>
      </trkpt>
      <trkpt lat="45.95506" lon="4.63327">
        <ele>326.600006104</ele>
        <time>2015-10-25T11:33:29.975Z</time>
      </trkpt>
      <trkpt lat="45.95505" lon="4.63332">
        <ele>325.899993896</ele>
        <time>2015-10-25T11:33:30.946Z</time>
      </trkpt>
      <trkpt lat="45.95504" lon="4.63343">
        <ele>324.600006104</ele>
        <time>2015-10-25T11:33:32.974Z</time>
      </trkpt>
      <trkpt lat="45.95504" lon="4.6335">
        <ele>324.100006104</ele>
        <time>2015-10-25T11:33:33.945Z</time>
      </trkpt>
      <trkpt lat="45.95504" lon="4.63356">
        <ele>323</ele>
        <time>2015-10-25T11:33:35.019Z</time>
      </trkpt>
      <trkpt lat="45.95504" lon="4.63364">
        <ele>322.600006104</ele>
        <time>2015-10-25T11:33:35.946Z</time>
      </trkpt>
      <trkpt lat="45.95505" lon="4.63372">
        <ele>321.799987793</ele>
        <time>2015-10-25T11:33:37.007Z</time>
      </trkpt>
      <trkpt lat="45.95505" lon="4.6338">
        <ele>321.399993896</ele>
        <time>2015-10-25T11:33:37.942Z</time>
      </trkpt>
      <trkpt lat="45.95505" lon="4.63389">
        <ele>320.899993896</ele>
        <time>2015-10-25T11:33:38.969Z</time>
      </trkpt>
      <trkpt lat="45.95506" lon="4.63398">
        <ele>320</ele>
        <time>2015-10-25T11:33:39.945Z</time>
      </trkpt>
      <trkpt lat="45.95507" lon="4.63408">
        <ele>319.600006104</ele>
        <time>2015-10-25T11:33:40.97Z</time>
      </trkpt>
      <trkpt lat="45.95507" lon="4.63418">
        <ele>319.200012207</ele>
        <time>2015-10-25T11:33:41.945Z</time>
      </trkpt>
      <trkpt lat="45.95508" lon="4.63428">
        <ele>318.899993896</ele>
        <time>2015-10-25T11:33:42.97Z</time>
      </trkpt>
      <trkpt lat="45.95508" lon="4.63439">
        <ele>318.5</ele>
        <time>2015-10-25T11:33:43.945Z</time>
      </trkpt>
      <trkpt lat="45.95509" lon="4.63449">
        <ele>317.899993896</ele>
        <time>2015-10-25T11:33:44.996Z</time>
      </trkpt>
      <trkpt lat="45.95509" lon="4.63461">
        <ele>317.200012207</ele>
        <time>2015-10-25T11:33:45.948Z</time>
      </trkpt>
      <trkpt lat="45.95509" lon="4.63472">
        <ele>316.200012207</ele>
        <time>2015-10-25T11:33:46.971Z</time>
      </trkpt>
      <trkpt lat="45.95508" lon="4.63484">
        <ele>315.700012207</ele>
        <time>2015-10-25T11:33:47.942Z</time>
      </trkpt>
      <trkpt lat="45.95507" lon="4.63496">
        <ele>315.100006104</ele>
        <time>2015-10-25T11:33:48.973Z</time>
      </trkpt>
      <trkpt lat="45.95504" lon="4.63508">
        <ele>314.799987793</ele>
        <time>2015-10-25T11:33:49.942Z</time>
      </trkpt>
      <trkpt lat="45.95502" lon="4.6352">
        <ele>314.399993896</ele>
        <time>2015-10-25T11:33:50.972Z</time>
      </trkpt>
      <trkpt lat="45.95498" lon="4.63531">
        <ele>313.799987793</ele>
        <time>2015-10-25T11:33:51.946Z</time>
      </trkpt>
      <trkpt lat="45.95494" lon="4.63541">
        <ele>313.100006104</ele>
        <time>2015-10-25T11:33:52.973Z</time>
      </trkpt>
      <trkpt lat="45.95488" lon="4.63551">
        <ele>312.5</ele>
        <time>2015-10-25T11:33:53.943Z</time>
      </trkpt>
      <trkpt lat="45.95482" lon="4.6356">
        <ele>312.200012207</ele>
        <time>2015-10-25T11:33:55.009Z</time>
      </trkpt>
      <trkpt lat="45.95476" lon="4.63568">
        <ele>312.399993896</ele>
        <time>2015-10-25T11:33:55.942Z</time>
      </trkpt>
      <trkpt lat="45.9547" lon="4.63576">
        <ele>312.899993896</ele>
        <time>2015-10-25T11:33:56.973Z</time>
      </trkpt>
      <trkpt lat="45.95464" lon="4.63584">
        <ele>313.5</ele>
        <time>2015-10-25T11:33:57.949Z</time>
      </trkpt>
      <trkpt lat="45.95458" lon="4.63591">
        <ele>313.600006104</ele>
        <time>2015-10-25T11:33:58.97Z</time>
      </trkpt>
      <trkpt lat="45.95452" lon="4.63599">
        <ele>313.200012207</ele>
        <time>2015-10-25T11:33:59.946Z</time>
      </trkpt>
      <trkpt lat="45.95448" lon="4.63606">
        <ele>313.100006104</ele>
        <time>2015-10-25T11:34:00.988Z</time>
      </trkpt>
      <trkpt lat="45.95443" lon="4.63614">
        <ele>313</ele>
        <time>2015-10-25T11:34:01.946Z</time>
      </trkpt>
      <trkpt lat="45.95438" lon="4.63622">
        <ele>312.700012207</ele>
        <time>2015-10-25T11:34:02.973Z</time>
      </trkpt>
      <trkpt lat="45.95434" lon="4.63629">
        <ele>312.299987793</ele>
        <time>2015-10-25T11:34:03.979Z</time>
      </trkpt>
      <trkpt lat="45.9543" lon="4.63638">
        <ele>312.5</ele>
        <time>2015-10-25T11:34:04.973Z</time>
      </trkpt>
      <trkpt lat="45.95426" lon="4.63646">
        <ele>312.5</ele>
        <time>2015-10-25T11:34:05.942Z</time>
      </trkpt>
      <trkpt lat="45.95424" lon="4.63655">
        <ele>312.299987793</ele>
        <time>2015-10-25T11:34:06.973Z</time>
      </trkpt>
      <trkpt lat="45.95421" lon="4.63664">
        <ele>312.100006104</ele>
        <time>2015-10-25T11:34:07.942Z</time>
      </trkpt>
      <trkpt lat="45.95419" lon="4.63673">
        <ele>312</ele>
        <time>2015-10-25T11:34:08.97Z</time>
      </trkpt>
      <trkpt lat="45.95418" lon="4.63682">
        <ele>311.700012207</ele>
        <time>2015-10-25T11:34:09.945Z</time>
      </trkpt>
      <trkpt lat="45.95417" lon="4.63692">
        <ele>311</ele>
        <time>2015-10-25T11:34:10.973Z</time>
      </trkpt>
      <trkpt lat="45.95417" lon="4.63702">
        <ele>310.399993896</ele>
        <time>2015-10-25T11:34:11.937Z</time>
      </trkpt>
      <trkpt lat="45.95418" lon="4.63712">
        <ele>310</ele>
        <time>2015-10-25T11:34:12.97Z</time>
      </trkpt>
      <trkpt lat="45.9542" lon="4.63721">
        <ele>309.399993896</ele>
        <time>2015-10-25T11:34:13.946Z</time>
      </trkpt>
      <trkpt lat="45.95422" lon="4.63731">
        <ele>309</ele>
        <time>2015-10-25T11:34:14.994Z</time>
      </trkpt>
      <trkpt lat="45.95425" lon="4.6374">
        <ele>308.600006104</ele>
        <time>2015-10-25T11:34:15.945Z</time>
      </trkpt>
      <trkpt lat="45.95428" lon="4.63749">
        <ele>308.200012207</ele>
        <time>2015-10-25T11:34:16.987Z</time>
      </trkpt>
      <trkpt lat="45.95432" lon="4.63759">
        <ele>307.899993896</ele>
        <time>2015-10-25T11:34:17.945Z</time>
      </trkpt>
      <trkpt lat="45.95435" lon="4.63768">
        <ele>307.600006104</ele>
        <time>2015-10-25T11:34:18.97Z</time>
      </trkpt>
      <trkpt lat="45.95438" lon="4.63777">
        <ele>307.200012207</ele>
        <time>2015-10-25T11:34:19.945Z</time>
      </trkpt>
      <trkpt lat="45.95441" lon="4.63785">
        <ele>306.899993896</ele>
        <time>2015-10-25T11:34:20.973Z</time>
      </trkpt>
      <trkpt lat="45.95443" lon="4.63795">
        <ele>306.5</ele>
        <time>2015-10-25T11:34:21.945Z</time>
      </trkpt>
      <trkpt lat="45.95446" lon="4.63804">
        <ele>306.5</ele>
        <time>2015-10-25T11:34:22.97Z</time>
      </trkpt>
      <trkpt lat="45.95448" lon="4.63813">
        <ele>307</ele>
        <time>2015-10-25T11:34:23.946Z</time>
      </trkpt>
      <trkpt lat="45.9545" lon="4.63821">
        <ele>307.299987793</ele>
        <time>2015-10-25T11:34:24.969Z</time>
      </trkpt>
      <trkpt lat="45.95452" lon="4.6383">
        <ele>307.399993896</ele>
        <time>2015-10-25T11:34:25.941Z</time>
      </trkpt>
      <trkpt lat="45.95454" lon="4.63839">
        <ele>307.600006104</ele>
        <time>2015-10-25T11:34:26.969Z</time>
      </trkpt>
      <trkpt lat="45.95455" lon="4.63848">
        <ele>307.799987793</ele>
        <time>2015-10-25T11:34:27.945Z</time>
      </trkpt>
      <trkpt lat="45.95457" lon="4.63857">
        <ele>307.799987793</ele>
        <time>2015-10-25T11:34:28.97Z</time>
      </trkpt>
      <trkpt lat="45.95459" lon="4.63867">
        <ele>307.700012207</ele>
        <time>2015-10-25T11:34:29.933Z</time>
      </trkpt>
      <trkpt lat="45.9546" lon="4.63877">
        <ele>307.5</ele>
        <time>2015-10-25T11:34:30.969Z</time>
      </trkpt>
      <trkpt lat="45.95462" lon="4.63886">
        <ele>307.100006104</ele>
        <time>2015-10-25T11:34:31.942Z</time>
      </trkpt>
      <trkpt lat="45.95464" lon="4.63895">
        <ele>307</ele>
        <time>2015-10-25T11:34:32.985Z</time>
      </trkpt>
      <trkpt lat="45.95467" lon="4.63904">
        <ele>306.399993896</ele>
        <time>2015-10-25T11:34:33.947Z</time>
      </trkpt>
      <trkpt lat="45.95469" lon="4.63912">
        <ele>306.200012207</ele>
        <time>2015-10-25T11:34:34.971Z</time>
      </trkpt>
      <trkpt lat="45.95472" lon="4.6392">
        <ele>306.200012207</ele>
        <time>2015-10-25T11:34:35.943Z</time>
      </trkpt>
      <trkpt lat="45.95475" lon="4.63929">
        <ele>306.299987793</ele>
        <time>2015-10-25T11:34:36.974Z</time>
      </trkpt>
      <trkpt lat="45.95477" lon="4.63937">
        <ele>306.600006104</ele>
        <time>2015-10-25T11:34:37.942Z</time>
      </trkpt>
      <trkpt lat="45.95479" lon="4.63945">
        <ele>306.600006104</ele>
        <time>2015-10-25T11:34:38.973Z</time>
      </trkpt>
      <trkpt lat="45.95482" lon="4.63953">
        <ele>307.200012207</ele>
        <time>2015-10-25T11:34:39.944Z</time>
      </trkpt>
      <trkpt lat="45.95484" lon="4.63962">
        <ele>307.399993896</ele>
        <time>2015-10-25T11:34:40.969Z</time>
      </trkpt>
      <trkpt lat="45.95486" lon="4.6397">
        <ele>307.200012207</ele>
        <time>2015-10-25T11:34:41.945Z</time>
      </trkpt>
      <trkpt lat="45.95488" lon="4.63979">
        <ele>306.799987793</ele>
        <time>2015-10-25T11:34:42.97Z</time>
      </trkpt>
      <trkpt lat="45.9549" lon="4.63988">
        <ele>306.299987793</ele>
        <time>2015-10-25T11:34:43.941Z</time>
      </trkpt>
      <trkpt lat="45.95492" lon="4.63998">
        <ele>305.5</ele>
        <time>2015-10-25T11:34:44.972Z</time>
      </trkpt>
      <trkpt lat="45.95492" lon="4.64009">
        <ele>304.600006104</ele>
        <time>2015-10-25T11:34:45.945Z</time>
      </trkpt>
      <trkpt lat="45.95493" lon="4.6402">
        <ele>303.899993896</ele>
        <time>2015-10-25T11:34:46.975Z</time>
      </trkpt>
      <trkpt lat="45.95492" lon="4.64031">
        <ele>303.200012207</ele>
        <time>2015-10-25T11:34:47.934Z</time>
      </trkpt>
      <trkpt lat="45.95491" lon="4.64043">
        <ele>302.700012207</ele>
        <time>2015-10-25T11:34:49.045Z</time>
      </trkpt>
      <trkpt lat="45.9549" lon="4.64054">
        <ele>302</ele>
        <time>2015-10-25T11:34:49.945Z</time>
      </trkpt>
      <trkpt lat="45.95489" lon="4.64065">
        <ele>301.600006104</ele>
        <time>2015-10-25T11:34:50.969Z</time>
      </trkpt>
      <trkpt lat="45.95487" lon="4.64077">
        <ele>301.100006104</ele>
        <time>2015-10-25T11:34:51.945Z</time>
      </trkpt>
      <trkpt lat="45.95485" lon="4.64088">
        <ele>300.5</ele>
        <time>2015-10-25T11:34:52.969Z</time>
      </trkpt>
      <trkpt lat="45.95483" lon="4.64099">
        <ele>300.399993896</ele>
        <time>2015-10-25T11:34:53.942Z</time>
      </trkpt>
      <trkpt lat="45.9548" lon="4.6411">
        <ele>300.899993896</ele>
        <time>2015-10-25T11:34:54.973Z</time>
      </trkpt>
      <trkpt lat="45.95478" lon="4.6412">
        <ele>301.100006104</ele>
        <time>2015-10-25T11:34:55.941Z</time>
      </trkpt>
      <trkpt lat="45.95475" lon="4.64131">
        <ele>301.399993896</ele>
        <time>2015-10-25T11:34:56.969Z</time>
      </trkpt>
      <trkpt lat="45.95473" lon="4.64141">
        <ele>302</ele>
        <time>2015-10-25T11:34:57.949Z</time>
      </trkpt>
      <trkpt lat="45.95471" lon="4.6415">
        <ele>302.100006104</ele>
        <time>2015-10-25T11:34:58.979Z</time>
      </trkpt>
      <trkpt lat="45.95468" lon="4.64157">
        <ele>302.399993896</ele>
        <time>2015-10-25T11:34:59.942Z</time>
      </trkpt>
      <trkpt lat="45.95466" lon="4.64164">
        <ele>302.5</ele>
        <time>2015-10-25T11:35:00.972Z</time>
      </trkpt>
      <trkpt lat="45.95463" lon="4.6417">
        <ele>302.5</ele>
        <time>2015-10-25T11:35:01.945Z</time>
      </trkpt>
      <trkpt lat="45.9546" lon="4.64175">
        <ele>302.399993896</ele>
        <time>2015-10-25T11:35:02.976Z</time>
      </trkpt>
      <trkpt lat="45.95456" lon="4.6418">
        <ele>302.200012207</ele>
        <time>2015-10-25T11:35:03.948Z</time>
      </trkpt>
      <trkpt lat="45.95453" lon="4.64185">
        <ele>301.299987793</ele>
        <time>2015-10-25T11:35:05.008Z</time>
      </trkpt>
      <trkpt lat="45.9545" lon="4.64191">
        <ele>300.299987793</ele>
        <time>2015-10-25T11:35:05.942Z</time>
      </trkpt>
      <trkpt lat="45.95447" lon="4.64198">
        <ele>299.399993896</ele>
        <time>2015-10-25T11:35:06.969Z</time>
      </trkpt>
      <trkpt lat="45.95444" lon="4.64204">
        <ele>298.899993896</ele>
        <time>2015-10-25T11:35:07.967Z</time>
      </trkpt>
      <trkpt lat="45.9544" lon="4.6421">
        <ele>298.5</ele>
        <time>2015-10-25T11:35:08.972Z</time>
      </trkpt>
      <trkpt lat="45.95436" lon="4.64216">
        <ele>298</ele>
        <time>2015-10-25T11:35:09.964Z</time>
      </trkpt>
      <trkpt lat="45.95432" lon="4.64222">
        <ele>297.600006104</ele>
        <time>2015-10-25T11:35:10.972Z</time>
      </trkpt>
      <trkpt lat="45.95427" lon="4.64227">
        <ele>297.299987793</ele>
        <time>2015-10-25T11:35:11.945Z</time>
      </trkpt>
      <trkpt lat="45.95421" lon="4.64232">
        <ele>297.200012207</ele>
        <time>2015-10-25T11:35:12.977Z</time>
      </trkpt>
      <trkpt lat="45.95416" lon="4.64237">
        <ele>297.200012207</ele>
        <time>2015-10-25T11:35:13.945Z</time>
      </trkpt>
      <trkpt lat="45.95411" lon="4.64243">
        <ele>297.600006104</ele>
        <time>2015-10-25T11:35:14.972Z</time>
      </trkpt>
      <trkpt lat="45.95406" lon="4.64249">
        <ele>297.700012207</ele>
        <time>2015-10-25T11:35:15.945Z</time>
      </trkpt>
      <trkpt lat="45.95401" lon="4.64256">
        <ele>297.899993896</ele>
        <time>2015-10-25T11:35:16.972Z</time>
      </trkpt>
      <trkpt lat="45.95396" lon="4.64263">
        <ele>298.100006104</ele>
        <time>2015-10-25T11:35:17.947Z</time>
      </trkpt>
      <trkpt lat="45.95392" lon="4.6427">
        <ele>298.299987793</ele>
        <time>2015-10-25T11:35:18.97Z</time>
      </trkpt>
      <trkpt lat="45.95388" lon="4.64279">
        <ele>298.399993896</ele>
        <time>2015-10-25T11:35:19.942Z</time>
      </trkpt>
      <trkpt lat="45.95386" lon="4.64287">
        <ele>298.700012207</ele>
        <time>2015-10-25T11:35:20.978Z</time>
      </trkpt>
      <trkpt lat="45.95383" lon="4.64296">
        <ele>299</ele>
        <time>2015-10-25T11:35:21.945Z</time>
      </trkpt>
      <trkpt lat="45.9538" lon="4.64304">
        <ele>299.5</ele>
        <time>2015-10-25T11:35:23Z</time>
      </trkpt>
      <trkpt lat="45.95377" lon="4.64314">
        <ele>299.799987793</ele>
        <time>2015-10-25T11:35:23.942Z</time>
      </trkpt>
      <trkpt lat="45.95375" lon="4.64323">
        <ele>300</ele>
        <time>2015-10-25T11:35:24.972Z</time>
      </trkpt>
      <trkpt lat="45.95373" lon="4.64333">
        <ele>300.200012207</ele>
        <time>2015-10-25T11:35:25.945Z</time>
      </trkpt>
      <trkpt lat="45.9537" lon="4.64343">
        <ele>300.5</ele>
        <time>2015-10-25T11:35:26.969Z</time>
      </trkpt>
      <trkpt lat="45.95368" lon="4.64353">
        <ele>300.700012207</ele>
        <time>2015-10-25T11:35:27.948Z</time>
      </trkpt>
      <trkpt lat="45.95366" lon="4.64364">
        <ele>300.5</ele>
        <time>2015-10-25T11:35:28.976Z</time>
      </trkpt>
      <trkpt lat="45.95363" lon="4.64374">
        <ele>300</ele>
        <time>2015-10-25T11:35:29.945Z</time>
      </trkpt>
      <trkpt lat="45.95359" lon="4.64384">
        <ele>299.899993896</ele>
        <time>2015-10-25T11:35:30.985Z</time>
      </trkpt>
      <trkpt lat="45.95356" lon="4.64395">
        <ele>299.700012207</ele>
        <time>2015-10-25T11:35:31.942Z</time>
      </trkpt>
      <trkpt lat="45.95353" lon="4.64405">
        <ele>299.600006104</ele>
        <time>2015-10-25T11:35:32.969Z</time>
      </trkpt>
      <trkpt lat="45.9535" lon="4.64416">
        <ele>299.5</ele>
        <time>2015-10-25T11:35:33.945Z</time>
      </trkpt>
      <trkpt lat="45.95346" lon="4.64428">
        <ele>299.200012207</ele>
        <time>2015-10-25T11:35:35.29Z</time>
      </trkpt>
      <trkpt lat="45.95344" lon="4.6444">
        <ele>299</ele>
        <time>2015-10-25T11:35:35.946Z</time>
      </trkpt>
      <trkpt lat="45.95341" lon="4.64452">
        <ele>298.799987793</ele>
        <time>2015-10-25T11:35:36.969Z</time>
      </trkpt>
      <trkpt lat="45.95339" lon="4.64463">
        <ele>298.5</ele>
        <time>2015-10-25T11:35:37.941Z</time>
      </trkpt>
      <trkpt lat="45.95338" lon="4.64475">
        <ele>298.200012207</ele>
        <time>2015-10-25T11:35:38.972Z</time>
      </trkpt>
      <trkpt lat="45.95337" lon="4.64487">
        <ele>297.799987793</ele>
        <time>2015-10-25T11:35:39.944Z</time>
      </trkpt>
      <trkpt lat="45.95337" lon="4.64499">
        <ele>297.600006104</ele>
        <time>2015-10-25T11:35:40.969Z</time>
      </trkpt>
      <trkpt lat="45.95337" lon="4.64511">
        <ele>297.600006104</ele>
        <time>2015-10-25T11:35:41.942Z</time>
      </trkpt>
      <trkpt lat="45.95337" lon="4.64523">
        <ele>297.600006104</ele>
        <time>2015-10-25T11:35:42.972Z</time>
      </trkpt>
      <trkpt lat="45.95337" lon="4.64534">
        <ele>297.399993896</ele>
        <time>2015-10-25T11:35:43.946Z</time>
      </trkpt>
      <trkpt lat="45.95337" lon="4.64545">
        <ele>297.200012207</ele>
        <time>2015-10-25T11:35:44.969Z</time>
      </trkpt>
      <trkpt lat="45.95338" lon="4.64555">
        <ele>297</ele>
        <time>2015-10-25T11:35:45.945Z</time>
      </trkpt>
      <trkpt lat="45.95338" lon="4.64566">
        <ele>296.899993896</ele>
        <time>2015-10-25T11:35:46.994Z</time>
      </trkpt>
      <trkpt lat="45.95337" lon="4.64577">
        <ele>296.700012207</ele>
        <time>2015-10-25T11:35:47.942Z</time>
      </trkpt>
      <trkpt lat="45.95337" lon="4.64588">
        <ele>296.100006104</ele>
        <time>2015-10-25T11:35:48.969Z</time>
      </trkpt>
      <trkpt lat="45.95336" lon="4.64598">
        <ele>295.600006104</ele>
        <time>2015-10-25T11:35:49.941Z</time>
      </trkpt>
      <trkpt lat="45.95335" lon="4.64609">
        <ele>295.200012207</ele>
        <time>2015-10-25T11:35:50.972Z</time>
      </trkpt>
      <trkpt lat="45.95334" lon="4.6462">
        <ele>294.5</ele>
        <time>2015-10-25T11:35:51.945Z</time>
      </trkpt>
      <trkpt lat="45.95333" lon="4.64631">
        <ele>293.200012207</ele>
        <time>2015-10-25T11:35:52.969Z</time>
      </trkpt>
      <trkpt lat="45.95332" lon="4.64642">
        <ele>292.100006104</ele>
        <time>2015-10-25T11:35:53.941Z</time>
      </trkpt>
      <trkpt lat="45.9533" lon="4.64653">
        <ele>290.899993896</ele>
        <time>2015-10-25T11:35:54.973Z</time>
      </trkpt>
      <trkpt lat="45.95328" lon="4.64665">
        <ele>289.899993896</ele>
        <time>2015-10-25T11:35:55.941Z</time>
      </trkpt>
      <trkpt lat="45.95326" lon="4.64676">
        <ele>288.799987793</ele>
        <time>2015-10-25T11:35:56.973Z</time>
      </trkpt>
      <trkpt lat="45.95323" lon="4.64688">
        <ele>288</ele>
        <time>2015-10-25T11:35:57.945Z</time>
      </trkpt>
      <trkpt lat="45.95322" lon="4.64699">
        <ele>287.100006104</ele>
        <time>2015-10-25T11:35:58.97Z</time>
      </trkpt>
      <trkpt lat="45.9532" lon="4.64711">
        <ele>286.5</ele>
        <time>2015-10-25T11:35:59.943Z</time>
      </trkpt>
      <trkpt lat="45.95317" lon="4.64722">
        <ele>286.399993896</ele>
        <time>2015-10-25T11:36:00.99Z</time>
      </trkpt>
      <trkpt lat="45.95315" lon="4.64734">
        <ele>286.200012207</ele>
        <time>2015-10-25T11:36:01.942Z</time>
      </trkpt>
      <trkpt lat="45.95312" lon="4.64745">
        <ele>285.899993896</ele>
        <time>2015-10-25T11:36:02.97Z</time>
      </trkpt>
      <trkpt lat="45.9531" lon="4.64757">
        <ele>285.5</ele>
        <time>2015-10-25T11:36:03.945Z</time>
      </trkpt>
      <trkpt lat="45.95307" lon="4.64769">
        <ele>284.799987793</ele>
        <time>2015-10-25T11:36:04.969Z</time>
      </trkpt>
      <trkpt lat="45.95303" lon="4.64781">
        <ele>284.600006104</ele>
        <time>2015-10-25T11:36:05.942Z</time>
      </trkpt>
      <trkpt lat="45.95299" lon="4.64792">
        <ele>284.5</ele>
        <time>2015-10-25T11:36:06.973Z</time>
      </trkpt>
      <trkpt lat="45.95296" lon="4.64803">
        <ele>284.5</ele>
        <time>2015-10-25T11:36:07.958Z</time>
      </trkpt>
      <trkpt lat="45.95293" lon="4.64815">
        <ele>284.100006104</ele>
        <time>2015-10-25T11:36:08.97Z</time>
      </trkpt>
      <trkpt lat="45.9529" lon="4.64827">
        <ele>283.899993896</ele>
        <time>2015-10-25T11:36:09.944Z</time>
      </trkpt>
      <trkpt lat="45.95286" lon="4.64839">
        <ele>283.799987793</ele>
        <time>2015-10-25T11:36:10.97Z</time>
      </trkpt>
      <trkpt lat="45.95283" lon="4.64851">
        <ele>283.299987793</ele>
        <time>2015-10-25T11:36:11.943Z</time>
      </trkpt>
      <trkpt lat="45.9528" lon="4.64863">
        <ele>282.600006104</ele>
        <time>2015-10-25T11:36:12.97Z</time>
      </trkpt>
      <trkpt lat="45.95278" lon="4.64874">
        <ele>282.100006104</ele>
        <time>2015-10-25T11:36:13.942Z</time>
      </trkpt>
      <trkpt lat="45.95276" lon="4.64886">
        <ele>281.799987793</ele>
        <time>2015-10-25T11:36:14.969Z</time>
      </trkpt>
      <trkpt lat="45.95274" lon="4.64898">
        <ele>281.899993896</ele>
        <time>2015-10-25T11:36:15.946Z</time>
      </trkpt>
      <trkpt lat="45.95273" lon="4.64909">
        <ele>281.600006104</ele>
        <time>2015-10-25T11:36:16.972Z</time>
      </trkpt>
      <trkpt lat="45.95273" lon="4.6492">
        <ele>281.399993896</ele>
        <time>2015-10-25T11:36:17.943Z</time>
      </trkpt>
      <trkpt lat="45.95273" lon="4.64931">
        <ele>281.200012207</ele>
        <time>2015-10-25T11:36:18.972Z</time>
      </trkpt>
      <trkpt lat="45.95273" lon="4.64942">
        <ele>281.200012207</ele>
        <time>2015-10-25T11:36:19.941Z</time>
      </trkpt>
      <trkpt lat="45.95273" lon="4.64952">
        <ele>281.299987793</ele>
        <time>2015-10-25T11:36:20.976Z</time>
      </trkpt>
      <trkpt lat="45.95272" lon="4.64963">
        <ele>281.5</ele>
        <time>2015-10-25T11:36:21.948Z</time>
      </trkpt>
      <trkpt lat="45.95272" lon="4.64973">
        <ele>281.700012207</ele>
        <time>2015-10-25T11:36:22.972Z</time>
      </trkpt>
      <trkpt lat="45.95271" lon="4.64983">
        <ele>281.700012207</ele>
        <time>2015-10-25T11:36:23.946Z</time>
      </trkpt>
      <trkpt lat="45.9527" lon="4.64992">
        <ele>281.799987793</ele>
        <time>2015-10-25T11:36:24.999Z</time>
      </trkpt>
      <trkpt lat="45.95269" lon="4.65002">
        <ele>281.600006104</ele>
        <time>2015-10-25T11:36:25.945Z</time>
      </trkpt>
      <trkpt lat="45.95266" lon="4.65011">
        <ele>280.799987793</ele>
        <time>2015-10-25T11:36:26.972Z</time>
      </trkpt>
      <trkpt lat="45.95265" lon="4.6502">
        <ele>280.200012207</ele>
        <time>2015-10-25T11:36:27.948Z</time>
      </trkpt>
      <trkpt lat="45.95263" lon="4.65029">
        <ele>279.5</ele>
        <time>2015-10-25T11:36:28.973Z</time>
      </trkpt>
      <trkpt lat="45.95262" lon="4.65039">
        <ele>279.100006104</ele>
        <time>2015-10-25T11:36:29.943Z</time>
      </trkpt>
      <trkpt lat="45.9526" lon="4.65048">
        <ele>278.399993896</ele>
        <time>2015-10-25T11:36:30.972Z</time>
      </trkpt>
      <trkpt lat="45.95259" lon="4.65058">
        <ele>278</ele>
        <time>2015-10-25T11:36:31.945Z</time>
      </trkpt>
      <trkpt lat="45.95258" lon="4.65069">
        <ele>277.799987793</ele>
        <time>2015-10-25T11:36:32.969Z</time>
      </trkpt>
      <trkpt lat="45.95256" lon="4.65079">
        <ele>277.700012207</ele>
        <time>2015-10-25T11:36:33.96Z</time>
      </trkpt>
      <trkpt lat="45.95254" lon="4.6509">
        <ele>277.700012207</ele>
        <time>2015-10-25T11:36:34.969Z</time>
      </trkpt>
      <trkpt lat="45.95252" lon="4.65101">
        <ele>277.5</ele>
        <time>2015-10-25T11:36:35.943Z</time>
      </trkpt>
      <trkpt lat="45.9525" lon="4.65112">
        <ele>277</ele>
        <time>2015-10-25T11:36:36.972Z</time>
      </trkpt>
      <trkpt lat="45.95247" lon="4.65124">
        <ele>276.399993896</ele>
        <time>2015-10-25T11:36:37.945Z</time>
      </trkpt>
      <trkpt lat="45.95245" lon="4.65135">
        <ele>275.700012207</ele>
        <time>2015-10-25T11:36:38.969Z</time>
      </trkpt>
      <trkpt lat="45.95242" lon="4.65147">
        <ele>274.600006104</ele>
        <time>2015-10-25T11:36:39.945Z</time>
      </trkpt>
      <trkpt lat="45.9524" lon="4.6516">
        <ele>273.799987793</ele>
        <time>2015-10-25T11:36:40.969Z</time>
      </trkpt>
      <trkpt lat="45.95237" lon="4.65172">
        <ele>273.200012207</ele>
        <time>2015-10-25T11:36:41.946Z</time>
      </trkpt>
      <trkpt lat="45.95237" lon="4.65172">
        <ele>273.200012207</ele>
        <time>2015-10-25T11:36:42.012Z</time>
      </trkpt>
      <trkpt lat="45.95234" lon="4.65184">
        <ele>272.5</ele>
        <time>2015-10-25T11:36:42.945Z</time>
      </trkpt>
      <trkpt lat="45.95234" lon="4.65184">
        <ele>272.5</ele>
        <time>2015-10-25T11:36:42.978Z</time>
      </trkpt>
      <trkpt lat="45.9523" lon="4.65197">
        <ele>271.899993896</ele>
        <time>2015-10-25T11:36:43.945Z</time>
      </trkpt>
      <trkpt lat="45.9523" lon="4.65197">
        <ele>271.899993896</ele>
        <time>2015-10-25T11:36:43.977Z</time>
      </trkpt>
      <trkpt lat="45.95227" lon="4.6521">
        <ele>271.799987793</ele>
        <time>2015-10-25T11:36:44.959Z</time>
      </trkpt>
      <trkpt lat="45.95227" lon="4.6521">
        <ele>271.799987793</ele>
        <time>2015-10-25T11:36:44.991Z</time>
      </trkpt>
      <trkpt lat="45.95223" lon="4.65223">
        <ele>271.200012207</ele>
        <time>2015-10-25T11:36:45.947Z</time>
      </trkpt>
      <trkpt lat="45.95223" lon="4.65223">
        <ele>271.200012207</ele>
        <time>2015-10-25T11:36:46.014Z</time>
      </trkpt>
      <trkpt lat="45.95219" lon="4.65237">
        <ele>270.299987793</ele>
        <time>2015-10-25T11:36:46.949Z</time>
      </trkpt>
      <trkpt lat="45.95219" lon="4.65237">
        <ele>270.299987793</ele>
        <time>2015-10-25T11:36:47.013Z</time>
      </trkpt>
      <trkpt lat="45.95214" lon="4.6525">
        <ele>269.5</ele>
        <time>2015-10-25T11:36:47.943Z</time>
      </trkpt>
      <trkpt lat="45.95214" lon="4.6525">
        <ele>269.5</ele>
        <time>2015-10-25T11:36:48.023Z</time>
      </trkpt>
      <trkpt lat="45.9521" lon="4.65263">
        <ele>268.600006104</ele>
        <time>2015-10-25T11:36:49.051Z</time>
      </trkpt>
      <trkpt lat="45.9521" lon="4.65263">
        <ele>268.600006104</ele>
        <time>2015-10-25T11:36:49.12Z</time>
      </trkpt>
      <trkpt lat="45.95205" lon="4.65277">
        <ele>267.600006104</ele>
        <time>2015-10-25T11:36:49.945Z</time>
      </trkpt>
      <trkpt lat="45.95205" lon="4.65277">
        <ele>267.600006104</ele>
        <time>2015-10-25T11:36:50.031Z</time>
      </trkpt>
      <trkpt lat="45.95199" lon="4.65289">
        <ele>266.299987793</ele>
        <time>2015-10-25T11:36:50.941Z</time>
      </trkpt>
      <trkpt lat="45.95199" lon="4.65289">
        <ele>266.299987793</ele>
        <time>2015-10-25T11:36:50.975Z</time>
      </trkpt>
      <trkpt lat="45.95193" lon="4.65302">
        <ele>265.5</ele>
        <time>2015-10-25T11:36:51.945Z</time>
      </trkpt>
      <trkpt lat="45.95193" lon="4.65302">
        <ele>265.5</ele>
        <time>2015-10-25T11:36:52.018Z</time>
      </trkpt>
      <trkpt lat="45.95186" lon="4.65314">
        <ele>265.200012207</ele>
        <time>2015-10-25T11:36:52.941Z</time>
      </trkpt>
      <trkpt lat="45.95186" lon="4.65314">
        <ele>265.200012207</ele>
        <time>2015-10-25T11:36:52.975Z</time>
      </trkpt>
      <trkpt lat="45.9518" lon="4.65327">
        <ele>264.600006104</ele>
        <time>2015-10-25T11:36:53.965Z</time>
      </trkpt>
      <trkpt lat="45.9518" lon="4.65327">
        <ele>264.600006104</ele>
        <time>2015-10-25T11:36:53.997Z</time>
      </trkpt>
      <trkpt lat="45.95173" lon="4.65339">
        <ele>264.5</ele>
        <time>2015-10-25T11:36:54.941Z</time>
      </trkpt>
      <trkpt lat="45.95173" lon="4.65339">
        <ele>264.5</ele>
        <time>2015-10-25T11:36:54.976Z</time>
      </trkpt>
      <trkpt lat="45.95167" lon="4.65351">
        <ele>264.299987793</ele>
        <time>2015-10-25T11:36:55.941Z</time>
      </trkpt>
      <trkpt lat="45.95167" lon="4.65351">
        <ele>264.299987793</ele>
        <time>2015-10-25T11:36:55.975Z</time>
      </trkpt>
      <trkpt lat="45.9516" lon="4.65362">
        <ele>263.899993896</ele>
        <time>2015-10-25T11:36:56.941Z</time>
      </trkpt>
      <trkpt lat="45.9516" lon="4.65362">
        <ele>263.899993896</ele>
        <time>2015-10-25T11:36:56.976Z</time>
      </trkpt>
      <trkpt lat="45.95153" lon="4.65373">
        <ele>263.5</ele>
        <time>2015-10-25T11:36:57.945Z</time>
      </trkpt>
      <trkpt lat="45.95153" lon="4.65373">
        <ele>263.5</ele>
        <time>2015-10-25T11:36:57.978Z</time>
      </trkpt>
      <trkpt lat="45.95146" lon="4.65383">
        <ele>262.899993896</ele>
        <time>2015-10-25T11:36:58.945Z</time>
      </trkpt>
      <trkpt lat="45.95146" lon="4.65383">
        <ele>262.899993896</ele>
        <time>2015-10-25T11:36:59.016Z</time>
      </trkpt>
      <trkpt lat="45.9514" lon="4.65394">
        <ele>262.100006104</ele>
        <time>2015-10-25T11:36:59.946Z</time>
      </trkpt>
      <trkpt lat="45.9514" lon="4.65394">
        <ele>262.100006104</ele>
        <time>2015-10-25T11:36:59.983Z</time>
      </trkpt>
      <trkpt lat="45.95134" lon="4.65405">
        <ele>261.5</ele>
        <time>2015-10-25T11:37:00.941Z</time>
      </trkpt>
      <trkpt lat="45.95134" lon="4.65405">
        <ele>261.5</ele>
        <time>2015-10-25T11:37:00.975Z</time>
      </trkpt>
      <trkpt lat="45.95129" lon="4.65416">
        <ele>261.399993896</ele>
        <time>2015-10-25T11:37:01.944Z</time>
      </trkpt>
      <trkpt lat="45.95124" lon="4.65427">
        <ele>261.200012207</ele>
        <time>2015-10-25T11:37:02.972Z</time>
      </trkpt>
      <trkpt lat="45.9512" lon="4.65438">
        <ele>261.200012207</ele>
        <time>2015-10-25T11:37:03.944Z</time>
      </trkpt>
      <trkpt lat="45.95116" lon="4.65448">
        <ele>261</ele>
        <time>2015-10-25T11:37:04.969Z</time>
      </trkpt>
      <trkpt lat="45.95113" lon="4.65459">
        <ele>260.600006104</ele>
        <time>2015-10-25T11:37:05.942Z</time>
      </trkpt>
      <trkpt lat="45.95109" lon="4.65469">
        <ele>260.200012207</ele>
        <time>2015-10-25T11:37:06.969Z</time>
      </trkpt>
      <trkpt lat="45.95106" lon="4.65479">
        <ele>259.700012207</ele>
        <time>2015-10-25T11:37:07.942Z</time>
      </trkpt>
      <trkpt lat="45.95102" lon="4.6549">
        <ele>259.200012207</ele>
        <time>2015-10-25T11:37:09.049Z</time>
      </trkpt>
      <trkpt lat="45.95098" lon="4.655">
        <ele>258.899993896</ele>
        <time>2015-10-25T11:37:09.944Z</time>
      </trkpt>
      <trkpt lat="45.95093" lon="4.6551">
        <ele>258.5</ele>
        <time>2015-10-25T11:37:10.984Z</time>
      </trkpt>
      <trkpt lat="45.95089" lon="4.6552">
        <ele>258.299987793</ele>
        <time>2015-10-25T11:37:11.941Z</time>
      </trkpt>
      <trkpt lat="45.95085" lon="4.6553">
        <ele>257.899993896</ele>
        <time>2015-10-25T11:37:12.972Z</time>
      </trkpt>
      <trkpt lat="45.95082" lon="4.65541">
        <ele>257.600006104</ele>
        <time>2015-10-25T11:37:13.941Z</time>
      </trkpt>
      <trkpt lat="45.95079" lon="4.65552">
        <ele>256.899993896</ele>
        <time>2015-10-25T11:37:14.971Z</time>
      </trkpt>
      <trkpt lat="45.95078" lon="4.65563">
        <ele>256.600006104</ele>
        <time>2015-10-25T11:37:15.947Z</time>
      </trkpt>
      <trkpt lat="45.95077" lon="4.65574">
        <ele>256.600006104</ele>
        <time>2015-10-25T11:37:16.971Z</time>
      </trkpt>
      <trkpt lat="45.95078" lon="4.65585">
        <ele>256.5</ele>
        <time>2015-10-25T11:37:17.943Z</time>
      </trkpt>
      <trkpt lat="45.95078" lon="4.65596">
        <ele>256.399993896</ele>
        <time>2015-10-25T11:37:18.971Z</time>
      </trkpt>
      <trkpt lat="45.9508" lon="4.65606">
        <ele>256.299987793</ele>
        <time>2015-10-25T11:37:19.941Z</time>
      </trkpt>
      <trkpt lat="45.95082" lon="4.65616">
        <ele>256.200012207</ele>
        <time>2015-10-25T11:37:20.968Z</time>
      </trkpt>
      <trkpt lat="45.95083" lon="4.65626">
        <ele>256.100006104</ele>
        <time>2015-10-25T11:37:21.948Z</time>
      </trkpt>
      <trkpt lat="45.95085" lon="4.65635">
        <ele>256</ele>
        <time>2015-10-25T11:37:22.971Z</time>
      </trkpt>
      <trkpt lat="45.95086" lon="4.65644">
        <ele>256</ele>
        <time>2015-10-25T11:37:23.945Z</time>
      </trkpt>
      <trkpt lat="45.95087" lon="4.65653">
        <ele>255.699996948</ele>
        <time>2015-10-25T11:37:24.968Z</time>
      </trkpt>
      <trkpt lat="45.95088" lon="4.65662">
        <ele>255.399993896</ele>
        <time>2015-10-25T11:37:25.941Z</time>
      </trkpt>
      <trkpt lat="45.95089" lon="4.65671">
        <ele>255.100006104</ele>
        <time>2015-10-25T11:37:26.969Z</time>
      </trkpt>
      <trkpt lat="45.9509" lon="4.65679">
        <ele>255.100006104</ele>
        <time>2015-10-25T11:37:27.944Z</time>
      </trkpt>
      <trkpt lat="45.9509" lon="4.65688">
        <ele>255.100006104</ele>
        <time>2015-10-25T11:37:28.968Z</time>
      </trkpt>
      <trkpt lat="45.95089" lon="4.65696">
        <ele>255.199996948</ele>
        <time>2015-10-25T11:37:29.946Z</time>
      </trkpt>
      <trkpt lat="45.95089" lon="4.65705">
        <ele>255.100006104</ele>
        <time>2015-10-25T11:37:30.971Z</time>
      </trkpt>
      <trkpt lat="45.95088" lon="4.65714">
        <ele>254.899993896</ele>
        <time>2015-10-25T11:37:31.956Z</time>
      </trkpt>
      <trkpt lat="45.95087" lon="4.65723">
        <ele>254.800003052</ele>
        <time>2015-10-25T11:37:32.968Z</time>
      </trkpt>
      <trkpt lat="45.95087" lon="4.65732">
        <ele>254.5</ele>
        <time>2015-10-25T11:37:33.944Z</time>
      </trkpt>
      <trkpt lat="45.95085" lon="4.65741">
        <ele>254.600006104</ele>
        <time>2015-10-25T11:37:34.968Z</time>
      </trkpt>
      <trkpt lat="45.95084" lon="4.6575">
        <ele>254.5</ele>
        <time>2015-10-25T11:37:35.942Z</time>
      </trkpt>
      <trkpt lat="45.95084" lon="4.65758">
        <ele>254.800003052</ele>
        <time>2015-10-25T11:37:36.977Z</time>
      </trkpt>
      <trkpt lat="45.95082" lon="4.65767">
        <ele>254.699996948</ele>
        <time>2015-10-25T11:37:37.941Z</time>
      </trkpt>
      <trkpt lat="45.95081" lon="4.65776">
        <ele>254.399993896</ele>
        <time>2015-10-25T11:37:39.005Z</time>
      </trkpt>
      <trkpt lat="45.95078" lon="4.65785">
        <ele>254.300003052</ele>
        <time>2015-10-25T11:37:39.943Z</time>
      </trkpt>
      <trkpt lat="45.95076" lon="4.65793">
        <ele>254.399993896</ele>
        <time>2015-10-25T11:37:40.972Z</time>
      </trkpt>
      <trkpt lat="45.95073" lon="4.65801">
        <ele>254.800003052</ele>
        <time>2015-10-25T11:37:41.942Z</time>
      </trkpt>
      <trkpt lat="45.95069" lon="4.65809">
        <ele>254.800003052</ele>
        <time>2015-10-25T11:37:42.971Z</time>
      </trkpt>
      <trkpt lat="45.95066" lon="4.65817">
        <ele>254.800003052</ele>
        <time>2015-10-25T11:37:43.944Z</time>
      </trkpt>
      <trkpt lat="45.95062" lon="4.65825">
        <ele>254.800003052</ele>
        <time>2015-10-25T11:37:44.972Z</time>
      </trkpt>
      <trkpt lat="45.95059" lon="4.65833">
        <ele>254.5</ele>
        <time>2015-10-25T11:37:45.947Z</time>
      </trkpt>
      <trkpt lat="45.95055" lon="4.65842">
        <ele>254.600006104</ele>
        <time>2015-10-25T11:37:46.97Z</time>
      </trkpt>
      <trkpt lat="45.95052" lon="4.6585">
        <ele>254.5</ele>
        <time>2015-10-25T11:37:47.943Z</time>
      </trkpt>
      <trkpt lat="45.95048" lon="4.65858">
        <ele>254.399993896</ele>
        <time>2015-10-25T11:37:48.978Z</time>
      </trkpt>
      <trkpt lat="45.95045" lon="4.65867">
        <ele>254.100006104</ele>
        <time>2015-10-25T11:37:49.975Z</time>
      </trkpt>
      <trkpt lat="45.95042" lon="4.65876">
        <ele>253.699996948</ele>
        <time>2015-10-25T11:37:50.972Z</time>
      </trkpt>
      <trkpt lat="45.95039" lon="4.65884">
        <ele>253.399993896</ele>
        <time>2015-10-25T11:37:51.944Z</time>
      </trkpt>
      <trkpt lat="45.95037" lon="4.65893">
        <ele>253.100006104</ele>
        <time>2015-10-25T11:37:52.988Z</time>
      </trkpt>
      <trkpt lat="45.95035" lon="4.65902">
        <ele>253.100006104</ele>
        <time>2015-10-25T11:37:53.942Z</time>
      </trkpt>
      <trkpt lat="45.95033" lon="4.65911">
        <ele>253</ele>
        <time>2015-10-25T11:37:54.969Z</time>
      </trkpt>
      <trkpt lat="45.95031" lon="4.6592">
        <ele>252.899993896</ele>
        <time>2015-10-25T11:37:55.944Z</time>
      </trkpt>
      <trkpt lat="45.9503" lon="4.6593">
        <ele>252.5</ele>
        <time>2015-10-25T11:37:56.971Z</time>
      </trkpt>
      <trkpt lat="45.95029" lon="4.65939">
        <ele>252.5</ele>
        <time>2015-10-25T11:37:57.948Z</time>
      </trkpt>
      <trkpt lat="45.95029" lon="4.65949">
        <ele>252.300003052</ele>
        <time>2015-10-25T11:37:58.968Z</time>
      </trkpt>
      <trkpt lat="45.95029" lon="4.65959">
        <ele>252.300003052</ele>
        <time>2015-10-25T11:37:59.942Z</time>
      </trkpt>
      <trkpt lat="45.95029" lon="4.65969">
        <ele>252.100006104</ele>
        <time>2015-10-25T11:38:00.974Z</time>
      </trkpt>
      <trkpt lat="45.95029" lon="4.65979">
        <ele>252</ele>
        <time>2015-10-25T11:38:01.981Z</time>
      </trkpt>
      <trkpt lat="45.9503" lon="4.65989">
        <ele>251.699996948</ele>
        <time>2015-10-25T11:38:02.972Z</time>
      </trkpt>
      <trkpt lat="45.9503" lon="4.65999">
        <ele>251.800003052</ele>
        <time>2015-10-25T11:38:03.944Z</time>
      </trkpt>
      <trkpt lat="45.9503" lon="4.66009">
        <ele>251.5</ele>
        <time>2015-10-25T11:38:04.975Z</time>
      </trkpt>
      <trkpt lat="45.9503" lon="4.66018">
        <ele>251.100006104</ele>
        <time>2015-10-25T11:38:05.945Z</time>
      </trkpt>
      <trkpt lat="45.9503" lon="4.66027">
        <ele>250.899993896</ele>
        <time>2015-10-25T11:38:06.968Z</time>
      </trkpt>
      <trkpt lat="45.9503" lon="4.66034">
        <ele>250.600006104</ele>
        <time>2015-10-25T11:38:07.944Z</time>
      </trkpt>
      <trkpt lat="45.95029" lon="4.66042">
        <ele>250.199996948</ele>
        <time>2015-10-25T11:38:08.987Z</time>
      </trkpt>
      <trkpt lat="45.95027" lon="4.66048">
        <ele>249.600006104</ele>
        <time>2015-10-25T11:38:09.944Z</time>
      </trkpt>
      <trkpt lat="45.95025" lon="4.66055">
        <ele>249.300003052</ele>
        <time>2015-10-25T11:38:10.98Z</time>
      </trkpt>
      <trkpt lat="45.95021" lon="4.6606">
        <ele>249</ele>
        <time>2015-10-25T11:38:11.945Z</time>
      </trkpt>
      <trkpt lat="45.95019" lon="4.66065">
        <ele>248.300003052</ele>
        <time>2015-10-25T11:38:12.969Z</time>
      </trkpt>
      <trkpt lat="45.95016" lon="4.66071">
        <ele>247.600006104</ele>
        <time>2015-10-25T11:38:13.944Z</time>
      </trkpt>
      <trkpt lat="45.95014" lon="4.66078">
        <ele>246.699996948</ele>
        <time>2015-10-25T11:38:14.972Z</time>
      </trkpt>
      <trkpt lat="45.95012" lon="4.66086">
        <ele>246</ele>
        <time>2015-10-25T11:38:15.944Z</time>
      </trkpt>
      <trkpt lat="45.95012" lon="4.66094">
        <ele>245.100006104</ele>
        <time>2015-10-25T11:38:16.971Z</time>
      </trkpt>
      <trkpt lat="45.95014" lon="4.66102">
        <ele>244.5</ele>
        <time>2015-10-25T11:38:17.946Z</time>
      </trkpt>
      <trkpt lat="45.95015" lon="4.66109">
        <ele>243.899993896</ele>
        <time>2015-10-25T11:38:18.972Z</time>
      </trkpt>
      <trkpt lat="45.95016" lon="4.66116">
        <ele>243.100006104</ele>
        <time>2015-10-25T11:38:19.978Z</time>
      </trkpt>
      <trkpt lat="45.95015" lon="4.66128">
        <ele>242.199996948</ele>
        <time>2015-10-25T11:38:21.972Z</time>
      </trkpt>
      <trkpt lat="45.95012" lon="4.66133">
        <ele>242.600006104</ele>
        <time>2015-10-25T11:38:22.944Z</time>
      </trkpt>
      <trkpt lat="45.95008" lon="4.66136">
        <ele>242.300003052</ele>
        <time>2015-10-25T11:38:23.977Z</time>
      </trkpt>
      <trkpt lat="45.95004" lon="4.66138">
        <ele>242</ele>
        <time>2015-10-25T11:38:24.958Z</time>
      </trkpt>
      <trkpt lat="45.94996" lon="4.6614">
        <ele>241.899993896</ele>
        <time>2015-10-25T11:38:26.968Z</time>
      </trkpt>
      <trkpt lat="45.94992" lon="4.66142">
        <ele>241.899993896</ele>
        <time>2015-10-25T11:38:27.948Z</time>
      </trkpt>
      <trkpt lat="45.94985" lon="4.66148">
        <ele>241.699996948</ele>
        <time>2015-10-25T11:38:30.006Z</time>
      </trkpt>
      <trkpt lat="45.94982" lon="4.66151">
        <ele>241.899993896</ele>
        <time>2015-10-25T11:38:30.942Z</time>
      </trkpt>
      <trkpt lat="45.94975" lon="4.66158">
        <ele>241.899993896</ele>
        <time>2015-10-25T11:38:32.971Z</time>
      </trkpt>
      <trkpt lat="45.94971" lon="4.66161">
        <ele>241.899993896</ele>
        <time>2015-10-25T11:38:33.985Z</time>
      </trkpt>
      <trkpt lat="45.94967" lon="4.66165">
        <ele>242</ele>
        <time>2015-10-25T11:38:34.971Z</time>
      </trkpt>
      <trkpt lat="45.94963" lon="4.66168">
        <ele>242.300003052</ele>
        <time>2015-10-25T11:38:35.943Z</time>
      </trkpt>
      <trkpt lat="45.94956" lon="4.66173">
        <ele>242.699996948</ele>
        <time>2015-10-25T11:38:38.009Z</time>
      </trkpt>
      <trkpt lat="45.94952" lon="4.66175">
        <ele>242.899993896</ele>
        <time>2015-10-25T11:38:38.942Z</time>
      </trkpt>
      <trkpt lat="45.94945" lon="4.66177">
        <ele>243.600006104</ele>
        <time>2015-10-25T11:38:40.969Z</time>
      </trkpt>
      <trkpt lat="45.94941" lon="4.66178">
        <ele>243.600006104</ele>
        <time>2015-10-25T11:38:41.946Z</time>
      </trkpt>
      <trkpt lat="45.94933" lon="4.66179">
        <ele>244.199996948</ele>
        <time>2015-10-25T11:38:43.969Z</time>
      </trkpt>
      <trkpt lat="45.9493" lon="4.66179">
        <ele>244.399993896</ele>
        <time>2015-10-25T11:38:44.941Z</time>
      </trkpt>
      <trkpt lat="45.94923" lon="4.6618">
        <ele>244.699996948</ele>
        <time>2015-10-25T11:38:46.971Z</time>
      </trkpt>
      <trkpt lat="45.9492" lon="4.66181">
        <ele>245.199996948</ele>
        <time>2015-10-25T11:38:47.945Z</time>
      </trkpt>
      <trkpt lat="45.94912" lon="4.66183">
        <ele>246.199996948</ele>
        <time>2015-10-25T11:38:50.972Z</time>
      </trkpt>
      <trkpt lat="45.94909" lon="4.66184">
        <ele>246.5</ele>
        <time>2015-10-25T11:38:51.945Z</time>
      </trkpt>
      <trkpt lat="45.94901" lon="4.66189">
        <ele>247.199996948</ele>
        <time>2015-10-25T11:38:54.968Z</time>
      </trkpt>
      <trkpt lat="45.94899" lon="4.66191">
        <ele>247.100006104</ele>
        <time>2015-10-25T11:38:55.937Z</time>
      </trkpt>
      <trkpt lat="45.94896" lon="4.662">
        <ele>246.5</ele>
        <time>2015-10-25T11:38:58.968Z</time>
      </trkpt>
      <trkpt lat="45.94895" lon="4.66205">
        <ele>246.600006104</ele>
        <time>2015-10-25T11:38:59.941Z</time>
      </trkpt>
      <trkpt lat="45.94895" lon="4.66216">
        <ele>246.100006104</ele>
        <time>2015-10-25T11:39:01.995Z</time>
      </trkpt>
      <trkpt lat="45.94893" lon="4.66223">
        <ele>246.300003052</ele>
        <time>2015-10-25T11:39:02.941Z</time>
      </trkpt>
      <trkpt lat="45.9489" lon="4.66228">
        <ele>246.600006104</ele>
        <time>2015-10-25T11:39:03.975Z</time>
      </trkpt>
      <trkpt lat="45.94886" lon="4.66231">
        <ele>246.600006104</ele>
        <time>2015-10-25T11:39:05.047Z</time>
      </trkpt>
      <trkpt lat="45.94881" lon="4.66233">
        <ele>246.399993896</ele>
        <time>2015-10-25T11:39:05.977Z</time>
      </trkpt>
      <trkpt lat="45.94877" lon="4.66236">
        <ele>246.699996948</ele>
        <time>2015-10-25T11:39:06.944Z</time>
      </trkpt>
      <trkpt lat="45.94873" lon="4.6624">
        <ele>246.399993896</ele>
        <time>2015-10-25T11:39:07.969Z</time>
      </trkpt>
      <trkpt lat="45.94869" lon="4.66244">
        <ele>246.399993896</ele>
        <time>2015-10-25T11:39:08.944Z</time>
      </trkpt>
      <trkpt lat="45.94865" lon="4.66248">
        <ele>246.399993896</ele>
        <time>2015-10-25T11:39:10.023Z</time>
      </trkpt>
      <trkpt lat="45.94861" lon="4.66252">
        <ele>246.5</ele>
        <time>2015-10-25T11:39:10.941Z</time>
      </trkpt>
      <trkpt lat="45.94857" lon="4.66256">
        <ele>246.300003052</ele>
        <time>2015-10-25T11:39:11.973Z</time>
      </trkpt>
      <trkpt lat="45.94853" lon="4.6626">
        <ele>246.100006104</ele>
        <time>2015-10-25T11:39:12.944Z</time>
      </trkpt>
      <trkpt lat="45.94847" lon="4.66268">
        <ele>246.5</ele>
        <time>2015-10-25T11:39:14.968Z</time>
      </trkpt>
      <trkpt lat="45.94844" lon="4.66272">
        <ele>246.399993896</ele>
        <time>2015-10-25T11:39:15.944Z</time>
      </trkpt>
      <trkpt lat="45.9484" lon="4.66281">
        <ele>246.800003052</ele>
        <time>2015-10-25T11:39:17.986Z</time>
      </trkpt>
      <trkpt lat="45.94839" lon="4.66287">
        <ele>247.100006104</ele>
        <time>2015-10-25T11:39:18.944Z</time>
      </trkpt>
      <trkpt lat="45.94838" lon="4.66297">
        <ele>247.199996948</ele>
        <time>2015-10-25T11:39:20.978Z</time>
      </trkpt>
      <trkpt lat="45.94838" lon="4.66302">
        <ele>247.300003052</ele>
        <time>2015-10-25T11:39:21.947Z</time>
      </trkpt>
      <trkpt lat="45.94838" lon="4.66311">
        <ele>247.399993896</ele>
        <time>2015-10-25T11:39:23.97Z</time>
      </trkpt>
      <trkpt lat="45.94838" lon="4.66315">
        <ele>247.699996948</ele>
        <time>2015-10-25T11:39:25.051Z</time>
      </trkpt>
      <trkpt lat="45.94839" lon="4.66327">
        <ele>248.300003052</ele>
        <time>2015-10-25T11:39:27.974Z</time>
      </trkpt>
      <trkpt lat="45.94839" lon="4.66331">
        <ele>248.5</ele>
        <time>2015-10-25T11:39:28.94Z</time>
      </trkpt>
      <trkpt lat="45.9484" lon="4.66342">
        <ele>249.100006104</ele>
        <time>2015-10-25T11:39:31.971Z</time>
      </trkpt>
      <trkpt lat="45.94841" lon="4.66346">
        <ele>248.800003052</ele>
        <time>2015-10-25T11:39:32.94Z</time>
      </trkpt>
      <trkpt lat="45.94844" lon="4.66357">
        <ele>248.199996948</ele>
        <time>2015-10-25T11:39:35.972Z</time>
      </trkpt>
      <trkpt lat="45.94845" lon="4.6636">
        <ele>248.300003052</ele>
        <time>2015-10-25T11:39:36.941Z</time>
      </trkpt>
      <trkpt lat="45.9485" lon="4.6637">
        <ele>248.699996948</ele>
        <time>2015-10-25T11:39:39.972Z</time>
      </trkpt>
      <trkpt lat="45.94852" lon="4.66373">
        <ele>248.300003052</ele>
        <time>2015-10-25T11:39:40.942Z</time>
      </trkpt>
      <trkpt lat="45.94856" lon="4.66383">
        <ele>248.800003052</ele>
        <time>2015-10-25T11:39:43.969Z</time>
      </trkpt>
      <trkpt lat="45.94857" lon="4.66386">
        <ele>248.899993896</ele>
        <time>2015-10-25T11:39:45.051Z</time>
      </trkpt>
      <trkpt lat="45.94862" lon="4.66396">
        <ele>248.899993896</ele>
        <time>2015-10-25T11:39:48.021Z</time>
      </trkpt>
      <trkpt lat="45.94863" lon="4.66399">
        <ele>249.300003052</ele>
        <time>2015-10-25T11:39:48.943Z</time>
      </trkpt>
      <trkpt lat="45.94867" lon="4.66408">
        <ele>249.699996948</ele>
        <time>2015-10-25T11:39:51.972Z</time>
      </trkpt>
      <trkpt lat="45.94868" lon="4.66411">
        <ele>249.899993896</ele>
        <time>2015-10-25T11:39:52.941Z</time>
      </trkpt>
      <trkpt lat="45.94872" lon="4.66421">
        <ele>250.399993896</ele>
        <time>2015-10-25T11:39:55.986Z</time>
      </trkpt>
      <trkpt lat="45.94874" lon="4.66424">
        <ele>250.899993896</ele>
        <time>2015-10-25T11:39:56.983Z</time>
      </trkpt>
      <trkpt lat="45.94876" lon="4.66435">
        <ele>252</ele>
        <time>2015-10-25T11:39:59.969Z</time>
      </trkpt>
      <trkpt lat="45.94877" lon="4.66438">
        <ele>252</ele>
        <time>2015-10-25T11:40:00.944Z</time>
      </trkpt>
      <trkpt lat="45.9488" lon="4.66448">
        <ele>252.699996948</ele>
        <time>2015-10-25T11:40:04.074Z</time>
      </trkpt>
      <trkpt lat="45.94881" lon="4.66451">
        <ele>253</ele>
        <time>2015-10-25T11:40:04.945Z</time>
      </trkpt>
      <trkpt lat="45.94884" lon="4.66461">
        <ele>253.600006104</ele>
        <time>2015-10-25T11:40:08.016Z</time>
      </trkpt>
      <trkpt lat="45.94885" lon="4.66465">
        <ele>253.800003052</ele>
        <time>2015-10-25T11:40:08.94Z</time>
      </trkpt>
      <trkpt lat="45.94887" lon="4.66475">
        <ele>254.899993896</ele>
        <time>2015-10-25T11:40:11.969Z</time>
      </trkpt>
      <trkpt lat="45.94887" lon="4.66478">
        <ele>255.100006104</ele>
        <time>2015-10-25T11:40:12.94Z</time>
      </trkpt>
      <trkpt lat="45.94889" lon="4.66491">
        <ele>255.399993896</ele>
        <time>2015-10-25T11:40:16.971Z</time>
      </trkpt>
      <trkpt lat="45.94889" lon="4.66493">
        <ele>255.600006104</ele>
        <time>2015-10-25T11:40:17.945Z</time>
      </trkpt>
      <trkpt lat="45.9489" lon="4.66506">
        <ele>256.200012207</ele>
        <time>2015-10-25T11:40:21.986Z</time>
      </trkpt>
      <trkpt lat="45.9489" lon="4.66509">
        <ele>256</ele>
        <time>2015-10-25T11:40:22.943Z</time>
      </trkpt>
      <trkpt lat="45.94888" lon="4.6652">
        <ele>256.700012207</ele>
        <time>2015-10-25T11:40:26.968Z</time>
      </trkpt>
      <trkpt lat="45.94888" lon="4.66523">
        <ele>257.200012207</ele>
        <time>2015-10-25T11:40:27.947Z</time>
      </trkpt>
      <trkpt lat="45.94885" lon="4.66535">
        <ele>257.5</ele>
        <time>2015-10-25T11:40:31.97Z</time>
      </trkpt>
      <trkpt lat="45.94884" lon="4.66537">
        <ele>257.600006104</ele>
        <time>2015-10-25T11:40:32.984Z</time>
      </trkpt>
      <trkpt lat="45.9488" lon="4.66546">
        <ele>257.700012207</ele>
        <time>2015-10-25T11:40:36.015Z</time>
      </trkpt>
      <trkpt lat="45.94879" lon="4.66549">
        <ele>257.799987793</ele>
        <time>2015-10-25T11:40:36.961Z</time>
      </trkpt>
      <trkpt lat="45.94875" lon="4.66558">
        <ele>258.5</ele>
        <time>2015-10-25T11:40:39.974Z</time>
      </trkpt>
      <trkpt lat="45.94874" lon="4.66561">
        <ele>258.899993896</ele>
        <time>2015-10-25T11:40:40.949Z</time>
      </trkpt>
      <trkpt lat="45.9487" lon="4.66569">
        <ele>259.299987793</ele>
        <time>2015-10-25T11:40:43.971Z</time>
      </trkpt>
      <trkpt lat="45.94869" lon="4.66572">
        <ele>259.399993896</ele>
        <time>2015-10-25T11:40:44.944Z</time>
      </trkpt>
      <trkpt lat="45.94866" lon="4.66581">
        <ele>259.799987793</ele>
        <time>2015-10-25T11:40:47.972Z</time>
      </trkpt>
      <trkpt lat="45.94865" lon="4.66584">
        <ele>260.100006104</ele>
        <time>2015-10-25T11:40:48.944Z</time>
      </trkpt>
      <trkpt lat="45.9486" lon="4.66594">
        <ele>261.600006104</ele>
        <time>2015-10-25T11:40:52.985Z</time>
      </trkpt>
      <trkpt lat="45.94859" lon="4.66596">
        <ele>262.100006104</ele>
        <time>2015-10-25T11:40:53.942Z</time>
      </trkpt>
      <trkpt lat="45.94855" lon="4.66606">
        <ele>263.200012207</ele>
        <time>2015-10-25T11:40:57.974Z</time>
      </trkpt>
      <trkpt lat="45.94854" lon="4.66609">
        <ele>263.299987793</ele>
        <time>2015-10-25T11:40:58.94Z</time>
      </trkpt>
      <trkpt lat="45.9485" lon="4.66618">
        <ele>263.899993896</ele>
        <time>2015-10-25T11:41:02.074Z</time>
      </trkpt>
      <trkpt lat="45.94849" lon="4.6662">
        <ele>264.100006104</ele>
        <time>2015-10-25T11:41:02.947Z</time>
      </trkpt>
      <trkpt lat="45.94846" lon="4.66629">
        <ele>264.899993896</ele>
        <time>2015-10-25T11:41:05.972Z</time>
      </trkpt>
      <trkpt lat="45.94845" lon="4.66632">
        <ele>264.700012207</ele>
        <time>2015-10-25T11:41:06.949Z</time>
      </trkpt>
      <trkpt lat="45.9484" lon="4.66642">
        <ele>265.799987793</ele>
        <time>2015-10-25T11:41:10.971Z</time>
      </trkpt>
      <trkpt lat="45.94839" lon="4.66645">
        <ele>266.299987793</ele>
        <time>2015-10-25T11:41:11.966Z</time>
      </trkpt>
      <trkpt lat="45.94836" lon="4.66655">
        <ele>266.600006104</ele>
        <time>2015-10-25T11:41:15.003Z</time>
      </trkpt>
      <trkpt lat="45.94836" lon="4.66658">
        <ele>266.799987793</ele>
        <time>2015-10-25T11:41:15.947Z</time>
      </trkpt>
      <trkpt lat="45.94833" lon="4.66668">
        <ele>267.399993896</ele>
        <time>2015-10-25T11:41:18.983Z</time>
      </trkpt>
      <trkpt lat="45.94832" lon="4.66671">
        <ele>267.399993896</ele>
        <time>2015-10-25T11:41:19.944Z</time>
      </trkpt>
      <trkpt lat="45.94828" lon="4.66682">
        <ele>268.399993896</ele>
        <time>2015-10-25T11:41:23.969Z</time>
      </trkpt>
      <trkpt lat="45.94827" lon="4.66685">
        <ele>268.700012207</ele>
        <time>2015-10-25T11:41:24.94Z</time>
      </trkpt>
      <trkpt lat="45.94824" lon="4.66696">
        <ele>270</ele>
        <time>2015-10-25T11:41:29.003Z</time>
      </trkpt>
      <trkpt lat="45.94823" lon="4.66699">
        <ele>270.100006104</ele>
        <time>2015-10-25T11:41:29.941Z</time>
      </trkpt>
      <trkpt lat="45.94821" lon="4.6671">
        <ele>271.600006104</ele>
        <time>2015-10-25T11:41:33.971Z</time>
      </trkpt>
      <trkpt lat="45.9482" lon="4.66713">
        <ele>272</ele>
        <time>2015-10-25T11:41:34.946Z</time>
      </trkpt>
      <trkpt lat="45.94818" lon="4.66725">
        <ele>272.299987793</ele>
        <time>2015-10-25T11:41:38.971Z</time>
      </trkpt>
      <trkpt lat="45.94818" lon="4.66728">
        <ele>272.5</ele>
        <time>2015-10-25T11:41:40.013Z</time>
      </trkpt>
      <trkpt lat="45.94816" lon="4.66739">
        <ele>273.100006104</ele>
        <time>2015-10-25T11:41:43.971Z</time>
      </trkpt>
      <trkpt lat="45.94816" lon="4.66742">
        <ele>273.299987793</ele>
        <time>2015-10-25T11:41:44.993Z</time>
      </trkpt>
      <trkpt lat="45.94814" lon="4.66754">
        <ele>273.700012207</ele>
        <time>2015-10-25T11:41:48.967Z</time>
      </trkpt>
      <trkpt lat="45.94814" lon="4.66757">
        <ele>274</ele>
        <time>2015-10-25T11:41:49.944Z</time>
      </trkpt>
      <trkpt lat="45.94814" lon="4.66768">
        <ele>274.100006104</ele>
        <time>2015-10-25T11:41:54.004Z</time>
      </trkpt>
      <trkpt lat="45.94814" lon="4.66771">
        <ele>274.100006104</ele>
        <time>2015-10-25T11:41:54.94Z</time>
      </trkpt>
      <trkpt lat="45.94813" lon="4.66783">
        <ele>274.700012207</ele>
        <time>2015-10-25T11:41:58.977Z</time>
      </trkpt>
      <trkpt lat="45.94813" lon="4.66786">
        <ele>274.899993896</ele>
        <time>2015-10-25T11:41:59.945Z</time>
      </trkpt>
      <trkpt lat="45.94812" lon="4.66797">
        <ele>275.399993896</ele>
        <time>2015-10-25T11:42:03.97Z</time>
      </trkpt>
      <trkpt lat="45.94812" lon="4.668">
        <ele>275.299987793</ele>
        <time>2015-10-25T11:42:04.939Z</time>
      </trkpt>
      <trkpt lat="45.94813" lon="4.66813">
        <ele>276</ele>
        <time>2015-10-25T11:42:08.975Z</time>
      </trkpt>
      <trkpt lat="45.94813" lon="4.66816">
        <ele>276</ele>
        <time>2015-10-25T11:42:09.943Z</time>
      </trkpt>
      <trkpt lat="45.94813" lon="4.66829">
        <ele>277.299987793</ele>
        <time>2015-10-25T11:42:13.97Z</time>
      </trkpt>
      <trkpt lat="45.94813" lon="4.66832">
        <ele>277.200012207</ele>
        <time>2015-10-25T11:42:14.94Z</time>
      </trkpt>
      <trkpt lat="45.94814" lon="4.66842">
        <ele>277.200012207</ele>
        <time>2015-10-25T11:42:18.029Z</time>
      </trkpt>
      <trkpt lat="45.94814" lon="4.66845">
        <ele>277.5</ele>
        <time>2015-10-25T11:42:18.94Z</time>
      </trkpt>
      <trkpt lat="45.94816" lon="4.66855">
        <ele>278.5</ele>
        <time>2015-10-25T11:42:21.97Z</time>
      </trkpt>
      <trkpt lat="45.94816" lon="4.66858">
        <ele>278.799987793</ele>
        <time>2015-10-25T11:42:22.94Z</time>
      </trkpt>
      <trkpt lat="45.94817" lon="4.66869">
        <ele>279.399993896</ele>
        <time>2015-10-25T11:42:25.969Z</time>
      </trkpt>
      <trkpt lat="45.94817" lon="4.66872">
        <ele>279.299987793</ele>
        <time>2015-10-25T11:42:26.957Z</time>
      </trkpt>
      <trkpt lat="45.94817" lon="4.66882">
        <ele>279.299987793</ele>
        <time>2015-10-25T11:42:29.97Z</time>
      </trkpt>
      <trkpt lat="45.94818" lon="4.66886">
        <ele>279.5</ele>
        <time>2015-10-25T11:42:30.941Z</time>
      </trkpt>
      <trkpt lat="45.94819" lon="4.66897">
        <ele>280</ele>
        <time>2015-10-25T11:42:33.974Z</time>
      </trkpt>
      <trkpt lat="45.9482" lon="4.669">
        <ele>280.200012207</ele>
        <time>2015-10-25T11:42:34.941Z</time>
      </trkpt>
      <trkpt lat="45.9482" lon="4.6691">
        <ele>280.899993896</ele>
        <time>2015-10-25T11:42:37.969Z</time>
      </trkpt>
      <trkpt lat="45.9482" lon="4.66914">
        <ele>281.299987793</ele>
        <time>2015-10-25T11:42:38.944Z</time>
      </trkpt>
      <trkpt lat="45.94821" lon="4.66926">
        <ele>281.700012207</ele>
        <time>2015-10-25T11:42:42.081Z</time>
      </trkpt>
      <trkpt lat="45.94821" lon="4.66929">
        <ele>282.299987793</ele>
        <time>2015-10-25T11:42:42.956Z</time>
      </trkpt>
      <trkpt lat="45.94822" lon="4.6694">
        <ele>282.600006104</ele>
        <time>2015-10-25T11:42:45.97Z</time>
      </trkpt>
      <trkpt lat="45.94822" lon="4.66943">
        <ele>282.700012207</ele>
        <time>2015-10-25T11:42:46.947Z</time>
      </trkpt>
      <trkpt lat="45.94823" lon="4.66955">
        <ele>282.299987793</ele>
        <time>2015-10-25T11:42:49.968Z</time>
      </trkpt>
      <trkpt lat="45.94824" lon="4.66958">
        <ele>282.100006104</ele>
        <time>2015-10-25T11:42:50.98Z</time>
      </trkpt>
      <trkpt lat="45.94825" lon="4.66969">
        <ele>282.100006104</ele>
        <time>2015-10-25T11:42:53.975Z</time>
      </trkpt>
      <trkpt lat="45.94825" lon="4.66973">
        <ele>282.200012207</ele>
        <time>2015-10-25T11:42:54.944Z</time>
      </trkpt>
      <trkpt lat="45.94826" lon="4.66983">
        <ele>282.5</ele>
        <time>2015-10-25T11:42:57.977Z</time>
      </trkpt>
      <trkpt lat="45.94826" lon="4.66987">
        <ele>282.5</ele>
        <time>2015-10-25T11:42:58.941Z</time>
      </trkpt>
      <trkpt lat="45.94828" lon="4.66997">
        <ele>282.799987793</ele>
        <time>2015-10-25T11:43:01.969Z</time>
      </trkpt>
      <trkpt lat="45.94828" lon="4.67001">
        <ele>282.899993896</ele>
        <time>2015-10-25T11:43:02.941Z</time>
      </trkpt>
      <trkpt lat="45.9483" lon="4.67011">
        <ele>284.100006104</ele>
        <time>2015-10-25T11:43:05.969Z</time>
      </trkpt>
      <trkpt lat="45.9483" lon="4.67015">
        <ele>284.200012207</ele>
        <time>2015-10-25T11:43:06.944Z</time>
      </trkpt>
      <trkpt lat="45.94831" lon="4.67025">
        <ele>284.799987793</ele>
        <time>2015-10-25T11:43:10.115Z</time>
      </trkpt>
      <trkpt lat="45.94831" lon="4.67028">
        <ele>285.600006104</ele>
        <time>2015-10-25T11:43:10.941Z</time>
      </trkpt>
      <trkpt lat="45.94833" lon="4.67039">
        <ele>286.5</ele>
        <time>2015-10-25T11:43:13.968Z</time>
      </trkpt>
      <trkpt lat="45.94834" lon="4.67042">
        <ele>286.600006104</ele>
        <time>2015-10-25T11:43:14.983Z</time>
      </trkpt>
      <trkpt lat="45.94835" lon="4.67053">
        <ele>287.700012207</ele>
        <time>2015-10-25T11:43:17.976Z</time>
      </trkpt>
      <trkpt lat="45.94835" lon="4.67057">
        <ele>287.899993896</ele>
        <time>2015-10-25T11:43:18.958Z</time>
      </trkpt>
      <trkpt lat="45.94836" lon="4.67066">
        <ele>288.899993896</ele>
        <time>2015-10-25T11:43:21.971Z</time>
      </trkpt>
      <trkpt lat="45.94836" lon="4.6707">
        <ele>289</ele>
        <time>2015-10-25T11:43:23.001Z</time>
      </trkpt>
      <trkpt lat="45.94837" lon="4.67083">
        <ele>289.299987793</ele>
        <time>2015-10-25T11:43:25.967Z</time>
      </trkpt>
      <trkpt lat="45.94837" lon="4.67087">
        <ele>289.700012207</ele>
        <time>2015-10-25T11:43:26.94Z</time>
      </trkpt>
      <trkpt lat="45.94835" lon="4.67099">
        <ele>290.399993896</ele>
        <time>2015-10-25T11:43:30.083Z</time>
      </trkpt>
      <trkpt lat="45.94834" lon="4.67103">
        <ele>290.700012207</ele>
        <time>2015-10-25T11:43:30.972Z</time>
      </trkpt>
      <trkpt lat="45.94832" lon="4.67111">
        <ele>290.899993896</ele>
        <time>2015-10-25T11:43:32.968Z</time>
      </trkpt>
      <trkpt lat="45.94831" lon="4.67115">
        <ele>291.100006104</ele>
        <time>2015-10-25T11:43:33.946Z</time>
      </trkpt>
      <trkpt lat="45.94827" lon="4.67127">
        <ele>291.399993896</ele>
        <time>2015-10-25T11:43:36.968Z</time>
      </trkpt>
      <trkpt lat="45.94826" lon="4.67131">
        <ele>291.799987793</ele>
        <time>2015-10-25T11:43:37.942Z</time>
      </trkpt>
      <trkpt lat="45.94824" lon="4.67139">
        <ele>292.100006104</ele>
        <time>2015-10-25T11:43:39.986Z</time>
      </trkpt>
      <trkpt lat="45.94823" lon="4.67144">
        <ele>292.100006104</ele>
        <time>2015-10-25T11:43:40.936Z</time>
      </trkpt>
      <trkpt lat="45.9482" lon="4.67153">
        <ele>292.100006104</ele>
        <time>2015-10-25T11:43:42.974Z</time>
      </trkpt>
      <trkpt lat="45.94818" lon="4.67158">
        <ele>292.200012207</ele>
        <time>2015-10-25T11:43:43.94Z</time>
      </trkpt>
      <trkpt lat="45.94815" lon="4.6717">
        <ele>292.5</ele>
        <time>2015-10-25T11:43:45.974Z</time>
      </trkpt>
      <trkpt lat="45.94813" lon="4.67176">
        <ele>292.600006104</ele>
        <time>2015-10-25T11:43:46.946Z</time>
      </trkpt>
      <trkpt lat="45.94809" lon="4.67186">
        <ele>291.200012207</ele>
        <time>2015-10-25T11:43:48.967Z</time>
      </trkpt>
      <trkpt lat="45.94808" lon="4.67191">
        <ele>291</ele>
        <time>2015-10-25T11:43:49.94Z</time>
      </trkpt>
      <trkpt lat="45.94806" lon="4.67202">
        <ele>291.299987793</ele>
        <time>2015-10-25T11:43:52.022Z</time>
      </trkpt>
      <trkpt lat="45.94805" lon="4.67208">
        <ele>291.5</ele>
        <time>2015-10-25T11:43:52.948Z</time>
      </trkpt>
      <trkpt lat="45.94803" lon="4.67219">
        <ele>291.299987793</ele>
        <time>2015-10-25T11:43:54.967Z</time>
      </trkpt>
      <trkpt lat="45.94802" lon="4.67224">
        <ele>291.299987793</ele>
        <time>2015-10-25T11:43:55.981Z</time>
      </trkpt>
      <trkpt lat="45.94799" lon="4.67235">
        <ele>291.700012207</ele>
        <time>2015-10-25T11:43:58.185Z</time>
      </trkpt>
      <trkpt lat="45.94797" lon="4.67241">
        <ele>291.600006104</ele>
        <time>2015-10-25T11:43:58.979Z</time>
      </trkpt>
      <trkpt lat="45.94795" lon="4.67248">
        <ele>291.5</ele>
        <time>2015-10-25T11:43:59.969Z</time>
      </trkpt>
      <trkpt lat="45.94794" lon="4.67256">
        <ele>291.600006104</ele>
        <time>2015-10-25T11:44:00.961Z</time>
      </trkpt>
      <trkpt lat="45.94792" lon="4.67264">
        <ele>291.5</ele>
        <time>2015-10-25T11:44:01.97Z</time>
      </trkpt>
      <trkpt lat="45.9479" lon="4.67271">
        <ele>291.600006104</ele>
        <time>2015-10-25T11:44:02.943Z</time>
      </trkpt>
      <trkpt lat="45.94787" lon="4.67278">
        <ele>291.5</ele>
        <time>2015-10-25T11:44:03.979Z</time>
      </trkpt>
      <trkpt lat="45.94785" lon="4.67284">
        <ele>291.600006104</ele>
        <time>2015-10-25T11:44:04.939Z</time>
      </trkpt>
      <trkpt lat="45.94782" lon="4.6729">
        <ele>291.399993896</ele>
        <time>2015-10-25T11:44:05.994Z</time>
      </trkpt>
      <trkpt lat="45.94778" lon="4.67295">
        <ele>291.200012207</ele>
        <time>2015-10-25T11:44:06.939Z</time>
      </trkpt>
      <trkpt lat="45.94774" lon="4.67298">
        <ele>290.700012207</ele>
        <time>2015-10-25T11:44:07.973Z</time>
      </trkpt>
      <trkpt lat="45.9477" lon="4.67301">
        <ele>290.600006104</ele>
        <time>2015-10-25T11:44:08.946Z</time>
      </trkpt>
      <trkpt lat="45.94764" lon="4.67303">
        <ele>290.200012207</ele>
        <time>2015-10-25T11:44:09.971Z</time>
      </trkpt>
      <trkpt lat="45.9476" lon="4.67304">
        <ele>290</ele>
        <time>2015-10-25T11:44:10.939Z</time>
      </trkpt>
      <trkpt lat="45.94755" lon="4.67306">
        <ele>289.799987793</ele>
        <time>2015-10-25T11:44:11.968Z</time>
      </trkpt>
      <trkpt lat="45.9475" lon="4.67309">
        <ele>289.899993896</ele>
        <time>2015-10-25T11:44:12.939Z</time>
      </trkpt>
      <trkpt lat="45.94746" lon="4.67314">
        <ele>289.399993896</ele>
        <time>2015-10-25T11:44:13.967Z</time>
      </trkpt>
      <trkpt lat="45.94742" lon="4.67319">
        <ele>289</ele>
        <time>2015-10-25T11:44:14.939Z</time>
      </trkpt>
      <trkpt lat="45.94739" lon="4.67326">
        <ele>288.600006104</ele>
        <time>2015-10-25T11:44:15.973Z</time>
      </trkpt>
      <trkpt lat="45.94737" lon="4.67333">
        <ele>288.5</ele>
        <time>2015-10-25T11:44:16.946Z</time>
      </trkpt>
      <trkpt lat="45.94735" lon="4.67342">
        <ele>288.299987793</ele>
        <time>2015-10-25T11:44:17.976Z</time>
      </trkpt>
      <trkpt lat="45.94733" lon="4.6735">
        <ele>288.100006104</ele>
        <time>2015-10-25T11:44:18.944Z</time>
      </trkpt>
      <trkpt lat="45.94731" lon="4.67359">
        <ele>287.399993896</ele>
        <time>2015-10-25T11:44:19.967Z</time>
      </trkpt>
      <trkpt lat="45.94729" lon="4.67368">
        <ele>286.700012207</ele>
        <time>2015-10-25T11:44:20.939Z</time>
      </trkpt>
      <trkpt lat="45.94727" lon="4.67378">
        <ele>286.299987793</ele>
        <time>2015-10-25T11:44:21.989Z</time>
      </trkpt>
      <trkpt lat="45.94725" lon="4.67388">
        <ele>285.799987793</ele>
        <time>2015-10-25T11:44:22.94Z</time>
      </trkpt>
      <trkpt lat="45.94723" lon="4.67398">
        <ele>285.299987793</ele>
        <time>2015-10-25T11:44:23.972Z</time>
      </trkpt>
      <trkpt lat="45.94722" lon="4.67409">
        <ele>284.600006104</ele>
        <time>2015-10-25T11:44:24.94Z</time>
      </trkpt>
      <trkpt lat="45.94719" lon="4.67421">
        <ele>283.200012207</ele>
        <time>2015-10-25T11:44:25.968Z</time>
      </trkpt>
      <trkpt lat="45.94718" lon="4.67433">
        <ele>282.100006104</ele>
        <time>2015-10-25T11:44:26.94Z</time>
      </trkpt>
      <trkpt lat="45.94718" lon="4.67433">
        <ele>282.100006104</ele>
        <time>2015-10-25T11:44:26.98Z</time>
      </trkpt>
      <trkpt lat="45.94716" lon="4.67446">
        <ele>281.299987793</ele>
        <time>2015-10-25T11:44:27.945Z</time>
      </trkpt>
      <trkpt lat="45.94716" lon="4.67446">
        <ele>281.299987793</ele>
        <time>2015-10-25T11:44:28.009Z</time>
      </trkpt>
      <trkpt lat="45.94714" lon="4.67459">
        <ele>280.200012207</ele>
        <time>2015-10-25T11:44:28.94Z</time>
      </trkpt>
      <trkpt lat="45.94714" lon="4.67459">
        <ele>280.200012207</ele>
        <time>2015-10-25T11:44:29.012Z</time>
      </trkpt>
      <trkpt lat="45.94712" lon="4.67472">
        <ele>279.5</ele>
        <time>2015-10-25T11:44:29.942Z</time>
      </trkpt>
      <trkpt lat="45.94712" lon="4.67472">
        <ele>279.5</ele>
        <time>2015-10-25T11:44:29.995Z</time>
      </trkpt>
      <trkpt lat="45.94709" lon="4.67485">
        <ele>278.799987793</ele>
        <time>2015-10-25T11:44:30.944Z</time>
      </trkpt>
      <trkpt lat="45.94709" lon="4.67485">
        <ele>278.799987793</ele>
        <time>2015-10-25T11:44:30.976Z</time>
      </trkpt>
      <trkpt lat="45.94706" lon="4.67498">
        <ele>278.200012207</ele>
        <time>2015-10-25T11:44:31.94Z</time>
      </trkpt>
      <trkpt lat="45.94706" lon="4.67498">
        <ele>278.200012207</ele>
        <time>2015-10-25T11:44:31.974Z</time>
      </trkpt>
      <trkpt lat="45.94702" lon="4.67511">
        <ele>278.100006104</ele>
        <time>2015-10-25T11:44:32.94Z</time>
      </trkpt>
      <trkpt lat="45.94702" lon="4.67511">
        <ele>278.100006104</ele>
        <time>2015-10-25T11:44:33.099Z</time>
      </trkpt>
      <trkpt lat="45.94697" lon="4.67522">
        <ele>277.799987793</ele>
        <time>2015-10-25T11:44:33.946Z</time>
      </trkpt>
      <trkpt lat="45.94697" lon="4.67522">
        <ele>277.799987793</ele>
        <time>2015-10-25T11:44:33.979Z</time>
      </trkpt>
      <trkpt lat="45.94691" lon="4.67532">
        <ele>277.5</ele>
        <time>2015-10-25T11:44:34.941Z</time>
      </trkpt>
      <trkpt lat="45.94683" lon="4.6754">
        <ele>276.799987793</ele>
        <time>2015-10-25T11:44:35.969Z</time>
      </trkpt>
      <trkpt lat="45.94675" lon="4.67546">
        <ele>276</ele>
        <time>2015-10-25T11:44:36.939Z</time>
      </trkpt>
      <trkpt lat="45.94675" lon="4.67546">
        <ele>276</ele>
        <time>2015-10-25T11:44:37.02Z</time>
      </trkpt>
      <trkpt lat="45.94667" lon="4.67553">
        <ele>275.5</ele>
        <time>2015-10-25T11:44:37.959Z</time>
      </trkpt>
      <trkpt lat="45.94667" lon="4.67553">
        <ele>275.5</ele>
        <time>2015-10-25T11:44:38.02Z</time>
      </trkpt>
      <trkpt lat="45.94659" lon="4.6756">
        <ele>275.200012207</ele>
        <time>2015-10-25T11:44:38.943Z</time>
      </trkpt>
      <trkpt lat="45.94659" lon="4.6756">
        <ele>275.200012207</ele>
        <time>2015-10-25T11:44:38.976Z</time>
      </trkpt>
      <trkpt lat="45.94651" lon="4.67568">
        <ele>274.899993896</ele>
        <time>2015-10-25T11:44:39.943Z</time>
      </trkpt>
      <trkpt lat="45.94651" lon="4.67568">
        <ele>274.899993896</ele>
        <time>2015-10-25T11:44:40.057Z</time>
      </trkpt>
      <trkpt lat="45.94643" lon="4.67575">
        <ele>274.5</ele>
        <time>2015-10-25T11:44:40.943Z</time>
      </trkpt>
      <trkpt lat="45.94643" lon="4.67575">
        <ele>274.5</ele>
        <time>2015-10-25T11:44:40.976Z</time>
      </trkpt>
      <trkpt lat="45.94635" lon="4.67583">
        <ele>274</ele>
        <time>2015-10-25T11:44:41.94Z</time>
      </trkpt>
      <trkpt lat="45.94635" lon="4.67583">
        <ele>274</ele>
        <time>2015-10-25T11:44:41.974Z</time>
      </trkpt>
      <trkpt lat="45.94628" lon="4.67592">
        <ele>273.600006104</ele>
        <time>2015-10-25T11:44:42.945Z</time>
      </trkpt>
      <trkpt lat="45.94628" lon="4.67592">
        <ele>273.600006104</ele>
        <time>2015-10-25T11:44:42.978Z</time>
      </trkpt>
      <trkpt lat="45.9462" lon="4.67601">
        <ele>273.299987793</ele>
        <time>2015-10-25T11:44:43.945Z</time>
      </trkpt>
      <trkpt lat="45.9462" lon="4.67601">
        <ele>273.299987793</ele>
        <time>2015-10-25T11:44:43.978Z</time>
      </trkpt>
      <trkpt lat="45.94614" lon="4.6761">
        <ele>273</ele>
        <time>2015-10-25T11:44:44.944Z</time>
      </trkpt>
      <trkpt lat="45.94614" lon="4.6761">
        <ele>273</ele>
        <time>2015-10-25T11:44:44.977Z</time>
      </trkpt>
      <trkpt lat="45.94607" lon="4.67619">
        <ele>272.700012207</ele>
        <time>2015-10-25T11:44:45.945Z</time>
      </trkpt>
      <trkpt lat="45.94601" lon="4.67628">
        <ele>272.5</ele>
        <time>2015-10-25T11:44:46.971Z</time>
      </trkpt>
      <trkpt lat="45.94595" lon="4.67637">
        <ele>272.100006104</ele>
        <time>2015-10-25T11:44:47.943Z</time>
      </trkpt>
      <trkpt lat="45.94589" lon="4.67645">
        <ele>271.700012207</ele>
        <time>2015-10-25T11:44:48.966Z</time>
      </trkpt>
      <trkpt lat="45.94583" lon="4.67655">
        <ele>271.299987793</ele>
        <time>2015-10-25T11:44:49.939Z</time>
      </trkpt>
      <trkpt lat="45.94577" lon="4.67664">
        <ele>270.899993896</ele>
        <time>2015-10-25T11:44:50.967Z</time>
      </trkpt>
      <trkpt lat="45.9457" lon="4.67673">
        <ele>270.600006104</ele>
        <time>2015-10-25T11:44:51.946Z</time>
      </trkpt>
      <trkpt lat="45.94564" lon="4.67681">
        <ele>270.200012207</ele>
        <time>2015-10-25T11:44:52.967Z</time>
      </trkpt>
      <trkpt lat="45.94557" lon="4.67689">
        <ele>269.600006104</ele>
        <time>2015-10-25T11:44:53.944Z</time>
      </trkpt>
      <trkpt lat="45.94549" lon="4.67695">
        <ele>269</ele>
        <time>2015-10-25T11:44:55.079Z</time>
      </trkpt>
      <trkpt lat="45.9454" lon="4.677">
        <ele>268.399993896</ele>
        <time>2015-10-25T11:44:55.94Z</time>
      </trkpt>
      <trkpt lat="45.9454" lon="4.677">
        <ele>268.399993896</ele>
        <time>2015-10-25T11:44:56.008Z</time>
      </trkpt>
      <trkpt lat="45.94531" lon="4.67702">
        <ele>268</ele>
        <time>2015-10-25T11:44:56.944Z</time>
      </trkpt>
      <trkpt lat="45.94531" lon="4.67702">
        <ele>268</ele>
        <time>2015-10-25T11:44:56.981Z</time>
      </trkpt>
      <trkpt lat="45.94521" lon="4.67705">
        <ele>267.5</ele>
        <time>2015-10-25T11:44:57.945Z</time>
      </trkpt>
      <trkpt lat="45.94521" lon="4.67705">
        <ele>267.5</ele>
        <time>2015-10-25T11:44:57.98Z</time>
      </trkpt>
      <trkpt lat="45.94511" lon="4.67709">
        <ele>267.100006104</ele>
        <time>2015-10-25T11:44:58.96Z</time>
      </trkpt>
      <trkpt lat="45.94511" lon="4.67709">
        <ele>267.100006104</ele>
        <time>2015-10-25T11:44:59.012Z</time>
      </trkpt>
      <trkpt lat="45.94502" lon="4.67714">
        <ele>266.399993896</ele>
        <time>2015-10-25T11:44:59.94Z</time>
      </trkpt>
      <trkpt lat="45.94502" lon="4.67714">
        <ele>266.399993896</ele>
        <time>2015-10-25T11:44:59.974Z</time>
      </trkpt>
      <trkpt lat="45.94494" lon="4.67721">
        <ele>265.899993896</ele>
        <time>2015-10-25T11:45:00.94Z</time>
      </trkpt>
      <trkpt lat="45.94487" lon="4.67728">
        <ele>265.200012207</ele>
        <time>2015-10-25T11:45:01.968Z</time>
      </trkpt>
      <trkpt lat="45.94482" lon="4.67738">
        <ele>264.399993896</ele>
        <time>2015-10-25T11:45:02.942Z</time>
      </trkpt>
      <trkpt lat="45.94478" lon="4.67748">
        <ele>263.799987793</ele>
        <time>2015-10-25T11:45:03.973Z</time>
      </trkpt>
      <trkpt lat="45.94476" lon="4.67758">
        <ele>263.5</ele>
        <time>2015-10-25T11:45:04.943Z</time>
      </trkpt>
      <trkpt lat="45.94474" lon="4.67768">
        <ele>263.100006104</ele>
        <time>2015-10-25T11:45:05.969Z</time>
      </trkpt>
      <trkpt lat="45.9447" lon="4.67776">
        <ele>263</ele>
        <time>2015-10-25T11:45:06.943Z</time>
      </trkpt>
      <trkpt lat="45.94465" lon="4.67784">
        <ele>262.899993896</ele>
        <time>2015-10-25T11:45:07.973Z</time>
      </trkpt>
      <trkpt lat="45.9446" lon="4.67791">
        <ele>263</ele>
        <time>2015-10-25T11:45:08.94Z</time>
      </trkpt>
      <trkpt lat="45.94454" lon="4.67798">
        <ele>262.700012207</ele>
        <time>2015-10-25T11:45:10.031Z</time>
      </trkpt>
      <trkpt lat="45.94448" lon="4.67804">
        <ele>262.399993896</ele>
        <time>2015-10-25T11:45:10.943Z</time>
      </trkpt>
      <trkpt lat="45.94442" lon="4.6781">
        <ele>262.100006104</ele>
        <time>2015-10-25T11:45:11.968Z</time>
      </trkpt>
      <trkpt lat="45.94436" lon="4.67817">
        <ele>261.600006104</ele>
        <time>2015-10-25T11:45:12.939Z</time>
      </trkpt>
      <trkpt lat="45.94429" lon="4.67825">
        <ele>261.299987793</ele>
        <time>2015-10-25T11:45:13.97Z</time>
      </trkpt>
      <trkpt lat="45.94424" lon="4.67834">
        <ele>261</ele>
        <time>2015-10-25T11:45:14.942Z</time>
      </trkpt>
      <trkpt lat="45.94424" lon="4.67834">
        <ele>261</ele>
        <time>2015-10-25T11:45:15.023Z</time>
      </trkpt>
      <trkpt lat="45.94418" lon="4.67844">
        <ele>260.299987793</ele>
        <time>2015-10-25T11:45:15.946Z</time>
      </trkpt>
      <trkpt lat="45.94414" lon="4.67855">
        <ele>259.799987793</ele>
        <time>2015-10-25T11:45:16.967Z</time>
      </trkpt>
      <trkpt lat="45.94409" lon="4.67866">
        <ele>259.5</ele>
        <time>2015-10-25T11:45:17.948Z</time>
      </trkpt>
      <trkpt lat="45.94405" lon="4.67876">
        <ele>259.399993896</ele>
        <time>2015-10-25T11:45:18.97Z</time>
      </trkpt>
      <trkpt lat="45.94401" lon="4.67885">
        <ele>259.700012207</ele>
        <time>2015-10-25T11:45:19.942Z</time>
      </trkpt>
      <trkpt lat="45.94397" lon="4.67893">
        <ele>260</ele>
        <time>2015-10-25T11:45:20.97Z</time>
      </trkpt>
      <trkpt lat="45.94393" lon="4.67901">
        <ele>260.100006104</ele>
        <time>2015-10-25T11:45:21.942Z</time>
      </trkpt>
      <trkpt lat="45.9439" lon="4.67909">
        <ele>259.799987793</ele>
        <time>2015-10-25T11:45:23.074Z</time>
      </trkpt>
      <trkpt lat="45.94386" lon="4.67915">
        <ele>259.799987793</ele>
        <time>2015-10-25T11:45:23.947Z</time>
      </trkpt>
      <trkpt lat="45.94384" lon="4.67922">
        <ele>260</ele>
        <time>2015-10-25T11:45:24.968Z</time>
      </trkpt>
      <trkpt lat="45.94381" lon="4.67929">
        <ele>259.899993896</ele>
        <time>2015-10-25T11:45:25.942Z</time>
      </trkpt>
      <trkpt lat="45.9438" lon="4.67935">
        <ele>260</ele>
        <time>2015-10-25T11:45:26.966Z</time>
      </trkpt>
      <trkpt lat="45.94379" lon="4.67942">
        <ele>259.899993896</ele>
        <time>2015-10-25T11:45:27.945Z</time>
      </trkpt>
      <trkpt lat="45.94377" lon="4.67953">
        <ele>260.299987793</ele>
        <time>2015-10-25T11:45:29.969Z</time>
      </trkpt>
      <trkpt lat="45.94375" lon="4.67958">
        <ele>260.5</ele>
        <time>2015-10-25T11:45:30.938Z</time>
      </trkpt>
      <trkpt lat="45.94374" lon="4.67967">
        <ele>260.700012207</ele>
        <time>2015-10-25T11:45:32.966Z</time>
      </trkpt>
      <trkpt lat="45.94374" lon="4.67971">
        <ele>260.899993896</ele>
        <time>2015-10-25T11:45:33.945Z</time>
      </trkpt>
      <trkpt lat="45.94371" lon="4.67982">
        <ele>261.700012207</ele>
        <time>2015-10-25T11:45:37.102Z</time>
      </trkpt>
      <trkpt lat="45.94371" lon="4.67985">
        <ele>262</ele>
        <time>2015-10-25T11:45:37.944Z</time>
      </trkpt>
      <trkpt lat="45.94368" lon="4.67996">
        <ele>262.700012207</ele>
        <time>2015-10-25T11:45:40.965Z</time>
      </trkpt>
      <trkpt lat="45.94367" lon="4.67999">
        <ele>262.600006104</ele>
        <time>2015-10-25T11:45:41.94Z</time>
      </trkpt>
      <trkpt lat="45.94364" lon="4.6801">
        <ele>264.600006104</ele>
        <time>2015-10-25T11:45:45.97Z</time>
      </trkpt>
      <trkpt lat="45.94363" lon="4.68012">
        <ele>265.399993896</ele>
        <time>2015-10-25T11:45:46.945Z</time>
      </trkpt>
      <trkpt lat="45.9436" lon="4.68024">
        <ele>267.200012207</ele>
        <time>2015-10-25T11:45:51.97Z</time>
      </trkpt>
      <trkpt lat="45.9436" lon="4.68026">
        <ele>267.5</ele>
        <time>2015-10-25T11:45:52.938Z</time>
      </trkpt>
      <trkpt lat="45.94356" lon="4.68036">
        <ele>268.700012207</ele>
        <time>2015-10-25T11:45:57.973Z</time>
      </trkpt>
      <trkpt lat="45.94355" lon="4.68038">
        <ele>268.799987793</ele>
        <time>2015-10-25T11:45:58.938Z</time>
      </trkpt>
      <trkpt lat="45.9435" lon="4.68047">
        <ele>269.799987793</ele>
        <time>2015-10-25T11:46:03.973Z</time>
      </trkpt>
      <trkpt lat="45.94349" lon="4.68049">
        <ele>270.100006104</ele>
        <time>2015-10-25T11:46:04.938Z</time>
      </trkpt>
      <trkpt lat="45.94345" lon="4.68059">
        <ele>271.299987793</ele>
        <time>2015-10-25T11:46:09.973Z</time>
      </trkpt>
      <trkpt lat="45.94344" lon="4.68061">
        <ele>271.5</ele>
        <time>2015-10-25T11:46:10.939Z</time>
      </trkpt>
      <trkpt lat="45.9434" lon="4.6807">
        <ele>272.700012207</ele>
        <time>2015-10-25T11:46:16.07Z</time>
      </trkpt>
      <trkpt lat="45.94339" lon="4.68072">
        <ele>273</ele>
        <time>2015-10-25T11:46:16.943Z</time>
      </trkpt>
      <trkpt lat="45.94337" lon="4.68082">
        <ele>274.5</ele>
        <time>2015-10-25T11:46:21.97Z</time>
      </trkpt>
      <trkpt lat="45.94336" lon="4.68084">
        <ele>274.799987793</ele>
        <time>2015-10-25T11:46:22.938Z</time>
      </trkpt>
      <trkpt lat="45.94332" lon="4.68095">
        <ele>276.200012207</ele>
        <time>2015-10-25T11:46:28.965Z</time>
      </trkpt>
      <trkpt lat="45.94332" lon="4.68097">
        <ele>276.5</ele>
        <time>2015-10-25T11:46:29.94Z</time>
      </trkpt>
      <trkpt lat="45.94328" lon="4.68108">
        <ele>278.700012207</ele>
        <time>2015-10-25T11:46:36.986Z</time>
      </trkpt>
      <trkpt lat="45.94328" lon="4.6811">
        <ele>278.899993896</ele>
        <time>2015-10-25T11:46:37.942Z</time>
      </trkpt>
      <trkpt lat="45.94325" lon="4.68121">
        <ele>280.399993896</ele>
        <time>2015-10-25T11:46:43.965Z</time>
      </trkpt>
      <trkpt lat="45.94324" lon="4.68123">
        <ele>280.600006104</ele>
        <time>2015-10-25T11:46:44.938Z</time>
      </trkpt>
      <trkpt lat="45.94323" lon="4.68134">
        <ele>281.399993896</ele>
        <time>2015-10-25T11:46:49.965Z</time>
      </trkpt>
      <trkpt lat="45.94323" lon="4.68136">
        <ele>281.700012207</ele>
        <time>2015-10-25T11:46:50.938Z</time>
      </trkpt>
      <trkpt lat="45.94323" lon="4.68147">
        <ele>282.600006104</ele>
        <time>2015-10-25T11:46:55.969Z</time>
      </trkpt>
      <trkpt lat="45.94323" lon="4.6815">
        <ele>282.700012207</ele>
        <time>2015-10-25T11:46:56.976Z</time>
      </trkpt>
      <trkpt lat="45.94323" lon="4.68161">
        <ele>284</ele>
        <time>2015-10-25T11:47:02.965Z</time>
      </trkpt>
      <trkpt lat="45.94323" lon="4.68163">
        <ele>284.100006104</ele>
        <time>2015-10-25T11:47:03.943Z</time>
      </trkpt>
      <trkpt lat="45.94325" lon="4.68174">
        <ele>284.899993896</ele>
        <time>2015-10-25T11:47:08.971Z</time>
      </trkpt>
      <trkpt lat="45.94326" lon="4.68177">
        <ele>285.100006104</ele>
        <time>2015-10-25T11:47:09.946Z</time>
      </trkpt>
      <trkpt lat="45.94327" lon="4.68188">
        <ele>286.200012207</ele>
        <time>2015-10-25T11:47:14.965Z</time>
      </trkpt>
      <trkpt lat="45.94328" lon="4.6819">
        <ele>286.299987793</ele>
        <time>2015-10-25T11:47:15.955Z</time>
      </trkpt>
      <trkpt lat="45.94329" lon="4.68203">
        <ele>287.100006104</ele>
        <time>2015-10-25T11:47:21.027Z</time>
      </trkpt>
      <trkpt lat="45.94329" lon="4.68205">
        <ele>287.200012207</ele>
        <time>2015-10-25T11:47:21.942Z</time>
      </trkpt>
      <trkpt lat="45.9433" lon="4.68216">
        <ele>287.899993896</ele>
        <time>2015-10-25T11:47:27.011Z</time>
      </trkpt>
      <trkpt lat="45.9433" lon="4.68218">
        <ele>288.100006104</ele>
        <time>2015-10-25T11:47:27.949Z</time>
      </trkpt>
      <trkpt lat="45.94332" lon="4.68228">
        <ele>288.799987793</ele>
        <time>2015-10-25T11:47:32.004Z</time>
      </trkpt>
      <trkpt lat="45.94333" lon="4.68231">
        <ele>289</ele>
        <time>2015-10-25T11:47:32.942Z</time>
      </trkpt>
      <trkpt lat="45.94335" lon="4.68241">
        <ele>289.5</ele>
        <time>2015-10-25T11:47:35.968Z</time>
      </trkpt>
      <trkpt lat="45.94335" lon="4.68244">
        <ele>289.899993896</ele>
        <time>2015-10-25T11:47:36.938Z</time>
      </trkpt>
      <trkpt lat="45.94335" lon="4.68254">
        <ele>289.899993896</ele>
        <time>2015-10-25T11:47:39.97Z</time>
      </trkpt>
      <trkpt lat="45.94335" lon="4.68257">
        <ele>289.899993896</ele>
        <time>2015-10-25T11:47:40.98Z</time>
      </trkpt>
      <trkpt lat="45.94336" lon="4.68269">
        <ele>289.899993896</ele>
        <time>2015-10-25T11:47:44.972Z</time>
      </trkpt>
      <trkpt lat="45.94336" lon="4.68272">
        <ele>290.100006104</ele>
        <time>2015-10-25T11:47:45.946Z</time>
      </trkpt>
      <trkpt lat="45.94336" lon="4.68284">
        <ele>289.899993896</ele>
        <time>2015-10-25T11:47:50.002Z</time>
      </trkpt>
      <trkpt lat="45.94336" lon="4.68287">
        <ele>290.100006104</ele>
        <time>2015-10-25T11:47:50.938Z</time>
      </trkpt>
      <trkpt lat="45.94337" lon="4.68299">
        <ele>291.100006104</ele>
        <time>2015-10-25T11:47:54.965Z</time>
      </trkpt>
      <trkpt lat="45.94338" lon="4.68302">
        <ele>291</ele>
        <time>2015-10-25T11:47:55.938Z</time>
      </trkpt>
      <trkpt lat="45.94339" lon="4.68313">
        <ele>291.399993896</ele>
        <time>2015-10-25T11:47:59.969Z</time>
      </trkpt>
      <trkpt lat="45.94339" lon="4.68316">
        <ele>291.5</ele>
        <time>2015-10-25T11:48:00.939Z</time>
      </trkpt>
      <trkpt lat="45.94339" lon="4.68327">
        <ele>292</ele>
        <time>2015-10-25T11:48:04.969Z</time>
      </trkpt>
      <trkpt lat="45.9434" lon="4.6833">
        <ele>292</ele>
        <time>2015-10-25T11:48:05.982Z</time>
      </trkpt>
      <trkpt lat="45.94342" lon="4.68342">
        <ele>292.200012207</ele>
        <time>2015-10-25T11:48:10.072Z</time>
      </trkpt>
      <trkpt lat="45.94342" lon="4.68345">
        <ele>292.600006104</ele>
        <time>2015-10-25T11:48:10.974Z</time>
      </trkpt>
      <trkpt lat="45.94343" lon="4.68355">
        <ele>293.5</ele>
        <time>2015-10-25T11:48:13.992Z</time>
      </trkpt>
      <trkpt lat="45.94343" lon="4.68358">
        <ele>293.600006104</ele>
        <time>2015-10-25T11:48:14.938Z</time>
      </trkpt>
      <trkpt lat="45.94346" lon="4.68369">
        <ele>294.600006104</ele>
        <time>2015-10-25T11:48:18.982Z</time>
      </trkpt>
      <trkpt lat="45.94347" lon="4.68372">
        <ele>294.799987793</ele>
        <time>2015-10-25T11:48:19.941Z</time>
      </trkpt>
      <trkpt lat="45.9435" lon="4.68381">
        <ele>295.600006104</ele>
        <time>2015-10-25T11:48:22.986Z</time>
      </trkpt>
      <trkpt lat="45.94351" lon="4.68384">
        <ele>295.700012207</ele>
        <time>2015-10-25T11:48:23.959Z</time>
      </trkpt>
      <trkpt lat="45.94353" lon="4.68393">
        <ele>296.299987793</ele>
        <time>2015-10-25T11:48:26.966Z</time>
      </trkpt>
      <trkpt lat="45.94354" lon="4.68397">
        <ele>296.5</ele>
        <time>2015-10-25T11:48:28.001Z</time>
      </trkpt>
      <trkpt lat="45.94356" lon="4.68406">
        <ele>296.899993896</ele>
        <time>2015-10-25T11:48:30.965Z</time>
      </trkpt>
      <trkpt lat="45.94357" lon="4.68409">
        <ele>296.700012207</ele>
        <time>2015-10-25T11:48:31.939Z</time>
      </trkpt>
      <trkpt lat="45.9436" lon="4.68418">
        <ele>297.399993896</ele>
        <time>2015-10-25T11:48:34.965Z</time>
      </trkpt>
      <trkpt lat="45.94361" lon="4.68421">
        <ele>297.899993896</ele>
        <time>2015-10-25T11:48:35.942Z</time>
      </trkpt>
      <trkpt lat="45.94366" lon="4.68432">
        <ele>298.399993896</ele>
        <time>2015-10-25T11:48:39.969Z</time>
      </trkpt>
      <trkpt lat="45.94366" lon="4.68435">
        <ele>298.5</ele>
        <time>2015-10-25T11:48:40.938Z</time>
      </trkpt>
      <trkpt lat="45.94368" lon="4.68446">
        <ele>298.5</ele>
        <time>2015-10-25T11:48:44.996Z</time>
      </trkpt>
      <trkpt lat="45.94369" lon="4.68449">
        <ele>298.799987793</ele>
        <time>2015-10-25T11:48:45.942Z</time>
      </trkpt>
      <trkpt lat="45.9437" lon="4.68459">
        <ele>299</ele>
        <time>2015-10-25T11:48:48.965Z</time>
      </trkpt>
      <trkpt lat="45.94371" lon="4.68462">
        <ele>298.799987793</ele>
        <time>2015-10-25T11:48:49.941Z</time>
      </trkpt>
      <trkpt lat="45.94372" lon="4.68474">
        <ele>299.600006104</ele>
        <time>2015-10-25T11:48:53.968Z</time>
      </trkpt>
      <trkpt lat="45.94373" lon="4.68477">
        <ele>299.100006104</ele>
        <time>2015-10-25T11:48:54.938Z</time>
      </trkpt>
      <trkpt lat="45.94375" lon="4.68488">
        <ele>298.600006104</ele>
        <time>2015-10-25T11:48:58.966Z</time>
      </trkpt>
      <trkpt lat="45.94375" lon="4.68491">
        <ele>298.5</ele>
        <time>2015-10-25T11:48:59.94Z</time>
      </trkpt>
      <trkpt lat="45.94377" lon="4.68503">
        <ele>299.200012207</ele>
        <time>2015-10-25T11:49:03.969Z</time>
      </trkpt>
      <trkpt lat="45.94377" lon="4.68506">
        <ele>299.399993896</ele>
        <time>2015-10-25T11:49:04.941Z</time>
      </trkpt>
      <trkpt lat="45.9438" lon="4.68516">
        <ele>299.600006104</ele>
        <time>2015-10-25T11:49:08.982Z</time>
      </trkpt>
      <trkpt lat="45.94381" lon="4.68519">
        <ele>299.700012207</ele>
        <time>2015-10-25T11:49:09.945Z</time>
      </trkpt>
      <trkpt lat="45.94386" lon="4.68529">
        <ele>300.100006104</ele>
        <time>2015-10-25T11:49:13.966Z</time>
      </trkpt>
      <trkpt lat="45.94388" lon="4.68532">
        <ele>300.200012207</ele>
        <time>2015-10-25T11:49:14.938Z</time>
      </trkpt>
      <trkpt lat="45.94392" lon="4.68542">
        <ele>301</ele>
        <time>2015-10-25T11:49:19.998Z</time>
      </trkpt>
      <trkpt lat="45.94393" lon="4.68545">
        <ele>301.100006104</ele>
        <time>2015-10-25T11:49:20.939Z</time>
      </trkpt>
      <trkpt lat="45.94397" lon="4.68554">
        <ele>301.5</ele>
        <time>2015-10-25T11:49:24.965Z</time>
      </trkpt>
      <trkpt lat="45.94398" lon="4.68556">
        <ele>301.600006104</ele>
        <time>2015-10-25T11:49:25.941Z</time>
      </trkpt>
      <trkpt lat="45.94402" lon="4.68566">
        <ele>302.700012207</ele>
        <time>2015-10-25T11:49:31.004Z</time>
      </trkpt>
      <trkpt lat="45.94403" lon="4.68568">
        <ele>302.899993896</ele>
        <time>2015-10-25T11:49:31.938Z</time>
      </trkpt>
      <trkpt lat="45.94407" lon="4.68579">
        <ele>303.700012207</ele>
        <time>2015-10-25T11:49:37.016Z</time>
      </trkpt>
      <trkpt lat="45.94408" lon="4.68581">
        <ele>303.899993896</ele>
        <time>2015-10-25T11:49:37.963Z</time>
      </trkpt>
      <trkpt lat="45.94412" lon="4.68593">
        <ele>305.200012207</ele>
        <time>2015-10-25T11:49:42.975Z</time>
      </trkpt>
      <trkpt lat="45.94413" lon="4.68595">
        <ele>305.5</ele>
        <time>2015-10-25T11:49:43.941Z</time>
      </trkpt>
      <trkpt lat="45.94416" lon="4.68605">
        <ele>306.700012207</ele>
        <time>2015-10-25T11:49:48.97Z</time>
      </trkpt>
      <trkpt lat="45.94417" lon="4.68608">
        <ele>306.799987793</ele>
        <time>2015-10-25T11:49:49.944Z</time>
      </trkpt>
      <trkpt lat="45.9442" lon="4.68618">
        <ele>307.399993896</ele>
        <time>2015-10-25T11:49:55.094Z</time>
      </trkpt>
      <trkpt lat="45.9442" lon="4.6862">
        <ele>307.600006104</ele>
        <time>2015-10-25T11:49:55.959Z</time>
      </trkpt>
      <trkpt lat="45.94424" lon="4.6863">
        <ele>308.700012207</ele>
        <time>2015-10-25T11:50:00.965Z</time>
      </trkpt>
      <trkpt lat="45.94425" lon="4.68632">
        <ele>308.799987793</ele>
        <time>2015-10-25T11:50:01.937Z</time>
      </trkpt>
      <trkpt lat="45.94429" lon="4.68643">
        <ele>309.700012207</ele>
        <time>2015-10-25T11:50:06.964Z</time>
      </trkpt>
      <trkpt lat="45.94429" lon="4.68645">
        <ele>309.799987793</ele>
        <time>2015-10-25T11:50:07.962Z</time>
      </trkpt>
      <trkpt lat="45.94432" lon="4.68656">
        <ele>310.700012207</ele>
        <time>2015-10-25T11:50:12.968Z</time>
      </trkpt>
      <trkpt lat="45.94433" lon="4.68658">
        <ele>310.799987793</ele>
        <time>2015-10-25T11:50:13.941Z</time>
      </trkpt>
      <trkpt lat="45.94436" lon="4.68668">
        <ele>311.799987793</ele>
        <time>2015-10-25T11:50:18.964Z</time>
      </trkpt>
      <trkpt lat="45.94437" lon="4.6867">
        <ele>311.899993896</ele>
        <time>2015-10-25T11:50:19.943Z</time>
      </trkpt>
      <trkpt lat="45.9444" lon="4.6868">
        <ele>313</ele>
        <time>2015-10-25T11:50:24.965Z</time>
      </trkpt>
      <trkpt lat="45.9444" lon="4.68682">
        <ele>313.299987793</ele>
        <time>2015-10-25T11:50:25.938Z</time>
      </trkpt>
      <trkpt lat="45.94443" lon="4.68693">
        <ele>314.5</ele>
        <time>2015-10-25T11:50:30.968Z</time>
      </trkpt>
      <trkpt lat="45.94444" lon="4.68694">
        <ele>314.700012207</ele>
        <time>2015-10-25T11:50:31.937Z</time>
      </trkpt>
      <trkpt lat="45.9445" lon="4.68703">
        <ele>315.600006104</ele>
        <time>2015-10-25T11:50:36.969Z</time>
      </trkpt>
      <trkpt lat="45.94451" lon="4.68704">
        <ele>315.799987793</ele>
        <time>2015-10-25T11:50:37.992Z</time>
      </trkpt>
      <trkpt lat="45.94458" lon="4.68708">
        <ele>316.600006104</ele>
        <time>2015-10-25T11:50:41.969Z</time>
      </trkpt>
      <trkpt lat="45.9446" lon="4.68709">
        <ele>316.700012207</ele>
        <time>2015-10-25T11:50:43.004Z</time>
      </trkpt>
      <trkpt lat="45.94467" lon="4.68715">
        <ele>317.399993896</ele>
        <time>2015-10-25T11:50:46.971Z</time>
      </trkpt>
      <trkpt lat="45.94469" lon="4.68715">
        <ele>317.700012207</ele>
        <time>2015-10-25T11:50:47.957Z</time>
      </trkpt>
      <trkpt lat="45.94476" lon="4.68718">
        <ele>318.200012207</ele>
        <time>2015-10-25T11:50:51.969Z</time>
      </trkpt>
      <trkpt lat="45.94478" lon="4.68719">
        <ele>318.299987793</ele>
        <time>2015-10-25T11:50:52.938Z</time>
      </trkpt>
      <trkpt lat="45.94485" lon="4.68727">
        <ele>318.5</ele>
        <time>2015-10-25T11:50:57.994Z</time>
      </trkpt>
      <trkpt lat="45.94486" lon="4.68729">
        <ele>318.600006104</ele>
        <time>2015-10-25T11:50:58.938Z</time>
      </trkpt>
      <trkpt lat="45.94487" lon="4.68741">
        <ele>318.600006104</ele>
        <time>2015-10-25T11:51:03.969Z</time>
      </trkpt>
      <trkpt lat="45.94487" lon="4.68744">
        <ele>318.799987793</ele>
        <time>2015-10-25T11:51:04.942Z</time>
      </trkpt>
      <trkpt lat="45.94484" lon="4.68754">
        <ele>319.299987793</ele>
        <time>2015-10-25T11:51:08.967Z</time>
      </trkpt>
      <trkpt lat="45.94483" lon="4.68757">
        <ele>319.5</ele>
        <time>2015-10-25T11:51:09.946Z</time>
      </trkpt>
      <trkpt lat="45.94481" lon="4.68767">
        <ele>320.700012207</ele>
        <time>2015-10-25T11:51:13.982Z</time>
      </trkpt>
      <trkpt lat="45.94481" lon="4.68769">
        <ele>321</ele>
        <time>2015-10-25T11:51:14.941Z</time>
      </trkpt>
      <trkpt lat="45.94478" lon="4.68781">
        <ele>321.399993896</ele>
        <time>2015-10-25T11:51:18.974Z</time>
      </trkpt>
      <trkpt lat="45.94477" lon="4.68783">
        <ele>321.5</ele>
        <time>2015-10-25T11:51:19.937Z</time>
      </trkpt>
      <trkpt lat="45.94475" lon="4.68794">
        <ele>322.5</ele>
        <time>2015-10-25T11:51:25Z</time>
      </trkpt>
      <trkpt lat="45.94474" lon="4.68797">
        <ele>322.600006104</ele>
        <time>2015-10-25T11:51:25.941Z</time>
      </trkpt>
      <trkpt lat="45.94472" lon="4.68809">
        <ele>323.5</ele>
        <time>2015-10-25T11:51:30.968Z</time>
      </trkpt>
      <trkpt lat="45.94471" lon="4.68811">
        <ele>323.799987793</ele>
        <time>2015-10-25T11:51:31.937Z</time>
      </trkpt>
      <trkpt lat="45.94469" lon="4.68821">
        <ele>324.799987793</ele>
        <time>2015-10-25T11:51:35.975Z</time>
      </trkpt>
      <trkpt lat="45.94468" lon="4.68824">
        <ele>325.200012207</ele>
        <time>2015-10-25T11:51:36.941Z</time>
      </trkpt>
      <trkpt lat="45.94465" lon="4.68835">
        <ele>326.299987793</ele>
        <time>2015-10-25T11:51:41.981Z</time>
      </trkpt>
      <trkpt lat="45.94465" lon="4.68838">
        <ele>326.600006104</ele>
        <time>2015-10-25T11:51:42.941Z</time>
      </trkpt>
      <trkpt lat="45.94462" lon="4.6885">
        <ele>327.799987793</ele>
        <time>2015-10-25T11:51:47.991Z</time>
      </trkpt>
      <trkpt lat="45.94462" lon="4.68852">
        <ele>328</ele>
        <time>2015-10-25T11:51:48.941Z</time>
      </trkpt>
      <trkpt lat="45.94459" lon="4.68863">
        <ele>328.700012207</ele>
        <time>2015-10-25T11:51:53.969Z</time>
      </trkpt>
      <trkpt lat="45.94459" lon="4.68865">
        <ele>329</ele>
        <time>2015-10-25T11:51:54.96Z</time>
      </trkpt>
      <trkpt lat="45.94457" lon="4.68876">
        <ele>330.299987793</ele>
        <time>2015-10-25T11:51:59.971Z</time>
      </trkpt>
      <trkpt lat="45.94457" lon="4.68878">
        <ele>330.5</ele>
        <time>2015-10-25T11:52:00.956Z</time>
      </trkpt>
      <trkpt lat="45.94453" lon="4.68888">
        <ele>331.200012207</ele>
        <time>2015-10-25T11:52:05.969Z</time>
      </trkpt>
      <trkpt lat="45.94453" lon="4.68891">
        <ele>331.299987793</ele>
        <time>2015-10-25T11:52:06.94Z</time>
      </trkpt>
      <trkpt lat="45.94451" lon="4.68902">
        <ele>331.700012207</ele>
        <time>2015-10-25T11:52:11.976Z</time>
      </trkpt>
      <trkpt lat="45.9445" lon="4.68904">
        <ele>331.799987793</ele>
        <time>2015-10-25T11:52:12.941Z</time>
      </trkpt>
      <trkpt lat="45.94448" lon="4.68914">
        <ele>332.5</ele>
        <time>2015-10-25T11:52:17.984Z</time>
      </trkpt>
      <trkpt lat="45.94448" lon="4.68917">
        <ele>332.700012207</ele>
        <time>2015-10-25T11:52:18.937Z</time>
      </trkpt>
      <trkpt lat="45.94446" lon="4.68928">
        <ele>333.399993896</ele>
        <time>2015-10-25T11:52:23.969Z</time>
      </trkpt>
      <trkpt lat="45.94445" lon="4.6893">
        <ele>333.600006104</ele>
        <time>2015-10-25T11:52:24.94Z</time>
      </trkpt>
      <trkpt lat="45.94442" lon="4.6894">
        <ele>334.600006104</ele>
        <time>2015-10-25T11:52:29.973Z</time>
      </trkpt>
      <trkpt lat="45.94442" lon="4.68943">
        <ele>334.600006104</ele>
        <time>2015-10-25T11:52:30.938Z</time>
      </trkpt>
      <trkpt lat="45.94438" lon="4.68954">
        <ele>335.5</ele>
        <time>2015-10-25T11:52:35.968Z</time>
      </trkpt>
      <trkpt lat="45.94436" lon="4.68956">
        <ele>335.399993896</ele>
        <time>2015-10-25T11:52:36.94Z</time>
      </trkpt>
      <trkpt lat="45.94434" lon="4.68967">
        <ele>336.100006104</ele>
        <time>2015-10-25T11:52:41.966Z</time>
      </trkpt>
      <trkpt lat="45.94433" lon="4.6897">
        <ele>336.299987793</ele>
        <time>2015-10-25T11:52:42.941Z</time>
      </trkpt>
      <trkpt lat="45.9443" lon="4.6898">
        <ele>336.899993896</ele>
        <time>2015-10-25T11:52:46.97Z</time>
      </trkpt>
      <trkpt lat="45.94429" lon="4.68982">
        <ele>337</ele>
        <time>2015-10-25T11:52:47.967Z</time>
      </trkpt>
      <trkpt lat="45.94427" lon="4.68993">
        <ele>338.5</ele>
        <time>2015-10-25T11:52:51.972Z</time>
      </trkpt>
      <trkpt lat="45.94426" lon="4.68995">
        <ele>338.700012207</ele>
        <time>2015-10-25T11:52:52.932Z</time>
      </trkpt>
      <trkpt lat="45.94423" lon="4.69006">
        <ele>339.600006104</ele>
        <time>2015-10-25T11:52:57.074Z</time>
      </trkpt>
      <trkpt lat="45.94422" lon="4.6901">
        <ele>339.600006104</ele>
        <time>2015-10-25T11:52:57.943Z</time>
      </trkpt>
      <trkpt lat="45.94419" lon="4.69021">
        <ele>339.899993896</ele>
        <time>2015-10-25T11:53:00.967Z</time>
      </trkpt>
      <trkpt lat="45.9442" lon="4.69025">
        <ele>339.700012207</ele>
        <time>2015-10-25T11:53:01.957Z</time>
      </trkpt>
      <trkpt lat="45.9442" lon="4.69034">
        <ele>339.399993896</ele>
        <time>2015-10-25T11:53:03.97Z</time>
      </trkpt>
      <trkpt lat="45.9442" lon="4.69038">
        <ele>339</ele>
        <time>2015-10-25T11:53:04.936Z</time>
      </trkpt>
      <trkpt lat="45.94422" lon="4.69048">
        <ele>339.100006104</ele>
        <time>2015-10-25T11:53:06.964Z</time>
      </trkpt>
      <trkpt lat="45.94423" lon="4.69053">
        <ele>339</ele>
        <time>2015-10-25T11:53:07.941Z</time>
      </trkpt>
      <trkpt lat="45.94424" lon="4.69064">
        <ele>338.899993896</ele>
        <time>2015-10-25T11:53:10.009Z</time>
      </trkpt>
      <trkpt lat="45.94425" lon="4.69069">
        <ele>338.700012207</ele>
        <time>2015-10-25T11:53:10.937Z</time>
      </trkpt>
      <trkpt lat="45.94427" lon="4.69081">
        <ele>338.399993896</ele>
        <time>2015-10-25T11:53:13Z</time>
      </trkpt>
      <trkpt lat="45.94428" lon="4.69087">
        <ele>338.200012207</ele>
        <time>2015-10-25T11:53:13.937Z</time>
      </trkpt>
      <trkpt lat="45.9443" lon="4.69098">
        <ele>337.5</ele>
        <time>2015-10-25T11:53:15.969Z</time>
      </trkpt>
      <trkpt lat="45.94431" lon="4.69105">
        <ele>336.899993896</ele>
        <time>2015-10-25T11:53:16.938Z</time>
      </trkpt>
      <trkpt lat="45.94432" lon="4.69111">
        <ele>336.700012207</ele>
        <time>2015-10-25T11:53:17.966Z</time>
      </trkpt>
      <trkpt lat="45.94433" lon="4.69118">
        <ele>336</ele>
        <time>2015-10-25T11:53:18.937Z</time>
      </trkpt>
      <trkpt lat="45.94434" lon="4.69126">
        <ele>335.5</ele>
        <time>2015-10-25T11:53:19.965Z</time>
      </trkpt>
      <trkpt lat="45.94434" lon="4.69133">
        <ele>334.899993896</ele>
        <time>2015-10-25T11:53:20.937Z</time>
      </trkpt>
      <trkpt lat="45.94435" lon="4.69141">
        <ele>334.5</ele>
        <time>2015-10-25T11:53:21.975Z</time>
      </trkpt>
      <trkpt lat="45.94436" lon="4.6915">
        <ele>334</ele>
        <time>2015-10-25T11:53:22.938Z</time>
      </trkpt>
      <trkpt lat="45.94437" lon="4.69159">
        <ele>333.600006104</ele>
        <time>2015-10-25T11:53:24.054Z</time>
      </trkpt>
      <trkpt lat="45.94437" lon="4.69168">
        <ele>333.200012207</ele>
        <time>2015-10-25T11:53:24.941Z</time>
      </trkpt>
      <trkpt lat="45.94438" lon="4.69178">
        <ele>332.799987793</ele>
        <time>2015-10-25T11:53:26.034Z</time>
      </trkpt>
      <trkpt lat="45.94439" lon="4.69187">
        <ele>332</ele>
        <time>2015-10-25T11:53:26.937Z</time>
      </trkpt>
      <trkpt lat="45.9444" lon="4.69197">
        <ele>331.100006104</ele>
        <time>2015-10-25T11:53:28.047Z</time>
      </trkpt>
      <trkpt lat="45.94441" lon="4.69207">
        <ele>330.299987793</ele>
        <time>2015-10-25T11:53:28.937Z</time>
      </trkpt>
      <trkpt lat="45.94442" lon="4.69217">
        <ele>329.799987793</ele>
        <time>2015-10-25T11:53:29.965Z</time>
      </trkpt>
      <trkpt lat="45.94442" lon="4.69226">
        <ele>329.200012207</ele>
        <time>2015-10-25T11:53:30.937Z</time>
      </trkpt>
      <trkpt lat="45.94443" lon="4.69236">
        <ele>328.700012207</ele>
        <time>2015-10-25T11:53:31.964Z</time>
      </trkpt>
      <trkpt lat="45.94442" lon="4.69245">
        <ele>328</ele>
        <time>2015-10-25T11:53:32.937Z</time>
      </trkpt>
      <trkpt lat="45.94442" lon="4.69255">
        <ele>327.399993896</ele>
        <time>2015-10-25T11:53:34.084Z</time>
      </trkpt>
      <trkpt lat="45.94441" lon="4.69265">
        <ele>326.700012207</ele>
        <time>2015-10-25T11:53:34.937Z</time>
      </trkpt>
      <trkpt lat="45.9444" lon="4.69274">
        <ele>325.799987793</ele>
        <time>2015-10-25T11:53:35.966Z</time>
      </trkpt>
      <trkpt lat="45.94439" lon="4.69283">
        <ele>324.899993896</ele>
        <time>2015-10-25T11:53:36.937Z</time>
      </trkpt>
      <trkpt lat="45.94438" lon="4.69293">
        <ele>324.700012207</ele>
        <time>2015-10-25T11:53:37.965Z</time>
      </trkpt>
      <trkpt lat="45.94437" lon="4.69301">
        <ele>324.200012207</ele>
        <time>2015-10-25T11:53:38.941Z</time>
      </trkpt>
      <trkpt lat="45.94436" lon="4.6931">
        <ele>323.799987793</ele>
        <time>2015-10-25T11:53:39.972Z</time>
      </trkpt>
      <trkpt lat="45.94436" lon="4.69318">
        <ele>323</ele>
        <time>2015-10-25T11:53:40.96Z</time>
      </trkpt>
      <trkpt lat="45.94436" lon="4.69329">
        <ele>321.799987793</ele>
        <time>2015-10-25T11:53:42.968Z</time>
      </trkpt>
      <trkpt lat="45.94435" lon="4.69334">
        <ele>321.200012207</ele>
        <time>2015-10-25T11:53:44.064Z</time>
      </trkpt>
      <trkpt lat="45.94433" lon="4.69342">
        <ele>320.399993896</ele>
        <time>2015-10-25T11:53:45.974Z</time>
      </trkpt>
      <trkpt lat="45.94429" lon="4.69345">
        <ele>319.5</ele>
        <time>2015-10-25T11:53:46.944Z</time>
      </trkpt>
      <trkpt lat="45.94424" lon="4.69347">
        <ele>319</ele>
        <time>2015-10-25T11:53:47.986Z</time>
      </trkpt>
      <trkpt lat="45.94419" lon="4.69349">
        <ele>318.200012207</ele>
        <time>2015-10-25T11:53:48.97Z</time>
      </trkpt>
      <trkpt lat="45.94412" lon="4.69353">
        <ele>317.600006104</ele>
        <time>2015-10-25T11:53:49.965Z</time>
      </trkpt>
      <trkpt lat="45.94405" lon="4.69358">
        <ele>316.799987793</ele>
        <time>2015-10-25T11:53:50.941Z</time>
      </trkpt>
      <trkpt lat="45.94398" lon="4.69364">
        <ele>315.799987793</ele>
        <time>2015-10-25T11:53:51.973Z</time>
      </trkpt>
      <trkpt lat="45.9439" lon="4.6937">
        <ele>314.899993896</ele>
        <time>2015-10-25T11:53:52.936Z</time>
      </trkpt>
      <trkpt lat="45.9439" lon="4.6937">
        <ele>314.899993896</ele>
        <time>2015-10-25T11:53:53.002Z</time>
      </trkpt>
      <trkpt lat="45.94381" lon="4.69376">
        <ele>314.100006104</ele>
        <time>2015-10-25T11:53:53.941Z</time>
      </trkpt>
      <trkpt lat="45.94381" lon="4.69376">
        <ele>314.100006104</ele>
        <time>2015-10-25T11:53:53.974Z</time>
      </trkpt>
      <trkpt lat="45.94372" lon="4.6938">
        <ele>313.299987793</ele>
        <time>2015-10-25T11:53:54.937Z</time>
      </trkpt>
      <trkpt lat="45.94372" lon="4.6938">
        <ele>313.299987793</ele>
        <time>2015-10-25T11:53:55.001Z</time>
      </trkpt>
      <trkpt lat="45.94362" lon="4.69381">
        <ele>312</ele>
        <time>2015-10-25T11:53:55.941Z</time>
      </trkpt>
      <trkpt lat="45.94362" lon="4.69381">
        <ele>312</ele>
        <time>2015-10-25T11:53:55.974Z</time>
      </trkpt>
      <trkpt lat="45.94352" lon="4.6938">
        <ele>311.200012207</ele>
        <time>2015-10-25T11:53:56.937Z</time>
      </trkpt>
      <trkpt lat="45.94352" lon="4.6938">
        <ele>311.200012207</ele>
        <time>2015-10-25T11:53:56.97Z</time>
      </trkpt>
      <trkpt lat="45.94342" lon="4.69379">
        <ele>310.5</ele>
        <time>2015-10-25T11:53:57.945Z</time>
      </trkpt>
      <trkpt lat="45.94342" lon="4.69379">
        <ele>310.5</ele>
        <time>2015-10-25T11:53:57.978Z</time>
      </trkpt>
      <trkpt lat="45.94332" lon="4.69379">
        <ele>310</ele>
        <time>2015-10-25T11:53:58.94Z</time>
      </trkpt>
      <trkpt lat="45.94332" lon="4.69379">
        <ele>310</ele>
        <time>2015-10-25T11:53:58.973Z</time>
      </trkpt>
      <trkpt lat="45.94322" lon="4.69379">
        <ele>309.399993896</ele>
        <time>2015-10-25T11:53:59.959Z</time>
      </trkpt>
      <trkpt lat="45.94322" lon="4.69379">
        <ele>309.399993896</ele>
        <time>2015-10-25T11:54:00.169Z</time>
      </trkpt>
      <trkpt lat="45.94312" lon="4.69379">
        <ele>309.299987793</ele>
        <time>2015-10-25T11:54:00.937Z</time>
      </trkpt>
      <trkpt lat="45.94312" lon="4.69379">
        <ele>309.299987793</ele>
        <time>2015-10-25T11:54:01.007Z</time>
      </trkpt>
      <trkpt lat="45.94303" lon="4.69381">
        <ele>308.799987793</ele>
        <time>2015-10-25T11:54:01.941Z</time>
      </trkpt>
      <trkpt lat="45.94303" lon="4.69381">
        <ele>308.799987793</ele>
        <time>2015-10-25T11:54:01.973Z</time>
      </trkpt>
      <trkpt lat="45.94294" lon="4.69385">
        <ele>308.5</ele>
        <time>2015-10-25T11:54:02.931Z</time>
      </trkpt>
      <trkpt lat="45.94294" lon="4.69385">
        <ele>308.5</ele>
        <time>2015-10-25T11:54:03.19Z</time>
      </trkpt>
      <trkpt lat="45.94285" lon="4.6939">
        <ele>308.399993896</ele>
        <time>2015-10-25T11:54:03.942Z</time>
      </trkpt>
      <trkpt lat="45.94278" lon="4.69396">
        <ele>308.700012207</ele>
        <time>2015-10-25T11:54:04.964Z</time>
      </trkpt>
      <trkpt lat="45.94272" lon="4.69402">
        <ele>308.799987793</ele>
        <time>2015-10-25T11:54:05.941Z</time>
      </trkpt>
      <trkpt lat="45.94265" lon="4.69407">
        <ele>309.100006104</ele>
        <time>2015-10-25T11:54:06.965Z</time>
      </trkpt>
      <trkpt lat="45.94259" lon="4.69412">
        <ele>309.200012207</ele>
        <time>2015-10-25T11:54:07.94Z</time>
      </trkpt>
      <trkpt lat="45.94254" lon="4.69416">
        <ele>309.299987793</ele>
        <time>2015-10-25T11:54:08.968Z</time>
      </trkpt>
      <trkpt lat="45.94249" lon="4.6942">
        <ele>309.299987793</ele>
        <time>2015-10-25T11:54:09.945Z</time>
      </trkpt>
      <trkpt lat="45.94244" lon="4.69424">
        <ele>309.399993896</ele>
        <time>2015-10-25T11:54:11.014Z</time>
      </trkpt>
      <trkpt lat="45.9424" lon="4.69427">
        <ele>309.299987793</ele>
        <time>2015-10-25T11:54:11.941Z</time>
      </trkpt>
      <trkpt lat="45.94234" lon="4.69432">
        <ele>309.200012207</ele>
        <time>2015-10-25T11:54:13.97Z</time>
      </trkpt>
      <trkpt lat="45.94231" lon="4.69433">
        <ele>309.200012207</ele>
        <time>2015-10-25T11:54:14.938Z</time>
      </trkpt>
      <trkpt lat="45.94224" lon="4.69438">
        <ele>309.899993896</ele>
        <time>2015-10-25T11:54:17.969Z</time>
      </trkpt>
      <trkpt lat="45.94222" lon="4.6944">
        <ele>310.200012207</ele>
        <time>2015-10-25T11:54:18.937Z</time>
      </trkpt>
      <trkpt lat="45.94214" lon="4.69445">
        <ele>310.5</ele>
        <time>2015-10-25T11:54:21.969Z</time>
      </trkpt>
      <trkpt lat="45.94212" lon="4.69447">
        <ele>310.600006104</ele>
        <time>2015-10-25T11:54:22.94Z</time>
      </trkpt>
      <trkpt lat="45.94205" lon="4.69452">
        <ele>311.100006104</ele>
        <time>2015-10-25T11:54:25.967Z</time>
      </trkpt>
      <trkpt lat="45.94202" lon="4.69453">
        <ele>311.399993896</ele>
        <time>2015-10-25T11:54:26.937Z</time>
      </trkpt>
      <trkpt lat="45.94195" lon="4.69459">
        <ele>312.200012207</ele>
        <time>2015-10-25T11:54:29.968Z</time>
      </trkpt>
      <trkpt lat="45.94193" lon="4.69461">
        <ele>313.399993896</ele>
        <time>2015-10-25T11:54:30.94Z</time>
      </trkpt>
      <trkpt lat="45.94189" lon="4.69467">
        <ele>314</ele>
        <time>2015-10-25T11:54:32.968Z</time>
      </trkpt>
      <trkpt lat="45.94187" lon="4.69473">
        <ele>313.700012207</ele>
        <time>2015-10-25T11:54:33.944Z</time>
      </trkpt>
      <trkpt lat="45.94186" lon="4.6948">
        <ele>313.5</ele>
        <time>2015-10-25T11:54:34.975Z</time>
      </trkpt>
      <trkpt lat="45.94186" lon="4.69488">
        <ele>313</ele>
        <time>2015-10-25T11:54:35.939Z</time>
      </trkpt>
      <trkpt lat="45.94185" lon="4.69497">
        <ele>312.799987793</ele>
        <time>2015-10-25T11:54:36.978Z</time>
      </trkpt>
      <trkpt lat="45.94184" lon="4.69506">
        <ele>312.600006104</ele>
        <time>2015-10-25T11:54:37.94Z</time>
      </trkpt>
      <trkpt lat="45.94184" lon="4.69517">
        <ele>312.200012207</ele>
        <time>2015-10-25T11:54:38.963Z</time>
      </trkpt>
      <trkpt lat="45.94183" lon="4.69527">
        <ele>311.700012207</ele>
        <time>2015-10-25T11:54:40.05Z</time>
      </trkpt>
      <trkpt lat="45.94182" lon="4.69538">
        <ele>311.399993896</ele>
        <time>2015-10-25T11:54:40.967Z</time>
      </trkpt>
      <trkpt lat="45.9418" lon="4.69549">
        <ele>310.700012207</ele>
        <time>2015-10-25T11:54:41.938Z</time>
      </trkpt>
      <trkpt lat="45.94178" lon="4.69561">
        <ele>310.100006104</ele>
        <time>2015-10-25T11:54:42.967Z</time>
      </trkpt>
      <trkpt lat="45.94177" lon="4.69573">
        <ele>309.299987793</ele>
        <time>2015-10-25T11:54:43.94Z</time>
      </trkpt>
      <trkpt lat="45.94175" lon="4.69585">
        <ele>307.799987793</ele>
        <time>2015-10-25T11:54:44.964Z</time>
      </trkpt>
      <trkpt lat="45.94174" lon="4.69598">
        <ele>306.600006104</ele>
        <time>2015-10-25T11:54:45.941Z</time>
      </trkpt>
      <trkpt lat="45.94174" lon="4.69598">
        <ele>306.600006104</ele>
        <time>2015-10-25T11:54:46.042Z</time>
      </trkpt>
      <trkpt lat="45.94172" lon="4.69611">
        <ele>305.600006104</ele>
        <time>2015-10-25T11:54:46.94Z</time>
      </trkpt>
      <trkpt lat="45.94172" lon="4.69611">
        <ele>305.600006104</ele>
        <time>2015-10-25T11:54:47.006Z</time>
      </trkpt>
      <trkpt lat="45.94169" lon="4.69624">
        <ele>304.5</ele>
        <time>2015-10-25T11:54:47.941Z</time>
      </trkpt>
      <trkpt lat="45.94169" lon="4.69624">
        <ele>304.5</ele>
        <time>2015-10-25T11:54:47.974Z</time>
      </trkpt>
      <trkpt lat="45.94165" lon="4.69636">
        <ele>303.299987793</ele>
        <time>2015-10-25T11:54:48.936Z</time>
      </trkpt>
      <trkpt lat="45.94165" lon="4.69636">
        <ele>303.299987793</ele>
        <time>2015-10-25T11:54:48.968Z</time>
      </trkpt>
      <trkpt lat="45.9416" lon="4.69648">
        <ele>301.799987793</ele>
        <time>2015-10-25T11:54:49.94Z</time>
      </trkpt>
      <trkpt lat="45.9416" lon="4.69648">
        <ele>301.799987793</ele>
        <time>2015-10-25T11:54:50.01Z</time>
      </trkpt>
      <trkpt lat="45.94154" lon="4.6966">
        <ele>300.600006104</ele>
        <time>2015-10-25T11:54:50.94Z</time>
      </trkpt>
      <trkpt lat="45.94154" lon="4.6966">
        <ele>300.600006104</ele>
        <time>2015-10-25T11:54:51.007Z</time>
      </trkpt>
      <trkpt lat="45.94148" lon="4.69672">
        <ele>299.299987793</ele>
        <time>2015-10-25T11:54:51.944Z</time>
      </trkpt>
      <trkpt lat="45.94148" lon="4.69672">
        <ele>299.299987793</ele>
        <time>2015-10-25T11:54:51.977Z</time>
      </trkpt>
      <trkpt lat="45.94143" lon="4.69683">
        <ele>298.5</ele>
        <time>2015-10-25T11:54:52.956Z</time>
      </trkpt>
      <trkpt lat="45.94143" lon="4.69683">
        <ele>298.5</ele>
        <time>2015-10-25T11:54:52.988Z</time>
      </trkpt>
      <trkpt lat="45.94137" lon="4.69695">
        <ele>297.700012207</ele>
        <time>2015-10-25T11:54:53.94Z</time>
      </trkpt>
      <trkpt lat="45.94137" lon="4.69695">
        <ele>297.700012207</ele>
        <time>2015-10-25T11:54:54.003Z</time>
      </trkpt>
      <trkpt lat="45.94132" lon="4.69707">
        <ele>296.100006104</ele>
        <time>2015-10-25T11:54:54.938Z</time>
      </trkpt>
      <trkpt lat="45.94132" lon="4.69707">
        <ele>296.100006104</ele>
        <time>2015-10-25T11:54:55.002Z</time>
      </trkpt>
      <trkpt lat="45.94128" lon="4.6972">
        <ele>294.600006104</ele>
        <time>2015-10-25T11:54:55.939Z</time>
      </trkpt>
      <trkpt lat="45.94128" lon="4.6972">
        <ele>294.600006104</ele>
        <time>2015-10-25T11:54:56.117Z</time>
      </trkpt>
      <trkpt lat="45.94126" lon="4.69734">
        <ele>293.5</ele>
        <time>2015-10-25T11:54:56.942Z</time>
      </trkpt>
      <trkpt lat="45.94126" lon="4.69734">
        <ele>293.5</ele>
        <time>2015-10-25T11:54:56.974Z</time>
      </trkpt>
      <trkpt lat="45.94125" lon="4.69748">
        <ele>292.299987793</ele>
        <time>2015-10-25T11:54:57.941Z</time>
      </trkpt>
      <trkpt lat="45.94125" lon="4.69748">
        <ele>292.299987793</ele>
        <time>2015-10-25T11:54:58.042Z</time>
      </trkpt>
      <trkpt lat="45.94125" lon="4.69762">
        <ele>290.799987793</ele>
        <time>2015-10-25T11:54:58.937Z</time>
      </trkpt>
      <trkpt lat="45.94125" lon="4.69762">
        <ele>290.799987793</ele>
        <time>2015-10-25T11:54:58.97Z</time>
      </trkpt>
      <trkpt lat="45.94127" lon="4.69777">
        <ele>289.299987793</ele>
        <time>2015-10-25T11:54:59.938Z</time>
      </trkpt>
      <trkpt lat="45.94127" lon="4.69777">
        <ele>289.299987793</ele>
        <time>2015-10-25T11:55:00.058Z</time>
      </trkpt>
      <trkpt lat="45.9413" lon="4.69792">
        <ele>287.700012207</ele>
        <time>2015-10-25T11:55:00.94Z</time>
      </trkpt>
      <trkpt lat="45.9413" lon="4.69792">
        <ele>287.700012207</ele>
        <time>2015-10-25T11:55:01.019Z</time>
      </trkpt>
      <trkpt lat="45.94133" lon="4.69808">
        <ele>286.5</ele>
        <time>2015-10-25T11:55:01.939Z</time>
      </trkpt>
      <trkpt lat="45.94133" lon="4.69808">
        <ele>286.5</ele>
        <time>2015-10-25T11:55:02.006Z</time>
      </trkpt>
      <trkpt lat="45.94136" lon="4.69824">
        <ele>285</ele>
        <time>2015-10-25T11:55:02.94Z</time>
      </trkpt>
      <trkpt lat="45.94136" lon="4.69824">
        <ele>285</ele>
        <time>2015-10-25T11:55:03.007Z</time>
      </trkpt>
      <trkpt lat="45.94139" lon="4.69841">
        <ele>283.299987793</ele>
        <time>2015-10-25T11:55:03.947Z</time>
      </trkpt>
      <trkpt lat="45.94139" lon="4.69841">
        <ele>283.299987793</ele>
        <time>2015-10-25T11:55:04.009Z</time>
      </trkpt>
      <trkpt lat="45.94142" lon="4.69858">
        <ele>281.600006104</ele>
        <time>2015-10-25T11:55:04.936Z</time>
      </trkpt>
      <trkpt lat="45.94142" lon="4.69858">
        <ele>281.600006104</ele>
        <time>2015-10-25T11:55:04.969Z</time>
      </trkpt>
      <trkpt lat="45.94145" lon="4.69876">
        <ele>280.100006104</ele>
        <time>2015-10-25T11:55:05.94Z</time>
      </trkpt>
      <trkpt lat="45.94145" lon="4.69876">
        <ele>280.100006104</ele>
        <time>2015-10-25T11:55:06.188Z</time>
      </trkpt>
      <trkpt lat="45.94147" lon="4.69894">
        <ele>278.5</ele>
        <time>2015-10-25T11:55:06.941Z</time>
      </trkpt>
      <trkpt lat="45.94147" lon="4.69894">
        <ele>278.5</ele>
        <time>2015-10-25T11:55:07.008Z</time>
      </trkpt>
      <trkpt lat="45.9415" lon="4.69914">
        <ele>276.799987793</ele>
        <time>2015-10-25T11:55:07.94Z</time>
      </trkpt>
      <trkpt lat="45.9415" lon="4.69914">
        <ele>276.799987793</ele>
        <time>2015-10-25T11:55:07.98Z</time>
      </trkpt>
      <trkpt lat="45.94151" lon="4.69933">
        <ele>275.200012207</ele>
        <time>2015-10-25T11:55:08.936Z</time>
      </trkpt>
      <trkpt lat="45.94151" lon="4.69933">
        <ele>275.200012207</ele>
        <time>2015-10-25T11:55:08.968Z</time>
      </trkpt>
      <trkpt lat="45.94153" lon="4.69952">
        <ele>273.5</ele>
        <time>2015-10-25T11:55:09.944Z</time>
      </trkpt>
      <trkpt lat="45.94153" lon="4.69952">
        <ele>273.5</ele>
        <time>2015-10-25T11:55:09.999Z</time>
      </trkpt>
      <trkpt lat="45.94155" lon="4.69971">
        <ele>271.700012207</ele>
        <time>2015-10-25T11:55:10.94Z</time>
      </trkpt>
      <trkpt lat="45.94155" lon="4.69971">
        <ele>271.700012207</ele>
        <time>2015-10-25T11:55:10.975Z</time>
      </trkpt>
      <trkpt lat="45.94159" lon="4.6999">
        <ele>270.200012207</ele>
        <time>2015-10-25T11:55:11.942Z</time>
      </trkpt>
      <trkpt lat="45.94159" lon="4.6999">
        <ele>270.200012207</ele>
        <time>2015-10-25T11:55:11.975Z</time>
      </trkpt>
      <trkpt lat="45.94163" lon="4.70008">
        <ele>268.600006104</ele>
        <time>2015-10-25T11:55:12.94Z</time>
      </trkpt>
      <trkpt lat="45.94163" lon="4.70008">
        <ele>268.600006104</ele>
        <time>2015-10-25T11:55:12.999Z</time>
      </trkpt>
      <trkpt lat="45.94167" lon="4.70026">
        <ele>267</ele>
        <time>2015-10-25T11:55:13.933Z</time>
      </trkpt>
      <trkpt lat="45.94167" lon="4.70026">
        <ele>267</ele>
        <time>2015-10-25T11:55:14.108Z</time>
      </trkpt>
      <trkpt lat="45.94172" lon="4.70043">
        <ele>265.5</ele>
        <time>2015-10-25T11:55:14.939Z</time>
      </trkpt>
      <trkpt lat="45.94172" lon="4.70043">
        <ele>265.5</ele>
        <time>2015-10-25T11:55:15.114Z</time>
      </trkpt>
      <trkpt lat="45.94176" lon="4.70059">
        <ele>264</ele>
        <time>2015-10-25T11:55:15.944Z</time>
      </trkpt>
      <trkpt lat="45.94176" lon="4.70059">
        <ele>264</ele>
        <time>2015-10-25T11:55:15.977Z</time>
      </trkpt>
      <trkpt lat="45.9418" lon="4.70075">
        <ele>262.700012207</ele>
        <time>2015-10-25T11:55:16.94Z</time>
      </trkpt>
      <trkpt lat="45.9418" lon="4.70075">
        <ele>262.700012207</ele>
        <time>2015-10-25T11:55:17.03Z</time>
      </trkpt>
      <trkpt lat="45.94183" lon="4.7009">
        <ele>261.299987793</ele>
        <time>2015-10-25T11:55:17.941Z</time>
      </trkpt>
      <trkpt lat="45.94183" lon="4.7009">
        <ele>261.299987793</ele>
        <time>2015-10-25T11:55:17.974Z</time>
      </trkpt>
      <trkpt lat="45.94185" lon="4.70106">
        <ele>260.200012207</ele>
        <time>2015-10-25T11:55:18.956Z</time>
      </trkpt>
      <trkpt lat="45.94185" lon="4.70106">
        <ele>260.200012207</ele>
        <time>2015-10-25T11:55:18.991Z</time>
      </trkpt>
      <trkpt lat="45.94187" lon="4.70121">
        <ele>258.799987793</ele>
        <time>2015-10-25T11:55:19.937Z</time>
      </trkpt>
      <trkpt lat="45.94187" lon="4.70121">
        <ele>258.799987793</ele>
        <time>2015-10-25T11:55:19.969Z</time>
      </trkpt>
      <trkpt lat="45.94188" lon="4.70137">
        <ele>257.700012207</ele>
        <time>2015-10-25T11:55:20.936Z</time>
      </trkpt>
      <trkpt lat="45.94188" lon="4.70137">
        <ele>257.700012207</ele>
        <time>2015-10-25T11:55:21Z</time>
      </trkpt>
      <trkpt lat="45.94188" lon="4.70153">
        <ele>256.600006104</ele>
        <time>2015-10-25T11:55:21.941Z</time>
      </trkpt>
      <trkpt lat="45.94188" lon="4.70153">
        <ele>256.600006104</ele>
        <time>2015-10-25T11:55:21.974Z</time>
      </trkpt>
      <trkpt lat="45.94188" lon="4.70169">
        <ele>255.899993896</ele>
        <time>2015-10-25T11:55:22.936Z</time>
      </trkpt>
      <trkpt lat="45.94188" lon="4.70169">
        <ele>255.899993896</ele>
        <time>2015-10-25T11:55:22.968Z</time>
      </trkpt>
      <trkpt lat="45.94187" lon="4.70185">
        <ele>254.699996948</ele>
        <time>2015-10-25T11:55:23.937Z</time>
      </trkpt>
      <trkpt lat="45.94187" lon="4.70185">
        <ele>254.699996948</ele>
        <time>2015-10-25T11:55:24.114Z</time>
      </trkpt>
      <trkpt lat="45.94187" lon="4.70201">
        <ele>253.899993896</ele>
        <time>2015-10-25T11:55:24.937Z</time>
      </trkpt>
      <trkpt lat="45.94187" lon="4.70201">
        <ele>253.899993896</ele>
        <time>2015-10-25T11:55:25.021Z</time>
      </trkpt>
      <trkpt lat="45.94186" lon="4.70218">
        <ele>253</ele>
        <time>2015-10-25T11:55:25.94Z</time>
      </trkpt>
      <trkpt lat="45.94186" lon="4.70218">
        <ele>253</ele>
        <time>2015-10-25T11:55:26.054Z</time>
      </trkpt>
      <trkpt lat="45.94184" lon="4.70234">
        <ele>252</ele>
        <time>2015-10-25T11:55:26.94Z</time>
      </trkpt>
      <trkpt lat="45.94184" lon="4.70234">
        <ele>252</ele>
        <time>2015-10-25T11:55:26.976Z</time>
      </trkpt>
      <trkpt lat="45.94183" lon="4.7025">
        <ele>251</ele>
        <time>2015-10-25T11:55:27.944Z</time>
      </trkpt>
      <trkpt lat="45.94183" lon="4.7025">
        <ele>251</ele>
        <time>2015-10-25T11:55:27.976Z</time>
      </trkpt>
      <trkpt lat="45.94181" lon="4.70266">
        <ele>249.800003052</ele>
        <time>2015-10-25T11:55:28.936Z</time>
      </trkpt>
      <trkpt lat="45.94181" lon="4.70266">
        <ele>249.800003052</ele>
        <time>2015-10-25T11:55:28.969Z</time>
      </trkpt>
      <trkpt lat="45.94179" lon="4.70282">
        <ele>249.199996948</ele>
        <time>2015-10-25T11:55:29.937Z</time>
      </trkpt>
      <trkpt lat="45.94179" lon="4.70282">
        <ele>249.199996948</ele>
        <time>2015-10-25T11:55:29.992Z</time>
      </trkpt>
      <trkpt lat="45.94176" lon="4.70297">
        <ele>248.600006104</ele>
        <time>2015-10-25T11:55:30.94Z</time>
      </trkpt>
      <trkpt lat="45.94176" lon="4.70297">
        <ele>248.600006104</ele>
        <time>2015-10-25T11:55:31.058Z</time>
      </trkpt>
      <trkpt lat="45.94174" lon="4.70312">
        <ele>248</ele>
        <time>2015-10-25T11:55:31.93Z</time>
      </trkpt>
      <trkpt lat="45.94174" lon="4.70312">
        <ele>248</ele>
        <time>2015-10-25T11:55:32.029Z</time>
      </trkpt>
      <trkpt lat="45.94172" lon="4.70327">
        <ele>247.399993896</ele>
        <time>2015-10-25T11:55:32.941Z</time>
      </trkpt>
      <trkpt lat="45.94172" lon="4.70327">
        <ele>247.399993896</ele>
        <time>2015-10-25T11:55:33.005Z</time>
      </trkpt>
      <trkpt lat="45.9417" lon="4.70342">
        <ele>247.300003052</ele>
        <time>2015-10-25T11:55:33.941Z</time>
      </trkpt>
      <trkpt lat="45.9417" lon="4.70342">
        <ele>247.300003052</ele>
        <time>2015-10-25T11:55:34.117Z</time>
      </trkpt>
      <trkpt lat="45.94169" lon="4.70356">
        <ele>247.399993896</ele>
        <time>2015-10-25T11:55:34.94Z</time>
      </trkpt>
      <trkpt lat="45.94169" lon="4.70356">
        <ele>247.399993896</ele>
        <time>2015-10-25T11:55:35.079Z</time>
      </trkpt>
      <trkpt lat="45.94169" lon="4.70371">
        <ele>246.800003052</ele>
        <time>2015-10-25T11:55:35.958Z</time>
      </trkpt>
      <trkpt lat="45.94169" lon="4.70371">
        <ele>246.800003052</ele>
        <time>2015-10-25T11:55:36.006Z</time>
      </trkpt>
      <trkpt lat="45.94169" lon="4.70385">
        <ele>246.399993896</ele>
        <time>2015-10-25T11:55:36.94Z</time>
      </trkpt>
      <trkpt lat="45.94169" lon="4.70385">
        <ele>246.399993896</ele>
        <time>2015-10-25T11:55:37.045Z</time>
      </trkpt>
      <trkpt lat="45.94169" lon="4.70399">
        <ele>245.800003052</ele>
        <time>2015-10-25T11:55:37.939Z</time>
      </trkpt>
      <trkpt lat="45.94169" lon="4.70399">
        <ele>245.800003052</ele>
        <time>2015-10-25T11:55:38.022Z</time>
      </trkpt>
      <trkpt lat="45.9417" lon="4.70413">
        <ele>245.399993896</ele>
        <time>2015-10-25T11:55:38.94Z</time>
      </trkpt>
      <trkpt lat="45.9417" lon="4.70413">
        <ele>245.399993896</ele>
        <time>2015-10-25T11:55:39.018Z</time>
      </trkpt>
      <trkpt lat="45.94169" lon="4.70426">
        <ele>245.199996948</ele>
        <time>2015-10-25T11:55:39.943Z</time>
      </trkpt>
      <trkpt lat="45.94169" lon="4.70426">
        <ele>245.199996948</ele>
        <time>2015-10-25T11:55:39.976Z</time>
      </trkpt>
      <trkpt lat="45.94168" lon="4.7044">
        <ele>244.800003052</ele>
        <time>2015-10-25T11:55:40.94Z</time>
      </trkpt>
      <trkpt lat="45.94168" lon="4.7044">
        <ele>244.800003052</ele>
        <time>2015-10-25T11:55:41.001Z</time>
      </trkpt>
      <trkpt lat="45.94167" lon="4.70453">
        <ele>245</ele>
        <time>2015-10-25T11:55:41.941Z</time>
      </trkpt>
      <trkpt lat="45.94167" lon="4.70453">
        <ele>245</ele>
        <time>2015-10-25T11:55:41.994Z</time>
      </trkpt>
      <trkpt lat="45.94166" lon="4.70466">
        <ele>244.300003052</ele>
        <time>2015-10-25T11:55:42.938Z</time>
      </trkpt>
      <trkpt lat="45.94166" lon="4.70466">
        <ele>244.300003052</ele>
        <time>2015-10-25T11:55:43.035Z</time>
      </trkpt>
      <trkpt lat="45.94165" lon="4.70479">
        <ele>244</ele>
        <time>2015-10-25T11:55:43.938Z</time>
      </trkpt>
      <trkpt lat="45.94165" lon="4.70479">
        <ele>244</ele>
        <time>2015-10-25T11:55:44.008Z</time>
      </trkpt>
      <trkpt lat="45.94165" lon="4.70492">
        <ele>243.600006104</ele>
        <time>2015-10-25T11:55:44.956Z</time>
      </trkpt>
      <trkpt lat="45.94165" lon="4.70492">
        <ele>243.600006104</ele>
        <time>2015-10-25T11:55:44.989Z</time>
      </trkpt>
      <trkpt lat="45.94165" lon="4.70506">
        <ele>243.300003052</ele>
        <time>2015-10-25T11:55:45.941Z</time>
      </trkpt>
      <trkpt lat="45.94165" lon="4.70506">
        <ele>243.300003052</ele>
        <time>2015-10-25T11:55:45.974Z</time>
      </trkpt>
      <trkpt lat="45.94165" lon="4.70519">
        <ele>243.300003052</ele>
        <time>2015-10-25T11:55:46.94Z</time>
      </trkpt>
      <trkpt lat="45.94165" lon="4.70519">
        <ele>243.300003052</ele>
        <time>2015-10-25T11:55:47.005Z</time>
      </trkpt>
      <trkpt lat="45.94164" lon="4.70532">
        <ele>242.899993896</ele>
        <time>2015-10-25T11:55:47.938Z</time>
      </trkpt>
      <trkpt lat="45.94164" lon="4.70532">
        <ele>242.899993896</ele>
        <time>2015-10-25T11:55:48.014Z</time>
      </trkpt>
      <trkpt lat="45.94165" lon="4.70545">
        <ele>242.800003052</ele>
        <time>2015-10-25T11:55:48.936Z</time>
      </trkpt>
      <trkpt lat="45.94165" lon="4.70545">
        <ele>242.800003052</ele>
        <time>2015-10-25T11:55:49.134Z</time>
      </trkpt>
      <trkpt lat="45.94165" lon="4.70559">
        <ele>242.5</ele>
        <time>2015-10-25T11:55:50.041Z</time>
      </trkpt>
      <trkpt lat="45.94165" lon="4.70559">
        <ele>242.5</ele>
        <time>2015-10-25T11:55:50.071Z</time>
      </trkpt>
      <trkpt lat="45.94165" lon="4.70572">
        <ele>241.899993896</ele>
        <time>2015-10-25T11:55:50.937Z</time>
      </trkpt>
      <trkpt lat="45.94165" lon="4.70572">
        <ele>241.899993896</ele>
        <time>2015-10-25T11:55:50.973Z</time>
      </trkpt>
      <trkpt lat="45.94165" lon="4.70585">
        <ele>241.399993896</ele>
        <time>2015-10-25T11:55:51.941Z</time>
      </trkpt>
      <trkpt lat="45.94165" lon="4.70585">
        <ele>241.399993896</ele>
        <time>2015-10-25T11:55:51.974Z</time>
      </trkpt>
      <trkpt lat="45.94164" lon="4.70598">
        <ele>241</ele>
        <time>2015-10-25T11:55:52.937Z</time>
      </trkpt>
      <trkpt lat="45.94164" lon="4.70598">
        <ele>241</ele>
        <time>2015-10-25T11:55:53.116Z</time>
      </trkpt>
      <trkpt lat="45.94163" lon="4.70611">
        <ele>240.5</ele>
        <time>2015-10-25T11:55:53.938Z</time>
      </trkpt>
      <trkpt lat="45.94162" lon="4.70623">
        <ele>240.199996948</ele>
        <time>2015-10-25T11:55:54.964Z</time>
      </trkpt>
      <trkpt lat="45.9416" lon="4.70636">
        <ele>239.600006104</ele>
        <time>2015-10-25T11:55:55.937Z</time>
      </trkpt>
      <trkpt lat="45.9416" lon="4.70636">
        <ele>239.600006104</ele>
        <time>2015-10-25T11:55:55.997Z</time>
      </trkpt>
      <trkpt lat="45.94157" lon="4.70648">
        <ele>238.899993896</ele>
        <time>2015-10-25T11:55:56.937Z</time>
      </trkpt>
      <trkpt lat="45.94157" lon="4.70648">
        <ele>238.899993896</ele>
        <time>2015-10-25T11:55:56.994Z</time>
      </trkpt>
      <trkpt lat="45.94154" lon="4.70661">
        <ele>238.699996948</ele>
        <time>2015-10-25T11:55:57.943Z</time>
      </trkpt>
      <trkpt lat="45.94154" lon="4.70661">
        <ele>238.699996948</ele>
        <time>2015-10-25T11:55:58.012Z</time>
      </trkpt>
      <trkpt lat="45.94151" lon="4.70673">
        <ele>238.399993896</ele>
        <time>2015-10-25T11:55:58.938Z</time>
      </trkpt>
      <trkpt lat="45.94151" lon="4.70673">
        <ele>238.399993896</ele>
        <time>2015-10-25T11:55:59.024Z</time>
      </trkpt>
      <trkpt lat="45.94147" lon="4.70685">
        <ele>237.699996948</ele>
        <time>2015-10-25T11:55:59.938Z</time>
      </trkpt>
      <trkpt lat="45.94147" lon="4.70685">
        <ele>237.699996948</ele>
        <time>2015-10-25T11:56:00.036Z</time>
      </trkpt>
      <trkpt lat="45.94143" lon="4.70698">
        <ele>236.899993896</ele>
        <time>2015-10-25T11:56:00.958Z</time>
      </trkpt>
      <trkpt lat="45.94143" lon="4.70698">
        <ele>236.899993896</ele>
        <time>2015-10-25T11:56:00.988Z</time>
      </trkpt>
      <trkpt lat="45.94139" lon="4.7071">
        <ele>236.399993896</ele>
        <time>2015-10-25T11:56:01.94Z</time>
      </trkpt>
      <trkpt lat="45.94139" lon="4.7071">
        <ele>236.399993896</ele>
        <time>2015-10-25T11:56:02.02Z</time>
      </trkpt>
      <trkpt lat="45.94133" lon="4.70721">
        <ele>236.100006104</ele>
        <time>2015-10-25T11:56:02.937Z</time>
      </trkpt>
      <trkpt lat="45.94133" lon="4.70721">
        <ele>236.100006104</ele>
        <time>2015-10-25T11:56:02.996Z</time>
      </trkpt>
      <trkpt lat="45.94128" lon="4.70732">
        <ele>235.699996948</ele>
        <time>2015-10-25T11:56:03.941Z</time>
      </trkpt>
      <trkpt lat="45.94128" lon="4.70732">
        <ele>235.699996948</ele>
        <time>2015-10-25T11:56:03.973Z</time>
      </trkpt>
      <trkpt lat="45.94121" lon="4.70743">
        <ele>235.600006104</ele>
        <time>2015-10-25T11:56:04.94Z</time>
      </trkpt>
      <trkpt lat="45.94121" lon="4.70743">
        <ele>235.600006104</ele>
        <time>2015-10-25T11:56:04.973Z</time>
      </trkpt>
      <trkpt lat="45.94115" lon="4.70752">
        <ele>235.399993896</ele>
        <time>2015-10-25T11:56:05.938Z</time>
      </trkpt>
      <trkpt lat="45.94115" lon="4.70752">
        <ele>235.399993896</ele>
        <time>2015-10-25T11:56:06.006Z</time>
      </trkpt>
      <trkpt lat="45.94108" lon="4.70761">
        <ele>234.800003052</ele>
        <time>2015-10-25T11:56:06.94Z</time>
      </trkpt>
      <trkpt lat="45.94108" lon="4.70761">
        <ele>234.800003052</ele>
        <time>2015-10-25T11:56:07.055Z</time>
      </trkpt>
      <trkpt lat="45.94101" lon="4.7077">
        <ele>234.100006104</ele>
        <time>2015-10-25T11:56:07.94Z</time>
      </trkpt>
      <trkpt lat="45.94101" lon="4.7077">
        <ele>234.100006104</ele>
        <time>2015-10-25T11:56:07.973Z</time>
      </trkpt>
      <trkpt lat="45.94094" lon="4.70778">
        <ele>233.600006104</ele>
        <time>2015-10-25T11:56:08.94Z</time>
      </trkpt>
      <trkpt lat="45.94087" lon="4.70785">
        <ele>233.100006104</ele>
        <time>2015-10-25T11:56:09.968Z</time>
      </trkpt>
      <trkpt lat="45.9408" lon="4.70793">
        <ele>232.899993896</ele>
        <time>2015-10-25T11:56:10.936Z</time>
      </trkpt>
      <trkpt lat="45.94073" lon="4.70801">
        <ele>232.300003052</ele>
        <time>2015-10-25T11:56:11.965Z</time>
      </trkpt>
      <trkpt lat="45.94067" lon="4.70809">
        <ele>231.899993896</ele>
        <time>2015-10-25T11:56:12.94Z</time>
      </trkpt>
      <trkpt lat="45.94059" lon="4.70815">
        <ele>231.199996948</ele>
        <time>2015-10-25T11:56:13.968Z</time>
      </trkpt>
      <trkpt lat="45.94053" lon="4.70822">
        <ele>230.699996948</ele>
        <time>2015-10-25T11:56:14.936Z</time>
      </trkpt>
      <trkpt lat="45.94046" lon="4.70828">
        <ele>229.800003052</ele>
        <time>2015-10-25T11:56:16.072Z</time>
      </trkpt>
      <trkpt lat="45.9404" lon="4.70835">
        <ele>229.100006104</ele>
        <time>2015-10-25T11:56:16.963Z</time>
      </trkpt>
      <trkpt lat="45.94034" lon="4.70842">
        <ele>228.300003052</ele>
        <time>2015-10-25T11:56:17.965Z</time>
      </trkpt>
      <trkpt lat="45.94028" lon="4.7085">
        <ele>227.899993896</ele>
        <time>2015-10-25T11:56:18.937Z</time>
      </trkpt>
      <trkpt lat="45.94024" lon="4.70858">
        <ele>227</ele>
        <time>2015-10-25T11:56:19.967Z</time>
      </trkpt>
      <trkpt lat="45.94021" lon="4.70867">
        <ele>225.800003052</ele>
        <time>2015-10-25T11:56:20.94Z</time>
      </trkpt>
      <trkpt lat="45.94019" lon="4.70876">
        <ele>224.899993896</ele>
        <time>2015-10-25T11:56:21.971Z</time>
      </trkpt>
      <trkpt lat="45.94019" lon="4.70885">
        <ele>223.899993896</ele>
        <time>2015-10-25T11:56:22.94Z</time>
      </trkpt>
      <trkpt lat="45.9402" lon="4.70894">
        <ele>223.100006104</ele>
        <time>2015-10-25T11:56:23.968Z</time>
      </trkpt>
      <trkpt lat="45.94022" lon="4.70903">
        <ele>222.5</ele>
        <time>2015-10-25T11:56:24.941Z</time>
      </trkpt>
      <trkpt lat="45.94023" lon="4.70912">
        <ele>222.100006104</ele>
        <time>2015-10-25T11:56:25.979Z</time>
      </trkpt>
      <trkpt lat="45.94024" lon="4.70921">
        <ele>220.899993896</ele>
        <time>2015-10-25T11:56:26.937Z</time>
      </trkpt>
      <trkpt lat="45.94026" lon="4.7093">
        <ele>219.699996948</ele>
        <time>2015-10-25T11:56:27.971Z</time>
      </trkpt>
      <trkpt lat="45.94029" lon="4.70939">
        <ele>218.600006104</ele>
        <time>2015-10-25T11:56:28.937Z</time>
      </trkpt>
      <trkpt lat="45.94032" lon="4.70947">
        <ele>217.600006104</ele>
        <time>2015-10-25T11:56:29.968Z</time>
      </trkpt>
      <trkpt lat="45.94036" lon="4.70955">
        <ele>216.899993896</ele>
        <time>2015-10-25T11:56:30.937Z</time>
      </trkpt>
      <trkpt lat="45.94041" lon="4.70962">
        <ele>216</ele>
        <time>2015-10-25T11:56:31.968Z</time>
      </trkpt>
      <trkpt lat="45.94046" lon="4.7097">
        <ele>215</ele>
        <time>2015-10-25T11:56:32.94Z</time>
      </trkpt>
      <trkpt lat="45.94051" lon="4.70977">
        <ele>214.100006104</ele>
        <time>2015-10-25T11:56:33.971Z</time>
      </trkpt>
      <trkpt lat="45.94057" lon="4.70985">
        <ele>213</ele>
        <time>2015-10-25T11:56:34.936Z</time>
      </trkpt>
      <trkpt lat="45.94061" lon="4.70994">
        <ele>211.899993896</ele>
        <time>2015-10-25T11:56:36.064Z</time>
      </trkpt>
      <trkpt lat="45.94067" lon="4.71003">
        <ele>210.800003052</ele>
        <time>2015-10-25T11:56:36.94Z</time>
      </trkpt>
      <trkpt lat="45.94072" lon="4.71012">
        <ele>210.300003052</ele>
        <time>2015-10-25T11:56:37.978Z</time>
      </trkpt>
      <trkpt lat="45.94078" lon="4.7102">
        <ele>209.199996948</ele>
        <time>2015-10-25T11:56:38.94Z</time>
      </trkpt>
      <trkpt lat="45.94084" lon="4.71028">
        <ele>208</ele>
        <time>2015-10-25T11:56:39.967Z</time>
      </trkpt>
      <trkpt lat="45.94089" lon="4.71036">
        <ele>206.899993896</ele>
        <time>2015-10-25T11:56:40.939Z</time>
      </trkpt>
      <trkpt lat="45.94095" lon="4.71045">
        <ele>206</ele>
        <time>2015-10-25T11:56:41.965Z</time>
      </trkpt>
      <trkpt lat="45.94101" lon="4.71054">
        <ele>205</ele>
        <time>2015-10-25T11:56:42.939Z</time>
      </trkpt>
      <trkpt lat="45.94107" lon="4.71062">
        <ele>203.800003052</ele>
        <time>2015-10-25T11:56:43.964Z</time>
      </trkpt>
      <trkpt lat="45.94114" lon="4.71071">
        <ele>202.600006104</ele>
        <time>2015-10-25T11:56:44.936Z</time>
      </trkpt>
      <trkpt lat="45.9412" lon="4.71078">
        <ele>201.399993896</ele>
        <time>2015-10-25T11:56:45.97Z</time>
      </trkpt>
      <trkpt lat="45.94126" lon="4.71085">
        <ele>200.199996948</ele>
        <time>2015-10-25T11:56:46.94Z</time>
      </trkpt>
      <trkpt lat="45.94132" lon="4.71092">
        <ele>199.199996948</ele>
        <time>2015-10-25T11:56:47.964Z</time>
      </trkpt>
      <trkpt lat="45.94137" lon="4.71097">
        <ele>198.100006104</ele>
        <time>2015-10-25T11:56:48.937Z</time>
      </trkpt>
      <trkpt lat="45.94141" lon="4.71101">
        <ele>197</ele>
        <time>2015-10-25T11:56:49.969Z</time>
      </trkpt>
      <trkpt lat="45.94145" lon="4.71106">
        <ele>195.899993896</ele>
        <time>2015-10-25T11:56:50.941Z</time>
      </trkpt>
      <trkpt lat="45.94147" lon="4.71112">
        <ele>195</ele>
        <time>2015-10-25T11:56:51.967Z</time>
      </trkpt>
      <trkpt lat="45.94149" lon="4.71119">
        <ele>193.899993896</ele>
        <time>2015-10-25T11:56:52.939Z</time>
      </trkpt>
      <trkpt lat="45.9415" lon="4.71126">
        <ele>192.800003052</ele>
        <time>2015-10-25T11:56:53.983Z</time>
      </trkpt>
      <trkpt lat="45.94148" lon="4.71133">
        <ele>192.199996948</ele>
        <time>2015-10-25T11:56:54.94Z</time>
      </trkpt>
      <trkpt lat="45.94144" lon="4.71139">
        <ele>191.300003052</ele>
        <time>2015-10-25T11:56:55.963Z</time>
      </trkpt>
      <trkpt lat="45.94139" lon="4.71143">
        <ele>191</ele>
        <time>2015-10-25T11:56:56.94Z</time>
      </trkpt>
      <trkpt lat="45.94132" lon="4.71145">
        <ele>190.800003052</ele>
        <time>2015-10-25T11:56:57.97Z</time>
      </trkpt>
      <trkpt lat="45.94124" lon="4.71144">
        <ele>190.199996948</ele>
        <time>2015-10-25T11:56:58.94Z</time>
      </trkpt>
      <trkpt lat="45.94116" lon="4.71144">
        <ele>189.800003052</ele>
        <time>2015-10-25T11:56:59.968Z</time>
      </trkpt>
      <trkpt lat="45.94108" lon="4.71144">
        <ele>189.399993896</ele>
        <time>2015-10-25T11:57:00.936Z</time>
      </trkpt>
      <trkpt lat="45.941" lon="4.71144">
        <ele>188.600006104</ele>
        <time>2015-10-25T11:57:01.963Z</time>
      </trkpt>
      <trkpt lat="45.94091" lon="4.71146">
        <ele>187.899993896</ele>
        <time>2015-10-25T11:57:02.936Z</time>
      </trkpt>
      <trkpt lat="45.94091" lon="4.71146">
        <ele>187.899993896</ele>
        <time>2015-10-25T11:57:02.969Z</time>
      </trkpt>
      <trkpt lat="45.94082" lon="4.71146">
        <ele>186.699996948</ele>
        <time>2015-10-25T11:57:03.943Z</time>
      </trkpt>
      <trkpt lat="45.94082" lon="4.71146">
        <ele>186.699996948</ele>
        <time>2015-10-25T11:57:03.976Z</time>
      </trkpt>
      <trkpt lat="45.94073" lon="4.71146">
        <ele>185.600006104</ele>
        <time>2015-10-25T11:57:04.94Z</time>
      </trkpt>
      <trkpt lat="45.94073" lon="4.71146">
        <ele>185.600006104</ele>
        <time>2015-10-25T11:57:05.018Z</time>
      </trkpt>
      <trkpt lat="45.94063" lon="4.71146">
        <ele>184.800003052</ele>
        <time>2015-10-25T11:57:05.941Z</time>
      </trkpt>
      <trkpt lat="45.94063" lon="4.71146">
        <ele>184.800003052</ele>
        <time>2015-10-25T11:57:05.973Z</time>
      </trkpt>
      <trkpt lat="45.94053" lon="4.71146">
        <ele>184.399993896</ele>
        <time>2015-10-25T11:57:06.94Z</time>
      </trkpt>
      <trkpt lat="45.94053" lon="4.71146">
        <ele>184.399993896</ele>
        <time>2015-10-25T11:57:07.019Z</time>
      </trkpt>
      <trkpt lat="45.94044" lon="4.71146">
        <ele>183.899993896</ele>
        <time>2015-10-25T11:57:07.94Z</time>
      </trkpt>
      <trkpt lat="45.94035" lon="4.71146">
        <ele>183.5</ele>
        <time>2015-10-25T11:57:08.963Z</time>
      </trkpt>
      <trkpt lat="45.94027" lon="4.71147">
        <ele>183</ele>
        <time>2015-10-25T11:57:09.944Z</time>
      </trkpt>
      <trkpt lat="45.94019" lon="4.71148">
        <ele>182.399993896</ele>
        <time>2015-10-25T11:57:10.966Z</time>
      </trkpt>
      <trkpt lat="45.94012" lon="4.71149">
        <ele>181.899993896</ele>
        <time>2015-10-25T11:57:11.938Z</time>
      </trkpt>
      <trkpt lat="45.94005" lon="4.71152">
        <ele>181.600006104</ele>
        <time>2015-10-25T11:57:12.963Z</time>
      </trkpt>
      <trkpt lat="45.94" lon="4.71156">
        <ele>181.300003052</ele>
        <time>2015-10-25T11:57:13.936Z</time>
      </trkpt>
      <trkpt lat="45.93996" lon="4.71162">
        <ele>180.5</ele>
        <time>2015-10-25T11:57:15.035Z</time>
      </trkpt>
      <trkpt lat="45.93993" lon="4.71169">
        <ele>180</ele>
        <time>2015-10-25T11:57:15.948Z</time>
      </trkpt>
      <trkpt lat="45.9399" lon="4.71178">
        <ele>179.5</ele>
        <time>2015-10-25T11:57:16.973Z</time>
      </trkpt>
      <trkpt lat="45.93989" lon="4.71187">
        <ele>179.399993896</ele>
        <time>2015-10-25T11:57:17.941Z</time>
      </trkpt>
      <trkpt lat="45.93989" lon="4.71197">
        <ele>178.899993896</ele>
        <time>2015-10-25T11:57:18.998Z</time>
      </trkpt>
      <trkpt lat="45.93989" lon="4.71208">
        <ele>178.5</ele>
        <time>2015-10-25T11:57:19.936Z</time>
      </trkpt>
      <trkpt lat="45.93987" lon="4.71218">
        <ele>177.699996948</ele>
        <time>2015-10-25T11:57:20.963Z</time>
      </trkpt>
      <trkpt lat="45.93986" lon="4.71227">
        <ele>177.199996948</ele>
        <time>2015-10-25T11:57:21.94Z</time>
      </trkpt>
      <trkpt lat="45.93983" lon="4.71236">
        <ele>177.100006104</ele>
        <time>2015-10-25T11:57:22.963Z</time>
      </trkpt>
      <trkpt lat="45.9398" lon="4.71244">
        <ele>176.300003052</ele>
        <time>2015-10-25T11:57:23.94Z</time>
      </trkpt>
      <trkpt lat="45.93976" lon="4.71251">
        <ele>176.300003052</ele>
        <time>2015-10-25T11:57:24.981Z</time>
      </trkpt>
      <trkpt lat="45.93973" lon="4.71259">
        <ele>175.899993896</ele>
        <time>2015-10-25T11:57:25.937Z</time>
      </trkpt>
      <trkpt lat="45.9397" lon="4.71268">
        <ele>175.300003052</ele>
        <time>2015-10-25T11:57:26.967Z</time>
      </trkpt>
      <trkpt lat="45.93969" lon="4.71277">
        <ele>174.5</ele>
        <time>2015-10-25T11:57:27.941Z</time>
      </trkpt>
      <trkpt lat="45.93971" lon="4.71287">
        <ele>174.199996948</ele>
        <time>2015-10-25T11:57:28.966Z</time>
      </trkpt>
      <trkpt lat="45.93974" lon="4.71296">
        <ele>173.600006104</ele>
        <time>2015-10-25T11:57:29.937Z</time>
      </trkpt>
      <trkpt lat="45.93976" lon="4.71306">
        <ele>173.300003052</ele>
        <time>2015-10-25T11:57:30.966Z</time>
      </trkpt>
      <trkpt lat="45.93977" lon="4.71316">
        <ele>172.699996948</ele>
        <time>2015-10-25T11:57:31.936Z</time>
      </trkpt>
      <trkpt lat="45.93977" lon="4.71327">
        <ele>172.600006104</ele>
        <time>2015-10-25T11:57:32.967Z</time>
      </trkpt>
      <trkpt lat="45.93976" lon="4.71338">
        <ele>172.199996948</ele>
        <time>2015-10-25T11:57:33.94Z</time>
      </trkpt>
      <trkpt lat="45.93974" lon="4.71349">
        <ele>171.899993896</ele>
        <time>2015-10-25T11:57:35.064Z</time>
      </trkpt>
      <trkpt lat="45.93972" lon="4.71359">
        <ele>171.5</ele>
        <time>2015-10-25T11:57:35.958Z</time>
      </trkpt>
      <trkpt lat="45.93971" lon="4.7137">
        <ele>171.300003052</ele>
        <time>2015-10-25T11:57:37.001Z</time>
      </trkpt>
      <trkpt lat="45.93969" lon="4.71382">
        <ele>171.199996948</ele>
        <time>2015-10-25T11:57:37.94Z</time>
      </trkpt>
      <trkpt lat="45.93967" lon="4.71393">
        <ele>170.899993896</ele>
        <time>2015-10-25T11:57:38.963Z</time>
      </trkpt>
      <trkpt lat="45.93965" lon="4.71404">
        <ele>170.800003052</ele>
        <time>2015-10-25T11:57:39.944Z</time>
      </trkpt>
      <trkpt lat="45.93964" lon="4.71415">
        <ele>170.800003052</ele>
        <time>2015-10-25T11:57:40.967Z</time>
      </trkpt>
      <trkpt lat="45.93962" lon="4.71425">
        <ele>171.100006104</ele>
        <time>2015-10-25T11:57:41.94Z</time>
      </trkpt>
      <trkpt lat="45.93961" lon="4.71436">
        <ele>171.100006104</ele>
        <time>2015-10-25T11:57:42.971Z</time>
      </trkpt>
      <trkpt lat="45.9396" lon="4.71446">
        <ele>170.899993896</ele>
        <time>2015-10-25T11:57:43.936Z</time>
      </trkpt>
      <trkpt lat="45.93959" lon="4.71456">
        <ele>171.100006104</ele>
        <time>2015-10-25T11:57:44.964Z</time>
      </trkpt>
      <trkpt lat="45.93958" lon="4.71466">
        <ele>171</ele>
        <time>2015-10-25T11:57:45.94Z</time>
      </trkpt>
      <trkpt lat="45.93958" lon="4.71475">
        <ele>170.800003052</ele>
        <time>2015-10-25T11:57:46.969Z</time>
      </trkpt>
      <trkpt lat="45.93957" lon="4.71485">
        <ele>171.100006104</ele>
        <time>2015-10-25T11:57:47.937Z</time>
      </trkpt>
      <trkpt lat="45.93955" lon="4.71494">
        <ele>171</ele>
        <time>2015-10-25T11:57:48.963Z</time>
      </trkpt>
      <trkpt lat="45.93954" lon="4.71503">
        <ele>170.899993896</ele>
        <time>2015-10-25T11:57:49.939Z</time>
      </trkpt>
      <trkpt lat="45.93953" lon="4.71511">
        <ele>170.800003052</ele>
        <time>2015-10-25T11:57:50.967Z</time>
      </trkpt>
      <trkpt lat="45.93952" lon="4.7152">
        <ele>170.5</ele>
        <time>2015-10-25T11:57:51.946Z</time>
      </trkpt>
      <trkpt lat="45.93951" lon="4.71528">
        <ele>170.699996948</ele>
        <time>2015-10-25T11:57:52.967Z</time>
      </trkpt>
      <trkpt lat="45.9395" lon="4.71537">
        <ele>170.600006104</ele>
        <time>2015-10-25T11:57:53.941Z</time>
      </trkpt>
      <trkpt lat="45.93949" lon="4.71545">
        <ele>170.600006104</ele>
        <time>2015-10-25T11:57:55Z</time>
      </trkpt>
      <trkpt lat="45.93947" lon="4.71553">
        <ele>170.399993896</ele>
        <time>2015-10-25T11:57:55.937Z</time>
      </trkpt>
      <trkpt lat="45.93945" lon="4.7156">
        <ele>169.899993896</ele>
        <time>2015-10-25T11:57:56.982Z</time>
      </trkpt>
      <trkpt lat="45.93943" lon="4.71567">
        <ele>169.899993896</ele>
        <time>2015-10-25T11:57:57.94Z</time>
      </trkpt>
      <trkpt lat="45.9394" lon="4.71573">
        <ele>169.899993896</ele>
        <time>2015-10-25T11:57:58.967Z</time>
      </trkpt>
      <trkpt lat="45.93938" lon="4.71579">
        <ele>170.100006104</ele>
        <time>2015-10-25T11:57:59.941Z</time>
      </trkpt>
      <trkpt lat="45.93936" lon="4.71587">
        <ele>170.199996948</ele>
        <time>2015-10-25T11:58:00.967Z</time>
      </trkpt>
      <trkpt lat="45.93934" lon="4.71594">
        <ele>170.100006104</ele>
        <time>2015-10-25T11:58:01.939Z</time>
      </trkpt>
      <trkpt lat="45.93932" lon="4.71601">
        <ele>170.100006104</ele>
        <time>2015-10-25T11:58:02.978Z</time>
      </trkpt>
      <trkpt lat="45.9393" lon="4.71608">
        <ele>170.300003052</ele>
        <time>2015-10-25T11:58:03.943Z</time>
      </trkpt>
      <trkpt lat="45.93928" lon="4.71615">
        <ele>170.800003052</ele>
        <time>2015-10-25T11:58:05.069Z</time>
      </trkpt>
      <trkpt lat="45.93926" lon="4.71621">
        <ele>171</ele>
        <time>2015-10-25T11:58:05.938Z</time>
      </trkpt>
      <trkpt lat="45.93924" lon="4.71627">
        <ele>171.199996948</ele>
        <time>2015-10-25T11:58:06.967Z</time>
      </trkpt>
      <trkpt lat="45.93922" lon="4.71633">
        <ele>171.399993896</ele>
        <time>2015-10-25T11:58:07.942Z</time>
      </trkpt>
      <trkpt lat="45.9392" lon="4.7164">
        <ele>171.600006104</ele>
        <time>2015-10-25T11:58:08.967Z</time>
      </trkpt>
      <trkpt lat="45.93919" lon="4.71646">
        <ele>171.399993896</ele>
        <time>2015-10-25T11:58:09.94Z</time>
      </trkpt>
      <trkpt lat="45.93917" lon="4.71659">
        <ele>170.899993896</ele>
        <time>2015-10-25T11:58:11.968Z</time>
      </trkpt>
      <trkpt lat="45.93917" lon="4.71665">
        <ele>170.899993896</ele>
        <time>2015-10-25T11:58:12.957Z</time>
      </trkpt>
      <trkpt lat="45.93914" lon="4.71676">
        <ele>170.899993896</ele>
        <time>2015-10-25T11:58:14.967Z</time>
      </trkpt>
      <trkpt lat="45.93911" lon="4.71681">
        <ele>171</ele>
        <time>2015-10-25T11:58:15.943Z</time>
      </trkpt>
      <trkpt lat="45.93907" lon="4.71684">
        <ele>171.300003052</ele>
        <time>2015-10-25T11:58:16.971Z</time>
      </trkpt>
      <trkpt lat="45.93903" lon="4.71686">
        <ele>171.800003052</ele>
        <time>2015-10-25T11:58:17.938Z</time>
      </trkpt>
      <trkpt lat="45.93898" lon="4.71688">
        <ele>172</ele>
        <time>2015-10-25T11:58:18.963Z</time>
      </trkpt>
      <trkpt lat="45.93893" lon="4.7169">
        <ele>171.800003052</ele>
        <time>2015-10-25T11:58:19.939Z</time>
      </trkpt>
      <trkpt lat="45.93888" lon="4.71692">
        <ele>171.800003052</ele>
        <time>2015-10-25T11:58:20.963Z</time>
      </trkpt>
      <trkpt lat="45.93883" lon="4.71695">
        <ele>171.699996948</ele>
        <time>2015-10-25T11:58:21.94Z</time>
      </trkpt>
      <trkpt lat="45.93879" lon="4.71698">
        <ele>172</ele>
        <time>2015-10-25T11:58:22.967Z</time>
      </trkpt>
      <trkpt lat="45.93874" lon="4.717">
        <ele>172.100006104</ele>
        <time>2015-10-25T11:58:23.941Z</time>
      </trkpt>
      <trkpt lat="45.93869" lon="4.71702">
        <ele>172.100006104</ele>
        <time>2015-10-25T11:58:25.077Z</time>
      </trkpt>
      <trkpt lat="45.93863" lon="4.71704">
        <ele>172.100006104</ele>
        <time>2015-10-25T11:58:25.937Z</time>
      </trkpt>
      <trkpt lat="45.93859" lon="4.71706">
        <ele>172</ele>
        <time>2015-10-25T11:58:26.963Z</time>
      </trkpt>
      <trkpt lat="45.93854" lon="4.71709">
        <ele>172.199996948</ele>
        <time>2015-10-25T11:58:27.94Z</time>
      </trkpt>
      <trkpt lat="45.93849" lon="4.71711">
        <ele>172.300003052</ele>
        <time>2015-10-25T11:58:28.963Z</time>
      </trkpt>
      <trkpt lat="45.93845" lon="4.71713">
        <ele>172.5</ele>
        <time>2015-10-25T11:58:29.941Z</time>
      </trkpt>
      <trkpt lat="45.9384" lon="4.71715">
        <ele>172.600006104</ele>
        <time>2015-10-25T11:58:30.966Z</time>
      </trkpt>
      <trkpt lat="45.93835" lon="4.71717">
        <ele>172.800003052</ele>
        <time>2015-10-25T11:58:31.939Z</time>
      </trkpt>
      <trkpt lat="45.9383" lon="4.71719">
        <ele>172.899993896</ele>
        <time>2015-10-25T11:58:32.964Z</time>
      </trkpt>
      <trkpt lat="45.93825" lon="4.71721">
        <ele>173</ele>
        <time>2015-10-25T11:58:33.955Z</time>
      </trkpt>
      <trkpt lat="45.93819" lon="4.71724">
        <ele>173.399993896</ele>
        <time>2015-10-25T11:58:34.966Z</time>
      </trkpt>
      <trkpt lat="45.93814" lon="4.71726">
        <ele>173.800003052</ele>
        <time>2015-10-25T11:58:35.941Z</time>
      </trkpt>
      <trkpt lat="45.93808" lon="4.71729">
        <ele>174.199996948</ele>
        <time>2015-10-25T11:58:36.963Z</time>
      </trkpt>
      <trkpt lat="45.93803" lon="4.71731">
        <ele>174.5</ele>
        <time>2015-10-25T11:58:37.936Z</time>
      </trkpt>
      <trkpt lat="45.93798" lon="4.71733">
        <ele>174.600006104</ele>
        <time>2015-10-25T11:58:39.002Z</time>
      </trkpt>
      <trkpt lat="45.93792" lon="4.71734">
        <ele>174.699996948</ele>
        <time>2015-10-25T11:58:39.94Z</time>
      </trkpt>
      <trkpt lat="45.93787" lon="4.71736">
        <ele>174.899993896</ele>
        <time>2015-10-25T11:58:40.967Z</time>
      </trkpt>
      <trkpt lat="45.93782" lon="4.71738">
        <ele>175.100006104</ele>
        <time>2015-10-25T11:58:41.937Z</time>
      </trkpt>
      <trkpt lat="45.93777" lon="4.7174">
        <ele>175.300003052</ele>
        <time>2015-10-25T11:58:43.014Z</time>
      </trkpt>
      <trkpt lat="45.93772" lon="4.71742">
        <ele>175.399993896</ele>
        <time>2015-10-25T11:58:43.936Z</time>
      </trkpt>
      <trkpt lat="45.93766" lon="4.71744">
        <ele>175.300003052</ele>
        <time>2015-10-25T11:58:44.963Z</time>
      </trkpt>
      <trkpt lat="45.93761" lon="4.71746">
        <ele>175.300003052</ele>
        <time>2015-10-25T11:58:45.94Z</time>
      </trkpt>
      <trkpt lat="45.93755" lon="4.71748">
        <ele>175.399993896</ele>
        <time>2015-10-25T11:58:46.97Z</time>
      </trkpt>
      <trkpt lat="45.9375" lon="4.7175">
        <ele>175.600006104</ele>
        <time>2015-10-25T11:58:47.973Z</time>
      </trkpt>
      <trkpt lat="45.93745" lon="4.71752">
        <ele>175.699996948</ele>
        <time>2015-10-25T11:58:48.963Z</time>
      </trkpt>
      <trkpt lat="45.93739" lon="4.71754">
        <ele>175.699996948</ele>
        <time>2015-10-25T11:58:49.94Z</time>
      </trkpt>
      <trkpt lat="45.93735" lon="4.71757">
        <ele>175.800003052</ele>
        <time>2015-10-25T11:58:50.964Z</time>
      </trkpt>
      <trkpt lat="45.9373" lon="4.7176">
        <ele>175.899993896</ele>
        <time>2015-10-25T11:58:51.941Z</time>
      </trkpt>
      <trkpt lat="45.93723" lon="4.71766">
        <ele>176.600006104</ele>
        <time>2015-10-25T11:58:53.964Z</time>
      </trkpt>
      <trkpt lat="45.93721" lon="4.71769">
        <ele>176.800003052</ele>
        <time>2015-10-25T11:58:54.954Z</time>
      </trkpt>
      <trkpt lat="45.93721" lon="4.71769">
        <ele>176.800003052</ele>
        <time>2015-10-25T11:58:55.017Z</time>
      </trkpt>
      <trkpt lat="45.9372" lon="4.7177">
        <ele>177.100006104</ele>
        <time>2015-10-25T11:58:55.94Z</time>
      </trkpt>
      <trkpt lat="45.93721" lon="4.71771">
        <ele>177.699996948</ele>
        <time>2015-10-25T11:59:07.963Z</time>
      </trkpt>
      <trkpt lat="45.9372" lon="4.71773">
        <ele>177.899993896</ele>
        <time>2015-10-25T11:59:08.939Z</time>
      </trkpt>
      <trkpt lat="45.93715" lon="4.71781">
        <ele>177.399993896</ele>
        <time>2015-10-25T11:59:11.969Z</time>
      </trkpt>
      <trkpt lat="45.93713" lon="4.71785">
        <ele>177.300003052</ele>
        <time>2015-10-25T11:59:12.939Z</time>
      </trkpt>
      <trkpt lat="45.9371" lon="4.71796">
        <ele>176.800003052</ele>
        <time>2015-10-25T11:59:14.966Z</time>
      </trkpt>
      <trkpt lat="45.93709" lon="4.71801">
        <ele>176.699996948</ele>
        <time>2015-10-25T11:59:15.954Z</time>
      </trkpt>
      <trkpt lat="45.93707" lon="4.71807">
        <ele>176.600006104</ele>
        <time>2015-10-25T11:59:16.966Z</time>
      </trkpt>
      <trkpt lat="45.93705" lon="4.71813">
        <ele>176.699996948</ele>
        <time>2015-10-25T11:59:17.937Z</time>
      </trkpt>
      <trkpt lat="45.93704" lon="4.71819">
        <ele>176.5</ele>
        <time>2015-10-25T11:59:18.981Z</time>
      </trkpt>
      <trkpt lat="45.93702" lon="4.71826">
        <ele>176.5</ele>
        <time>2015-10-25T11:59:19.939Z</time>
      </trkpt>
      <trkpt lat="45.93699" lon="4.71832">
        <ele>176.199996948</ele>
        <time>2015-10-25T11:59:20.967Z</time>
      </trkpt>
      <trkpt lat="45.93697" lon="4.71839">
        <ele>176.300003052</ele>
        <time>2015-10-25T11:59:21.939Z</time>
      </trkpt>
      <trkpt lat="45.93694" lon="4.71846">
        <ele>176.600006104</ele>
        <time>2015-10-25T11:59:22.967Z</time>
      </trkpt>
      <trkpt lat="45.93692" lon="4.71853">
        <ele>176.600006104</ele>
        <time>2015-10-25T11:59:23.941Z</time>
      </trkpt>
      <trkpt lat="45.9369" lon="4.71858">
        <ele>176.699996948</ele>
        <time>2015-10-25T11:59:24.963Z</time>
      </trkpt>
      <trkpt lat="45.93687" lon="4.71864">
        <ele>176.800003052</ele>
        <time>2015-10-25T11:59:25.942Z</time>
      </trkpt>
      <trkpt lat="45.93685" lon="4.71871">
        <ele>177</ele>
        <time>2015-10-25T11:59:26.97Z</time>
      </trkpt>
      <trkpt lat="45.93683" lon="4.71877">
        <ele>177</ele>
        <time>2015-10-25T11:59:27.94Z</time>
      </trkpt>
      <trkpt lat="45.93679" lon="4.71888">
        <ele>177.300003052</ele>
        <time>2015-10-25T11:59:29.968Z</time>
      </trkpt>
      <trkpt lat="45.93678" lon="4.71891">
        <ele>177.5</ele>
        <time>2015-10-25T11:59:30.939Z</time>
      </trkpt>
      <trkpt lat="45.93675" lon="4.71899">
        <ele>177.899993896</ele>
        <time>2015-10-25T11:59:32.967Z</time>
      </trkpt>
      <trkpt lat="45.93674" lon="4.71903">
        <ele>177.899993896</ele>
        <time>2015-10-25T11:59:33.939Z</time>
      </trkpt>
      <trkpt lat="45.9367" lon="4.71914">
        <ele>177.699996948</ele>
        <time>2015-10-25T11:59:35.966Z</time>
      </trkpt>
      <trkpt lat="45.93668" lon="4.7192">
        <ele>177.899993896</ele>
        <time>2015-10-25T11:59:36.954Z</time>
      </trkpt>
      <trkpt lat="45.93665" lon="4.71926">
        <ele>177.800003052</ele>
        <time>2015-10-25T11:59:37.975Z</time>
      </trkpt>
      <trkpt lat="45.93663" lon="4.71933">
        <ele>178.199996948</ele>
        <time>2015-10-25T11:59:38.939Z</time>
      </trkpt>
      <trkpt lat="45.9366" lon="4.71939">
        <ele>178.100006104</ele>
        <time>2015-10-25T11:59:39.984Z</time>
      </trkpt>
      <trkpt lat="45.93658" lon="4.71946">
        <ele>178.199996948</ele>
        <time>2015-10-25T11:59:40.94Z</time>
      </trkpt>
      <trkpt lat="45.93655" lon="4.71953">
        <ele>178.300003052</ele>
        <time>2015-10-25T11:59:41.967Z</time>
      </trkpt>
      <trkpt lat="45.93653" lon="4.71959">
        <ele>178.300003052</ele>
        <time>2015-10-25T11:59:42.939Z</time>
      </trkpt>
      <trkpt lat="45.9365" lon="4.71966">
        <ele>178.300003052</ele>
        <time>2015-10-25T11:59:43.963Z</time>
      </trkpt>
      <trkpt lat="45.93647" lon="4.71973">
        <ele>177.699996948</ele>
        <time>2015-10-25T11:59:44.939Z</time>
      </trkpt>
      <trkpt lat="45.93644" lon="4.71981">
        <ele>177.300003052</ele>
        <time>2015-10-25T11:59:46.083Z</time>
      </trkpt>
      <trkpt lat="45.93641" lon="4.71989">
        <ele>176.899993896</ele>
        <time>2015-10-25T11:59:46.939Z</time>
      </trkpt>
      <trkpt lat="45.93638" lon="4.71996">
        <ele>176.899993896</ele>
        <time>2015-10-25T11:59:47.963Z</time>
      </trkpt>
      <trkpt lat="45.93636" lon="4.72003">
        <ele>176.899993896</ele>
        <time>2015-10-25T11:59:48.94Z</time>
      </trkpt>
      <trkpt lat="45.93633" lon="4.72011">
        <ele>177.100006104</ele>
        <time>2015-10-25T11:59:49.963Z</time>
      </trkpt>
      <trkpt lat="45.9363" lon="4.72019">
        <ele>177.100006104</ele>
        <time>2015-10-25T11:59:50.936Z</time>
      </trkpt>
      <trkpt lat="45.93628" lon="4.72027">
        <ele>177.300003052</ele>
        <time>2015-10-25T11:59:51.972Z</time>
      </trkpt>
      <trkpt lat="45.93625" lon="4.72035">
        <ele>177.399993896</ele>
        <time>2015-10-25T11:59:52.937Z</time>
      </trkpt>
      <trkpt lat="45.93623" lon="4.72043">
        <ele>177.699996948</ele>
        <time>2015-10-25T11:59:53.967Z</time>
      </trkpt>
      <trkpt lat="45.93621" lon="4.72051">
        <ele>178</ele>
        <time>2015-10-25T11:59:54.939Z</time>
      </trkpt>
      <trkpt lat="45.93618" lon="4.72058">
        <ele>178.399993896</ele>
        <time>2015-10-25T11:59:55.966Z</time>
      </trkpt>
      <trkpt lat="45.93616" lon="4.72065">
        <ele>178.600006104</ele>
        <time>2015-10-25T11:59:56.939Z</time>
      </trkpt>
      <trkpt lat="45.93614" lon="4.72073">
        <ele>179</ele>
        <time>2015-10-25T11:59:57.984Z</time>
      </trkpt>
      <trkpt lat="45.93612" lon="4.7208">
        <ele>179.300003052</ele>
        <time>2015-10-25T11:59:58.941Z</time>
      </trkpt>
      <trkpt lat="45.93609" lon="4.72087">
        <ele>179.399993896</ele>
        <time>2015-10-25T11:59:59.966Z</time>
      </trkpt>
      <trkpt lat="45.93606" lon="4.72094">
        <ele>179.800003052</ele>
        <time>2015-10-25T12:00:00.938Z</time>
      </trkpt>
      <trkpt lat="45.93602" lon="4.721">
        <ele>179.800003052</ele>
        <time>2015-10-25T12:00:02.061Z</time>
      </trkpt>
      <trkpt lat="45.93598" lon="4.72107">
        <ele>179.699996948</ele>
        <time>2015-10-25T12:00:02.939Z</time>
      </trkpt>
      <trkpt lat="45.93596" lon="4.72114">
        <ele>179.699996948</ele>
        <time>2015-10-25T12:00:03.966Z</time>
      </trkpt>
      <trkpt lat="45.93592" lon="4.7212">
        <ele>178.899993896</ele>
        <time>2015-10-25T12:00:04.939Z</time>
      </trkpt>
      <trkpt lat="45.93589" lon="4.72128">
        <ele>179.199996948</ele>
        <time>2015-10-25T12:00:05.966Z</time>
      </trkpt>
      <trkpt lat="45.93586" lon="4.72134">
        <ele>179.399993896</ele>
        <time>2015-10-25T12:00:06.939Z</time>
      </trkpt>
      <trkpt lat="45.93584" lon="4.72142">
        <ele>179.5</ele>
        <time>2015-10-25T12:00:07.962Z</time>
      </trkpt>
      <trkpt lat="45.93582" lon="4.7215">
        <ele>179.600006104</ele>
        <time>2015-10-25T12:00:08.939Z</time>
      </trkpt>
      <trkpt lat="45.93579" lon="4.72158">
        <ele>179.399993896</ele>
        <time>2015-10-25T12:00:09.969Z</time>
      </trkpt>
      <trkpt lat="45.93575" lon="4.72167">
        <ele>178</ele>
        <time>2015-10-25T12:00:10.939Z</time>
      </trkpt>
      <trkpt lat="45.93571" lon="4.72175">
        <ele>177.5</ele>
        <time>2015-10-25T12:00:12.029Z</time>
      </trkpt>
      <trkpt lat="45.93569" lon="4.72183">
        <ele>177.199996948</ele>
        <time>2015-10-25T12:00:12.939Z</time>
      </trkpt>
      <trkpt lat="45.93565" lon="4.7219">
        <ele>176.699996948</ele>
        <time>2015-10-25T12:00:13.963Z</time>
      </trkpt>
      <trkpt lat="45.93562" lon="4.72198">
        <ele>176.600006104</ele>
        <time>2015-10-25T12:00:14.936Z</time>
      </trkpt>
      <trkpt lat="45.93558" lon="4.72204">
        <ele>175.300003052</ele>
        <time>2015-10-25T12:00:15.97Z</time>
      </trkpt>
      <trkpt lat="45.93555" lon="4.72211">
        <ele>174.800003052</ele>
        <time>2015-10-25T12:00:16.932Z</time>
      </trkpt>
      <trkpt lat="45.93552" lon="4.72218">
        <ele>174.399993896</ele>
        <time>2015-10-25T12:00:17.969Z</time>
      </trkpt>
      <trkpt lat="45.93548" lon="4.72224">
        <ele>173.899993896</ele>
        <time>2015-10-25T12:00:18.937Z</time>
      </trkpt>
      <trkpt lat="45.93545" lon="4.72231">
        <ele>173.5</ele>
        <time>2015-10-25T12:00:19.963Z</time>
      </trkpt>
      <trkpt lat="45.93543" lon="4.72238">
        <ele>173.300003052</ele>
        <time>2015-10-25T12:00:20.936Z</time>
      </trkpt>
      <trkpt lat="45.9354" lon="4.72244">
        <ele>173.300003052</ele>
        <time>2015-10-25T12:00:21.967Z</time>
      </trkpt>
      <trkpt lat="45.93537" lon="4.72251">
        <ele>173.399993896</ele>
        <time>2015-10-25T12:00:22.936Z</time>
      </trkpt>
      <trkpt lat="45.93535" lon="4.72258">
        <ele>173.600006104</ele>
        <time>2015-10-25T12:00:24.084Z</time>
      </trkpt>
      <trkpt lat="45.93532" lon="4.72265">
        <ele>173.100006104</ele>
        <time>2015-10-25T12:00:24.936Z</time>
      </trkpt>
      <trkpt lat="45.9353" lon="4.72272">
        <ele>172.899993896</ele>
        <time>2015-10-25T12:00:25.966Z</time>
      </trkpt>
      <trkpt lat="45.93526" lon="4.72278">
        <ele>172.5</ele>
        <time>2015-10-25T12:00:26.936Z</time>
      </trkpt>
      <trkpt lat="45.93523" lon="4.72286">
        <ele>172.300003052</ele>
        <time>2015-10-25T12:00:27.967Z</time>
      </trkpt>
      <trkpt lat="45.9352" lon="4.72292">
        <ele>171.800003052</ele>
        <time>2015-10-25T12:00:28.939Z</time>
      </trkpt>
      <trkpt lat="45.93516" lon="4.72299">
        <ele>171.600006104</ele>
        <time>2015-10-25T12:00:29.963Z</time>
      </trkpt>
      <trkpt lat="45.93513" lon="4.72306">
        <ele>171.300003052</ele>
        <time>2015-10-25T12:00:30.939Z</time>
      </trkpt>
      <trkpt lat="45.93508" lon="4.72312">
        <ele>170.800003052</ele>
        <time>2015-10-25T12:00:31.963Z</time>
      </trkpt>
      <trkpt lat="45.93504" lon="4.72319">
        <ele>170.899993896</ele>
        <time>2015-10-25T12:00:32.936Z</time>
      </trkpt>
      <trkpt lat="45.935" lon="4.72326">
        <ele>170.699996948</ele>
        <time>2015-10-25T12:00:34.077Z</time>
      </trkpt>
      <trkpt lat="45.93495" lon="4.72333">
        <ele>170.5</ele>
        <time>2015-10-25T12:00:34.972Z</time>
      </trkpt>
      <trkpt lat="45.9349" lon="4.72339">
        <ele>170.5</ele>
        <time>2015-10-25T12:00:35.967Z</time>
      </trkpt>
      <trkpt lat="45.93486" lon="4.72346">
        <ele>170.5</ele>
        <time>2015-10-25T12:00:36.939Z</time>
      </trkpt>
      <trkpt lat="45.93481" lon="4.72352">
        <ele>170.5</ele>
        <time>2015-10-25T12:00:37.967Z</time>
      </trkpt>
      <trkpt lat="45.93477" lon="4.72358">
        <ele>170.5</ele>
        <time>2015-10-25T12:00:38.936Z</time>
      </trkpt>
      <trkpt lat="45.93472" lon="4.72364">
        <ele>170.699996948</ele>
        <time>2015-10-25T12:00:39.991Z</time>
      </trkpt>
      <trkpt lat="45.93468" lon="4.7237">
        <ele>170.699996948</ele>
        <time>2015-10-25T12:00:40.936Z</time>
      </trkpt>
      <trkpt lat="45.93463" lon="4.72376">
        <ele>170.800003052</ele>
        <time>2015-10-25T12:00:41.963Z</time>
      </trkpt>
      <trkpt lat="45.93457" lon="4.72382">
        <ele>170.699996948</ele>
        <time>2015-10-25T12:00:42.939Z</time>
      </trkpt>
      <trkpt lat="45.93452" lon="4.72387">
        <ele>171.100006104</ele>
        <time>2015-10-25T12:00:43.968Z</time>
      </trkpt>
      <trkpt lat="45.93447" lon="4.72392">
        <ele>171.199996948</ele>
        <time>2015-10-25T12:00:44.937Z</time>
      </trkpt>
      <trkpt lat="45.93442" lon="4.72396">
        <ele>171.199996948</ele>
        <time>2015-10-25T12:00:45.967Z</time>
      </trkpt>
      <trkpt lat="45.93436" lon="4.72399">
        <ele>171.399993896</ele>
        <time>2015-10-25T12:00:46.939Z</time>
      </trkpt>
      <trkpt lat="45.93431" lon="4.72402">
        <ele>171.5</ele>
        <time>2015-10-25T12:00:47.963Z</time>
      </trkpt>
      <trkpt lat="45.93426" lon="4.72404">
        <ele>171.399993896</ele>
        <time>2015-10-25T12:00:48.939Z</time>
      </trkpt>
      <trkpt lat="45.93421" lon="4.72406">
        <ele>172</ele>
        <time>2015-10-25T12:00:49.963Z</time>
      </trkpt>
      <trkpt lat="45.93415" lon="4.72408">
        <ele>172.100006104</ele>
        <time>2015-10-25T12:00:50.939Z</time>
      </trkpt>
      <trkpt lat="45.9341" lon="4.72408">
        <ele>172.600006104</ele>
        <time>2015-10-25T12:00:51.967Z</time>
      </trkpt>
      <trkpt lat="45.93405" lon="4.72406">
        <ele>172.5</ele>
        <time>2015-10-25T12:00:52.927Z</time>
      </trkpt>
      <trkpt lat="45.934" lon="4.72405">
        <ele>172.600006104</ele>
        <time>2015-10-25T12:00:53.967Z</time>
      </trkpt>
      <trkpt lat="45.93396" lon="4.72406">
        <ele>172.300003052</ele>
        <time>2015-10-25T12:00:54.939Z</time>
      </trkpt>
      <trkpt lat="45.93391" lon="4.72408">
        <ele>172.100006104</ele>
        <time>2015-10-25T12:00:55.981Z</time>
      </trkpt>
      <trkpt lat="45.93387" lon="4.72412">
        <ele>172.399993896</ele>
        <time>2015-10-25T12:00:56.936Z</time>
      </trkpt>
      <trkpt lat="45.93385" lon="4.72419">
        <ele>172.399993896</ele>
        <time>2015-10-25T12:00:57.97Z</time>
      </trkpt>
      <trkpt lat="45.93385" lon="4.72427">
        <ele>172.300003052</ele>
        <time>2015-10-25T12:00:59.285Z</time>
      </trkpt>
      <trkpt lat="45.93387" lon="4.72435">
        <ele>172</ele>
        <time>2015-10-25T12:01:00.126Z</time>
      </trkpt>
      <trkpt lat="45.9339" lon="4.72442">
        <ele>171.199996948</ele>
        <time>2015-10-25T12:01:01.734Z</time>
      </trkpt>
      <trkpt lat="45.93391" lon="4.7245">
        <ele>171.199996948</ele>
        <time>2015-10-25T12:01:02.954Z</time>
      </trkpt>
      <trkpt lat="45.93391" lon="4.72458">
        <ele>171.199996948</ele>
        <time>2015-10-25T12:01:03.704Z</time>
      </trkpt>
      <trkpt lat="45.93389" lon="4.72465">
        <ele>171.199996948</ele>
        <time>2015-10-25T12:01:04.986Z</time>
      </trkpt>
      <trkpt lat="45.93386" lon="4.72471">
        <ele>171.100006104</ele>
        <time>2015-10-25T12:01:05.554Z</time>
      </trkpt>
      <trkpt lat="45.93386" lon="4.72471">
        <ele>171.100006104</ele>
        <time>2015-10-25T12:01:05.864Z</time>
      </trkpt>
      <trkpt lat="45.93378" lon="4.72481">
        <ele>170.699996948</ele>
        <time>2015-10-25T12:01:07.357Z</time>
      </trkpt>
      <trkpt lat="45.93373" lon="4.72487">
        <ele>170.699996948</ele>
        <time>2015-10-25T12:01:07.963Z</time>
      </trkpt>
      <trkpt lat="45.93369" lon="4.72492">
        <ele>170.600006104</ele>
        <time>2015-10-25T12:01:08.936Z</time>
      </trkpt>
      <trkpt lat="45.93364" lon="4.72498">
        <ele>170.600006104</ele>
        <time>2015-10-25T12:01:09.968Z</time>
      </trkpt>
      <trkpt lat="45.93359" lon="4.72503">
        <ele>170.5</ele>
        <time>2015-10-25T12:01:10.94Z</time>
      </trkpt>
      <trkpt lat="45.93355" lon="4.72509">
        <ele>170.5</ele>
        <time>2015-10-25T12:01:11.967Z</time>
      </trkpt>
      <trkpt lat="45.9335" lon="4.72515">
        <ele>170.399993896</ele>
        <time>2015-10-25T12:01:12.94Z</time>
      </trkpt>
      <trkpt lat="45.93346" lon="4.7252">
        <ele>170.199996948</ele>
        <time>2015-10-25T12:01:13.986Z</time>
      </trkpt>
      <trkpt lat="45.93342" lon="4.72525">
        <ele>170</ele>
        <time>2015-10-25T12:01:14.939Z</time>
      </trkpt>
      <trkpt lat="45.93338" lon="4.7253">
        <ele>169.800003052</ele>
        <time>2015-10-25T12:01:15.966Z</time>
      </trkpt>
      <trkpt lat="45.93334" lon="4.72535">
        <ele>169.5</ele>
        <time>2015-10-25T12:01:16.939Z</time>
      </trkpt>
      <trkpt lat="45.9333" lon="4.7254">
        <ele>169.300003052</ele>
        <time>2015-10-25T12:01:17.967Z</time>
      </trkpt>
      <trkpt lat="45.93325" lon="4.72545">
        <ele>169.199996948</ele>
        <time>2015-10-25T12:01:18.939Z</time>
      </trkpt>
      <trkpt lat="45.93321" lon="4.72549">
        <ele>169.300003052</ele>
        <time>2015-10-25T12:01:19.966Z</time>
      </trkpt>
      <trkpt lat="45.93316" lon="4.72555">
        <ele>169.199996948</ele>
        <time>2015-10-25T12:01:20.939Z</time>
      </trkpt>
      <trkpt lat="45.93312" lon="4.7256">
        <ele>168.899993896</ele>
        <time>2015-10-25T12:01:21.97Z</time>
      </trkpt>
      <trkpt lat="45.93307" lon="4.72566">
        <ele>169</ele>
        <time>2015-10-25T12:01:22.953Z</time>
      </trkpt>
      <trkpt lat="45.93302" lon="4.72571">
        <ele>168.600006104</ele>
        <time>2015-10-25T12:01:23.967Z</time>
      </trkpt>
      <trkpt lat="45.93297" lon="4.72577">
        <ele>168.300003052</ele>
        <time>2015-10-25T12:01:24.935Z</time>
      </trkpt>
      <trkpt lat="45.93292" lon="4.72582">
        <ele>168.300003052</ele>
        <time>2015-10-25T12:01:25.967Z</time>
      </trkpt>
      <trkpt lat="45.93288" lon="4.72588">
        <ele>168.5</ele>
        <time>2015-10-25T12:01:26.936Z</time>
      </trkpt>
      <trkpt lat="45.93283" lon="4.72593">
        <ele>168.399993896</ele>
        <time>2015-10-25T12:01:27.981Z</time>
      </trkpt>
      <trkpt lat="45.93279" lon="4.72599">
        <ele>168.5</ele>
        <time>2015-10-25T12:01:28.935Z</time>
      </trkpt>
      <trkpt lat="45.93274" lon="4.72604">
        <ele>168.5</ele>
        <time>2015-10-25T12:01:29.963Z</time>
      </trkpt>
      <trkpt lat="45.93269" lon="4.72609">
        <ele>168.699996948</ele>
        <time>2015-10-25T12:01:30.937Z</time>
      </trkpt>
      <trkpt lat="45.93265" lon="4.72615">
        <ele>168.699996948</ele>
        <time>2015-10-25T12:01:31.966Z</time>
      </trkpt>
      <trkpt lat="45.9326" lon="4.7262">
        <ele>168.699996948</ele>
        <time>2015-10-25T12:01:32.935Z</time>
      </trkpt>
      <trkpt lat="45.93256" lon="4.72626">
        <ele>168.899993896</ele>
        <time>2015-10-25T12:01:33.969Z</time>
      </trkpt>
      <trkpt lat="45.93251" lon="4.72631">
        <ele>168.899993896</ele>
        <time>2015-10-25T12:01:34.935Z</time>
      </trkpt>
      <trkpt lat="45.93246" lon="4.72637">
        <ele>169.100006104</ele>
        <time>2015-10-25T12:01:35.966Z</time>
      </trkpt>
      <trkpt lat="45.93242" lon="4.72642">
        <ele>169.199996948</ele>
        <time>2015-10-25T12:01:36.937Z</time>
      </trkpt>
      <trkpt lat="45.93237" lon="4.72648">
        <ele>169</ele>
        <time>2015-10-25T12:01:37.962Z</time>
      </trkpt>
      <trkpt lat="45.93232" lon="4.72653">
        <ele>169.300003052</ele>
        <time>2015-10-25T12:01:38.936Z</time>
      </trkpt>
      <trkpt lat="45.93227" lon="4.72658">
        <ele>169.399993896</ele>
        <time>2015-10-25T12:01:39.987Z</time>
      </trkpt>
      <trkpt lat="45.93222" lon="4.72664">
        <ele>169.5</ele>
        <time>2015-10-25T12:01:40.939Z</time>
      </trkpt>
      <trkpt lat="45.93217" lon="4.72669">
        <ele>169.699996948</ele>
        <time>2015-10-25T12:01:41.963Z</time>
      </trkpt>
      <trkpt lat="45.93213" lon="4.72674">
        <ele>169.899993896</ele>
        <time>2015-10-25T12:01:42.935Z</time>
      </trkpt>
      <trkpt lat="45.93208" lon="4.72679">
        <ele>170.399993896</ele>
        <time>2015-10-25T12:01:43.978Z</time>
      </trkpt>
      <trkpt lat="45.93204" lon="4.72685">
        <ele>170.5</ele>
        <time>2015-10-25T12:01:44.939Z</time>
      </trkpt>
      <trkpt lat="45.93199" lon="4.72691">
        <ele>170.600006104</ele>
        <time>2015-10-25T12:01:45.974Z</time>
      </trkpt>
      <trkpt lat="45.93194" lon="4.72697">
        <ele>170.5</ele>
        <time>2015-10-25T12:01:46.952Z</time>
      </trkpt>
      <trkpt lat="45.93189" lon="4.72703">
        <ele>170.399993896</ele>
        <time>2015-10-25T12:01:47.963Z</time>
      </trkpt>
      <trkpt lat="45.93185" lon="4.72708">
        <ele>170.399993896</ele>
        <time>2015-10-25T12:01:48.931Z</time>
      </trkpt>
      <trkpt lat="45.93179" lon="4.72714">
        <ele>170.199996948</ele>
        <time>2015-10-25T12:01:49.962Z</time>
      </trkpt>
      <trkpt lat="45.93175" lon="4.7272">
        <ele>169.899993896</ele>
        <time>2015-10-25T12:01:50.935Z</time>
      </trkpt>
      <trkpt lat="45.9317" lon="4.72725">
        <ele>169.699996948</ele>
        <time>2015-10-25T12:01:51.966Z</time>
      </trkpt>
      <trkpt lat="45.93165" lon="4.7273">
        <ele>169.300003052</ele>
        <time>2015-10-25T12:01:52.935Z</time>
      </trkpt>
      <trkpt lat="45.9316" lon="4.72736">
        <ele>169.100006104</ele>
        <time>2015-10-25T12:01:53.963Z</time>
      </trkpt>
      <trkpt lat="45.93155" lon="4.72741">
        <ele>168.899993896</ele>
        <time>2015-10-25T12:01:54.936Z</time>
      </trkpt>
      <trkpt lat="45.9315" lon="4.72746">
        <ele>168.800003052</ele>
        <time>2015-10-25T12:01:55.966Z</time>
      </trkpt>
      <trkpt lat="45.93145" lon="4.72752">
        <ele>168.899993896</ele>
        <time>2015-10-25T12:01:56.935Z</time>
      </trkpt>
      <trkpt lat="45.9314" lon="4.72758">
        <ele>168.800003052</ele>
        <time>2015-10-25T12:01:57.966Z</time>
      </trkpt>
      <trkpt lat="45.93135" lon="4.72763">
        <ele>168.800003052</ele>
        <time>2015-10-25T12:01:58.935Z</time>
      </trkpt>
      <trkpt lat="45.93131" lon="4.72768">
        <ele>168.800003052</ele>
        <time>2015-10-25T12:01:59.978Z</time>
      </trkpt>
      <trkpt lat="45.93126" lon="4.72774">
        <ele>168.800003052</ele>
        <time>2015-10-25T12:02:00.939Z</time>
      </trkpt>
      <trkpt lat="45.93122" lon="4.72779">
        <ele>168.800003052</ele>
        <time>2015-10-25T12:02:01.965Z</time>
      </trkpt>
      <trkpt lat="45.93117" lon="4.72785">
        <ele>168.800003052</ele>
        <time>2015-10-25T12:02:02.937Z</time>
      </trkpt>
      <trkpt lat="45.93113" lon="4.72791">
        <ele>168.800003052</ele>
        <time>2015-10-25T12:02:03.966Z</time>
      </trkpt>
      <trkpt lat="45.93109" lon="4.72796">
        <ele>168.899993896</ele>
        <time>2015-10-25T12:02:04.936Z</time>
      </trkpt>
      <trkpt lat="45.93104" lon="4.72802">
        <ele>168.899993896</ele>
        <time>2015-10-25T12:02:05.975Z</time>
      </trkpt>
      <trkpt lat="45.931" lon="4.72807">
        <ele>168.899993896</ele>
        <time>2015-10-25T12:02:06.937Z</time>
      </trkpt>
      <trkpt lat="45.93095" lon="4.72812">
        <ele>169</ele>
        <time>2015-10-25T12:02:07.967Z</time>
      </trkpt>
      <trkpt lat="45.9309" lon="4.72817">
        <ele>169.199996948</ele>
        <time>2015-10-25T12:02:08.939Z</time>
      </trkpt>
      <trkpt lat="45.93086" lon="4.72822">
        <ele>169.199996948</ele>
        <time>2015-10-25T12:02:09.969Z</time>
      </trkpt>
      <trkpt lat="45.93081" lon="4.72826">
        <ele>169.300003052</ele>
        <time>2015-10-25T12:02:10.939Z</time>
      </trkpt>
      <trkpt lat="45.93076" lon="4.72831">
        <ele>169.399993896</ele>
        <time>2015-10-25T12:02:11.967Z</time>
      </trkpt>
      <trkpt lat="45.93071" lon="4.72835">
        <ele>169.399993896</ele>
        <time>2015-10-25T12:02:12.939Z</time>
      </trkpt>
      <trkpt lat="45.93065" lon="4.72839">
        <ele>169.5</ele>
        <time>2015-10-25T12:02:13.962Z</time>
      </trkpt>
      <trkpt lat="45.9306" lon="4.72843">
        <ele>169.600006104</ele>
        <time>2015-10-25T12:02:14.939Z</time>
      </trkpt>
      <trkpt lat="45.93058" lon="4.72854">
        <ele>169.600006104</ele>
        <time>2015-10-25T12:02:16.015Z</time>
      </trkpt>
      <trkpt lat="45.93054" lon="4.72859">
        <ele>169.699996948</ele>
        <time>2015-10-25T12:02:16.939Z</time>
      </trkpt>
      <trkpt lat="45.93049" lon="4.72865">
        <ele>169.899993896</ele>
        <time>2015-10-25T12:02:17.967Z</time>
      </trkpt>
      <trkpt lat="45.93044" lon="4.72868">
        <ele>169.800003052</ele>
        <time>2015-10-25T12:02:18.939Z</time>
      </trkpt>
      <trkpt lat="45.93039" lon="4.72873">
        <ele>169.699996948</ele>
        <time>2015-10-25T12:02:19.962Z</time>
      </trkpt>
      <trkpt lat="45.93035" lon="4.72878">
        <ele>169.699996948</ele>
        <time>2015-10-25T12:02:20.952Z</time>
      </trkpt>
      <trkpt lat="45.93031" lon="4.72882">
        <ele>169.600006104</ele>
        <time>2015-10-25T12:02:21.968Z</time>
      </trkpt>
      <trkpt lat="45.93027" lon="4.72887">
        <ele>169.600006104</ele>
        <time>2015-10-25T12:02:22.936Z</time>
      </trkpt>
      <trkpt lat="45.93023" lon="4.72892">
        <ele>169.399993896</ele>
        <time>2015-10-25T12:02:23.964Z</time>
      </trkpt>
      <trkpt lat="45.93019" lon="4.72897">
        <ele>169.399993896</ele>
        <time>2015-10-25T12:02:24.936Z</time>
      </trkpt>
      <trkpt lat="45.93014" lon="4.72903">
        <ele>169</ele>
        <time>2015-10-25T12:02:25.963Z</time>
      </trkpt>
      <trkpt lat="45.93011" lon="4.72908">
        <ele>169</ele>
        <time>2015-10-25T12:02:26.935Z</time>
      </trkpt>
      <trkpt lat="45.93007" lon="4.72913">
        <ele>168.699996948</ele>
        <time>2015-10-25T12:02:27.968Z</time>
      </trkpt>
      <trkpt lat="45.93003" lon="4.72917">
        <ele>168.800003052</ele>
        <time>2015-10-25T12:02:28.936Z</time>
      </trkpt>
      <trkpt lat="45.92999" lon="4.72922">
        <ele>169.100006104</ele>
        <time>2015-10-25T12:02:29.964Z</time>
      </trkpt>
      <trkpt lat="45.92995" lon="4.72927">
        <ele>169</ele>
        <time>2015-10-25T12:02:30.935Z</time>
      </trkpt>
      <trkpt lat="45.9299" lon="4.72932">
        <ele>169.300003052</ele>
        <time>2015-10-25T12:02:31.962Z</time>
      </trkpt>
      <trkpt lat="45.92986" lon="4.72936">
        <ele>169.199996948</ele>
        <time>2015-10-25T12:02:32.959Z</time>
      </trkpt>
      <trkpt lat="45.92982" lon="4.72941">
        <ele>169.300003052</ele>
        <time>2015-10-25T12:02:33.965Z</time>
      </trkpt>
      <trkpt lat="45.92978" lon="4.72947">
        <ele>168.899993896</ele>
        <time>2015-10-25T12:02:34.935Z</time>
      </trkpt>
      <trkpt lat="45.92974" lon="4.72952">
        <ele>169.100006104</ele>
        <time>2015-10-25T12:02:35.963Z</time>
      </trkpt>
      <trkpt lat="45.9297" lon="4.72957">
        <ele>169</ele>
        <time>2015-10-25T12:02:36.935Z</time>
      </trkpt>
      <trkpt lat="45.92965" lon="4.72962">
        <ele>169.100006104</ele>
        <time>2015-10-25T12:02:37.968Z</time>
      </trkpt>
      <trkpt lat="45.92961" lon="4.72967">
        <ele>169.300003052</ele>
        <time>2015-10-25T12:02:38.936Z</time>
      </trkpt>
      <trkpt lat="45.92956" lon="4.72973">
        <ele>169.100006104</ele>
        <time>2015-10-25T12:02:39.965Z</time>
      </trkpt>
      <trkpt lat="45.92952" lon="4.72978">
        <ele>169</ele>
        <time>2015-10-25T12:02:40.936Z</time>
      </trkpt>
      <trkpt lat="45.92947" lon="4.72983">
        <ele>169.300003052</ele>
        <time>2015-10-25T12:02:41.977Z</time>
      </trkpt>
      <trkpt lat="45.92943" lon="4.72988">
        <ele>169.5</ele>
        <time>2015-10-25T12:02:42.935Z</time>
      </trkpt>
      <trkpt lat="45.92939" lon="4.72993">
        <ele>169.5</ele>
        <time>2015-10-25T12:02:43.962Z</time>
      </trkpt>
      <trkpt lat="45.92935" lon="4.72998">
        <ele>169.600006104</ele>
        <time>2015-10-25T12:02:44.939Z</time>
      </trkpt>
      <trkpt lat="45.92931" lon="4.73002">
        <ele>169.899993896</ele>
        <time>2015-10-25T12:02:45.967Z</time>
      </trkpt>
      <trkpt lat="45.92927" lon="4.73008">
        <ele>169.5</ele>
        <time>2015-10-25T12:02:46.952Z</time>
      </trkpt>
      <trkpt lat="45.92923" lon="4.73012">
        <ele>169.699996948</ele>
        <time>2015-10-25T12:02:47.978Z</time>
      </trkpt>
      <trkpt lat="45.92919" lon="4.73018">
        <ele>169.800003052</ele>
        <time>2015-10-25T12:02:48.948Z</time>
      </trkpt>
      <trkpt lat="45.92915" lon="4.73023">
        <ele>170</ele>
        <time>2015-10-25T12:02:49.979Z</time>
      </trkpt>
      <trkpt lat="45.92911" lon="4.73028">
        <ele>170.100006104</ele>
        <time>2015-10-25T12:02:50.935Z</time>
      </trkpt>
      <trkpt lat="45.92907" lon="4.73034">
        <ele>170.100006104</ele>
        <time>2015-10-25T12:02:51.966Z</time>
      </trkpt>
      <trkpt lat="45.92903" lon="4.73039">
        <ele>170</ele>
        <time>2015-10-25T12:02:52.949Z</time>
      </trkpt>
      <trkpt lat="45.92899" lon="4.73044">
        <ele>169.899993896</ele>
        <time>2015-10-25T12:02:53.966Z</time>
      </trkpt>
      <trkpt lat="45.92895" lon="4.7305">
        <ele>169.899993896</ele>
        <time>2015-10-25T12:02:54.936Z</time>
      </trkpt>
      <trkpt lat="45.92891" lon="4.73057">
        <ele>169.699996948</ele>
        <time>2015-10-25T12:02:56.018Z</time>
      </trkpt>
      <trkpt lat="45.92887" lon="4.73063">
        <ele>169.600006104</ele>
        <time>2015-10-25T12:02:56.935Z</time>
      </trkpt>
      <trkpt lat="45.92884" lon="4.7307">
        <ele>169.399993896</ele>
        <time>2015-10-25T12:02:57.98Z</time>
      </trkpt>
      <trkpt lat="45.92881" lon="4.73078">
        <ele>169.199996948</ele>
        <time>2015-10-25T12:02:58.939Z</time>
      </trkpt>
      <trkpt lat="45.92878" lon="4.73085">
        <ele>169.100006104</ele>
        <time>2015-10-25T12:02:59.963Z</time>
      </trkpt>
      <trkpt lat="45.92876" lon="4.73093">
        <ele>169.100006104</ele>
        <time>2015-10-25T12:03:00.935Z</time>
      </trkpt>
      <trkpt lat="45.92873" lon="4.73101">
        <ele>168.899993896</ele>
        <time>2015-10-25T12:03:01.962Z</time>
      </trkpt>
      <trkpt lat="45.92871" lon="4.73108">
        <ele>168.800003052</ele>
        <time>2015-10-25T12:03:02.935Z</time>
      </trkpt>
      <trkpt lat="45.9287" lon="4.73116">
        <ele>168.699996948</ele>
        <time>2015-10-25T12:03:03.965Z</time>
      </trkpt>
      <trkpt lat="45.92868" lon="4.73123">
        <ele>168.600006104</ele>
        <time>2015-10-25T12:03:04.938Z</time>
      </trkpt>
      <trkpt lat="45.92867" lon="4.73131">
        <ele>168.399993896</ele>
        <time>2015-10-25T12:03:05.967Z</time>
      </trkpt>
      <trkpt lat="45.92866" lon="4.73138">
        <ele>168.199996948</ele>
        <time>2015-10-25T12:03:06.939Z</time>
      </trkpt>
      <trkpt lat="45.92865" lon="4.73145">
        <ele>168</ele>
        <time>2015-10-25T12:03:07.962Z</time>
      </trkpt>
      <trkpt lat="45.92864" lon="4.73153">
        <ele>168</ele>
        <time>2015-10-25T12:03:08.935Z</time>
      </trkpt>
      <trkpt lat="45.92863" lon="4.73161">
        <ele>167.699996948</ele>
        <time>2015-10-25T12:03:09.965Z</time>
      </trkpt>
      <trkpt lat="45.92862" lon="4.73169">
        <ele>167.300003052</ele>
        <time>2015-10-25T12:03:10.935Z</time>
      </trkpt>
      <trkpt lat="45.92861" lon="4.73177">
        <ele>167.100006104</ele>
        <time>2015-10-25T12:03:11.967Z</time>
      </trkpt>
      <trkpt lat="45.92861" lon="4.73185">
        <ele>167.100006104</ele>
        <time>2015-10-25T12:03:12.935Z</time>
      </trkpt>
      <trkpt lat="45.9286" lon="4.73194">
        <ele>167.100006104</ele>
        <time>2015-10-25T12:03:13.977Z</time>
      </trkpt>
      <trkpt lat="45.92859" lon="4.73202">
        <ele>167.300003052</ele>
        <time>2015-10-25T12:03:15.014Z</time>
      </trkpt>
      <trkpt lat="45.92859" lon="4.7321">
        <ele>167.100006104</ele>
        <time>2015-10-25T12:03:15.965Z</time>
      </trkpt>
      <trkpt lat="45.92858" lon="4.73218">
        <ele>167</ele>
        <time>2015-10-25T12:03:16.952Z</time>
      </trkpt>
      <trkpt lat="45.92857" lon="4.73227">
        <ele>167.100006104</ele>
        <time>2015-10-25T12:03:17.997Z</time>
      </trkpt>
      <trkpt lat="45.92856" lon="4.73234">
        <ele>166.800003052</ele>
        <time>2015-10-25T12:03:18.935Z</time>
      </trkpt>
      <trkpt lat="45.92856" lon="4.73242">
        <ele>166.600006104</ele>
        <time>2015-10-25T12:03:19.968Z</time>
      </trkpt>
      <trkpt lat="45.92855" lon="4.7325">
        <ele>167</ele>
        <time>2015-10-25T12:03:20.936Z</time>
      </trkpt>
      <trkpt lat="45.92854" lon="4.73258">
        <ele>166.899993896</ele>
        <time>2015-10-25T12:03:21.966Z</time>
      </trkpt>
      <trkpt lat="45.92853" lon="4.73265">
        <ele>166.800003052</ele>
        <time>2015-10-25T12:03:22.935Z</time>
      </trkpt>
      <trkpt lat="45.92852" lon="4.73273">
        <ele>166.600006104</ele>
        <time>2015-10-25T12:03:23.963Z</time>
      </trkpt>
      <trkpt lat="45.92851" lon="4.73281">
        <ele>166.699996948</ele>
        <time>2015-10-25T12:03:25.041Z</time>
      </trkpt>
      <trkpt lat="45.92849" lon="4.7329">
        <ele>166.699996948</ele>
        <time>2015-10-25T12:03:25.966Z</time>
      </trkpt>
      <trkpt lat="45.92848" lon="4.73298">
        <ele>166.199996948</ele>
        <time>2015-10-25T12:03:26.939Z</time>
      </trkpt>
      <trkpt lat="45.92848" lon="4.73307">
        <ele>166.199996948</ele>
        <time>2015-10-25T12:03:27.965Z</time>
      </trkpt>
      <trkpt lat="45.92847" lon="4.73315">
        <ele>166</ele>
        <time>2015-10-25T12:03:28.935Z</time>
      </trkpt>
      <trkpt lat="45.92846" lon="4.73323">
        <ele>166.100006104</ele>
        <time>2015-10-25T12:03:29.978Z</time>
      </trkpt>
      <trkpt lat="45.92844" lon="4.73332">
        <ele>166.300003052</ele>
        <time>2015-10-25T12:03:30.939Z</time>
      </trkpt>
      <trkpt lat="45.92843" lon="4.73339">
        <ele>166.100006104</ele>
        <time>2015-10-25T12:03:31.965Z</time>
      </trkpt>
      <trkpt lat="45.92843" lon="4.73347">
        <ele>166.5</ele>
        <time>2015-10-25T12:03:32.938Z</time>
      </trkpt>
      <trkpt lat="45.92841" lon="4.73354">
        <ele>166.800003052</ele>
        <time>2015-10-25T12:03:34.054Z</time>
      </trkpt>
      <trkpt lat="45.92841" lon="4.73362">
        <ele>166.800003052</ele>
        <time>2015-10-25T12:03:34.939Z</time>
      </trkpt>
      <trkpt lat="45.9284" lon="4.7337">
        <ele>166.600006104</ele>
        <time>2015-10-25T12:03:36.001Z</time>
      </trkpt>
      <trkpt lat="45.92839" lon="4.73377">
        <ele>166.600006104</ele>
        <time>2015-10-25T12:03:36.939Z</time>
      </trkpt>
      <trkpt lat="45.92838" lon="4.73385">
        <ele>166.5</ele>
        <time>2015-10-25T12:03:37.962Z</time>
      </trkpt>
      <trkpt lat="45.92837" lon="4.73394">
        <ele>166.600006104</ele>
        <time>2015-10-25T12:03:38.938Z</time>
      </trkpt>
      <trkpt lat="45.92835" lon="4.73402">
        <ele>166.699996948</ele>
        <time>2015-10-25T12:03:39.968Z</time>
      </trkpt>
      <trkpt lat="45.92835" lon="4.7341">
        <ele>166.800003052</ele>
        <time>2015-10-25T12:03:40.938Z</time>
      </trkpt>
      <trkpt lat="45.92834" lon="4.73418">
        <ele>167.100006104</ele>
        <time>2015-10-25T12:03:41.963Z</time>
      </trkpt>
      <trkpt lat="45.92832" lon="4.73426">
        <ele>167.300003052</ele>
        <time>2015-10-25T12:03:42.938Z</time>
      </trkpt>
      <trkpt lat="45.92832" lon="4.73434">
        <ele>167.399993896</ele>
        <time>2015-10-25T12:03:43.962Z</time>
      </trkpt>
      <trkpt lat="45.9283" lon="4.73442">
        <ele>167.699996948</ele>
        <time>2015-10-25T12:03:44.938Z</time>
      </trkpt>
      <trkpt lat="45.92829" lon="4.7345">
        <ele>167.899993896</ele>
        <time>2015-10-25T12:03:45.986Z</time>
      </trkpt>
      <trkpt lat="45.92828" lon="4.73458">
        <ele>168</ele>
        <time>2015-10-25T12:03:46.943Z</time>
      </trkpt>
      <trkpt lat="45.92827" lon="4.73467">
        <ele>168</ele>
        <time>2015-10-25T12:03:47.963Z</time>
      </trkpt>
      <trkpt lat="45.92826" lon="4.73475">
        <ele>168.199996948</ele>
        <time>2015-10-25T12:03:48.935Z</time>
      </trkpt>
      <trkpt lat="45.92826" lon="4.73483">
        <ele>168.399993896</ele>
        <time>2015-10-25T12:03:49.966Z</time>
      </trkpt>
      <trkpt lat="45.92825" lon="4.7349">
        <ele>168.600006104</ele>
        <time>2015-10-25T12:03:50.938Z</time>
      </trkpt>
      <trkpt lat="45.92824" lon="4.73498">
        <ele>168.600006104</ele>
        <time>2015-10-25T12:03:51.965Z</time>
      </trkpt>
      <trkpt lat="45.92823" lon="4.73505">
        <ele>168.800003052</ele>
        <time>2015-10-25T12:03:52.948Z</time>
      </trkpt>
      <trkpt lat="45.92822" lon="4.73512">
        <ele>168.600006104</ele>
        <time>2015-10-25T12:03:53.997Z</time>
      </trkpt>
      <trkpt lat="45.92821" lon="4.7352">
        <ele>168.5</ele>
        <time>2015-10-25T12:03:54.935Z</time>
      </trkpt>
      <trkpt lat="45.9282" lon="4.73527">
        <ele>168.5</ele>
        <time>2015-10-25T12:03:55.962Z</time>
      </trkpt>
      <trkpt lat="45.9282" lon="4.73534">
        <ele>168.5</ele>
        <time>2015-10-25T12:03:56.935Z</time>
      </trkpt>
      <trkpt lat="45.92819" lon="4.73542">
        <ele>168.5</ele>
        <time>2015-10-25T12:03:57.981Z</time>
      </trkpt>
      <trkpt lat="45.92819" lon="4.73549">
        <ele>168.5</ele>
        <time>2015-10-25T12:03:58.935Z</time>
      </trkpt>
      <trkpt lat="45.92818" lon="4.73556">
        <ele>168.600006104</ele>
        <time>2015-10-25T12:03:59.967Z</time>
      </trkpt>
      <trkpt lat="45.92817" lon="4.73564">
        <ele>169</ele>
        <time>2015-10-25T12:04:00.935Z</time>
      </trkpt>
      <trkpt lat="45.92817" lon="4.73571">
        <ele>169.199996948</ele>
        <time>2015-10-25T12:04:01.984Z</time>
      </trkpt>
      <trkpt lat="45.92817" lon="4.73578">
        <ele>168.899993896</ele>
        <time>2015-10-25T12:04:02.935Z</time>
      </trkpt>
      <trkpt lat="45.92817" lon="4.73586">
        <ele>168.800003052</ele>
        <time>2015-10-25T12:04:03.965Z</time>
      </trkpt>
      <trkpt lat="45.92817" lon="4.73593">
        <ele>168.899993896</ele>
        <time>2015-10-25T12:04:04.935Z</time>
      </trkpt>
      <trkpt lat="45.92818" lon="4.73602">
        <ele>168.800003052</ele>
        <time>2015-10-25T12:04:05.967Z</time>
      </trkpt>
      <trkpt lat="45.92818" lon="4.73609">
        <ele>168.600006104</ele>
        <time>2015-10-25T12:04:06.935Z</time>
      </trkpt>
      <trkpt lat="45.92817" lon="4.73616">
        <ele>168.5</ele>
        <time>2015-10-25T12:04:07.973Z</time>
      </trkpt>
      <trkpt lat="45.92815" lon="4.73623">
        <ele>168.699996948</ele>
        <time>2015-10-25T12:04:08.945Z</time>
      </trkpt>
      <trkpt lat="45.92812" lon="4.73628">
        <ele>168.699996948</ele>
        <time>2015-10-25T12:04:09.966Z</time>
      </trkpt>
      <trkpt lat="45.92808" lon="4.73633">
        <ele>168.800003052</ele>
        <time>2015-10-25T12:04:10.935Z</time>
      </trkpt>
      <trkpt lat="45.92805" lon="4.73639">
        <ele>169</ele>
        <time>2015-10-25T12:04:11.97Z</time>
      </trkpt>
      <trkpt lat="45.92803" lon="4.73645">
        <ele>168.800003052</ele>
        <time>2015-10-25T12:04:12.939Z</time>
      </trkpt>
      <trkpt lat="45.92801" lon="4.73652">
        <ele>168.899993896</ele>
        <time>2015-10-25T12:04:13.966Z</time>
      </trkpt>
      <trkpt lat="45.928" lon="4.73659">
        <ele>168.800003052</ele>
        <time>2015-10-25T12:04:14.938Z</time>
      </trkpt>
      <trkpt lat="45.92798" lon="4.73665">
        <ele>168.800003052</ele>
        <time>2015-10-25T12:04:16.026Z</time>
      </trkpt>
      <trkpt lat="45.92797" lon="4.73672">
        <ele>168.800003052</ele>
        <time>2015-10-25T12:04:16.939Z</time>
      </trkpt>
      <trkpt lat="45.92795" lon="4.73678">
        <ele>169</ele>
        <time>2015-10-25T12:04:17.994Z</time>
      </trkpt>
      <trkpt lat="45.92794" lon="4.73685">
        <ele>169</ele>
        <time>2015-10-25T12:04:18.935Z</time>
      </trkpt>
      <trkpt lat="45.92792" lon="4.73692">
        <ele>169</ele>
        <time>2015-10-25T12:04:19.962Z</time>
      </trkpt>
      <trkpt lat="45.9279" lon="4.73698">
        <ele>168.699996948</ele>
        <time>2015-10-25T12:04:20.935Z</time>
      </trkpt>
      <trkpt lat="45.92789" lon="4.73704">
        <ele>169.100006104</ele>
        <time>2015-10-25T12:04:21.969Z</time>
      </trkpt>
      <trkpt lat="45.92788" lon="4.73711">
        <ele>168.699996948</ele>
        <time>2015-10-25T12:04:22.938Z</time>
      </trkpt>
      <trkpt lat="45.92786" lon="4.73722">
        <ele>169</ele>
        <time>2015-10-25T12:04:24.966Z</time>
      </trkpt>
      <trkpt lat="45.92784" lon="4.73727">
        <ele>169.100006104</ele>
        <time>2015-10-25T12:04:25.938Z</time>
      </trkpt>
      <trkpt lat="45.92777" lon="4.73732">
        <ele>168.600006104</ele>
        <time>2015-10-25T12:04:27.969Z</time>
      </trkpt>
      <trkpt lat="45.92773" lon="4.73731">
        <ele>168.699996948</ele>
        <time>2015-10-25T12:04:28.934Z</time>
      </trkpt>
      <trkpt lat="45.92766" lon="4.73729">
        <ele>168.300003052</ele>
        <time>2015-10-25T12:04:30.962Z</time>
      </trkpt>
      <trkpt lat="45.92761" lon="4.73727">
        <ele>168.199996948</ele>
        <time>2015-10-25T12:04:31.938Z</time>
      </trkpt>
      <trkpt lat="45.92756" lon="4.73726">
        <ele>168.199996948</ele>
        <time>2015-10-25T12:04:32.965Z</time>
      </trkpt>
      <trkpt lat="45.9275" lon="4.73725">
        <ele>168</ele>
        <time>2015-10-25T12:04:33.959Z</time>
      </trkpt>
      <trkpt lat="45.92745" lon="4.73724">
        <ele>168.300003052</ele>
        <time>2015-10-25T12:04:34.966Z</time>
      </trkpt>
      <trkpt lat="45.92739" lon="4.73722">
        <ele>168.199996948</ele>
        <time>2015-10-25T12:04:35.94Z</time>
      </trkpt>
      <trkpt lat="45.92733" lon="4.73721">
        <ele>168.199996948</ele>
        <time>2015-10-25T12:04:36.962Z</time>
      </trkpt>
      <trkpt lat="45.92727" lon="4.7372">
        <ele>168.199996948</ele>
        <time>2015-10-25T12:04:37.938Z</time>
      </trkpt>
      <trkpt lat="45.92722" lon="4.73718">
        <ele>167.899993896</ele>
        <time>2015-10-25T12:04:38.969Z</time>
      </trkpt>
      <trkpt lat="45.92716" lon="4.73716">
        <ele>168</ele>
        <time>2015-10-25T12:04:39.941Z</time>
      </trkpt>
      <trkpt lat="45.92711" lon="4.73714">
        <ele>168</ele>
        <time>2015-10-25T12:04:40.965Z</time>
      </trkpt>
      <trkpt lat="45.92706" lon="4.73713">
        <ele>168</ele>
        <time>2015-10-25T12:04:41.936Z</time>
      </trkpt>
      <trkpt lat="45.92701" lon="4.73711">
        <ele>168.199996948</ele>
        <time>2015-10-25T12:04:42.962Z</time>
      </trkpt>
      <trkpt lat="45.92696" lon="4.73709">
        <ele>168.399993896</ele>
        <time>2015-10-25T12:04:43.939Z</time>
      </trkpt>
      <trkpt lat="45.92691" lon="4.73707">
        <ele>168.600006104</ele>
        <time>2015-10-25T12:04:44.962Z</time>
      </trkpt>
      <trkpt lat="45.92685" lon="4.73706">
        <ele>168.899993896</ele>
        <time>2015-10-25T12:04:45.939Z</time>
      </trkpt>
      <trkpt lat="45.9268" lon="4.73704">
        <ele>169</ele>
        <time>2015-10-25T12:04:47.003Z</time>
      </trkpt>
      <trkpt lat="45.92674" lon="4.73703">
        <ele>169.399993896</ele>
        <time>2015-10-25T12:04:47.94Z</time>
      </trkpt>
      <trkpt lat="45.92669" lon="4.737">
        <ele>169.399993896</ele>
        <time>2015-10-25T12:04:48.968Z</time>
      </trkpt>
      <trkpt lat="45.92664" lon="4.73697">
        <ele>169.300003052</ele>
        <time>2015-10-25T12:04:49.935Z</time>
      </trkpt>
      <trkpt lat="45.92659" lon="4.73694">
        <ele>169.399993896</ele>
        <time>2015-10-25T12:04:50.962Z</time>
      </trkpt>
      <trkpt lat="45.92655" lon="4.7369">
        <ele>169.899993896</ele>
        <time>2015-10-25T12:04:51.938Z</time>
      </trkpt>
      <trkpt lat="45.92651" lon="4.73685">
        <ele>170</ele>
        <time>2015-10-25T12:04:53.067Z</time>
      </trkpt>
      <trkpt lat="45.92648" lon="4.73681">
        <ele>170.199996948</ele>
        <time>2015-10-25T12:04:53.94Z</time>
      </trkpt>
      <trkpt lat="45.92645" lon="4.73676">
        <ele>170.300003052</ele>
        <time>2015-10-25T12:04:54.966Z</time>
      </trkpt>
      <trkpt lat="45.92642" lon="4.7367">
        <ele>170.600006104</ele>
        <time>2015-10-25T12:04:55.938Z</time>
      </trkpt>
      <trkpt lat="45.92638" lon="4.73665">
        <ele>170.600006104</ele>
        <time>2015-10-25T12:04:56.966Z</time>
      </trkpt>
      <trkpt lat="45.92635" lon="4.73659">
        <ele>170.699996948</ele>
        <time>2015-10-25T12:04:57.942Z</time>
      </trkpt>
      <trkpt lat="45.92632" lon="4.73652">
        <ele>170.899993896</ele>
        <time>2015-10-25T12:04:58.974Z</time>
      </trkpt>
      <trkpt lat="45.92629" lon="4.73646">
        <ele>171.100006104</ele>
        <time>2015-10-25T12:04:59.953Z</time>
      </trkpt>
      <trkpt lat="45.92626" lon="4.73639">
        <ele>171.399993896</ele>
        <time>2015-10-25T12:05:00.963Z</time>
      </trkpt>
      <trkpt lat="45.92622" lon="4.73633">
        <ele>171.399993896</ele>
        <time>2015-10-25T12:05:01.938Z</time>
      </trkpt>
      <trkpt lat="45.92617" lon="4.73629">
        <ele>171.300003052</ele>
        <time>2015-10-25T12:05:02.963Z</time>
      </trkpt>
      <trkpt lat="45.92611" lon="4.73626">
        <ele>171.399993896</ele>
        <time>2015-10-25T12:05:03.944Z</time>
      </trkpt>
      <trkpt lat="45.92605" lon="4.73624">
        <ele>171.699996948</ele>
        <time>2015-10-25T12:05:04.967Z</time>
      </trkpt>
      <trkpt lat="45.92599" lon="4.73623">
        <ele>171.5</ele>
        <time>2015-10-25T12:05:05.938Z</time>
      </trkpt>
      <trkpt lat="45.92593" lon="4.73623">
        <ele>171.300003052</ele>
        <time>2015-10-25T12:05:06.963Z</time>
      </trkpt>
      <trkpt lat="45.92587" lon="4.73624">
        <ele>171.399993896</ele>
        <time>2015-10-25T12:05:07.935Z</time>
      </trkpt>
      <trkpt lat="45.92581" lon="4.73625">
        <ele>171.600006104</ele>
        <time>2015-10-25T12:05:08.962Z</time>
      </trkpt>
      <trkpt lat="45.92576" lon="4.73626">
        <ele>171.899993896</ele>
        <time>2015-10-25T12:05:09.942Z</time>
      </trkpt>
      <trkpt lat="45.92571" lon="4.73628">
        <ele>171.899993896</ele>
        <time>2015-10-25T12:05:10.966Z</time>
      </trkpt>
      <trkpt lat="45.92565" lon="4.73629">
        <ele>172.5</ele>
        <time>2015-10-25T12:05:11.939Z</time>
      </trkpt>
      <trkpt lat="45.9256" lon="4.7363">
        <ele>172.600006104</ele>
        <time>2015-10-25T12:05:12.965Z</time>
      </trkpt>
      <trkpt lat="45.92555" lon="4.73631">
        <ele>172.899993896</ele>
        <time>2015-10-25T12:05:13.935Z</time>
      </trkpt>
      <trkpt lat="45.9255" lon="4.73632">
        <ele>173</ele>
        <time>2015-10-25T12:05:14.965Z</time>
      </trkpt>
      <trkpt lat="45.92545" lon="4.73633">
        <ele>172.600006104</ele>
        <time>2015-10-25T12:05:15.941Z</time>
      </trkpt>
      <trkpt lat="45.92539" lon="4.73634">
        <ele>172.899993896</ele>
        <time>2015-10-25T12:05:16.965Z</time>
      </trkpt>
      <trkpt lat="45.92534" lon="4.73634">
        <ele>172.5</ele>
        <time>2015-10-25T12:05:17.939Z</time>
      </trkpt>
      <trkpt lat="45.92529" lon="4.73635">
        <ele>172.199996948</ele>
        <time>2015-10-25T12:05:18.962Z</time>
      </trkpt>
      <trkpt lat="45.92523" lon="4.73635">
        <ele>172.5</ele>
        <time>2015-10-25T12:05:19.935Z</time>
      </trkpt>
      <trkpt lat="45.92518" lon="4.73636">
        <ele>172.600006104</ele>
        <time>2015-10-25T12:05:20.979Z</time>
      </trkpt>
      <trkpt lat="45.92513" lon="4.73636">
        <ele>172.699996948</ele>
        <time>2015-10-25T12:05:21.937Z</time>
      </trkpt>
      <trkpt lat="45.92508" lon="4.73636">
        <ele>172.699996948</ele>
        <time>2015-10-25T12:05:22.97Z</time>
      </trkpt>
      <trkpt lat="45.92504" lon="4.73636">
        <ele>172.800003052</ele>
        <time>2015-10-25T12:05:23.939Z</time>
      </trkpt>
      <trkpt lat="45.92495" lon="4.73638">
        <ele>172.600006104</ele>
        <time>2015-10-25T12:05:25.962Z</time>
      </trkpt>
      <trkpt lat="45.92491" lon="4.73638">
        <ele>172.699996948</ele>
        <time>2015-10-25T12:05:26.935Z</time>
      </trkpt>
      <trkpt lat="45.92482" lon="4.73638">
        <ele>172.699996948</ele>
        <time>2015-10-25T12:05:28.967Z</time>
      </trkpt>
      <trkpt lat="45.92477" lon="4.7364">
        <ele>172.600006104</ele>
        <time>2015-10-25T12:05:29.939Z</time>
      </trkpt>
      <trkpt lat="45.92471" lon="4.73648">
        <ele>172.699996948</ele>
        <time>2015-10-25T12:05:32.084Z</time>
      </trkpt>
      <trkpt lat="45.9247" lon="4.73654">
        <ele>172.800003052</ele>
        <time>2015-10-25T12:05:32.938Z</time>
      </trkpt>
      <trkpt lat="45.92469" lon="4.73666">
        <ele>172.600006104</ele>
        <time>2015-10-25T12:05:34.965Z</time>
      </trkpt>
      <trkpt lat="45.92469" lon="4.73672">
        <ele>172.699996948</ele>
        <time>2015-10-25T12:05:35.936Z</time>
      </trkpt>
      <trkpt lat="45.92468" lon="4.73684">
        <ele>172.399993896</ele>
        <time>2015-10-25T12:05:38.021Z</time>
      </trkpt>
      <trkpt lat="45.92468" lon="4.7369">
        <ele>172.399993896</ele>
        <time>2015-10-25T12:05:38.935Z</time>
      </trkpt>
      <trkpt lat="45.92466" lon="4.73701">
        <ele>172.5</ele>
        <time>2015-10-25T12:05:40.963Z</time>
      </trkpt>
      <trkpt lat="45.92466" lon="4.73705">
        <ele>172.800003052</ele>
        <time>2015-10-25T12:05:41.94Z</time>
      </trkpt>
      <trkpt lat="45.92465" lon="4.73708">
        <ele>172.800003052</ele>
        <time>2015-10-25T12:05:43.078Z</time>
      </trkpt>
      <trkpt lat="45.92464" lon="4.7371">
        <ele>172.699996948</ele>
        <time>2015-10-25T12:05:43.938Z</time>
      </trkpt>
      <trkpt lat="45.92464" lon="4.73712">
        <ele>172.300003052</ele>
        <time>2015-10-25T12:06:16.466Z</time>
      </trkpt>
    </trkseg>
  </trk>
</gpx>